<?xml version="1.0" encoding="UTF-8" standalone="no" ?>
<gpx xmlns="http://www.topografix.com/GPX/1/1" xmlns:xsi="http://www.w3.org/2001/XMLSchema-instance" xsi:schemaLocation="http://www.topografix.com/GPX/1/1 http://www.topografix.com/GPX/1/1/gpx.xsd" version="1.1" creator="VisuGPX - https://www.visugpx.com">
  <metadata>
    <name>Lorp - Voie verte puis alternance de chemins et petites routes</name>
  </metadata>
  <trk>
    <name><![CDATA[Lorp🌞 - Reco parcours à faire avec Gnognol👌]]></name>
    <trkseg>
      <trkpt lat="43.01101" lon="1.11988">
        <ele>375.3</ele>
        <time>2024-06-24T13:29:24.245Z</time>
      </trkpt>
      <trkpt lat="43.0111" lon="1.11969">
        <ele>375.3</ele>
        <time>2024-06-24T13:29:26.854Z</time>
      </trkpt>
      <trkpt lat="43.0115" lon="1.11888">
        <ele>374.3</ele>
        <time>2024-06-24T13:29:38.257Z</time>
      </trkpt>
      <trkpt lat="43.01273" lon="1.11674">
        <ele>370.8</ele>
        <time>2024-06-24T13:30:09.987Z</time>
      </trkpt>
      <trkpt lat="43.01278" lon="1.11669">
        <ele>375.8</ele>
        <time>2024-06-24T13:30:10.993Z</time>
      </trkpt>
      <trkpt lat="43.01282" lon="1.11662">
        <ele>375.8</ele>
        <time>2024-06-24T13:30:11.993Z</time>
      </trkpt>
      <trkpt lat="43.01286" lon="1.11657">
        <ele>375.8</ele>
        <time>2024-06-24T13:30:12.993Z</time>
      </trkpt>
      <trkpt lat="43.0129" lon="1.11651">
        <ele>375.8</ele>
        <time>2024-06-24T13:30:13.993Z</time>
      </trkpt>
      <trkpt lat="43.01294" lon="1.11646">
        <ele>375.4</ele>
        <time>2024-06-24T13:30:14.993Z</time>
      </trkpt>
      <trkpt lat="43.01298" lon="1.1164">
        <ele>375.4</ele>
        <time>2024-06-24T13:30:15.993Z</time>
      </trkpt>
      <trkpt lat="43.01302" lon="1.11634">
        <ele>375.8</ele>
        <time>2024-06-24T13:30:16.993Z</time>
      </trkpt>
      <trkpt lat="43.01307" lon="1.11628">
        <ele>375.8</ele>
        <time>2024-06-24T13:30:17.993Z</time>
      </trkpt>
      <trkpt lat="43.0131" lon="1.11622">
        <ele>375.8</ele>
        <time>2024-06-24T13:30:18.993Z</time>
      </trkpt>
      <trkpt lat="43.01315" lon="1.11616">
        <ele>375.8</ele>
        <time>2024-06-24T13:30:19.993Z</time>
      </trkpt>
      <trkpt lat="43.01319" lon="1.1161">
        <ele>375.8</ele>
        <time>2024-06-24T13:30:20.993Z</time>
      </trkpt>
      <trkpt lat="43.01323" lon="1.11605">
        <ele>375.8</ele>
        <time>2024-06-24T13:30:21.993Z</time>
      </trkpt>
      <trkpt lat="43.01327" lon="1.11599">
        <ele>375.4</ele>
        <time>2024-06-24T13:30:22.993Z</time>
      </trkpt>
      <trkpt lat="43.01331" lon="1.11593">
        <ele>375.4</ele>
        <time>2024-06-24T13:30:23.993Z</time>
      </trkpt>
      <trkpt lat="43.01335" lon="1.11588">
        <ele>376.2</ele>
        <time>2024-06-24T13:30:24.993Z</time>
      </trkpt>
      <trkpt lat="43.01339" lon="1.11582">
        <ele>375.8</ele>
        <time>2024-06-24T13:30:25.993Z</time>
      </trkpt>
      <trkpt lat="43.01343" lon="1.11577">
        <ele>376</ele>
        <time>2024-06-24T13:30:26.993Z</time>
      </trkpt>
      <trkpt lat="43.01347" lon="1.11572">
        <ele>376</ele>
        <time>2024-06-24T13:30:27.993Z</time>
      </trkpt>
      <trkpt lat="43.01351" lon="1.11566">
        <ele>375.6</ele>
        <time>2024-06-24T13:30:28.993Z</time>
      </trkpt>
      <trkpt lat="43.01355" lon="1.11561">
        <ele>375.6</ele>
        <time>2024-06-24T13:30:29.993Z</time>
      </trkpt>
      <trkpt lat="43.0136" lon="1.11556">
        <ele>375.6</ele>
        <time>2024-06-24T13:30:30.993Z</time>
      </trkpt>
      <trkpt lat="43.01364" lon="1.11551">
        <ele>375.2</ele>
        <time>2024-06-24T13:30:31.993Z</time>
      </trkpt>
      <trkpt lat="43.01368" lon="1.11545">
        <ele>375.2</ele>
        <time>2024-06-24T13:30:32.993Z</time>
      </trkpt>
      <trkpt lat="43.01372" lon="1.1154">
        <ele>375.4</ele>
        <time>2024-06-24T13:30:33.993Z</time>
      </trkpt>
      <trkpt lat="43.01377" lon="1.11535">
        <ele>375.4</ele>
        <time>2024-06-24T13:30:34.993Z</time>
      </trkpt>
      <trkpt lat="43.01381" lon="1.1153">
        <ele>375.2</ele>
        <time>2024-06-24T13:30:35.993Z</time>
      </trkpt>
      <trkpt lat="43.01385" lon="1.11524">
        <ele>375.2</ele>
        <time>2024-06-24T13:30:36.993Z</time>
      </trkpt>
      <trkpt lat="43.01389" lon="1.11519">
        <ele>375.2</ele>
        <time>2024-06-24T13:30:37.993Z</time>
      </trkpt>
      <trkpt lat="43.01393" lon="1.11514">
        <ele>375.2</ele>
        <time>2024-06-24T13:30:38.993Z</time>
      </trkpt>
      <trkpt lat="43.01397" lon="1.1151">
        <ele>375.2</ele>
        <time>2024-06-24T13:30:39.993Z</time>
      </trkpt>
      <trkpt lat="43.01402" lon="1.11505">
        <ele>375</ele>
        <time>2024-06-24T13:30:40.993Z</time>
      </trkpt>
      <trkpt lat="43.01406" lon="1.115">
        <ele>375</ele>
        <time>2024-06-24T13:30:41.993Z</time>
      </trkpt>
      <trkpt lat="43.01411" lon="1.11496">
        <ele>375</ele>
        <time>2024-06-24T13:30:42.993Z</time>
      </trkpt>
      <trkpt lat="43.01415" lon="1.1149">
        <ele>375.2</ele>
        <time>2024-06-24T13:30:43.993Z</time>
      </trkpt>
      <trkpt lat="43.0142" lon="1.11485">
        <ele>375.2</ele>
        <time>2024-06-24T13:30:44.993Z</time>
      </trkpt>
      <trkpt lat="43.01424" lon="1.1148">
        <ele>375.2</ele>
        <time>2024-06-24T13:30:45.993Z</time>
      </trkpt>
      <trkpt lat="43.01428" lon="1.11476">
        <ele>375.2</ele>
        <time>2024-06-24T13:30:46.993Z</time>
      </trkpt>
      <trkpt lat="43.01432" lon="1.1147">
        <ele>375.4</ele>
        <time>2024-06-24T13:30:47.993Z</time>
      </trkpt>
      <trkpt lat="43.01437" lon="1.11465">
        <ele>375.4</ele>
        <time>2024-06-24T13:30:48.993Z</time>
      </trkpt>
      <trkpt lat="43.01441" lon="1.1146">
        <ele>375.4</ele>
        <time>2024-06-24T13:30:49.993Z</time>
      </trkpt>
      <trkpt lat="43.01445" lon="1.11456">
        <ele>375.2</ele>
        <time>2024-06-24T13:30:50.993Z</time>
      </trkpt>
      <trkpt lat="43.0145" lon="1.11452">
        <ele>375.4</ele>
        <time>2024-06-24T13:30:51.993Z</time>
      </trkpt>
      <trkpt lat="43.01454" lon="1.11447">
        <ele>375.4</ele>
        <time>2024-06-24T13:30:52.993Z</time>
      </trkpt>
      <trkpt lat="43.01459" lon="1.11443">
        <ele>375.4</ele>
        <time>2024-06-24T13:30:53.993Z</time>
      </trkpt>
      <trkpt lat="43.01464" lon="1.11438">
        <ele>375.4</ele>
        <time>2024-06-24T13:30:54.993Z</time>
      </trkpt>
      <trkpt lat="43.01468" lon="1.11434">
        <ele>375.4</ele>
        <time>2024-06-24T13:30:55.993Z</time>
      </trkpt>
      <trkpt lat="43.01472" lon="1.11429">
        <ele>375.4</ele>
        <time>2024-06-24T13:30:56.993Z</time>
      </trkpt>
      <trkpt lat="43.01477" lon="1.11424">
        <ele>375.6</ele>
        <time>2024-06-24T13:30:57.993Z</time>
      </trkpt>
      <trkpt lat="43.01481" lon="1.1142">
        <ele>375.6</ele>
        <time>2024-06-24T13:30:58.993Z</time>
      </trkpt>
      <trkpt lat="43.01485" lon="1.11415">
        <ele>375.4</ele>
        <time>2024-06-24T13:30:59.993Z</time>
      </trkpt>
      <trkpt lat="43.01489" lon="1.11411">
        <ele>375.4</ele>
        <time>2024-06-24T13:31:00.993Z</time>
      </trkpt>
      <trkpt lat="43.01493" lon="1.11406">
        <ele>375.4</ele>
        <time>2024-06-24T13:31:01.993Z</time>
      </trkpt>
      <trkpt lat="43.01497" lon="1.11401">
        <ele>375.4</ele>
        <time>2024-06-24T13:31:02.993Z</time>
      </trkpt>
      <trkpt lat="43.01501" lon="1.11397">
        <ele>375.6</ele>
        <time>2024-06-24T13:31:03.993Z</time>
      </trkpt>
      <trkpt lat="43.01505" lon="1.11391">
        <ele>375.6</ele>
        <time>2024-06-24T13:31:04.993Z</time>
      </trkpt>
      <trkpt lat="43.01509" lon="1.11386">
        <ele>375.6</ele>
        <time>2024-06-24T13:31:05.993Z</time>
      </trkpt>
      <trkpt lat="43.01513" lon="1.11382">
        <ele>375.4</ele>
        <time>2024-06-24T13:31:06.993Z</time>
      </trkpt>
      <trkpt lat="43.01517" lon="1.11378">
        <ele>375.4</ele>
        <time>2024-06-24T13:31:07.993Z</time>
      </trkpt>
      <trkpt lat="43.01521" lon="1.11373">
        <ele>376</ele>
        <time>2024-06-24T13:31:08.993Z</time>
      </trkpt>
      <trkpt lat="43.01525" lon="1.1137">
        <ele>376</ele>
        <time>2024-06-24T13:31:09.993Z</time>
      </trkpt>
      <trkpt lat="43.01529" lon="1.11365">
        <ele>376</ele>
        <time>2024-06-24T13:31:10.993Z</time>
      </trkpt>
      <trkpt lat="43.01533" lon="1.1136">
        <ele>376</ele>
        <time>2024-06-24T13:31:11.993Z</time>
      </trkpt>
      <trkpt lat="43.01537" lon="1.11356">
        <ele>375.6</ele>
        <time>2024-06-24T13:31:12.993Z</time>
      </trkpt>
      <trkpt lat="43.01541" lon="1.11351">
        <ele>376</ele>
        <time>2024-06-24T13:31:13.993Z</time>
      </trkpt>
      <trkpt lat="43.01544" lon="1.11347">
        <ele>376</ele>
        <time>2024-06-24T13:31:14.993Z</time>
      </trkpt>
      <trkpt lat="43.01549" lon="1.11342">
        <ele>375.6</ele>
        <time>2024-06-24T13:31:15.993Z</time>
      </trkpt>
      <trkpt lat="43.01553" lon="1.11337">
        <ele>375.6</ele>
        <time>2024-06-24T13:31:16.993Z</time>
      </trkpt>
      <trkpt lat="43.01557" lon="1.11332">
        <ele>375.6</ele>
        <time>2024-06-24T13:31:17.993Z</time>
      </trkpt>
      <trkpt lat="43.01561" lon="1.11328">
        <ele>375.6</ele>
        <time>2024-06-24T13:31:18.993Z</time>
      </trkpt>
      <trkpt lat="43.01565" lon="1.11324">
        <ele>375.6</ele>
        <time>2024-06-24T13:31:19.993Z</time>
      </trkpt>
      <trkpt lat="43.0157" lon="1.11319">
        <ele>375.4</ele>
        <time>2024-06-24T13:31:20.993Z</time>
      </trkpt>
      <trkpt lat="43.01573" lon="1.11315">
        <ele>375.4</ele>
        <time>2024-06-24T13:31:21.993Z</time>
      </trkpt>
      <trkpt lat="43.01578" lon="1.1131">
        <ele>375.4</ele>
        <time>2024-06-24T13:31:22.993Z</time>
      </trkpt>
      <trkpt lat="43.01582" lon="1.11305">
        <ele>375.4</ele>
        <time>2024-06-24T13:31:23.993Z</time>
      </trkpt>
      <trkpt lat="43.01587" lon="1.113">
        <ele>375.4</ele>
        <time>2024-06-24T13:31:24.993Z</time>
      </trkpt>
      <trkpt lat="43.01591" lon="1.11295">
        <ele>375.4</ele>
        <time>2024-06-24T13:31:25.993Z</time>
      </trkpt>
      <trkpt lat="43.01595" lon="1.1129">
        <ele>375.4</ele>
        <time>2024-06-24T13:31:26.993Z</time>
      </trkpt>
      <trkpt lat="43.01599" lon="1.11285">
        <ele>375.4</ele>
        <time>2024-06-24T13:31:27.993Z</time>
      </trkpt>
      <trkpt lat="43.01604" lon="1.1128">
        <ele>375.4</ele>
        <time>2024-06-24T13:31:28.993Z</time>
      </trkpt>
      <trkpt lat="43.01608" lon="1.11276">
        <ele>375.4</ele>
        <time>2024-06-24T13:31:29.993Z</time>
      </trkpt>
      <trkpt lat="43.01613" lon="1.11271">
        <ele>375.4</ele>
        <time>2024-06-24T13:31:30.993Z</time>
      </trkpt>
      <trkpt lat="43.01618" lon="1.11266">
        <ele>375.4</ele>
        <time>2024-06-24T13:31:31.993Z</time>
      </trkpt>
      <trkpt lat="43.01622" lon="1.11261">
        <ele>375.6</ele>
        <time>2024-06-24T13:31:32.993Z</time>
      </trkpt>
      <trkpt lat="43.01626" lon="1.11256">
        <ele>375.6</ele>
        <time>2024-06-24T13:31:33.993Z</time>
      </trkpt>
      <trkpt lat="43.0163" lon="1.1125">
        <ele>376.2</ele>
        <time>2024-06-24T13:31:34.993Z</time>
      </trkpt>
      <trkpt lat="43.01634" lon="1.11246">
        <ele>376.2</ele>
        <time>2024-06-24T13:31:35.993Z</time>
      </trkpt>
      <trkpt lat="43.01638" lon="1.11242">
        <ele>376.2</ele>
        <time>2024-06-24T13:31:36.993Z</time>
      </trkpt>
      <trkpt lat="43.01642" lon="1.11237">
        <ele>376</ele>
        <time>2024-06-24T13:31:37.993Z</time>
      </trkpt>
      <trkpt lat="43.01646" lon="1.11233">
        <ele>376.4</ele>
        <time>2024-06-24T13:31:38.993Z</time>
      </trkpt>
      <trkpt lat="43.0165" lon="1.11228">
        <ele>376.4</ele>
        <time>2024-06-24T13:31:39.993Z</time>
      </trkpt>
      <trkpt lat="43.01653" lon="1.11224">
        <ele>376.4</ele>
        <time>2024-06-24T13:31:40.993Z</time>
      </trkpt>
      <trkpt lat="43.01658" lon="1.1122">
        <ele>376.4</ele>
        <time>2024-06-24T13:31:41.993Z</time>
      </trkpt>
      <trkpt lat="43.01662" lon="1.11217">
        <ele>376.2</ele>
        <time>2024-06-24T13:31:42.993Z</time>
      </trkpt>
      <trkpt lat="43.01666" lon="1.11213">
        <ele>376.2</ele>
        <time>2024-06-24T13:31:43.993Z</time>
      </trkpt>
      <trkpt lat="43.0167" lon="1.1121">
        <ele>376.6</ele>
        <time>2024-06-24T13:31:44.993Z</time>
      </trkpt>
      <trkpt lat="43.01674" lon="1.11206">
        <ele>376.4</ele>
        <time>2024-06-24T13:31:45.993Z</time>
      </trkpt>
      <trkpt lat="43.01678" lon="1.11201">
        <ele>376.4</ele>
        <time>2024-06-24T13:31:46.993Z</time>
      </trkpt>
      <trkpt lat="43.01682" lon="1.11196">
        <ele>376.2</ele>
        <time>2024-06-24T13:31:47.993Z</time>
      </trkpt>
      <trkpt lat="43.01686" lon="1.11192">
        <ele>376.2</ele>
        <time>2024-06-24T13:31:48.993Z</time>
      </trkpt>
      <trkpt lat="43.0169" lon="1.11187">
        <ele>376.2</ele>
        <time>2024-06-24T13:31:49.993Z</time>
      </trkpt>
      <trkpt lat="43.01694" lon="1.11183">
        <ele>376.2</ele>
        <time>2024-06-24T13:31:50.993Z</time>
      </trkpt>
      <trkpt lat="43.01697" lon="1.11178">
        <ele>376.6</ele>
        <time>2024-06-24T13:31:51.993Z</time>
      </trkpt>
      <trkpt lat="43.01703" lon="1.11173">
        <ele>376.4</ele>
        <time>2024-06-24T13:31:52.993Z</time>
      </trkpt>
      <trkpt lat="43.01706" lon="1.11169">
        <ele>376.4</ele>
        <time>2024-06-24T13:31:53.993Z</time>
      </trkpt>
      <trkpt lat="43.01711" lon="1.11165">
        <ele>375.8</ele>
        <time>2024-06-24T13:31:54.993Z</time>
      </trkpt>
      <trkpt lat="43.01714" lon="1.1116">
        <ele>375.8</ele>
        <time>2024-06-24T13:31:55.993Z</time>
      </trkpt>
      <trkpt lat="43.01717" lon="1.11156">
        <ele>375.8</ele>
        <time>2024-06-24T13:31:56.993Z</time>
      </trkpt>
      <trkpt lat="43.01721" lon="1.11151">
        <ele>375.8</ele>
        <time>2024-06-24T13:31:57.993Z</time>
      </trkpt>
      <trkpt lat="43.01724" lon="1.11147">
        <ele>375.8</ele>
        <time>2024-06-24T13:31:58.993Z</time>
      </trkpt>
      <trkpt lat="43.01729" lon="1.11143">
        <ele>375.4</ele>
        <time>2024-06-24T13:31:59.993Z</time>
      </trkpt>
      <trkpt lat="43.01733" lon="1.11139">
        <ele>375.6</ele>
        <time>2024-06-24T13:32:00.993Z</time>
      </trkpt>
      <trkpt lat="43.01737" lon="1.11135">
        <ele>375.8</ele>
        <time>2024-06-24T13:32:01.993Z</time>
      </trkpt>
      <trkpt lat="43.01741" lon="1.11131">
        <ele>376.2</ele>
        <time>2024-06-24T13:32:02.993Z</time>
      </trkpt>
      <trkpt lat="43.01745" lon="1.11126">
        <ele>376.2</ele>
        <time>2024-06-24T13:32:03.993Z</time>
      </trkpt>
      <trkpt lat="43.0175" lon="1.11122">
        <ele>376.4</ele>
        <time>2024-06-24T13:32:04.993Z</time>
      </trkpt>
      <trkpt lat="43.01753" lon="1.11117">
        <ele>376.4</ele>
        <time>2024-06-24T13:32:05.993Z</time>
      </trkpt>
      <trkpt lat="43.01757" lon="1.11112">
        <ele>376.4</ele>
        <time>2024-06-24T13:32:06.993Z</time>
      </trkpt>
      <trkpt lat="43.01761" lon="1.11108">
        <ele>376.4</ele>
        <time>2024-06-24T13:32:07.993Z</time>
      </trkpt>
      <trkpt lat="43.01766" lon="1.11103">
        <ele>376.4</ele>
        <time>2024-06-24T13:32:08.993Z</time>
      </trkpt>
      <trkpt lat="43.01769" lon="1.11099">
        <ele>376.4</ele>
        <time>2024-06-24T13:32:09.993Z</time>
      </trkpt>
      <trkpt lat="43.01774" lon="1.11095">
        <ele>376.4</ele>
        <time>2024-06-24T13:32:10.993Z</time>
      </trkpt>
      <trkpt lat="43.01778" lon="1.11091">
        <ele>376.4</ele>
        <time>2024-06-24T13:32:11.993Z</time>
      </trkpt>
      <trkpt lat="43.01782" lon="1.11086">
        <ele>376.4</ele>
        <time>2024-06-24T13:32:12.993Z</time>
      </trkpt>
      <trkpt lat="43.01786" lon="1.11081">
        <ele>376.4</ele>
        <time>2024-06-24T13:32:13.993Z</time>
      </trkpt>
      <trkpt lat="43.01789" lon="1.11077">
        <ele>376.4</ele>
        <time>2024-06-24T13:32:14.993Z</time>
      </trkpt>
      <trkpt lat="43.01793" lon="1.11073">
        <ele>376.4</ele>
        <time>2024-06-24T13:32:15.993Z</time>
      </trkpt>
      <trkpt lat="43.01797" lon="1.11068">
        <ele>376.4</ele>
        <time>2024-06-24T13:32:16.993Z</time>
      </trkpt>
      <trkpt lat="43.01802" lon="1.11064">
        <ele>376.4</ele>
        <time>2024-06-24T13:32:17.993Z</time>
      </trkpt>
      <trkpt lat="43.01806" lon="1.11059">
        <ele>376.2</ele>
        <time>2024-06-24T13:32:18.993Z</time>
      </trkpt>
      <trkpt lat="43.0181" lon="1.11055">
        <ele>376.2</ele>
        <time>2024-06-24T13:32:19.993Z</time>
      </trkpt>
      <trkpt lat="43.01814" lon="1.1105">
        <ele>376.2</ele>
        <time>2024-06-24T13:32:20.993Z</time>
      </trkpt>
      <trkpt lat="43.01818" lon="1.11045">
        <ele>376.2</ele>
        <time>2024-06-24T13:32:21.993Z</time>
      </trkpt>
      <trkpt lat="43.01823" lon="1.1104">
        <ele>376.2</ele>
        <time>2024-06-24T13:32:22.993Z</time>
      </trkpt>
      <trkpt lat="43.01827" lon="1.11036">
        <ele>376.2</ele>
        <time>2024-06-24T13:32:23.993Z</time>
      </trkpt>
      <trkpt lat="43.01831" lon="1.11031">
        <ele>375.8</ele>
        <time>2024-06-24T13:32:24.993Z</time>
      </trkpt>
      <trkpt lat="43.01836" lon="1.11027">
        <ele>375.8</ele>
        <time>2024-06-24T13:32:25.993Z</time>
      </trkpt>
      <trkpt lat="43.0184" lon="1.11022">
        <ele>376</ele>
        <time>2024-06-24T13:32:26.993Z</time>
      </trkpt>
      <trkpt lat="43.01844" lon="1.11017">
        <ele>376</ele>
        <time>2024-06-24T13:32:27.993Z</time>
      </trkpt>
      <trkpt lat="43.01849" lon="1.11012">
        <ele>376</ele>
        <time>2024-06-24T13:32:28.993Z</time>
      </trkpt>
      <trkpt lat="43.01853" lon="1.11008">
        <ele>376</ele>
        <time>2024-06-24T13:32:29.993Z</time>
      </trkpt>
      <trkpt lat="43.01857" lon="1.11003">
        <ele>376</ele>
        <time>2024-06-24T13:32:30.993Z</time>
      </trkpt>
      <trkpt lat="43.01861" lon="1.10998">
        <ele>376</ele>
        <time>2024-06-24T13:32:31.993Z</time>
      </trkpt>
      <trkpt lat="43.01865" lon="1.10994">
        <ele>376</ele>
        <time>2024-06-24T13:32:32.993Z</time>
      </trkpt>
      <trkpt lat="43.01869" lon="1.1099">
        <ele>376</ele>
        <time>2024-06-24T13:32:33.993Z</time>
      </trkpt>
      <trkpt lat="43.01873" lon="1.10985">
        <ele>375.8</ele>
        <time>2024-06-24T13:32:34.993Z</time>
      </trkpt>
      <trkpt lat="43.01877" lon="1.10981">
        <ele>375.8</ele>
        <time>2024-06-24T13:32:35.993Z</time>
      </trkpt>
      <trkpt lat="43.01883" lon="1.10976">
        <ele>375.8</ele>
        <time>2024-06-24T13:32:36.993Z</time>
      </trkpt>
      <trkpt lat="43.01887" lon="1.10971">
        <ele>375.8</ele>
        <time>2024-06-24T13:32:37.993Z</time>
      </trkpt>
      <trkpt lat="43.01891" lon="1.10967">
        <ele>375.6</ele>
        <time>2024-06-24T13:32:38.993Z</time>
      </trkpt>
      <trkpt lat="43.01895" lon="1.10963">
        <ele>375.6</ele>
        <time>2024-06-24T13:32:39.993Z</time>
      </trkpt>
      <trkpt lat="43.01899" lon="1.10958">
        <ele>375.6</ele>
        <time>2024-06-24T13:32:40.993Z</time>
      </trkpt>
      <trkpt lat="43.01903" lon="1.10953">
        <ele>375.6</ele>
        <time>2024-06-24T13:32:41.993Z</time>
      </trkpt>
      <trkpt lat="43.01908" lon="1.10949">
        <ele>375.6</ele>
        <time>2024-06-24T13:32:42.993Z</time>
      </trkpt>
      <trkpt lat="43.01912" lon="1.10944">
        <ele>375.6</ele>
        <time>2024-06-24T13:32:43.993Z</time>
      </trkpt>
      <trkpt lat="43.01916" lon="1.10939">
        <ele>375.6</ele>
        <time>2024-06-24T13:32:44.993Z</time>
      </trkpt>
      <trkpt lat="43.01921" lon="1.10934">
        <ele>375.6</ele>
        <time>2024-06-24T13:32:45.993Z</time>
      </trkpt>
      <trkpt lat="43.01925" lon="1.1093">
        <ele>375.6</ele>
        <time>2024-06-24T13:32:46.993Z</time>
      </trkpt>
      <trkpt lat="43.01929" lon="1.10925">
        <ele>375.6</ele>
        <time>2024-06-24T13:32:47.993Z</time>
      </trkpt>
      <trkpt lat="43.01933" lon="1.10921">
        <ele>375.6</ele>
        <time>2024-06-24T13:32:48.993Z</time>
      </trkpt>
      <trkpt lat="43.01937" lon="1.10916">
        <ele>375.4</ele>
        <time>2024-06-24T13:32:49.993Z</time>
      </trkpt>
      <trkpt lat="43.01941" lon="1.10911">
        <ele>375.6</ele>
        <time>2024-06-24T13:32:50.993Z</time>
      </trkpt>
      <trkpt lat="43.01945" lon="1.10907">
        <ele>375.6</ele>
        <time>2024-06-24T13:32:51.993Z</time>
      </trkpt>
      <trkpt lat="43.01949" lon="1.10902">
        <ele>375.6</ele>
        <time>2024-06-24T13:32:52.993Z</time>
      </trkpt>
      <trkpt lat="43.01953" lon="1.10897">
        <ele>375.4</ele>
        <time>2024-06-24T13:32:53.993Z</time>
      </trkpt>
      <trkpt lat="43.01957" lon="1.10893">
        <ele>375.2</ele>
        <time>2024-06-24T13:32:54.993Z</time>
      </trkpt>
      <trkpt lat="43.01961" lon="1.10888">
        <ele>375.2</ele>
        <time>2024-06-24T13:32:55.993Z</time>
      </trkpt>
      <trkpt lat="43.01965" lon="1.10883">
        <ele>375.2</ele>
        <time>2024-06-24T13:32:56.993Z</time>
      </trkpt>
      <trkpt lat="43.01969" lon="1.10879">
        <ele>375.2</ele>
        <time>2024-06-24T13:32:57.993Z</time>
      </trkpt>
      <trkpt lat="43.01973" lon="1.10874">
        <ele>374.8</ele>
        <time>2024-06-24T13:32:58.993Z</time>
      </trkpt>
      <trkpt lat="43.01978" lon="1.10869">
        <ele>374.8</ele>
        <time>2024-06-24T13:32:59.993Z</time>
      </trkpt>
      <trkpt lat="43.01982" lon="1.10865">
        <ele>374.6</ele>
        <time>2024-06-24T13:33:00.993Z</time>
      </trkpt>
      <trkpt lat="43.01986" lon="1.1086">
        <ele>374.2</ele>
        <time>2024-06-24T13:33:01.993Z</time>
      </trkpt>
      <trkpt lat="43.0199" lon="1.10855">
        <ele>374.2</ele>
        <time>2024-06-24T13:33:02.993Z</time>
      </trkpt>
      <trkpt lat="43.01994" lon="1.10851">
        <ele>374.2</ele>
        <time>2024-06-24T13:33:03.993Z</time>
      </trkpt>
      <trkpt lat="43.01998" lon="1.10846">
        <ele>374.6</ele>
        <time>2024-06-24T13:33:04.993Z</time>
      </trkpt>
      <trkpt lat="43.02002" lon="1.10842">
        <ele>374.2</ele>
        <time>2024-06-24T13:33:05.993Z</time>
      </trkpt>
      <trkpt lat="43.02006" lon="1.10838">
        <ele>374.8</ele>
        <time>2024-06-24T13:33:06.993Z</time>
      </trkpt>
      <trkpt lat="43.0201" lon="1.10833">
        <ele>374.8</ele>
        <time>2024-06-24T13:33:07.993Z</time>
      </trkpt>
      <trkpt lat="43.02014" lon="1.10828">
        <ele>375</ele>
        <time>2024-06-24T13:33:08.993Z</time>
      </trkpt>
      <trkpt lat="43.02019" lon="1.10824">
        <ele>374.6</ele>
        <time>2024-06-24T13:33:09.993Z</time>
      </trkpt>
      <trkpt lat="43.02023" lon="1.10819">
        <ele>374.2</ele>
        <time>2024-06-24T13:33:10.993Z</time>
      </trkpt>
      <trkpt lat="43.02027" lon="1.10815">
        <ele>374</ele>
        <time>2024-06-24T13:33:11.993Z</time>
      </trkpt>
      <trkpt lat="43.02032" lon="1.1081">
        <ele>374.8</ele>
        <time>2024-06-24T13:33:12.993Z</time>
      </trkpt>
      <trkpt lat="43.02036" lon="1.10806">
        <ele>374.6</ele>
        <time>2024-06-24T13:33:13.993Z</time>
      </trkpt>
      <trkpt lat="43.0204" lon="1.10801">
        <ele>374.2</ele>
        <time>2024-06-24T13:33:14.993Z</time>
      </trkpt>
      <trkpt lat="43.02044" lon="1.10796">
        <ele>374.2</ele>
        <time>2024-06-24T13:33:15.993Z</time>
      </trkpt>
      <trkpt lat="43.02049" lon="1.10791">
        <ele>374.2</ele>
        <time>2024-06-24T13:33:16.993Z</time>
      </trkpt>
      <trkpt lat="43.02053" lon="1.10787">
        <ele>374.2</ele>
        <time>2024-06-24T13:33:17.993Z</time>
      </trkpt>
      <trkpt lat="43.02057" lon="1.10783">
        <ele>374.2</ele>
        <time>2024-06-24T13:33:18.993Z</time>
      </trkpt>
      <trkpt lat="43.02061" lon="1.10777">
        <ele>374</ele>
        <time>2024-06-24T13:33:19.993Z</time>
      </trkpt>
      <trkpt lat="43.02065" lon="1.10773">
        <ele>373.6</ele>
        <time>2024-06-24T13:33:20.993Z</time>
      </trkpt>
      <trkpt lat="43.0207" lon="1.10767">
        <ele>373.6</ele>
        <time>2024-06-24T13:33:21.993Z</time>
      </trkpt>
      <trkpt lat="43.02074" lon="1.10763">
        <ele>373.6</ele>
        <time>2024-06-24T13:33:22.993Z</time>
      </trkpt>
      <trkpt lat="43.02078" lon="1.10758">
        <ele>373.6</ele>
        <time>2024-06-24T13:33:23.993Z</time>
      </trkpt>
      <trkpt lat="43.02082" lon="1.10753">
        <ele>373.6</ele>
        <time>2024-06-24T13:33:24.993Z</time>
      </trkpt>
      <trkpt lat="43.02087" lon="1.10749">
        <ele>373.6</ele>
        <time>2024-06-24T13:33:25.993Z</time>
      </trkpt>
      <trkpt lat="43.02091" lon="1.10744">
        <ele>373.6</ele>
        <time>2024-06-24T13:33:26.993Z</time>
      </trkpt>
      <trkpt lat="43.02096" lon="1.10739">
        <ele>373.6</ele>
        <time>2024-06-24T13:33:27.993Z</time>
      </trkpt>
      <trkpt lat="43.021" lon="1.10734">
        <ele>373.8</ele>
        <time>2024-06-24T13:33:28.993Z</time>
      </trkpt>
      <trkpt lat="43.02104" lon="1.10729">
        <ele>373.8</ele>
        <time>2024-06-24T13:33:29.993Z</time>
      </trkpt>
      <trkpt lat="43.02108" lon="1.10725">
        <ele>373.4</ele>
        <time>2024-06-24T13:33:30.993Z</time>
      </trkpt>
      <trkpt lat="43.02113" lon="1.10719">
        <ele>373.2</ele>
        <time>2024-06-24T13:33:31.993Z</time>
      </trkpt>
      <trkpt lat="43.02117" lon="1.10716">
        <ele>373.4</ele>
        <time>2024-06-24T13:33:32.993Z</time>
      </trkpt>
      <trkpt lat="43.02121" lon="1.10711">
        <ele>373.4</ele>
        <time>2024-06-24T13:33:33.993Z</time>
      </trkpt>
      <trkpt lat="43.02125" lon="1.10705">
        <ele>373.4</ele>
        <time>2024-06-24T13:33:34.993Z</time>
      </trkpt>
      <trkpt lat="43.02129" lon="1.10701">
        <ele>373.4</ele>
        <time>2024-06-24T13:33:35.993Z</time>
      </trkpt>
      <trkpt lat="43.02134" lon="1.10698">
        <ele>373.4</ele>
        <time>2024-06-24T13:33:36.993Z</time>
      </trkpt>
      <trkpt lat="43.02137" lon="1.10692">
        <ele>373.6</ele>
        <time>2024-06-24T13:33:37.993Z</time>
      </trkpt>
      <trkpt lat="43.02141" lon="1.10687">
        <ele>373.4</ele>
        <time>2024-06-24T13:33:38.993Z</time>
      </trkpt>
      <trkpt lat="43.02145" lon="1.10682">
        <ele>373.4</ele>
        <time>2024-06-24T13:33:39.993Z</time>
      </trkpt>
      <trkpt lat="43.02149" lon="1.10678">
        <ele>373.4</ele>
        <time>2024-06-24T13:33:40.993Z</time>
      </trkpt>
      <trkpt lat="43.02154" lon="1.10674">
        <ele>373.4</ele>
        <time>2024-06-24T13:33:41.993Z</time>
      </trkpt>
      <trkpt lat="43.02158" lon="1.1067">
        <ele>373.2</ele>
        <time>2024-06-24T13:33:42.993Z</time>
      </trkpt>
      <trkpt lat="43.02162" lon="1.10665">
        <ele>373</ele>
        <time>2024-06-24T13:33:43.993Z</time>
      </trkpt>
      <trkpt lat="43.02166" lon="1.10659">
        <ele>373</ele>
        <time>2024-06-24T13:33:44.993Z</time>
      </trkpt>
      <trkpt lat="43.02171" lon="1.10655">
        <ele>373.4</ele>
        <time>2024-06-24T13:33:45.993Z</time>
      </trkpt>
      <trkpt lat="43.02175" lon="1.10649">
        <ele>373.4</ele>
        <time>2024-06-24T13:33:46.993Z</time>
      </trkpt>
      <trkpt lat="43.02179" lon="1.10643">
        <ele>373.4</ele>
        <time>2024-06-24T13:33:47.993Z</time>
      </trkpt>
      <trkpt lat="43.02183" lon="1.10639">
        <ele>373.4</ele>
        <time>2024-06-24T13:33:48.993Z</time>
      </trkpt>
      <trkpt lat="43.02187" lon="1.10633">
        <ele>373.4</ele>
        <time>2024-06-24T13:33:49.993Z</time>
      </trkpt>
      <trkpt lat="43.02191" lon="1.10628">
        <ele>373</ele>
        <time>2024-06-24T13:33:50.993Z</time>
      </trkpt>
      <trkpt lat="43.02194" lon="1.10623">
        <ele>373</ele>
        <time>2024-06-24T13:33:51.993Z</time>
      </trkpt>
      <trkpt lat="43.02198" lon="1.10618">
        <ele>373</ele>
        <time>2024-06-24T13:33:52.993Z</time>
      </trkpt>
      <trkpt lat="43.02202" lon="1.10613">
        <ele>373</ele>
        <time>2024-06-24T13:33:53.993Z</time>
      </trkpt>
      <trkpt lat="43.02206" lon="1.10608">
        <ele>373</ele>
        <time>2024-06-24T13:33:54.993Z</time>
      </trkpt>
      <trkpt lat="43.02209" lon="1.10603">
        <ele>373</ele>
        <time>2024-06-24T13:33:55.993Z</time>
      </trkpt>
      <trkpt lat="43.02213" lon="1.10597">
        <ele>373</ele>
        <time>2024-06-24T13:33:56.993Z</time>
      </trkpt>
      <trkpt lat="43.02217" lon="1.10591">
        <ele>373</ele>
        <time>2024-06-24T13:33:57.993Z</time>
      </trkpt>
      <trkpt lat="43.02221" lon="1.10585">
        <ele>373</ele>
        <time>2024-06-24T13:33:58.993Z</time>
      </trkpt>
      <trkpt lat="43.02225" lon="1.1058">
        <ele>372.6</ele>
        <time>2024-06-24T13:33:59.993Z</time>
      </trkpt>
      <trkpt lat="43.02228" lon="1.10574">
        <ele>372.6</ele>
        <time>2024-06-24T13:34:00.993Z</time>
      </trkpt>
      <trkpt lat="43.02232" lon="1.10569">
        <ele>372.2</ele>
        <time>2024-06-24T13:34:01.993Z</time>
      </trkpt>
      <trkpt lat="43.02235" lon="1.10563">
        <ele>372.2</ele>
        <time>2024-06-24T13:34:02.993Z</time>
      </trkpt>
      <trkpt lat="43.0224" lon="1.10559">
        <ele>371.6</ele>
        <time>2024-06-24T13:34:03.993Z</time>
      </trkpt>
      <trkpt lat="43.02244" lon="1.10554">
        <ele>371.6</ele>
        <time>2024-06-24T13:34:04.993Z</time>
      </trkpt>
      <trkpt lat="43.02246" lon="1.10547">
        <ele>372</ele>
        <time>2024-06-24T13:34:05.993Z</time>
      </trkpt>
      <trkpt lat="43.0225" lon="1.10541">
        <ele>371.6</ele>
        <time>2024-06-24T13:34:06.993Z</time>
      </trkpt>
      <trkpt lat="43.02254" lon="1.10536">
        <ele>371.4</ele>
        <time>2024-06-24T13:34:07.993Z</time>
      </trkpt>
      <trkpt lat="43.02257" lon="1.1053">
        <ele>371.6</ele>
        <time>2024-06-24T13:34:08.993Z</time>
      </trkpt>
      <trkpt lat="43.02261" lon="1.10525">
        <ele>372</ele>
        <time>2024-06-24T13:34:09.993Z</time>
      </trkpt>
      <trkpt lat="43.02264" lon="1.10519">
        <ele>372.4</ele>
        <time>2024-06-24T13:34:10.993Z</time>
      </trkpt>
      <trkpt lat="43.02269" lon="1.10515">
        <ele>372.4</ele>
        <time>2024-06-24T13:34:11.993Z</time>
      </trkpt>
      <trkpt lat="43.02272" lon="1.10509">
        <ele>372.4</ele>
        <time>2024-06-24T13:34:12.993Z</time>
      </trkpt>
      <trkpt lat="43.02275" lon="1.10504">
        <ele>372</ele>
        <time>2024-06-24T13:34:13.993Z</time>
      </trkpt>
      <trkpt lat="43.02279" lon="1.10498">
        <ele>372</ele>
        <time>2024-06-24T13:34:14.993Z</time>
      </trkpt>
      <trkpt lat="43.02283" lon="1.10493">
        <ele>372</ele>
        <time>2024-06-24T13:34:15.993Z</time>
      </trkpt>
      <trkpt lat="43.02286" lon="1.10486">
        <ele>371.8</ele>
        <time>2024-06-24T13:34:16.993Z</time>
      </trkpt>
      <trkpt lat="43.02289" lon="1.1048">
        <ele>371.8</ele>
        <time>2024-06-24T13:34:17.993Z</time>
      </trkpt>
      <trkpt lat="43.02293" lon="1.10475">
        <ele>371.8</ele>
        <time>2024-06-24T13:34:18.993Z</time>
      </trkpt>
      <trkpt lat="43.02296" lon="1.10468">
        <ele>371.8</ele>
        <time>2024-06-24T13:34:19.993Z</time>
      </trkpt>
      <trkpt lat="43.02299" lon="1.10462">
        <ele>371.8</ele>
        <time>2024-06-24T13:34:20.993Z</time>
      </trkpt>
      <trkpt lat="43.02302" lon="1.10454">
        <ele>371.8</ele>
        <time>2024-06-24T13:34:21.993Z</time>
      </trkpt>
      <trkpt lat="43.02306" lon="1.10448">
        <ele>371.6</ele>
        <time>2024-06-24T13:34:22.993Z</time>
      </trkpt>
      <trkpt lat="43.02309" lon="1.10442">
        <ele>371.6</ele>
        <time>2024-06-24T13:34:23.993Z</time>
      </trkpt>
      <trkpt lat="43.02312" lon="1.10436">
        <ele>371.2</ele>
        <time>2024-06-24T13:34:24.993Z</time>
      </trkpt>
      <trkpt lat="43.02315" lon="1.1043">
        <ele>371.2</ele>
        <time>2024-06-24T13:34:25.993Z</time>
      </trkpt>
      <trkpt lat="43.02318" lon="1.10423">
        <ele>371.2</ele>
        <time>2024-06-24T13:34:26.993Z</time>
      </trkpt>
      <trkpt lat="43.02321" lon="1.10418">
        <ele>371.2</ele>
        <time>2024-06-24T13:34:27.993Z</time>
      </trkpt>
      <trkpt lat="43.02324" lon="1.10412">
        <ele>371.2</ele>
        <time>2024-06-24T13:34:28.993Z</time>
      </trkpt>
      <trkpt lat="43.02328" lon="1.10405">
        <ele>371.2</ele>
        <time>2024-06-24T13:34:29.993Z</time>
      </trkpt>
      <trkpt lat="43.02331" lon="1.10399">
        <ele>371.2</ele>
        <time>2024-06-24T13:34:30.993Z</time>
      </trkpt>
      <trkpt lat="43.02334" lon="1.10393">
        <ele>371</ele>
        <time>2024-06-24T13:34:31.993Z</time>
      </trkpt>
      <trkpt lat="43.02337" lon="1.10387">
        <ele>371</ele>
        <time>2024-06-24T13:34:32.993Z</time>
      </trkpt>
      <trkpt lat="43.0234" lon="1.10379">
        <ele>371</ele>
        <time>2024-06-24T13:34:33.993Z</time>
      </trkpt>
      <trkpt lat="43.02343" lon="1.10373">
        <ele>371</ele>
        <time>2024-06-24T13:34:34.993Z</time>
      </trkpt>
      <trkpt lat="43.02346" lon="1.10367">
        <ele>371</ele>
        <time>2024-06-24T13:34:35.993Z</time>
      </trkpt>
      <trkpt lat="43.02349" lon="1.10361">
        <ele>371</ele>
        <time>2024-06-24T13:34:36.993Z</time>
      </trkpt>
      <trkpt lat="43.02352" lon="1.10354">
        <ele>371</ele>
        <time>2024-06-24T13:34:37.993Z</time>
      </trkpt>
      <trkpt lat="43.02354" lon="1.10348">
        <ele>370.6</ele>
        <time>2024-06-24T13:34:38.993Z</time>
      </trkpt>
      <trkpt lat="43.02357" lon="1.10342">
        <ele>370.6</ele>
        <time>2024-06-24T13:34:39.993Z</time>
      </trkpt>
      <trkpt lat="43.0236" lon="1.10335">
        <ele>370.2</ele>
        <time>2024-06-24T13:34:40.993Z</time>
      </trkpt>
      <trkpt lat="43.02363" lon="1.10329">
        <ele>370.2</ele>
        <time>2024-06-24T13:34:41.993Z</time>
      </trkpt>
      <trkpt lat="43.02366" lon="1.10322">
        <ele>370.4</ele>
        <time>2024-06-24T13:34:42.993Z</time>
      </trkpt>
      <trkpt lat="43.02369" lon="1.10316">
        <ele>370.2</ele>
        <time>2024-06-24T13:34:43.993Z</time>
      </trkpt>
      <trkpt lat="43.02375" lon="1.10302">
        <ele>370.2</ele>
        <time>2024-06-24T13:34:44.993Z</time>
      </trkpt>
      <trkpt lat="43.02379" lon="1.10297">
        <ele>370.2</ele>
        <time>2024-06-24T13:34:45.993Z</time>
      </trkpt>
      <trkpt lat="43.02382" lon="1.10291">
        <ele>370.2</ele>
        <time>2024-06-24T13:34:46.993Z</time>
      </trkpt>
      <trkpt lat="43.02386" lon="1.10286">
        <ele>370.2</ele>
        <time>2024-06-24T13:34:47.993Z</time>
      </trkpt>
      <trkpt lat="43.02389" lon="1.1028">
        <ele>370.2</ele>
        <time>2024-06-24T13:34:48.993Z</time>
      </trkpt>
      <trkpt lat="43.02392" lon="1.10273">
        <ele>370.2</ele>
        <time>2024-06-24T13:34:49.993Z</time>
      </trkpt>
      <trkpt lat="43.02394" lon="1.10267">
        <ele>370.2</ele>
        <time>2024-06-24T13:34:50.993Z</time>
      </trkpt>
      <trkpt lat="43.02396" lon="1.10261">
        <ele>370.2</ele>
        <time>2024-06-24T13:34:51.993Z</time>
      </trkpt>
      <trkpt lat="43.02398" lon="1.10255">
        <ele>370.2</ele>
        <time>2024-06-24T13:34:52.993Z</time>
      </trkpt>
      <trkpt lat="43.024" lon="1.10248">
        <ele>370.2</ele>
        <time>2024-06-24T13:34:53.993Z</time>
      </trkpt>
      <trkpt lat="43.02402" lon="1.10242">
        <ele>370.2</ele>
        <time>2024-06-24T13:34:54.993Z</time>
      </trkpt>
      <trkpt lat="43.02403" lon="1.10236">
        <ele>370.2</ele>
        <time>2024-06-24T13:34:55.993Z</time>
      </trkpt>
      <trkpt lat="43.02405" lon="1.1023">
        <ele>370.2</ele>
        <time>2024-06-24T13:34:56.993Z</time>
      </trkpt>
      <trkpt lat="43.02406" lon="1.10223">
        <ele>370.4</ele>
        <time>2024-06-24T13:34:57.993Z</time>
      </trkpt>
      <trkpt lat="43.02407" lon="1.10216">
        <ele>370.4</ele>
        <time>2024-06-24T13:34:58.993Z</time>
      </trkpt>
      <trkpt lat="43.02408" lon="1.10209">
        <ele>370.4</ele>
        <time>2024-06-24T13:34:59.993Z</time>
      </trkpt>
      <trkpt lat="43.0241" lon="1.10203">
        <ele>370.4</ele>
        <time>2024-06-24T13:35:00.993Z</time>
      </trkpt>
      <trkpt lat="43.02413" lon="1.10197">
        <ele>370.4</ele>
        <time>2024-06-24T13:35:01.993Z</time>
      </trkpt>
      <trkpt lat="43.02415" lon="1.10191">
        <ele>370.4</ele>
        <time>2024-06-24T13:35:02.993Z</time>
      </trkpt>
      <trkpt lat="43.02417" lon="1.10185">
        <ele>370.4</ele>
        <time>2024-06-24T13:35:03.993Z</time>
      </trkpt>
      <trkpt lat="43.02419" lon="1.10179">
        <ele>370.4</ele>
        <time>2024-06-24T13:35:04.993Z</time>
      </trkpt>
      <trkpt lat="43.02421" lon="1.10175">
        <ele>370.4</ele>
        <time>2024-06-24T13:35:05.993Z</time>
      </trkpt>
      <trkpt lat="43.02422" lon="1.10171">
        <ele>370.4</ele>
        <time>2024-06-24T13:35:06.993Z</time>
      </trkpt>
      <trkpt lat="43.02424" lon="1.10166">
        <ele>370</ele>
        <time>2024-06-24T13:35:07.993Z</time>
      </trkpt>
      <trkpt lat="43.02426" lon="1.10161">
        <ele>370</ele>
        <time>2024-06-24T13:35:08.993Z</time>
      </trkpt>
      <trkpt lat="43.02427" lon="1.10157">
        <ele>369.8</ele>
        <time>2024-06-24T13:35:09.993Z</time>
      </trkpt>
      <trkpt lat="43.02429" lon="1.10153">
        <ele>369.8</ele>
        <time>2024-06-24T13:35:10.993Z</time>
      </trkpt>
      <trkpt lat="43.02431" lon="1.10149">
        <ele>369.8</ele>
        <time>2024-06-24T13:35:11.993Z</time>
      </trkpt>
      <trkpt lat="43.02432" lon="1.10145">
        <ele>369.4</ele>
        <time>2024-06-24T13:35:12.993Z</time>
      </trkpt>
      <trkpt lat="43.02433" lon="1.10142">
        <ele>369.4</ele>
        <time>2024-06-24T13:35:13.993Z</time>
      </trkpt>
      <trkpt lat="43.02434" lon="1.10139">
        <ele>369.4</ele>
        <time>2024-06-24T13:35:14.993Z</time>
      </trkpt>
      <trkpt lat="43.02435" lon="1.10137">
        <ele>369.2</ele>
        <time>2024-06-24T13:35:15.993Z</time>
      </trkpt>
      <trkpt lat="43.02436" lon="1.10135">
        <ele>369.2</ele>
        <time>2024-06-24T13:35:16.993Z</time>
      </trkpt>
      <trkpt lat="43.02436" lon="1.10133">
        <ele>369.2</ele>
        <time>2024-06-24T13:35:17.993Z</time>
      </trkpt>
      <trkpt lat="43.02437" lon="1.10131">
        <ele>368.8</ele>
        <time>2024-06-24T13:35:18.993Z</time>
      </trkpt>
      <trkpt lat="43.02437" lon="1.1013">
        <ele>368.8</ele>
        <time>2024-06-24T13:35:19.993Z</time>
      </trkpt>
      <trkpt lat="43.02438" lon="1.10128">
        <ele>368.8</ele>
        <time>2024-06-24T13:35:20.993Z</time>
      </trkpt>
      <trkpt lat="43.02439" lon="1.10125">
        <ele>368.6</ele>
        <time>2024-06-24T13:35:21.993Z</time>
      </trkpt>
      <trkpt lat="43.0244" lon="1.10121">
        <ele>368.6</ele>
        <time>2024-06-24T13:35:22.993Z</time>
      </trkpt>
      <trkpt lat="43.02442" lon="1.10117">
        <ele>368.6</ele>
        <time>2024-06-24T13:35:23.993Z</time>
      </trkpt>
      <trkpt lat="43.02443" lon="1.10112">
        <ele>368.6</ele>
        <time>2024-06-24T13:35:24.993Z</time>
      </trkpt>
      <trkpt lat="43.02445" lon="1.10107">
        <ele>368.6</ele>
        <time>2024-06-24T13:35:25.993Z</time>
      </trkpt>
      <trkpt lat="43.02447" lon="1.10102">
        <ele>368.6</ele>
        <time>2024-06-24T13:35:26.993Z</time>
      </trkpt>
      <trkpt lat="43.02449" lon="1.10096">
        <ele>368.4</ele>
        <time>2024-06-24T13:35:27.993Z</time>
      </trkpt>
      <trkpt lat="43.0245" lon="1.10091">
        <ele>368.6</ele>
        <time>2024-06-24T13:35:28.993Z</time>
      </trkpt>
      <trkpt lat="43.02452" lon="1.10085">
        <ele>368.6</ele>
        <time>2024-06-24T13:35:29.993Z</time>
      </trkpt>
      <trkpt lat="43.02454" lon="1.10079">
        <ele>368.6</ele>
        <time>2024-06-24T13:35:30.993Z</time>
      </trkpt>
      <trkpt lat="43.02455" lon="1.10073">
        <ele>368.4</ele>
        <time>2024-06-24T13:35:31.993Z</time>
      </trkpt>
      <trkpt lat="43.02457" lon="1.10067">
        <ele>368</ele>
        <time>2024-06-24T13:35:32.993Z</time>
      </trkpt>
      <trkpt lat="43.02459" lon="1.10061">
        <ele>368</ele>
        <time>2024-06-24T13:35:33.993Z</time>
      </trkpt>
      <trkpt lat="43.0246" lon="1.10055">
        <ele>368</ele>
        <time>2024-06-24T13:35:34.993Z</time>
      </trkpt>
      <trkpt lat="43.02462" lon="1.10048">
        <ele>368</ele>
        <time>2024-06-24T13:35:35.993Z</time>
      </trkpt>
      <trkpt lat="43.02463" lon="1.10042">
        <ele>368</ele>
        <time>2024-06-24T13:35:36.993Z</time>
      </trkpt>
      <trkpt lat="43.02465" lon="1.10036">
        <ele>368</ele>
        <time>2024-06-24T13:35:37.993Z</time>
      </trkpt>
      <trkpt lat="43.02467" lon="1.10029">
        <ele>368</ele>
        <time>2024-06-24T13:35:38.993Z</time>
      </trkpt>
      <trkpt lat="43.02469" lon="1.10023">
        <ele>368.4</ele>
        <time>2024-06-24T13:35:39.993Z</time>
      </trkpt>
      <trkpt lat="43.0247" lon="1.10016">
        <ele>368.4</ele>
        <time>2024-06-24T13:35:40.993Z</time>
      </trkpt>
      <trkpt lat="43.02472" lon="1.10009">
        <ele>368</ele>
        <time>2024-06-24T13:35:41.993Z</time>
      </trkpt>
      <trkpt lat="43.02474" lon="1.10002">
        <ele>367.8</ele>
        <time>2024-06-24T13:35:42.993Z</time>
      </trkpt>
      <trkpt lat="43.02475" lon="1.09995">
        <ele>368</ele>
        <time>2024-06-24T13:35:43.993Z</time>
      </trkpt>
      <trkpt lat="43.02476" lon="1.09989">
        <ele>367.8</ele>
        <time>2024-06-24T13:35:44.993Z</time>
      </trkpt>
      <trkpt lat="43.02478" lon="1.09982">
        <ele>367.8</ele>
        <time>2024-06-24T13:35:45.993Z</time>
      </trkpt>
      <trkpt lat="43.02479" lon="1.09975">
        <ele>368.2</ele>
        <time>2024-06-24T13:35:46.993Z</time>
      </trkpt>
      <trkpt lat="43.02481" lon="1.09969">
        <ele>368.2</ele>
        <time>2024-06-24T13:35:47.993Z</time>
      </trkpt>
      <trkpt lat="43.02482" lon="1.09962">
        <ele>368.2</ele>
        <time>2024-06-24T13:35:48.993Z</time>
      </trkpt>
      <trkpt lat="43.02483" lon="1.09956">
        <ele>367.6</ele>
        <time>2024-06-24T13:35:49.993Z</time>
      </trkpt>
      <trkpt lat="43.02484" lon="1.09949">
        <ele>368</ele>
        <time>2024-06-24T13:35:50.993Z</time>
      </trkpt>
      <trkpt lat="43.02485" lon="1.09943">
        <ele>368</ele>
        <time>2024-06-24T13:35:51.993Z</time>
      </trkpt>
      <trkpt lat="43.02486" lon="1.09936">
        <ele>368</ele>
        <time>2024-06-24T13:35:52.993Z</time>
      </trkpt>
      <trkpt lat="43.02487" lon="1.09929">
        <ele>368</ele>
        <time>2024-06-24T13:35:53.993Z</time>
      </trkpt>
      <trkpt lat="43.02488" lon="1.09923">
        <ele>367.6</ele>
        <time>2024-06-24T13:35:54.993Z</time>
      </trkpt>
      <trkpt lat="43.0249" lon="1.09916">
        <ele>367.6</ele>
        <time>2024-06-24T13:35:55.993Z</time>
      </trkpt>
      <trkpt lat="43.02491" lon="1.09908">
        <ele>367.6</ele>
        <time>2024-06-24T13:35:56.993Z</time>
      </trkpt>
      <trkpt lat="43.02492" lon="1.09902">
        <ele>367.6</ele>
        <time>2024-06-24T13:35:57.993Z</time>
      </trkpt>
      <trkpt lat="43.02493" lon="1.09894">
        <ele>367.6</ele>
        <time>2024-06-24T13:35:58.993Z</time>
      </trkpt>
      <trkpt lat="43.02494" lon="1.09888">
        <ele>368.2</ele>
        <time>2024-06-24T13:35:59.993Z</time>
      </trkpt>
      <trkpt lat="43.02494" lon="1.09881">
        <ele>368.2</ele>
        <time>2024-06-24T13:36:00.993Z</time>
      </trkpt>
      <trkpt lat="43.02496" lon="1.09874">
        <ele>367.8</ele>
        <time>2024-06-24T13:36:01.993Z</time>
      </trkpt>
      <trkpt lat="43.02496" lon="1.09867">
        <ele>367.4</ele>
        <time>2024-06-24T13:36:02.993Z</time>
      </trkpt>
      <trkpt lat="43.02497" lon="1.0986">
        <ele>367.4</ele>
        <time>2024-06-24T13:36:03.993Z</time>
      </trkpt>
      <trkpt lat="43.02499" lon="1.09852">
        <ele>367.2</ele>
        <time>2024-06-24T13:36:04.993Z</time>
      </trkpt>
      <trkpt lat="43.025" lon="1.09845">
        <ele>367.2</ele>
        <time>2024-06-24T13:36:05.993Z</time>
      </trkpt>
      <trkpt lat="43.02501" lon="1.09838">
        <ele>366.8</ele>
        <time>2024-06-24T13:36:06.993Z</time>
      </trkpt>
      <trkpt lat="43.02502" lon="1.09831">
        <ele>366.8</ele>
        <time>2024-06-24T13:36:07.993Z</time>
      </trkpt>
      <trkpt lat="43.02503" lon="1.09824">
        <ele>366.6</ele>
        <time>2024-06-24T13:36:08.993Z</time>
      </trkpt>
      <trkpt lat="43.02505" lon="1.09817">
        <ele>366.6</ele>
        <time>2024-06-24T13:36:09.993Z</time>
      </trkpt>
      <trkpt lat="43.02506" lon="1.09811">
        <ele>366.6</ele>
        <time>2024-06-24T13:36:10.993Z</time>
      </trkpt>
      <trkpt lat="43.02508" lon="1.09803">
        <ele>366.6</ele>
        <time>2024-06-24T13:36:11.993Z</time>
      </trkpt>
      <trkpt lat="43.02509" lon="1.09796">
        <ele>366.6</ele>
        <time>2024-06-24T13:36:12.993Z</time>
      </trkpt>
      <trkpt lat="43.02511" lon="1.09789">
        <ele>366.6</ele>
        <time>2024-06-24T13:36:13.993Z</time>
      </trkpt>
      <trkpt lat="43.02512" lon="1.09782">
        <ele>366.6</ele>
        <time>2024-06-24T13:36:14.993Z</time>
      </trkpt>
      <trkpt lat="43.02513" lon="1.09775">
        <ele>366.4</ele>
        <time>2024-06-24T13:36:15.993Z</time>
      </trkpt>
      <trkpt lat="43.02515" lon="1.09768">
        <ele>366.4</ele>
        <time>2024-06-24T13:36:16.993Z</time>
      </trkpt>
      <trkpt lat="43.02516" lon="1.09762">
        <ele>366.4</ele>
        <time>2024-06-24T13:36:17.993Z</time>
      </trkpt>
      <trkpt lat="43.02517" lon="1.09755">
        <ele>366.4</ele>
        <time>2024-06-24T13:36:18.993Z</time>
      </trkpt>
      <trkpt lat="43.02518" lon="1.09748">
        <ele>366.6</ele>
        <time>2024-06-24T13:36:19.993Z</time>
      </trkpt>
      <trkpt lat="43.02519" lon="1.0974">
        <ele>366.6</ele>
        <time>2024-06-24T13:36:20.993Z</time>
      </trkpt>
      <trkpt lat="43.02521" lon="1.09735">
        <ele>366.6</ele>
        <time>2024-06-24T13:36:21.993Z</time>
      </trkpt>
      <trkpt lat="43.02523" lon="1.09727">
        <ele>366.4</ele>
        <time>2024-06-24T13:36:22.993Z</time>
      </trkpt>
      <trkpt lat="43.02524" lon="1.0972">
        <ele>366.4</ele>
        <time>2024-06-24T13:36:23.993Z</time>
      </trkpt>
      <trkpt lat="43.02525" lon="1.09713">
        <ele>366.4</ele>
        <time>2024-06-24T13:36:24.993Z</time>
      </trkpt>
      <trkpt lat="43.02525" lon="1.09706">
        <ele>366.4</ele>
        <time>2024-06-24T13:36:25.993Z</time>
      </trkpt>
      <trkpt lat="43.02526" lon="1.09699">
        <ele>366.2</ele>
        <time>2024-06-24T13:36:26.993Z</time>
      </trkpt>
      <trkpt lat="43.02527" lon="1.09692">
        <ele>366.2</ele>
        <time>2024-06-24T13:36:27.993Z</time>
      </trkpt>
      <trkpt lat="43.02529" lon="1.09686">
        <ele>366.2</ele>
        <time>2024-06-24T13:36:28.993Z</time>
      </trkpt>
      <trkpt lat="43.0253" lon="1.09678">
        <ele>366.2</ele>
        <time>2024-06-24T13:36:29.993Z</time>
      </trkpt>
      <trkpt lat="43.02531" lon="1.09671">
        <ele>366.2</ele>
        <time>2024-06-24T13:36:30.993Z</time>
      </trkpt>
      <trkpt lat="43.02532" lon="1.09664">
        <ele>366.4</ele>
        <time>2024-06-24T13:36:31.993Z</time>
      </trkpt>
      <trkpt lat="43.02533" lon="1.09657">
        <ele>366.4</ele>
        <time>2024-06-24T13:36:32.993Z</time>
      </trkpt>
      <trkpt lat="43.02534" lon="1.09649">
        <ele>366</ele>
        <time>2024-06-24T13:36:33.993Z</time>
      </trkpt>
      <trkpt lat="43.02535" lon="1.09642">
        <ele>366</ele>
        <time>2024-06-24T13:36:34.993Z</time>
      </trkpt>
      <trkpt lat="43.02537" lon="1.09635">
        <ele>366</ele>
        <time>2024-06-24T13:36:35.993Z</time>
      </trkpt>
      <trkpt lat="43.02538" lon="1.09628">
        <ele>365.6</ele>
        <time>2024-06-24T13:36:36.993Z</time>
      </trkpt>
      <trkpt lat="43.02539" lon="1.0962">
        <ele>365.6</ele>
        <time>2024-06-24T13:36:37.993Z</time>
      </trkpt>
      <trkpt lat="43.0254" lon="1.09612">
        <ele>366</ele>
        <time>2024-06-24T13:36:38.993Z</time>
      </trkpt>
      <trkpt lat="43.02541" lon="1.09605">
        <ele>366</ele>
        <time>2024-06-24T13:36:39.993Z</time>
      </trkpt>
      <trkpt lat="43.02543" lon="1.09598">
        <ele>366</ele>
        <time>2024-06-24T13:36:40.993Z</time>
      </trkpt>
      <trkpt lat="43.02544" lon="1.09591">
        <ele>366.2</ele>
        <time>2024-06-24T13:36:41.993Z</time>
      </trkpt>
      <trkpt lat="43.02545" lon="1.09583">
        <ele>365.8</ele>
        <time>2024-06-24T13:36:42.993Z</time>
      </trkpt>
      <trkpt lat="43.02547" lon="1.09576">
        <ele>365.8</ele>
        <time>2024-06-24T13:36:43.993Z</time>
      </trkpt>
      <trkpt lat="43.02548" lon="1.09569">
        <ele>365.6</ele>
        <time>2024-06-24T13:36:44.993Z</time>
      </trkpt>
      <trkpt lat="43.02549" lon="1.09562">
        <ele>365.6</ele>
        <time>2024-06-24T13:36:45.993Z</time>
      </trkpt>
      <trkpt lat="43.02551" lon="1.09554">
        <ele>365.8</ele>
        <time>2024-06-24T13:36:46.993Z</time>
      </trkpt>
      <trkpt lat="43.02552" lon="1.09547">
        <ele>365.8</ele>
        <time>2024-06-24T13:36:47.993Z</time>
      </trkpt>
      <trkpt lat="43.02554" lon="1.0954">
        <ele>365.8</ele>
        <time>2024-06-24T13:36:48.993Z</time>
      </trkpt>
      <trkpt lat="43.02556" lon="1.09533">
        <ele>365.6</ele>
        <time>2024-06-24T13:36:49.993Z</time>
      </trkpt>
      <trkpt lat="43.02558" lon="1.09526">
        <ele>365.2</ele>
        <time>2024-06-24T13:36:50.993Z</time>
      </trkpt>
      <trkpt lat="43.02559" lon="1.09518">
        <ele>364.8</ele>
        <time>2024-06-24T13:36:51.993Z</time>
      </trkpt>
      <trkpt lat="43.02561" lon="1.09511">
        <ele>364.8</ele>
        <time>2024-06-24T13:36:52.993Z</time>
      </trkpt>
      <trkpt lat="43.02562" lon="1.09504">
        <ele>364.8</ele>
        <time>2024-06-24T13:36:53.993Z</time>
      </trkpt>
      <trkpt lat="43.02564" lon="1.09496">
        <ele>364.6</ele>
        <time>2024-06-24T13:36:54.993Z</time>
      </trkpt>
      <trkpt lat="43.02565" lon="1.0949">
        <ele>364.6</ele>
        <time>2024-06-24T13:36:55.993Z</time>
      </trkpt>
      <trkpt lat="43.02567" lon="1.09483">
        <ele>364.6</ele>
        <time>2024-06-24T13:36:56.993Z</time>
      </trkpt>
      <trkpt lat="43.02569" lon="1.09476">
        <ele>364.6</ele>
        <time>2024-06-24T13:36:57.993Z</time>
      </trkpt>
      <trkpt lat="43.0257" lon="1.09469">
        <ele>364.6</ele>
        <time>2024-06-24T13:36:58.993Z</time>
      </trkpt>
      <trkpt lat="43.02572" lon="1.09462">
        <ele>364.6</ele>
        <time>2024-06-24T13:36:59.993Z</time>
      </trkpt>
      <trkpt lat="43.02575" lon="1.09456">
        <ele>364.6</ele>
        <time>2024-06-24T13:37:00.993Z</time>
      </trkpt>
      <trkpt lat="43.02576" lon="1.09449">
        <ele>364.6</ele>
        <time>2024-06-24T13:37:01.993Z</time>
      </trkpt>
      <trkpt lat="43.02578" lon="1.09441">
        <ele>364.6</ele>
        <time>2024-06-24T13:37:02.993Z</time>
      </trkpt>
      <trkpt lat="43.0258" lon="1.09435">
        <ele>364.6</ele>
        <time>2024-06-24T13:37:03.993Z</time>
      </trkpt>
      <trkpt lat="43.02582" lon="1.09427">
        <ele>364.6</ele>
        <time>2024-06-24T13:37:04.993Z</time>
      </trkpt>
      <trkpt lat="43.02584" lon="1.0942">
        <ele>364.4</ele>
        <time>2024-06-24T13:37:05.993Z</time>
      </trkpt>
      <trkpt lat="43.02586" lon="1.09413">
        <ele>364.4</ele>
        <time>2024-06-24T13:37:06.993Z</time>
      </trkpt>
      <trkpt lat="43.02588" lon="1.09406">
        <ele>364.4</ele>
        <time>2024-06-24T13:37:07.993Z</time>
      </trkpt>
      <trkpt lat="43.02589" lon="1.09399">
        <ele>364.4</ele>
        <time>2024-06-24T13:37:08.993Z</time>
      </trkpt>
      <trkpt lat="43.02591" lon="1.09392">
        <ele>364.4</ele>
        <time>2024-06-24T13:37:09.993Z</time>
      </trkpt>
      <trkpt lat="43.02593" lon="1.09386">
        <ele>364.4</ele>
        <time>2024-06-24T13:37:10.993Z</time>
      </trkpt>
      <trkpt lat="43.02595" lon="1.09379">
        <ele>364.4</ele>
        <time>2024-06-24T13:37:11.993Z</time>
      </trkpt>
      <trkpt lat="43.02597" lon="1.09372">
        <ele>364.4</ele>
        <time>2024-06-24T13:37:12.993Z</time>
      </trkpt>
      <trkpt lat="43.026" lon="1.09365">
        <ele>364.4</ele>
        <time>2024-06-24T13:37:13.993Z</time>
      </trkpt>
      <trkpt lat="43.02602" lon="1.09358">
        <ele>364</ele>
        <time>2024-06-24T13:37:14.993Z</time>
      </trkpt>
      <trkpt lat="43.02604" lon="1.09351">
        <ele>364</ele>
        <time>2024-06-24T13:37:15.993Z</time>
      </trkpt>
      <trkpt lat="43.02606" lon="1.09345">
        <ele>364.2</ele>
        <time>2024-06-24T13:37:16.993Z</time>
      </trkpt>
      <trkpt lat="43.02608" lon="1.09338">
        <ele>364.2</ele>
        <time>2024-06-24T13:37:17.993Z</time>
      </trkpt>
      <trkpt lat="43.0261" lon="1.09331">
        <ele>363.8</ele>
        <time>2024-06-24T13:37:18.993Z</time>
      </trkpt>
      <trkpt lat="43.02612" lon="1.09324">
        <ele>363.6</ele>
        <time>2024-06-24T13:37:19.993Z</time>
      </trkpt>
      <trkpt lat="43.02614" lon="1.09318">
        <ele>364</ele>
        <time>2024-06-24T13:37:20.993Z</time>
      </trkpt>
      <trkpt lat="43.02616" lon="1.09311">
        <ele>364</ele>
        <time>2024-06-24T13:37:21.993Z</time>
      </trkpt>
      <trkpt lat="43.02618" lon="1.09304">
        <ele>364</ele>
        <time>2024-06-24T13:37:22.993Z</time>
      </trkpt>
      <trkpt lat="43.0262" lon="1.09298">
        <ele>364</ele>
        <time>2024-06-24T13:37:23.993Z</time>
      </trkpt>
      <trkpt lat="43.02623" lon="1.09291">
        <ele>364</ele>
        <time>2024-06-24T13:37:24.993Z</time>
      </trkpt>
      <trkpt lat="43.02625" lon="1.09284">
        <ele>364</ele>
        <time>2024-06-24T13:37:25.993Z</time>
      </trkpt>
      <trkpt lat="43.02628" lon="1.09278">
        <ele>363.6</ele>
        <time>2024-06-24T13:37:26.993Z</time>
      </trkpt>
      <trkpt lat="43.0263" lon="1.09272">
        <ele>363.6</ele>
        <time>2024-06-24T13:37:27.993Z</time>
      </trkpt>
      <trkpt lat="43.02633" lon="1.09265">
        <ele>363.6</ele>
        <time>2024-06-24T13:37:28.993Z</time>
      </trkpt>
      <trkpt lat="43.02636" lon="1.09259">
        <ele>363.6</ele>
        <time>2024-06-24T13:37:29.993Z</time>
      </trkpt>
      <trkpt lat="43.02638" lon="1.09252">
        <ele>363.6</ele>
        <time>2024-06-24T13:37:30.993Z</time>
      </trkpt>
      <trkpt lat="43.02641" lon="1.09246">
        <ele>363.6</ele>
        <time>2024-06-24T13:37:31.993Z</time>
      </trkpt>
      <trkpt lat="43.02643" lon="1.09239">
        <ele>363.6</ele>
        <time>2024-06-24T13:37:32.993Z</time>
      </trkpt>
      <trkpt lat="43.02646" lon="1.09233">
        <ele>363.6</ele>
        <time>2024-06-24T13:37:33.993Z</time>
      </trkpt>
      <trkpt lat="43.02649" lon="1.09226">
        <ele>363.6</ele>
        <time>2024-06-24T13:37:34.993Z</time>
      </trkpt>
      <trkpt lat="43.02651" lon="1.09219">
        <ele>363.6</ele>
        <time>2024-06-24T13:37:35.993Z</time>
      </trkpt>
      <trkpt lat="43.02654" lon="1.09213">
        <ele>363.4</ele>
        <time>2024-06-24T13:37:36.993Z</time>
      </trkpt>
      <trkpt lat="43.02657" lon="1.09206">
        <ele>363.6</ele>
        <time>2024-06-24T13:37:37.993Z</time>
      </trkpt>
      <trkpt lat="43.02659" lon="1.092">
        <ele>363.4</ele>
        <time>2024-06-24T13:37:38.993Z</time>
      </trkpt>
      <trkpt lat="43.02662" lon="1.09194">
        <ele>363.2</ele>
        <time>2024-06-24T13:37:39.993Z</time>
      </trkpt>
      <trkpt lat="43.02662" lon="1.09194">
        <ele>363.2</ele>
        <time>2024-06-24T13:37:40.993Z</time>
      </trkpt>
      <trkpt lat="43.02665" lon="1.09188">
        <ele>363.2</ele>
        <time>2024-06-24T13:37:41.993Z</time>
      </trkpt>
      <trkpt lat="43.02667" lon="1.09181">
        <ele>363.2</ele>
        <time>2024-06-24T13:37:42.993Z</time>
      </trkpt>
      <trkpt lat="43.0267" lon="1.09175">
        <ele>363.2</ele>
        <time>2024-06-24T13:37:43.993Z</time>
      </trkpt>
      <trkpt lat="43.02673" lon="1.09169">
        <ele>363.2</ele>
        <time>2024-06-24T13:37:44.993Z</time>
      </trkpt>
      <trkpt lat="43.02676" lon="1.09162">
        <ele>362.8</ele>
        <time>2024-06-24T13:37:45.993Z</time>
      </trkpt>
      <trkpt lat="43.02678" lon="1.09156">
        <ele>362.8</ele>
        <time>2024-06-24T13:37:46.993Z</time>
      </trkpt>
      <trkpt lat="43.02681" lon="1.0915">
        <ele>362.8</ele>
        <time>2024-06-24T13:37:47.993Z</time>
      </trkpt>
      <trkpt lat="43.02684" lon="1.09144">
        <ele>363</ele>
        <time>2024-06-24T13:37:48.993Z</time>
      </trkpt>
      <trkpt lat="43.02687" lon="1.09137">
        <ele>363</ele>
        <time>2024-06-24T13:37:49.993Z</time>
      </trkpt>
      <trkpt lat="43.0269" lon="1.09131">
        <ele>363</ele>
        <time>2024-06-24T13:37:50.993Z</time>
      </trkpt>
      <trkpt lat="43.02693" lon="1.09125">
        <ele>362.8</ele>
        <time>2024-06-24T13:37:51.993Z</time>
      </trkpt>
      <trkpt lat="43.02696" lon="1.09119">
        <ele>362.8</ele>
        <time>2024-06-24T13:37:52.993Z</time>
      </trkpt>
      <trkpt lat="43.02699" lon="1.09113">
        <ele>362.8</ele>
        <time>2024-06-24T13:37:53.993Z</time>
      </trkpt>
      <trkpt lat="43.02702" lon="1.09107">
        <ele>362.4</ele>
        <time>2024-06-24T13:37:54.993Z</time>
      </trkpt>
      <trkpt lat="43.02705" lon="1.09101">
        <ele>362.4</ele>
        <time>2024-06-24T13:37:55.993Z</time>
      </trkpt>
      <trkpt lat="43.02708" lon="1.09095">
        <ele>362.4</ele>
        <time>2024-06-24T13:37:56.993Z</time>
      </trkpt>
      <trkpt lat="43.02711" lon="1.09089">
        <ele>362.4</ele>
        <time>2024-06-24T13:37:57.993Z</time>
      </trkpt>
      <trkpt lat="43.02714" lon="1.09084">
        <ele>362.4</ele>
        <time>2024-06-24T13:37:58.993Z</time>
      </trkpt>
      <trkpt lat="43.02717" lon="1.09078">
        <ele>362.4</ele>
        <time>2024-06-24T13:37:59.993Z</time>
      </trkpt>
      <trkpt lat="43.0272" lon="1.09072">
        <ele>362.4</ele>
        <time>2024-06-24T13:38:00.993Z</time>
      </trkpt>
      <trkpt lat="43.02723" lon="1.09066">
        <ele>362.6</ele>
        <time>2024-06-24T13:38:01.993Z</time>
      </trkpt>
      <trkpt lat="43.02725" lon="1.09061">
        <ele>362.6</ele>
        <time>2024-06-24T13:38:02.993Z</time>
      </trkpt>
      <trkpt lat="43.02729" lon="1.09054">
        <ele>362.6</ele>
        <time>2024-06-24T13:38:03.993Z</time>
      </trkpt>
      <trkpt lat="43.02732" lon="1.09048">
        <ele>362.2</ele>
        <time>2024-06-24T13:38:04.993Z</time>
      </trkpt>
      <trkpt lat="43.02736" lon="1.09042">
        <ele>362.2</ele>
        <time>2024-06-24T13:38:05.993Z</time>
      </trkpt>
      <trkpt lat="43.02739" lon="1.09036">
        <ele>362</ele>
        <time>2024-06-24T13:38:06.993Z</time>
      </trkpt>
      <trkpt lat="43.02742" lon="1.0903">
        <ele>362</ele>
        <time>2024-06-24T13:38:07.993Z</time>
      </trkpt>
      <trkpt lat="43.02746" lon="1.09025">
        <ele>362</ele>
        <time>2024-06-24T13:38:08.993Z</time>
      </trkpt>
      <trkpt lat="43.02749" lon="1.09019">
        <ele>361.6</ele>
        <time>2024-06-24T13:38:09.993Z</time>
      </trkpt>
      <trkpt lat="43.02753" lon="1.09012">
        <ele>361.6</ele>
        <time>2024-06-24T13:38:10.993Z</time>
      </trkpt>
      <trkpt lat="43.02757" lon="1.09006">
        <ele>362.2</ele>
        <time>2024-06-24T13:38:11.993Z</time>
      </trkpt>
      <trkpt lat="43.0276" lon="1.09">
        <ele>362.2</ele>
        <time>2024-06-24T13:38:12.993Z</time>
      </trkpt>
      <trkpt lat="43.02763" lon="1.08995">
        <ele>362.2</ele>
        <time>2024-06-24T13:38:13.993Z</time>
      </trkpt>
      <trkpt lat="43.02766" lon="1.08989">
        <ele>362.2</ele>
        <time>2024-06-24T13:38:14.993Z</time>
      </trkpt>
      <trkpt lat="43.0277" lon="1.08984">
        <ele>362.2</ele>
        <time>2024-06-24T13:38:15.993Z</time>
      </trkpt>
      <trkpt lat="43.02773" lon="1.08978">
        <ele>362.2</ele>
        <time>2024-06-24T13:38:16.993Z</time>
      </trkpt>
      <trkpt lat="43.02776" lon="1.08972">
        <ele>361.8</ele>
        <time>2024-06-24T13:38:17.993Z</time>
      </trkpt>
      <trkpt lat="43.02779" lon="1.08965">
        <ele>361.8</ele>
        <time>2024-06-24T13:38:18.993Z</time>
      </trkpt>
      <trkpt lat="43.02783" lon="1.08959">
        <ele>361.8</ele>
        <time>2024-06-24T13:38:19.993Z</time>
      </trkpt>
      <trkpt lat="43.02787" lon="1.08953">
        <ele>361.8</ele>
        <time>2024-06-24T13:38:20.993Z</time>
      </trkpt>
      <trkpt lat="43.0279" lon="1.08947">
        <ele>361.8</ele>
        <time>2024-06-24T13:38:21.993Z</time>
      </trkpt>
      <trkpt lat="43.02793" lon="1.08942">
        <ele>361.4</ele>
        <time>2024-06-24T13:38:22.993Z</time>
      </trkpt>
      <trkpt lat="43.02797" lon="1.08937">
        <ele>361.4</ele>
        <time>2024-06-24T13:38:23.993Z</time>
      </trkpt>
      <trkpt lat="43.028" lon="1.0893">
        <ele>361.6</ele>
        <time>2024-06-24T13:38:24.993Z</time>
      </trkpt>
      <trkpt lat="43.02803" lon="1.08924">
        <ele>361.6</ele>
        <time>2024-06-24T13:38:25.993Z</time>
      </trkpt>
      <trkpt lat="43.02807" lon="1.08918">
        <ele>361.6</ele>
        <time>2024-06-24T13:38:26.993Z</time>
      </trkpt>
      <trkpt lat="43.0281" lon="1.08912">
        <ele>361.4</ele>
        <time>2024-06-24T13:38:27.993Z</time>
      </trkpt>
      <trkpt lat="43.02814" lon="1.08906">
        <ele>361</ele>
        <time>2024-06-24T13:38:28.993Z</time>
      </trkpt>
      <trkpt lat="43.02817" lon="1.08901">
        <ele>361</ele>
        <time>2024-06-24T13:38:29.993Z</time>
      </trkpt>
      <trkpt lat="43.02821" lon="1.08893">
        <ele>361</ele>
        <time>2024-06-24T13:38:30.993Z</time>
      </trkpt>
      <trkpt lat="43.02825" lon="1.08888">
        <ele>361</ele>
        <time>2024-06-24T13:38:31.993Z</time>
      </trkpt>
      <trkpt lat="43.02828" lon="1.08882">
        <ele>361</ele>
        <time>2024-06-24T13:38:32.993Z</time>
      </trkpt>
      <trkpt lat="43.02831" lon="1.08876">
        <ele>360.6</ele>
        <time>2024-06-24T13:38:33.993Z</time>
      </trkpt>
      <trkpt lat="43.02834" lon="1.08872">
        <ele>360.8</ele>
        <time>2024-06-24T13:38:34.993Z</time>
      </trkpt>
      <trkpt lat="43.02838" lon="1.08867">
        <ele>360.8</ele>
        <time>2024-06-24T13:38:35.993Z</time>
      </trkpt>
      <trkpt lat="43.02841" lon="1.08861">
        <ele>360.6</ele>
        <time>2024-06-24T13:38:36.993Z</time>
      </trkpt>
      <trkpt lat="43.02844" lon="1.08857">
        <ele>360.6</ele>
        <time>2024-06-24T13:38:37.993Z</time>
      </trkpt>
      <trkpt lat="43.02847" lon="1.08851">
        <ele>360.8</ele>
        <time>2024-06-24T13:38:38.993Z</time>
      </trkpt>
      <trkpt lat="43.02851" lon="1.08845">
        <ele>360.8</ele>
        <time>2024-06-24T13:38:39.993Z</time>
      </trkpt>
      <trkpt lat="43.02854" lon="1.08839">
        <ele>360.8</ele>
        <time>2024-06-24T13:38:40.993Z</time>
      </trkpt>
      <trkpt lat="43.02858" lon="1.08834">
        <ele>360.2</ele>
        <time>2024-06-24T13:38:41.993Z</time>
      </trkpt>
      <trkpt lat="43.02861" lon="1.08828">
        <ele>360.2</ele>
        <time>2024-06-24T13:38:42.993Z</time>
      </trkpt>
      <trkpt lat="43.02864" lon="1.08823">
        <ele>360.2</ele>
        <time>2024-06-24T13:38:43.993Z</time>
      </trkpt>
      <trkpt lat="43.02868" lon="1.08817">
        <ele>359.8</ele>
        <time>2024-06-24T13:38:44.993Z</time>
      </trkpt>
      <trkpt lat="43.0287" lon="1.08811">
        <ele>359.8</ele>
        <time>2024-06-24T13:38:45.993Z</time>
      </trkpt>
      <trkpt lat="43.02874" lon="1.08805">
        <ele>359.8</ele>
        <time>2024-06-24T13:38:46.993Z</time>
      </trkpt>
      <trkpt lat="43.02877" lon="1.088">
        <ele>359.8</ele>
        <time>2024-06-24T13:38:47.993Z</time>
      </trkpt>
      <trkpt lat="43.0288" lon="1.08794">
        <ele>359.8</ele>
        <time>2024-06-24T13:38:48.993Z</time>
      </trkpt>
      <trkpt lat="43.02884" lon="1.08789">
        <ele>359.8</ele>
        <time>2024-06-24T13:38:49.993Z</time>
      </trkpt>
      <trkpt lat="43.02887" lon="1.08784">
        <ele>359.8</ele>
        <time>2024-06-24T13:38:50.993Z</time>
      </trkpt>
      <trkpt lat="43.0289" lon="1.08779">
        <ele>359.6</ele>
        <time>2024-06-24T13:38:51.993Z</time>
      </trkpt>
      <trkpt lat="43.02894" lon="1.08773">
        <ele>359.6</ele>
        <time>2024-06-24T13:38:52.993Z</time>
      </trkpt>
      <trkpt lat="43.02897" lon="1.08768">
        <ele>359.6</ele>
        <time>2024-06-24T13:38:53.993Z</time>
      </trkpt>
      <trkpt lat="43.02901" lon="1.08762">
        <ele>359.6</ele>
        <time>2024-06-24T13:38:54.993Z</time>
      </trkpt>
      <trkpt lat="43.02905" lon="1.08756">
        <ele>359.6</ele>
        <time>2024-06-24T13:38:55.993Z</time>
      </trkpt>
      <trkpt lat="43.02908" lon="1.0875">
        <ele>359.4</ele>
        <time>2024-06-24T13:38:56.993Z</time>
      </trkpt>
      <trkpt lat="43.02912" lon="1.08745">
        <ele>359.4</ele>
        <time>2024-06-24T13:38:57.993Z</time>
      </trkpt>
      <trkpt lat="43.02916" lon="1.08739">
        <ele>359</ele>
        <time>2024-06-24T13:38:58.993Z</time>
      </trkpt>
      <trkpt lat="43.02918" lon="1.08733">
        <ele>359</ele>
        <time>2024-06-24T13:38:59.993Z</time>
      </trkpt>
      <trkpt lat="43.02922" lon="1.08728">
        <ele>359</ele>
        <time>2024-06-24T13:39:00.993Z</time>
      </trkpt>
      <trkpt lat="43.02925" lon="1.08722">
        <ele>359</ele>
        <time>2024-06-24T13:39:01.993Z</time>
      </trkpt>
      <trkpt lat="43.02928" lon="1.08717">
        <ele>359</ele>
        <time>2024-06-24T13:39:02.993Z</time>
      </trkpt>
      <trkpt lat="43.02931" lon="1.08712">
        <ele>359</ele>
        <time>2024-06-24T13:39:03.993Z</time>
      </trkpt>
      <trkpt lat="43.02933" lon="1.08707">
        <ele>359.4</ele>
        <time>2024-06-24T13:39:04.993Z</time>
      </trkpt>
      <trkpt lat="43.02935" lon="1.08703">
        <ele>359.4</ele>
        <time>2024-06-24T13:39:05.993Z</time>
      </trkpt>
      <trkpt lat="43.02938" lon="1.08698">
        <ele>359.4</ele>
        <time>2024-06-24T13:39:06.993Z</time>
      </trkpt>
      <trkpt lat="43.02941" lon="1.08693">
        <ele>359.4</ele>
        <time>2024-06-24T13:39:07.993Z</time>
      </trkpt>
      <trkpt lat="43.02945" lon="1.08689">
        <ele>359.4</ele>
        <time>2024-06-24T13:39:08.993Z</time>
      </trkpt>
      <trkpt lat="43.02948" lon="1.08684">
        <ele>359.4</ele>
        <time>2024-06-24T13:39:09.993Z</time>
      </trkpt>
      <trkpt lat="43.02952" lon="1.08679">
        <ele>359.2</ele>
        <time>2024-06-24T13:39:10.993Z</time>
      </trkpt>
      <trkpt lat="43.02955" lon="1.08675">
        <ele>359.2</ele>
        <time>2024-06-24T13:39:11.993Z</time>
      </trkpt>
      <trkpt lat="43.02958" lon="1.08669">
        <ele>359</ele>
        <time>2024-06-24T13:39:12.993Z</time>
      </trkpt>
      <trkpt lat="43.02961" lon="1.08664">
        <ele>359</ele>
        <time>2024-06-24T13:39:13.993Z</time>
      </trkpt>
      <trkpt lat="43.02964" lon="1.08658">
        <ele>359</ele>
        <time>2024-06-24T13:39:14.993Z</time>
      </trkpt>
      <trkpt lat="43.02968" lon="1.08653">
        <ele>358.6</ele>
        <time>2024-06-24T13:39:15.993Z</time>
      </trkpt>
      <trkpt lat="43.02971" lon="1.08647">
        <ele>358.6</ele>
        <time>2024-06-24T13:39:16.993Z</time>
      </trkpt>
      <trkpt lat="43.02975" lon="1.08642">
        <ele>358.6</ele>
        <time>2024-06-24T13:39:17.993Z</time>
      </trkpt>
      <trkpt lat="43.02978" lon="1.08636">
        <ele>358.4</ele>
        <time>2024-06-24T13:39:18.993Z</time>
      </trkpt>
      <trkpt lat="43.02982" lon="1.0863">
        <ele>358.4</ele>
        <time>2024-06-24T13:39:19.993Z</time>
      </trkpt>
      <trkpt lat="43.02985" lon="1.08625">
        <ele>358</ele>
        <time>2024-06-24T13:39:20.993Z</time>
      </trkpt>
      <trkpt lat="43.02988" lon="1.0862">
        <ele>358</ele>
        <time>2024-06-24T13:39:21.993Z</time>
      </trkpt>
      <trkpt lat="43.02991" lon="1.08613">
        <ele>358</ele>
        <time>2024-06-24T13:39:22.993Z</time>
      </trkpt>
      <trkpt lat="43.02995" lon="1.08609">
        <ele>358</ele>
        <time>2024-06-24T13:39:23.993Z</time>
      </trkpt>
      <trkpt lat="43.02998" lon="1.08603">
        <ele>358</ele>
        <time>2024-06-24T13:39:24.993Z</time>
      </trkpt>
      <trkpt lat="43.03002" lon="1.08598">
        <ele>358</ele>
        <time>2024-06-24T13:39:25.993Z</time>
      </trkpt>
      <trkpt lat="43.03005" lon="1.08592">
        <ele>358</ele>
        <time>2024-06-24T13:39:26.993Z</time>
      </trkpt>
      <trkpt lat="43.03008" lon="1.08586">
        <ele>358</ele>
        <time>2024-06-24T13:39:27.993Z</time>
      </trkpt>
      <trkpt lat="43.03011" lon="1.08581">
        <ele>358</ele>
        <time>2024-06-24T13:39:28.993Z</time>
      </trkpt>
      <trkpt lat="43.03014" lon="1.08576">
        <ele>358</ele>
        <time>2024-06-24T13:39:29.993Z</time>
      </trkpt>
      <trkpt lat="43.03016" lon="1.08572">
        <ele>358</ele>
        <time>2024-06-24T13:39:30.993Z</time>
      </trkpt>
      <trkpt lat="43.03019" lon="1.08566">
        <ele>358</ele>
        <time>2024-06-24T13:39:31.993Z</time>
      </trkpt>
      <trkpt lat="43.03023" lon="1.0856">
        <ele>357.8</ele>
        <time>2024-06-24T13:39:32.993Z</time>
      </trkpt>
      <trkpt lat="43.03026" lon="1.08555">
        <ele>357.8</ele>
        <time>2024-06-24T13:39:33.993Z</time>
      </trkpt>
      <trkpt lat="43.03029" lon="1.08549">
        <ele>357.8</ele>
        <time>2024-06-24T13:39:34.993Z</time>
      </trkpt>
      <trkpt lat="43.03032" lon="1.08544">
        <ele>357.8</ele>
        <time>2024-06-24T13:39:35.993Z</time>
      </trkpt>
      <trkpt lat="43.03035" lon="1.08539">
        <ele>357.8</ele>
        <time>2024-06-24T13:39:36.993Z</time>
      </trkpt>
      <trkpt lat="43.03038" lon="1.08534">
        <ele>357.8</ele>
        <time>2024-06-24T13:39:37.993Z</time>
      </trkpt>
      <trkpt lat="43.03041" lon="1.08531">
        <ele>357.8</ele>
        <time>2024-06-24T13:39:38.993Z</time>
      </trkpt>
      <trkpt lat="43.03043" lon="1.08526">
        <ele>357.8</ele>
        <time>2024-06-24T13:39:39.993Z</time>
      </trkpt>
      <trkpt lat="43.03044" lon="1.0852">
        <ele>358</ele>
        <time>2024-06-24T13:39:40.993Z</time>
      </trkpt>
      <trkpt lat="43.03046" lon="1.08516">
        <ele>358.2</ele>
        <time>2024-06-24T13:39:41.993Z</time>
      </trkpt>
      <trkpt lat="43.0305" lon="1.08512">
        <ele>358.2</ele>
        <time>2024-06-24T13:39:42.993Z</time>
      </trkpt>
      <trkpt lat="43.03052" lon="1.08508">
        <ele>358.2</ele>
        <time>2024-06-24T13:39:43.993Z</time>
      </trkpt>
      <trkpt lat="43.03054" lon="1.08503">
        <ele>358.2</ele>
        <time>2024-06-24T13:39:44.993Z</time>
      </trkpt>
      <trkpt lat="43.03057" lon="1.08499">
        <ele>358.2</ele>
        <time>2024-06-24T13:39:45.993Z</time>
      </trkpt>
      <trkpt lat="43.0306" lon="1.08494">
        <ele>358.2</ele>
        <time>2024-06-24T13:39:46.993Z</time>
      </trkpt>
      <trkpt lat="43.03063" lon="1.08489">
        <ele>358.2</ele>
        <time>2024-06-24T13:39:47.993Z</time>
      </trkpt>
      <trkpt lat="43.03066" lon="1.08484">
        <ele>358.2</ele>
        <time>2024-06-24T13:39:48.993Z</time>
      </trkpt>
      <trkpt lat="43.03069" lon="1.08478">
        <ele>358.2</ele>
        <time>2024-06-24T13:39:49.993Z</time>
      </trkpt>
      <trkpt lat="43.03072" lon="1.08473">
        <ele>358.4</ele>
        <time>2024-06-24T13:39:50.993Z</time>
      </trkpt>
      <trkpt lat="43.03075" lon="1.08468">
        <ele>358.2</ele>
        <time>2024-06-24T13:39:51.993Z</time>
      </trkpt>
      <trkpt lat="43.03078" lon="1.08463">
        <ele>358.2</ele>
        <time>2024-06-24T13:39:52.993Z</time>
      </trkpt>
      <trkpt lat="43.03081" lon="1.08458">
        <ele>358.2</ele>
        <time>2024-06-24T13:39:53.993Z</time>
      </trkpt>
      <trkpt lat="43.03084" lon="1.08453">
        <ele>358.2</ele>
        <time>2024-06-24T13:39:54.993Z</time>
      </trkpt>
      <trkpt lat="43.03087" lon="1.08448">
        <ele>358.2</ele>
        <time>2024-06-24T13:39:55.993Z</time>
      </trkpt>
      <trkpt lat="43.03091" lon="1.08443">
        <ele>358.2</ele>
        <time>2024-06-24T13:39:56.993Z</time>
      </trkpt>
      <trkpt lat="43.03094" lon="1.08437">
        <ele>358.2</ele>
        <time>2024-06-24T13:39:57.993Z</time>
      </trkpt>
      <trkpt lat="43.03097" lon="1.08432">
        <ele>358</ele>
        <time>2024-06-24T13:39:58.993Z</time>
      </trkpt>
      <trkpt lat="43.031" lon="1.08426">
        <ele>358</ele>
        <time>2024-06-24T13:39:59.993Z</time>
      </trkpt>
      <trkpt lat="43.03104" lon="1.08422">
        <ele>357.6</ele>
        <time>2024-06-24T13:40:00.993Z</time>
      </trkpt>
      <trkpt lat="43.03107" lon="1.08416">
        <ele>357.6</ele>
        <time>2024-06-24T13:40:01.993Z</time>
      </trkpt>
      <trkpt lat="43.0311" lon="1.08411">
        <ele>357.6</ele>
        <time>2024-06-24T13:40:02.993Z</time>
      </trkpt>
      <trkpt lat="43.03114" lon="1.08405">
        <ele>357.6</ele>
        <time>2024-06-24T13:40:03.993Z</time>
      </trkpt>
      <trkpt lat="43.03116" lon="1.084">
        <ele>357.4</ele>
        <time>2024-06-24T13:40:04.993Z</time>
      </trkpt>
      <trkpt lat="43.03119" lon="1.08395">
        <ele>357.6</ele>
        <time>2024-06-24T13:40:05.993Z</time>
      </trkpt>
      <trkpt lat="43.03122" lon="1.08389">
        <ele>357.6</ele>
        <time>2024-06-24T13:40:06.993Z</time>
      </trkpt>
      <trkpt lat="43.03126" lon="1.08384">
        <ele>357.4</ele>
        <time>2024-06-24T13:40:07.993Z</time>
      </trkpt>
      <trkpt lat="43.03129" lon="1.08379">
        <ele>357.4</ele>
        <time>2024-06-24T13:40:08.993Z</time>
      </trkpt>
      <trkpt lat="43.03132" lon="1.08373">
        <ele>357.4</ele>
        <time>2024-06-24T13:40:09.993Z</time>
      </trkpt>
      <trkpt lat="43.03135" lon="1.08367">
        <ele>357.4</ele>
        <time>2024-06-24T13:40:10.993Z</time>
      </trkpt>
      <trkpt lat="43.03138" lon="1.08363">
        <ele>357.4</ele>
        <time>2024-06-24T13:40:11.993Z</time>
      </trkpt>
      <trkpt lat="43.0314" lon="1.08358">
        <ele>357.4</ele>
        <time>2024-06-24T13:40:12.993Z</time>
      </trkpt>
      <trkpt lat="43.03143" lon="1.08353">
        <ele>357.4</ele>
        <time>2024-06-24T13:40:13.993Z</time>
      </trkpt>
      <trkpt lat="43.03146" lon="1.08349">
        <ele>357.4</ele>
        <time>2024-06-24T13:40:14.993Z</time>
      </trkpt>
      <trkpt lat="43.03149" lon="1.08344">
        <ele>357.4</ele>
        <time>2024-06-24T13:40:15.993Z</time>
      </trkpt>
      <trkpt lat="43.03152" lon="1.08339">
        <ele>357.4</ele>
        <time>2024-06-24T13:40:16.993Z</time>
      </trkpt>
      <trkpt lat="43.03154" lon="1.08336">
        <ele>357.4</ele>
        <time>2024-06-24T13:40:17.993Z</time>
      </trkpt>
      <trkpt lat="43.03155" lon="1.08333">
        <ele>357.4</ele>
        <time>2024-06-24T13:40:18.993Z</time>
      </trkpt>
      <trkpt lat="43.03156" lon="1.08332">
        <ele>357.4</ele>
        <time>2024-06-24T13:40:19.993Z</time>
      </trkpt>
      <trkpt lat="43.03157" lon="1.0833">
        <ele>357.4</ele>
        <time>2024-06-24T13:40:20.993Z</time>
      </trkpt>
      <trkpt lat="43.03158" lon="1.08328">
        <ele>357.4</ele>
        <time>2024-06-24T13:40:21.993Z</time>
      </trkpt>
      <trkpt lat="43.03159" lon="1.08324">
        <ele>357.4</ele>
        <time>2024-06-24T13:40:22.993Z</time>
      </trkpt>
      <trkpt lat="43.0316" lon="1.08321">
        <ele>357.4</ele>
        <time>2024-06-24T13:40:23.993Z</time>
      </trkpt>
      <trkpt lat="43.03161" lon="1.08317">
        <ele>357.4</ele>
        <time>2024-06-24T13:40:24.993Z</time>
      </trkpt>
      <trkpt lat="43.03164" lon="1.08312">
        <ele>357.4</ele>
        <time>2024-06-24T13:40:25.993Z</time>
      </trkpt>
      <trkpt lat="43.03167" lon="1.08308">
        <ele>357.4</ele>
        <time>2024-06-24T13:40:26.993Z</time>
      </trkpt>
      <trkpt lat="43.03169" lon="1.08303">
        <ele>357.2</ele>
        <time>2024-06-24T13:40:27.993Z</time>
      </trkpt>
      <trkpt lat="43.03172" lon="1.08299">
        <ele>357.6</ele>
        <time>2024-06-24T13:40:28.993Z</time>
      </trkpt>
      <trkpt lat="43.03175" lon="1.08294">
        <ele>357.6</ele>
        <time>2024-06-24T13:40:29.993Z</time>
      </trkpt>
      <trkpt lat="43.03178" lon="1.08289">
        <ele>357.6</ele>
        <time>2024-06-24T13:40:30.993Z</time>
      </trkpt>
      <trkpt lat="43.0318" lon="1.08284">
        <ele>357.6</ele>
        <time>2024-06-24T13:40:31.993Z</time>
      </trkpt>
      <trkpt lat="43.03183" lon="1.08279">
        <ele>357.4</ele>
        <time>2024-06-24T13:40:32.993Z</time>
      </trkpt>
      <trkpt lat="43.03186" lon="1.08274">
        <ele>357.4</ele>
        <time>2024-06-24T13:40:33.993Z</time>
      </trkpt>
      <trkpt lat="43.03189" lon="1.08269">
        <ele>357</ele>
        <time>2024-06-24T13:40:34.993Z</time>
      </trkpt>
      <trkpt lat="43.03192" lon="1.08263">
        <ele>357</ele>
        <time>2024-06-24T13:40:35.993Z</time>
      </trkpt>
      <trkpt lat="43.03195" lon="1.08257">
        <ele>356.8</ele>
        <time>2024-06-24T13:40:36.993Z</time>
      </trkpt>
      <trkpt lat="43.03198" lon="1.08252">
        <ele>356.8</ele>
        <time>2024-06-24T13:40:37.993Z</time>
      </trkpt>
      <trkpt lat="43.03201" lon="1.08246">
        <ele>357</ele>
        <time>2024-06-24T13:40:38.993Z</time>
      </trkpt>
      <trkpt lat="43.03204" lon="1.0824">
        <ele>357</ele>
        <time>2024-06-24T13:40:39.993Z</time>
      </trkpt>
      <trkpt lat="43.03207" lon="1.08235">
        <ele>356.8</ele>
        <time>2024-06-24T13:40:40.993Z</time>
      </trkpt>
      <trkpt lat="43.0321" lon="1.08228">
        <ele>356.8</ele>
        <time>2024-06-24T13:40:41.993Z</time>
      </trkpt>
      <trkpt lat="43.03212" lon="1.08222">
        <ele>356.8</ele>
        <time>2024-06-24T13:40:42.993Z</time>
      </trkpt>
      <trkpt lat="43.03215" lon="1.08216">
        <ele>356.4</ele>
        <time>2024-06-24T13:40:43.993Z</time>
      </trkpt>
      <trkpt lat="43.03218" lon="1.0821">
        <ele>356.4</ele>
        <time>2024-06-24T13:40:44.993Z</time>
      </trkpt>
      <trkpt lat="43.03221" lon="1.08204">
        <ele>356.4</ele>
        <time>2024-06-24T13:40:45.993Z</time>
      </trkpt>
      <trkpt lat="43.03224" lon="1.08197">
        <ele>356.6</ele>
        <time>2024-06-24T13:40:46.993Z</time>
      </trkpt>
      <trkpt lat="43.03226" lon="1.08191">
        <ele>356.4</ele>
        <time>2024-06-24T13:40:47.993Z</time>
      </trkpt>
      <trkpt lat="43.03228" lon="1.08185">
        <ele>356.4</ele>
        <time>2024-06-24T13:40:48.993Z</time>
      </trkpt>
      <trkpt lat="43.0323" lon="1.08179">
        <ele>356.2</ele>
        <time>2024-06-24T13:40:49.993Z</time>
      </trkpt>
      <trkpt lat="43.03233" lon="1.08173">
        <ele>357</ele>
        <time>2024-06-24T13:40:50.993Z</time>
      </trkpt>
      <trkpt lat="43.03235" lon="1.08166">
        <ele>357</ele>
        <time>2024-06-24T13:40:51.993Z</time>
      </trkpt>
      <trkpt lat="43.03238" lon="1.0816">
        <ele>357</ele>
        <time>2024-06-24T13:40:52.993Z</time>
      </trkpt>
      <trkpt lat="43.03241" lon="1.08154">
        <ele>356.8</ele>
        <time>2024-06-24T13:40:53.993Z</time>
      </trkpt>
      <trkpt lat="43.03243" lon="1.08147">
        <ele>356.2</ele>
        <time>2024-06-24T13:40:54.993Z</time>
      </trkpt>
      <trkpt lat="43.03247" lon="1.0814">
        <ele>356.4</ele>
        <time>2024-06-24T13:40:55.993Z</time>
      </trkpt>
      <trkpt lat="43.0325" lon="1.08134">
        <ele>356.4</ele>
        <time>2024-06-24T13:40:56.993Z</time>
      </trkpt>
      <trkpt lat="43.03253" lon="1.08128">
        <ele>356.8</ele>
        <time>2024-06-24T13:40:57.993Z</time>
      </trkpt>
      <trkpt lat="43.03255" lon="1.0812">
        <ele>356.8</ele>
        <time>2024-06-24T13:40:58.993Z</time>
      </trkpt>
      <trkpt lat="43.03258" lon="1.08114">
        <ele>357.4</ele>
        <time>2024-06-24T13:40:59.993Z</time>
      </trkpt>
      <trkpt lat="43.0326" lon="1.08107">
        <ele>357.4</ele>
        <time>2024-06-24T13:41:00.993Z</time>
      </trkpt>
      <trkpt lat="43.03262" lon="1.08101">
        <ele>356.6</ele>
        <time>2024-06-24T13:41:01.993Z</time>
      </trkpt>
      <trkpt lat="43.03264" lon="1.08095">
        <ele>357</ele>
        <time>2024-06-24T13:41:02.993Z</time>
      </trkpt>
      <trkpt lat="43.03266" lon="1.08088">
        <ele>357.2</ele>
        <time>2024-06-24T13:41:03.993Z</time>
      </trkpt>
      <trkpt lat="43.03269" lon="1.08082">
        <ele>357.2</ele>
        <time>2024-06-24T13:41:04.993Z</time>
      </trkpt>
      <trkpt lat="43.03271" lon="1.08076">
        <ele>357</ele>
        <time>2024-06-24T13:41:05.993Z</time>
      </trkpt>
      <trkpt lat="43.03274" lon="1.08069">
        <ele>357</ele>
        <time>2024-06-24T13:41:06.993Z</time>
      </trkpt>
      <trkpt lat="43.03276" lon="1.08063">
        <ele>357</ele>
        <time>2024-06-24T13:41:07.993Z</time>
      </trkpt>
      <trkpt lat="43.03277" lon="1.08056">
        <ele>357</ele>
        <time>2024-06-24T13:41:08.993Z</time>
      </trkpt>
      <trkpt lat="43.0328" lon="1.08049">
        <ele>356.4</ele>
        <time>2024-06-24T13:41:09.993Z</time>
      </trkpt>
      <trkpt lat="43.03282" lon="1.08043">
        <ele>356.6</ele>
        <time>2024-06-24T13:41:10.993Z</time>
      </trkpt>
      <trkpt lat="43.03284" lon="1.08037">
        <ele>356.6</ele>
        <time>2024-06-24T13:41:11.993Z</time>
      </trkpt>
      <trkpt lat="43.03286" lon="1.0803">
        <ele>357</ele>
        <time>2024-06-24T13:41:12.993Z</time>
      </trkpt>
      <trkpt lat="43.03287" lon="1.08024">
        <ele>356.8</ele>
        <time>2024-06-24T13:41:13.993Z</time>
      </trkpt>
      <trkpt lat="43.03289" lon="1.08017">
        <ele>356.8</ele>
        <time>2024-06-24T13:41:14.993Z</time>
      </trkpt>
      <trkpt lat="43.0329" lon="1.0801">
        <ele>356.2</ele>
        <time>2024-06-24T13:41:15.993Z</time>
      </trkpt>
      <trkpt lat="43.03293" lon="1.08003">
        <ele>356.2</ele>
        <time>2024-06-24T13:41:16.993Z</time>
      </trkpt>
      <trkpt lat="43.03295" lon="1.07996">
        <ele>356.6</ele>
        <time>2024-06-24T13:41:17.993Z</time>
      </trkpt>
      <trkpt lat="43.03296" lon="1.0799">
        <ele>356.6</ele>
        <time>2024-06-24T13:41:18.993Z</time>
      </trkpt>
      <trkpt lat="43.03299" lon="1.07983">
        <ele>356.6</ele>
        <time>2024-06-24T13:41:19.993Z</time>
      </trkpt>
      <trkpt lat="43.03301" lon="1.07976">
        <ele>356.4</ele>
        <time>2024-06-24T13:41:20.993Z</time>
      </trkpt>
      <trkpt lat="43.03302" lon="1.07969">
        <ele>356.8</ele>
        <time>2024-06-24T13:41:21.993Z</time>
      </trkpt>
      <trkpt lat="43.03303" lon="1.07963">
        <ele>356.6</ele>
        <time>2024-06-24T13:41:22.993Z</time>
      </trkpt>
      <trkpt lat="43.03305" lon="1.07955">
        <ele>356.2</ele>
        <time>2024-06-24T13:41:23.993Z</time>
      </trkpt>
      <trkpt lat="43.03307" lon="1.0795">
        <ele>356.2</ele>
        <time>2024-06-24T13:41:24.993Z</time>
      </trkpt>
      <trkpt lat="43.0331" lon="1.07942">
        <ele>356.2</ele>
        <time>2024-06-24T13:41:25.993Z</time>
      </trkpt>
      <trkpt lat="43.03312" lon="1.07935">
        <ele>356.2</ele>
        <time>2024-06-24T13:41:26.993Z</time>
      </trkpt>
      <trkpt lat="43.03313" lon="1.07928">
        <ele>355.8</ele>
        <time>2024-06-24T13:41:27.993Z</time>
      </trkpt>
      <trkpt lat="43.03315" lon="1.07921">
        <ele>355.6</ele>
        <time>2024-06-24T13:41:28.993Z</time>
      </trkpt>
      <trkpt lat="43.03317" lon="1.07915">
        <ele>355.6</ele>
        <time>2024-06-24T13:41:29.993Z</time>
      </trkpt>
      <trkpt lat="43.03319" lon="1.07909">
        <ele>355.6</ele>
        <time>2024-06-24T13:41:30.993Z</time>
      </trkpt>
      <trkpt lat="43.0332" lon="1.07903">
        <ele>355.6</ele>
        <time>2024-06-24T13:41:31.993Z</time>
      </trkpt>
      <trkpt lat="43.03322" lon="1.07895">
        <ele>355.8</ele>
        <time>2024-06-24T13:41:32.993Z</time>
      </trkpt>
      <trkpt lat="43.03324" lon="1.07889">
        <ele>355.4</ele>
        <time>2024-06-24T13:41:33.993Z</time>
      </trkpt>
      <trkpt lat="43.03326" lon="1.07882">
        <ele>355.4</ele>
        <time>2024-06-24T13:41:34.993Z</time>
      </trkpt>
      <trkpt lat="43.03327" lon="1.07876">
        <ele>355.2</ele>
        <time>2024-06-24T13:41:35.993Z</time>
      </trkpt>
      <trkpt lat="43.03329" lon="1.0787">
        <ele>355.2</ele>
        <time>2024-06-24T13:41:36.993Z</time>
      </trkpt>
      <trkpt lat="43.03329" lon="1.07864">
        <ele>355.2</ele>
        <time>2024-06-24T13:41:37.993Z</time>
      </trkpt>
      <trkpt lat="43.03331" lon="1.07857">
        <ele>355.2</ele>
        <time>2024-06-24T13:41:38.993Z</time>
      </trkpt>
      <trkpt lat="43.03332" lon="1.0785">
        <ele>355.2</ele>
        <time>2024-06-24T13:41:39.993Z</time>
      </trkpt>
      <trkpt lat="43.03334" lon="1.07843">
        <ele>355.2</ele>
        <time>2024-06-24T13:41:40.993Z</time>
      </trkpt>
      <trkpt lat="43.03336" lon="1.07836">
        <ele>355.2</ele>
        <time>2024-06-24T13:41:41.993Z</time>
      </trkpt>
      <trkpt lat="43.03337" lon="1.0783">
        <ele>355.4</ele>
        <time>2024-06-24T13:41:42.993Z</time>
      </trkpt>
      <trkpt lat="43.03339" lon="1.07822">
        <ele>355.4</ele>
        <time>2024-06-24T13:41:43.993Z</time>
      </trkpt>
      <trkpt lat="43.0334" lon="1.07816">
        <ele>355.4</ele>
        <time>2024-06-24T13:41:44.993Z</time>
      </trkpt>
      <trkpt lat="43.03342" lon="1.07809">
        <ele>355.4</ele>
        <time>2024-06-24T13:41:45.993Z</time>
      </trkpt>
      <trkpt lat="43.03344" lon="1.07802">
        <ele>355.4</ele>
        <time>2024-06-24T13:41:46.993Z</time>
      </trkpt>
      <trkpt lat="43.03345" lon="1.07796">
        <ele>354.8</ele>
        <time>2024-06-24T13:41:47.993Z</time>
      </trkpt>
      <trkpt lat="43.03347" lon="1.07789">
        <ele>354.8</ele>
        <time>2024-06-24T13:41:48.993Z</time>
      </trkpt>
      <trkpt lat="43.03349" lon="1.07782">
        <ele>355.2</ele>
        <time>2024-06-24T13:41:49.993Z</time>
      </trkpt>
      <trkpt lat="43.0335" lon="1.07775">
        <ele>355.2</ele>
        <time>2024-06-24T13:41:50.993Z</time>
      </trkpt>
      <trkpt lat="43.03353" lon="1.07768">
        <ele>355.2</ele>
        <time>2024-06-24T13:41:51.993Z</time>
      </trkpt>
      <trkpt lat="43.03354" lon="1.07761">
        <ele>355.2</ele>
        <time>2024-06-24T13:41:52.993Z</time>
      </trkpt>
      <trkpt lat="43.03356" lon="1.07754">
        <ele>355.2</ele>
        <time>2024-06-24T13:41:53.993Z</time>
      </trkpt>
      <trkpt lat="43.03357" lon="1.07748">
        <ele>355.2</ele>
        <time>2024-06-24T13:41:54.993Z</time>
      </trkpt>
      <trkpt lat="43.03358" lon="1.07741">
        <ele>355</ele>
        <time>2024-06-24T13:41:55.993Z</time>
      </trkpt>
      <trkpt lat="43.0336" lon="1.07734">
        <ele>355</ele>
        <time>2024-06-24T13:41:56.993Z</time>
      </trkpt>
      <trkpt lat="43.03361" lon="1.07727">
        <ele>355</ele>
        <time>2024-06-24T13:41:57.993Z</time>
      </trkpt>
      <trkpt lat="43.03363" lon="1.0772">
        <ele>355.2</ele>
        <time>2024-06-24T13:41:58.993Z</time>
      </trkpt>
      <trkpt lat="43.03365" lon="1.07713">
        <ele>355.2</ele>
        <time>2024-06-24T13:41:59.993Z</time>
      </trkpt>
      <trkpt lat="43.03367" lon="1.07707">
        <ele>355.2</ele>
        <time>2024-06-24T13:42:00.993Z</time>
      </trkpt>
      <trkpt lat="43.03369" lon="1.077">
        <ele>355</ele>
        <time>2024-06-24T13:42:01.993Z</time>
      </trkpt>
      <trkpt lat="43.0337" lon="1.07693">
        <ele>354.6</ele>
        <time>2024-06-24T13:42:02.993Z</time>
      </trkpt>
      <trkpt lat="43.03371" lon="1.07686">
        <ele>354.6</ele>
        <time>2024-06-24T13:42:03.993Z</time>
      </trkpt>
      <trkpt lat="43.03374" lon="1.07679">
        <ele>354.6</ele>
        <time>2024-06-24T13:42:04.993Z</time>
      </trkpt>
      <trkpt lat="43.03375" lon="1.07673">
        <ele>354.6</ele>
        <time>2024-06-24T13:42:05.993Z</time>
      </trkpt>
      <trkpt lat="43.03377" lon="1.07667">
        <ele>355</ele>
        <time>2024-06-24T13:42:06.993Z</time>
      </trkpt>
      <trkpt lat="43.0338" lon="1.0766">
        <ele>355</ele>
        <time>2024-06-24T13:42:07.993Z</time>
      </trkpt>
      <trkpt lat="43.03381" lon="1.07652">
        <ele>354.6</ele>
        <time>2024-06-24T13:42:08.993Z</time>
      </trkpt>
      <trkpt lat="43.03383" lon="1.07646">
        <ele>354.6</ele>
        <time>2024-06-24T13:42:09.993Z</time>
      </trkpt>
      <trkpt lat="43.03384" lon="1.07639">
        <ele>354.2</ele>
        <time>2024-06-24T13:42:10.993Z</time>
      </trkpt>
      <trkpt lat="43.03386" lon="1.07632">
        <ele>354.2</ele>
        <time>2024-06-24T13:42:11.993Z</time>
      </trkpt>
      <trkpt lat="43.03388" lon="1.07625">
        <ele>354.2</ele>
        <time>2024-06-24T13:42:12.993Z</time>
      </trkpt>
      <trkpt lat="43.0339" lon="1.07618">
        <ele>354.2</ele>
        <time>2024-06-24T13:42:13.993Z</time>
      </trkpt>
      <trkpt lat="43.03392" lon="1.07611">
        <ele>354.2</ele>
        <time>2024-06-24T13:42:14.993Z</time>
      </trkpt>
      <trkpt lat="43.03395" lon="1.07603">
        <ele>354</ele>
        <time>2024-06-24T13:42:15.993Z</time>
      </trkpt>
      <trkpt lat="43.03396" lon="1.07596">
        <ele>354</ele>
        <time>2024-06-24T13:42:16.993Z</time>
      </trkpt>
      <trkpt lat="43.03399" lon="1.07589">
        <ele>353.6</ele>
        <time>2024-06-24T13:42:17.993Z</time>
      </trkpt>
      <trkpt lat="43.03401" lon="1.07582">
        <ele>353.6</ele>
        <time>2024-06-24T13:42:18.993Z</time>
      </trkpt>
      <trkpt lat="43.03403" lon="1.07575">
        <ele>353.6</ele>
        <time>2024-06-24T13:42:19.993Z</time>
      </trkpt>
      <trkpt lat="43.03404" lon="1.07568">
        <ele>354</ele>
        <time>2024-06-24T13:42:20.993Z</time>
      </trkpt>
      <trkpt lat="43.03406" lon="1.07562">
        <ele>354</ele>
        <time>2024-06-24T13:42:21.993Z</time>
      </trkpt>
      <trkpt lat="43.03407" lon="1.07555">
        <ele>354</ele>
        <time>2024-06-24T13:42:22.993Z</time>
      </trkpt>
      <trkpt lat="43.03409" lon="1.07548">
        <ele>354</ele>
        <time>2024-06-24T13:42:23.993Z</time>
      </trkpt>
      <trkpt lat="43.03411" lon="1.07541">
        <ele>354</ele>
        <time>2024-06-24T13:42:24.993Z</time>
      </trkpt>
      <trkpt lat="43.03413" lon="1.07534">
        <ele>354</ele>
        <time>2024-06-24T13:42:25.993Z</time>
      </trkpt>
      <trkpt lat="43.03416" lon="1.07527">
        <ele>353.8</ele>
        <time>2024-06-24T13:42:26.993Z</time>
      </trkpt>
      <trkpt lat="43.03418" lon="1.07519">
        <ele>354.2</ele>
        <time>2024-06-24T13:42:27.993Z</time>
      </trkpt>
      <trkpt lat="43.0342" lon="1.07512">
        <ele>354.2</ele>
        <time>2024-06-24T13:42:28.993Z</time>
      </trkpt>
      <trkpt lat="43.03421" lon="1.07505">
        <ele>354.2</ele>
        <time>2024-06-24T13:42:29.993Z</time>
      </trkpt>
      <trkpt lat="43.03423" lon="1.07498">
        <ele>354.2</ele>
        <time>2024-06-24T13:42:30.993Z</time>
      </trkpt>
      <trkpt lat="43.03425" lon="1.07491">
        <ele>353.6</ele>
        <time>2024-06-24T13:42:31.993Z</time>
      </trkpt>
      <trkpt lat="43.03426" lon="1.07485">
        <ele>353.6</ele>
        <time>2024-06-24T13:42:32.993Z</time>
      </trkpt>
      <trkpt lat="43.03429" lon="1.07478">
        <ele>353.8</ele>
        <time>2024-06-24T13:42:33.993Z</time>
      </trkpt>
      <trkpt lat="43.0343" lon="1.07471">
        <ele>353.8</ele>
        <time>2024-06-24T13:42:34.993Z</time>
      </trkpt>
      <trkpt lat="43.03431" lon="1.07464">
        <ele>353.8</ele>
        <time>2024-06-24T13:42:35.993Z</time>
      </trkpt>
      <trkpt lat="43.03433" lon="1.07457">
        <ele>353.8</ele>
        <time>2024-06-24T13:42:36.993Z</time>
      </trkpt>
      <trkpt lat="43.03435" lon="1.0745">
        <ele>353.8</ele>
        <time>2024-06-24T13:42:37.993Z</time>
      </trkpt>
      <trkpt lat="43.03437" lon="1.07443">
        <ele>353.8</ele>
        <time>2024-06-24T13:42:38.993Z</time>
      </trkpt>
      <trkpt lat="43.03438" lon="1.07436">
        <ele>353.8</ele>
        <time>2024-06-24T13:42:39.993Z</time>
      </trkpt>
      <trkpt lat="43.0344" lon="1.07429">
        <ele>353.8</ele>
        <time>2024-06-24T13:42:40.993Z</time>
      </trkpt>
      <trkpt lat="43.03442" lon="1.07422">
        <ele>353.8</ele>
        <time>2024-06-24T13:42:41.993Z</time>
      </trkpt>
      <trkpt lat="43.03444" lon="1.07415">
        <ele>354</ele>
        <time>2024-06-24T13:42:42.993Z</time>
      </trkpt>
      <trkpt lat="43.03446" lon="1.07408">
        <ele>354</ele>
        <time>2024-06-24T13:42:43.993Z</time>
      </trkpt>
      <trkpt lat="43.03447" lon="1.07401">
        <ele>354</ele>
        <time>2024-06-24T13:42:44.993Z</time>
      </trkpt>
      <trkpt lat="43.03449" lon="1.07393">
        <ele>354</ele>
        <time>2024-06-24T13:42:45.993Z</time>
      </trkpt>
      <trkpt lat="43.03451" lon="1.07386">
        <ele>353.8</ele>
        <time>2024-06-24T13:42:46.993Z</time>
      </trkpt>
      <trkpt lat="43.03452" lon="1.0738">
        <ele>353.8</ele>
        <time>2024-06-24T13:42:47.993Z</time>
      </trkpt>
      <trkpt lat="43.03454" lon="1.07371">
        <ele>353.8</ele>
        <time>2024-06-24T13:42:48.993Z</time>
      </trkpt>
      <trkpt lat="43.03455" lon="1.07365">
        <ele>353.8</ele>
        <time>2024-06-24T13:42:49.993Z</time>
      </trkpt>
      <trkpt lat="43.03457" lon="1.07357">
        <ele>353.8</ele>
        <time>2024-06-24T13:42:50.993Z</time>
      </trkpt>
      <trkpt lat="43.03459" lon="1.0735">
        <ele>353.8</ele>
        <time>2024-06-24T13:42:51.993Z</time>
      </trkpt>
      <trkpt lat="43.03462" lon="1.07343">
        <ele>353.8</ele>
        <time>2024-06-24T13:42:52.993Z</time>
      </trkpt>
      <trkpt lat="43.03463" lon="1.07336">
        <ele>353.8</ele>
        <time>2024-06-24T13:42:53.993Z</time>
      </trkpt>
      <trkpt lat="43.03464" lon="1.07329">
        <ele>353.8</ele>
        <time>2024-06-24T13:42:54.993Z</time>
      </trkpt>
      <trkpt lat="43.03466" lon="1.07321">
        <ele>353.4</ele>
        <time>2024-06-24T13:42:55.993Z</time>
      </trkpt>
      <trkpt lat="43.03468" lon="1.07314">
        <ele>353.6</ele>
        <time>2024-06-24T13:42:56.993Z</time>
      </trkpt>
      <trkpt lat="43.03469" lon="1.07306">
        <ele>353.2</ele>
        <time>2024-06-24T13:42:57.993Z</time>
      </trkpt>
      <trkpt lat="43.03471" lon="1.07299">
        <ele>353.2</ele>
        <time>2024-06-24T13:42:58.993Z</time>
      </trkpt>
      <trkpt lat="43.03472" lon="1.07291">
        <ele>353.4</ele>
        <time>2024-06-24T13:42:59.993Z</time>
      </trkpt>
      <trkpt lat="43.03474" lon="1.07284">
        <ele>353.2</ele>
        <time>2024-06-24T13:43:00.993Z</time>
      </trkpt>
      <trkpt lat="43.03475" lon="1.07276">
        <ele>353</ele>
        <time>2024-06-24T13:43:01.993Z</time>
      </trkpt>
      <trkpt lat="43.03477" lon="1.07269">
        <ele>353</ele>
        <time>2024-06-24T13:43:02.993Z</time>
      </trkpt>
      <trkpt lat="43.03479" lon="1.07262">
        <ele>353</ele>
        <time>2024-06-24T13:43:03.993Z</time>
      </trkpt>
      <trkpt lat="43.0348" lon="1.07255">
        <ele>353.4</ele>
        <time>2024-06-24T13:43:04.993Z</time>
      </trkpt>
      <trkpt lat="43.03482" lon="1.07249">
        <ele>353.4</ele>
        <time>2024-06-24T13:43:05.993Z</time>
      </trkpt>
      <trkpt lat="43.03483" lon="1.07242">
        <ele>353.4</ele>
        <time>2024-06-24T13:43:06.993Z</time>
      </trkpt>
      <trkpt lat="43.03485" lon="1.07235">
        <ele>353.2</ele>
        <time>2024-06-24T13:43:07.993Z</time>
      </trkpt>
      <trkpt lat="43.03487" lon="1.07228">
        <ele>353.4</ele>
        <time>2024-06-24T13:43:08.993Z</time>
      </trkpt>
      <trkpt lat="43.03489" lon="1.0722">
        <ele>353.2</ele>
        <time>2024-06-24T13:43:09.993Z</time>
      </trkpt>
      <trkpt lat="43.03491" lon="1.07214">
        <ele>353.2</ele>
        <time>2024-06-24T13:43:10.993Z</time>
      </trkpt>
      <trkpt lat="43.03493" lon="1.07207">
        <ele>353.2</ele>
        <time>2024-06-24T13:43:11.993Z</time>
      </trkpt>
      <trkpt lat="43.03494" lon="1.07199">
        <ele>353.2</ele>
        <time>2024-06-24T13:43:12.993Z</time>
      </trkpt>
      <trkpt lat="43.03497" lon="1.07193">
        <ele>353</ele>
        <time>2024-06-24T13:43:13.993Z</time>
      </trkpt>
      <trkpt lat="43.03498" lon="1.07186">
        <ele>353</ele>
        <time>2024-06-24T13:43:14.993Z</time>
      </trkpt>
      <trkpt lat="43.035" lon="1.07179">
        <ele>352.6</ele>
        <time>2024-06-24T13:43:15.993Z</time>
      </trkpt>
      <trkpt lat="43.03501" lon="1.07172">
        <ele>352.6</ele>
        <time>2024-06-24T13:43:16.993Z</time>
      </trkpt>
      <trkpt lat="43.03503" lon="1.07165">
        <ele>352.6</ele>
        <time>2024-06-24T13:43:17.993Z</time>
      </trkpt>
      <trkpt lat="43.03504" lon="1.07159">
        <ele>352.6</ele>
        <time>2024-06-24T13:43:18.993Z</time>
      </trkpt>
      <trkpt lat="43.03506" lon="1.07152">
        <ele>352.6</ele>
        <time>2024-06-24T13:43:19.993Z</time>
      </trkpt>
      <trkpt lat="43.03508" lon="1.07145">
        <ele>353</ele>
        <time>2024-06-24T13:43:20.993Z</time>
      </trkpt>
      <trkpt lat="43.0351" lon="1.07138">
        <ele>352.4</ele>
        <time>2024-06-24T13:43:21.993Z</time>
      </trkpt>
      <trkpt lat="43.03512" lon="1.07132">
        <ele>352.4</ele>
        <time>2024-06-24T13:43:22.993Z</time>
      </trkpt>
      <trkpt lat="43.03514" lon="1.07125">
        <ele>352.8</ele>
        <time>2024-06-24T13:43:23.993Z</time>
      </trkpt>
      <trkpt lat="43.03515" lon="1.07118">
        <ele>352.8</ele>
        <time>2024-06-24T13:43:24.993Z</time>
      </trkpt>
      <trkpt lat="43.03516" lon="1.07111">
        <ele>353</ele>
        <time>2024-06-24T13:43:25.993Z</time>
      </trkpt>
      <trkpt lat="43.03518" lon="1.07104">
        <ele>353</ele>
        <time>2024-06-24T13:43:26.993Z</time>
      </trkpt>
      <trkpt lat="43.0352" lon="1.07097">
        <ele>353</ele>
        <time>2024-06-24T13:43:27.993Z</time>
      </trkpt>
      <trkpt lat="43.03522" lon="1.07091">
        <ele>353</ele>
        <time>2024-06-24T13:43:28.993Z</time>
      </trkpt>
      <trkpt lat="43.03524" lon="1.07085">
        <ele>353</ele>
        <time>2024-06-24T13:43:29.993Z</time>
      </trkpt>
      <trkpt lat="43.03526" lon="1.07078">
        <ele>353</ele>
        <time>2024-06-24T13:43:30.993Z</time>
      </trkpt>
      <trkpt lat="43.03528" lon="1.07071">
        <ele>353</ele>
        <time>2024-06-24T13:43:31.993Z</time>
      </trkpt>
      <trkpt lat="43.03531" lon="1.07065">
        <ele>353</ele>
        <time>2024-06-24T13:43:32.993Z</time>
      </trkpt>
      <trkpt lat="43.03533" lon="1.07058">
        <ele>353.2</ele>
        <time>2024-06-24T13:43:33.993Z</time>
      </trkpt>
      <trkpt lat="43.03536" lon="1.07051">
        <ele>353</ele>
        <time>2024-06-24T13:43:34.993Z</time>
      </trkpt>
      <trkpt lat="43.03538" lon="1.07044">
        <ele>352.8</ele>
        <time>2024-06-24T13:43:35.993Z</time>
      </trkpt>
      <trkpt lat="43.0354" lon="1.07037">
        <ele>353</ele>
        <time>2024-06-24T13:43:36.993Z</time>
      </trkpt>
      <trkpt lat="43.03543" lon="1.0703">
        <ele>352.8</ele>
        <time>2024-06-24T13:43:37.993Z</time>
      </trkpt>
      <trkpt lat="43.03545" lon="1.07022">
        <ele>352.6</ele>
        <time>2024-06-24T13:43:38.993Z</time>
      </trkpt>
      <trkpt lat="43.03547" lon="1.07016">
        <ele>352.6</ele>
        <time>2024-06-24T13:43:39.993Z</time>
      </trkpt>
      <trkpt lat="43.0355" lon="1.07009">
        <ele>352.2</ele>
        <time>2024-06-24T13:43:40.993Z</time>
      </trkpt>
      <trkpt lat="43.03552" lon="1.07002">
        <ele>352.4</ele>
        <time>2024-06-24T13:43:41.993Z</time>
      </trkpt>
      <trkpt lat="43.03554" lon="1.06995">
        <ele>352.4</ele>
        <time>2024-06-24T13:43:42.993Z</time>
      </trkpt>
      <trkpt lat="43.03556" lon="1.06989">
        <ele>352</ele>
        <time>2024-06-24T13:43:43.993Z</time>
      </trkpt>
      <trkpt lat="43.03559" lon="1.06982">
        <ele>352.4</ele>
        <time>2024-06-24T13:43:44.993Z</time>
      </trkpt>
      <trkpt lat="43.03561" lon="1.06975">
        <ele>352.6</ele>
        <time>2024-06-24T13:43:45.993Z</time>
      </trkpt>
      <trkpt lat="43.03564" lon="1.06968">
        <ele>352.6</ele>
        <time>2024-06-24T13:43:46.993Z</time>
      </trkpt>
      <trkpt lat="43.03567" lon="1.06962">
        <ele>352.6</ele>
        <time>2024-06-24T13:43:47.993Z</time>
      </trkpt>
      <trkpt lat="43.03569" lon="1.06955">
        <ele>352.6</ele>
        <time>2024-06-24T13:43:48.993Z</time>
      </trkpt>
      <trkpt lat="43.03571" lon="1.06949">
        <ele>352.6</ele>
        <time>2024-06-24T13:43:49.993Z</time>
      </trkpt>
      <trkpt lat="43.03573" lon="1.06942">
        <ele>352</ele>
        <time>2024-06-24T13:43:50.993Z</time>
      </trkpt>
      <trkpt lat="43.03577" lon="1.06935">
        <ele>352.4</ele>
        <time>2024-06-24T13:43:51.993Z</time>
      </trkpt>
      <trkpt lat="43.03579" lon="1.06928">
        <ele>352.4</ele>
        <time>2024-06-24T13:43:52.993Z</time>
      </trkpt>
      <trkpt lat="43.03582" lon="1.06922">
        <ele>352.4</ele>
        <time>2024-06-24T13:43:53.993Z</time>
      </trkpt>
      <trkpt lat="43.03585" lon="1.06915">
        <ele>352.4</ele>
        <time>2024-06-24T13:43:54.993Z</time>
      </trkpt>
      <trkpt lat="43.03587" lon="1.0691">
        <ele>352.2</ele>
        <time>2024-06-24T13:43:55.993Z</time>
      </trkpt>
      <trkpt lat="43.03589" lon="1.06904">
        <ele>352.2</ele>
        <time>2024-06-24T13:43:56.993Z</time>
      </trkpt>
      <trkpt lat="43.03591" lon="1.06897">
        <ele>352.2</ele>
        <time>2024-06-24T13:43:57.993Z</time>
      </trkpt>
      <trkpt lat="43.03594" lon="1.0689">
        <ele>352.6</ele>
        <time>2024-06-24T13:43:58.993Z</time>
      </trkpt>
      <trkpt lat="43.03596" lon="1.06884">
        <ele>352.6</ele>
        <time>2024-06-24T13:43:59.993Z</time>
      </trkpt>
      <trkpt lat="43.03599" lon="1.06877">
        <ele>352.6</ele>
        <time>2024-06-24T13:44:00.993Z</time>
      </trkpt>
      <trkpt lat="43.03602" lon="1.06871">
        <ele>352.6</ele>
        <time>2024-06-24T13:44:01.993Z</time>
      </trkpt>
      <trkpt lat="43.03604" lon="1.06865">
        <ele>352.6</ele>
        <time>2024-06-24T13:44:02.993Z</time>
      </trkpt>
      <trkpt lat="43.03606" lon="1.06859">
        <ele>352.4</ele>
        <time>2024-06-24T13:44:03.993Z</time>
      </trkpt>
      <trkpt lat="43.03608" lon="1.06852">
        <ele>352.4</ele>
        <time>2024-06-24T13:44:04.993Z</time>
      </trkpt>
      <trkpt lat="43.03613" lon="1.06845">
        <ele>352.6</ele>
        <time>2024-06-24T13:44:05.993Z</time>
      </trkpt>
      <trkpt lat="43.03617" lon="1.06838">
        <ele>352.4</ele>
        <time>2024-06-24T13:44:06.993Z</time>
      </trkpt>
      <trkpt lat="43.0362" lon="1.06832">
        <ele>352</ele>
        <time>2024-06-24T13:44:07.993Z</time>
      </trkpt>
      <trkpt lat="43.03623" lon="1.06825">
        <ele>352</ele>
        <time>2024-06-24T13:44:08.993Z</time>
      </trkpt>
      <trkpt lat="43.03626" lon="1.06819">
        <ele>352</ele>
        <time>2024-06-24T13:44:09.993Z</time>
      </trkpt>
      <trkpt lat="43.03629" lon="1.06813">
        <ele>352</ele>
        <time>2024-06-24T13:44:10.993Z</time>
      </trkpt>
      <trkpt lat="43.03631" lon="1.06806">
        <ele>352.4</ele>
        <time>2024-06-24T13:44:11.993Z</time>
      </trkpt>
      <trkpt lat="43.03634" lon="1.068">
        <ele>352.4</ele>
        <time>2024-06-24T13:44:12.993Z</time>
      </trkpt>
      <trkpt lat="43.03637" lon="1.06794">
        <ele>352.4</ele>
        <time>2024-06-24T13:44:13.993Z</time>
      </trkpt>
      <trkpt lat="43.03639" lon="1.06788">
        <ele>352.4</ele>
        <time>2024-06-24T13:44:14.993Z</time>
      </trkpt>
      <trkpt lat="43.03642" lon="1.06781">
        <ele>352</ele>
        <time>2024-06-24T13:44:15.993Z</time>
      </trkpt>
      <trkpt lat="43.03645" lon="1.06775">
        <ele>351.8</ele>
        <time>2024-06-24T13:44:16.993Z</time>
      </trkpt>
      <trkpt lat="43.03648" lon="1.06769">
        <ele>352</ele>
        <time>2024-06-24T13:44:17.993Z</time>
      </trkpt>
      <trkpt lat="43.0365" lon="1.06761">
        <ele>352</ele>
        <time>2024-06-24T13:44:18.993Z</time>
      </trkpt>
      <trkpt lat="43.03653" lon="1.06756">
        <ele>351.8</ele>
        <time>2024-06-24T13:44:19.993Z</time>
      </trkpt>
      <trkpt lat="43.03655" lon="1.06749">
        <ele>351.8</ele>
        <time>2024-06-24T13:44:20.993Z</time>
      </trkpt>
      <trkpt lat="43.03659" lon="1.06742">
        <ele>351.6</ele>
        <time>2024-06-24T13:44:21.993Z</time>
      </trkpt>
      <trkpt lat="43.03661" lon="1.06735">
        <ele>352</ele>
        <time>2024-06-24T13:44:22.993Z</time>
      </trkpt>
      <trkpt lat="43.03664" lon="1.06729">
        <ele>352</ele>
        <time>2024-06-24T13:44:23.993Z</time>
      </trkpt>
      <trkpt lat="43.03667" lon="1.06722">
        <ele>352</ele>
        <time>2024-06-24T13:44:24.993Z</time>
      </trkpt>
      <trkpt lat="43.0367" lon="1.06716">
        <ele>352</ele>
        <time>2024-06-24T13:44:25.993Z</time>
      </trkpt>
      <trkpt lat="43.03673" lon="1.06709">
        <ele>352</ele>
        <time>2024-06-24T13:44:26.993Z</time>
      </trkpt>
      <trkpt lat="43.03677" lon="1.06702">
        <ele>352</ele>
        <time>2024-06-24T13:44:27.993Z</time>
      </trkpt>
      <trkpt lat="43.03679" lon="1.06695">
        <ele>352</ele>
        <time>2024-06-24T13:44:28.993Z</time>
      </trkpt>
      <trkpt lat="43.03682" lon="1.06689">
        <ele>352.4</ele>
        <time>2024-06-24T13:44:29.993Z</time>
      </trkpt>
      <trkpt lat="43.03685" lon="1.06683">
        <ele>352.4</ele>
        <time>2024-06-24T13:44:30.993Z</time>
      </trkpt>
      <trkpt lat="43.03688" lon="1.06676">
        <ele>352.4</ele>
        <time>2024-06-24T13:44:31.993Z</time>
      </trkpt>
      <trkpt lat="43.03691" lon="1.0667">
        <ele>352.4</ele>
        <time>2024-06-24T13:44:32.993Z</time>
      </trkpt>
      <trkpt lat="43.03693" lon="1.06663">
        <ele>352</ele>
        <time>2024-06-24T13:44:33.993Z</time>
      </trkpt>
      <trkpt lat="43.03696" lon="1.06657">
        <ele>352.2</ele>
        <time>2024-06-24T13:44:34.993Z</time>
      </trkpt>
      <trkpt lat="43.03699" lon="1.06651">
        <ele>352</ele>
        <time>2024-06-24T13:44:35.993Z</time>
      </trkpt>
      <trkpt lat="43.03701" lon="1.06644">
        <ele>352</ele>
        <time>2024-06-24T13:44:36.993Z</time>
      </trkpt>
      <trkpt lat="43.03704" lon="1.06638">
        <ele>352</ele>
        <time>2024-06-24T13:44:37.993Z</time>
      </trkpt>
      <trkpt lat="43.03706" lon="1.06631">
        <ele>352</ele>
        <time>2024-06-24T13:44:38.993Z</time>
      </trkpt>
      <trkpt lat="43.03709" lon="1.06625">
        <ele>352.6</ele>
        <time>2024-06-24T13:44:39.993Z</time>
      </trkpt>
      <trkpt lat="43.03712" lon="1.06619">
        <ele>352.6</ele>
        <time>2024-06-24T13:44:40.993Z</time>
      </trkpt>
      <trkpt lat="43.03714" lon="1.06613">
        <ele>352.6</ele>
        <time>2024-06-24T13:44:41.993Z</time>
      </trkpt>
      <trkpt lat="43.03717" lon="1.06607">
        <ele>351.8</ele>
        <time>2024-06-24T13:44:42.993Z</time>
      </trkpt>
      <trkpt lat="43.0372" lon="1.06601">
        <ele>352.2</ele>
        <time>2024-06-24T13:44:43.993Z</time>
      </trkpt>
      <trkpt lat="43.03722" lon="1.06595">
        <ele>352.2</ele>
        <time>2024-06-24T13:44:44.993Z</time>
      </trkpt>
      <trkpt lat="43.03726" lon="1.06589">
        <ele>352.2</ele>
        <time>2024-06-24T13:44:45.993Z</time>
      </trkpt>
      <trkpt lat="43.03729" lon="1.06583">
        <ele>352.4</ele>
        <time>2024-06-24T13:44:46.993Z</time>
      </trkpt>
      <trkpt lat="43.03732" lon="1.06577">
        <ele>352.4</ele>
        <time>2024-06-24T13:44:47.993Z</time>
      </trkpt>
      <trkpt lat="43.03734" lon="1.06571">
        <ele>352</ele>
        <time>2024-06-24T13:44:48.993Z</time>
      </trkpt>
      <trkpt lat="43.03737" lon="1.06565">
        <ele>351.6</ele>
        <time>2024-06-24T13:44:49.993Z</time>
      </trkpt>
      <trkpt lat="43.03741" lon="1.06559">
        <ele>351.8</ele>
        <time>2024-06-24T13:44:50.993Z</time>
      </trkpt>
      <trkpt lat="43.03743" lon="1.06554">
        <ele>351.8</ele>
        <time>2024-06-24T13:44:51.993Z</time>
      </trkpt>
      <trkpt lat="43.03746" lon="1.06548">
        <ele>351.8</ele>
        <time>2024-06-24T13:44:52.993Z</time>
      </trkpt>
      <trkpt lat="43.0375" lon="1.06542">
        <ele>351.6</ele>
        <time>2024-06-24T13:44:53.993Z</time>
      </trkpt>
      <trkpt lat="43.03753" lon="1.06536">
        <ele>351.6</ele>
        <time>2024-06-24T13:44:54.993Z</time>
      </trkpt>
      <trkpt lat="43.03756" lon="1.0653">
        <ele>351.2</ele>
        <time>2024-06-24T13:44:55.993Z</time>
      </trkpt>
      <trkpt lat="43.03759" lon="1.06525">
        <ele>351.2</ele>
        <time>2024-06-24T13:44:56.993Z</time>
      </trkpt>
      <trkpt lat="43.03762" lon="1.06518">
        <ele>351.2</ele>
        <time>2024-06-24T13:44:57.993Z</time>
      </trkpt>
      <trkpt lat="43.03765" lon="1.06512">
        <ele>351.2</ele>
        <time>2024-06-24T13:44:58.993Z</time>
      </trkpt>
      <trkpt lat="43.03769" lon="1.06507">
        <ele>351.2</ele>
        <time>2024-06-24T13:44:59.993Z</time>
      </trkpt>
      <trkpt lat="43.03772" lon="1.06501">
        <ele>351.8</ele>
        <time>2024-06-24T13:45:00.993Z</time>
      </trkpt>
      <trkpt lat="43.03776" lon="1.06496">
        <ele>351.8</ele>
        <time>2024-06-24T13:45:01.993Z</time>
      </trkpt>
      <trkpt lat="43.03779" lon="1.0649">
        <ele>351.8</ele>
        <time>2024-06-24T13:45:02.993Z</time>
      </trkpt>
      <trkpt lat="43.03782" lon="1.06484">
        <ele>351.4</ele>
        <time>2024-06-24T13:45:03.993Z</time>
      </trkpt>
      <trkpt lat="43.03786" lon="1.06479">
        <ele>351.4</ele>
        <time>2024-06-24T13:45:04.993Z</time>
      </trkpt>
      <trkpt lat="43.03789" lon="1.06473">
        <ele>351.4</ele>
        <time>2024-06-24T13:45:05.993Z</time>
      </trkpt>
      <trkpt lat="43.03792" lon="1.06466">
        <ele>351</ele>
        <time>2024-06-24T13:45:06.993Z</time>
      </trkpt>
      <trkpt lat="43.03795" lon="1.0646">
        <ele>351.4</ele>
        <time>2024-06-24T13:45:07.993Z</time>
      </trkpt>
      <trkpt lat="43.03799" lon="1.06455">
        <ele>351.4</ele>
        <time>2024-06-24T13:45:08.993Z</time>
      </trkpt>
      <trkpt lat="43.03802" lon="1.06449">
        <ele>351.4</ele>
        <time>2024-06-24T13:45:09.993Z</time>
      </trkpt>
      <trkpt lat="43.03805" lon="1.06443">
        <ele>351.4</ele>
        <time>2024-06-24T13:45:10.993Z</time>
      </trkpt>
      <trkpt lat="43.03809" lon="1.06437">
        <ele>351.4</ele>
        <time>2024-06-24T13:45:11.993Z</time>
      </trkpt>
      <trkpt lat="43.03813" lon="1.06432">
        <ele>351.6</ele>
        <time>2024-06-24T13:45:12.993Z</time>
      </trkpt>
      <trkpt lat="43.03817" lon="1.06427">
        <ele>351.6</ele>
        <time>2024-06-24T13:45:13.993Z</time>
      </trkpt>
      <trkpt lat="43.0382" lon="1.06422">
        <ele>351.6</ele>
        <time>2024-06-24T13:45:14.993Z</time>
      </trkpt>
      <trkpt lat="43.03824" lon="1.06417">
        <ele>351.2</ele>
        <time>2024-06-24T13:45:15.993Z</time>
      </trkpt>
      <trkpt lat="43.03828" lon="1.06412">
        <ele>351.2</ele>
        <time>2024-06-24T13:45:16.993Z</time>
      </trkpt>
      <trkpt lat="43.03831" lon="1.06408">
        <ele>351.2</ele>
        <time>2024-06-24T13:45:17.993Z</time>
      </trkpt>
      <trkpt lat="43.03835" lon="1.06403">
        <ele>351.2</ele>
        <time>2024-06-24T13:45:18.993Z</time>
      </trkpt>
      <trkpt lat="43.03838" lon="1.06398">
        <ele>351.2</ele>
        <time>2024-06-24T13:45:19.993Z</time>
      </trkpt>
      <trkpt lat="43.03841" lon="1.06392">
        <ele>351.2</ele>
        <time>2024-06-24T13:45:20.993Z</time>
      </trkpt>
      <trkpt lat="43.03845" lon="1.06386">
        <ele>351.2</ele>
        <time>2024-06-24T13:45:21.993Z</time>
      </trkpt>
      <trkpt lat="43.03849" lon="1.06381">
        <ele>351</ele>
        <time>2024-06-24T13:45:22.993Z</time>
      </trkpt>
      <trkpt lat="43.03852" lon="1.06375">
        <ele>350.8</ele>
        <time>2024-06-24T13:45:23.993Z</time>
      </trkpt>
      <trkpt lat="43.03855" lon="1.06369">
        <ele>351</ele>
        <time>2024-06-24T13:45:24.993Z</time>
      </trkpt>
      <trkpt lat="43.03858" lon="1.06362">
        <ele>350.6</ele>
        <time>2024-06-24T13:45:25.993Z</time>
      </trkpt>
      <trkpt lat="43.03861" lon="1.06355">
        <ele>350.6</ele>
        <time>2024-06-24T13:45:26.993Z</time>
      </trkpt>
      <trkpt lat="43.03863" lon="1.06348">
        <ele>350.6</ele>
        <time>2024-06-24T13:45:27.993Z</time>
      </trkpt>
      <trkpt lat="43.03865" lon="1.0634">
        <ele>350</ele>
        <time>2024-06-24T13:45:28.993Z</time>
      </trkpt>
      <trkpt lat="43.03866" lon="1.06333">
        <ele>350</ele>
        <time>2024-06-24T13:45:29.993Z</time>
      </trkpt>
      <trkpt lat="43.03867" lon="1.06325">
        <ele>350</ele>
        <time>2024-06-24T13:45:30.993Z</time>
      </trkpt>
      <trkpt lat="43.03867" lon="1.06318">
        <ele>350</ele>
        <time>2024-06-24T13:45:31.993Z</time>
      </trkpt>
      <trkpt lat="43.03867" lon="1.06311">
        <ele>350</ele>
        <time>2024-06-24T13:45:32.993Z</time>
      </trkpt>
      <trkpt lat="43.03868" lon="1.06304">
        <ele>350</ele>
        <time>2024-06-24T13:45:33.993Z</time>
      </trkpt>
      <trkpt lat="43.03868" lon="1.06296">
        <ele>349.6</ele>
        <time>2024-06-24T13:45:34.993Z</time>
      </trkpt>
      <trkpt lat="43.0387" lon="1.06289">
        <ele>349.6</ele>
        <time>2024-06-24T13:45:35.993Z</time>
      </trkpt>
      <trkpt lat="43.03871" lon="1.06282">
        <ele>349.6</ele>
        <time>2024-06-24T13:45:36.993Z</time>
      </trkpt>
      <trkpt lat="43.03872" lon="1.06274">
        <ele>349.6</ele>
        <time>2024-06-24T13:45:37.993Z</time>
      </trkpt>
      <trkpt lat="43.03874" lon="1.06267">
        <ele>349.4</ele>
        <time>2024-06-24T13:45:38.993Z</time>
      </trkpt>
      <trkpt lat="43.03876" lon="1.0626">
        <ele>349.4</ele>
        <time>2024-06-24T13:45:39.993Z</time>
      </trkpt>
      <trkpt lat="43.03877" lon="1.06252">
        <ele>348.6</ele>
        <time>2024-06-24T13:45:40.993Z</time>
      </trkpt>
      <trkpt lat="43.03879" lon="1.06244">
        <ele>348.6</ele>
        <time>2024-06-24T13:45:41.993Z</time>
      </trkpt>
      <trkpt lat="43.0388" lon="1.06237">
        <ele>348.6</ele>
        <time>2024-06-24T13:45:42.993Z</time>
      </trkpt>
      <trkpt lat="43.03882" lon="1.0623">
        <ele>348.6</ele>
        <time>2024-06-24T13:45:43.993Z</time>
      </trkpt>
      <trkpt lat="43.03883" lon="1.06223">
        <ele>348.6</ele>
        <time>2024-06-24T13:45:44.993Z</time>
      </trkpt>
      <trkpt lat="43.03884" lon="1.06216">
        <ele>348.6</ele>
        <time>2024-06-24T13:45:45.993Z</time>
      </trkpt>
      <trkpt lat="43.03885" lon="1.06208">
        <ele>348.6</ele>
        <time>2024-06-24T13:45:46.993Z</time>
      </trkpt>
      <trkpt lat="43.03886" lon="1.06201">
        <ele>348.6</ele>
        <time>2024-06-24T13:45:47.993Z</time>
      </trkpt>
      <trkpt lat="43.03886" lon="1.06194">
        <ele>348.6</ele>
        <time>2024-06-24T13:45:48.993Z</time>
      </trkpt>
      <trkpt lat="43.03887" lon="1.06187">
        <ele>348.6</ele>
        <time>2024-06-24T13:45:49.993Z</time>
      </trkpt>
      <trkpt lat="43.03888" lon="1.0618">
        <ele>348.2</ele>
        <time>2024-06-24T13:45:50.993Z</time>
      </trkpt>
      <trkpt lat="43.03888" lon="1.06173">
        <ele>348.2</ele>
        <time>2024-06-24T13:45:51.993Z</time>
      </trkpt>
      <trkpt lat="43.03889" lon="1.06165">
        <ele>348.2</ele>
        <time>2024-06-24T13:45:52.993Z</time>
      </trkpt>
      <trkpt lat="43.03889" lon="1.06158">
        <ele>348</ele>
        <time>2024-06-24T13:45:53.993Z</time>
      </trkpt>
      <trkpt lat="43.03889" lon="1.06151">
        <ele>348.4</ele>
        <time>2024-06-24T13:45:54.993Z</time>
      </trkpt>
      <trkpt lat="43.03889" lon="1.06143">
        <ele>348.6</ele>
        <time>2024-06-24T13:45:55.993Z</time>
      </trkpt>
      <trkpt lat="43.03889" lon="1.06136">
        <ele>348.6</ele>
        <time>2024-06-24T13:45:56.993Z</time>
      </trkpt>
      <trkpt lat="43.0389" lon="1.06129">
        <ele>348.6</ele>
        <time>2024-06-24T13:45:57.993Z</time>
      </trkpt>
      <trkpt lat="43.03889" lon="1.06121">
        <ele>348.6</ele>
        <time>2024-06-24T13:45:58.993Z</time>
      </trkpt>
      <trkpt lat="43.03889" lon="1.06113">
        <ele>348.6</ele>
        <time>2024-06-24T13:45:59.993Z</time>
      </trkpt>
      <trkpt lat="43.03889" lon="1.06106">
        <ele>348.2</ele>
        <time>2024-06-24T13:46:00.993Z</time>
      </trkpt>
      <trkpt lat="43.03889" lon="1.06098">
        <ele>348.2</ele>
        <time>2024-06-24T13:46:01.993Z</time>
      </trkpt>
      <trkpt lat="43.03889" lon="1.0609">
        <ele>348</ele>
        <time>2024-06-24T13:46:02.993Z</time>
      </trkpt>
      <trkpt lat="43.03888" lon="1.06083">
        <ele>348</ele>
        <time>2024-06-24T13:46:03.993Z</time>
      </trkpt>
      <trkpt lat="43.03888" lon="1.06076">
        <ele>348</ele>
        <time>2024-06-24T13:46:04.993Z</time>
      </trkpt>
      <trkpt lat="43.03888" lon="1.06069">
        <ele>348.2</ele>
        <time>2024-06-24T13:46:05.993Z</time>
      </trkpt>
      <trkpt lat="43.03887" lon="1.06062">
        <ele>348</ele>
        <time>2024-06-24T13:46:06.993Z</time>
      </trkpt>
      <trkpt lat="43.03887" lon="1.06055">
        <ele>347.8</ele>
        <time>2024-06-24T13:46:07.993Z</time>
      </trkpt>
      <trkpt lat="43.03886" lon="1.06049">
        <ele>347.8</ele>
        <time>2024-06-24T13:46:08.993Z</time>
      </trkpt>
      <trkpt lat="43.03885" lon="1.06041">
        <ele>347.4</ele>
        <time>2024-06-24T13:46:09.993Z</time>
      </trkpt>
      <trkpt lat="43.03884" lon="1.06035">
        <ele>347.4</ele>
        <time>2024-06-24T13:46:10.993Z</time>
      </trkpt>
      <trkpt lat="43.03884" lon="1.06027">
        <ele>346.8</ele>
        <time>2024-06-24T13:46:11.993Z</time>
      </trkpt>
      <trkpt lat="43.03883" lon="1.0602">
        <ele>347.2</ele>
        <time>2024-06-24T13:46:12.993Z</time>
      </trkpt>
      <trkpt lat="43.03882" lon="1.06014">
        <ele>347.2</ele>
        <time>2024-06-24T13:46:13.993Z</time>
      </trkpt>
      <trkpt lat="43.03882" lon="1.06008">
        <ele>347.2</ele>
        <time>2024-06-24T13:46:14.993Z</time>
      </trkpt>
      <trkpt lat="43.03881" lon="1.06001">
        <ele>347</ele>
        <time>2024-06-24T13:46:15.993Z</time>
      </trkpt>
      <trkpt lat="43.0388" lon="1.05994">
        <ele>347</ele>
        <time>2024-06-24T13:46:16.993Z</time>
      </trkpt>
      <trkpt lat="43.03878" lon="1.05988">
        <ele>347</ele>
        <time>2024-06-24T13:46:17.993Z</time>
      </trkpt>
      <trkpt lat="43.03877" lon="1.05981">
        <ele>347</ele>
        <time>2024-06-24T13:46:18.993Z</time>
      </trkpt>
      <trkpt lat="43.03876" lon="1.05975">
        <ele>347</ele>
        <time>2024-06-24T13:46:19.993Z</time>
      </trkpt>
      <trkpt lat="43.03875" lon="1.05969">
        <ele>347.4</ele>
        <time>2024-06-24T13:46:20.993Z</time>
      </trkpt>
      <trkpt lat="43.03874" lon="1.05962">
        <ele>347.4</ele>
        <time>2024-06-24T13:46:21.993Z</time>
      </trkpt>
      <trkpt lat="43.03872" lon="1.05956">
        <ele>347.4</ele>
        <time>2024-06-24T13:46:22.993Z</time>
      </trkpt>
      <trkpt lat="43.03871" lon="1.0595">
        <ele>347.4</ele>
        <time>2024-06-24T13:46:23.993Z</time>
      </trkpt>
      <trkpt lat="43.03869" lon="1.05944">
        <ele>346.8</ele>
        <time>2024-06-24T13:46:24.993Z</time>
      </trkpt>
      <trkpt lat="43.03867" lon="1.05938">
        <ele>346.8</ele>
        <time>2024-06-24T13:46:25.993Z</time>
      </trkpt>
      <trkpt lat="43.03866" lon="1.05931">
        <ele>347.2</ele>
        <time>2024-06-24T13:46:26.993Z</time>
      </trkpt>
      <trkpt lat="43.03864" lon="1.05925">
        <ele>347.4</ele>
        <time>2024-06-24T13:46:27.993Z</time>
      </trkpt>
      <trkpt lat="43.03862" lon="1.0592">
        <ele>347.4</ele>
        <time>2024-06-24T13:46:28.993Z</time>
      </trkpt>
      <trkpt lat="43.03861" lon="1.05915">
        <ele>347.4</ele>
        <time>2024-06-24T13:46:29.993Z</time>
      </trkpt>
      <trkpt lat="43.0386" lon="1.05911">
        <ele>347.4</ele>
        <time>2024-06-24T13:46:30.993Z</time>
      </trkpt>
      <trkpt lat="43.03858" lon="1.05906">
        <ele>347</ele>
        <time>2024-06-24T13:46:31.993Z</time>
      </trkpt>
      <trkpt lat="43.03856" lon="1.05902">
        <ele>347</ele>
        <time>2024-06-24T13:46:32.993Z</time>
      </trkpt>
      <trkpt lat="43.03854" lon="1.05899">
        <ele>347</ele>
        <time>2024-06-24T13:46:33.993Z</time>
      </trkpt>
      <trkpt lat="43.03851" lon="1.05897">
        <ele>346.8</ele>
        <time>2024-06-24T13:46:34.993Z</time>
      </trkpt>
      <trkpt lat="43.03849" lon="1.05897">
        <ele>346.8</ele>
        <time>2024-06-24T13:46:35.993Z</time>
      </trkpt>
      <trkpt lat="43.03846" lon="1.05898">
        <ele>346.8</ele>
        <time>2024-06-24T13:46:36.993Z</time>
      </trkpt>
      <trkpt lat="43.03843" lon="1.05899">
        <ele>346.8</ele>
        <time>2024-06-24T13:46:37.993Z</time>
      </trkpt>
      <trkpt lat="43.03839" lon="1.05902">
        <ele>346.8</ele>
        <time>2024-06-24T13:46:38.993Z</time>
      </trkpt>
      <trkpt lat="43.03833" lon="1.05904">
        <ele>346.8</ele>
        <time>2024-06-24T13:46:39.993Z</time>
      </trkpt>
      <trkpt lat="43.0383" lon="1.05906">
        <ele>346.8</ele>
        <time>2024-06-24T13:46:40.993Z</time>
      </trkpt>
      <trkpt lat="43.03827" lon="1.05907">
        <ele>346.8</ele>
        <time>2024-06-24T13:46:41.993Z</time>
      </trkpt>
      <trkpt lat="43.03825" lon="1.05908">
        <ele>346.2</ele>
        <time>2024-06-24T13:46:42.993Z</time>
      </trkpt>
      <trkpt lat="43.03814" lon="1.05913">
        <ele>345.6</ele>
        <time>2024-06-24T13:46:43.993Z</time>
      </trkpt>
      <trkpt lat="43.03811" lon="1.05913">
        <ele>345.6</ele>
        <time>2024-06-24T13:46:44.993Z</time>
      </trkpt>
      <trkpt lat="43.03807" lon="1.05912">
        <ele>345</ele>
        <time>2024-06-24T13:46:45.993Z</time>
      </trkpt>
      <trkpt lat="43.03806" lon="1.0591">
        <ele>345</ele>
        <time>2024-06-24T13:46:46.993Z</time>
      </trkpt>
      <trkpt lat="43.03803" lon="1.05907">
        <ele>345</ele>
        <time>2024-06-24T13:46:47.993Z</time>
      </trkpt>
      <trkpt lat="43.03802" lon="1.05905">
        <ele>345.4</ele>
        <time>2024-06-24T13:46:48.993Z</time>
      </trkpt>
      <trkpt lat="43.03799" lon="1.05902">
        <ele>345.4</ele>
        <time>2024-06-24T13:46:49.993Z</time>
      </trkpt>
      <trkpt lat="43.03796" lon="1.05901">
        <ele>345.6</ele>
        <time>2024-06-24T13:46:50.993Z</time>
      </trkpt>
      <trkpt lat="43.03794" lon="1.05898">
        <ele>345.6</ele>
        <time>2024-06-24T13:46:51.993Z</time>
      </trkpt>
      <trkpt lat="43.03791" lon="1.05895">
        <ele>346.2</ele>
        <time>2024-06-24T13:46:52.993Z</time>
      </trkpt>
      <trkpt lat="43.03788" lon="1.05891">
        <ele>346.6</ele>
        <time>2024-06-24T13:46:53.993Z</time>
      </trkpt>
      <trkpt lat="43.03785" lon="1.05887">
        <ele>346.8</ele>
        <time>2024-06-24T13:46:54.993Z</time>
      </trkpt>
      <trkpt lat="43.03782" lon="1.05884">
        <ele>347.2</ele>
        <time>2024-06-24T13:46:55.993Z</time>
      </trkpt>
      <trkpt lat="43.03779" lon="1.05881">
        <ele>347.4</ele>
        <time>2024-06-24T13:46:56.993Z</time>
      </trkpt>
      <trkpt lat="43.03776" lon="1.05878">
        <ele>347.8</ele>
        <time>2024-06-24T13:46:57.993Z</time>
      </trkpt>
      <trkpt lat="43.03772" lon="1.05875">
        <ele>347.8</ele>
        <time>2024-06-24T13:46:58.993Z</time>
      </trkpt>
      <trkpt lat="43.03768" lon="1.05872">
        <ele>348.4</ele>
        <time>2024-06-24T13:46:59.993Z</time>
      </trkpt>
      <trkpt lat="43.03766" lon="1.05868">
        <ele>348.8</ele>
        <time>2024-06-24T13:47:00.993Z</time>
      </trkpt>
      <trkpt lat="43.03763" lon="1.05863">
        <ele>348.8</ele>
        <time>2024-06-24T13:47:01.993Z</time>
      </trkpt>
      <trkpt lat="43.03759" lon="1.0586">
        <ele>349</ele>
        <time>2024-06-24T13:47:02.993Z</time>
      </trkpt>
      <trkpt lat="43.03756" lon="1.05857">
        <ele>349.4</ele>
        <time>2024-06-24T13:47:03.993Z</time>
      </trkpt>
      <trkpt lat="43.03753" lon="1.05855">
        <ele>349.4</ele>
        <time>2024-06-24T13:47:04.993Z</time>
      </trkpt>
      <trkpt lat="43.03749" lon="1.05852">
        <ele>349.6</ele>
        <time>2024-06-24T13:47:05.993Z</time>
      </trkpt>
      <trkpt lat="43.03745" lon="1.05847">
        <ele>349.8</ele>
        <time>2024-06-24T13:47:06.993Z</time>
      </trkpt>
      <trkpt lat="43.03742" lon="1.05844">
        <ele>349.8</ele>
        <time>2024-06-24T13:47:07.993Z</time>
      </trkpt>
      <trkpt lat="43.03738" lon="1.05839">
        <ele>350.6</ele>
        <time>2024-06-24T13:47:08.993Z</time>
      </trkpt>
      <trkpt lat="43.03734" lon="1.05835">
        <ele>350.6</ele>
        <time>2024-06-24T13:47:09.993Z</time>
      </trkpt>
      <trkpt lat="43.0373" lon="1.05832">
        <ele>351</ele>
        <time>2024-06-24T13:47:10.993Z</time>
      </trkpt>
      <trkpt lat="43.03727" lon="1.05829">
        <ele>350.8</ele>
        <time>2024-06-24T13:47:11.993Z</time>
      </trkpt>
      <trkpt lat="43.03722" lon="1.05826">
        <ele>350.8</ele>
        <time>2024-06-24T13:47:12.993Z</time>
      </trkpt>
      <trkpt lat="43.03719" lon="1.05822">
        <ele>350.8</ele>
        <time>2024-06-24T13:47:13.993Z</time>
      </trkpt>
      <trkpt lat="43.03715" lon="1.05819">
        <ele>351.4</ele>
        <time>2024-06-24T13:47:14.993Z</time>
      </trkpt>
      <trkpt lat="43.03711" lon="1.05815">
        <ele>351</ele>
        <time>2024-06-24T13:47:15.993Z</time>
      </trkpt>
      <trkpt lat="43.03707" lon="1.0581">
        <ele>351</ele>
        <time>2024-06-24T13:47:16.993Z</time>
      </trkpt>
      <trkpt lat="43.03703" lon="1.05805">
        <ele>351.4</ele>
        <time>2024-06-24T13:47:17.993Z</time>
      </trkpt>
      <trkpt lat="43.03699" lon="1.058">
        <ele>351.4</ele>
        <time>2024-06-24T13:47:18.993Z</time>
      </trkpt>
      <trkpt lat="43.03696" lon="1.05795">
        <ele>351.4</ele>
        <time>2024-06-24T13:47:19.993Z</time>
      </trkpt>
      <trkpt lat="43.03691" lon="1.0579">
        <ele>351.4</ele>
        <time>2024-06-24T13:47:20.993Z</time>
      </trkpt>
      <trkpt lat="43.03687" lon="1.05786">
        <ele>351.4</ele>
        <time>2024-06-24T13:47:21.993Z</time>
      </trkpt>
      <trkpt lat="43.03683" lon="1.0578">
        <ele>351.4</ele>
        <time>2024-06-24T13:47:22.993Z</time>
      </trkpt>
      <trkpt lat="43.0368" lon="1.05775">
        <ele>351.4</ele>
        <time>2024-06-24T13:47:23.993Z</time>
      </trkpt>
      <trkpt lat="43.03676" lon="1.0577">
        <ele>351.4</ele>
        <time>2024-06-24T13:47:24.993Z</time>
      </trkpt>
      <trkpt lat="43.03671" lon="1.05764">
        <ele>351.4</ele>
        <time>2024-06-24T13:47:25.993Z</time>
      </trkpt>
      <trkpt lat="43.03667" lon="1.0576">
        <ele>351.4</ele>
        <time>2024-06-24T13:47:26.993Z</time>
      </trkpt>
      <trkpt lat="43.03664" lon="1.05754">
        <ele>351.4</ele>
        <time>2024-06-24T13:47:27.993Z</time>
      </trkpt>
      <trkpt lat="43.0366" lon="1.05748">
        <ele>351.4</ele>
        <time>2024-06-24T13:47:28.993Z</time>
      </trkpt>
      <trkpt lat="43.03656" lon="1.05743">
        <ele>351.4</ele>
        <time>2024-06-24T13:47:29.993Z</time>
      </trkpt>
      <trkpt lat="43.03652" lon="1.05738">
        <ele>351.4</ele>
        <time>2024-06-24T13:47:30.993Z</time>
      </trkpt>
      <trkpt lat="43.03648" lon="1.05732">
        <ele>351.4</ele>
        <time>2024-06-24T13:47:31.993Z</time>
      </trkpt>
      <trkpt lat="43.03643" lon="1.05727">
        <ele>351.4</ele>
        <time>2024-06-24T13:47:32.993Z</time>
      </trkpt>
      <trkpt lat="43.03639" lon="1.05721">
        <ele>351.4</ele>
        <time>2024-06-24T13:47:33.993Z</time>
      </trkpt>
      <trkpt lat="43.03635" lon="1.05716">
        <ele>351.4</ele>
        <time>2024-06-24T13:47:34.993Z</time>
      </trkpt>
      <trkpt lat="43.03631" lon="1.0571">
        <ele>351.4</ele>
        <time>2024-06-24T13:47:35.993Z</time>
      </trkpt>
      <trkpt lat="43.03628" lon="1.05704">
        <ele>351.4</ele>
        <time>2024-06-24T13:47:36.993Z</time>
      </trkpt>
      <trkpt lat="43.03623" lon="1.05699">
        <ele>351.4</ele>
        <time>2024-06-24T13:47:37.993Z</time>
      </trkpt>
      <trkpt lat="43.03619" lon="1.05693">
        <ele>351</ele>
        <time>2024-06-24T13:47:38.993Z</time>
      </trkpt>
      <trkpt lat="43.03615" lon="1.05688">
        <ele>351</ele>
        <time>2024-06-24T13:47:39.993Z</time>
      </trkpt>
      <trkpt lat="43.03611" lon="1.05682">
        <ele>350.6</ele>
        <time>2024-06-24T13:47:40.993Z</time>
      </trkpt>
      <trkpt lat="43.03608" lon="1.05676">
        <ele>350.6</ele>
        <time>2024-06-24T13:47:41.993Z</time>
      </trkpt>
      <trkpt lat="43.03604" lon="1.05669">
        <ele>350.6</ele>
        <time>2024-06-24T13:47:42.993Z</time>
      </trkpt>
      <trkpt lat="43.036" lon="1.05662">
        <ele>350.6</ele>
        <time>2024-06-24T13:47:43.993Z</time>
      </trkpt>
      <trkpt lat="43.03597" lon="1.05656">
        <ele>350.4</ele>
        <time>2024-06-24T13:47:44.993Z</time>
      </trkpt>
      <trkpt lat="43.03593" lon="1.05649">
        <ele>350.4</ele>
        <time>2024-06-24T13:47:45.993Z</time>
      </trkpt>
      <trkpt lat="43.0359" lon="1.05642">
        <ele>350.4</ele>
        <time>2024-06-24T13:47:46.993Z</time>
      </trkpt>
      <trkpt lat="43.03587" lon="1.05635">
        <ele>350.2</ele>
        <time>2024-06-24T13:47:47.993Z</time>
      </trkpt>
      <trkpt lat="43.03584" lon="1.05627">
        <ele>350</ele>
        <time>2024-06-24T13:47:48.993Z</time>
      </trkpt>
      <trkpt lat="43.0358" lon="1.05619">
        <ele>350</ele>
        <time>2024-06-24T13:47:49.993Z</time>
      </trkpt>
      <trkpt lat="43.03578" lon="1.05611">
        <ele>350</ele>
        <time>2024-06-24T13:47:50.993Z</time>
      </trkpt>
      <trkpt lat="43.03575" lon="1.05603">
        <ele>349.6</ele>
        <time>2024-06-24T13:47:51.993Z</time>
      </trkpt>
      <trkpt lat="43.03573" lon="1.05595">
        <ele>349.6</ele>
        <time>2024-06-24T13:47:52.993Z</time>
      </trkpt>
      <trkpt lat="43.03571" lon="1.05588">
        <ele>349.6</ele>
        <time>2024-06-24T13:47:53.993Z</time>
      </trkpt>
      <trkpt lat="43.03568" lon="1.0558">
        <ele>349.6</ele>
        <time>2024-06-24T13:47:54.993Z</time>
      </trkpt>
      <trkpt lat="43.03567" lon="1.05572">
        <ele>349.6</ele>
        <time>2024-06-24T13:47:55.993Z</time>
      </trkpt>
      <trkpt lat="43.03565" lon="1.05564">
        <ele>349.6</ele>
        <time>2024-06-24T13:47:56.993Z</time>
      </trkpt>
      <trkpt lat="43.03563" lon="1.05556">
        <ele>349.6</ele>
        <time>2024-06-24T13:47:57.993Z</time>
      </trkpt>
      <trkpt lat="43.03562" lon="1.05548">
        <ele>349.6</ele>
        <time>2024-06-24T13:47:58.993Z</time>
      </trkpt>
      <trkpt lat="43.03561" lon="1.0554">
        <ele>349.4</ele>
        <time>2024-06-24T13:47:59.993Z</time>
      </trkpt>
      <trkpt lat="43.03559" lon="1.05532">
        <ele>349.4</ele>
        <time>2024-06-24T13:48:00.993Z</time>
      </trkpt>
      <trkpt lat="43.03558" lon="1.05524">
        <ele>349.4</ele>
        <time>2024-06-24T13:48:01.993Z</time>
      </trkpt>
      <trkpt lat="43.03557" lon="1.05516">
        <ele>349.4</ele>
        <time>2024-06-24T13:48:02.993Z</time>
      </trkpt>
      <trkpt lat="43.03556" lon="1.05508">
        <ele>349.4</ele>
        <time>2024-06-24T13:48:03.993Z</time>
      </trkpt>
      <trkpt lat="43.03555" lon="1.055">
        <ele>349.4</ele>
        <time>2024-06-24T13:48:04.993Z</time>
      </trkpt>
      <trkpt lat="43.03554" lon="1.05492">
        <ele>349.4</ele>
        <time>2024-06-24T13:48:05.993Z</time>
      </trkpt>
      <trkpt lat="43.03552" lon="1.05484">
        <ele>349.4</ele>
        <time>2024-06-24T13:48:06.993Z</time>
      </trkpt>
      <trkpt lat="43.03551" lon="1.05476">
        <ele>349.4</ele>
        <time>2024-06-24T13:48:07.993Z</time>
      </trkpt>
      <trkpt lat="43.03551" lon="1.05469">
        <ele>349.4</ele>
        <time>2024-06-24T13:48:08.993Z</time>
      </trkpt>
      <trkpt lat="43.03549" lon="1.05461">
        <ele>349.4</ele>
        <time>2024-06-24T13:48:09.993Z</time>
      </trkpt>
      <trkpt lat="43.03549" lon="1.05453">
        <ele>349.4</ele>
        <time>2024-06-24T13:48:10.993Z</time>
      </trkpt>
      <trkpt lat="43.03548" lon="1.05446">
        <ele>349.4</ele>
        <time>2024-06-24T13:48:11.993Z</time>
      </trkpt>
      <trkpt lat="43.03547" lon="1.05438">
        <ele>349.4</ele>
        <time>2024-06-24T13:48:12.993Z</time>
      </trkpt>
      <trkpt lat="43.03546" lon="1.0543">
        <ele>349.4</ele>
        <time>2024-06-24T13:48:13.993Z</time>
      </trkpt>
      <trkpt lat="43.03545" lon="1.05422">
        <ele>349.4</ele>
        <time>2024-06-24T13:48:14.993Z</time>
      </trkpt>
      <trkpt lat="43.03544" lon="1.05414">
        <ele>349.4</ele>
        <time>2024-06-24T13:48:15.993Z</time>
      </trkpt>
      <trkpt lat="43.03543" lon="1.05407">
        <ele>349.4</ele>
        <time>2024-06-24T13:48:16.993Z</time>
      </trkpt>
      <trkpt lat="43.03542" lon="1.054">
        <ele>349.4</ele>
        <time>2024-06-24T13:48:17.993Z</time>
      </trkpt>
      <trkpt lat="43.03541" lon="1.05392">
        <ele>349.4</ele>
        <time>2024-06-24T13:48:18.993Z</time>
      </trkpt>
      <trkpt lat="43.0354" lon="1.05384">
        <ele>349.4</ele>
        <time>2024-06-24T13:48:19.993Z</time>
      </trkpt>
      <trkpt lat="43.03538" lon="1.05377">
        <ele>349.4</ele>
        <time>2024-06-24T13:48:20.993Z</time>
      </trkpt>
      <trkpt lat="43.03538" lon="1.0537">
        <ele>349.4</ele>
        <time>2024-06-24T13:48:21.993Z</time>
      </trkpt>
      <trkpt lat="43.03536" lon="1.05362">
        <ele>349.4</ele>
        <time>2024-06-24T13:48:22.993Z</time>
      </trkpt>
      <trkpt lat="43.03535" lon="1.05355">
        <ele>349.4</ele>
        <time>2024-06-24T13:48:23.993Z</time>
      </trkpt>
      <trkpt lat="43.03534" lon="1.05347">
        <ele>349.8</ele>
        <time>2024-06-24T13:48:24.993Z</time>
      </trkpt>
      <trkpt lat="43.03533" lon="1.0534">
        <ele>349.8</ele>
        <time>2024-06-24T13:48:25.993Z</time>
      </trkpt>
      <trkpt lat="43.03531" lon="1.05334">
        <ele>349.8</ele>
        <time>2024-06-24T13:48:26.993Z</time>
      </trkpt>
      <trkpt lat="43.0353" lon="1.05326">
        <ele>349.8</ele>
        <time>2024-06-24T13:48:27.993Z</time>
      </trkpt>
      <trkpt lat="43.03529" lon="1.05319">
        <ele>349.8</ele>
        <time>2024-06-24T13:48:28.993Z</time>
      </trkpt>
      <trkpt lat="43.03527" lon="1.05312">
        <ele>349.8</ele>
        <time>2024-06-24T13:48:29.993Z</time>
      </trkpt>
      <trkpt lat="43.03526" lon="1.05305">
        <ele>349.8</ele>
        <time>2024-06-24T13:48:30.993Z</time>
      </trkpt>
      <trkpt lat="43.03525" lon="1.05297">
        <ele>349.8</ele>
        <time>2024-06-24T13:48:31.993Z</time>
      </trkpt>
      <trkpt lat="43.03524" lon="1.0529">
        <ele>349.8</ele>
        <time>2024-06-24T13:48:32.993Z</time>
      </trkpt>
      <trkpt lat="43.03522" lon="1.05282">
        <ele>349.8</ele>
        <time>2024-06-24T13:48:33.993Z</time>
      </trkpt>
      <trkpt lat="43.03521" lon="1.05275">
        <ele>349.8</ele>
        <time>2024-06-24T13:48:34.993Z</time>
      </trkpt>
      <trkpt lat="43.0352" lon="1.05267">
        <ele>349.8</ele>
        <time>2024-06-24T13:48:35.993Z</time>
      </trkpt>
      <trkpt lat="43.03519" lon="1.0526">
        <ele>349.8</ele>
        <time>2024-06-24T13:48:36.993Z</time>
      </trkpt>
      <trkpt lat="43.03518" lon="1.05252">
        <ele>349.8</ele>
        <time>2024-06-24T13:48:37.993Z</time>
      </trkpt>
      <trkpt lat="43.03517" lon="1.05244">
        <ele>350</ele>
        <time>2024-06-24T13:48:38.993Z</time>
      </trkpt>
      <trkpt lat="43.03516" lon="1.05237">
        <ele>350</ele>
        <time>2024-06-24T13:48:39.993Z</time>
      </trkpt>
      <trkpt lat="43.03516" lon="1.05229">
        <ele>350</ele>
        <time>2024-06-24T13:48:40.993Z</time>
      </trkpt>
      <trkpt lat="43.03515" lon="1.05222">
        <ele>350</ele>
        <time>2024-06-24T13:48:41.993Z</time>
      </trkpt>
      <trkpt lat="43.03514" lon="1.05214">
        <ele>350</ele>
        <time>2024-06-24T13:48:42.993Z</time>
      </trkpt>
      <trkpt lat="43.03513" lon="1.05206">
        <ele>349.8</ele>
        <time>2024-06-24T13:48:43.993Z</time>
      </trkpt>
      <trkpt lat="43.03512" lon="1.05197">
        <ele>349.8</ele>
        <time>2024-06-24T13:48:44.993Z</time>
      </trkpt>
      <trkpt lat="43.03511" lon="1.0519">
        <ele>349.8</ele>
        <time>2024-06-24T13:48:45.993Z</time>
      </trkpt>
      <trkpt lat="43.0351" lon="1.05181">
        <ele>349.4</ele>
        <time>2024-06-24T13:48:46.993Z</time>
      </trkpt>
      <trkpt lat="43.03509" lon="1.05173">
        <ele>349.4</ele>
        <time>2024-06-24T13:48:47.993Z</time>
      </trkpt>
      <trkpt lat="43.03508" lon="1.05165">
        <ele>349.2</ele>
        <time>2024-06-24T13:48:48.993Z</time>
      </trkpt>
      <trkpt lat="43.03507" lon="1.05157">
        <ele>349.2</ele>
        <time>2024-06-24T13:48:49.993Z</time>
      </trkpt>
      <trkpt lat="43.03506" lon="1.05149">
        <ele>349.2</ele>
        <time>2024-06-24T13:48:50.993Z</time>
      </trkpt>
      <trkpt lat="43.03505" lon="1.05141">
        <ele>349.2</ele>
        <time>2024-06-24T13:48:51.993Z</time>
      </trkpt>
      <trkpt lat="43.03503" lon="1.05133">
        <ele>349.2</ele>
        <time>2024-06-24T13:48:52.993Z</time>
      </trkpt>
      <trkpt lat="43.03503" lon="1.05124">
        <ele>349.2</ele>
        <time>2024-06-24T13:48:53.993Z</time>
      </trkpt>
      <trkpt lat="43.03502" lon="1.05116">
        <ele>348.8</ele>
        <time>2024-06-24T13:48:54.993Z</time>
      </trkpt>
      <trkpt lat="43.03502" lon="1.05108">
        <ele>348.8</ele>
        <time>2024-06-24T13:48:55.993Z</time>
      </trkpt>
      <trkpt lat="43.03501" lon="1.051">
        <ele>348.6</ele>
        <time>2024-06-24T13:48:56.993Z</time>
      </trkpt>
      <trkpt lat="43.035" lon="1.05091">
        <ele>348.6</ele>
        <time>2024-06-24T13:48:57.993Z</time>
      </trkpt>
      <trkpt lat="43.03499" lon="1.05083">
        <ele>348.4</ele>
        <time>2024-06-24T13:48:58.993Z</time>
      </trkpt>
      <trkpt lat="43.03498" lon="1.05075">
        <ele>348.4</ele>
        <time>2024-06-24T13:48:59.993Z</time>
      </trkpt>
      <trkpt lat="43.03497" lon="1.05066">
        <ele>348.4</ele>
        <time>2024-06-24T13:49:00.993Z</time>
      </trkpt>
      <trkpt lat="43.03497" lon="1.05058">
        <ele>348.4</ele>
        <time>2024-06-24T13:49:01.993Z</time>
      </trkpt>
      <trkpt lat="43.03496" lon="1.0505">
        <ele>348.4</ele>
        <time>2024-06-24T13:49:02.993Z</time>
      </trkpt>
      <trkpt lat="43.03495" lon="1.05042">
        <ele>348.4</ele>
        <time>2024-06-24T13:49:03.993Z</time>
      </trkpt>
      <trkpt lat="43.03494" lon="1.05033">
        <ele>348.4</ele>
        <time>2024-06-24T13:49:04.993Z</time>
      </trkpt>
      <trkpt lat="43.03493" lon="1.05025">
        <ele>348.4</ele>
        <time>2024-06-24T13:49:05.993Z</time>
      </trkpt>
      <trkpt lat="43.03493" lon="1.05017">
        <ele>348.2</ele>
        <time>2024-06-24T13:49:06.993Z</time>
      </trkpt>
      <trkpt lat="43.03492" lon="1.05008">
        <ele>348.2</ele>
        <time>2024-06-24T13:49:07.993Z</time>
      </trkpt>
      <trkpt lat="43.03491" lon="1.05">
        <ele>348.2</ele>
        <time>2024-06-24T13:49:08.993Z</time>
      </trkpt>
      <trkpt lat="43.0349" lon="1.04992">
        <ele>348.2</ele>
        <time>2024-06-24T13:49:09.993Z</time>
      </trkpt>
      <trkpt lat="43.03489" lon="1.04983">
        <ele>348.2</ele>
        <time>2024-06-24T13:49:10.993Z</time>
      </trkpt>
      <trkpt lat="43.03488" lon="1.04975">
        <ele>348.2</ele>
        <time>2024-06-24T13:49:11.993Z</time>
      </trkpt>
      <trkpt lat="43.03487" lon="1.04967">
        <ele>347.8</ele>
        <time>2024-06-24T13:49:12.993Z</time>
      </trkpt>
      <trkpt lat="43.03486" lon="1.04958">
        <ele>347.8</ele>
        <time>2024-06-24T13:49:13.993Z</time>
      </trkpt>
      <trkpt lat="43.03485" lon="1.0495">
        <ele>347.6</ele>
        <time>2024-06-24T13:49:14.993Z</time>
      </trkpt>
      <trkpt lat="43.03484" lon="1.04942">
        <ele>347.6</ele>
        <time>2024-06-24T13:49:15.993Z</time>
      </trkpt>
      <trkpt lat="43.03483" lon="1.04934">
        <ele>347.6</ele>
        <time>2024-06-24T13:49:16.993Z</time>
      </trkpt>
      <trkpt lat="43.03482" lon="1.04926">
        <ele>347.6</ele>
        <time>2024-06-24T13:49:17.993Z</time>
      </trkpt>
      <trkpt lat="43.03481" lon="1.04918">
        <ele>347.6</ele>
        <time>2024-06-24T13:49:18.993Z</time>
      </trkpt>
      <trkpt lat="43.0348" lon="1.04909">
        <ele>347.2</ele>
        <time>2024-06-24T13:49:19.993Z</time>
      </trkpt>
      <trkpt lat="43.03479" lon="1.04901">
        <ele>347.2</ele>
        <time>2024-06-24T13:49:20.993Z</time>
      </trkpt>
      <trkpt lat="43.03479" lon="1.04892">
        <ele>347</ele>
        <time>2024-06-24T13:49:21.993Z</time>
      </trkpt>
      <trkpt lat="43.03478" lon="1.04884">
        <ele>347</ele>
        <time>2024-06-24T13:49:22.993Z</time>
      </trkpt>
      <trkpt lat="43.03477" lon="1.04876">
        <ele>347</ele>
        <time>2024-06-24T13:49:23.993Z</time>
      </trkpt>
      <trkpt lat="43.03476" lon="1.04867">
        <ele>346.6</ele>
        <time>2024-06-24T13:49:24.993Z</time>
      </trkpt>
      <trkpt lat="43.03475" lon="1.04859">
        <ele>346.8</ele>
        <time>2024-06-24T13:49:25.993Z</time>
      </trkpt>
      <trkpt lat="43.03474" lon="1.04851">
        <ele>346.8</ele>
        <time>2024-06-24T13:49:26.993Z</time>
      </trkpt>
      <trkpt lat="43.03472" lon="1.04843">
        <ele>346.8</ele>
        <time>2024-06-24T13:49:27.993Z</time>
      </trkpt>
      <trkpt lat="43.03471" lon="1.04835">
        <ele>346.8</ele>
        <time>2024-06-24T13:49:28.993Z</time>
      </trkpt>
      <trkpt lat="43.0347" lon="1.04826">
        <ele>346.6</ele>
        <time>2024-06-24T13:49:29.993Z</time>
      </trkpt>
      <trkpt lat="43.0347" lon="1.04819">
        <ele>346.6</ele>
        <time>2024-06-24T13:49:30.993Z</time>
      </trkpt>
      <trkpt lat="43.03469" lon="1.0481">
        <ele>346.4</ele>
        <time>2024-06-24T13:49:31.993Z</time>
      </trkpt>
      <trkpt lat="43.03468" lon="1.04803">
        <ele>346</ele>
        <time>2024-06-24T13:49:32.993Z</time>
      </trkpt>
      <trkpt lat="43.03467" lon="1.04795">
        <ele>345.8</ele>
        <time>2024-06-24T13:49:33.993Z</time>
      </trkpt>
      <trkpt lat="43.03465" lon="1.04787">
        <ele>345.8</ele>
        <time>2024-06-24T13:49:34.993Z</time>
      </trkpt>
      <trkpt lat="43.03464" lon="1.04778">
        <ele>346</ele>
        <time>2024-06-24T13:49:35.993Z</time>
      </trkpt>
      <trkpt lat="43.03463" lon="1.0477">
        <ele>346</ele>
        <time>2024-06-24T13:49:36.993Z</time>
      </trkpt>
      <trkpt lat="43.03463" lon="1.04762">
        <ele>345.8</ele>
        <time>2024-06-24T13:49:37.993Z</time>
      </trkpt>
      <trkpt lat="43.03462" lon="1.04754">
        <ele>345.8</ele>
        <time>2024-06-24T13:49:38.993Z</time>
      </trkpt>
      <trkpt lat="43.03461" lon="1.04746">
        <ele>345.8</ele>
        <time>2024-06-24T13:49:39.993Z</time>
      </trkpt>
      <trkpt lat="43.0346" lon="1.04738">
        <ele>345.6</ele>
        <time>2024-06-24T13:49:40.993Z</time>
      </trkpt>
      <trkpt lat="43.03459" lon="1.04731">
        <ele>345.6</ele>
        <time>2024-06-24T13:49:41.993Z</time>
      </trkpt>
      <trkpt lat="43.03458" lon="1.04723">
        <ele>345.2</ele>
        <time>2024-06-24T13:49:42.993Z</time>
      </trkpt>
      <trkpt lat="43.03458" lon="1.04714">
        <ele>345.2</ele>
        <time>2024-06-24T13:49:43.993Z</time>
      </trkpt>
      <trkpt lat="43.03457" lon="1.04707">
        <ele>345.4</ele>
        <time>2024-06-24T13:49:44.993Z</time>
      </trkpt>
      <trkpt lat="43.03456" lon="1.04699">
        <ele>345.2</ele>
        <time>2024-06-24T13:49:45.993Z</time>
      </trkpt>
      <trkpt lat="43.03455" lon="1.04691">
        <ele>345.2</ele>
        <time>2024-06-24T13:49:46.993Z</time>
      </trkpt>
      <trkpt lat="43.03454" lon="1.04684">
        <ele>345.2</ele>
        <time>2024-06-24T13:49:47.993Z</time>
      </trkpt>
      <trkpt lat="43.03452" lon="1.04676">
        <ele>345.2</ele>
        <time>2024-06-24T13:49:48.993Z</time>
      </trkpt>
      <trkpt lat="43.03451" lon="1.04668">
        <ele>345.2</ele>
        <time>2024-06-24T13:49:49.993Z</time>
      </trkpt>
      <trkpt lat="43.0345" lon="1.0466">
        <ele>345.2</ele>
        <time>2024-06-24T13:49:50.993Z</time>
      </trkpt>
      <trkpt lat="43.03449" lon="1.04653">
        <ele>345</ele>
        <time>2024-06-24T13:49:51.993Z</time>
      </trkpt>
      <trkpt lat="43.03449" lon="1.04644">
        <ele>345</ele>
        <time>2024-06-24T13:49:52.993Z</time>
      </trkpt>
      <trkpt lat="43.03447" lon="1.04637">
        <ele>345</ele>
        <time>2024-06-24T13:49:53.993Z</time>
      </trkpt>
      <trkpt lat="43.03446" lon="1.04629">
        <ele>345</ele>
        <time>2024-06-24T13:49:54.993Z</time>
      </trkpt>
      <trkpt lat="43.03445" lon="1.04621">
        <ele>345</ele>
        <time>2024-06-24T13:49:55.993Z</time>
      </trkpt>
      <trkpt lat="43.03444" lon="1.04614">
        <ele>345</ele>
        <time>2024-06-24T13:49:56.993Z</time>
      </trkpt>
      <trkpt lat="43.03444" lon="1.04606">
        <ele>345</ele>
        <time>2024-06-24T13:49:57.993Z</time>
      </trkpt>
      <trkpt lat="43.03443" lon="1.04599">
        <ele>345</ele>
        <time>2024-06-24T13:49:58.993Z</time>
      </trkpt>
      <trkpt lat="43.03442" lon="1.04591">
        <ele>345</ele>
        <time>2024-06-24T13:49:59.993Z</time>
      </trkpt>
      <trkpt lat="43.03441" lon="1.04583">
        <ele>345</ele>
        <time>2024-06-24T13:50:00.993Z</time>
      </trkpt>
      <trkpt lat="43.0344" lon="1.04576">
        <ele>345</ele>
        <time>2024-06-24T13:50:01.993Z</time>
      </trkpt>
      <trkpt lat="43.03439" lon="1.04568">
        <ele>345</ele>
        <time>2024-06-24T13:50:02.993Z</time>
      </trkpt>
      <trkpt lat="43.03438" lon="1.0456">
        <ele>345</ele>
        <time>2024-06-24T13:50:03.993Z</time>
      </trkpt>
      <trkpt lat="43.03438" lon="1.04553">
        <ele>345</ele>
        <time>2024-06-24T13:50:04.993Z</time>
      </trkpt>
      <trkpt lat="43.03436" lon="1.04545">
        <ele>345</ele>
        <time>2024-06-24T13:50:05.993Z</time>
      </trkpt>
      <trkpt lat="43.03435" lon="1.04537">
        <ele>345</ele>
        <time>2024-06-24T13:50:06.993Z</time>
      </trkpt>
      <trkpt lat="43.03434" lon="1.04529">
        <ele>345</ele>
        <time>2024-06-24T13:50:07.993Z</time>
      </trkpt>
      <trkpt lat="43.03433" lon="1.04521">
        <ele>345</ele>
        <time>2024-06-24T13:50:08.993Z</time>
      </trkpt>
      <trkpt lat="43.03431" lon="1.04514">
        <ele>345.2</ele>
        <time>2024-06-24T13:50:09.993Z</time>
      </trkpt>
      <trkpt lat="43.0343" lon="1.04507">
        <ele>345.2</ele>
        <time>2024-06-24T13:50:10.993Z</time>
      </trkpt>
      <trkpt lat="43.03429" lon="1.04499">
        <ele>345.2</ele>
        <time>2024-06-24T13:50:11.993Z</time>
      </trkpt>
      <trkpt lat="43.03428" lon="1.04491">
        <ele>345.2</ele>
        <time>2024-06-24T13:50:12.993Z</time>
      </trkpt>
      <trkpt lat="43.03428" lon="1.04484">
        <ele>345.2</ele>
        <time>2024-06-24T13:50:13.993Z</time>
      </trkpt>
      <trkpt lat="43.03427" lon="1.04477">
        <ele>345.4</ele>
        <time>2024-06-24T13:50:14.993Z</time>
      </trkpt>
      <trkpt lat="43.03426" lon="1.04469">
        <ele>345.4</ele>
        <time>2024-06-24T13:50:15.993Z</time>
      </trkpt>
      <trkpt lat="43.03426" lon="1.04462">
        <ele>345.4</ele>
        <time>2024-06-24T13:50:16.993Z</time>
      </trkpt>
      <trkpt lat="43.03425" lon="1.04454">
        <ele>345.4</ele>
        <time>2024-06-24T13:50:17.993Z</time>
      </trkpt>
      <trkpt lat="43.03424" lon="1.04447">
        <ele>345.4</ele>
        <time>2024-06-24T13:50:18.993Z</time>
      </trkpt>
      <trkpt lat="43.03423" lon="1.0444">
        <ele>345.4</ele>
        <time>2024-06-24T13:50:19.993Z</time>
      </trkpt>
      <trkpt lat="43.03422" lon="1.04432">
        <ele>345.4</ele>
        <time>2024-06-24T13:50:20.993Z</time>
      </trkpt>
      <trkpt lat="43.03421" lon="1.04425">
        <ele>345.4</ele>
        <time>2024-06-24T13:50:21.993Z</time>
      </trkpt>
      <trkpt lat="43.0342" lon="1.04418">
        <ele>345.4</ele>
        <time>2024-06-24T13:50:22.993Z</time>
      </trkpt>
      <trkpt lat="43.03419" lon="1.0441">
        <ele>345.4</ele>
        <time>2024-06-24T13:50:23.993Z</time>
      </trkpt>
      <trkpt lat="43.03418" lon="1.04403">
        <ele>345.4</ele>
        <time>2024-06-24T13:50:24.993Z</time>
      </trkpt>
      <trkpt lat="43.03418" lon="1.04397">
        <ele>345.4</ele>
        <time>2024-06-24T13:50:25.993Z</time>
      </trkpt>
      <trkpt lat="43.03417" lon="1.04389">
        <ele>345.4</ele>
        <time>2024-06-24T13:50:26.993Z</time>
      </trkpt>
      <trkpt lat="43.03417" lon="1.04389">
        <ele>345.4</ele>
        <time>2024-06-24T13:50:27.993Z</time>
      </trkpt>
      <trkpt lat="43.03416" lon="1.04382">
        <ele>345.4</ele>
        <time>2024-06-24T13:50:28.993Z</time>
      </trkpt>
      <trkpt lat="43.03415" lon="1.04375">
        <ele>345.4</ele>
        <time>2024-06-24T13:50:29.993Z</time>
      </trkpt>
      <trkpt lat="43.03415" lon="1.04367">
        <ele>345.4</ele>
        <time>2024-06-24T13:50:30.993Z</time>
      </trkpt>
      <trkpt lat="43.03414" lon="1.0436">
        <ele>345.4</ele>
        <time>2024-06-24T13:50:31.993Z</time>
      </trkpt>
      <trkpt lat="43.03413" lon="1.04352">
        <ele>345.4</ele>
        <time>2024-06-24T13:50:32.993Z</time>
      </trkpt>
      <trkpt lat="43.03412" lon="1.04345">
        <ele>345.6</ele>
        <time>2024-06-24T13:50:33.993Z</time>
      </trkpt>
      <trkpt lat="43.03411" lon="1.04337">
        <ele>345.6</ele>
        <time>2024-06-24T13:50:34.993Z</time>
      </trkpt>
      <trkpt lat="43.0341" lon="1.04329">
        <ele>345.6</ele>
        <time>2024-06-24T13:50:35.993Z</time>
      </trkpt>
      <trkpt lat="43.03409" lon="1.04321">
        <ele>345.6</ele>
        <time>2024-06-24T13:50:36.993Z</time>
      </trkpt>
      <trkpt lat="43.03408" lon="1.04314">
        <ele>345.4</ele>
        <time>2024-06-24T13:50:37.993Z</time>
      </trkpt>
      <trkpt lat="43.03407" lon="1.04306">
        <ele>345.4</ele>
        <time>2024-06-24T13:50:38.993Z</time>
      </trkpt>
      <trkpt lat="43.03406" lon="1.04299">
        <ele>345.4</ele>
        <time>2024-06-24T13:50:39.993Z</time>
      </trkpt>
      <trkpt lat="43.03406" lon="1.04291">
        <ele>345.4</ele>
        <time>2024-06-24T13:50:40.993Z</time>
      </trkpt>
      <trkpt lat="43.03405" lon="1.04283">
        <ele>345.4</ele>
        <time>2024-06-24T13:50:41.993Z</time>
      </trkpt>
      <trkpt lat="43.03404" lon="1.04276">
        <ele>345.4</ele>
        <time>2024-06-24T13:50:42.993Z</time>
      </trkpt>
      <trkpt lat="43.03403" lon="1.04268">
        <ele>345.4</ele>
        <time>2024-06-24T13:50:43.993Z</time>
      </trkpt>
      <trkpt lat="43.03402" lon="1.0426">
        <ele>345.4</ele>
        <time>2024-06-24T13:50:44.993Z</time>
      </trkpt>
      <trkpt lat="43.03402" lon="1.04253">
        <ele>345.4</ele>
        <time>2024-06-24T13:50:45.993Z</time>
      </trkpt>
      <trkpt lat="43.034" lon="1.04246">
        <ele>345.2</ele>
        <time>2024-06-24T13:50:46.993Z</time>
      </trkpt>
      <trkpt lat="43.034" lon="1.04238">
        <ele>345.2</ele>
        <time>2024-06-24T13:50:47.993Z</time>
      </trkpt>
      <trkpt lat="43.03398" lon="1.0423">
        <ele>345.2</ele>
        <time>2024-06-24T13:50:48.993Z</time>
      </trkpt>
      <trkpt lat="43.03397" lon="1.04222">
        <ele>345.2</ele>
        <time>2024-06-24T13:50:49.993Z</time>
      </trkpt>
      <trkpt lat="43.03396" lon="1.04215">
        <ele>345.2</ele>
        <time>2024-06-24T13:50:50.993Z</time>
      </trkpt>
      <trkpt lat="43.03395" lon="1.04208">
        <ele>345.2</ele>
        <time>2024-06-24T13:50:51.993Z</time>
      </trkpt>
      <trkpt lat="43.03393" lon="1.04201">
        <ele>345.2</ele>
        <time>2024-06-24T13:50:52.993Z</time>
      </trkpt>
      <trkpt lat="43.03393" lon="1.04193">
        <ele>345.2</ele>
        <time>2024-06-24T13:50:53.993Z</time>
      </trkpt>
      <trkpt lat="43.03392" lon="1.04185">
        <ele>345.2</ele>
        <time>2024-06-24T13:50:54.993Z</time>
      </trkpt>
      <trkpt lat="43.03391" lon="1.04178">
        <ele>345.2</ele>
        <time>2024-06-24T13:50:55.993Z</time>
      </trkpt>
      <trkpt lat="43.0339" lon="1.0417">
        <ele>345.2</ele>
        <time>2024-06-24T13:50:56.993Z</time>
      </trkpt>
      <trkpt lat="43.03389" lon="1.04162">
        <ele>345</ele>
        <time>2024-06-24T13:50:57.993Z</time>
      </trkpt>
      <trkpt lat="43.03388" lon="1.04155">
        <ele>345</ele>
        <time>2024-06-24T13:50:58.993Z</time>
      </trkpt>
      <trkpt lat="43.03388" lon="1.04147">
        <ele>345</ele>
        <time>2024-06-24T13:50:59.993Z</time>
      </trkpt>
      <trkpt lat="43.03387" lon="1.04139">
        <ele>345</ele>
        <time>2024-06-24T13:51:00.993Z</time>
      </trkpt>
      <trkpt lat="43.03386" lon="1.04131">
        <ele>345</ele>
        <time>2024-06-24T13:51:01.993Z</time>
      </trkpt>
      <trkpt lat="43.03385" lon="1.04122">
        <ele>345</ele>
        <time>2024-06-24T13:51:02.993Z</time>
      </trkpt>
      <trkpt lat="43.03383" lon="1.04115">
        <ele>345</ele>
        <time>2024-06-24T13:51:03.993Z</time>
      </trkpt>
      <trkpt lat="43.03382" lon="1.04107">
        <ele>345</ele>
        <time>2024-06-24T13:51:04.993Z</time>
      </trkpt>
      <trkpt lat="43.03381" lon="1.04099">
        <ele>344.8</ele>
        <time>2024-06-24T13:51:05.993Z</time>
      </trkpt>
      <trkpt lat="43.0338" lon="1.04092">
        <ele>344.8</ele>
        <time>2024-06-24T13:51:06.993Z</time>
      </trkpt>
      <trkpt lat="43.03379" lon="1.04084">
        <ele>344.8</ele>
        <time>2024-06-24T13:51:07.993Z</time>
      </trkpt>
      <trkpt lat="43.03378" lon="1.04077">
        <ele>344.8</ele>
        <time>2024-06-24T13:51:08.993Z</time>
      </trkpt>
      <trkpt lat="43.03377" lon="1.04069">
        <ele>344.8</ele>
        <time>2024-06-24T13:51:09.993Z</time>
      </trkpt>
      <trkpt lat="43.03376" lon="1.04061">
        <ele>344.8</ele>
        <time>2024-06-24T13:51:10.993Z</time>
      </trkpt>
      <trkpt lat="43.03375" lon="1.04053">
        <ele>344.8</ele>
        <time>2024-06-24T13:51:11.993Z</time>
      </trkpt>
      <trkpt lat="43.03374" lon="1.04046">
        <ele>344.8</ele>
        <time>2024-06-24T13:51:12.993Z</time>
      </trkpt>
      <trkpt lat="43.03373" lon="1.04038">
        <ele>345.2</ele>
        <time>2024-06-24T13:51:13.993Z</time>
      </trkpt>
      <trkpt lat="43.03372" lon="1.0403">
        <ele>345.2</ele>
        <time>2024-06-24T13:51:14.993Z</time>
      </trkpt>
      <trkpt lat="43.03371" lon="1.04022">
        <ele>345.2</ele>
        <time>2024-06-24T13:51:15.993Z</time>
      </trkpt>
      <trkpt lat="43.0337" lon="1.04014">
        <ele>345.2</ele>
        <time>2024-06-24T13:51:16.993Z</time>
      </trkpt>
      <trkpt lat="43.03369" lon="1.04007">
        <ele>345.2</ele>
        <time>2024-06-24T13:51:17.993Z</time>
      </trkpt>
      <trkpt lat="43.03368" lon="1.03999">
        <ele>345</ele>
        <time>2024-06-24T13:51:18.993Z</time>
      </trkpt>
      <trkpt lat="43.03367" lon="1.03992">
        <ele>345</ele>
        <time>2024-06-24T13:51:19.993Z</time>
      </trkpt>
      <trkpt lat="43.03366" lon="1.03983">
        <ele>345</ele>
        <time>2024-06-24T13:51:20.993Z</time>
      </trkpt>
      <trkpt lat="43.03365" lon="1.03975">
        <ele>345</ele>
        <time>2024-06-24T13:51:21.993Z</time>
      </trkpt>
      <trkpt lat="43.03364" lon="1.03967">
        <ele>344.8</ele>
        <time>2024-06-24T13:51:22.993Z</time>
      </trkpt>
      <trkpt lat="43.03363" lon="1.03959">
        <ele>344.8</ele>
        <time>2024-06-24T13:51:23.993Z</time>
      </trkpt>
      <trkpt lat="43.03362" lon="1.03952">
        <ele>344.8</ele>
        <time>2024-06-24T13:51:24.993Z</time>
      </trkpt>
      <trkpt lat="43.03361" lon="1.03944">
        <ele>344.8</ele>
        <time>2024-06-24T13:51:25.993Z</time>
      </trkpt>
      <trkpt lat="43.03361" lon="1.03936">
        <ele>344.6</ele>
        <time>2024-06-24T13:51:26.993Z</time>
      </trkpt>
      <trkpt lat="43.0336" lon="1.03928">
        <ele>344.6</ele>
        <time>2024-06-24T13:51:27.993Z</time>
      </trkpt>
      <trkpt lat="43.03359" lon="1.0392">
        <ele>344.6</ele>
        <time>2024-06-24T13:51:28.993Z</time>
      </trkpt>
      <trkpt lat="43.03358" lon="1.03912">
        <ele>344.6</ele>
        <time>2024-06-24T13:51:29.993Z</time>
      </trkpt>
      <trkpt lat="43.03357" lon="1.03905">
        <ele>344.6</ele>
        <time>2024-06-24T13:51:30.993Z</time>
      </trkpt>
      <trkpt lat="43.03356" lon="1.03897">
        <ele>344.2</ele>
        <time>2024-06-24T13:51:31.993Z</time>
      </trkpt>
      <trkpt lat="43.03355" lon="1.03889">
        <ele>344.2</ele>
        <time>2024-06-24T13:51:32.993Z</time>
      </trkpt>
      <trkpt lat="43.03354" lon="1.03881">
        <ele>344.2</ele>
        <time>2024-06-24T13:51:33.993Z</time>
      </trkpt>
      <trkpt lat="43.03354" lon="1.03874">
        <ele>344.2</ele>
        <time>2024-06-24T13:51:34.993Z</time>
      </trkpt>
      <trkpt lat="43.03353" lon="1.03866">
        <ele>344</ele>
        <time>2024-06-24T13:51:35.993Z</time>
      </trkpt>
      <trkpt lat="43.03352" lon="1.03858">
        <ele>344</ele>
        <time>2024-06-24T13:51:36.993Z</time>
      </trkpt>
      <trkpt lat="43.03351" lon="1.0385">
        <ele>343.8</ele>
        <time>2024-06-24T13:51:37.993Z</time>
      </trkpt>
      <trkpt lat="43.0335" lon="1.03842">
        <ele>343.8</ele>
        <time>2024-06-24T13:51:38.993Z</time>
      </trkpt>
      <trkpt lat="43.03349" lon="1.03834">
        <ele>343.8</ele>
        <time>2024-06-24T13:51:39.993Z</time>
      </trkpt>
      <trkpt lat="43.03349" lon="1.03827">
        <ele>343.8</ele>
        <time>2024-06-24T13:51:40.993Z</time>
      </trkpt>
      <trkpt lat="43.03348" lon="1.03819">
        <ele>343.8</ele>
        <time>2024-06-24T13:51:41.993Z</time>
      </trkpt>
      <trkpt lat="43.03347" lon="1.03811">
        <ele>343.6</ele>
        <time>2024-06-24T13:51:42.993Z</time>
      </trkpt>
      <trkpt lat="43.03346" lon="1.03804">
        <ele>343.6</ele>
        <time>2024-06-24T13:51:43.993Z</time>
      </trkpt>
      <trkpt lat="43.03345" lon="1.03796">
        <ele>343.6</ele>
        <time>2024-06-24T13:51:44.993Z</time>
      </trkpt>
      <trkpt lat="43.03344" lon="1.03789">
        <ele>343.6</ele>
        <time>2024-06-24T13:51:45.993Z</time>
      </trkpt>
      <trkpt lat="43.03343" lon="1.03781">
        <ele>343.4</ele>
        <time>2024-06-24T13:51:46.993Z</time>
      </trkpt>
      <trkpt lat="43.03342" lon="1.03774">
        <ele>343.4</ele>
        <time>2024-06-24T13:51:47.993Z</time>
      </trkpt>
      <trkpt lat="43.03341" lon="1.03766">
        <ele>343.4</ele>
        <time>2024-06-24T13:51:48.993Z</time>
      </trkpt>
      <trkpt lat="43.0334" lon="1.03758">
        <ele>343.4</ele>
        <time>2024-06-24T13:51:49.993Z</time>
      </trkpt>
      <trkpt lat="43.0334" lon="1.0375">
        <ele>343.4</ele>
        <time>2024-06-24T13:51:50.993Z</time>
      </trkpt>
      <trkpt lat="43.03339" lon="1.03743">
        <ele>343.4</ele>
        <time>2024-06-24T13:51:51.993Z</time>
      </trkpt>
      <trkpt lat="43.03337" lon="1.03735">
        <ele>343.4</ele>
        <time>2024-06-24T13:51:52.993Z</time>
      </trkpt>
      <trkpt lat="43.03336" lon="1.03727">
        <ele>343.4</ele>
        <time>2024-06-24T13:51:53.993Z</time>
      </trkpt>
      <trkpt lat="43.03335" lon="1.0372">
        <ele>343.4</ele>
        <time>2024-06-24T13:51:54.993Z</time>
      </trkpt>
      <trkpt lat="43.03334" lon="1.03712">
        <ele>343.4</ele>
        <time>2024-06-24T13:51:55.993Z</time>
      </trkpt>
      <trkpt lat="43.03334" lon="1.03705">
        <ele>343.4</ele>
        <time>2024-06-24T13:51:56.993Z</time>
      </trkpt>
      <trkpt lat="43.03333" lon="1.03698">
        <ele>343.4</ele>
        <time>2024-06-24T13:51:57.993Z</time>
      </trkpt>
      <trkpt lat="43.03332" lon="1.03691">
        <ele>343.2</ele>
        <time>2024-06-24T13:51:58.993Z</time>
      </trkpt>
      <trkpt lat="43.03329" lon="1.03685">
        <ele>343.2</ele>
        <time>2024-06-24T13:51:59.993Z</time>
      </trkpt>
      <trkpt lat="43.03326" lon="1.03679">
        <ele>343.2</ele>
        <time>2024-06-24T13:52:00.993Z</time>
      </trkpt>
      <trkpt lat="43.03322" lon="1.03676">
        <ele>342.8</ele>
        <time>2024-06-24T13:52:01.993Z</time>
      </trkpt>
      <trkpt lat="43.03318" lon="1.03673">
        <ele>342.8</ele>
        <time>2024-06-24T13:52:02.993Z</time>
      </trkpt>
      <trkpt lat="43.03313" lon="1.03671">
        <ele>342.8</ele>
        <time>2024-06-24T13:52:03.993Z</time>
      </trkpt>
      <trkpt lat="43.03309" lon="1.03669">
        <ele>342.8</ele>
        <time>2024-06-24T13:52:04.993Z</time>
      </trkpt>
      <trkpt lat="43.03304" lon="1.0367">
        <ele>342.8</ele>
        <time>2024-06-24T13:52:05.993Z</time>
      </trkpt>
      <trkpt lat="43.03299" lon="1.0367">
        <ele>342.8</ele>
        <time>2024-06-24T13:52:06.993Z</time>
      </trkpt>
      <trkpt lat="43.03294" lon="1.0367">
        <ele>342.8</ele>
        <time>2024-06-24T13:52:07.993Z</time>
      </trkpt>
      <trkpt lat="43.03288" lon="1.03671">
        <ele>342.8</ele>
        <time>2024-06-24T13:52:08.993Z</time>
      </trkpt>
      <trkpt lat="43.03283" lon="1.03671">
        <ele>342.8</ele>
        <time>2024-06-24T13:52:09.993Z</time>
      </trkpt>
      <trkpt lat="43.03278" lon="1.03673">
        <ele>342.8</ele>
        <time>2024-06-24T13:52:10.993Z</time>
      </trkpt>
      <trkpt lat="43.03273" lon="1.03674">
        <ele>342.8</ele>
        <time>2024-06-24T13:52:11.993Z</time>
      </trkpt>
      <trkpt lat="43.03268" lon="1.03674">
        <ele>342.8</ele>
        <time>2024-06-24T13:52:12.993Z</time>
      </trkpt>
      <trkpt lat="43.03262" lon="1.03674">
        <ele>342.8</ele>
        <time>2024-06-24T13:52:13.993Z</time>
      </trkpt>
      <trkpt lat="43.03257" lon="1.03675">
        <ele>342.6</ele>
        <time>2024-06-24T13:52:14.993Z</time>
      </trkpt>
      <trkpt lat="43.03252" lon="1.03676">
        <ele>342.6</ele>
        <time>2024-06-24T13:52:15.993Z</time>
      </trkpt>
      <trkpt lat="43.03246" lon="1.03676">
        <ele>342.6</ele>
        <time>2024-06-24T13:52:16.993Z</time>
      </trkpt>
      <trkpt lat="43.03241" lon="1.03677">
        <ele>343</ele>
        <time>2024-06-24T13:52:17.993Z</time>
      </trkpt>
      <trkpt lat="43.03236" lon="1.03677">
        <ele>343</ele>
        <time>2024-06-24T13:52:18.993Z</time>
      </trkpt>
      <trkpt lat="43.03231" lon="1.03677">
        <ele>343</ele>
        <time>2024-06-24T13:52:19.993Z</time>
      </trkpt>
      <trkpt lat="43.03225" lon="1.03677">
        <ele>343</ele>
        <time>2024-06-24T13:52:20.993Z</time>
      </trkpt>
      <trkpt lat="43.0322" lon="1.03677">
        <ele>343</ele>
        <time>2024-06-24T13:52:21.993Z</time>
      </trkpt>
      <trkpt lat="43.03215" lon="1.03678">
        <ele>343</ele>
        <time>2024-06-24T13:52:22.993Z</time>
      </trkpt>
      <trkpt lat="43.0321" lon="1.03678">
        <ele>343</ele>
        <time>2024-06-24T13:52:23.993Z</time>
      </trkpt>
      <trkpt lat="43.03205" lon="1.03679">
        <ele>343.4</ele>
        <time>2024-06-24T13:52:24.993Z</time>
      </trkpt>
      <trkpt lat="43.032" lon="1.03679">
        <ele>343.4</ele>
        <time>2024-06-24T13:52:25.993Z</time>
      </trkpt>
      <trkpt lat="43.03196" lon="1.03679">
        <ele>343.6</ele>
        <time>2024-06-24T13:52:26.993Z</time>
      </trkpt>
      <trkpt lat="43.03191" lon="1.03679">
        <ele>343.6</ele>
        <time>2024-06-24T13:52:27.993Z</time>
      </trkpt>
      <trkpt lat="43.03186" lon="1.0368">
        <ele>343.6</ele>
        <time>2024-06-24T13:52:28.993Z</time>
      </trkpt>
      <trkpt lat="43.03181" lon="1.0368">
        <ele>343.8</ele>
        <time>2024-06-24T13:52:29.993Z</time>
      </trkpt>
      <trkpt lat="43.03176" lon="1.03681">
        <ele>343.8</ele>
        <time>2024-06-24T13:52:30.993Z</time>
      </trkpt>
      <trkpt lat="43.03171" lon="1.0368">
        <ele>343.8</ele>
        <time>2024-06-24T13:52:31.993Z</time>
      </trkpt>
      <trkpt lat="43.03167" lon="1.03681">
        <ele>343.8</ele>
        <time>2024-06-24T13:52:32.993Z</time>
      </trkpt>
      <trkpt lat="43.03162" lon="1.0368">
        <ele>343.8</ele>
        <time>2024-06-24T13:52:33.993Z</time>
      </trkpt>
      <trkpt lat="43.03157" lon="1.03681">
        <ele>344.2</ele>
        <time>2024-06-24T13:52:34.993Z</time>
      </trkpt>
      <trkpt lat="43.03153" lon="1.0368">
        <ele>344.2</ele>
        <time>2024-06-24T13:52:35.993Z</time>
      </trkpt>
      <trkpt lat="43.03149" lon="1.03679">
        <ele>344.4</ele>
        <time>2024-06-24T13:52:36.993Z</time>
      </trkpt>
      <trkpt lat="43.03144" lon="1.0368">
        <ele>344.4</ele>
        <time>2024-06-24T13:52:37.993Z</time>
      </trkpt>
      <trkpt lat="43.0314" lon="1.0368">
        <ele>344.6</ele>
        <time>2024-06-24T13:52:38.993Z</time>
      </trkpt>
      <trkpt lat="43.03135" lon="1.03681">
        <ele>345</ele>
        <time>2024-06-24T13:52:39.993Z</time>
      </trkpt>
      <trkpt lat="43.03131" lon="1.0368">
        <ele>345.2</ele>
        <time>2024-06-24T13:52:40.993Z</time>
      </trkpt>
      <trkpt lat="43.03127" lon="1.03681">
        <ele>345.2</ele>
        <time>2024-06-24T13:52:41.993Z</time>
      </trkpt>
      <trkpt lat="43.03122" lon="1.0368">
        <ele>345</ele>
        <time>2024-06-24T13:52:42.993Z</time>
      </trkpt>
      <trkpt lat="43.03117" lon="1.03681">
        <ele>345</ele>
        <time>2024-06-24T13:52:43.993Z</time>
      </trkpt>
      <trkpt lat="43.03112" lon="1.03681">
        <ele>345</ele>
        <time>2024-06-24T13:52:44.993Z</time>
      </trkpt>
      <trkpt lat="43.03108" lon="1.0368">
        <ele>345.2</ele>
        <time>2024-06-24T13:52:45.993Z</time>
      </trkpt>
      <trkpt lat="43.03103" lon="1.03679">
        <ele>345.2</ele>
        <time>2024-06-24T13:52:46.993Z</time>
      </trkpt>
      <trkpt lat="43.03098" lon="1.03678">
        <ele>345.2</ele>
        <time>2024-06-24T13:52:47.993Z</time>
      </trkpt>
      <trkpt lat="43.03093" lon="1.03677">
        <ele>345.2</ele>
        <time>2024-06-24T13:52:48.993Z</time>
      </trkpt>
      <trkpt lat="43.03089" lon="1.03676">
        <ele>345.2</ele>
        <time>2024-06-24T13:52:49.993Z</time>
      </trkpt>
      <trkpt lat="43.03084" lon="1.03675">
        <ele>345.2</ele>
        <time>2024-06-24T13:52:50.993Z</time>
      </trkpt>
      <trkpt lat="43.0308" lon="1.03671">
        <ele>345.6</ele>
        <time>2024-06-24T13:52:51.993Z</time>
      </trkpt>
      <trkpt lat="43.03076" lon="1.03668">
        <ele>345.6</ele>
        <time>2024-06-24T13:52:52.993Z</time>
      </trkpt>
      <trkpt lat="43.03072" lon="1.03664">
        <ele>345.6</ele>
        <time>2024-06-24T13:52:53.993Z</time>
      </trkpt>
      <trkpt lat="43.03068" lon="1.03659">
        <ele>345.6</ele>
        <time>2024-06-24T13:52:54.993Z</time>
      </trkpt>
      <trkpt lat="43.03064" lon="1.03654">
        <ele>345.6</ele>
        <time>2024-06-24T13:52:55.993Z</time>
      </trkpt>
      <trkpt lat="43.0306" lon="1.03649">
        <ele>345.6</ele>
        <time>2024-06-24T13:52:56.993Z</time>
      </trkpt>
      <trkpt lat="43.03058" lon="1.03643">
        <ele>345.2</ele>
        <time>2024-06-24T13:52:57.993Z</time>
      </trkpt>
      <trkpt lat="43.03056" lon="1.03637">
        <ele>345.2</ele>
        <time>2024-06-24T13:52:58.993Z</time>
      </trkpt>
      <trkpt lat="43.03054" lon="1.03631">
        <ele>345.2</ele>
        <time>2024-06-24T13:52:59.993Z</time>
      </trkpt>
      <trkpt lat="43.03053" lon="1.03624">
        <ele>345.2</ele>
        <time>2024-06-24T13:53:00.993Z</time>
      </trkpt>
      <trkpt lat="43.03052" lon="1.03617">
        <ele>345.2</ele>
        <time>2024-06-24T13:53:01.993Z</time>
      </trkpt>
      <trkpt lat="43.03051" lon="1.0361">
        <ele>345.2</ele>
        <time>2024-06-24T13:53:02.993Z</time>
      </trkpt>
      <trkpt lat="43.0305" lon="1.03603">
        <ele>345.2</ele>
        <time>2024-06-24T13:53:03.993Z</time>
      </trkpt>
      <trkpt lat="43.03048" lon="1.03596">
        <ele>345.2</ele>
        <time>2024-06-24T13:53:04.993Z</time>
      </trkpt>
      <trkpt lat="43.03046" lon="1.03589">
        <ele>345.2</ele>
        <time>2024-06-24T13:53:05.993Z</time>
      </trkpt>
      <trkpt lat="43.03045" lon="1.03582">
        <ele>345</ele>
        <time>2024-06-24T13:53:06.993Z</time>
      </trkpt>
      <trkpt lat="43.03043" lon="1.03576">
        <ele>345</ele>
        <time>2024-06-24T13:53:07.993Z</time>
      </trkpt>
      <trkpt lat="43.03042" lon="1.03569">
        <ele>345</ele>
        <time>2024-06-24T13:53:08.993Z</time>
      </trkpt>
      <trkpt lat="43.03041" lon="1.03562">
        <ele>345</ele>
        <time>2024-06-24T13:53:09.993Z</time>
      </trkpt>
      <trkpt lat="43.0304" lon="1.03555">
        <ele>345</ele>
        <time>2024-06-24T13:53:10.993Z</time>
      </trkpt>
      <trkpt lat="43.03039" lon="1.03549">
        <ele>345</ele>
        <time>2024-06-24T13:53:11.993Z</time>
      </trkpt>
      <trkpt lat="43.03038" lon="1.03542">
        <ele>344.6</ele>
        <time>2024-06-24T13:53:12.993Z</time>
      </trkpt>
      <trkpt lat="43.03036" lon="1.03536">
        <ele>344.6</ele>
        <time>2024-06-24T13:53:13.993Z</time>
      </trkpt>
      <trkpt lat="43.03035" lon="1.03529">
        <ele>344.6</ele>
        <time>2024-06-24T13:53:14.993Z</time>
      </trkpt>
      <trkpt lat="43.03033" lon="1.03523">
        <ele>344.6</ele>
        <time>2024-06-24T13:53:15.993Z</time>
      </trkpt>
      <trkpt lat="43.03031" lon="1.03518">
        <ele>344.6</ele>
        <time>2024-06-24T13:53:16.993Z</time>
      </trkpt>
      <trkpt lat="43.03027" lon="1.03515">
        <ele>344.6</ele>
        <time>2024-06-24T13:53:17.993Z</time>
      </trkpt>
      <trkpt lat="43.03023" lon="1.03514">
        <ele>344.8</ele>
        <time>2024-06-24T13:53:18.993Z</time>
      </trkpt>
      <trkpt lat="43.03019" lon="1.03514">
        <ele>344.8</ele>
        <time>2024-06-24T13:53:19.993Z</time>
      </trkpt>
      <trkpt lat="43.03015" lon="1.03514">
        <ele>344.8</ele>
        <time>2024-06-24T13:53:20.993Z</time>
      </trkpt>
      <trkpt lat="43.03011" lon="1.03513">
        <ele>344.8</ele>
        <time>2024-06-24T13:53:21.993Z</time>
      </trkpt>
      <trkpt lat="43.03007" lon="1.03514">
        <ele>344.8</ele>
        <time>2024-06-24T13:53:22.993Z</time>
      </trkpt>
      <trkpt lat="43.03003" lon="1.03514">
        <ele>344.8</ele>
        <time>2024-06-24T13:53:23.993Z</time>
      </trkpt>
      <trkpt lat="43.02999" lon="1.03512">
        <ele>344.8</ele>
        <time>2024-06-24T13:53:24.993Z</time>
      </trkpt>
      <trkpt lat="43.02996" lon="1.03511">
        <ele>344.8</ele>
        <time>2024-06-24T13:53:25.993Z</time>
      </trkpt>
      <trkpt lat="43.02993" lon="1.03509">
        <ele>345.2</ele>
        <time>2024-06-24T13:53:26.993Z</time>
      </trkpt>
      <trkpt lat="43.02988" lon="1.03508">
        <ele>345.4</ele>
        <time>2024-06-24T13:53:27.993Z</time>
      </trkpt>
      <trkpt lat="43.02984" lon="1.03507">
        <ele>345.4</ele>
        <time>2024-06-24T13:53:28.993Z</time>
      </trkpt>
      <trkpt lat="43.0298" lon="1.03504">
        <ele>345.2</ele>
        <time>2024-06-24T13:53:29.993Z</time>
      </trkpt>
      <trkpt lat="43.02976" lon="1.03503">
        <ele>345.2</ele>
        <time>2024-06-24T13:53:30.993Z</time>
      </trkpt>
      <trkpt lat="43.02972" lon="1.03501">
        <ele>345.2</ele>
        <time>2024-06-24T13:53:31.993Z</time>
      </trkpt>
      <trkpt lat="43.02968" lon="1.03499">
        <ele>345.6</ele>
        <time>2024-06-24T13:53:32.993Z</time>
      </trkpt>
      <trkpt lat="43.02963" lon="1.03498">
        <ele>345.6</ele>
        <time>2024-06-24T13:53:33.993Z</time>
      </trkpt>
      <trkpt lat="43.02959" lon="1.03496">
        <ele>345.6</ele>
        <time>2024-06-24T13:53:34.993Z</time>
      </trkpt>
      <trkpt lat="43.02954" lon="1.03495">
        <ele>345.4</ele>
        <time>2024-06-24T13:53:35.993Z</time>
      </trkpt>
      <trkpt lat="43.02949" lon="1.03494">
        <ele>345.4</ele>
        <time>2024-06-24T13:53:36.993Z</time>
      </trkpt>
      <trkpt lat="43.02945" lon="1.03492">
        <ele>345.6</ele>
        <time>2024-06-24T13:53:37.993Z</time>
      </trkpt>
      <trkpt lat="43.0294" lon="1.0349">
        <ele>345.6</ele>
        <time>2024-06-24T13:53:38.993Z</time>
      </trkpt>
      <trkpt lat="43.02935" lon="1.03488">
        <ele>345.6</ele>
        <time>2024-06-24T13:53:39.993Z</time>
      </trkpt>
      <trkpt lat="43.02931" lon="1.03487">
        <ele>345.6</ele>
        <time>2024-06-24T13:53:40.993Z</time>
      </trkpt>
      <trkpt lat="43.02926" lon="1.03486">
        <ele>346</ele>
        <time>2024-06-24T13:53:41.993Z</time>
      </trkpt>
      <trkpt lat="43.02922" lon="1.03485">
        <ele>346</ele>
        <time>2024-06-24T13:53:42.993Z</time>
      </trkpt>
      <trkpt lat="43.02917" lon="1.03483">
        <ele>345.8</ele>
        <time>2024-06-24T13:53:43.993Z</time>
      </trkpt>
      <trkpt lat="43.02913" lon="1.03483">
        <ele>346</ele>
        <time>2024-06-24T13:53:44.993Z</time>
      </trkpt>
      <trkpt lat="43.02909" lon="1.03481">
        <ele>346</ele>
        <time>2024-06-24T13:53:45.993Z</time>
      </trkpt>
      <trkpt lat="43.02905" lon="1.03479">
        <ele>346.4</ele>
        <time>2024-06-24T13:53:46.993Z</time>
      </trkpt>
      <trkpt lat="43.029" lon="1.03479">
        <ele>346.8</ele>
        <time>2024-06-24T13:53:47.993Z</time>
      </trkpt>
      <trkpt lat="43.02896" lon="1.03477">
        <ele>347</ele>
        <time>2024-06-24T13:53:48.993Z</time>
      </trkpt>
      <trkpt lat="43.02892" lon="1.03476">
        <ele>347.2</ele>
        <time>2024-06-24T13:53:49.993Z</time>
      </trkpt>
      <trkpt lat="43.02889" lon="1.03475">
        <ele>347.2</ele>
        <time>2024-06-24T13:53:50.993Z</time>
      </trkpt>
      <trkpt lat="43.02884" lon="1.03473">
        <ele>347.6</ele>
        <time>2024-06-24T13:53:51.993Z</time>
      </trkpt>
      <trkpt lat="43.02881" lon="1.03472">
        <ele>347.6</ele>
        <time>2024-06-24T13:53:52.993Z</time>
      </trkpt>
      <trkpt lat="43.02877" lon="1.03471">
        <ele>348</ele>
        <time>2024-06-24T13:53:53.993Z</time>
      </trkpt>
      <trkpt lat="43.02873" lon="1.0347">
        <ele>348.4</ele>
        <time>2024-06-24T13:53:54.993Z</time>
      </trkpt>
      <trkpt lat="43.02869" lon="1.03469">
        <ele>348.6</ele>
        <time>2024-06-24T13:53:55.993Z</time>
      </trkpt>
      <trkpt lat="43.02865" lon="1.03467">
        <ele>348.6</ele>
        <time>2024-06-24T13:53:56.993Z</time>
      </trkpt>
      <trkpt lat="43.02862" lon="1.03465">
        <ele>349</ele>
        <time>2024-06-24T13:53:57.993Z</time>
      </trkpt>
      <trkpt lat="43.02859" lon="1.03462">
        <ele>349.2</ele>
        <time>2024-06-24T13:53:58.993Z</time>
      </trkpt>
      <trkpt lat="43.02856" lon="1.03458">
        <ele>349.2</ele>
        <time>2024-06-24T13:53:59.993Z</time>
      </trkpt>
      <trkpt lat="43.02854" lon="1.03454">
        <ele>349.6</ele>
        <time>2024-06-24T13:54:00.993Z</time>
      </trkpt>
      <trkpt lat="43.02853" lon="1.03449">
        <ele>350</ele>
        <time>2024-06-24T13:54:01.993Z</time>
      </trkpt>
      <trkpt lat="43.02852" lon="1.03443">
        <ele>350</ele>
        <time>2024-06-24T13:54:02.993Z</time>
      </trkpt>
      <trkpt lat="43.02851" lon="1.03438">
        <ele>350</ele>
        <time>2024-06-24T13:54:03.993Z</time>
      </trkpt>
      <trkpt lat="43.0285" lon="1.03433">
        <ele>350.4</ele>
        <time>2024-06-24T13:54:04.993Z</time>
      </trkpt>
      <trkpt lat="43.02849" lon="1.03428">
        <ele>350.6</ele>
        <time>2024-06-24T13:54:05.993Z</time>
      </trkpt>
      <trkpt lat="43.02847" lon="1.03422">
        <ele>350.8</ele>
        <time>2024-06-24T13:54:06.993Z</time>
      </trkpt>
      <trkpt lat="43.02846" lon="1.03417">
        <ele>350.8</ele>
        <time>2024-06-24T13:54:07.993Z</time>
      </trkpt>
      <trkpt lat="43.02845" lon="1.03411">
        <ele>350.8</ele>
        <time>2024-06-24T13:54:08.993Z</time>
      </trkpt>
      <trkpt lat="43.02843" lon="1.03406">
        <ele>351</ele>
        <time>2024-06-24T13:54:09.993Z</time>
      </trkpt>
      <trkpt lat="43.02842" lon="1.034">
        <ele>351</ele>
        <time>2024-06-24T13:54:10.993Z</time>
      </trkpt>
      <trkpt lat="43.0284" lon="1.03395">
        <ele>351.2</ele>
        <time>2024-06-24T13:54:11.993Z</time>
      </trkpt>
      <trkpt lat="43.02838" lon="1.03389">
        <ele>351.2</ele>
        <time>2024-06-24T13:54:12.993Z</time>
      </trkpt>
      <trkpt lat="43.02837" lon="1.03384">
        <ele>351.2</ele>
        <time>2024-06-24T13:54:13.993Z</time>
      </trkpt>
      <trkpt lat="43.02836" lon="1.03379">
        <ele>351.2</ele>
        <time>2024-06-24T13:54:14.993Z</time>
      </trkpt>
      <trkpt lat="43.02835" lon="1.03373">
        <ele>351.4</ele>
        <time>2024-06-24T13:54:15.993Z</time>
      </trkpt>
      <trkpt lat="43.02833" lon="1.03368">
        <ele>351.4</ele>
        <time>2024-06-24T13:54:16.993Z</time>
      </trkpt>
      <trkpt lat="43.02832" lon="1.03363">
        <ele>351.4</ele>
        <time>2024-06-24T13:54:17.993Z</time>
      </trkpt>
      <trkpt lat="43.02831" lon="1.03358">
        <ele>351.4</ele>
        <time>2024-06-24T13:54:18.993Z</time>
      </trkpt>
      <trkpt lat="43.02829" lon="1.03353">
        <ele>351.8</ele>
        <time>2024-06-24T13:54:19.993Z</time>
      </trkpt>
      <trkpt lat="43.02828" lon="1.03348">
        <ele>351.8</ele>
        <time>2024-06-24T13:54:20.993Z</time>
      </trkpt>
      <trkpt lat="43.02827" lon="1.03342">
        <ele>351.8</ele>
        <time>2024-06-24T13:54:21.993Z</time>
      </trkpt>
      <trkpt lat="43.02824" lon="1.03338">
        <ele>351.6</ele>
        <time>2024-06-24T13:54:22.993Z</time>
      </trkpt>
      <trkpt lat="43.0282" lon="1.03336">
        <ele>351.6</ele>
        <time>2024-06-24T13:54:23.993Z</time>
      </trkpt>
      <trkpt lat="43.02816" lon="1.03335">
        <ele>351.6</ele>
        <time>2024-06-24T13:54:24.993Z</time>
      </trkpt>
      <trkpt lat="43.02812" lon="1.03337">
        <ele>351.6</ele>
        <time>2024-06-24T13:54:25.993Z</time>
      </trkpt>
      <trkpt lat="43.02808" lon="1.03339">
        <ele>351.6</ele>
        <time>2024-06-24T13:54:26.993Z</time>
      </trkpt>
      <trkpt lat="43.02804" lon="1.0334">
        <ele>351.6</ele>
        <time>2024-06-24T13:54:27.993Z</time>
      </trkpt>
      <trkpt lat="43.028" lon="1.03341">
        <ele>351.8</ele>
        <time>2024-06-24T13:54:28.993Z</time>
      </trkpt>
      <trkpt lat="43.02797" lon="1.03342">
        <ele>352</ele>
        <time>2024-06-24T13:54:29.993Z</time>
      </trkpt>
      <trkpt lat="43.02795" lon="1.03343">
        <ele>352</ele>
        <time>2024-06-24T13:54:30.993Z</time>
      </trkpt>
      <trkpt lat="43.02791" lon="1.03344">
        <ele>352</ele>
        <time>2024-06-24T13:54:31.993Z</time>
      </trkpt>
      <trkpt lat="43.02787" lon="1.03343">
        <ele>352.4</ele>
        <time>2024-06-24T13:54:32.993Z</time>
      </trkpt>
      <trkpt lat="43.02783" lon="1.03344">
        <ele>352.4</ele>
        <time>2024-06-24T13:54:33.993Z</time>
      </trkpt>
      <trkpt lat="43.0278" lon="1.03345">
        <ele>352.8</ele>
        <time>2024-06-24T13:54:34.993Z</time>
      </trkpt>
      <trkpt lat="43.02776" lon="1.03345">
        <ele>352.8</ele>
        <time>2024-06-24T13:54:35.993Z</time>
      </trkpt>
      <trkpt lat="43.02772" lon="1.03346">
        <ele>353</ele>
        <time>2024-06-24T13:54:36.993Z</time>
      </trkpt>
      <trkpt lat="43.02768" lon="1.03346">
        <ele>353</ele>
        <time>2024-06-24T13:54:37.993Z</time>
      </trkpt>
      <trkpt lat="43.02765" lon="1.03347">
        <ele>353.4</ele>
        <time>2024-06-24T13:54:38.993Z</time>
      </trkpt>
      <trkpt lat="43.02761" lon="1.03348">
        <ele>353.4</ele>
        <time>2024-06-24T13:54:39.993Z</time>
      </trkpt>
      <trkpt lat="43.02757" lon="1.03349">
        <ele>353.4</ele>
        <time>2024-06-24T13:54:40.993Z</time>
      </trkpt>
      <trkpt lat="43.02753" lon="1.0335">
        <ele>353.4</ele>
        <time>2024-06-24T13:54:41.993Z</time>
      </trkpt>
      <trkpt lat="43.0275" lon="1.03351">
        <ele>353.8</ele>
        <time>2024-06-24T13:54:42.993Z</time>
      </trkpt>
      <trkpt lat="43.02746" lon="1.03353">
        <ele>353.8</ele>
        <time>2024-06-24T13:54:43.993Z</time>
      </trkpt>
      <trkpt lat="43.02742" lon="1.03355">
        <ele>353.8</ele>
        <time>2024-06-24T13:54:44.993Z</time>
      </trkpt>
      <trkpt lat="43.02738" lon="1.03357">
        <ele>354</ele>
        <time>2024-06-24T13:54:45.993Z</time>
      </trkpt>
      <trkpt lat="43.02734" lon="1.03359">
        <ele>354.2</ele>
        <time>2024-06-24T13:54:46.993Z</time>
      </trkpt>
      <trkpt lat="43.0273" lon="1.03361">
        <ele>354.2</ele>
        <time>2024-06-24T13:54:47.993Z</time>
      </trkpt>
      <trkpt lat="43.02727" lon="1.03364">
        <ele>354.2</ele>
        <time>2024-06-24T13:54:48.993Z</time>
      </trkpt>
      <trkpt lat="43.02723" lon="1.03366">
        <ele>354.6</ele>
        <time>2024-06-24T13:54:49.993Z</time>
      </trkpt>
      <trkpt lat="43.0272" lon="1.03369">
        <ele>354.8</ele>
        <time>2024-06-24T13:54:50.993Z</time>
      </trkpt>
      <trkpt lat="43.02716" lon="1.03371">
        <ele>354.8</ele>
        <time>2024-06-24T13:54:51.993Z</time>
      </trkpt>
      <trkpt lat="43.02713" lon="1.03374">
        <ele>355.4</ele>
        <time>2024-06-24T13:54:52.993Z</time>
      </trkpt>
      <trkpt lat="43.02709" lon="1.03376">
        <ele>355.4</ele>
        <time>2024-06-24T13:54:53.993Z</time>
      </trkpt>
      <trkpt lat="43.02706" lon="1.03379">
        <ele>356</ele>
        <time>2024-06-24T13:54:54.993Z</time>
      </trkpt>
      <trkpt lat="43.02703" lon="1.03381">
        <ele>356</ele>
        <time>2024-06-24T13:54:55.993Z</time>
      </trkpt>
      <trkpt lat="43.02699" lon="1.03384">
        <ele>356.2</ele>
        <time>2024-06-24T13:54:56.993Z</time>
      </trkpt>
      <trkpt lat="43.02696" lon="1.03385">
        <ele>356.4</ele>
        <time>2024-06-24T13:54:57.993Z</time>
      </trkpt>
      <trkpt lat="43.02692" lon="1.03384">
        <ele>356.4</ele>
        <time>2024-06-24T13:54:58.993Z</time>
      </trkpt>
      <trkpt lat="43.02689" lon="1.03381">
        <ele>356.8</ele>
        <time>2024-06-24T13:54:59.993Z</time>
      </trkpt>
      <trkpt lat="43.02687" lon="1.03376">
        <ele>356.8</ele>
        <time>2024-06-24T13:55:00.993Z</time>
      </trkpt>
      <trkpt lat="43.02688" lon="1.0337">
        <ele>357.2</ele>
        <time>2024-06-24T13:55:01.993Z</time>
      </trkpt>
      <trkpt lat="43.0269" lon="1.03365">
        <ele>357.2</ele>
        <time>2024-06-24T13:55:02.993Z</time>
      </trkpt>
      <trkpt lat="43.02696" lon="1.03358">
        <ele>357.2</ele>
        <time>2024-06-24T13:55:03.993Z</time>
      </trkpt>
      <trkpt lat="43.02699" lon="1.03353">
        <ele>357.4</ele>
        <time>2024-06-24T13:55:04.993Z</time>
      </trkpt>
      <trkpt lat="43.02701" lon="1.03347">
        <ele>357.4</ele>
        <time>2024-06-24T13:55:05.993Z</time>
      </trkpt>
      <trkpt lat="43.02703" lon="1.03342">
        <ele>357.4</ele>
        <time>2024-06-24T13:55:06.993Z</time>
      </trkpt>
      <trkpt lat="43.02705" lon="1.03336">
        <ele>357</ele>
        <time>2024-06-24T13:55:07.993Z</time>
      </trkpt>
      <trkpt lat="43.02708" lon="1.0333">
        <ele>357</ele>
        <time>2024-06-24T13:55:08.993Z</time>
      </trkpt>
      <trkpt lat="43.0271" lon="1.03326">
        <ele>357.2</ele>
        <time>2024-06-24T13:55:09.993Z</time>
      </trkpt>
      <trkpt lat="43.02713" lon="1.0332">
        <ele>357.2</ele>
        <time>2024-06-24T13:55:10.993Z</time>
      </trkpt>
      <trkpt lat="43.02716" lon="1.03315">
        <ele>357.6</ele>
        <time>2024-06-24T13:55:11.993Z</time>
      </trkpt>
      <trkpt lat="43.02718" lon="1.03309">
        <ele>357.6</ele>
        <time>2024-06-24T13:55:12.993Z</time>
      </trkpt>
      <trkpt lat="43.02721" lon="1.03303">
        <ele>357.2</ele>
        <time>2024-06-24T13:55:13.993Z</time>
      </trkpt>
      <trkpt lat="43.02723" lon="1.03297">
        <ele>357.2</ele>
        <time>2024-06-24T13:55:14.993Z</time>
      </trkpt>
      <trkpt lat="43.02726" lon="1.03291">
        <ele>356.8</ele>
        <time>2024-06-24T13:55:15.993Z</time>
      </trkpt>
      <trkpt lat="43.02729" lon="1.03284">
        <ele>356.6</ele>
        <time>2024-06-24T13:55:16.993Z</time>
      </trkpt>
      <trkpt lat="43.02732" lon="1.03277">
        <ele>356.8</ele>
        <time>2024-06-24T13:55:17.993Z</time>
      </trkpt>
      <trkpt lat="43.02734" lon="1.03269">
        <ele>356.4</ele>
        <time>2024-06-24T13:55:18.993Z</time>
      </trkpt>
      <trkpt lat="43.02736" lon="1.03262">
        <ele>356</ele>
        <time>2024-06-24T13:55:19.993Z</time>
      </trkpt>
      <trkpt lat="43.02735" lon="1.03253">
        <ele>355.6</ele>
        <time>2024-06-24T13:55:20.993Z</time>
      </trkpt>
      <trkpt lat="43.02734" lon="1.03245">
        <ele>355.2</ele>
        <time>2024-06-24T13:55:21.993Z</time>
      </trkpt>
      <trkpt lat="43.02731" lon="1.03236">
        <ele>354.6</ele>
        <time>2024-06-24T13:55:22.993Z</time>
      </trkpt>
      <trkpt lat="43.02729" lon="1.03228">
        <ele>354.6</ele>
        <time>2024-06-24T13:55:23.993Z</time>
      </trkpt>
      <trkpt lat="43.02725" lon="1.0322">
        <ele>354.2</ele>
        <time>2024-06-24T13:55:24.993Z</time>
      </trkpt>
      <trkpt lat="43.02721" lon="1.03213">
        <ele>354.2</ele>
        <time>2024-06-24T13:55:25.993Z</time>
      </trkpt>
      <trkpt lat="43.02717" lon="1.03205">
        <ele>353.6</ele>
        <time>2024-06-24T13:55:26.993Z</time>
      </trkpt>
      <trkpt lat="43.02714" lon="1.03197">
        <ele>353.2</ele>
        <time>2024-06-24T13:55:27.993Z</time>
      </trkpt>
      <trkpt lat="43.02709" lon="1.0319">
        <ele>353.2</ele>
        <time>2024-06-24T13:55:28.993Z</time>
      </trkpt>
      <trkpt lat="43.02706" lon="1.03182">
        <ele>353</ele>
        <time>2024-06-24T13:55:29.993Z</time>
      </trkpt>
      <trkpt lat="43.02702" lon="1.03175">
        <ele>352.8</ele>
        <time>2024-06-24T13:55:30.993Z</time>
      </trkpt>
      <trkpt lat="43.02699" lon="1.03168">
        <ele>352.4</ele>
        <time>2024-06-24T13:55:31.993Z</time>
      </trkpt>
      <trkpt lat="43.02696" lon="1.03161">
        <ele>352</ele>
        <time>2024-06-24T13:55:32.993Z</time>
      </trkpt>
      <trkpt lat="43.02694" lon="1.03155">
        <ele>352</ele>
        <time>2024-06-24T13:55:33.993Z</time>
      </trkpt>
      <trkpt lat="43.02692" lon="1.0315">
        <ele>351.8</ele>
        <time>2024-06-24T13:55:34.993Z</time>
      </trkpt>
      <trkpt lat="43.02689" lon="1.03145">
        <ele>351.4</ele>
        <time>2024-06-24T13:55:35.993Z</time>
      </trkpt>
      <trkpt lat="43.02688" lon="1.0314">
        <ele>351.4</ele>
        <time>2024-06-24T13:55:36.993Z</time>
      </trkpt>
      <trkpt lat="43.02686" lon="1.03136">
        <ele>351.2</ele>
        <time>2024-06-24T13:55:37.993Z</time>
      </trkpt>
      <trkpt lat="43.02682" lon="1.03134">
        <ele>351.2</ele>
        <time>2024-06-24T13:55:38.993Z</time>
      </trkpt>
      <trkpt lat="43.0268" lon="1.03135">
        <ele>351.2</ele>
        <time>2024-06-24T13:55:39.993Z</time>
      </trkpt>
      <trkpt lat="43.02679" lon="1.03136">
        <ele>351.2</ele>
        <time>2024-06-24T13:55:40.993Z</time>
      </trkpt>
      <trkpt lat="43.02677" lon="1.03137">
        <ele>351.2</ele>
        <time>2024-06-24T13:55:41.993Z</time>
      </trkpt>
      <trkpt lat="43.02676" lon="1.0314">
        <ele>351.6</ele>
        <time>2024-06-24T13:55:42.993Z</time>
      </trkpt>
      <trkpt lat="43.02675" lon="1.03143">
        <ele>351.6</ele>
        <time>2024-06-24T13:55:43.993Z</time>
      </trkpt>
      <trkpt lat="43.02674" lon="1.03146">
        <ele>351.6</ele>
        <time>2024-06-24T13:55:44.993Z</time>
      </trkpt>
      <trkpt lat="43.02673" lon="1.03149">
        <ele>351.8</ele>
        <time>2024-06-24T13:55:45.993Z</time>
      </trkpt>
      <trkpt lat="43.02672" lon="1.03152">
        <ele>352</ele>
        <time>2024-06-24T13:55:46.993Z</time>
      </trkpt>
      <trkpt lat="43.0267" lon="1.03154">
        <ele>352.4</ele>
        <time>2024-06-24T13:55:47.993Z</time>
      </trkpt>
      <trkpt lat="43.02668" lon="1.03156">
        <ele>352.8</ele>
        <time>2024-06-24T13:55:48.993Z</time>
      </trkpt>
      <trkpt lat="43.02666" lon="1.03158">
        <ele>352.8</ele>
        <time>2024-06-24T13:55:49.993Z</time>
      </trkpt>
      <trkpt lat="43.02663" lon="1.03159">
        <ele>353.2</ele>
        <time>2024-06-24T13:55:50.993Z</time>
      </trkpt>
      <trkpt lat="43.02662" lon="1.0316">
        <ele>353.2</ele>
        <time>2024-06-24T13:55:51.993Z</time>
      </trkpt>
      <trkpt lat="43.0266" lon="1.0316">
        <ele>353.6</ele>
        <time>2024-06-24T13:55:52.993Z</time>
      </trkpt>
      <trkpt lat="43.02657" lon="1.0316">
        <ele>353.8</ele>
        <time>2024-06-24T13:55:53.993Z</time>
      </trkpt>
      <trkpt lat="43.02655" lon="1.03161">
        <ele>353.8</ele>
        <time>2024-06-24T13:55:54.993Z</time>
      </trkpt>
      <trkpt lat="43.02653" lon="1.03161">
        <ele>354.4</ele>
        <time>2024-06-24T13:55:55.993Z</time>
      </trkpt>
      <trkpt lat="43.02651" lon="1.03161">
        <ele>354.8</ele>
        <time>2024-06-24T13:55:56.993Z</time>
      </trkpt>
      <trkpt lat="43.02649" lon="1.03162">
        <ele>355</ele>
        <time>2024-06-24T13:55:57.993Z</time>
      </trkpt>
      <trkpt lat="43.02647" lon="1.03163">
        <ele>355.2</ele>
        <time>2024-06-24T13:55:58.993Z</time>
      </trkpt>
      <trkpt lat="43.02645" lon="1.03164">
        <ele>355.8</ele>
        <time>2024-06-24T13:55:59.993Z</time>
      </trkpt>
      <trkpt lat="43.02644" lon="1.03165">
        <ele>356.4</ele>
        <time>2024-06-24T13:56:00.993Z</time>
      </trkpt>
      <trkpt lat="43.02643" lon="1.03167">
        <ele>356.8</ele>
        <time>2024-06-24T13:56:01.993Z</time>
      </trkpt>
      <trkpt lat="43.02641" lon="1.03169">
        <ele>356.8</ele>
        <time>2024-06-24T13:56:02.993Z</time>
      </trkpt>
      <trkpt lat="43.0264" lon="1.03171">
        <ele>357.4</ele>
        <time>2024-06-24T13:56:03.993Z</time>
      </trkpt>
      <trkpt lat="43.02638" lon="1.03172">
        <ele>357.8</ele>
        <time>2024-06-24T13:56:04.993Z</time>
      </trkpt>
      <trkpt lat="43.02636" lon="1.03173">
        <ele>358</ele>
        <time>2024-06-24T13:56:05.993Z</time>
      </trkpt>
      <trkpt lat="43.02634" lon="1.03175">
        <ele>358.4</ele>
        <time>2024-06-24T13:56:06.993Z</time>
      </trkpt>
      <trkpt lat="43.02633" lon="1.03176">
        <ele>358.8</ele>
        <time>2024-06-24T13:56:07.993Z</time>
      </trkpt>
      <trkpt lat="43.02632" lon="1.03178">
        <ele>359</ele>
        <time>2024-06-24T13:56:08.993Z</time>
      </trkpt>
      <trkpt lat="43.02631" lon="1.03179">
        <ele>359.4</ele>
        <time>2024-06-24T13:56:09.993Z</time>
      </trkpt>
      <trkpt lat="43.0263" lon="1.03181">
        <ele>359.4</ele>
        <time>2024-06-24T13:56:10.993Z</time>
      </trkpt>
      <trkpt lat="43.02628" lon="1.03182">
        <ele>359.6</ele>
        <time>2024-06-24T13:56:11.993Z</time>
      </trkpt>
      <trkpt lat="43.02627" lon="1.03183">
        <ele>360</ele>
        <time>2024-06-24T13:56:12.993Z</time>
      </trkpt>
      <trkpt lat="43.02626" lon="1.03184">
        <ele>360</ele>
        <time>2024-06-24T13:56:13.993Z</time>
      </trkpt>
      <trkpt lat="43.02625" lon="1.03185">
        <ele>360.4</ele>
        <time>2024-06-24T13:56:14.993Z</time>
      </trkpt>
      <trkpt lat="43.02624" lon="1.03187">
        <ele>360.8</ele>
        <time>2024-06-24T13:56:15.993Z</time>
      </trkpt>
      <trkpt lat="43.02622" lon="1.03188">
        <ele>361.6</ele>
        <time>2024-06-24T13:56:16.993Z</time>
      </trkpt>
      <trkpt lat="43.0262" lon="1.03189">
        <ele>361.6</ele>
        <time>2024-06-24T13:56:17.993Z</time>
      </trkpt>
      <trkpt lat="43.02619" lon="1.03189">
        <ele>361.8</ele>
        <time>2024-06-24T13:56:18.993Z</time>
      </trkpt>
      <trkpt lat="43.02617" lon="1.03189">
        <ele>362.4</ele>
        <time>2024-06-24T13:56:19.993Z</time>
      </trkpt>
      <trkpt lat="43.02615" lon="1.03189">
        <ele>362.8</ele>
        <time>2024-06-24T13:56:20.993Z</time>
      </trkpt>
      <trkpt lat="43.02614" lon="1.03189">
        <ele>362.8</ele>
        <time>2024-06-24T13:56:21.993Z</time>
      </trkpt>
      <trkpt lat="43.02612" lon="1.03189">
        <ele>363</ele>
        <time>2024-06-24T13:56:22.993Z</time>
      </trkpt>
      <trkpt lat="43.0261" lon="1.03189">
        <ele>363.4</ele>
        <time>2024-06-24T13:56:23.993Z</time>
      </trkpt>
      <trkpt lat="43.02608" lon="1.03189">
        <ele>363.6</ele>
        <time>2024-06-24T13:56:24.993Z</time>
      </trkpt>
      <trkpt lat="43.02606" lon="1.03189">
        <ele>363.6</ele>
        <time>2024-06-24T13:56:25.993Z</time>
      </trkpt>
      <trkpt lat="43.02604" lon="1.03189">
        <ele>364</ele>
        <time>2024-06-24T13:56:26.993Z</time>
      </trkpt>
      <trkpt lat="43.02601" lon="1.03189">
        <ele>364</ele>
        <time>2024-06-24T13:56:27.993Z</time>
      </trkpt>
      <trkpt lat="43.026" lon="1.0319">
        <ele>364.4</ele>
        <time>2024-06-24T13:56:28.993Z</time>
      </trkpt>
      <trkpt lat="43.02597" lon="1.03191">
        <ele>364.4</ele>
        <time>2024-06-24T13:56:29.993Z</time>
      </trkpt>
      <trkpt lat="43.02596" lon="1.03192">
        <ele>365</ele>
        <time>2024-06-24T13:56:30.993Z</time>
      </trkpt>
      <trkpt lat="43.02594" lon="1.03193">
        <ele>365</ele>
        <time>2024-06-24T13:56:31.993Z</time>
      </trkpt>
      <trkpt lat="43.02592" lon="1.03193">
        <ele>365.4</ele>
        <time>2024-06-24T13:56:32.993Z</time>
      </trkpt>
      <trkpt lat="43.0259" lon="1.03194">
        <ele>365.6</ele>
        <time>2024-06-24T13:56:33.993Z</time>
      </trkpt>
      <trkpt lat="43.02588" lon="1.03195">
        <ele>365.8</ele>
        <time>2024-06-24T13:56:34.993Z</time>
      </trkpt>
      <trkpt lat="43.02587" lon="1.03197">
        <ele>365.8</ele>
        <time>2024-06-24T13:56:35.993Z</time>
      </trkpt>
      <trkpt lat="43.02586" lon="1.03199">
        <ele>366</ele>
        <time>2024-06-24T13:56:36.993Z</time>
      </trkpt>
      <trkpt lat="43.02585" lon="1.03201">
        <ele>366.2</ele>
        <time>2024-06-24T13:56:37.993Z</time>
      </trkpt>
      <trkpt lat="43.02584" lon="1.03202">
        <ele>366.2</ele>
        <time>2024-06-24T13:56:38.993Z</time>
      </trkpt>
      <trkpt lat="43.02582" lon="1.03204">
        <ele>366.8</ele>
        <time>2024-06-24T13:56:39.993Z</time>
      </trkpt>
      <trkpt lat="43.02579" lon="1.03205">
        <ele>367.2</ele>
        <time>2024-06-24T13:56:40.993Z</time>
      </trkpt>
      <trkpt lat="43.02577" lon="1.03207">
        <ele>367.6</ele>
        <time>2024-06-24T13:56:41.993Z</time>
      </trkpt>
      <trkpt lat="43.02574" lon="1.03209">
        <ele>367.6</ele>
        <time>2024-06-24T13:56:42.993Z</time>
      </trkpt>
      <trkpt lat="43.02572" lon="1.0321">
        <ele>368</ele>
        <time>2024-06-24T13:56:43.993Z</time>
      </trkpt>
      <trkpt lat="43.0257" lon="1.03211">
        <ele>368</ele>
        <time>2024-06-24T13:56:44.993Z</time>
      </trkpt>
      <trkpt lat="43.02568" lon="1.03213">
        <ele>368</ele>
        <time>2024-06-24T13:56:45.993Z</time>
      </trkpt>
      <trkpt lat="43.02566" lon="1.03213">
        <ele>368.8</ele>
        <time>2024-06-24T13:56:46.993Z</time>
      </trkpt>
      <trkpt lat="43.02563" lon="1.03215">
        <ele>368.8</ele>
        <time>2024-06-24T13:56:47.993Z</time>
      </trkpt>
      <trkpt lat="43.02561" lon="1.03218">
        <ele>368.8</ele>
        <time>2024-06-24T13:56:48.993Z</time>
      </trkpt>
      <trkpt lat="43.0256" lon="1.03221">
        <ele>369.2</ele>
        <time>2024-06-24T13:56:49.993Z</time>
      </trkpt>
      <trkpt lat="43.02559" lon="1.03224">
        <ele>369.8</ele>
        <time>2024-06-24T13:56:50.993Z</time>
      </trkpt>
      <trkpt lat="43.02559" lon="1.03225">
        <ele>370</ele>
        <time>2024-06-24T13:56:51.993Z</time>
      </trkpt>
      <trkpt lat="43.02558" lon="1.03227">
        <ele>370.2</ele>
        <time>2024-06-24T13:56:52.993Z</time>
      </trkpt>
      <trkpt lat="43.02557" lon="1.03229">
        <ele>370.6</ele>
        <time>2024-06-24T13:56:53.993Z</time>
      </trkpt>
      <trkpt lat="43.02556" lon="1.0323">
        <ele>371</ele>
        <time>2024-06-24T13:56:54.993Z</time>
      </trkpt>
      <trkpt lat="43.02555" lon="1.03232">
        <ele>370.8</ele>
        <time>2024-06-24T13:56:55.993Z</time>
      </trkpt>
      <trkpt lat="43.02553" lon="1.03235">
        <ele>371.2</ele>
        <time>2024-06-24T13:56:56.993Z</time>
      </trkpt>
      <trkpt lat="43.02551" lon="1.03238">
        <ele>371.6</ele>
        <time>2024-06-24T13:56:57.993Z</time>
      </trkpt>
      <trkpt lat="43.0255" lon="1.03241">
        <ele>371.6</ele>
        <time>2024-06-24T13:56:58.993Z</time>
      </trkpt>
      <trkpt lat="43.02548" lon="1.03243">
        <ele>372</ele>
        <time>2024-06-24T13:56:59.993Z</time>
      </trkpt>
      <trkpt lat="43.02547" lon="1.03246">
        <ele>372.2</ele>
        <time>2024-06-24T13:57:00.993Z</time>
      </trkpt>
      <trkpt lat="43.02545" lon="1.03248">
        <ele>372.2</ele>
        <time>2024-06-24T13:57:01.993Z</time>
      </trkpt>
      <trkpt lat="43.02544" lon="1.0325">
        <ele>372.6</ele>
        <time>2024-06-24T13:57:02.993Z</time>
      </trkpt>
      <trkpt lat="43.02542" lon="1.03251">
        <ele>372.6</ele>
        <time>2024-06-24T13:57:03.993Z</time>
      </trkpt>
      <trkpt lat="43.0254" lon="1.03253">
        <ele>372.6</ele>
        <time>2024-06-24T13:57:04.993Z</time>
      </trkpt>
      <trkpt lat="43.02538" lon="1.03256">
        <ele>372.8</ele>
        <time>2024-06-24T13:57:05.993Z</time>
      </trkpt>
      <trkpt lat="43.02537" lon="1.03258">
        <ele>373</ele>
        <time>2024-06-24T13:57:06.993Z</time>
      </trkpt>
      <trkpt lat="43.02534" lon="1.03259">
        <ele>373</ele>
        <time>2024-06-24T13:57:07.993Z</time>
      </trkpt>
      <trkpt lat="43.02533" lon="1.0326">
        <ele>373.2</ele>
        <time>2024-06-24T13:57:08.993Z</time>
      </trkpt>
      <trkpt lat="43.0253" lon="1.03261">
        <ele>373.6</ele>
        <time>2024-06-24T13:57:09.993Z</time>
      </trkpt>
      <trkpt lat="43.02528" lon="1.03262">
        <ele>373.8</ele>
        <time>2024-06-24T13:57:10.993Z</time>
      </trkpt>
      <trkpt lat="43.02525" lon="1.03263">
        <ele>373.8</ele>
        <time>2024-06-24T13:57:11.993Z</time>
      </trkpt>
      <trkpt lat="43.02524" lon="1.03264">
        <ele>374.2</ele>
        <time>2024-06-24T13:57:12.993Z</time>
      </trkpt>
      <trkpt lat="43.02522" lon="1.03266">
        <ele>374.2</ele>
        <time>2024-06-24T13:57:13.993Z</time>
      </trkpt>
      <trkpt lat="43.02519" lon="1.03268">
        <ele>374.6</ele>
        <time>2024-06-24T13:57:14.993Z</time>
      </trkpt>
      <trkpt lat="43.02516" lon="1.0327">
        <ele>374.6</ele>
        <time>2024-06-24T13:57:15.993Z</time>
      </trkpt>
      <trkpt lat="43.02514" lon="1.03271">
        <ele>374.6</ele>
        <time>2024-06-24T13:57:16.993Z</time>
      </trkpt>
      <trkpt lat="43.02512" lon="1.03272">
        <ele>374.8</ele>
        <time>2024-06-24T13:57:17.993Z</time>
      </trkpt>
      <trkpt lat="43.02509" lon="1.03274">
        <ele>375.2</ele>
        <time>2024-06-24T13:57:18.993Z</time>
      </trkpt>
      <trkpt lat="43.02507" lon="1.03275">
        <ele>375.2</ele>
        <time>2024-06-24T13:57:19.993Z</time>
      </trkpt>
      <trkpt lat="43.02505" lon="1.03276">
        <ele>375.4</ele>
        <time>2024-06-24T13:57:20.993Z</time>
      </trkpt>
      <trkpt lat="43.02503" lon="1.03277">
        <ele>375.4</ele>
        <time>2024-06-24T13:57:21.993Z</time>
      </trkpt>
      <trkpt lat="43.02501" lon="1.03278">
        <ele>375.8</ele>
        <time>2024-06-24T13:57:22.993Z</time>
      </trkpt>
      <trkpt lat="43.02499" lon="1.0328">
        <ele>375.8</ele>
        <time>2024-06-24T13:57:23.993Z</time>
      </trkpt>
      <trkpt lat="43.02497" lon="1.03282">
        <ele>375.6</ele>
        <time>2024-06-24T13:57:24.993Z</time>
      </trkpt>
      <trkpt lat="43.02495" lon="1.03284">
        <ele>375.8</ele>
        <time>2024-06-24T13:57:25.993Z</time>
      </trkpt>
      <trkpt lat="43.02494" lon="1.03287">
        <ele>375.8</ele>
        <time>2024-06-24T13:57:26.993Z</time>
      </trkpt>
      <trkpt lat="43.02492" lon="1.03289">
        <ele>376.2</ele>
        <time>2024-06-24T13:57:27.993Z</time>
      </trkpt>
      <trkpt lat="43.02491" lon="1.0329">
        <ele>376.2</ele>
        <time>2024-06-24T13:57:28.993Z</time>
      </trkpt>
      <trkpt lat="43.02489" lon="1.03292">
        <ele>376.6</ele>
        <time>2024-06-24T13:57:29.993Z</time>
      </trkpt>
      <trkpt lat="43.02487" lon="1.03294">
        <ele>376.8</ele>
        <time>2024-06-24T13:57:30.993Z</time>
      </trkpt>
      <trkpt lat="43.02485" lon="1.03295">
        <ele>377.2</ele>
        <time>2024-06-24T13:57:31.993Z</time>
      </trkpt>
      <trkpt lat="43.02483" lon="1.03297">
        <ele>377.2</ele>
        <time>2024-06-24T13:57:32.993Z</time>
      </trkpt>
      <trkpt lat="43.0248" lon="1.03298">
        <ele>377.6</ele>
        <time>2024-06-24T13:57:33.993Z</time>
      </trkpt>
      <trkpt lat="43.02478" lon="1.033">
        <ele>377.8</ele>
        <time>2024-06-24T13:57:34.993Z</time>
      </trkpt>
      <trkpt lat="43.02475" lon="1.03301">
        <ele>378.2</ele>
        <time>2024-06-24T13:57:35.993Z</time>
      </trkpt>
      <trkpt lat="43.02474" lon="1.03301">
        <ele>378.2</ele>
        <time>2024-06-24T13:57:36.993Z</time>
      </trkpt>
      <trkpt lat="43.02472" lon="1.03301">
        <ele>378.8</ele>
        <time>2024-06-24T13:57:37.993Z</time>
      </trkpt>
      <trkpt lat="43.02471" lon="1.03302">
        <ele>378.8</ele>
        <time>2024-06-24T13:57:38.993Z</time>
      </trkpt>
      <trkpt lat="43.02468" lon="1.03304">
        <ele>379.2</ele>
        <time>2024-06-24T13:57:39.993Z</time>
      </trkpt>
      <trkpt lat="43.02467" lon="1.03306">
        <ele>379.6</ele>
        <time>2024-06-24T13:57:40.993Z</time>
      </trkpt>
      <trkpt lat="43.02465" lon="1.03308">
        <ele>379.8</ele>
        <time>2024-06-24T13:57:41.993Z</time>
      </trkpt>
      <trkpt lat="43.02463" lon="1.0331">
        <ele>380.2</ele>
        <time>2024-06-24T13:57:42.993Z</time>
      </trkpt>
      <trkpt lat="43.02461" lon="1.03311">
        <ele>380.2</ele>
        <time>2024-06-24T13:57:43.993Z</time>
      </trkpt>
      <trkpt lat="43.0246" lon="1.03313">
        <ele>380.6</ele>
        <time>2024-06-24T13:57:44.993Z</time>
      </trkpt>
      <trkpt lat="43.02457" lon="1.03314">
        <ele>380.6</ele>
        <time>2024-06-24T13:57:45.993Z</time>
      </trkpt>
      <trkpt lat="43.02455" lon="1.03316">
        <ele>380.6</ele>
        <time>2024-06-24T13:57:46.993Z</time>
      </trkpt>
      <trkpt lat="43.02454" lon="1.03318">
        <ele>380.8</ele>
        <time>2024-06-24T13:57:47.993Z</time>
      </trkpt>
      <trkpt lat="43.02452" lon="1.0332">
        <ele>381</ele>
        <time>2024-06-24T13:57:48.993Z</time>
      </trkpt>
      <trkpt lat="43.0245" lon="1.03321">
        <ele>381.4</ele>
        <time>2024-06-24T13:57:49.993Z</time>
      </trkpt>
      <trkpt lat="43.02449" lon="1.03322">
        <ele>381.4</ele>
        <time>2024-06-24T13:57:50.993Z</time>
      </trkpt>
      <trkpt lat="43.02447" lon="1.03324">
        <ele>381.8</ele>
        <time>2024-06-24T13:57:51.993Z</time>
      </trkpt>
      <trkpt lat="43.02444" lon="1.03326">
        <ele>381.8</ele>
        <time>2024-06-24T13:57:52.993Z</time>
      </trkpt>
      <trkpt lat="43.02442" lon="1.03328">
        <ele>381.8</ele>
        <time>2024-06-24T13:57:53.993Z</time>
      </trkpt>
      <trkpt lat="43.0244" lon="1.0333">
        <ele>382.2</ele>
        <time>2024-06-24T13:57:54.993Z</time>
      </trkpt>
      <trkpt lat="43.02438" lon="1.03333">
        <ele>382.2</ele>
        <time>2024-06-24T13:57:55.993Z</time>
      </trkpt>
      <trkpt lat="43.02435" lon="1.03335">
        <ele>382.2</ele>
        <time>2024-06-24T13:57:56.993Z</time>
      </trkpt>
      <trkpt lat="43.02433" lon="1.03337">
        <ele>382.2</ele>
        <time>2024-06-24T13:57:57.993Z</time>
      </trkpt>
      <trkpt lat="43.02431" lon="1.03339">
        <ele>382.6</ele>
        <time>2024-06-24T13:57:58.993Z</time>
      </trkpt>
      <trkpt lat="43.02429" lon="1.03341">
        <ele>382.8</ele>
        <time>2024-06-24T13:57:59.993Z</time>
      </trkpt>
      <trkpt lat="43.02427" lon="1.03343">
        <ele>382.8</ele>
        <time>2024-06-24T13:58:00.993Z</time>
      </trkpt>
      <trkpt lat="43.02425" lon="1.03346">
        <ele>383</ele>
        <time>2024-06-24T13:58:01.993Z</time>
      </trkpt>
      <trkpt lat="43.02423" lon="1.03348">
        <ele>383</ele>
        <time>2024-06-24T13:58:02.993Z</time>
      </trkpt>
      <trkpt lat="43.02421" lon="1.0335">
        <ele>383.4</ele>
        <time>2024-06-24T13:58:03.993Z</time>
      </trkpt>
      <trkpt lat="43.02419" lon="1.03353">
        <ele>383.8</ele>
        <time>2024-06-24T13:58:04.993Z</time>
      </trkpt>
      <trkpt lat="43.02417" lon="1.03355">
        <ele>383.8</ele>
        <time>2024-06-24T13:58:05.993Z</time>
      </trkpt>
      <trkpt lat="43.02414" lon="1.03357">
        <ele>384.2</ele>
        <time>2024-06-24T13:58:06.993Z</time>
      </trkpt>
      <trkpt lat="43.02412" lon="1.03358">
        <ele>384.2</ele>
        <time>2024-06-24T13:58:07.993Z</time>
      </trkpt>
      <trkpt lat="43.0241" lon="1.0336">
        <ele>384.6</ele>
        <time>2024-06-24T13:58:08.993Z</time>
      </trkpt>
      <trkpt lat="43.02408" lon="1.03362">
        <ele>384.8</ele>
        <time>2024-06-24T13:58:09.993Z</time>
      </trkpt>
      <trkpt lat="43.02406" lon="1.03363">
        <ele>385</ele>
        <time>2024-06-24T13:58:10.993Z</time>
      </trkpt>
      <trkpt lat="43.02405" lon="1.03365">
        <ele>385</ele>
        <time>2024-06-24T13:58:11.993Z</time>
      </trkpt>
      <trkpt lat="43.02403" lon="1.03366">
        <ele>385</ele>
        <time>2024-06-24T13:58:12.993Z</time>
      </trkpt>
      <trkpt lat="43.024" lon="1.03367">
        <ele>385</ele>
        <time>2024-06-24T13:58:13.993Z</time>
      </trkpt>
      <trkpt lat="43.02398" lon="1.03368">
        <ele>385</ele>
        <time>2024-06-24T13:58:14.993Z</time>
      </trkpt>
      <trkpt lat="43.02397" lon="1.0337">
        <ele>385</ele>
        <time>2024-06-24T13:58:15.993Z</time>
      </trkpt>
      <trkpt lat="43.02395" lon="1.03371">
        <ele>385.2</ele>
        <time>2024-06-24T13:58:16.993Z</time>
      </trkpt>
      <trkpt lat="43.02392" lon="1.03372">
        <ele>385.2</ele>
        <time>2024-06-24T13:58:17.993Z</time>
      </trkpt>
      <trkpt lat="43.0239" lon="1.03374">
        <ele>385.6</ele>
        <time>2024-06-24T13:58:18.993Z</time>
      </trkpt>
      <trkpt lat="43.02387" lon="1.03375">
        <ele>385.6</ele>
        <time>2024-06-24T13:58:19.993Z</time>
      </trkpt>
      <trkpt lat="43.02385" lon="1.03376">
        <ele>385.6</ele>
        <time>2024-06-24T13:58:20.993Z</time>
      </trkpt>
      <trkpt lat="43.02383" lon="1.03377">
        <ele>386</ele>
        <time>2024-06-24T13:58:21.993Z</time>
      </trkpt>
      <trkpt lat="43.02381" lon="1.03378">
        <ele>386</ele>
        <time>2024-06-24T13:58:22.993Z</time>
      </trkpt>
      <trkpt lat="43.02378" lon="1.03379">
        <ele>386.8</ele>
        <time>2024-06-24T13:58:23.993Z</time>
      </trkpt>
      <trkpt lat="43.02376" lon="1.0338">
        <ele>386.8</ele>
        <time>2024-06-24T13:58:24.993Z</time>
      </trkpt>
      <trkpt lat="43.02373" lon="1.03381">
        <ele>386.8</ele>
        <time>2024-06-24T13:58:25.993Z</time>
      </trkpt>
      <trkpt lat="43.02371" lon="1.03382">
        <ele>387.4</ele>
        <time>2024-06-24T13:58:26.993Z</time>
      </trkpt>
      <trkpt lat="43.02369" lon="1.03383">
        <ele>387.4</ele>
        <time>2024-06-24T13:58:27.993Z</time>
      </trkpt>
      <trkpt lat="43.02366" lon="1.03384">
        <ele>387.8</ele>
        <time>2024-06-24T13:58:28.993Z</time>
      </trkpt>
      <trkpt lat="43.02363" lon="1.03386">
        <ele>387.8</ele>
        <time>2024-06-24T13:58:29.993Z</time>
      </trkpt>
      <trkpt lat="43.02361" lon="1.03386">
        <ele>387.6</ele>
        <time>2024-06-24T13:58:30.993Z</time>
      </trkpt>
      <trkpt lat="43.02358" lon="1.03387">
        <ele>388</ele>
        <time>2024-06-24T13:58:31.993Z</time>
      </trkpt>
      <trkpt lat="43.02356" lon="1.03387">
        <ele>388</ele>
        <time>2024-06-24T13:58:32.993Z</time>
      </trkpt>
      <trkpt lat="43.02353" lon="1.03387">
        <ele>388.2</ele>
        <time>2024-06-24T13:58:33.993Z</time>
      </trkpt>
      <trkpt lat="43.02351" lon="1.03386">
        <ele>388.6</ele>
        <time>2024-06-24T13:58:34.993Z</time>
      </trkpt>
      <trkpt lat="43.02348" lon="1.03385">
        <ele>389</ele>
        <time>2024-06-24T13:58:35.993Z</time>
      </trkpt>
      <trkpt lat="43.02344" lon="1.03384">
        <ele>389</ele>
        <time>2024-06-24T13:58:36.993Z</time>
      </trkpt>
      <trkpt lat="43.02342" lon="1.03383">
        <ele>389.2</ele>
        <time>2024-06-24T13:58:37.993Z</time>
      </trkpt>
      <trkpt lat="43.02339" lon="1.03383">
        <ele>389.2</ele>
        <time>2024-06-24T13:58:38.993Z</time>
      </trkpt>
      <trkpt lat="43.02336" lon="1.03383">
        <ele>389.4</ele>
        <time>2024-06-24T13:58:39.993Z</time>
      </trkpt>
      <trkpt lat="43.02334" lon="1.03383">
        <ele>389.4</ele>
        <time>2024-06-24T13:58:40.993Z</time>
      </trkpt>
      <trkpt lat="43.02331" lon="1.03382">
        <ele>389.8</ele>
        <time>2024-06-24T13:58:41.993Z</time>
      </trkpt>
      <trkpt lat="43.02329" lon="1.03382">
        <ele>389.8</ele>
        <time>2024-06-24T13:58:42.993Z</time>
      </trkpt>
      <trkpt lat="43.02326" lon="1.03381">
        <ele>389.8</ele>
        <time>2024-06-24T13:58:43.993Z</time>
      </trkpt>
      <trkpt lat="43.02324" lon="1.0338">
        <ele>390.2</ele>
        <time>2024-06-24T13:58:44.993Z</time>
      </trkpt>
      <trkpt lat="43.02321" lon="1.0338">
        <ele>390.2</ele>
        <time>2024-06-24T13:58:45.993Z</time>
      </trkpt>
      <trkpt lat="43.02319" lon="1.0338">
        <ele>390.4</ele>
        <time>2024-06-24T13:58:46.993Z</time>
      </trkpt>
      <trkpt lat="43.02317" lon="1.0338">
        <ele>390.4</ele>
        <time>2024-06-24T13:58:47.993Z</time>
      </trkpt>
      <trkpt lat="43.02314" lon="1.03381">
        <ele>390.4</ele>
        <time>2024-06-24T13:58:48.993Z</time>
      </trkpt>
      <trkpt lat="43.02311" lon="1.03381">
        <ele>390.8</ele>
        <time>2024-06-24T13:58:49.993Z</time>
      </trkpt>
      <trkpt lat="43.02309" lon="1.03381">
        <ele>390.8</ele>
        <time>2024-06-24T13:58:50.993Z</time>
      </trkpt>
      <trkpt lat="43.02307" lon="1.03381">
        <ele>391.4</ele>
        <time>2024-06-24T13:58:51.993Z</time>
      </trkpt>
      <trkpt lat="43.02305" lon="1.03381">
        <ele>391.4</ele>
        <time>2024-06-24T13:58:52.993Z</time>
      </trkpt>
      <trkpt lat="43.02305" lon="1.03382">
        <ele>391.8</ele>
        <time>2024-06-24T13:58:53.993Z</time>
      </trkpt>
      <trkpt lat="43.02304" lon="1.03383">
        <ele>392</ele>
        <time>2024-06-24T13:58:54.993Z</time>
      </trkpt>
      <trkpt lat="43.02303" lon="1.03383">
        <ele>392.4</ele>
        <time>2024-06-24T13:59:18.993Z</time>
      </trkpt>
      <trkpt lat="43.02301" lon="1.03383">
        <ele>392.4</ele>
        <time>2024-06-24T13:59:19.993Z</time>
      </trkpt>
      <trkpt lat="43.02299" lon="1.03383">
        <ele>392.6</ele>
        <time>2024-06-24T13:59:20.993Z</time>
      </trkpt>
      <trkpt lat="43.02297" lon="1.03383">
        <ele>392.6</ele>
        <time>2024-06-24T13:59:21.993Z</time>
      </trkpt>
      <trkpt lat="43.02295" lon="1.03384">
        <ele>392.6</ele>
        <time>2024-06-24T13:59:22.993Z</time>
      </trkpt>
      <trkpt lat="43.02294" lon="1.03384">
        <ele>392.6</ele>
        <time>2024-06-24T13:59:23.993Z</time>
      </trkpt>
      <trkpt lat="43.02292" lon="1.03385">
        <ele>392.6</ele>
        <time>2024-06-24T13:59:24.993Z</time>
      </trkpt>
      <trkpt lat="43.0229" lon="1.03387">
        <ele>392.6</ele>
        <time>2024-06-24T13:59:25.993Z</time>
      </trkpt>
      <trkpt lat="43.02287" lon="1.03388">
        <ele>392.8</ele>
        <time>2024-06-24T13:59:26.993Z</time>
      </trkpt>
      <trkpt lat="43.02285" lon="1.03388">
        <ele>392.8</ele>
        <time>2024-06-24T13:59:27.993Z</time>
      </trkpt>
      <trkpt lat="43.02282" lon="1.03388">
        <ele>393.4</ele>
        <time>2024-06-24T13:59:28.993Z</time>
      </trkpt>
      <trkpt lat="43.0228" lon="1.03388">
        <ele>394</ele>
        <time>2024-06-24T13:59:29.993Z</time>
      </trkpt>
      <trkpt lat="43.02277" lon="1.03388">
        <ele>394</ele>
        <time>2024-06-24T13:59:30.993Z</time>
      </trkpt>
      <trkpt lat="43.02274" lon="1.03388">
        <ele>394.8</ele>
        <time>2024-06-24T13:59:31.993Z</time>
      </trkpt>
      <trkpt lat="43.02272" lon="1.03389">
        <ele>394.8</ele>
        <time>2024-06-24T13:59:32.993Z</time>
      </trkpt>
      <trkpt lat="43.0227" lon="1.0339">
        <ele>395</ele>
        <time>2024-06-24T13:59:33.993Z</time>
      </trkpt>
      <trkpt lat="43.02267" lon="1.03391">
        <ele>395</ele>
        <time>2024-06-24T13:59:34.993Z</time>
      </trkpt>
      <trkpt lat="43.02265" lon="1.03392">
        <ele>395</ele>
        <time>2024-06-24T13:59:35.993Z</time>
      </trkpt>
      <trkpt lat="43.02262" lon="1.03393">
        <ele>395.2</ele>
        <time>2024-06-24T13:59:36.993Z</time>
      </trkpt>
      <trkpt lat="43.0226" lon="1.03393">
        <ele>395</ele>
        <time>2024-06-24T13:59:37.993Z</time>
      </trkpt>
      <trkpt lat="43.02257" lon="1.03393">
        <ele>395.6</ele>
        <time>2024-06-24T13:59:38.993Z</time>
      </trkpt>
      <trkpt lat="43.02255" lon="1.03394">
        <ele>395.8</ele>
        <time>2024-06-24T13:59:39.993Z</time>
      </trkpt>
      <trkpt lat="43.02252" lon="1.03394">
        <ele>395.8</ele>
        <time>2024-06-24T13:59:40.993Z</time>
      </trkpt>
      <trkpt lat="43.02249" lon="1.03395">
        <ele>395.8</ele>
        <time>2024-06-24T13:59:41.993Z</time>
      </trkpt>
      <trkpt lat="43.02246" lon="1.03395">
        <ele>396.2</ele>
        <time>2024-06-24T13:59:42.993Z</time>
      </trkpt>
      <trkpt lat="43.02244" lon="1.03396">
        <ele>396.2</ele>
        <time>2024-06-24T13:59:43.993Z</time>
      </trkpt>
      <trkpt lat="43.02241" lon="1.03398">
        <ele>396.2</ele>
        <time>2024-06-24T13:59:44.993Z</time>
      </trkpt>
      <trkpt lat="43.02239" lon="1.03399">
        <ele>396.2</ele>
        <time>2024-06-24T13:59:45.993Z</time>
      </trkpt>
      <trkpt lat="43.02237" lon="1.03399">
        <ele>396.4</ele>
        <time>2024-06-24T13:59:46.993Z</time>
      </trkpt>
      <trkpt lat="43.02234" lon="1.034">
        <ele>396.6</ele>
        <time>2024-06-24T13:59:47.993Z</time>
      </trkpt>
      <trkpt lat="43.02231" lon="1.034">
        <ele>396.6</ele>
        <time>2024-06-24T13:59:48.993Z</time>
      </trkpt>
      <trkpt lat="43.02229" lon="1.03401">
        <ele>396.6</ele>
        <time>2024-06-24T13:59:49.993Z</time>
      </trkpt>
      <trkpt lat="43.02226" lon="1.03401">
        <ele>397</ele>
        <time>2024-06-24T13:59:50.993Z</time>
      </trkpt>
      <trkpt lat="43.02223" lon="1.03402">
        <ele>397</ele>
        <time>2024-06-24T13:59:51.993Z</time>
      </trkpt>
      <trkpt lat="43.02221" lon="1.03402">
        <ele>397</ele>
        <time>2024-06-24T13:59:52.993Z</time>
      </trkpt>
      <trkpt lat="43.02218" lon="1.03402">
        <ele>397.4</ele>
        <time>2024-06-24T13:59:53.993Z</time>
      </trkpt>
      <trkpt lat="43.02215" lon="1.03403">
        <ele>397.4</ele>
        <time>2024-06-24T13:59:54.993Z</time>
      </trkpt>
      <trkpt lat="43.02212" lon="1.03403">
        <ele>397.6</ele>
        <time>2024-06-24T13:59:55.993Z</time>
      </trkpt>
      <trkpt lat="43.0221" lon="1.03403">
        <ele>397.6</ele>
        <time>2024-06-24T13:59:56.993Z</time>
      </trkpt>
      <trkpt lat="43.02207" lon="1.03403">
        <ele>397.4</ele>
        <time>2024-06-24T13:59:57.993Z</time>
      </trkpt>
      <trkpt lat="43.02204" lon="1.03403">
        <ele>398</ele>
        <time>2024-06-24T13:59:58.993Z</time>
      </trkpt>
      <trkpt lat="43.02201" lon="1.03403">
        <ele>397.6</ele>
        <time>2024-06-24T13:59:59.993Z</time>
      </trkpt>
      <trkpt lat="43.02198" lon="1.03403">
        <ele>398</ele>
        <time>2024-06-24T14:00:00.993Z</time>
      </trkpt>
      <trkpt lat="43.02195" lon="1.03404">
        <ele>400</ele>
        <time>2024-06-24T14:00:01.993Z</time>
      </trkpt>
      <trkpt lat="43.02193" lon="1.03404">
        <ele>399.8</ele>
        <time>2024-06-24T14:00:02.993Z</time>
      </trkpt>
      <trkpt lat="43.0219" lon="1.03405">
        <ele>399.8</ele>
        <time>2024-06-24T14:00:03.993Z</time>
      </trkpt>
      <trkpt lat="43.02187" lon="1.03405">
        <ele>399.8</ele>
        <time>2024-06-24T14:00:04.993Z</time>
      </trkpt>
      <trkpt lat="43.02184" lon="1.03406">
        <ele>399.4</ele>
        <time>2024-06-24T14:00:05.993Z</time>
      </trkpt>
      <trkpt lat="43.02182" lon="1.03406">
        <ele>399.4</ele>
        <time>2024-06-24T14:00:06.993Z</time>
      </trkpt>
      <trkpt lat="43.02179" lon="1.03406">
        <ele>399.8</ele>
        <time>2024-06-24T14:00:07.993Z</time>
      </trkpt>
      <trkpt lat="43.02176" lon="1.03407">
        <ele>399.8</ele>
        <time>2024-06-24T14:00:08.993Z</time>
      </trkpt>
      <trkpt lat="43.02173" lon="1.03407">
        <ele>399.8</ele>
        <time>2024-06-24T14:00:09.993Z</time>
      </trkpt>
      <trkpt lat="43.0217" lon="1.03408">
        <ele>399.8</ele>
        <time>2024-06-24T14:00:10.993Z</time>
      </trkpt>
      <trkpt lat="43.02167" lon="1.03409">
        <ele>400.2</ele>
        <time>2024-06-24T14:00:11.993Z</time>
      </trkpt>
      <trkpt lat="43.02165" lon="1.03409">
        <ele>399.8</ele>
        <time>2024-06-24T14:00:12.993Z</time>
      </trkpt>
      <trkpt lat="43.02161" lon="1.0341">
        <ele>400.6</ele>
        <time>2024-06-24T14:00:13.993Z</time>
      </trkpt>
      <trkpt lat="43.02159" lon="1.0341">
        <ele>400.6</ele>
        <time>2024-06-24T14:00:14.993Z</time>
      </trkpt>
      <trkpt lat="43.02156" lon="1.03411">
        <ele>400.2</ele>
        <time>2024-06-24T14:00:15.993Z</time>
      </trkpt>
      <trkpt lat="43.02153" lon="1.03412">
        <ele>400</ele>
        <time>2024-06-24T14:00:16.993Z</time>
      </trkpt>
      <trkpt lat="43.0215" lon="1.03413">
        <ele>399.8</ele>
        <time>2024-06-24T14:00:17.993Z</time>
      </trkpt>
      <trkpt lat="43.02147" lon="1.03414">
        <ele>399.6</ele>
        <time>2024-06-24T14:00:18.993Z</time>
      </trkpt>
      <trkpt lat="43.02144" lon="1.03414">
        <ele>400</ele>
        <time>2024-06-24T14:00:19.993Z</time>
      </trkpt>
      <trkpt lat="43.02141" lon="1.03415">
        <ele>400</ele>
        <time>2024-06-24T14:00:20.993Z</time>
      </trkpt>
      <trkpt lat="43.02138" lon="1.03416">
        <ele>400.2</ele>
        <time>2024-06-24T14:00:21.993Z</time>
      </trkpt>
      <trkpt lat="43.02134" lon="1.03417">
        <ele>400.2</ele>
        <time>2024-06-24T14:00:22.993Z</time>
      </trkpt>
      <trkpt lat="43.02131" lon="1.03419">
        <ele>400.6</ele>
        <time>2024-06-24T14:00:23.993Z</time>
      </trkpt>
      <trkpt lat="43.02128" lon="1.0342">
        <ele>400.6</ele>
        <time>2024-06-24T14:00:24.993Z</time>
      </trkpt>
      <trkpt lat="43.02125" lon="1.03421">
        <ele>400.6</ele>
        <time>2024-06-24T14:00:25.993Z</time>
      </trkpt>
      <trkpt lat="43.02122" lon="1.03422">
        <ele>400.6</ele>
        <time>2024-06-24T14:00:26.993Z</time>
      </trkpt>
      <trkpt lat="43.02119" lon="1.03423">
        <ele>400.6</ele>
        <time>2024-06-24T14:00:27.993Z</time>
      </trkpt>
      <trkpt lat="43.02116" lon="1.03424">
        <ele>400.2</ele>
        <time>2024-06-24T14:00:28.993Z</time>
      </trkpt>
      <trkpt lat="43.02114" lon="1.03424">
        <ele>400.2</ele>
        <time>2024-06-24T14:00:29.993Z</time>
      </trkpt>
      <trkpt lat="43.02111" lon="1.03426">
        <ele>400.4</ele>
        <time>2024-06-24T14:00:30.993Z</time>
      </trkpt>
      <trkpt lat="43.02109" lon="1.03427">
        <ele>400.4</ele>
        <time>2024-06-24T14:00:31.993Z</time>
      </trkpt>
      <trkpt lat="43.02106" lon="1.03428">
        <ele>400.4</ele>
        <time>2024-06-24T14:00:32.993Z</time>
      </trkpt>
      <trkpt lat="43.02103" lon="1.03429">
        <ele>401</ele>
        <time>2024-06-24T14:00:33.993Z</time>
      </trkpt>
      <trkpt lat="43.021" lon="1.03429">
        <ele>400.6</ele>
        <time>2024-06-24T14:00:34.993Z</time>
      </trkpt>
      <trkpt lat="43.02097" lon="1.0343">
        <ele>400.6</ele>
        <time>2024-06-24T14:00:35.993Z</time>
      </trkpt>
      <trkpt lat="43.02094" lon="1.03431">
        <ele>401.2</ele>
        <time>2024-06-24T14:00:36.993Z</time>
      </trkpt>
      <trkpt lat="43.02091" lon="1.03431">
        <ele>401.2</ele>
        <time>2024-06-24T14:00:37.993Z</time>
      </trkpt>
      <trkpt lat="43.02088" lon="1.03432">
        <ele>400.4</ele>
        <time>2024-06-24T14:00:38.993Z</time>
      </trkpt>
      <trkpt lat="43.02086" lon="1.03433">
        <ele>400.4</ele>
        <time>2024-06-24T14:00:39.993Z</time>
      </trkpt>
      <trkpt lat="43.02083" lon="1.03433">
        <ele>400.4</ele>
        <time>2024-06-24T14:00:40.993Z</time>
      </trkpt>
      <trkpt lat="43.0208" lon="1.03435">
        <ele>400.4</ele>
        <time>2024-06-24T14:00:41.993Z</time>
      </trkpt>
      <trkpt lat="43.02076" lon="1.03435">
        <ele>400.4</ele>
        <time>2024-06-24T14:00:42.993Z</time>
      </trkpt>
      <trkpt lat="43.02073" lon="1.03436">
        <ele>400.6</ele>
        <time>2024-06-24T14:00:43.993Z</time>
      </trkpt>
      <trkpt lat="43.0207" lon="1.03437">
        <ele>400.6</ele>
        <time>2024-06-24T14:00:44.993Z</time>
      </trkpt>
      <trkpt lat="43.02067" lon="1.03439">
        <ele>400.6</ele>
        <time>2024-06-24T14:00:45.993Z</time>
      </trkpt>
      <trkpt lat="43.02063" lon="1.0344">
        <ele>400.8</ele>
        <time>2024-06-24T14:00:46.993Z</time>
      </trkpt>
      <trkpt lat="43.0206" lon="1.03441">
        <ele>400.8</ele>
        <time>2024-06-24T14:00:47.993Z</time>
      </trkpt>
      <trkpt lat="43.02057" lon="1.03442">
        <ele>401.4</ele>
        <time>2024-06-24T14:00:48.993Z</time>
      </trkpt>
      <trkpt lat="43.02055" lon="1.03443">
        <ele>401.6</ele>
        <time>2024-06-24T14:00:49.993Z</time>
      </trkpt>
      <trkpt lat="43.02053" lon="1.03444">
        <ele>401.4</ele>
        <time>2024-06-24T14:00:50.993Z</time>
      </trkpt>
      <trkpt lat="43.0205" lon="1.03444">
        <ele>401.8</ele>
        <time>2024-06-24T14:00:51.993Z</time>
      </trkpt>
      <trkpt lat="43.02048" lon="1.03445">
        <ele>401.4</ele>
        <time>2024-06-24T14:00:52.993Z</time>
      </trkpt>
      <trkpt lat="43.02045" lon="1.03446">
        <ele>401.6</ele>
        <time>2024-06-24T14:00:53.993Z</time>
      </trkpt>
      <trkpt lat="43.02043" lon="1.03446">
        <ele>402</ele>
        <time>2024-06-24T14:00:54.993Z</time>
      </trkpt>
      <trkpt lat="43.0204" lon="1.03447">
        <ele>402.4</ele>
        <time>2024-06-24T14:00:55.993Z</time>
      </trkpt>
      <trkpt lat="43.02038" lon="1.03448">
        <ele>402.4</ele>
        <time>2024-06-24T14:00:56.993Z</time>
      </trkpt>
      <trkpt lat="43.02033" lon="1.0345">
        <ele>402.6</ele>
        <time>2024-06-24T14:00:57.993Z</time>
      </trkpt>
      <trkpt lat="43.02031" lon="1.03451">
        <ele>403</ele>
        <time>2024-06-24T14:00:58.993Z</time>
      </trkpt>
      <trkpt lat="43.02028" lon="1.03452">
        <ele>403.6</ele>
        <time>2024-06-24T14:00:59.993Z</time>
      </trkpt>
      <trkpt lat="43.02026" lon="1.03453">
        <ele>403</ele>
        <time>2024-06-24T14:01:00.993Z</time>
      </trkpt>
      <trkpt lat="43.02023" lon="1.03454">
        <ele>403.4</ele>
        <time>2024-06-24T14:01:01.993Z</time>
      </trkpt>
      <trkpt lat="43.0202" lon="1.03455">
        <ele>403.4</ele>
        <time>2024-06-24T14:01:02.993Z</time>
      </trkpt>
      <trkpt lat="43.02018" lon="1.03456">
        <ele>403.6</ele>
        <time>2024-06-24T14:01:03.993Z</time>
      </trkpt>
      <trkpt lat="43.02015" lon="1.03457">
        <ele>403.8</ele>
        <time>2024-06-24T14:01:04.993Z</time>
      </trkpt>
      <trkpt lat="43.02012" lon="1.03458">
        <ele>404.2</ele>
        <time>2024-06-24T14:01:05.993Z</time>
      </trkpt>
      <trkpt lat="43.0201" lon="1.03459">
        <ele>404.2</ele>
        <time>2024-06-24T14:01:06.993Z</time>
      </trkpt>
      <trkpt lat="43.02007" lon="1.03459">
        <ele>404.6</ele>
        <time>2024-06-24T14:01:07.993Z</time>
      </trkpt>
      <trkpt lat="43.02004" lon="1.0346">
        <ele>404.6</ele>
        <time>2024-06-24T14:01:08.993Z</time>
      </trkpt>
      <trkpt lat="43.02001" lon="1.03461">
        <ele>405</ele>
        <time>2024-06-24T14:01:09.993Z</time>
      </trkpt>
      <trkpt lat="43.01999" lon="1.03462">
        <ele>405</ele>
        <time>2024-06-24T14:01:10.993Z</time>
      </trkpt>
      <trkpt lat="43.01996" lon="1.03462">
        <ele>405</ele>
        <time>2024-06-24T14:01:11.993Z</time>
      </trkpt>
      <trkpt lat="43.01993" lon="1.03462">
        <ele>405.4</ele>
        <time>2024-06-24T14:01:12.993Z</time>
      </trkpt>
      <trkpt lat="43.0199" lon="1.03463">
        <ele>405.4</ele>
        <time>2024-06-24T14:01:13.993Z</time>
      </trkpt>
      <trkpt lat="43.01987" lon="1.03464">
        <ele>405</ele>
        <time>2024-06-24T14:01:14.993Z</time>
      </trkpt>
      <trkpt lat="43.01983" lon="1.03465">
        <ele>405</ele>
        <time>2024-06-24T14:01:15.993Z</time>
      </trkpt>
      <trkpt lat="43.01981" lon="1.03467">
        <ele>405</ele>
        <time>2024-06-24T14:01:16.993Z</time>
      </trkpt>
      <trkpt lat="43.01979" lon="1.03469">
        <ele>405.4</ele>
        <time>2024-06-24T14:01:17.993Z</time>
      </trkpt>
      <trkpt lat="43.01978" lon="1.03472">
        <ele>405.6</ele>
        <time>2024-06-24T14:01:18.993Z</time>
      </trkpt>
      <trkpt lat="43.01976" lon="1.03475">
        <ele>406</ele>
        <time>2024-06-24T14:01:19.993Z</time>
      </trkpt>
      <trkpt lat="43.01975" lon="1.03477">
        <ele>406</ele>
        <time>2024-06-24T14:01:20.993Z</time>
      </trkpt>
      <trkpt lat="43.01972" lon="1.0348">
        <ele>406</ele>
        <time>2024-06-24T14:01:21.993Z</time>
      </trkpt>
      <trkpt lat="43.0197" lon="1.03483">
        <ele>406</ele>
        <time>2024-06-24T14:01:22.993Z</time>
      </trkpt>
      <trkpt lat="43.01969" lon="1.03485">
        <ele>406</ele>
        <time>2024-06-24T14:01:23.993Z</time>
      </trkpt>
      <trkpt lat="43.01967" lon="1.03488">
        <ele>406</ele>
        <time>2024-06-24T14:01:24.993Z</time>
      </trkpt>
      <trkpt lat="43.01965" lon="1.03491">
        <ele>406.2</ele>
        <time>2024-06-24T14:01:25.993Z</time>
      </trkpt>
      <trkpt lat="43.01963" lon="1.03493">
        <ele>406.2</ele>
        <time>2024-06-24T14:01:26.993Z</time>
      </trkpt>
      <trkpt lat="43.0196" lon="1.03496">
        <ele>406.4</ele>
        <time>2024-06-24T14:01:27.993Z</time>
      </trkpt>
      <trkpt lat="43.01958" lon="1.03499">
        <ele>406.8</ele>
        <time>2024-06-24T14:01:28.993Z</time>
      </trkpt>
      <trkpt lat="43.01957" lon="1.03501">
        <ele>406.8</ele>
        <time>2024-06-24T14:01:29.993Z</time>
      </trkpt>
      <trkpt lat="43.01955" lon="1.03504">
        <ele>406.8</ele>
        <time>2024-06-24T14:01:30.993Z</time>
      </trkpt>
      <trkpt lat="43.01953" lon="1.03506">
        <ele>407.2</ele>
        <time>2024-06-24T14:01:31.993Z</time>
      </trkpt>
      <trkpt lat="43.01951" lon="1.03509">
        <ele>407.2</ele>
        <time>2024-06-24T14:01:32.993Z</time>
      </trkpt>
      <trkpt lat="43.01949" lon="1.03511">
        <ele>407.2</ele>
        <time>2024-06-24T14:01:33.993Z</time>
      </trkpt>
      <trkpt lat="43.01946" lon="1.03514">
        <ele>407.2</ele>
        <time>2024-06-24T14:01:34.993Z</time>
      </trkpt>
      <trkpt lat="43.01944" lon="1.03517">
        <ele>407.2</ele>
        <time>2024-06-24T14:01:35.993Z</time>
      </trkpt>
      <trkpt lat="43.01942" lon="1.0352">
        <ele>407.2</ele>
        <time>2024-06-24T14:01:36.993Z</time>
      </trkpt>
      <trkpt lat="43.01941" lon="1.03523">
        <ele>407.6</ele>
        <time>2024-06-24T14:01:37.993Z</time>
      </trkpt>
      <trkpt lat="43.01939" lon="1.03526">
        <ele>407.6</ele>
        <time>2024-06-24T14:01:38.993Z</time>
      </trkpt>
      <trkpt lat="43.01937" lon="1.03529">
        <ele>407.8</ele>
        <time>2024-06-24T14:01:39.993Z</time>
      </trkpt>
      <trkpt lat="43.01935" lon="1.03532">
        <ele>408</ele>
        <time>2024-06-24T14:01:40.993Z</time>
      </trkpt>
      <trkpt lat="43.01933" lon="1.03534">
        <ele>408.4</ele>
        <time>2024-06-24T14:01:41.993Z</time>
      </trkpt>
      <trkpt lat="43.01932" lon="1.03537">
        <ele>408.4</ele>
        <time>2024-06-24T14:01:42.993Z</time>
      </trkpt>
      <trkpt lat="43.0193" lon="1.03539">
        <ele>408.4</ele>
        <time>2024-06-24T14:01:43.993Z</time>
      </trkpt>
      <trkpt lat="43.01929" lon="1.03541">
        <ele>408.4</ele>
        <time>2024-06-24T14:01:44.993Z</time>
      </trkpt>
      <trkpt lat="43.01927" lon="1.03544">
        <ele>408.4</ele>
        <time>2024-06-24T14:01:45.993Z</time>
      </trkpt>
      <trkpt lat="43.01925" lon="1.03548">
        <ele>409</ele>
        <time>2024-06-24T14:01:46.993Z</time>
      </trkpt>
      <trkpt lat="43.01923" lon="1.0355">
        <ele>409</ele>
        <time>2024-06-24T14:01:47.993Z</time>
      </trkpt>
      <trkpt lat="43.0192" lon="1.03553">
        <ele>408.6</ele>
        <time>2024-06-24T14:01:48.993Z</time>
      </trkpt>
      <trkpt lat="43.01918" lon="1.03555">
        <ele>408.4</ele>
        <time>2024-06-24T14:01:49.993Z</time>
      </trkpt>
      <trkpt lat="43.01915" lon="1.03557">
        <ele>408.4</ele>
        <time>2024-06-24T14:01:50.993Z</time>
      </trkpt>
      <trkpt lat="43.01912" lon="1.03559">
        <ele>408.4</ele>
        <time>2024-06-24T14:01:51.993Z</time>
      </trkpt>
      <trkpt lat="43.01908" lon="1.03561">
        <ele>408.4</ele>
        <time>2024-06-24T14:01:52.993Z</time>
      </trkpt>
      <trkpt lat="43.01905" lon="1.03563">
        <ele>408.4</ele>
        <time>2024-06-24T14:01:53.993Z</time>
      </trkpt>
      <trkpt lat="43.01901" lon="1.03565">
        <ele>408.8</ele>
        <time>2024-06-24T14:01:54.993Z</time>
      </trkpt>
      <trkpt lat="43.01897" lon="1.03566">
        <ele>408.8</ele>
        <time>2024-06-24T14:01:55.993Z</time>
      </trkpt>
      <trkpt lat="43.01894" lon="1.03567">
        <ele>408.2</ele>
        <time>2024-06-24T14:01:56.993Z</time>
      </trkpt>
      <trkpt lat="43.01889" lon="1.03567">
        <ele>408.2</ele>
        <time>2024-06-24T14:01:57.993Z</time>
      </trkpt>
      <trkpt lat="43.01885" lon="1.03569">
        <ele>408.2</ele>
        <time>2024-06-24T14:01:58.993Z</time>
      </trkpt>
      <trkpt lat="43.01879" lon="1.0357">
        <ele>408.2</ele>
        <time>2024-06-24T14:01:59.993Z</time>
      </trkpt>
      <trkpt lat="43.01874" lon="1.03573">
        <ele>407.6</ele>
        <time>2024-06-24T14:02:00.993Z</time>
      </trkpt>
      <trkpt lat="43.01869" lon="1.03574">
        <ele>407.6</ele>
        <time>2024-06-24T14:02:01.993Z</time>
      </trkpt>
      <trkpt lat="43.01864" lon="1.03575">
        <ele>407.2</ele>
        <time>2024-06-24T14:02:02.993Z</time>
      </trkpt>
      <trkpt lat="43.01859" lon="1.03576">
        <ele>407.2</ele>
        <time>2024-06-24T14:02:03.993Z</time>
      </trkpt>
      <trkpt lat="43.01854" lon="1.03578">
        <ele>407</ele>
        <time>2024-06-24T14:02:04.993Z</time>
      </trkpt>
      <trkpt lat="43.01849" lon="1.0358">
        <ele>407</ele>
        <time>2024-06-24T14:02:05.993Z</time>
      </trkpt>
      <trkpt lat="43.01844" lon="1.03581">
        <ele>407</ele>
        <time>2024-06-24T14:02:06.993Z</time>
      </trkpt>
      <trkpt lat="43.0184" lon="1.03583">
        <ele>407</ele>
        <time>2024-06-24T14:02:07.993Z</time>
      </trkpt>
      <trkpt lat="43.01836" lon="1.03585">
        <ele>407</ele>
        <time>2024-06-24T14:02:08.993Z</time>
      </trkpt>
      <trkpt lat="43.01834" lon="1.03585">
        <ele>407</ele>
        <time>2024-06-24T14:02:09.993Z</time>
      </trkpt>
      <trkpt lat="43.01832" lon="1.03589">
        <ele>406.4</ele>
        <time>2024-06-24T14:02:10.993Z</time>
      </trkpt>
      <trkpt lat="43.01831" lon="1.03592">
        <ele>406.2</ele>
        <time>2024-06-24T14:02:11.993Z</time>
      </trkpt>
      <trkpt lat="43.01828" lon="1.03594">
        <ele>406.4</ele>
        <time>2024-06-24T14:02:12.993Z</time>
      </trkpt>
      <trkpt lat="43.01826" lon="1.03597">
        <ele>406.4</ele>
        <time>2024-06-24T14:02:13.993Z</time>
      </trkpt>
      <trkpt lat="43.01823" lon="1.03598">
        <ele>406.2</ele>
        <time>2024-06-24T14:02:14.993Z</time>
      </trkpt>
      <trkpt lat="43.01821" lon="1.036">
        <ele>406.4</ele>
        <time>2024-06-24T14:02:15.993Z</time>
      </trkpt>
      <trkpt lat="43.01818" lon="1.03602">
        <ele>406.4</ele>
        <time>2024-06-24T14:02:16.993Z</time>
      </trkpt>
      <trkpt lat="43.01816" lon="1.03604">
        <ele>406.4</ele>
        <time>2024-06-24T14:02:17.993Z</time>
      </trkpt>
      <trkpt lat="43.01814" lon="1.03605">
        <ele>406.8</ele>
        <time>2024-06-24T14:02:18.993Z</time>
      </trkpt>
      <trkpt lat="43.01812" lon="1.03606">
        <ele>406.8</ele>
        <time>2024-06-24T14:02:19.993Z</time>
      </trkpt>
      <trkpt lat="43.0181" lon="1.03608">
        <ele>407</ele>
        <time>2024-06-24T14:02:20.993Z</time>
      </trkpt>
      <trkpt lat="43.01807" lon="1.03609">
        <ele>407</ele>
        <time>2024-06-24T14:02:21.993Z</time>
      </trkpt>
      <trkpt lat="43.01805" lon="1.03611">
        <ele>407</ele>
        <time>2024-06-24T14:02:22.993Z</time>
      </trkpt>
      <trkpt lat="43.01803" lon="1.03613">
        <ele>407.4</ele>
        <time>2024-06-24T14:02:23.993Z</time>
      </trkpt>
      <trkpt lat="43.01801" lon="1.03614">
        <ele>407.4</ele>
        <time>2024-06-24T14:02:24.993Z</time>
      </trkpt>
      <trkpt lat="43.01799" lon="1.03615">
        <ele>407.4</ele>
        <time>2024-06-24T14:02:25.993Z</time>
      </trkpt>
      <trkpt lat="43.01798" lon="1.03616">
        <ele>407.6</ele>
        <time>2024-06-24T14:02:26.993Z</time>
      </trkpt>
      <trkpt lat="43.01796" lon="1.03616">
        <ele>407.8</ele>
        <time>2024-06-24T14:02:27.993Z</time>
      </trkpt>
      <trkpt lat="43.01794" lon="1.03618">
        <ele>408.2</ele>
        <time>2024-06-24T14:02:28.993Z</time>
      </trkpt>
      <trkpt lat="43.01792" lon="1.03619">
        <ele>408.2</ele>
        <time>2024-06-24T14:02:29.993Z</time>
      </trkpt>
      <trkpt lat="43.0179" lon="1.03621">
        <ele>407.8</ele>
        <time>2024-06-24T14:02:30.993Z</time>
      </trkpt>
      <trkpt lat="43.01788" lon="1.03623">
        <ele>407.8</ele>
        <time>2024-06-24T14:02:31.993Z</time>
      </trkpt>
      <trkpt lat="43.01785" lon="1.03624">
        <ele>407.4</ele>
        <time>2024-06-24T14:02:32.993Z</time>
      </trkpt>
      <trkpt lat="43.01783" lon="1.03625">
        <ele>407.8</ele>
        <time>2024-06-24T14:02:33.993Z</time>
      </trkpt>
      <trkpt lat="43.01781" lon="1.03627">
        <ele>408.2</ele>
        <time>2024-06-24T14:02:34.993Z</time>
      </trkpt>
      <trkpt lat="43.01778" lon="1.03629">
        <ele>408.2</ele>
        <time>2024-06-24T14:02:35.993Z</time>
      </trkpt>
      <trkpt lat="43.01776" lon="1.03631">
        <ele>407.8</ele>
        <time>2024-06-24T14:02:36.993Z</time>
      </trkpt>
      <trkpt lat="43.01774" lon="1.03633">
        <ele>408.2</ele>
        <time>2024-06-24T14:02:37.993Z</time>
      </trkpt>
      <trkpt lat="43.01771" lon="1.03634">
        <ele>408.2</ele>
        <time>2024-06-24T14:02:38.993Z</time>
      </trkpt>
      <trkpt lat="43.01769" lon="1.03636">
        <ele>408.6</ele>
        <time>2024-06-24T14:02:39.993Z</time>
      </trkpt>
      <trkpt lat="43.01766" lon="1.03637">
        <ele>408.8</ele>
        <time>2024-06-24T14:02:40.993Z</time>
      </trkpt>
      <trkpt lat="43.01764" lon="1.03639">
        <ele>409</ele>
        <time>2024-06-24T14:02:41.993Z</time>
      </trkpt>
      <trkpt lat="43.01762" lon="1.03641">
        <ele>409</ele>
        <time>2024-06-24T14:02:42.993Z</time>
      </trkpt>
      <trkpt lat="43.01759" lon="1.03642">
        <ele>409</ele>
        <time>2024-06-24T14:02:43.993Z</time>
      </trkpt>
      <trkpt lat="43.01756" lon="1.03644">
        <ele>409</ele>
        <time>2024-06-24T14:02:44.993Z</time>
      </trkpt>
      <trkpt lat="43.01753" lon="1.03646">
        <ele>409</ele>
        <time>2024-06-24T14:02:45.993Z</time>
      </trkpt>
      <trkpt lat="43.01751" lon="1.03648">
        <ele>409.4</ele>
        <time>2024-06-24T14:02:46.993Z</time>
      </trkpt>
      <trkpt lat="43.01749" lon="1.0365">
        <ele>409.6</ele>
        <time>2024-06-24T14:02:47.993Z</time>
      </trkpt>
      <trkpt lat="43.01747" lon="1.03653">
        <ele>409</ele>
        <time>2024-06-24T14:02:48.993Z</time>
      </trkpt>
      <trkpt lat="43.01744" lon="1.03656">
        <ele>409</ele>
        <time>2024-06-24T14:02:49.993Z</time>
      </trkpt>
      <trkpt lat="43.01741" lon="1.03658">
        <ele>409</ele>
        <time>2024-06-24T14:02:50.993Z</time>
      </trkpt>
      <trkpt lat="43.01738" lon="1.03661">
        <ele>409</ele>
        <time>2024-06-24T14:02:51.993Z</time>
      </trkpt>
      <trkpt lat="43.01735" lon="1.03663">
        <ele>409</ele>
        <time>2024-06-24T14:02:52.993Z</time>
      </trkpt>
      <trkpt lat="43.01733" lon="1.03665">
        <ele>409.2</ele>
        <time>2024-06-24T14:02:53.993Z</time>
      </trkpt>
      <trkpt lat="43.0173" lon="1.03668">
        <ele>409.6</ele>
        <time>2024-06-24T14:02:54.993Z</time>
      </trkpt>
      <trkpt lat="43.01728" lon="1.0367">
        <ele>409.6</ele>
        <time>2024-06-24T14:02:55.993Z</time>
      </trkpt>
      <trkpt lat="43.01725" lon="1.03673">
        <ele>409.6</ele>
        <time>2024-06-24T14:02:56.993Z</time>
      </trkpt>
      <trkpt lat="43.01723" lon="1.03675">
        <ele>410</ele>
        <time>2024-06-24T14:02:57.993Z</time>
      </trkpt>
      <trkpt lat="43.0172" lon="1.03678">
        <ele>410</ele>
        <time>2024-06-24T14:02:58.993Z</time>
      </trkpt>
      <trkpt lat="43.01717" lon="1.0368">
        <ele>410</ele>
        <time>2024-06-24T14:02:59.993Z</time>
      </trkpt>
      <trkpt lat="43.01715" lon="1.03683">
        <ele>410.6</ele>
        <time>2024-06-24T14:03:00.993Z</time>
      </trkpt>
      <trkpt lat="43.01712" lon="1.03686">
        <ele>410.6</ele>
        <time>2024-06-24T14:03:01.993Z</time>
      </trkpt>
      <trkpt lat="43.0171" lon="1.03688">
        <ele>410.6</ele>
        <time>2024-06-24T14:03:02.993Z</time>
      </trkpt>
      <trkpt lat="43.01707" lon="1.03691">
        <ele>410.2</ele>
        <time>2024-06-24T14:03:03.993Z</time>
      </trkpt>
      <trkpt lat="43.01705" lon="1.03693">
        <ele>410.6</ele>
        <time>2024-06-24T14:03:04.993Z</time>
      </trkpt>
      <trkpt lat="43.01702" lon="1.03696">
        <ele>410.8</ele>
        <time>2024-06-24T14:03:05.993Z</time>
      </trkpt>
      <trkpt lat="43.017" lon="1.03699">
        <ele>410.8</ele>
        <time>2024-06-24T14:03:06.993Z</time>
      </trkpt>
      <trkpt lat="43.01697" lon="1.03701">
        <ele>410.8</ele>
        <time>2024-06-24T14:03:07.993Z</time>
      </trkpt>
      <trkpt lat="43.01694" lon="1.03704">
        <ele>410.8</ele>
        <time>2024-06-24T14:03:08.993Z</time>
      </trkpt>
      <trkpt lat="43.01692" lon="1.03706">
        <ele>410.8</ele>
        <time>2024-06-24T14:03:09.993Z</time>
      </trkpt>
      <trkpt lat="43.01689" lon="1.03709">
        <ele>410.8</ele>
        <time>2024-06-24T14:03:10.993Z</time>
      </trkpt>
      <trkpt lat="43.01686" lon="1.03712">
        <ele>410.8</ele>
        <time>2024-06-24T14:03:11.993Z</time>
      </trkpt>
      <trkpt lat="43.01684" lon="1.03714">
        <ele>411</ele>
        <time>2024-06-24T14:03:12.993Z</time>
      </trkpt>
      <trkpt lat="43.01681" lon="1.03717">
        <ele>411</ele>
        <time>2024-06-24T14:03:13.993Z</time>
      </trkpt>
      <trkpt lat="43.01678" lon="1.0372">
        <ele>411.4</ele>
        <time>2024-06-24T14:03:14.993Z</time>
      </trkpt>
      <trkpt lat="43.01676" lon="1.03723">
        <ele>411.8</ele>
        <time>2024-06-24T14:03:15.993Z</time>
      </trkpt>
      <trkpt lat="43.01673" lon="1.03726">
        <ele>411.8</ele>
        <time>2024-06-24T14:03:16.993Z</time>
      </trkpt>
      <trkpt lat="43.0167" lon="1.03728">
        <ele>411.8</ele>
        <time>2024-06-24T14:03:17.993Z</time>
      </trkpt>
      <trkpt lat="43.01668" lon="1.03731">
        <ele>411.8</ele>
        <time>2024-06-24T14:03:18.993Z</time>
      </trkpt>
      <trkpt lat="43.01665" lon="1.03734">
        <ele>411.8</ele>
        <time>2024-06-24T14:03:19.993Z</time>
      </trkpt>
      <trkpt lat="43.01663" lon="1.03738">
        <ele>411.8</ele>
        <time>2024-06-24T14:03:20.993Z</time>
      </trkpt>
      <trkpt lat="43.0166" lon="1.03741">
        <ele>411.8</ele>
        <time>2024-06-24T14:03:21.993Z</time>
      </trkpt>
      <trkpt lat="43.01658" lon="1.03744">
        <ele>411.8</ele>
        <time>2024-06-24T14:03:22.993Z</time>
      </trkpt>
      <trkpt lat="43.01657" lon="1.03747">
        <ele>411.8</ele>
        <time>2024-06-24T14:03:23.993Z</time>
      </trkpt>
      <trkpt lat="43.01654" lon="1.0375">
        <ele>411.4</ele>
        <time>2024-06-24T14:03:24.993Z</time>
      </trkpt>
      <trkpt lat="43.01652" lon="1.03753">
        <ele>411.4</ele>
        <time>2024-06-24T14:03:25.993Z</time>
      </trkpt>
      <trkpt lat="43.01651" lon="1.03756">
        <ele>411.4</ele>
        <time>2024-06-24T14:03:26.993Z</time>
      </trkpt>
      <trkpt lat="43.01649" lon="1.0376">
        <ele>411.2</ele>
        <time>2024-06-24T14:03:27.993Z</time>
      </trkpt>
      <trkpt lat="43.01647" lon="1.03763">
        <ele>411.4</ele>
        <time>2024-06-24T14:03:28.993Z</time>
      </trkpt>
      <trkpt lat="43.01645" lon="1.03767">
        <ele>411.4</ele>
        <time>2024-06-24T14:03:29.993Z</time>
      </trkpt>
      <trkpt lat="43.01642" lon="1.03771">
        <ele>411.8</ele>
        <time>2024-06-24T14:03:30.993Z</time>
      </trkpt>
      <trkpt lat="43.0164" lon="1.03776">
        <ele>411.8</ele>
        <time>2024-06-24T14:03:31.993Z</time>
      </trkpt>
      <trkpt lat="43.01637" lon="1.0378">
        <ele>411.8</ele>
        <time>2024-06-24T14:03:32.993Z</time>
      </trkpt>
      <trkpt lat="43.01635" lon="1.03784">
        <ele>412.2</ele>
        <time>2024-06-24T14:03:33.993Z</time>
      </trkpt>
      <trkpt lat="43.01633" lon="1.03789">
        <ele>412.4</ele>
        <time>2024-06-24T14:03:34.993Z</time>
      </trkpt>
      <trkpt lat="43.01631" lon="1.03793">
        <ele>412.6</ele>
        <time>2024-06-24T14:03:35.993Z</time>
      </trkpt>
      <trkpt lat="43.01629" lon="1.03797">
        <ele>412.6</ele>
        <time>2024-06-24T14:03:36.993Z</time>
      </trkpt>
      <trkpt lat="43.01627" lon="1.03801">
        <ele>412.6</ele>
        <time>2024-06-24T14:03:37.993Z</time>
      </trkpt>
      <trkpt lat="43.01626" lon="1.03805">
        <ele>412.6</ele>
        <time>2024-06-24T14:03:38.993Z</time>
      </trkpt>
      <trkpt lat="43.01624" lon="1.03809">
        <ele>413</ele>
        <time>2024-06-24T14:03:39.993Z</time>
      </trkpt>
      <trkpt lat="43.01622" lon="1.03813">
        <ele>413</ele>
        <time>2024-06-24T14:03:40.993Z</time>
      </trkpt>
      <trkpt lat="43.01621" lon="1.03816">
        <ele>413</ele>
        <time>2024-06-24T14:03:41.993Z</time>
      </trkpt>
      <trkpt lat="43.01619" lon="1.0382">
        <ele>413.4</ele>
        <time>2024-06-24T14:03:42.993Z</time>
      </trkpt>
      <trkpt lat="43.01618" lon="1.03824">
        <ele>413.4</ele>
        <time>2024-06-24T14:03:43.993Z</time>
      </trkpt>
      <trkpt lat="43.01616" lon="1.03828">
        <ele>414</ele>
        <time>2024-06-24T14:03:44.993Z</time>
      </trkpt>
      <trkpt lat="43.01615" lon="1.03832">
        <ele>414</ele>
        <time>2024-06-24T14:03:45.993Z</time>
      </trkpt>
      <trkpt lat="43.01615" lon="1.03835">
        <ele>414.4</ele>
        <time>2024-06-24T14:03:46.993Z</time>
      </trkpt>
      <trkpt lat="43.01613" lon="1.03839">
        <ele>414.4</ele>
        <time>2024-06-24T14:03:47.993Z</time>
      </trkpt>
      <trkpt lat="43.01612" lon="1.03843">
        <ele>415</ele>
        <time>2024-06-24T14:03:48.993Z</time>
      </trkpt>
      <trkpt lat="43.01611" lon="1.03846">
        <ele>415.4</ele>
        <time>2024-06-24T14:03:49.993Z</time>
      </trkpt>
      <trkpt lat="43.0161" lon="1.03849">
        <ele>415.4</ele>
        <time>2024-06-24T14:03:50.993Z</time>
      </trkpt>
      <trkpt lat="43.01609" lon="1.03852">
        <ele>415.8</ele>
        <time>2024-06-24T14:03:51.993Z</time>
      </trkpt>
      <trkpt lat="43.01608" lon="1.03854">
        <ele>416.2</ele>
        <time>2024-06-24T14:03:52.993Z</time>
      </trkpt>
      <trkpt lat="43.01608" lon="1.03856">
        <ele>416.4</ele>
        <time>2024-06-24T14:03:53.993Z</time>
      </trkpt>
      <trkpt lat="43.01607" lon="1.03859">
        <ele>416.6</ele>
        <time>2024-06-24T14:03:54.993Z</time>
      </trkpt>
      <trkpt lat="43.01606" lon="1.03863">
        <ele>416.6</ele>
        <time>2024-06-24T14:03:55.993Z</time>
      </trkpt>
      <trkpt lat="43.01605" lon="1.03865">
        <ele>417.2</ele>
        <time>2024-06-24T14:03:56.993Z</time>
      </trkpt>
      <trkpt lat="43.01603" lon="1.03867">
        <ele>417.6</ele>
        <time>2024-06-24T14:03:57.993Z</time>
      </trkpt>
      <trkpt lat="43.016" lon="1.0387">
        <ele>417.6</ele>
        <time>2024-06-24T14:03:58.993Z</time>
      </trkpt>
      <trkpt lat="43.01598" lon="1.03872">
        <ele>418</ele>
        <time>2024-06-24T14:03:59.993Z</time>
      </trkpt>
      <trkpt lat="43.01597" lon="1.03875">
        <ele>418</ele>
        <time>2024-06-24T14:04:00.993Z</time>
      </trkpt>
      <trkpt lat="43.01595" lon="1.03878">
        <ele>418</ele>
        <time>2024-06-24T14:04:01.993Z</time>
      </trkpt>
      <trkpt lat="43.01594" lon="1.03881">
        <ele>418.4</ele>
        <time>2024-06-24T14:04:02.993Z</time>
      </trkpt>
      <trkpt lat="43.01593" lon="1.03884">
        <ele>418.4</ele>
        <time>2024-06-24T14:04:03.993Z</time>
      </trkpt>
      <trkpt lat="43.01592" lon="1.03887">
        <ele>418.6</ele>
        <time>2024-06-24T14:04:04.993Z</time>
      </trkpt>
      <trkpt lat="43.0159" lon="1.0389">
        <ele>419</ele>
        <time>2024-06-24T14:04:05.993Z</time>
      </trkpt>
      <trkpt lat="43.01588" lon="1.03893">
        <ele>419.4</ele>
        <time>2024-06-24T14:04:06.993Z</time>
      </trkpt>
      <trkpt lat="43.01586" lon="1.03896">
        <ele>419.4</ele>
        <time>2024-06-24T14:04:07.993Z</time>
      </trkpt>
      <trkpt lat="43.01585" lon="1.03899">
        <ele>419.6</ele>
        <time>2024-06-24T14:04:08.993Z</time>
      </trkpt>
      <trkpt lat="43.01584" lon="1.03902">
        <ele>419.6</ele>
        <time>2024-06-24T14:04:09.993Z</time>
      </trkpt>
      <trkpt lat="43.01582" lon="1.03905">
        <ele>420.2</ele>
        <time>2024-06-24T14:04:10.993Z</time>
      </trkpt>
      <trkpt lat="43.01581" lon="1.03909">
        <ele>420.4</ele>
        <time>2024-06-24T14:04:11.993Z</time>
      </trkpt>
      <trkpt lat="43.01579" lon="1.03912">
        <ele>420.8</ele>
        <time>2024-06-24T14:04:12.993Z</time>
      </trkpt>
      <trkpt lat="43.01578" lon="1.03916">
        <ele>420.8</ele>
        <time>2024-06-24T14:04:13.993Z</time>
      </trkpt>
      <trkpt lat="43.01577" lon="1.03919">
        <ele>420.8</ele>
        <time>2024-06-24T14:04:14.993Z</time>
      </trkpt>
      <trkpt lat="43.01575" lon="1.03922">
        <ele>421</ele>
        <time>2024-06-24T14:04:15.993Z</time>
      </trkpt>
      <trkpt lat="43.01574" lon="1.03925">
        <ele>421</ele>
        <time>2024-06-24T14:04:16.993Z</time>
      </trkpt>
      <trkpt lat="43.01573" lon="1.03926">
        <ele>421.4</ele>
        <time>2024-06-24T14:04:17.993Z</time>
      </trkpt>
      <trkpt lat="43.01571" lon="1.0393">
        <ele>421.6</ele>
        <time>2024-06-24T14:04:18.993Z</time>
      </trkpt>
      <trkpt lat="43.01569" lon="1.03933">
        <ele>421.6</ele>
        <time>2024-06-24T14:04:19.993Z</time>
      </trkpt>
      <trkpt lat="43.01567" lon="1.03936">
        <ele>421.6</ele>
        <time>2024-06-24T14:04:20.993Z</time>
      </trkpt>
      <trkpt lat="43.01565" lon="1.03939">
        <ele>422</ele>
        <time>2024-06-24T14:04:21.993Z</time>
      </trkpt>
      <trkpt lat="43.01563" lon="1.03942">
        <ele>422.2</ele>
        <time>2024-06-24T14:04:22.993Z</time>
      </trkpt>
      <trkpt lat="43.01561" lon="1.03944">
        <ele>422.2</ele>
        <time>2024-06-24T14:04:23.993Z</time>
      </trkpt>
      <trkpt lat="43.0156" lon="1.03946">
        <ele>422.4</ele>
        <time>2024-06-24T14:04:24.993Z</time>
      </trkpt>
      <trkpt lat="43.01558" lon="1.03948">
        <ele>422.6</ele>
        <time>2024-06-24T14:04:25.993Z</time>
      </trkpt>
      <trkpt lat="43.01556" lon="1.03951">
        <ele>422.6</ele>
        <time>2024-06-24T14:04:26.993Z</time>
      </trkpt>
      <trkpt lat="43.01554" lon="1.03953">
        <ele>422.6</ele>
        <time>2024-06-24T14:04:27.993Z</time>
      </trkpt>
      <trkpt lat="43.01552" lon="1.03955">
        <ele>423</ele>
        <time>2024-06-24T14:04:28.993Z</time>
      </trkpt>
      <trkpt lat="43.01549" lon="1.03958">
        <ele>423</ele>
        <time>2024-06-24T14:04:29.993Z</time>
      </trkpt>
      <trkpt lat="43.01547" lon="1.0396">
        <ele>423</ele>
        <time>2024-06-24T14:04:30.993Z</time>
      </trkpt>
      <trkpt lat="43.01546" lon="1.03963">
        <ele>423</ele>
        <time>2024-06-24T14:04:31.993Z</time>
      </trkpt>
      <trkpt lat="43.01544" lon="1.03967">
        <ele>423.4</ele>
        <time>2024-06-24T14:04:32.993Z</time>
      </trkpt>
      <trkpt lat="43.01542" lon="1.03971">
        <ele>423</ele>
        <time>2024-06-24T14:04:33.993Z</time>
      </trkpt>
      <trkpt lat="43.01541" lon="1.03974">
        <ele>423</ele>
        <time>2024-06-24T14:04:34.993Z</time>
      </trkpt>
      <trkpt lat="43.01539" lon="1.03977">
        <ele>423.4</ele>
        <time>2024-06-24T14:04:35.993Z</time>
      </trkpt>
      <trkpt lat="43.01537" lon="1.03981">
        <ele>423.4</ele>
        <time>2024-06-24T14:04:36.993Z</time>
      </trkpt>
      <trkpt lat="43.01536" lon="1.03985">
        <ele>423.6</ele>
        <time>2024-06-24T14:04:37.993Z</time>
      </trkpt>
      <trkpt lat="43.01534" lon="1.03988">
        <ele>423.6</ele>
        <time>2024-06-24T14:04:38.993Z</time>
      </trkpt>
      <trkpt lat="43.01532" lon="1.03992">
        <ele>424.2</ele>
        <time>2024-06-24T14:04:39.993Z</time>
      </trkpt>
      <trkpt lat="43.01531" lon="1.03996">
        <ele>424.6</ele>
        <time>2024-06-24T14:04:40.993Z</time>
      </trkpt>
      <trkpt lat="43.0153" lon="1.04001">
        <ele>424.8</ele>
        <time>2024-06-24T14:04:41.993Z</time>
      </trkpt>
      <trkpt lat="43.01528" lon="1.04005">
        <ele>425.2</ele>
        <time>2024-06-24T14:04:42.993Z</time>
      </trkpt>
      <trkpt lat="43.01527" lon="1.04008">
        <ele>425.4</ele>
        <time>2024-06-24T14:04:43.993Z</time>
      </trkpt>
      <trkpt lat="43.01525" lon="1.04012">
        <ele>425.4</ele>
        <time>2024-06-24T14:04:44.993Z</time>
      </trkpt>
      <trkpt lat="43.01522" lon="1.04015">
        <ele>425.8</ele>
        <time>2024-06-24T14:04:45.993Z</time>
      </trkpt>
      <trkpt lat="43.0152" lon="1.04019">
        <ele>425.8</ele>
        <time>2024-06-24T14:04:46.993Z</time>
      </trkpt>
      <trkpt lat="43.01518" lon="1.04023">
        <ele>425.8</ele>
        <time>2024-06-24T14:04:47.993Z</time>
      </trkpt>
      <trkpt lat="43.01516" lon="1.04027">
        <ele>426.4</ele>
        <time>2024-06-24T14:04:48.993Z</time>
      </trkpt>
      <trkpt lat="43.01514" lon="1.0403">
        <ele>426.6</ele>
        <time>2024-06-24T14:04:49.993Z</time>
      </trkpt>
      <trkpt lat="43.01512" lon="1.04033">
        <ele>426.6</ele>
        <time>2024-06-24T14:04:50.993Z</time>
      </trkpt>
      <trkpt lat="43.01509" lon="1.04037">
        <ele>426.2</ele>
        <time>2024-06-24T14:04:51.993Z</time>
      </trkpt>
      <trkpt lat="43.01507" lon="1.04041">
        <ele>426.2</ele>
        <time>2024-06-24T14:04:52.993Z</time>
      </trkpt>
      <trkpt lat="43.01506" lon="1.04045">
        <ele>426.6</ele>
        <time>2024-06-24T14:04:53.993Z</time>
      </trkpt>
      <trkpt lat="43.01504" lon="1.04048">
        <ele>426.8</ele>
        <time>2024-06-24T14:04:54.993Z</time>
      </trkpt>
      <trkpt lat="43.01503" lon="1.04052">
        <ele>426.6</ele>
        <time>2024-06-24T14:04:55.993Z</time>
      </trkpt>
      <trkpt lat="43.01501" lon="1.04055">
        <ele>426.6</ele>
        <time>2024-06-24T14:04:56.993Z</time>
      </trkpt>
      <trkpt lat="43.015" lon="1.04059">
        <ele>427</ele>
        <time>2024-06-24T14:04:57.993Z</time>
      </trkpt>
      <trkpt lat="43.01498" lon="1.04063">
        <ele>427.4</ele>
        <time>2024-06-24T14:04:58.993Z</time>
      </trkpt>
      <trkpt lat="43.01497" lon="1.04066">
        <ele>428</ele>
        <time>2024-06-24T14:04:59.993Z</time>
      </trkpt>
      <trkpt lat="43.01495" lon="1.0407">
        <ele>428</ele>
        <time>2024-06-24T14:05:00.993Z</time>
      </trkpt>
      <trkpt lat="43.01494" lon="1.04074">
        <ele>428</ele>
        <time>2024-06-24T14:05:01.993Z</time>
      </trkpt>
      <trkpt lat="43.01492" lon="1.04077">
        <ele>428</ele>
        <time>2024-06-24T14:05:02.993Z</time>
      </trkpt>
      <trkpt lat="43.01491" lon="1.0408">
        <ele>428.6</ele>
        <time>2024-06-24T14:05:03.993Z</time>
      </trkpt>
      <trkpt lat="43.01489" lon="1.04083">
        <ele>429</ele>
        <time>2024-06-24T14:05:04.993Z</time>
      </trkpt>
      <trkpt lat="43.01488" lon="1.04085">
        <ele>428</ele>
        <time>2024-06-24T14:05:05.993Z</time>
      </trkpt>
      <trkpt lat="43.01488" lon="1.04087">
        <ele>428</ele>
        <time>2024-06-24T14:05:06.993Z</time>
      </trkpt>
      <trkpt lat="43.01486" lon="1.0409">
        <ele>428.8</ele>
        <time>2024-06-24T14:05:07.993Z</time>
      </trkpt>
      <trkpt lat="43.01485" lon="1.04093">
        <ele>429.2</ele>
        <time>2024-06-24T14:05:08.993Z</time>
      </trkpt>
      <trkpt lat="43.01483" lon="1.04096">
        <ele>429.2</ele>
        <time>2024-06-24T14:05:09.993Z</time>
      </trkpt>
      <trkpt lat="43.01482" lon="1.04098">
        <ele>428.8</ele>
        <time>2024-06-24T14:05:10.993Z</time>
      </trkpt>
      <trkpt lat="43.01481" lon="1.04101">
        <ele>428.8</ele>
        <time>2024-06-24T14:05:11.993Z</time>
      </trkpt>
      <trkpt lat="43.0148" lon="1.04103">
        <ele>429</ele>
        <time>2024-06-24T14:05:12.993Z</time>
      </trkpt>
      <trkpt lat="43.01479" lon="1.04106">
        <ele>429.6</ele>
        <time>2024-06-24T14:05:13.993Z</time>
      </trkpt>
      <trkpt lat="43.01478" lon="1.04108">
        <ele>429.8</ele>
        <time>2024-06-24T14:05:14.993Z</time>
      </trkpt>
      <trkpt lat="43.01477" lon="1.04112">
        <ele>430.4</ele>
        <time>2024-06-24T14:05:15.993Z</time>
      </trkpt>
      <trkpt lat="43.01476" lon="1.04116">
        <ele>430.4</ele>
        <time>2024-06-24T14:05:16.993Z</time>
      </trkpt>
      <trkpt lat="43.01474" lon="1.0412">
        <ele>430.2</ele>
        <time>2024-06-24T14:05:17.993Z</time>
      </trkpt>
      <trkpt lat="43.01472" lon="1.04124">
        <ele>430.6</ele>
        <time>2024-06-24T14:05:18.993Z</time>
      </trkpt>
      <trkpt lat="43.01471" lon="1.04127">
        <ele>430.4</ele>
        <time>2024-06-24T14:05:19.993Z</time>
      </trkpt>
      <trkpt lat="43.01469" lon="1.04131">
        <ele>430.4</ele>
        <time>2024-06-24T14:05:20.993Z</time>
      </trkpt>
      <trkpt lat="43.01468" lon="1.04135">
        <ele>430.8</ele>
        <time>2024-06-24T14:05:21.993Z</time>
      </trkpt>
      <trkpt lat="43.01466" lon="1.04139">
        <ele>430.8</ele>
        <time>2024-06-24T14:05:22.993Z</time>
      </trkpt>
      <trkpt lat="43.01465" lon="1.04142">
        <ele>430.8</ele>
        <time>2024-06-24T14:05:23.993Z</time>
      </trkpt>
      <trkpt lat="43.01463" lon="1.04146">
        <ele>431.2</ele>
        <time>2024-06-24T14:05:24.993Z</time>
      </trkpt>
      <trkpt lat="43.01462" lon="1.04149">
        <ele>431.2</ele>
        <time>2024-06-24T14:05:25.993Z</time>
      </trkpt>
      <trkpt lat="43.0146" lon="1.04153">
        <ele>431.6</ele>
        <time>2024-06-24T14:05:26.993Z</time>
      </trkpt>
      <trkpt lat="43.01458" lon="1.04157">
        <ele>431.6</ele>
        <time>2024-06-24T14:05:27.993Z</time>
      </trkpt>
      <trkpt lat="43.01457" lon="1.0416">
        <ele>431.6</ele>
        <time>2024-06-24T14:05:28.993Z</time>
      </trkpt>
      <trkpt lat="43.01456" lon="1.04164">
        <ele>432</ele>
        <time>2024-06-24T14:05:29.993Z</time>
      </trkpt>
      <trkpt lat="43.01454" lon="1.04168">
        <ele>432</ele>
        <time>2024-06-24T14:05:30.993Z</time>
      </trkpt>
      <trkpt lat="43.01452" lon="1.04171">
        <ele>432</ele>
        <time>2024-06-24T14:05:31.993Z</time>
      </trkpt>
      <trkpt lat="43.0145" lon="1.04175">
        <ele>432</ele>
        <time>2024-06-24T14:05:32.993Z</time>
      </trkpt>
      <trkpt lat="43.01448" lon="1.04179">
        <ele>432.2</ele>
        <time>2024-06-24T14:05:33.993Z</time>
      </trkpt>
      <trkpt lat="43.01446" lon="1.04182">
        <ele>432.2</ele>
        <time>2024-06-24T14:05:34.993Z</time>
      </trkpt>
      <trkpt lat="43.01444" lon="1.04186">
        <ele>432.2</ele>
        <time>2024-06-24T14:05:35.993Z</time>
      </trkpt>
      <trkpt lat="43.01442" lon="1.04189">
        <ele>432.2</ele>
        <time>2024-06-24T14:05:36.993Z</time>
      </trkpt>
      <trkpt lat="43.0144" lon="1.04193">
        <ele>432.4</ele>
        <time>2024-06-24T14:05:37.993Z</time>
      </trkpt>
      <trkpt lat="43.01437" lon="1.04196">
        <ele>432.4</ele>
        <time>2024-06-24T14:05:38.993Z</time>
      </trkpt>
      <trkpt lat="43.01434" lon="1.04199">
        <ele>432.2</ele>
        <time>2024-06-24T14:05:39.993Z</time>
      </trkpt>
      <trkpt lat="43.01431" lon="1.04201">
        <ele>432.2</ele>
        <time>2024-06-24T14:05:40.993Z</time>
      </trkpt>
      <trkpt lat="43.01427" lon="1.04203">
        <ele>432.4</ele>
        <time>2024-06-24T14:05:41.993Z</time>
      </trkpt>
      <trkpt lat="43.01424" lon="1.04204">
        <ele>432.4</ele>
        <time>2024-06-24T14:05:42.993Z</time>
      </trkpt>
      <trkpt lat="43.01421" lon="1.04205">
        <ele>432.4</ele>
        <time>2024-06-24T14:05:43.993Z</time>
      </trkpt>
      <trkpt lat="43.01418" lon="1.04206">
        <ele>432.4</ele>
        <time>2024-06-24T14:05:44.993Z</time>
      </trkpt>
      <trkpt lat="43.01414" lon="1.04207">
        <ele>432.4</ele>
        <time>2024-06-24T14:05:45.993Z</time>
      </trkpt>
      <trkpt lat="43.01411" lon="1.04208">
        <ele>432.4</ele>
        <time>2024-06-24T14:05:46.993Z</time>
      </trkpt>
      <trkpt lat="43.01408" lon="1.04209">
        <ele>432.4</ele>
        <time>2024-06-24T14:05:47.993Z</time>
      </trkpt>
      <trkpt lat="43.01405" lon="1.0421">
        <ele>432.4</ele>
        <time>2024-06-24T14:05:48.993Z</time>
      </trkpt>
      <trkpt lat="43.01405" lon="1.0421">
        <ele>432.4</ele>
        <time>2024-06-24T14:05:49.993Z</time>
      </trkpt>
      <trkpt lat="43.01401" lon="1.0421">
        <ele>432.4</ele>
        <time>2024-06-24T14:05:50.993Z</time>
      </trkpt>
      <trkpt lat="43.01398" lon="1.0421">
        <ele>432.4</ele>
        <time>2024-06-24T14:05:51.993Z</time>
      </trkpt>
      <trkpt lat="43.01395" lon="1.04209">
        <ele>432.8</ele>
        <time>2024-06-24T14:05:52.993Z</time>
      </trkpt>
      <trkpt lat="43.01392" lon="1.04208">
        <ele>432.6</ele>
        <time>2024-06-24T14:05:53.993Z</time>
      </trkpt>
      <trkpt lat="43.01389" lon="1.04207">
        <ele>432.6</ele>
        <time>2024-06-24T14:05:54.993Z</time>
      </trkpt>
      <trkpt lat="43.01386" lon="1.04207">
        <ele>432.6</ele>
        <time>2024-06-24T14:05:55.993Z</time>
      </trkpt>
      <trkpt lat="43.01383" lon="1.04207">
        <ele>432.6</ele>
        <time>2024-06-24T14:05:56.993Z</time>
      </trkpt>
      <trkpt lat="43.0138" lon="1.04206">
        <ele>432.6</ele>
        <time>2024-06-24T14:05:57.993Z</time>
      </trkpt>
      <trkpt lat="43.01377" lon="1.04206">
        <ele>433.2</ele>
        <time>2024-06-24T14:05:58.993Z</time>
      </trkpt>
      <trkpt lat="43.01374" lon="1.04205">
        <ele>433.4</ele>
        <time>2024-06-24T14:05:59.993Z</time>
      </trkpt>
      <trkpt lat="43.01371" lon="1.04204">
        <ele>433.4</ele>
        <time>2024-06-24T14:06:00.993Z</time>
      </trkpt>
      <trkpt lat="43.01369" lon="1.04203">
        <ele>433.4</ele>
        <time>2024-06-24T14:06:01.993Z</time>
      </trkpt>
      <trkpt lat="43.01366" lon="1.04202">
        <ele>433.6</ele>
        <time>2024-06-24T14:06:02.993Z</time>
      </trkpt>
      <trkpt lat="43.01363" lon="1.04201">
        <ele>433.6</ele>
        <time>2024-06-24T14:06:03.993Z</time>
      </trkpt>
      <trkpt lat="43.01361" lon="1.04201">
        <ele>433.6</ele>
        <time>2024-06-24T14:06:04.993Z</time>
      </trkpt>
      <trkpt lat="43.01358" lon="1.04201">
        <ele>434</ele>
        <time>2024-06-24T14:06:05.993Z</time>
      </trkpt>
      <trkpt lat="43.01355" lon="1.04201">
        <ele>433.8</ele>
        <time>2024-06-24T14:06:06.993Z</time>
      </trkpt>
      <trkpt lat="43.01353" lon="1.04201">
        <ele>433.8</ele>
        <time>2024-06-24T14:06:07.993Z</time>
      </trkpt>
      <trkpt lat="43.01351" lon="1.04203">
        <ele>433.8</ele>
        <time>2024-06-24T14:06:08.993Z</time>
      </trkpt>
      <trkpt lat="43.0135" lon="1.04207">
        <ele>433.8</ele>
        <time>2024-06-24T14:06:09.993Z</time>
      </trkpt>
      <trkpt lat="43.0135" lon="1.04211">
        <ele>434</ele>
        <time>2024-06-24T14:06:10.993Z</time>
      </trkpt>
      <trkpt lat="43.0135" lon="1.04216">
        <ele>434</ele>
        <time>2024-06-24T14:06:11.993Z</time>
      </trkpt>
      <trkpt lat="43.0135" lon="1.0422">
        <ele>434</ele>
        <time>2024-06-24T14:06:12.993Z</time>
      </trkpt>
      <trkpt lat="43.0135" lon="1.04225">
        <ele>434</ele>
        <time>2024-06-24T14:06:13.993Z</time>
      </trkpt>
      <trkpt lat="43.01351" lon="1.0423">
        <ele>434</ele>
        <time>2024-06-24T14:06:14.993Z</time>
      </trkpt>
      <trkpt lat="43.01353" lon="1.04235">
        <ele>434</ele>
        <time>2024-06-24T14:06:15.993Z</time>
      </trkpt>
      <trkpt lat="43.01355" lon="1.04239">
        <ele>434</ele>
        <time>2024-06-24T14:06:16.993Z</time>
      </trkpt>
      <trkpt lat="43.01358" lon="1.04242">
        <ele>434</ele>
        <time>2024-06-24T14:06:17.993Z</time>
      </trkpt>
      <trkpt lat="43.0136" lon="1.04246">
        <ele>434</ele>
        <time>2024-06-24T14:06:18.993Z</time>
      </trkpt>
      <trkpt lat="43.01362" lon="1.0425">
        <ele>433.8</ele>
        <time>2024-06-24T14:06:19.993Z</time>
      </trkpt>
      <trkpt lat="43.01365" lon="1.04254">
        <ele>433.8</ele>
        <time>2024-06-24T14:06:20.993Z</time>
      </trkpt>
      <trkpt lat="43.01366" lon="1.04258">
        <ele>433.8</ele>
        <time>2024-06-24T14:06:21.993Z</time>
      </trkpt>
      <trkpt lat="43.01368" lon="1.04262">
        <ele>433.8</ele>
        <time>2024-06-24T14:06:22.993Z</time>
      </trkpt>
      <trkpt lat="43.0137" lon="1.04266">
        <ele>433.8</ele>
        <time>2024-06-24T14:06:23.993Z</time>
      </trkpt>
      <trkpt lat="43.01371" lon="1.04269">
        <ele>434</ele>
        <time>2024-06-24T14:06:24.993Z</time>
      </trkpt>
      <trkpt lat="43.01372" lon="1.04273">
        <ele>434</ele>
        <time>2024-06-24T14:06:25.993Z</time>
      </trkpt>
      <trkpt lat="43.01373" lon="1.04277">
        <ele>433.8</ele>
        <time>2024-06-24T14:06:26.993Z</time>
      </trkpt>
      <trkpt lat="43.01375" lon="1.04281">
        <ele>433.8</ele>
        <time>2024-06-24T14:06:27.993Z</time>
      </trkpt>
      <trkpt lat="43.01376" lon="1.04285">
        <ele>433.8</ele>
        <time>2024-06-24T14:06:28.993Z</time>
      </trkpt>
      <trkpt lat="43.01378" lon="1.04289">
        <ele>433.8</ele>
        <time>2024-06-24T14:06:29.993Z</time>
      </trkpt>
      <trkpt lat="43.0138" lon="1.04293">
        <ele>433.6</ele>
        <time>2024-06-24T14:06:30.993Z</time>
      </trkpt>
      <trkpt lat="43.01382" lon="1.04298">
        <ele>433.6</ele>
        <time>2024-06-24T14:06:31.993Z</time>
      </trkpt>
      <trkpt lat="43.01384" lon="1.04304">
        <ele>433.8</ele>
        <time>2024-06-24T14:06:32.993Z</time>
      </trkpt>
      <trkpt lat="43.01385" lon="1.04311">
        <ele>433.2</ele>
        <time>2024-06-24T14:06:33.993Z</time>
      </trkpt>
      <trkpt lat="43.01385" lon="1.04318">
        <ele>433.2</ele>
        <time>2024-06-24T14:06:34.993Z</time>
      </trkpt>
      <trkpt lat="43.01384" lon="1.04326">
        <ele>432.4</ele>
        <time>2024-06-24T14:06:35.993Z</time>
      </trkpt>
      <trkpt lat="43.01382" lon="1.04333">
        <ele>432</ele>
        <time>2024-06-24T14:06:36.993Z</time>
      </trkpt>
      <trkpt lat="43.01381" lon="1.04341">
        <ele>431.6</ele>
        <time>2024-06-24T14:06:37.993Z</time>
      </trkpt>
      <trkpt lat="43.0138" lon="1.04348">
        <ele>431.2</ele>
        <time>2024-06-24T14:06:38.993Z</time>
      </trkpt>
      <trkpt lat="43.01379" lon="1.04356">
        <ele>430.8</ele>
        <time>2024-06-24T14:06:39.993Z</time>
      </trkpt>
      <trkpt lat="43.01378" lon="1.04364">
        <ele>430.8</ele>
        <time>2024-06-24T14:06:40.993Z</time>
      </trkpt>
      <trkpt lat="43.01375" lon="1.0437">
        <ele>430.4</ele>
        <time>2024-06-24T14:06:41.993Z</time>
      </trkpt>
      <trkpt lat="43.01372" lon="1.04375">
        <ele>430.4</ele>
        <time>2024-06-24T14:06:42.993Z</time>
      </trkpt>
      <trkpt lat="43.01368" lon="1.0438">
        <ele>430.4</ele>
        <time>2024-06-24T14:06:43.993Z</time>
      </trkpt>
      <trkpt lat="43.01365" lon="1.04385">
        <ele>430</ele>
        <time>2024-06-24T14:06:44.993Z</time>
      </trkpt>
      <trkpt lat="43.01363" lon="1.0439">
        <ele>430.2</ele>
        <time>2024-06-24T14:06:45.993Z</time>
      </trkpt>
      <trkpt lat="43.01361" lon="1.04395">
        <ele>430.2</ele>
        <time>2024-06-24T14:06:46.993Z</time>
      </trkpt>
      <trkpt lat="43.0136" lon="1.04401">
        <ele>430.2</ele>
        <time>2024-06-24T14:06:47.993Z</time>
      </trkpt>
      <trkpt lat="43.01358" lon="1.04406">
        <ele>430.2</ele>
        <time>2024-06-24T14:06:48.993Z</time>
      </trkpt>
      <trkpt lat="43.01357" lon="1.04411">
        <ele>429.8</ele>
        <time>2024-06-24T14:06:49.993Z</time>
      </trkpt>
      <trkpt lat="43.01357" lon="1.04416">
        <ele>430.6</ele>
        <time>2024-06-24T14:06:50.993Z</time>
      </trkpt>
      <trkpt lat="43.01357" lon="1.04421">
        <ele>431</ele>
        <time>2024-06-24T14:06:51.993Z</time>
      </trkpt>
      <trkpt lat="43.01356" lon="1.04425">
        <ele>431</ele>
        <time>2024-06-24T14:06:52.993Z</time>
      </trkpt>
      <trkpt lat="43.01356" lon="1.04429">
        <ele>431</ele>
        <time>2024-06-24T14:06:53.993Z</time>
      </trkpt>
      <trkpt lat="43.01357" lon="1.04434">
        <ele>430.6</ele>
        <time>2024-06-24T14:06:54.993Z</time>
      </trkpt>
      <trkpt lat="43.01357" lon="1.04437">
        <ele>431</ele>
        <time>2024-06-24T14:06:55.993Z</time>
      </trkpt>
      <trkpt lat="43.01359" lon="1.0444">
        <ele>431</ele>
        <time>2024-06-24T14:06:56.993Z</time>
      </trkpt>
      <trkpt lat="43.01359" lon="1.04444">
        <ele>431.2</ele>
        <time>2024-06-24T14:06:57.993Z</time>
      </trkpt>
      <trkpt lat="43.01361" lon="1.04447">
        <ele>431.2</ele>
        <time>2024-06-24T14:06:58.993Z</time>
      </trkpt>
      <trkpt lat="43.01362" lon="1.04449">
        <ele>432.2</ele>
        <time>2024-06-24T14:06:59.993Z</time>
      </trkpt>
      <trkpt lat="43.01363" lon="1.04452">
        <ele>432.4</ele>
        <time>2024-06-24T14:07:00.993Z</time>
      </trkpt>
      <trkpt lat="43.01365" lon="1.04455">
        <ele>432.4</ele>
        <time>2024-06-24T14:07:01.993Z</time>
      </trkpt>
      <trkpt lat="43.01366" lon="1.04457">
        <ele>432.8</ele>
        <time>2024-06-24T14:07:02.993Z</time>
      </trkpt>
      <trkpt lat="43.01367" lon="1.0446">
        <ele>433</ele>
        <time>2024-06-24T14:07:03.993Z</time>
      </trkpt>
      <trkpt lat="43.01368" lon="1.04464">
        <ele>433.4</ele>
        <time>2024-06-24T14:07:04.993Z</time>
      </trkpt>
      <trkpt lat="43.01369" lon="1.04467">
        <ele>433.8</ele>
        <time>2024-06-24T14:07:05.993Z</time>
      </trkpt>
      <trkpt lat="43.0137" lon="1.04471">
        <ele>434.2</ele>
        <time>2024-06-24T14:07:06.993Z</time>
      </trkpt>
      <trkpt lat="43.0137" lon="1.04474">
        <ele>434.4</ele>
        <time>2024-06-24T14:07:07.993Z</time>
      </trkpt>
      <trkpt lat="43.0137" lon="1.04478">
        <ele>434.6</ele>
        <time>2024-06-24T14:07:08.993Z</time>
      </trkpt>
      <trkpt lat="43.01371" lon="1.04481">
        <ele>434.6</ele>
        <time>2024-06-24T14:07:09.993Z</time>
      </trkpt>
      <trkpt lat="43.01371" lon="1.04484">
        <ele>434.4</ele>
        <time>2024-06-24T14:07:10.993Z</time>
      </trkpt>
      <trkpt lat="43.01372" lon="1.04488">
        <ele>435</ele>
        <time>2024-06-24T14:07:11.993Z</time>
      </trkpt>
      <trkpt lat="43.01372" lon="1.04492">
        <ele>435.4</ele>
        <time>2024-06-24T14:07:12.993Z</time>
      </trkpt>
      <trkpt lat="43.01373" lon="1.04496">
        <ele>436</ele>
        <time>2024-06-24T14:07:13.993Z</time>
      </trkpt>
      <trkpt lat="43.01374" lon="1.045">
        <ele>436</ele>
        <time>2024-06-24T14:07:14.993Z</time>
      </trkpt>
      <trkpt lat="43.01375" lon="1.04504">
        <ele>436</ele>
        <time>2024-06-24T14:07:15.993Z</time>
      </trkpt>
      <trkpt lat="43.01375" lon="1.04509">
        <ele>436</ele>
        <time>2024-06-24T14:07:16.993Z</time>
      </trkpt>
      <trkpt lat="43.01375" lon="1.04513">
        <ele>436</ele>
        <time>2024-06-24T14:07:17.993Z</time>
      </trkpt>
      <trkpt lat="43.01376" lon="1.04517">
        <ele>436</ele>
        <time>2024-06-24T14:07:18.993Z</time>
      </trkpt>
      <trkpt lat="43.01377" lon="1.04521">
        <ele>436</ele>
        <time>2024-06-24T14:07:19.993Z</time>
      </trkpt>
      <trkpt lat="43.01378" lon="1.04526">
        <ele>436</ele>
        <time>2024-06-24T14:07:20.993Z</time>
      </trkpt>
      <trkpt lat="43.01379" lon="1.0453">
        <ele>436.6</ele>
        <time>2024-06-24T14:07:21.993Z</time>
      </trkpt>
      <trkpt lat="43.01379" lon="1.04535">
        <ele>436.6</ele>
        <time>2024-06-24T14:07:22.993Z</time>
      </trkpt>
      <trkpt lat="43.01381" lon="1.04542">
        <ele>436.6</ele>
        <time>2024-06-24T14:07:23.993Z</time>
      </trkpt>
      <trkpt lat="43.01382" lon="1.04547">
        <ele>436.2</ele>
        <time>2024-06-24T14:07:24.993Z</time>
      </trkpt>
      <trkpt lat="43.01381" lon="1.04553">
        <ele>436.2</ele>
        <time>2024-06-24T14:07:25.993Z</time>
      </trkpt>
      <trkpt lat="43.01381" lon="1.04558">
        <ele>436</ele>
        <time>2024-06-24T14:07:26.993Z</time>
      </trkpt>
      <trkpt lat="43.01381" lon="1.04564">
        <ele>436</ele>
        <time>2024-06-24T14:07:27.993Z</time>
      </trkpt>
      <trkpt lat="43.01382" lon="1.0457">
        <ele>435.4</ele>
        <time>2024-06-24T14:07:28.993Z</time>
      </trkpt>
      <trkpt lat="43.01382" lon="1.04576">
        <ele>435.2</ele>
        <time>2024-06-24T14:07:29.993Z</time>
      </trkpt>
      <trkpt lat="43.01383" lon="1.04582">
        <ele>435.2</ele>
        <time>2024-06-24T14:07:30.993Z</time>
      </trkpt>
      <trkpt lat="43.01385" lon="1.04588">
        <ele>435.2</ele>
        <time>2024-06-24T14:07:31.993Z</time>
      </trkpt>
      <trkpt lat="43.01385" lon="1.04593">
        <ele>435.2</ele>
        <time>2024-06-24T14:07:32.993Z</time>
      </trkpt>
      <trkpt lat="43.01385" lon="1.04599">
        <ele>435.2</ele>
        <time>2024-06-24T14:07:33.993Z</time>
      </trkpt>
      <trkpt lat="43.01386" lon="1.04605">
        <ele>434.8</ele>
        <time>2024-06-24T14:07:34.993Z</time>
      </trkpt>
      <trkpt lat="43.01386" lon="1.04612">
        <ele>434</ele>
        <time>2024-06-24T14:07:35.993Z</time>
      </trkpt>
      <trkpt lat="43.01386" lon="1.04618">
        <ele>433.6</ele>
        <time>2024-06-24T14:07:36.993Z</time>
      </trkpt>
      <trkpt lat="43.01386" lon="1.04624">
        <ele>434.2</ele>
        <time>2024-06-24T14:07:37.993Z</time>
      </trkpt>
      <trkpt lat="43.01386" lon="1.0463">
        <ele>434.2</ele>
        <time>2024-06-24T14:07:38.993Z</time>
      </trkpt>
      <trkpt lat="43.01386" lon="1.04635">
        <ele>434.2</ele>
        <time>2024-06-24T14:07:39.993Z</time>
      </trkpt>
      <trkpt lat="43.01386" lon="1.04641">
        <ele>434.2</ele>
        <time>2024-06-24T14:07:40.993Z</time>
      </trkpt>
      <trkpt lat="43.01385" lon="1.04647">
        <ele>433.8</ele>
        <time>2024-06-24T14:07:41.993Z</time>
      </trkpt>
      <trkpt lat="43.01385" lon="1.04652">
        <ele>433.4</ele>
        <time>2024-06-24T14:07:42.993Z</time>
      </trkpt>
      <trkpt lat="43.01385" lon="1.04658">
        <ele>433.6</ele>
        <time>2024-06-24T14:07:43.993Z</time>
      </trkpt>
      <trkpt lat="43.01384" lon="1.04663">
        <ele>433.6</ele>
        <time>2024-06-24T14:07:44.993Z</time>
      </trkpt>
      <trkpt lat="43.01384" lon="1.0467">
        <ele>433.6</ele>
        <time>2024-06-24T14:07:45.993Z</time>
      </trkpt>
      <trkpt lat="43.01385" lon="1.04675">
        <ele>433.6</ele>
        <time>2024-06-24T14:07:46.993Z</time>
      </trkpt>
      <trkpt lat="43.01385" lon="1.0468">
        <ele>433.6</ele>
        <time>2024-06-24T14:07:47.993Z</time>
      </trkpt>
      <trkpt lat="43.01385" lon="1.04686">
        <ele>433.6</ele>
        <time>2024-06-24T14:07:48.993Z</time>
      </trkpt>
      <trkpt lat="43.01385" lon="1.04691">
        <ele>433.4</ele>
        <time>2024-06-24T14:07:49.993Z</time>
      </trkpt>
      <trkpt lat="43.01384" lon="1.04696">
        <ele>433.4</ele>
        <time>2024-06-24T14:07:50.993Z</time>
      </trkpt>
      <trkpt lat="43.01385" lon="1.047">
        <ele>433.4</ele>
        <time>2024-06-24T14:07:51.993Z</time>
      </trkpt>
      <trkpt lat="43.01384" lon="1.04705">
        <ele>433.4</ele>
        <time>2024-06-24T14:07:52.993Z</time>
      </trkpt>
      <trkpt lat="43.01384" lon="1.0471">
        <ele>433.4</ele>
        <time>2024-06-24T14:07:53.993Z</time>
      </trkpt>
      <trkpt lat="43.01382" lon="1.04716">
        <ele>433.4</ele>
        <time>2024-06-24T14:07:54.993Z</time>
      </trkpt>
      <trkpt lat="43.01382" lon="1.04721">
        <ele>433.4</ele>
        <time>2024-06-24T14:07:55.993Z</time>
      </trkpt>
      <trkpt lat="43.0138" lon="1.04726">
        <ele>433.4</ele>
        <time>2024-06-24T14:07:56.993Z</time>
      </trkpt>
      <trkpt lat="43.01379" lon="1.0473">
        <ele>433.4</ele>
        <time>2024-06-24T14:07:57.993Z</time>
      </trkpt>
      <trkpt lat="43.01378" lon="1.04735">
        <ele>433</ele>
        <time>2024-06-24T14:07:58.993Z</time>
      </trkpt>
      <trkpt lat="43.01378" lon="1.04739">
        <ele>432.8</ele>
        <time>2024-06-24T14:07:59.993Z</time>
      </trkpt>
      <trkpt lat="43.01377" lon="1.04743">
        <ele>432.8</ele>
        <time>2024-06-24T14:08:00.993Z</time>
      </trkpt>
      <trkpt lat="43.01376" lon="1.04747">
        <ele>433.2</ele>
        <time>2024-06-24T14:08:01.993Z</time>
      </trkpt>
      <trkpt lat="43.01375" lon="1.04751">
        <ele>433.6</ele>
        <time>2024-06-24T14:08:02.993Z</time>
      </trkpt>
      <trkpt lat="43.01374" lon="1.04756">
        <ele>433.6</ele>
        <time>2024-06-24T14:08:03.993Z</time>
      </trkpt>
      <trkpt lat="43.01372" lon="1.04759">
        <ele>433.8</ele>
        <time>2024-06-24T14:08:04.993Z</time>
      </trkpt>
      <trkpt lat="43.01371" lon="1.04762">
        <ele>433.8</ele>
        <time>2024-06-24T14:08:05.993Z</time>
      </trkpt>
      <trkpt lat="43.01368" lon="1.04764">
        <ele>434.6</ele>
        <time>2024-06-24T14:08:06.993Z</time>
      </trkpt>
      <trkpt lat="43.01366" lon="1.04766">
        <ele>434.6</ele>
        <time>2024-06-24T14:08:07.993Z</time>
      </trkpt>
      <trkpt lat="43.01364" lon="1.04769">
        <ele>434.6</ele>
        <time>2024-06-24T14:08:08.993Z</time>
      </trkpt>
      <trkpt lat="43.01362" lon="1.04771">
        <ele>435</ele>
        <time>2024-06-24T14:08:09.993Z</time>
      </trkpt>
      <trkpt lat="43.0136" lon="1.04774">
        <ele>435.2</ele>
        <time>2024-06-24T14:08:10.993Z</time>
      </trkpt>
      <trkpt lat="43.01358" lon="1.04777">
        <ele>435.6</ele>
        <time>2024-06-24T14:08:11.993Z</time>
      </trkpt>
      <trkpt lat="43.01355" lon="1.04779">
        <ele>436.2</ele>
        <time>2024-06-24T14:08:12.993Z</time>
      </trkpt>
      <trkpt lat="43.01353" lon="1.04781">
        <ele>436.6</ele>
        <time>2024-06-24T14:08:13.993Z</time>
      </trkpt>
      <trkpt lat="43.0135" lon="1.04783">
        <ele>436.8</ele>
        <time>2024-06-24T14:08:14.993Z</time>
      </trkpt>
      <trkpt lat="43.01348" lon="1.04785">
        <ele>436.8</ele>
        <time>2024-06-24T14:08:15.993Z</time>
      </trkpt>
      <trkpt lat="43.01346" lon="1.04788">
        <ele>437.4</ele>
        <time>2024-06-24T14:08:16.993Z</time>
      </trkpt>
      <trkpt lat="43.01344" lon="1.0479">
        <ele>437.8</ele>
        <time>2024-06-24T14:08:17.993Z</time>
      </trkpt>
      <trkpt lat="43.01342" lon="1.04791">
        <ele>438</ele>
        <time>2024-06-24T14:08:18.993Z</time>
      </trkpt>
      <trkpt lat="43.01341" lon="1.04792">
        <ele>438.4</ele>
        <time>2024-06-24T14:08:19.993Z</time>
      </trkpt>
      <trkpt lat="43.01339" lon="1.04793">
        <ele>438.8</ele>
        <time>2024-06-24T14:08:20.993Z</time>
      </trkpt>
      <trkpt lat="43.01337" lon="1.04795">
        <ele>438.8</ele>
        <time>2024-06-24T14:08:21.993Z</time>
      </trkpt>
      <trkpt lat="43.01335" lon="1.04797">
        <ele>439.4</ele>
        <time>2024-06-24T14:08:22.993Z</time>
      </trkpt>
      <trkpt lat="43.01333" lon="1.04799">
        <ele>439.6</ele>
        <time>2024-06-24T14:08:23.993Z</time>
      </trkpt>
      <trkpt lat="43.01331" lon="1.04801">
        <ele>440</ele>
        <time>2024-06-24T14:08:24.993Z</time>
      </trkpt>
      <trkpt lat="43.01329" lon="1.04803">
        <ele>440</ele>
        <time>2024-06-24T14:08:25.993Z</time>
      </trkpt>
      <trkpt lat="43.01327" lon="1.04806">
        <ele>440.4</ele>
        <time>2024-06-24T14:08:26.993Z</time>
      </trkpt>
      <trkpt lat="43.01326" lon="1.04808">
        <ele>440.8</ele>
        <time>2024-06-24T14:08:27.993Z</time>
      </trkpt>
      <trkpt lat="43.01324" lon="1.0481">
        <ele>441</ele>
        <time>2024-06-24T14:08:28.993Z</time>
      </trkpt>
      <trkpt lat="43.01323" lon="1.04811">
        <ele>441</ele>
        <time>2024-06-24T14:08:29.993Z</time>
      </trkpt>
      <trkpt lat="43.01321" lon="1.04814">
        <ele>441.6</ele>
        <time>2024-06-24T14:08:30.993Z</time>
      </trkpt>
      <trkpt lat="43.01318" lon="1.04816">
        <ele>442</ele>
        <time>2024-06-24T14:08:31.993Z</time>
      </trkpt>
      <trkpt lat="43.01317" lon="1.04817">
        <ele>442</ele>
        <time>2024-06-24T14:08:32.993Z</time>
      </trkpt>
      <trkpt lat="43.01315" lon="1.04818">
        <ele>442.4</ele>
        <time>2024-06-24T14:08:33.993Z</time>
      </trkpt>
      <trkpt lat="43.01313" lon="1.0482">
        <ele>442.4</ele>
        <time>2024-06-24T14:08:34.993Z</time>
      </trkpt>
      <trkpt lat="43.01312" lon="1.04822">
        <ele>442.4</ele>
        <time>2024-06-24T14:08:35.993Z</time>
      </trkpt>
      <trkpt lat="43.0131" lon="1.04825">
        <ele>442.6</ele>
        <time>2024-06-24T14:08:36.993Z</time>
      </trkpt>
      <trkpt lat="43.01308" lon="1.04827">
        <ele>443</ele>
        <time>2024-06-24T14:08:37.993Z</time>
      </trkpt>
      <trkpt lat="43.01306" lon="1.04829">
        <ele>443</ele>
        <time>2024-06-24T14:08:38.993Z</time>
      </trkpt>
      <trkpt lat="43.01304" lon="1.04831">
        <ele>443</ele>
        <time>2024-06-24T14:08:39.993Z</time>
      </trkpt>
      <trkpt lat="43.01302" lon="1.04834">
        <ele>443.4</ele>
        <time>2024-06-24T14:08:40.993Z</time>
      </trkpt>
      <trkpt lat="43.013" lon="1.04836">
        <ele>443.8</ele>
        <time>2024-06-24T14:08:41.993Z</time>
      </trkpt>
      <trkpt lat="43.01298" lon="1.04838">
        <ele>443.8</ele>
        <time>2024-06-24T14:08:42.993Z</time>
      </trkpt>
      <trkpt lat="43.01296" lon="1.0484">
        <ele>443.8</ele>
        <time>2024-06-24T14:08:43.993Z</time>
      </trkpt>
      <trkpt lat="43.01294" lon="1.04842">
        <ele>444</ele>
        <time>2024-06-24T14:08:44.993Z</time>
      </trkpt>
      <trkpt lat="43.01292" lon="1.04845">
        <ele>444</ele>
        <time>2024-06-24T14:08:45.993Z</time>
      </trkpt>
      <trkpt lat="43.01289" lon="1.04847">
        <ele>444</ele>
        <time>2024-06-24T14:08:46.993Z</time>
      </trkpt>
      <trkpt lat="43.01287" lon="1.04849">
        <ele>444.2</ele>
        <time>2024-06-24T14:08:47.993Z</time>
      </trkpt>
      <trkpt lat="43.01285" lon="1.04851">
        <ele>444.2</ele>
        <time>2024-06-24T14:08:48.993Z</time>
      </trkpt>
      <trkpt lat="43.01282" lon="1.04853">
        <ele>444.6</ele>
        <time>2024-06-24T14:08:49.993Z</time>
      </trkpt>
      <trkpt lat="43.0128" lon="1.04855">
        <ele>444.6</ele>
        <time>2024-06-24T14:08:50.993Z</time>
      </trkpt>
      <trkpt lat="43.01278" lon="1.04857">
        <ele>444.6</ele>
        <time>2024-06-24T14:08:51.993Z</time>
      </trkpt>
      <trkpt lat="43.01275" lon="1.0486">
        <ele>444.8</ele>
        <time>2024-06-24T14:08:52.993Z</time>
      </trkpt>
      <trkpt lat="43.01273" lon="1.04862">
        <ele>444.8</ele>
        <time>2024-06-24T14:08:53.993Z</time>
      </trkpt>
      <trkpt lat="43.0127" lon="1.04866">
        <ele>444.8</ele>
        <time>2024-06-24T14:08:54.993Z</time>
      </trkpt>
      <trkpt lat="43.01268" lon="1.04869">
        <ele>444.8</ele>
        <time>2024-06-24T14:08:55.993Z</time>
      </trkpt>
      <trkpt lat="43.01265" lon="1.04872">
        <ele>444.8</ele>
        <time>2024-06-24T14:08:56.993Z</time>
      </trkpt>
      <trkpt lat="43.01263" lon="1.04875">
        <ele>444.8</ele>
        <time>2024-06-24T14:08:57.993Z</time>
      </trkpt>
      <trkpt lat="43.0126" lon="1.04878">
        <ele>444.4</ele>
        <time>2024-06-24T14:08:58.993Z</time>
      </trkpt>
      <trkpt lat="43.01258" lon="1.04883">
        <ele>444.4</ele>
        <time>2024-06-24T14:08:59.993Z</time>
      </trkpt>
      <trkpt lat="43.01256" lon="1.04887">
        <ele>444.4</ele>
        <time>2024-06-24T14:09:00.993Z</time>
      </trkpt>
      <trkpt lat="43.01255" lon="1.04891">
        <ele>444.4</ele>
        <time>2024-06-24T14:09:01.993Z</time>
      </trkpt>
      <trkpt lat="43.01253" lon="1.04895">
        <ele>444.4</ele>
        <time>2024-06-24T14:09:02.993Z</time>
      </trkpt>
      <trkpt lat="43.01251" lon="1.04899">
        <ele>444.4</ele>
        <time>2024-06-24T14:09:03.993Z</time>
      </trkpt>
      <trkpt lat="43.01249" lon="1.04903">
        <ele>444.4</ele>
        <time>2024-06-24T14:09:04.993Z</time>
      </trkpt>
      <trkpt lat="43.01247" lon="1.04907">
        <ele>444.4</ele>
        <time>2024-06-24T14:09:05.993Z</time>
      </trkpt>
      <trkpt lat="43.01245" lon="1.0491">
        <ele>444.4</ele>
        <time>2024-06-24T14:09:06.993Z</time>
      </trkpt>
      <trkpt lat="43.01243" lon="1.04914">
        <ele>444.4</ele>
        <time>2024-06-24T14:09:07.993Z</time>
      </trkpt>
      <trkpt lat="43.01241" lon="1.04918">
        <ele>444.4</ele>
        <time>2024-06-24T14:09:08.993Z</time>
      </trkpt>
      <trkpt lat="43.01239" lon="1.04922">
        <ele>444.2</ele>
        <time>2024-06-24T14:09:09.993Z</time>
      </trkpt>
      <trkpt lat="43.01236" lon="1.04926">
        <ele>444.4</ele>
        <time>2024-06-24T14:09:10.993Z</time>
      </trkpt>
      <trkpt lat="43.01234" lon="1.0493">
        <ele>444.4</ele>
        <time>2024-06-24T14:09:11.993Z</time>
      </trkpt>
      <trkpt lat="43.01232" lon="1.04934">
        <ele>444</ele>
        <time>2024-06-24T14:09:12.993Z</time>
      </trkpt>
      <trkpt lat="43.0123" lon="1.04938">
        <ele>444</ele>
        <time>2024-06-24T14:09:13.993Z</time>
      </trkpt>
      <trkpt lat="43.01227" lon="1.04942">
        <ele>444</ele>
        <time>2024-06-24T14:09:14.993Z</time>
      </trkpt>
      <trkpt lat="43.01225" lon="1.04946">
        <ele>444</ele>
        <time>2024-06-24T14:09:15.993Z</time>
      </trkpt>
      <trkpt lat="43.01223" lon="1.0495">
        <ele>444.4</ele>
        <time>2024-06-24T14:09:16.993Z</time>
      </trkpt>
      <trkpt lat="43.01221" lon="1.04955">
        <ele>444.8</ele>
        <time>2024-06-24T14:09:17.993Z</time>
      </trkpt>
      <trkpt lat="43.01219" lon="1.04959">
        <ele>444.8</ele>
        <time>2024-06-24T14:09:18.993Z</time>
      </trkpt>
      <trkpt lat="43.01217" lon="1.04963">
        <ele>444.8</ele>
        <time>2024-06-24T14:09:19.993Z</time>
      </trkpt>
      <trkpt lat="43.01215" lon="1.04967">
        <ele>444.8</ele>
        <time>2024-06-24T14:09:20.993Z</time>
      </trkpt>
      <trkpt lat="43.01212" lon="1.0497">
        <ele>444.8</ele>
        <time>2024-06-24T14:09:21.993Z</time>
      </trkpt>
      <trkpt lat="43.0121" lon="1.04974">
        <ele>445</ele>
        <time>2024-06-24T14:09:22.993Z</time>
      </trkpt>
      <trkpt lat="43.01207" lon="1.04977">
        <ele>445</ele>
        <time>2024-06-24T14:09:23.993Z</time>
      </trkpt>
      <trkpt lat="43.01205" lon="1.0498">
        <ele>444.6</ele>
        <time>2024-06-24T14:09:24.993Z</time>
      </trkpt>
      <trkpt lat="43.01203" lon="1.04984">
        <ele>444.6</ele>
        <time>2024-06-24T14:09:25.993Z</time>
      </trkpt>
      <trkpt lat="43.01201" lon="1.04988">
        <ele>444.6</ele>
        <time>2024-06-24T14:09:26.993Z</time>
      </trkpt>
      <trkpt lat="43.01199" lon="1.04992">
        <ele>444.8</ele>
        <time>2024-06-24T14:09:27.993Z</time>
      </trkpt>
      <trkpt lat="43.01197" lon="1.04996">
        <ele>445.4</ele>
        <time>2024-06-24T14:09:28.993Z</time>
      </trkpt>
      <trkpt lat="43.01195" lon="1.05">
        <ele>445.4</ele>
        <time>2024-06-24T14:09:29.993Z</time>
      </trkpt>
      <trkpt lat="43.01193" lon="1.05004">
        <ele>445.8</ele>
        <time>2024-06-24T14:09:30.993Z</time>
      </trkpt>
      <trkpt lat="43.01192" lon="1.05008">
        <ele>446</ele>
        <time>2024-06-24T14:09:31.993Z</time>
      </trkpt>
      <trkpt lat="43.0119" lon="1.05011">
        <ele>446</ele>
        <time>2024-06-24T14:09:32.993Z</time>
      </trkpt>
      <trkpt lat="43.01188" lon="1.05015">
        <ele>446</ele>
        <time>2024-06-24T14:09:33.993Z</time>
      </trkpt>
      <trkpt lat="43.01186" lon="1.05019">
        <ele>446</ele>
        <time>2024-06-24T14:09:34.993Z</time>
      </trkpt>
      <trkpt lat="43.01184" lon="1.05023">
        <ele>446.4</ele>
        <time>2024-06-24T14:09:35.993Z</time>
      </trkpt>
      <trkpt lat="43.01182" lon="1.05027">
        <ele>446.4</ele>
        <time>2024-06-24T14:09:36.993Z</time>
      </trkpt>
      <trkpt lat="43.01181" lon="1.0503">
        <ele>446.4</ele>
        <time>2024-06-24T14:09:37.993Z</time>
      </trkpt>
      <trkpt lat="43.01179" lon="1.05033">
        <ele>446.8</ele>
        <time>2024-06-24T14:09:38.993Z</time>
      </trkpt>
      <trkpt lat="43.01177" lon="1.05036">
        <ele>447</ele>
        <time>2024-06-24T14:09:39.993Z</time>
      </trkpt>
      <trkpt lat="43.01175" lon="1.0504">
        <ele>446.6</ele>
        <time>2024-06-24T14:09:40.993Z</time>
      </trkpt>
      <trkpt lat="43.01174" lon="1.05042">
        <ele>447</ele>
        <time>2024-06-24T14:09:41.993Z</time>
      </trkpt>
      <trkpt lat="43.01173" lon="1.05045">
        <ele>447</ele>
        <time>2024-06-24T14:09:42.993Z</time>
      </trkpt>
      <trkpt lat="43.01171" lon="1.05049">
        <ele>447.2</ele>
        <time>2024-06-24T14:09:43.993Z</time>
      </trkpt>
      <trkpt lat="43.01169" lon="1.05052">
        <ele>447.6</ele>
        <time>2024-06-24T14:09:44.993Z</time>
      </trkpt>
      <trkpt lat="43.01167" lon="1.05056">
        <ele>447.6</ele>
        <time>2024-06-24T14:09:45.993Z</time>
      </trkpt>
      <trkpt lat="43.01165" lon="1.0506">
        <ele>448.2</ele>
        <time>2024-06-24T14:09:46.993Z</time>
      </trkpt>
      <trkpt lat="43.01163" lon="1.05064">
        <ele>448.2</ele>
        <time>2024-06-24T14:09:47.993Z</time>
      </trkpt>
      <trkpt lat="43.01161" lon="1.05068">
        <ele>448.4</ele>
        <time>2024-06-24T14:09:48.993Z</time>
      </trkpt>
      <trkpt lat="43.01159" lon="1.05071">
        <ele>448.6</ele>
        <time>2024-06-24T14:09:49.993Z</time>
      </trkpt>
      <trkpt lat="43.01157" lon="1.05075">
        <ele>448.4</ele>
        <time>2024-06-24T14:09:50.993Z</time>
      </trkpt>
      <trkpt lat="43.01155" lon="1.05079">
        <ele>448.4</ele>
        <time>2024-06-24T14:09:51.993Z</time>
      </trkpt>
      <trkpt lat="43.01153" lon="1.05082">
        <ele>448.4</ele>
        <time>2024-06-24T14:09:52.993Z</time>
      </trkpt>
      <trkpt lat="43.0115" lon="1.05086">
        <ele>448.4</ele>
        <time>2024-06-24T14:09:53.993Z</time>
      </trkpt>
      <trkpt lat="43.01148" lon="1.0509">
        <ele>448.4</ele>
        <time>2024-06-24T14:09:54.993Z</time>
      </trkpt>
      <trkpt lat="43.01146" lon="1.05094">
        <ele>448.6</ele>
        <time>2024-06-24T14:09:55.993Z</time>
      </trkpt>
      <trkpt lat="43.01144" lon="1.05098">
        <ele>448.6</ele>
        <time>2024-06-24T14:09:56.993Z</time>
      </trkpt>
      <trkpt lat="43.01141" lon="1.05102">
        <ele>448.6</ele>
        <time>2024-06-24T14:09:57.993Z</time>
      </trkpt>
      <trkpt lat="43.01139" lon="1.05106">
        <ele>448.6</ele>
        <time>2024-06-24T14:09:58.993Z</time>
      </trkpt>
      <trkpt lat="43.01137" lon="1.0511">
        <ele>448.8</ele>
        <time>2024-06-24T14:09:59.993Z</time>
      </trkpt>
      <trkpt lat="43.01135" lon="1.05113">
        <ele>449</ele>
        <time>2024-06-24T14:10:00.993Z</time>
      </trkpt>
      <trkpt lat="43.01133" lon="1.05117">
        <ele>449.6</ele>
        <time>2024-06-24T14:10:01.993Z</time>
      </trkpt>
      <trkpt lat="43.01131" lon="1.05121">
        <ele>449.6</ele>
        <time>2024-06-24T14:10:02.993Z</time>
      </trkpt>
      <trkpt lat="43.01129" lon="1.05125">
        <ele>449.6</ele>
        <time>2024-06-24T14:10:03.993Z</time>
      </trkpt>
      <trkpt lat="43.01127" lon="1.05128">
        <ele>450.2</ele>
        <time>2024-06-24T14:10:04.993Z</time>
      </trkpt>
      <trkpt lat="43.01125" lon="1.05132">
        <ele>450.2</ele>
        <time>2024-06-24T14:10:05.993Z</time>
      </trkpt>
      <trkpt lat="43.01123" lon="1.05136">
        <ele>450.8</ele>
        <time>2024-06-24T14:10:06.993Z</time>
      </trkpt>
      <trkpt lat="43.01121" lon="1.0514">
        <ele>450.6</ele>
        <time>2024-06-24T14:10:07.993Z</time>
      </trkpt>
      <trkpt lat="43.01119" lon="1.05144">
        <ele>450.2</ele>
        <time>2024-06-24T14:10:08.993Z</time>
      </trkpt>
      <trkpt lat="43.01118" lon="1.05147">
        <ele>450.4</ele>
        <time>2024-06-24T14:10:09.993Z</time>
      </trkpt>
      <trkpt lat="43.01117" lon="1.0515">
        <ele>450.2</ele>
        <time>2024-06-24T14:10:10.993Z</time>
      </trkpt>
      <trkpt lat="43.01115" lon="1.05153">
        <ele>450.4</ele>
        <time>2024-06-24T14:10:11.993Z</time>
      </trkpt>
      <trkpt lat="43.01114" lon="1.05157">
        <ele>450.8</ele>
        <time>2024-06-24T14:10:12.993Z</time>
      </trkpt>
      <trkpt lat="43.01112" lon="1.0516">
        <ele>452</ele>
        <time>2024-06-24T14:10:13.993Z</time>
      </trkpt>
      <trkpt lat="43.01111" lon="1.05162">
        <ele>452</ele>
        <time>2024-06-24T14:10:14.993Z</time>
      </trkpt>
      <trkpt lat="43.0111" lon="1.05166">
        <ele>451.8</ele>
        <time>2024-06-24T14:10:15.993Z</time>
      </trkpt>
      <trkpt lat="43.01109" lon="1.0517">
        <ele>451.8</ele>
        <time>2024-06-24T14:10:16.993Z</time>
      </trkpt>
      <trkpt lat="43.01108" lon="1.05173">
        <ele>452</ele>
        <time>2024-06-24T14:10:17.993Z</time>
      </trkpt>
      <trkpt lat="43.01107" lon="1.05177">
        <ele>452</ele>
        <time>2024-06-24T14:10:18.993Z</time>
      </trkpt>
      <trkpt lat="43.01105" lon="1.05181">
        <ele>452</ele>
        <time>2024-06-24T14:10:19.993Z</time>
      </trkpt>
      <trkpt lat="43.01104" lon="1.05185">
        <ele>452</ele>
        <time>2024-06-24T14:10:20.993Z</time>
      </trkpt>
      <trkpt lat="43.01103" lon="1.05188">
        <ele>452.4</ele>
        <time>2024-06-24T14:10:21.993Z</time>
      </trkpt>
      <trkpt lat="43.01102" lon="1.05191">
        <ele>452.4</ele>
        <time>2024-06-24T14:10:22.993Z</time>
      </trkpt>
      <trkpt lat="43.01101" lon="1.05195">
        <ele>452.4</ele>
        <time>2024-06-24T14:10:23.993Z</time>
      </trkpt>
      <trkpt lat="43.011" lon="1.05199">
        <ele>452.4</ele>
        <time>2024-06-24T14:10:24.993Z</time>
      </trkpt>
      <trkpt lat="43.01098" lon="1.05202">
        <ele>452.4</ele>
        <time>2024-06-24T14:10:25.993Z</time>
      </trkpt>
      <trkpt lat="43.01096" lon="1.05206">
        <ele>453.2</ele>
        <time>2024-06-24T14:10:26.993Z</time>
      </trkpt>
      <trkpt lat="43.01094" lon="1.0521">
        <ele>453.2</ele>
        <time>2024-06-24T14:10:27.993Z</time>
      </trkpt>
      <trkpt lat="43.01092" lon="1.05214">
        <ele>453.2</ele>
        <time>2024-06-24T14:10:28.993Z</time>
      </trkpt>
      <trkpt lat="43.0109" lon="1.05218">
        <ele>453.2</ele>
        <time>2024-06-24T14:10:29.993Z</time>
      </trkpt>
      <trkpt lat="43.01087" lon="1.05222">
        <ele>453.6</ele>
        <time>2024-06-24T14:10:30.993Z</time>
      </trkpt>
      <trkpt lat="43.01085" lon="1.05226">
        <ele>454</ele>
        <time>2024-06-24T14:10:31.993Z</time>
      </trkpt>
      <trkpt lat="43.01083" lon="1.0523">
        <ele>453.4</ele>
        <time>2024-06-24T14:10:32.993Z</time>
      </trkpt>
      <trkpt lat="43.01081" lon="1.05235">
        <ele>453.4</ele>
        <time>2024-06-24T14:10:33.993Z</time>
      </trkpt>
      <trkpt lat="43.01079" lon="1.05239">
        <ele>453.4</ele>
        <time>2024-06-24T14:10:34.993Z</time>
      </trkpt>
      <trkpt lat="43.01076" lon="1.05243">
        <ele>452.8</ele>
        <time>2024-06-24T14:10:35.993Z</time>
      </trkpt>
      <trkpt lat="43.01072" lon="1.05247">
        <ele>453.2</ele>
        <time>2024-06-24T14:10:36.993Z</time>
      </trkpt>
      <trkpt lat="43.01068" lon="1.05249">
        <ele>453</ele>
        <time>2024-06-24T14:10:37.993Z</time>
      </trkpt>
      <trkpt lat="43.01064" lon="1.05249">
        <ele>453</ele>
        <time>2024-06-24T14:10:38.993Z</time>
      </trkpt>
      <trkpt lat="43.0106" lon="1.05248">
        <ele>452.8</ele>
        <time>2024-06-24T14:10:39.993Z</time>
      </trkpt>
      <trkpt lat="43.01055" lon="1.05245">
        <ele>452.8</ele>
        <time>2024-06-24T14:10:40.993Z</time>
      </trkpt>
      <trkpt lat="43.0105" lon="1.05244">
        <ele>453</ele>
        <time>2024-06-24T14:10:41.993Z</time>
      </trkpt>
      <trkpt lat="43.01044" lon="1.05245">
        <ele>452.4</ele>
        <time>2024-06-24T14:10:42.993Z</time>
      </trkpt>
      <trkpt lat="43.01039" lon="1.05244">
        <ele>451.8</ele>
        <time>2024-06-24T14:10:43.993Z</time>
      </trkpt>
      <trkpt lat="43.01033" lon="1.05243">
        <ele>451.6</ele>
        <time>2024-06-24T14:10:44.993Z</time>
      </trkpt>
      <trkpt lat="43.01027" lon="1.05242">
        <ele>451.6</ele>
        <time>2024-06-24T14:10:45.993Z</time>
      </trkpt>
      <trkpt lat="43.01021" lon="1.05241">
        <ele>451.6</ele>
        <time>2024-06-24T14:10:46.993Z</time>
      </trkpt>
      <trkpt lat="43.01016" lon="1.05242">
        <ele>450.8</ele>
        <time>2024-06-24T14:10:47.993Z</time>
      </trkpt>
      <trkpt lat="43.0101" lon="1.05242">
        <ele>451</ele>
        <time>2024-06-24T14:10:48.993Z</time>
      </trkpt>
      <trkpt lat="43.01005" lon="1.05241">
        <ele>451</ele>
        <time>2024-06-24T14:10:49.993Z</time>
      </trkpt>
      <trkpt lat="43.01" lon="1.05242">
        <ele>451</ele>
        <time>2024-06-24T14:10:50.993Z</time>
      </trkpt>
      <trkpt lat="43.00993" lon="1.0524">
        <ele>450.8</ele>
        <time>2024-06-24T14:10:51.993Z</time>
      </trkpt>
      <trkpt lat="43.00987" lon="1.0524">
        <ele>450.8</ele>
        <time>2024-06-24T14:10:52.993Z</time>
      </trkpt>
      <trkpt lat="43.00982" lon="1.05239">
        <ele>450.8</ele>
        <time>2024-06-24T14:10:53.993Z</time>
      </trkpt>
      <trkpt lat="43.00978" lon="1.0524">
        <ele>450.6</ele>
        <time>2024-06-24T14:10:54.993Z</time>
      </trkpt>
      <trkpt lat="43.00973" lon="1.0524">
        <ele>450.6</ele>
        <time>2024-06-24T14:10:55.993Z</time>
      </trkpt>
      <trkpt lat="43.0097" lon="1.0524">
        <ele>450.6</ele>
        <time>2024-06-24T14:10:56.993Z</time>
      </trkpt>
      <trkpt lat="43.00966" lon="1.0524">
        <ele>450.8</ele>
        <time>2024-06-24T14:10:57.993Z</time>
      </trkpt>
      <trkpt lat="43.00962" lon="1.05241">
        <ele>450.8</ele>
        <time>2024-06-24T14:10:58.993Z</time>
      </trkpt>
      <trkpt lat="43.00958" lon="1.05241">
        <ele>450.4</ele>
        <time>2024-06-24T14:10:59.993Z</time>
      </trkpt>
      <trkpt lat="43.00954" lon="1.05241">
        <ele>450.6</ele>
        <time>2024-06-24T14:11:00.993Z</time>
      </trkpt>
      <trkpt lat="43.0095" lon="1.05242">
        <ele>450.6</ele>
        <time>2024-06-24T14:11:01.993Z</time>
      </trkpt>
      <trkpt lat="43.00946" lon="1.05242">
        <ele>450.6</ele>
        <time>2024-06-24T14:11:02.993Z</time>
      </trkpt>
      <trkpt lat="43.00943" lon="1.05243">
        <ele>450.6</ele>
        <time>2024-06-24T14:11:03.993Z</time>
      </trkpt>
      <trkpt lat="43.00938" lon="1.05243">
        <ele>450.6</ele>
        <time>2024-06-24T14:11:04.993Z</time>
      </trkpt>
      <trkpt lat="43.00935" lon="1.05244">
        <ele>450.6</ele>
        <time>2024-06-24T14:11:05.993Z</time>
      </trkpt>
      <trkpt lat="43.00931" lon="1.05245">
        <ele>451.2</ele>
        <time>2024-06-24T14:11:06.993Z</time>
      </trkpt>
      <trkpt lat="43.00929" lon="1.05245">
        <ele>451.4</ele>
        <time>2024-06-24T14:11:07.993Z</time>
      </trkpt>
      <trkpt lat="43.00928" lon="1.05246">
        <ele>451.4</ele>
        <time>2024-06-24T14:11:08.993Z</time>
      </trkpt>
      <trkpt lat="43.00926" lon="1.05247">
        <ele>451.4</ele>
        <time>2024-06-24T14:11:09.993Z</time>
      </trkpt>
      <trkpt lat="43.00923" lon="1.05248">
        <ele>451</ele>
        <time>2024-06-24T14:11:10.993Z</time>
      </trkpt>
      <trkpt lat="43.0092" lon="1.05248">
        <ele>451</ele>
        <time>2024-06-24T14:11:11.993Z</time>
      </trkpt>
      <trkpt lat="43.00916" lon="1.05248">
        <ele>451.2</ele>
        <time>2024-06-24T14:11:12.993Z</time>
      </trkpt>
      <trkpt lat="43.00911" lon="1.05247">
        <ele>451.4</ele>
        <time>2024-06-24T14:11:13.993Z</time>
      </trkpt>
      <trkpt lat="43.00907" lon="1.05247">
        <ele>451.6</ele>
        <time>2024-06-24T14:11:14.993Z</time>
      </trkpt>
      <trkpt lat="43.00904" lon="1.05246">
        <ele>451.8</ele>
        <time>2024-06-24T14:11:15.993Z</time>
      </trkpt>
      <trkpt lat="43.00899" lon="1.05247">
        <ele>452.4</ele>
        <time>2024-06-24T14:11:16.993Z</time>
      </trkpt>
      <trkpt lat="43.00895" lon="1.05247">
        <ele>452.4</ele>
        <time>2024-06-24T14:11:17.993Z</time>
      </trkpt>
      <trkpt lat="43.00892" lon="1.05247">
        <ele>452.8</ele>
        <time>2024-06-24T14:11:18.993Z</time>
      </trkpt>
      <trkpt lat="43.00889" lon="1.0525">
        <ele>453.2</ele>
        <time>2024-06-24T14:11:19.993Z</time>
      </trkpt>
      <trkpt lat="43.00885" lon="1.05252">
        <ele>453.4</ele>
        <time>2024-06-24T14:11:20.993Z</time>
      </trkpt>
      <trkpt lat="43.00883" lon="1.05254">
        <ele>453.4</ele>
        <time>2024-06-24T14:11:21.993Z</time>
      </trkpt>
      <trkpt lat="43.00881" lon="1.05255">
        <ele>453.8</ele>
        <time>2024-06-24T14:11:22.993Z</time>
      </trkpt>
      <trkpt lat="43.00879" lon="1.05258">
        <ele>453.8</ele>
        <time>2024-06-24T14:11:23.993Z</time>
      </trkpt>
      <trkpt lat="43.00878" lon="1.0526">
        <ele>454.6</ele>
        <time>2024-06-24T14:11:24.993Z</time>
      </trkpt>
      <trkpt lat="43.00876" lon="1.05262">
        <ele>455.2</ele>
        <time>2024-06-24T14:11:25.993Z</time>
      </trkpt>
      <trkpt lat="43.00873" lon="1.05265">
        <ele>455.4</ele>
        <time>2024-06-24T14:11:26.993Z</time>
      </trkpt>
      <trkpt lat="43.00872" lon="1.05267">
        <ele>455.8</ele>
        <time>2024-06-24T14:11:27.993Z</time>
      </trkpt>
      <trkpt lat="43.0087" lon="1.05268">
        <ele>456.2</ele>
        <time>2024-06-24T14:11:28.993Z</time>
      </trkpt>
      <trkpt lat="43.00869" lon="1.05271">
        <ele>456.4</ele>
        <time>2024-06-24T14:11:29.993Z</time>
      </trkpt>
      <trkpt lat="43.00867" lon="1.05274">
        <ele>456.6</ele>
        <time>2024-06-24T14:11:30.993Z</time>
      </trkpt>
      <trkpt lat="43.00866" lon="1.05277">
        <ele>457</ele>
        <time>2024-06-24T14:11:31.993Z</time>
      </trkpt>
      <trkpt lat="43.00864" lon="1.0528">
        <ele>457.4</ele>
        <time>2024-06-24T14:11:32.993Z</time>
      </trkpt>
      <trkpt lat="43.00862" lon="1.05282">
        <ele>457.8</ele>
        <time>2024-06-24T14:11:33.993Z</time>
      </trkpt>
      <trkpt lat="43.0086" lon="1.05285">
        <ele>457.8</ele>
        <time>2024-06-24T14:11:34.993Z</time>
      </trkpt>
      <trkpt lat="43.00858" lon="1.05288">
        <ele>458</ele>
        <time>2024-06-24T14:11:35.993Z</time>
      </trkpt>
      <trkpt lat="43.00855" lon="1.05291">
        <ele>458</ele>
        <time>2024-06-24T14:11:36.993Z</time>
      </trkpt>
      <trkpt lat="43.00853" lon="1.05294">
        <ele>458.4</ele>
        <time>2024-06-24T14:11:37.993Z</time>
      </trkpt>
      <trkpt lat="43.00851" lon="1.05297">
        <ele>459</ele>
        <time>2024-06-24T14:11:38.993Z</time>
      </trkpt>
      <trkpt lat="43.00849" lon="1.053">
        <ele>459.2</ele>
        <time>2024-06-24T14:11:39.993Z</time>
      </trkpt>
      <trkpt lat="43.00848" lon="1.05303">
        <ele>459.2</ele>
        <time>2024-06-24T14:11:40.993Z</time>
      </trkpt>
      <trkpt lat="43.00846" lon="1.05306">
        <ele>460</ele>
        <time>2024-06-24T14:11:41.993Z</time>
      </trkpt>
      <trkpt lat="43.00844" lon="1.05309">
        <ele>460.4</ele>
        <time>2024-06-24T14:11:42.993Z</time>
      </trkpt>
      <trkpt lat="43.00842" lon="1.05311">
        <ele>460.6</ele>
        <time>2024-06-24T14:11:43.993Z</time>
      </trkpt>
      <trkpt lat="43.00841" lon="1.05314">
        <ele>461</ele>
        <time>2024-06-24T14:11:44.993Z</time>
      </trkpt>
      <trkpt lat="43.00839" lon="1.05318">
        <ele>461.6</ele>
        <time>2024-06-24T14:11:45.993Z</time>
      </trkpt>
      <trkpt lat="43.00837" lon="1.05321">
        <ele>462</ele>
        <time>2024-06-24T14:11:46.993Z</time>
      </trkpt>
      <trkpt lat="43.00834" lon="1.05324">
        <ele>462.2</ele>
        <time>2024-06-24T14:11:47.993Z</time>
      </trkpt>
      <trkpt lat="43.00832" lon="1.05326">
        <ele>462.6</ele>
        <time>2024-06-24T14:11:48.993Z</time>
      </trkpt>
      <trkpt lat="43.0083" lon="1.05329">
        <ele>463</ele>
        <time>2024-06-24T14:11:49.993Z</time>
      </trkpt>
      <trkpt lat="43.00828" lon="1.05331">
        <ele>463.4</ele>
        <time>2024-06-24T14:11:50.993Z</time>
      </trkpt>
      <trkpt lat="43.00826" lon="1.05334">
        <ele>463.8</ele>
        <time>2024-06-24T14:11:51.993Z</time>
      </trkpt>
      <trkpt lat="43.00824" lon="1.05337">
        <ele>464.2</ele>
        <time>2024-06-24T14:11:52.993Z</time>
      </trkpt>
      <trkpt lat="43.00821" lon="1.05341">
        <ele>464.2</ele>
        <time>2024-06-24T14:11:53.993Z</time>
      </trkpt>
      <trkpt lat="43.00819" lon="1.05344">
        <ele>465</ele>
        <time>2024-06-24T14:11:54.993Z</time>
      </trkpt>
      <trkpt lat="43.00817" lon="1.05347">
        <ele>465.2</ele>
        <time>2024-06-24T14:11:55.993Z</time>
      </trkpt>
      <trkpt lat="43.00815" lon="1.0535">
        <ele>465.2</ele>
        <time>2024-06-24T14:11:56.993Z</time>
      </trkpt>
      <trkpt lat="43.00813" lon="1.05354">
        <ele>465.8</ele>
        <time>2024-06-24T14:11:57.993Z</time>
      </trkpt>
      <trkpt lat="43.00811" lon="1.05357">
        <ele>466.4</ele>
        <time>2024-06-24T14:11:58.993Z</time>
      </trkpt>
      <trkpt lat="43.00808" lon="1.0536">
        <ele>466.6</ele>
        <time>2024-06-24T14:11:59.993Z</time>
      </trkpt>
      <trkpt lat="43.00805" lon="1.05362">
        <ele>466.8</ele>
        <time>2024-06-24T14:12:00.993Z</time>
      </trkpt>
      <trkpt lat="43.00802" lon="1.05364">
        <ele>467.2</ele>
        <time>2024-06-24T14:12:01.993Z</time>
      </trkpt>
      <trkpt lat="43.008" lon="1.05365">
        <ele>467.8</ele>
        <time>2024-06-24T14:12:02.993Z</time>
      </trkpt>
      <trkpt lat="43.00797" lon="1.05366">
        <ele>467.8</ele>
        <time>2024-06-24T14:12:03.993Z</time>
      </trkpt>
      <trkpt lat="43.00794" lon="1.05367">
        <ele>468.4</ele>
        <time>2024-06-24T14:12:04.993Z</time>
      </trkpt>
      <trkpt lat="43.00791" lon="1.05368">
        <ele>468.6</ele>
        <time>2024-06-24T14:12:05.993Z</time>
      </trkpt>
      <trkpt lat="43.00788" lon="1.05368">
        <ele>468.8</ele>
        <time>2024-06-24T14:12:06.993Z</time>
      </trkpt>
      <trkpt lat="43.00785" lon="1.05368">
        <ele>468.8</ele>
        <time>2024-06-24T14:12:07.993Z</time>
      </trkpt>
      <trkpt lat="43.00783" lon="1.05369">
        <ele>469</ele>
        <time>2024-06-24T14:12:08.993Z</time>
      </trkpt>
      <trkpt lat="43.0078" lon="1.0537">
        <ele>469</ele>
        <time>2024-06-24T14:12:09.993Z</time>
      </trkpt>
      <trkpt lat="43.00777" lon="1.05372">
        <ele>469.4</ele>
        <time>2024-06-24T14:12:10.993Z</time>
      </trkpt>
      <trkpt lat="43.00774" lon="1.05374">
        <ele>469.4</ele>
        <time>2024-06-24T14:12:11.993Z</time>
      </trkpt>
      <trkpt lat="43.00772" lon="1.05376">
        <ele>469.8</ele>
        <time>2024-06-24T14:12:12.993Z</time>
      </trkpt>
      <trkpt lat="43.0077" lon="1.05378">
        <ele>470</ele>
        <time>2024-06-24T14:12:13.993Z</time>
      </trkpt>
      <trkpt lat="43.00768" lon="1.0538">
        <ele>470.4</ele>
        <time>2024-06-24T14:12:14.993Z</time>
      </trkpt>
      <trkpt lat="43.00767" lon="1.05382">
        <ele>470.8</ele>
        <time>2024-06-24T14:12:15.993Z</time>
      </trkpt>
      <trkpt lat="43.00765" lon="1.05384">
        <ele>471.2</ele>
        <time>2024-06-24T14:12:16.993Z</time>
      </trkpt>
      <trkpt lat="43.00763" lon="1.05385">
        <ele>471.4</ele>
        <time>2024-06-24T14:12:17.993Z</time>
      </trkpt>
      <trkpt lat="43.00761" lon="1.05387">
        <ele>471.8</ele>
        <time>2024-06-24T14:12:18.993Z</time>
      </trkpt>
      <trkpt lat="43.00759" lon="1.05389">
        <ele>472.2</ele>
        <time>2024-06-24T14:12:19.993Z</time>
      </trkpt>
      <trkpt lat="43.00758" lon="1.05391">
        <ele>472.6</ele>
        <time>2024-06-24T14:12:20.993Z</time>
      </trkpt>
      <trkpt lat="43.00756" lon="1.05393">
        <ele>473</ele>
        <time>2024-06-24T14:12:21.993Z</time>
      </trkpt>
      <trkpt lat="43.00755" lon="1.05394">
        <ele>473.2</ele>
        <time>2024-06-24T14:12:22.993Z</time>
      </trkpt>
      <trkpt lat="43.00753" lon="1.05394">
        <ele>473.4</ele>
        <time>2024-06-24T14:12:23.993Z</time>
      </trkpt>
      <trkpt lat="43.00751" lon="1.05395">
        <ele>473.6</ele>
        <time>2024-06-24T14:12:24.993Z</time>
      </trkpt>
      <trkpt lat="43.00748" lon="1.05396">
        <ele>474</ele>
        <time>2024-06-24T14:12:25.993Z</time>
      </trkpt>
      <trkpt lat="43.00746" lon="1.05396">
        <ele>474.2</ele>
        <time>2024-06-24T14:12:26.993Z</time>
      </trkpt>
      <trkpt lat="43.00744" lon="1.05395">
        <ele>474.4</ele>
        <time>2024-06-24T14:12:27.993Z</time>
      </trkpt>
      <trkpt lat="43.00742" lon="1.05394">
        <ele>474.6</ele>
        <time>2024-06-24T14:12:28.993Z</time>
      </trkpt>
      <trkpt lat="43.00741" lon="1.05392">
        <ele>475</ele>
        <time>2024-06-24T14:12:29.993Z</time>
      </trkpt>
      <trkpt lat="43.0074" lon="1.05391">
        <ele>475</ele>
        <time>2024-06-24T14:12:30.993Z</time>
      </trkpt>
      <trkpt lat="43.00738" lon="1.05389">
        <ele>475.2</ele>
        <time>2024-06-24T14:12:31.993Z</time>
      </trkpt>
      <trkpt lat="43.00737" lon="1.05387">
        <ele>475.2</ele>
        <time>2024-06-24T14:12:32.993Z</time>
      </trkpt>
      <trkpt lat="43.00736" lon="1.05384">
        <ele>475.6</ele>
        <time>2024-06-24T14:12:33.993Z</time>
      </trkpt>
      <trkpt lat="43.00736" lon="1.05381">
        <ele>475.8</ele>
        <time>2024-06-24T14:12:34.993Z</time>
      </trkpt>
      <trkpt lat="43.00735" lon="1.05377">
        <ele>475.8</ele>
        <time>2024-06-24T14:12:35.993Z</time>
      </trkpt>
      <trkpt lat="43.00734" lon="1.05373">
        <ele>475.8</ele>
        <time>2024-06-24T14:12:36.993Z</time>
      </trkpt>
      <trkpt lat="43.00733" lon="1.05365">
        <ele>475.4</ele>
        <time>2024-06-24T14:12:37.993Z</time>
      </trkpt>
      <trkpt lat="43.00732" lon="1.05359">
        <ele>475</ele>
        <time>2024-06-24T14:12:38.993Z</time>
      </trkpt>
      <trkpt lat="43.0073" lon="1.05353">
        <ele>473.8</ele>
        <time>2024-06-24T14:12:39.993Z</time>
      </trkpt>
      <trkpt lat="43.00729" lon="1.05345">
        <ele>473.8</ele>
        <time>2024-06-24T14:12:40.993Z</time>
      </trkpt>
      <trkpt lat="43.00726" lon="1.05338">
        <ele>473.2</ele>
        <time>2024-06-24T14:12:41.993Z</time>
      </trkpt>
      <trkpt lat="43.00724" lon="1.05332">
        <ele>472.6</ele>
        <time>2024-06-24T14:12:42.993Z</time>
      </trkpt>
      <trkpt lat="43.0072" lon="1.05327">
        <ele>472</ele>
        <time>2024-06-24T14:12:43.993Z</time>
      </trkpt>
      <trkpt lat="43.00717" lon="1.0532">
        <ele>471.8</ele>
        <time>2024-06-24T14:12:44.993Z</time>
      </trkpt>
      <trkpt lat="43.00713" lon="1.05315">
        <ele>471.6</ele>
        <time>2024-06-24T14:12:45.993Z</time>
      </trkpt>
      <trkpt lat="43.0071" lon="1.0531">
        <ele>471.2</ele>
        <time>2024-06-24T14:12:46.993Z</time>
      </trkpt>
      <trkpt lat="43.00707" lon="1.05305">
        <ele>471</ele>
        <time>2024-06-24T14:12:47.993Z</time>
      </trkpt>
      <trkpt lat="43.00705" lon="1.05302">
        <ele>470.4</ele>
        <time>2024-06-24T14:12:48.993Z</time>
      </trkpt>
      <trkpt lat="43.00701" lon="1.05298">
        <ele>470.4</ele>
        <time>2024-06-24T14:12:49.993Z</time>
      </trkpt>
      <trkpt lat="43.00698" lon="1.05295">
        <ele>469.6</ele>
        <time>2024-06-24T14:12:50.993Z</time>
      </trkpt>
      <trkpt lat="43.00694" lon="1.0529">
        <ele>470.2</ele>
        <time>2024-06-24T14:12:51.993Z</time>
      </trkpt>
      <trkpt lat="43.00689" lon="1.05285">
        <ele>470</ele>
        <time>2024-06-24T14:12:52.993Z</time>
      </trkpt>
      <trkpt lat="43.00684" lon="1.0528">
        <ele>469.6</ele>
        <time>2024-06-24T14:12:53.993Z</time>
      </trkpt>
      <trkpt lat="43.00679" lon="1.05274">
        <ele>469.2</ele>
        <time>2024-06-24T14:12:54.993Z</time>
      </trkpt>
      <trkpt lat="43.00675" lon="1.05269">
        <ele>468.6</ele>
        <time>2024-06-24T14:12:55.993Z</time>
      </trkpt>
      <trkpt lat="43.00669" lon="1.05263">
        <ele>467.8</ele>
        <time>2024-06-24T14:12:56.993Z</time>
      </trkpt>
      <trkpt lat="43.00665" lon="1.05256">
        <ele>467.2</ele>
        <time>2024-06-24T14:12:57.993Z</time>
      </trkpt>
      <trkpt lat="43.00661" lon="1.0525">
        <ele>467.2</ele>
        <time>2024-06-24T14:12:58.993Z</time>
      </trkpt>
      <trkpt lat="43.00656" lon="1.05246">
        <ele>466.8</ele>
        <time>2024-06-24T14:12:59.993Z</time>
      </trkpt>
      <trkpt lat="43.00653" lon="1.0524">
        <ele>467.4</ele>
        <time>2024-06-24T14:13:00.993Z</time>
      </trkpt>
      <trkpt lat="43.00647" lon="1.05237">
        <ele>466.4</ele>
        <time>2024-06-24T14:13:01.993Z</time>
      </trkpt>
      <trkpt lat="43.00645" lon="1.05232">
        <ele>466.4</ele>
        <time>2024-06-24T14:13:02.993Z</time>
      </trkpt>
      <trkpt lat="43.00641" lon="1.05227">
        <ele>466.4</ele>
        <time>2024-06-24T14:13:03.993Z</time>
      </trkpt>
      <trkpt lat="43.00636" lon="1.05223">
        <ele>465.8</ele>
        <time>2024-06-24T14:13:04.993Z</time>
      </trkpt>
      <trkpt lat="43.00631" lon="1.0522">
        <ele>465.8</ele>
        <time>2024-06-24T14:13:05.993Z</time>
      </trkpt>
      <trkpt lat="43.00626" lon="1.05216">
        <ele>465</ele>
        <time>2024-06-24T14:13:06.993Z</time>
      </trkpt>
      <trkpt lat="43.00623" lon="1.05212">
        <ele>464.6</ele>
        <time>2024-06-24T14:13:07.993Z</time>
      </trkpt>
      <trkpt lat="43.00619" lon="1.05206">
        <ele>464.2</ele>
        <time>2024-06-24T14:13:08.993Z</time>
      </trkpt>
      <trkpt lat="43.00616" lon="1.05201">
        <ele>463.2</ele>
        <time>2024-06-24T14:13:09.993Z</time>
      </trkpt>
      <trkpt lat="43.00613" lon="1.05196">
        <ele>462.8</ele>
        <time>2024-06-24T14:13:10.993Z</time>
      </trkpt>
      <trkpt lat="43.00612" lon="1.05192">
        <ele>462.8</ele>
        <time>2024-06-24T14:13:11.993Z</time>
      </trkpt>
      <trkpt lat="43.0061" lon="1.05186">
        <ele>463</ele>
        <time>2024-06-24T14:13:12.993Z</time>
      </trkpt>
      <trkpt lat="43.00607" lon="1.05179">
        <ele>462.4</ele>
        <time>2024-06-24T14:13:13.993Z</time>
      </trkpt>
      <trkpt lat="43.00605" lon="1.05172">
        <ele>461.6</ele>
        <time>2024-06-24T14:13:14.993Z</time>
      </trkpt>
      <trkpt lat="43.00605" lon="1.05165">
        <ele>461.2</ele>
        <time>2024-06-24T14:13:15.993Z</time>
      </trkpt>
      <trkpt lat="43.00604" lon="1.05158">
        <ele>461</ele>
        <time>2024-06-24T14:13:16.993Z</time>
      </trkpt>
      <trkpt lat="43.00604" lon="1.05151">
        <ele>461</ele>
        <time>2024-06-24T14:13:17.993Z</time>
      </trkpt>
      <trkpt lat="43.00603" lon="1.05144">
        <ele>460.4</ele>
        <time>2024-06-24T14:13:18.993Z</time>
      </trkpt>
      <trkpt lat="43.00604" lon="1.05138">
        <ele>460.4</ele>
        <time>2024-06-24T14:13:19.993Z</time>
      </trkpt>
      <trkpt lat="43.00603" lon="1.05131">
        <ele>460.4</ele>
        <time>2024-06-24T14:13:20.993Z</time>
      </trkpt>
      <trkpt lat="43.00603" lon="1.05125">
        <ele>460.4</ele>
        <time>2024-06-24T14:13:21.993Z</time>
      </trkpt>
      <trkpt lat="43.00603" lon="1.05118">
        <ele>460.4</ele>
        <time>2024-06-24T14:13:22.993Z</time>
      </trkpt>
      <trkpt lat="43.00603" lon="1.0511">
        <ele>460</ele>
        <time>2024-06-24T14:13:23.993Z</time>
      </trkpt>
      <trkpt lat="43.00602" lon="1.05102">
        <ele>459.8</ele>
        <time>2024-06-24T14:13:24.993Z</time>
      </trkpt>
      <trkpt lat="43.00601" lon="1.05094">
        <ele>459.4</ele>
        <time>2024-06-24T14:13:25.993Z</time>
      </trkpt>
      <trkpt lat="43.00601" lon="1.05085">
        <ele>458.8</ele>
        <time>2024-06-24T14:13:26.993Z</time>
      </trkpt>
      <trkpt lat="43.00601" lon="1.05075">
        <ele>458.4</ele>
        <time>2024-06-24T14:13:27.993Z</time>
      </trkpt>
      <trkpt lat="43.00601" lon="1.05064">
        <ele>458</ele>
        <time>2024-06-24T14:13:28.993Z</time>
      </trkpt>
      <trkpt lat="43.00601" lon="1.05055">
        <ele>457.6</ele>
        <time>2024-06-24T14:13:29.993Z</time>
      </trkpt>
      <trkpt lat="43.00602" lon="1.05047">
        <ele>456.6</ele>
        <time>2024-06-24T14:13:30.993Z</time>
      </trkpt>
      <trkpt lat="43.00602" lon="1.05038">
        <ele>456.2</ele>
        <time>2024-06-24T14:13:31.993Z</time>
      </trkpt>
      <trkpt lat="43.00601" lon="1.05031">
        <ele>455.8</ele>
        <time>2024-06-24T14:13:32.993Z</time>
      </trkpt>
      <trkpt lat="43.006" lon="1.05028">
        <ele>455.2</ele>
        <time>2024-06-24T14:13:33.993Z</time>
      </trkpt>
      <trkpt lat="43.00596" lon="1.05025">
        <ele>454.8</ele>
        <time>2024-06-24T14:13:34.993Z</time>
      </trkpt>
      <trkpt lat="43.00592" lon="1.05029">
        <ele>454.4</ele>
        <time>2024-06-24T14:13:35.993Z</time>
      </trkpt>
      <trkpt lat="43.00587" lon="1.05033">
        <ele>453.6</ele>
        <time>2024-06-24T14:13:36.993Z</time>
      </trkpt>
      <trkpt lat="43.00584" lon="1.05039">
        <ele>453.2</ele>
        <time>2024-06-24T14:13:37.993Z</time>
      </trkpt>
      <trkpt lat="43.0058" lon="1.05047">
        <ele>452.6</ele>
        <time>2024-06-24T14:13:38.993Z</time>
      </trkpt>
      <trkpt lat="43.00576" lon="1.05054">
        <ele>452</ele>
        <time>2024-06-24T14:13:39.993Z</time>
      </trkpt>
      <trkpt lat="43.00571" lon="1.05062">
        <ele>451.4</ele>
        <time>2024-06-24T14:13:40.993Z</time>
      </trkpt>
      <trkpt lat="43.00565" lon="1.0507">
        <ele>450.4</ele>
        <time>2024-06-24T14:13:41.993Z</time>
      </trkpt>
      <trkpt lat="43.0056" lon="1.05078">
        <ele>450</ele>
        <time>2024-06-24T14:13:42.993Z</time>
      </trkpt>
      <trkpt lat="43.00554" lon="1.05088">
        <ele>449.4</ele>
        <time>2024-06-24T14:13:43.993Z</time>
      </trkpt>
      <trkpt lat="43.00548" lon="1.05097">
        <ele>449</ele>
        <time>2024-06-24T14:13:44.993Z</time>
      </trkpt>
      <trkpt lat="43.00542" lon="1.05105">
        <ele>449</ele>
        <time>2024-06-24T14:13:45.993Z</time>
      </trkpt>
      <trkpt lat="43.00536" lon="1.05113">
        <ele>448.6</ele>
        <time>2024-06-24T14:13:46.993Z</time>
      </trkpt>
      <trkpt lat="43.0053" lon="1.0512">
        <ele>447.4</ele>
        <time>2024-06-24T14:13:47.993Z</time>
      </trkpt>
      <trkpt lat="43.00525" lon="1.05127">
        <ele>446.4</ele>
        <time>2024-06-24T14:13:48.993Z</time>
      </trkpt>
      <trkpt lat="43.0052" lon="1.05133">
        <ele>445.4</ele>
        <time>2024-06-24T14:13:49.993Z</time>
      </trkpt>
      <trkpt lat="43.00516" lon="1.0514">
        <ele>445</ele>
        <time>2024-06-24T14:13:50.993Z</time>
      </trkpt>
      <trkpt lat="43.00513" lon="1.05146">
        <ele>444.2</ele>
        <time>2024-06-24T14:13:51.993Z</time>
      </trkpt>
      <trkpt lat="43.00507" lon="1.0515">
        <ele>443.6</ele>
        <time>2024-06-24T14:13:52.993Z</time>
      </trkpt>
      <trkpt lat="43.00501" lon="1.0515">
        <ele>443.4</ele>
        <time>2024-06-24T14:13:53.993Z</time>
      </trkpt>
      <trkpt lat="43.00496" lon="1.05147">
        <ele>443</ele>
        <time>2024-06-24T14:13:54.993Z</time>
      </trkpt>
      <trkpt lat="43.00491" lon="1.05142">
        <ele>442.8</ele>
        <time>2024-06-24T14:13:55.993Z</time>
      </trkpt>
      <trkpt lat="43.00488" lon="1.05135">
        <ele>442.4</ele>
        <time>2024-06-24T14:13:56.993Z</time>
      </trkpt>
      <trkpt lat="43.00486" lon="1.05128">
        <ele>442.2</ele>
        <time>2024-06-24T14:13:57.993Z</time>
      </trkpt>
      <trkpt lat="43.00483" lon="1.05123">
        <ele>441.6</ele>
        <time>2024-06-24T14:13:58.993Z</time>
      </trkpt>
      <trkpt lat="43.0048" lon="1.05117">
        <ele>441</ele>
        <time>2024-06-24T14:13:59.993Z</time>
      </trkpt>
      <trkpt lat="43.00478" lon="1.05112">
        <ele>441</ele>
        <time>2024-06-24T14:14:00.993Z</time>
      </trkpt>
      <trkpt lat="43.00475" lon="1.05107">
        <ele>441</ele>
        <time>2024-06-24T14:14:01.993Z</time>
      </trkpt>
      <trkpt lat="43.00474" lon="1.05101">
        <ele>441</ele>
        <time>2024-06-24T14:14:02.993Z</time>
      </trkpt>
      <trkpt lat="43.0047" lon="1.05095">
        <ele>441.4</ele>
        <time>2024-06-24T14:14:03.993Z</time>
      </trkpt>
      <trkpt lat="43.00469" lon="1.0509">
        <ele>441.4</ele>
        <time>2024-06-24T14:14:04.993Z</time>
      </trkpt>
      <trkpt lat="43.00467" lon="1.05084">
        <ele>441.4</ele>
        <time>2024-06-24T14:14:05.993Z</time>
      </trkpt>
      <trkpt lat="43.00465" lon="1.05078">
        <ele>441.4</ele>
        <time>2024-06-24T14:14:06.993Z</time>
      </trkpt>
      <trkpt lat="43.00464" lon="1.05073">
        <ele>441.2</ele>
        <time>2024-06-24T14:14:07.993Z</time>
      </trkpt>
      <trkpt lat="43.00463" lon="1.05066">
        <ele>441.2</ele>
        <time>2024-06-24T14:14:08.993Z</time>
      </trkpt>
      <trkpt lat="43.00461" lon="1.05061">
        <ele>441.2</ele>
        <time>2024-06-24T14:14:09.993Z</time>
      </trkpt>
      <trkpt lat="43.00459" lon="1.05056">
        <ele>441.6</ele>
        <time>2024-06-24T14:14:10.993Z</time>
      </trkpt>
      <trkpt lat="43.00458" lon="1.0505">
        <ele>441.6</ele>
        <time>2024-06-24T14:14:11.993Z</time>
      </trkpt>
      <trkpt lat="43.00457" lon="1.05046">
        <ele>441.8</ele>
        <time>2024-06-24T14:14:12.993Z</time>
      </trkpt>
      <trkpt lat="43.00456" lon="1.0504">
        <ele>441.8</ele>
        <time>2024-06-24T14:14:13.993Z</time>
      </trkpt>
      <trkpt lat="43.00455" lon="1.05035">
        <ele>441.8</ele>
        <time>2024-06-24T14:14:14.993Z</time>
      </trkpt>
      <trkpt lat="43.00454" lon="1.0503">
        <ele>442.2</ele>
        <time>2024-06-24T14:14:15.993Z</time>
      </trkpt>
      <trkpt lat="43.00453" lon="1.05026">
        <ele>442.6</ele>
        <time>2024-06-24T14:14:16.993Z</time>
      </trkpt>
      <trkpt lat="43.00453" lon="1.05021">
        <ele>442.6</ele>
        <time>2024-06-24T14:14:17.993Z</time>
      </trkpt>
      <trkpt lat="43.00452" lon="1.05016">
        <ele>443</ele>
        <time>2024-06-24T14:14:18.993Z</time>
      </trkpt>
      <trkpt lat="43.00451" lon="1.05011">
        <ele>443</ele>
        <time>2024-06-24T14:14:19.993Z</time>
      </trkpt>
      <trkpt lat="43.00452" lon="1.05006">
        <ele>443.6</ele>
        <time>2024-06-24T14:14:20.993Z</time>
      </trkpt>
      <trkpt lat="43.00452" lon="1.05003">
        <ele>443.6</ele>
        <time>2024-06-24T14:14:21.993Z</time>
      </trkpt>
      <trkpt lat="43.00453" lon="1.04999">
        <ele>443.8</ele>
        <time>2024-06-24T14:14:22.993Z</time>
      </trkpt>
      <trkpt lat="43.00453" lon="1.04995">
        <ele>443.8</ele>
        <time>2024-06-24T14:14:23.993Z</time>
      </trkpt>
      <trkpt lat="43.00454" lon="1.04991">
        <ele>443.8</ele>
        <time>2024-06-24T14:14:24.993Z</time>
      </trkpt>
      <trkpt lat="43.00454" lon="1.04988">
        <ele>443.8</ele>
        <time>2024-06-24T14:14:25.993Z</time>
      </trkpt>
      <trkpt lat="43.00454" lon="1.04983">
        <ele>444.4</ele>
        <time>2024-06-24T14:14:26.993Z</time>
      </trkpt>
      <trkpt lat="43.00454" lon="1.04979">
        <ele>444.8</ele>
        <time>2024-06-24T14:14:27.993Z</time>
      </trkpt>
      <trkpt lat="43.00453" lon="1.04975">
        <ele>445</ele>
        <time>2024-06-24T14:14:28.993Z</time>
      </trkpt>
      <trkpt lat="43.00452" lon="1.04971">
        <ele>445.2</ele>
        <time>2024-06-24T14:14:29.993Z</time>
      </trkpt>
      <trkpt lat="43.00451" lon="1.04968">
        <ele>445.8</ele>
        <time>2024-06-24T14:14:30.993Z</time>
      </trkpt>
      <trkpt lat="43.0045" lon="1.04964">
        <ele>446.2</ele>
        <time>2024-06-24T14:14:31.993Z</time>
      </trkpt>
      <trkpt lat="43.00449" lon="1.0496">
        <ele>446.2</ele>
        <time>2024-06-24T14:14:32.993Z</time>
      </trkpt>
      <trkpt lat="43.00449" lon="1.04957">
        <ele>446.6</ele>
        <time>2024-06-24T14:14:33.993Z</time>
      </trkpt>
      <trkpt lat="43.00447" lon="1.04953">
        <ele>447</ele>
        <time>2024-06-24T14:14:34.993Z</time>
      </trkpt>
      <trkpt lat="43.00446" lon="1.0495">
        <ele>447</ele>
        <time>2024-06-24T14:14:35.993Z</time>
      </trkpt>
      <trkpt lat="43.00445" lon="1.04947">
        <ele>447.6</ele>
        <time>2024-06-24T14:14:36.993Z</time>
      </trkpt>
      <trkpt lat="43.00444" lon="1.04944">
        <ele>447.6</ele>
        <time>2024-06-24T14:14:37.993Z</time>
      </trkpt>
      <trkpt lat="43.00443" lon="1.04941">
        <ele>447.8</ele>
        <time>2024-06-24T14:14:38.993Z</time>
      </trkpt>
      <trkpt lat="43.00441" lon="1.04937">
        <ele>448.2</ele>
        <time>2024-06-24T14:14:39.993Z</time>
      </trkpt>
      <trkpt lat="43.00439" lon="1.04934">
        <ele>448.4</ele>
        <time>2024-06-24T14:14:40.993Z</time>
      </trkpt>
      <trkpt lat="43.00438" lon="1.0493">
        <ele>448.6</ele>
        <time>2024-06-24T14:14:41.993Z</time>
      </trkpt>
      <trkpt lat="43.00436" lon="1.04926">
        <ele>448.6</ele>
        <time>2024-06-24T14:14:42.993Z</time>
      </trkpt>
      <trkpt lat="43.00435" lon="1.04923">
        <ele>449</ele>
        <time>2024-06-24T14:14:43.993Z</time>
      </trkpt>
      <trkpt lat="43.00433" lon="1.0492">
        <ele>449</ele>
        <time>2024-06-24T14:14:44.993Z</time>
      </trkpt>
      <trkpt lat="43.00431" lon="1.04917">
        <ele>449</ele>
        <time>2024-06-24T14:14:45.993Z</time>
      </trkpt>
      <trkpt lat="43.00428" lon="1.04913">
        <ele>449</ele>
        <time>2024-06-24T14:14:46.993Z</time>
      </trkpt>
      <trkpt lat="43.00425" lon="1.0491">
        <ele>449</ele>
        <time>2024-06-24T14:14:47.993Z</time>
      </trkpt>
      <trkpt lat="43.00422" lon="1.04906">
        <ele>448.6</ele>
        <time>2024-06-24T14:14:48.993Z</time>
      </trkpt>
      <trkpt lat="43.00418" lon="1.04903">
        <ele>448.4</ele>
        <time>2024-06-24T14:14:49.993Z</time>
      </trkpt>
      <trkpt lat="43.00415" lon="1.04899">
        <ele>448.2</ele>
        <time>2024-06-24T14:14:50.993Z</time>
      </trkpt>
      <trkpt lat="43.0041" lon="1.04895">
        <ele>447.8</ele>
        <time>2024-06-24T14:14:51.993Z</time>
      </trkpt>
      <trkpt lat="43.00406" lon="1.0489">
        <ele>447.6</ele>
        <time>2024-06-24T14:14:52.993Z</time>
      </trkpt>
      <trkpt lat="43.00401" lon="1.04886">
        <ele>447.2</ele>
        <time>2024-06-24T14:14:53.993Z</time>
      </trkpt>
      <trkpt lat="43.00396" lon="1.0488">
        <ele>446.6</ele>
        <time>2024-06-24T14:14:54.993Z</time>
      </trkpt>
      <trkpt lat="43.00391" lon="1.04875">
        <ele>446.2</ele>
        <time>2024-06-24T14:14:55.993Z</time>
      </trkpt>
      <trkpt lat="43.00385" lon="1.04869">
        <ele>445.8</ele>
        <time>2024-06-24T14:14:56.993Z</time>
      </trkpt>
      <trkpt lat="43.0038" lon="1.04863">
        <ele>445.2</ele>
        <time>2024-06-24T14:14:57.993Z</time>
      </trkpt>
      <trkpt lat="43.00374" lon="1.04857">
        <ele>444.8</ele>
        <time>2024-06-24T14:14:58.993Z</time>
      </trkpt>
      <trkpt lat="43.00367" lon="1.0485">
        <ele>444.4</ele>
        <time>2024-06-24T14:14:59.993Z</time>
      </trkpt>
      <trkpt lat="43.0036" lon="1.04843">
        <ele>444</ele>
        <time>2024-06-24T14:15:00.993Z</time>
      </trkpt>
      <trkpt lat="43.00354" lon="1.04836">
        <ele>444</ele>
        <time>2024-06-24T14:15:01.993Z</time>
      </trkpt>
      <trkpt lat="43.00347" lon="1.04829">
        <ele>443.4</ele>
        <time>2024-06-24T14:15:02.993Z</time>
      </trkpt>
      <trkpt lat="43.00342" lon="1.04823">
        <ele>442.8</ele>
        <time>2024-06-24T14:15:03.993Z</time>
      </trkpt>
      <trkpt lat="43.00336" lon="1.04817">
        <ele>442.2</ele>
        <time>2024-06-24T14:15:04.993Z</time>
      </trkpt>
      <trkpt lat="43.00331" lon="1.04811">
        <ele>441.8</ele>
        <time>2024-06-24T14:15:05.993Z</time>
      </trkpt>
      <trkpt lat="43.00325" lon="1.04806">
        <ele>441.2</ele>
        <time>2024-06-24T14:15:06.993Z</time>
      </trkpt>
      <trkpt lat="43.00321" lon="1.04801">
        <ele>440.6</ele>
        <time>2024-06-24T14:15:07.993Z</time>
      </trkpt>
      <trkpt lat="43.00317" lon="1.04795">
        <ele>440</ele>
        <time>2024-06-24T14:15:08.993Z</time>
      </trkpt>
      <trkpt lat="43.00313" lon="1.04791">
        <ele>439.6</ele>
        <time>2024-06-24T14:15:09.993Z</time>
      </trkpt>
      <trkpt lat="43.0031" lon="1.04786">
        <ele>439.2</ele>
        <time>2024-06-24T14:15:10.993Z</time>
      </trkpt>
      <trkpt lat="43.00305" lon="1.04785">
        <ele>438.8</ele>
        <time>2024-06-24T14:15:11.993Z</time>
      </trkpt>
      <trkpt lat="43.00301" lon="1.04785">
        <ele>438.6</ele>
        <time>2024-06-24T14:15:12.993Z</time>
      </trkpt>
      <trkpt lat="43.00298" lon="1.04788">
        <ele>438.4</ele>
        <time>2024-06-24T14:15:13.993Z</time>
      </trkpt>
      <trkpt lat="43.00296" lon="1.04792">
        <ele>438.4</ele>
        <time>2024-06-24T14:15:14.993Z</time>
      </trkpt>
      <trkpt lat="43.00295" lon="1.04796">
        <ele>438.2</ele>
        <time>2024-06-24T14:15:15.993Z</time>
      </trkpt>
      <trkpt lat="43.00294" lon="1.04801">
        <ele>438.2</ele>
        <time>2024-06-24T14:15:16.993Z</time>
      </trkpt>
      <trkpt lat="43.00293" lon="1.04806">
        <ele>438.2</ele>
        <time>2024-06-24T14:15:17.993Z</time>
      </trkpt>
      <trkpt lat="43.00292" lon="1.04811">
        <ele>438.2</ele>
        <time>2024-06-24T14:15:18.993Z</time>
      </trkpt>
      <trkpt lat="43.00292" lon="1.04817">
        <ele>438.2</ele>
        <time>2024-06-24T14:15:19.993Z</time>
      </trkpt>
      <trkpt lat="43.00291" lon="1.04821">
        <ele>438.2</ele>
        <time>2024-06-24T14:15:20.993Z</time>
      </trkpt>
      <trkpt lat="43.0029" lon="1.04827">
        <ele>438.2</ele>
        <time>2024-06-24T14:15:21.993Z</time>
      </trkpt>
      <trkpt lat="43.00289" lon="1.04832">
        <ele>438.2</ele>
        <time>2024-06-24T14:15:22.993Z</time>
      </trkpt>
      <trkpt lat="43.00288" lon="1.04837">
        <ele>438.4</ele>
        <time>2024-06-24T14:15:23.993Z</time>
      </trkpt>
      <trkpt lat="43.00287" lon="1.04842">
        <ele>438.4</ele>
        <time>2024-06-24T14:15:24.993Z</time>
      </trkpt>
      <trkpt lat="43.00285" lon="1.04848">
        <ele>438.4</ele>
        <time>2024-06-24T14:15:25.993Z</time>
      </trkpt>
      <trkpt lat="43.00284" lon="1.04853">
        <ele>438.4</ele>
        <time>2024-06-24T14:15:26.993Z</time>
      </trkpt>
      <trkpt lat="43.00283" lon="1.04859">
        <ele>438.4</ele>
        <time>2024-06-24T14:15:27.993Z</time>
      </trkpt>
      <trkpt lat="43.00283" lon="1.04865">
        <ele>438.4</ele>
        <time>2024-06-24T14:15:28.993Z</time>
      </trkpt>
      <trkpt lat="43.00282" lon="1.0487">
        <ele>438.4</ele>
        <time>2024-06-24T14:15:29.993Z</time>
      </trkpt>
      <trkpt lat="43.00281" lon="1.04876">
        <ele>438.6</ele>
        <time>2024-06-24T14:15:30.993Z</time>
      </trkpt>
      <trkpt lat="43.00279" lon="1.04881">
        <ele>438.6</ele>
        <time>2024-06-24T14:15:31.993Z</time>
      </trkpt>
      <trkpt lat="43.00277" lon="1.04887">
        <ele>438.4</ele>
        <time>2024-06-24T14:15:32.993Z</time>
      </trkpt>
      <trkpt lat="43.00275" lon="1.04893">
        <ele>438.8</ele>
        <time>2024-06-24T14:15:33.993Z</time>
      </trkpt>
      <trkpt lat="43.00273" lon="1.04898">
        <ele>438.8</ele>
        <time>2024-06-24T14:15:34.993Z</time>
      </trkpt>
      <trkpt lat="43.00272" lon="1.04903">
        <ele>438.8</ele>
        <time>2024-06-24T14:15:35.993Z</time>
      </trkpt>
      <trkpt lat="43.0027" lon="1.04909">
        <ele>438.8</ele>
        <time>2024-06-24T14:15:36.993Z</time>
      </trkpt>
      <trkpt lat="43.00269" lon="1.04915">
        <ele>438.8</ele>
        <time>2024-06-24T14:15:37.993Z</time>
      </trkpt>
      <trkpt lat="43.00266" lon="1.04921">
        <ele>438.8</ele>
        <time>2024-06-24T14:15:38.993Z</time>
      </trkpt>
      <trkpt lat="43.00265" lon="1.04927">
        <ele>439.2</ele>
        <time>2024-06-24T14:15:39.993Z</time>
      </trkpt>
      <trkpt lat="43.00262" lon="1.04932">
        <ele>439.2</ele>
        <time>2024-06-24T14:15:40.993Z</time>
      </trkpt>
      <trkpt lat="43.00261" lon="1.04937">
        <ele>439.2</ele>
        <time>2024-06-24T14:15:41.993Z</time>
      </trkpt>
      <trkpt lat="43.00259" lon="1.04943">
        <ele>439.2</ele>
        <time>2024-06-24T14:15:42.993Z</time>
      </trkpt>
      <trkpt lat="43.00257" lon="1.04948">
        <ele>439.2</ele>
        <time>2024-06-24T14:15:43.993Z</time>
      </trkpt>
      <trkpt lat="43.00256" lon="1.04954">
        <ele>439.4</ele>
        <time>2024-06-24T14:15:44.993Z</time>
      </trkpt>
      <trkpt lat="43.00254" lon="1.0496">
        <ele>439.6</ele>
        <time>2024-06-24T14:15:45.993Z</time>
      </trkpt>
      <trkpt lat="43.00253" lon="1.04966">
        <ele>439.6</ele>
        <time>2024-06-24T14:15:46.993Z</time>
      </trkpt>
      <trkpt lat="43.00252" lon="1.04972">
        <ele>439.4</ele>
        <time>2024-06-24T14:15:47.993Z</time>
      </trkpt>
      <trkpt lat="43.00251" lon="1.04978">
        <ele>439.4</ele>
        <time>2024-06-24T14:15:48.993Z</time>
      </trkpt>
      <trkpt lat="43.00248" lon="1.04983">
        <ele>439.4</ele>
        <time>2024-06-24T14:15:49.993Z</time>
      </trkpt>
      <trkpt lat="43.00246" lon="1.04988">
        <ele>439.6</ele>
        <time>2024-06-24T14:15:50.993Z</time>
      </trkpt>
      <trkpt lat="43.00245" lon="1.04994">
        <ele>439.6</ele>
        <time>2024-06-24T14:15:51.993Z</time>
      </trkpt>
      <trkpt lat="43.00243" lon="1.05">
        <ele>439.8</ele>
        <time>2024-06-24T14:15:52.993Z</time>
      </trkpt>
      <trkpt lat="43.00242" lon="1.05006">
        <ele>439.8</ele>
        <time>2024-06-24T14:15:53.993Z</time>
      </trkpt>
      <trkpt lat="43.00241" lon="1.05012">
        <ele>439.8</ele>
        <time>2024-06-24T14:15:54.993Z</time>
      </trkpt>
      <trkpt lat="43.0024" lon="1.05018">
        <ele>439.8</ele>
        <time>2024-06-24T14:15:55.993Z</time>
      </trkpt>
      <trkpt lat="43.00239" lon="1.05024">
        <ele>439.8</ele>
        <time>2024-06-24T14:15:56.993Z</time>
      </trkpt>
      <trkpt lat="43.00237" lon="1.0503">
        <ele>439.8</ele>
        <time>2024-06-24T14:15:57.993Z</time>
      </trkpt>
      <trkpt lat="43.00235" lon="1.05036">
        <ele>440</ele>
        <time>2024-06-24T14:15:58.993Z</time>
      </trkpt>
      <trkpt lat="43.00234" lon="1.05042">
        <ele>440</ele>
        <time>2024-06-24T14:15:59.993Z</time>
      </trkpt>
      <trkpt lat="43.00233" lon="1.05048">
        <ele>440</ele>
        <time>2024-06-24T14:16:00.993Z</time>
      </trkpt>
      <trkpt lat="43.00231" lon="1.05055">
        <ele>440</ele>
        <time>2024-06-24T14:16:01.993Z</time>
      </trkpt>
      <trkpt lat="43.0023" lon="1.05061">
        <ele>440</ele>
        <time>2024-06-24T14:16:02.993Z</time>
      </trkpt>
      <trkpt lat="43.00228" lon="1.05067">
        <ele>440</ele>
        <time>2024-06-24T14:16:03.993Z</time>
      </trkpt>
      <trkpt lat="43.00227" lon="1.05074">
        <ele>440</ele>
        <time>2024-06-24T14:16:04.993Z</time>
      </trkpt>
      <trkpt lat="43.00226" lon="1.0508">
        <ele>440</ele>
        <time>2024-06-24T14:16:05.993Z</time>
      </trkpt>
      <trkpt lat="43.00224" lon="1.05086">
        <ele>440</ele>
        <time>2024-06-24T14:16:06.993Z</time>
      </trkpt>
      <trkpt lat="43.00222" lon="1.05092">
        <ele>440</ele>
        <time>2024-06-24T14:16:07.993Z</time>
      </trkpt>
      <trkpt lat="43.0022" lon="1.05099">
        <ele>440.2</ele>
        <time>2024-06-24T14:16:08.993Z</time>
      </trkpt>
      <trkpt lat="43.00219" lon="1.05105">
        <ele>440.2</ele>
        <time>2024-06-24T14:16:09.993Z</time>
      </trkpt>
      <trkpt lat="43.00218" lon="1.05111">
        <ele>440.2</ele>
        <time>2024-06-24T14:16:10.993Z</time>
      </trkpt>
      <trkpt lat="43.00216" lon="1.05118">
        <ele>440.6</ele>
        <time>2024-06-24T14:16:11.993Z</time>
      </trkpt>
      <trkpt lat="43.00215" lon="1.05124">
        <ele>440.6</ele>
        <time>2024-06-24T14:16:12.993Z</time>
      </trkpt>
      <trkpt lat="43.00212" lon="1.0513">
        <ele>440.8</ele>
        <time>2024-06-24T14:16:13.993Z</time>
      </trkpt>
      <trkpt lat="43.00211" lon="1.05136">
        <ele>440.6</ele>
        <time>2024-06-24T14:16:14.993Z</time>
      </trkpt>
      <trkpt lat="43.0021" lon="1.05142">
        <ele>440.6</ele>
        <time>2024-06-24T14:16:15.993Z</time>
      </trkpt>
      <trkpt lat="43.00209" lon="1.05147">
        <ele>440.6</ele>
        <time>2024-06-24T14:16:16.993Z</time>
      </trkpt>
      <trkpt lat="43.00208" lon="1.05154">
        <ele>440.6</ele>
        <time>2024-06-24T14:16:17.993Z</time>
      </trkpt>
      <trkpt lat="43.00207" lon="1.0516">
        <ele>440.6</ele>
        <time>2024-06-24T14:16:18.993Z</time>
      </trkpt>
      <trkpt lat="43.00207" lon="1.05167">
        <ele>440.6</ele>
        <time>2024-06-24T14:16:19.993Z</time>
      </trkpt>
      <trkpt lat="43.00207" lon="1.05173">
        <ele>440.6</ele>
        <time>2024-06-24T14:16:20.993Z</time>
      </trkpt>
      <trkpt lat="43.00207" lon="1.0518">
        <ele>440.6</ele>
        <time>2024-06-24T14:16:21.993Z</time>
      </trkpt>
      <trkpt lat="43.00207" lon="1.05186">
        <ele>440.8</ele>
        <time>2024-06-24T14:16:22.993Z</time>
      </trkpt>
      <trkpt lat="43.00207" lon="1.05192">
        <ele>440.8</ele>
        <time>2024-06-24T14:16:23.993Z</time>
      </trkpt>
      <trkpt lat="43.00207" lon="1.05198">
        <ele>441.2</ele>
        <time>2024-06-24T14:16:24.993Z</time>
      </trkpt>
      <trkpt lat="43.00207" lon="1.05204">
        <ele>441.2</ele>
        <time>2024-06-24T14:16:25.993Z</time>
      </trkpt>
      <trkpt lat="43.00205" lon="1.05209">
        <ele>441.2</ele>
        <time>2024-06-24T14:16:26.993Z</time>
      </trkpt>
      <trkpt lat="43.00203" lon="1.05213">
        <ele>441.6</ele>
        <time>2024-06-24T14:16:27.993Z</time>
      </trkpt>
      <trkpt lat="43.00199" lon="1.05223">
        <ele>441.6</ele>
        <time>2024-06-24T14:16:28.993Z</time>
      </trkpt>
      <trkpt lat="43.00198" lon="1.05228">
        <ele>441.8</ele>
        <time>2024-06-24T14:16:29.993Z</time>
      </trkpt>
      <trkpt lat="43.00196" lon="1.05233">
        <ele>441.8</ele>
        <time>2024-06-24T14:16:30.993Z</time>
      </trkpt>
      <trkpt lat="43.00196" lon="1.0524">
        <ele>441.8</ele>
        <time>2024-06-24T14:16:31.993Z</time>
      </trkpt>
      <trkpt lat="43.00195" lon="1.05245">
        <ele>442.8</ele>
        <time>2024-06-24T14:16:32.993Z</time>
      </trkpt>
      <trkpt lat="43.00195" lon="1.0525">
        <ele>442.8</ele>
        <time>2024-06-24T14:16:33.993Z</time>
      </trkpt>
      <trkpt lat="43.00194" lon="1.05255">
        <ele>443</ele>
        <time>2024-06-24T14:16:34.993Z</time>
      </trkpt>
      <trkpt lat="43.00193" lon="1.0526">
        <ele>443</ele>
        <time>2024-06-24T14:16:35.993Z</time>
      </trkpt>
      <trkpt lat="43.00193" lon="1.05266">
        <ele>443</ele>
        <time>2024-06-24T14:16:36.993Z</time>
      </trkpt>
      <trkpt lat="43.00192" lon="1.0527">
        <ele>443.2</ele>
        <time>2024-06-24T14:16:37.993Z</time>
      </trkpt>
      <trkpt lat="43.00191" lon="1.05275">
        <ele>443.6</ele>
        <time>2024-06-24T14:16:38.993Z</time>
      </trkpt>
      <trkpt lat="43.0019" lon="1.0528">
        <ele>443.6</ele>
        <time>2024-06-24T14:16:39.993Z</time>
      </trkpt>
      <trkpt lat="43.00188" lon="1.05285">
        <ele>443.6</ele>
        <time>2024-06-24T14:16:40.993Z</time>
      </trkpt>
      <trkpt lat="43.00187" lon="1.05289">
        <ele>444.2</ele>
        <time>2024-06-24T14:16:41.993Z</time>
      </trkpt>
      <trkpt lat="43.00186" lon="1.05293">
        <ele>445</ele>
        <time>2024-06-24T14:16:42.993Z</time>
      </trkpt>
      <trkpt lat="43.00186" lon="1.05297">
        <ele>444.4</ele>
        <time>2024-06-24T14:16:43.993Z</time>
      </trkpt>
      <trkpt lat="43.00186" lon="1.05301">
        <ele>445</ele>
        <time>2024-06-24T14:16:44.993Z</time>
      </trkpt>
      <trkpt lat="43.00186" lon="1.05306">
        <ele>445.2</ele>
        <time>2024-06-24T14:16:45.993Z</time>
      </trkpt>
      <trkpt lat="43.00187" lon="1.0531">
        <ele>445.4</ele>
        <time>2024-06-24T14:16:46.993Z</time>
      </trkpt>
      <trkpt lat="43.00188" lon="1.05316">
        <ele>445.4</ele>
        <time>2024-06-24T14:16:47.993Z</time>
      </trkpt>
      <trkpt lat="43.00189" lon="1.05321">
        <ele>445.4</ele>
        <time>2024-06-24T14:16:48.993Z</time>
      </trkpt>
      <trkpt lat="43.00191" lon="1.05326">
        <ele>445.8</ele>
        <time>2024-06-24T14:16:49.993Z</time>
      </trkpt>
      <trkpt lat="43.00192" lon="1.05331">
        <ele>445.8</ele>
        <time>2024-06-24T14:16:50.993Z</time>
      </trkpt>
      <trkpt lat="43.00194" lon="1.05335">
        <ele>446.4</ele>
        <time>2024-06-24T14:16:51.993Z</time>
      </trkpt>
      <trkpt lat="43.00196" lon="1.05339">
        <ele>446.4</ele>
        <time>2024-06-24T14:16:52.993Z</time>
      </trkpt>
      <trkpt lat="43.00198" lon="1.05343">
        <ele>446.4</ele>
        <time>2024-06-24T14:16:53.993Z</time>
      </trkpt>
      <trkpt lat="43.002" lon="1.05348">
        <ele>446.8</ele>
        <time>2024-06-24T14:16:54.993Z</time>
      </trkpt>
      <trkpt lat="43.00203" lon="1.05352">
        <ele>446.8</ele>
        <time>2024-06-24T14:16:55.993Z</time>
      </trkpt>
      <trkpt lat="43.00206" lon="1.05356">
        <ele>446.8</ele>
        <time>2024-06-24T14:16:56.993Z</time>
      </trkpt>
      <trkpt lat="43.00208" lon="1.0536">
        <ele>446.2</ele>
        <time>2024-06-24T14:16:57.993Z</time>
      </trkpt>
      <trkpt lat="43.00211" lon="1.05364">
        <ele>446.2</ele>
        <time>2024-06-24T14:16:58.993Z</time>
      </trkpt>
      <trkpt lat="43.00214" lon="1.05367">
        <ele>446.2</ele>
        <time>2024-06-24T14:16:59.993Z</time>
      </trkpt>
      <trkpt lat="43.00217" lon="1.05371">
        <ele>446.2</ele>
        <time>2024-06-24T14:17:00.993Z</time>
      </trkpt>
      <trkpt lat="43.00219" lon="1.05376">
        <ele>446.4</ele>
        <time>2024-06-24T14:17:01.993Z</time>
      </trkpt>
      <trkpt lat="43.00222" lon="1.0538">
        <ele>446.4</ele>
        <time>2024-06-24T14:17:02.993Z</time>
      </trkpt>
      <trkpt lat="43.00225" lon="1.05385">
        <ele>446.4</ele>
        <time>2024-06-24T14:17:03.993Z</time>
      </trkpt>
      <trkpt lat="43.00227" lon="1.0539">
        <ele>446.4</ele>
        <time>2024-06-24T14:17:04.993Z</time>
      </trkpt>
      <trkpt lat="43.00229" lon="1.05395">
        <ele>446.4</ele>
        <time>2024-06-24T14:17:05.993Z</time>
      </trkpt>
      <trkpt lat="43.00229" lon="1.05402">
        <ele>446</ele>
        <time>2024-06-24T14:17:06.993Z</time>
      </trkpt>
      <trkpt lat="43.0023" lon="1.05407">
        <ele>447</ele>
        <time>2024-06-24T14:17:07.993Z</time>
      </trkpt>
      <trkpt lat="43.00232" lon="1.05413">
        <ele>447</ele>
        <time>2024-06-24T14:17:08.993Z</time>
      </trkpt>
      <trkpt lat="43.00233" lon="1.05418">
        <ele>447</ele>
        <time>2024-06-24T14:17:09.993Z</time>
      </trkpt>
      <trkpt lat="43.00233" lon="1.05424">
        <ele>446.4</ele>
        <time>2024-06-24T14:17:10.993Z</time>
      </trkpt>
      <trkpt lat="43.00233" lon="1.0543">
        <ele>446.4</ele>
        <time>2024-06-24T14:17:11.993Z</time>
      </trkpt>
      <trkpt lat="43.00233" lon="1.05435">
        <ele>446</ele>
        <time>2024-06-24T14:17:12.993Z</time>
      </trkpt>
      <trkpt lat="43.00234" lon="1.05441">
        <ele>445.6</ele>
        <time>2024-06-24T14:17:13.993Z</time>
      </trkpt>
      <trkpt lat="43.00234" lon="1.05446">
        <ele>445.6</ele>
        <time>2024-06-24T14:17:14.993Z</time>
      </trkpt>
      <trkpt lat="43.00234" lon="1.05452">
        <ele>445.6</ele>
        <time>2024-06-24T14:17:15.993Z</time>
      </trkpt>
      <trkpt lat="43.00234" lon="1.05457">
        <ele>445.8</ele>
        <time>2024-06-24T14:17:16.993Z</time>
      </trkpt>
      <trkpt lat="43.00235" lon="1.05463">
        <ele>446.2</ele>
        <time>2024-06-24T14:17:17.993Z</time>
      </trkpt>
      <trkpt lat="43.00236" lon="1.05468">
        <ele>446.2</ele>
        <time>2024-06-24T14:17:18.993Z</time>
      </trkpt>
      <trkpt lat="43.00236" lon="1.05473">
        <ele>446.6</ele>
        <time>2024-06-24T14:17:19.993Z</time>
      </trkpt>
      <trkpt lat="43.00237" lon="1.05478">
        <ele>446.6</ele>
        <time>2024-06-24T14:17:20.993Z</time>
      </trkpt>
      <trkpt lat="43.00238" lon="1.05483">
        <ele>446.6</ele>
        <time>2024-06-24T14:17:21.993Z</time>
      </trkpt>
      <trkpt lat="43.00239" lon="1.05488">
        <ele>446.8</ele>
        <time>2024-06-24T14:17:22.993Z</time>
      </trkpt>
      <trkpt lat="43.00239" lon="1.05493">
        <ele>446.8</ele>
        <time>2024-06-24T14:17:23.993Z</time>
      </trkpt>
      <trkpt lat="43.0024" lon="1.05497">
        <ele>447.4</ele>
        <time>2024-06-24T14:17:24.993Z</time>
      </trkpt>
      <trkpt lat="43.00242" lon="1.05501">
        <ele>447.6</ele>
        <time>2024-06-24T14:17:25.993Z</time>
      </trkpt>
      <trkpt lat="43.00243" lon="1.05506">
        <ele>447.6</ele>
        <time>2024-06-24T14:17:26.993Z</time>
      </trkpt>
      <trkpt lat="43.00245" lon="1.0551">
        <ele>447.6</ele>
        <time>2024-06-24T14:17:27.993Z</time>
      </trkpt>
      <trkpt lat="43.00246" lon="1.05514">
        <ele>447.6</ele>
        <time>2024-06-24T14:17:28.993Z</time>
      </trkpt>
      <trkpt lat="43.00247" lon="1.05519">
        <ele>447.6</ele>
        <time>2024-06-24T14:17:29.993Z</time>
      </trkpt>
      <trkpt lat="43.00248" lon="1.05523">
        <ele>447.6</ele>
        <time>2024-06-24T14:17:30.993Z</time>
      </trkpt>
      <trkpt lat="43.00249" lon="1.05527">
        <ele>447.6</ele>
        <time>2024-06-24T14:17:31.993Z</time>
      </trkpt>
      <trkpt lat="43.0025" lon="1.05532">
        <ele>447.6</ele>
        <time>2024-06-24T14:17:32.993Z</time>
      </trkpt>
      <trkpt lat="43.00251" lon="1.05536">
        <ele>448.2</ele>
        <time>2024-06-24T14:17:33.993Z</time>
      </trkpt>
      <trkpt lat="43.00252" lon="1.0554">
        <ele>448.2</ele>
        <time>2024-06-24T14:17:34.993Z</time>
      </trkpt>
      <trkpt lat="43.00253" lon="1.05544">
        <ele>448.6</ele>
        <time>2024-06-24T14:17:35.993Z</time>
      </trkpt>
      <trkpt lat="43.00254" lon="1.05548">
        <ele>448.6</ele>
        <time>2024-06-24T14:17:36.993Z</time>
      </trkpt>
      <trkpt lat="43.00255" lon="1.05552">
        <ele>449</ele>
        <time>2024-06-24T14:17:37.993Z</time>
      </trkpt>
      <trkpt lat="43.00256" lon="1.05556">
        <ele>449.4</ele>
        <time>2024-06-24T14:17:38.993Z</time>
      </trkpt>
      <trkpt lat="43.00257" lon="1.0556">
        <ele>449.8</ele>
        <time>2024-06-24T14:17:39.993Z</time>
      </trkpt>
      <trkpt lat="43.00258" lon="1.05565">
        <ele>450.2</ele>
        <time>2024-06-24T14:17:40.993Z</time>
      </trkpt>
      <trkpt lat="43.00259" lon="1.05569">
        <ele>450.6</ele>
        <time>2024-06-24T14:17:41.993Z</time>
      </trkpt>
      <trkpt lat="43.00259" lon="1.05572">
        <ele>451</ele>
        <time>2024-06-24T14:17:42.993Z</time>
      </trkpt>
      <trkpt lat="43.0026" lon="1.05577">
        <ele>451.4</ele>
        <time>2024-06-24T14:17:43.993Z</time>
      </trkpt>
      <trkpt lat="43.0026" lon="1.05581">
        <ele>451.8</ele>
        <time>2024-06-24T14:17:44.993Z</time>
      </trkpt>
      <trkpt lat="43.00261" lon="1.05585">
        <ele>451.8</ele>
        <time>2024-06-24T14:17:45.993Z</time>
      </trkpt>
      <trkpt lat="43.00262" lon="1.05589">
        <ele>452</ele>
        <time>2024-06-24T14:17:46.993Z</time>
      </trkpt>
      <trkpt lat="43.00262" lon="1.05593">
        <ele>452.2</ele>
        <time>2024-06-24T14:17:47.993Z</time>
      </trkpt>
      <trkpt lat="43.00263" lon="1.05597">
        <ele>452.2</ele>
        <time>2024-06-24T14:17:48.993Z</time>
      </trkpt>
      <trkpt lat="43.00264" lon="1.05601">
        <ele>452.4</ele>
        <time>2024-06-24T14:17:49.993Z</time>
      </trkpt>
      <trkpt lat="43.00264" lon="1.05604">
        <ele>452.4</ele>
        <time>2024-06-24T14:17:50.993Z</time>
      </trkpt>
      <trkpt lat="43.00265" lon="1.05607">
        <ele>452.8</ele>
        <time>2024-06-24T14:17:51.993Z</time>
      </trkpt>
      <trkpt lat="43.00265" lon="1.0561">
        <ele>452.8</ele>
        <time>2024-06-24T14:17:52.993Z</time>
      </trkpt>
      <trkpt lat="43.00265" lon="1.05613">
        <ele>452.8</ele>
        <time>2024-06-24T14:17:53.993Z</time>
      </trkpt>
      <trkpt lat="43.00266" lon="1.05617">
        <ele>453</ele>
        <time>2024-06-24T14:17:54.993Z</time>
      </trkpt>
      <trkpt lat="43.00266" lon="1.05621">
        <ele>453.8</ele>
        <time>2024-06-24T14:17:55.993Z</time>
      </trkpt>
      <trkpt lat="43.00267" lon="1.05624">
        <ele>453.8</ele>
        <time>2024-06-24T14:17:56.993Z</time>
      </trkpt>
      <trkpt lat="43.00267" lon="1.05627">
        <ele>453.8</ele>
        <time>2024-06-24T14:17:57.993Z</time>
      </trkpt>
      <trkpt lat="43.00268" lon="1.0563">
        <ele>454.4</ele>
        <time>2024-06-24T14:17:58.993Z</time>
      </trkpt>
      <trkpt lat="43.00268" lon="1.05633">
        <ele>454.6</ele>
        <time>2024-06-24T14:17:59.993Z</time>
      </trkpt>
      <trkpt lat="43.00269" lon="1.05637">
        <ele>454.6</ele>
        <time>2024-06-24T14:18:00.993Z</time>
      </trkpt>
      <trkpt lat="43.00269" lon="1.05641">
        <ele>455.2</ele>
        <time>2024-06-24T14:18:01.993Z</time>
      </trkpt>
      <trkpt lat="43.0027" lon="1.05644">
        <ele>455.2</ele>
        <time>2024-06-24T14:18:02.993Z</time>
      </trkpt>
      <trkpt lat="43.00271" lon="1.05647">
        <ele>455.2</ele>
        <time>2024-06-24T14:18:03.993Z</time>
      </trkpt>
      <trkpt lat="43.00271" lon="1.0565">
        <ele>455.4</ele>
        <time>2024-06-24T14:18:04.993Z</time>
      </trkpt>
      <trkpt lat="43.00272" lon="1.05653">
        <ele>455.6</ele>
        <time>2024-06-24T14:18:05.993Z</time>
      </trkpt>
      <trkpt lat="43.00273" lon="1.05656">
        <ele>455.8</ele>
        <time>2024-06-24T14:18:06.993Z</time>
      </trkpt>
      <trkpt lat="43.00274" lon="1.05659">
        <ele>456.2</ele>
        <time>2024-06-24T14:18:07.993Z</time>
      </trkpt>
      <trkpt lat="43.00275" lon="1.05662">
        <ele>456.6</ele>
        <time>2024-06-24T14:18:08.993Z</time>
      </trkpt>
      <trkpt lat="43.00276" lon="1.05666">
        <ele>457</ele>
        <time>2024-06-24T14:18:09.993Z</time>
      </trkpt>
      <trkpt lat="43.00277" lon="1.05669">
        <ele>457.2</ele>
        <time>2024-06-24T14:18:10.993Z</time>
      </trkpt>
      <trkpt lat="43.00277" lon="1.05672">
        <ele>457.4</ele>
        <time>2024-06-24T14:18:11.993Z</time>
      </trkpt>
      <trkpt lat="43.00278" lon="1.05675">
        <ele>457.4</ele>
        <time>2024-06-24T14:18:12.993Z</time>
      </trkpt>
      <trkpt lat="43.00278" lon="1.05678">
        <ele>457.8</ele>
        <time>2024-06-24T14:18:13.993Z</time>
      </trkpt>
      <trkpt lat="43.00279" lon="1.05682">
        <ele>457.8</ele>
        <time>2024-06-24T14:18:14.993Z</time>
      </trkpt>
      <trkpt lat="43.00279" lon="1.05685">
        <ele>458.2</ele>
        <time>2024-06-24T14:18:15.993Z</time>
      </trkpt>
      <trkpt lat="43.0028" lon="1.05688">
        <ele>458.2</ele>
        <time>2024-06-24T14:18:16.993Z</time>
      </trkpt>
      <trkpt lat="43.0028" lon="1.05691">
        <ele>458.4</ele>
        <time>2024-06-24T14:18:17.993Z</time>
      </trkpt>
      <trkpt lat="43.00281" lon="1.05694">
        <ele>458.8</ele>
        <time>2024-06-24T14:18:18.993Z</time>
      </trkpt>
      <trkpt lat="43.00281" lon="1.05698">
        <ele>458.8</ele>
        <time>2024-06-24T14:18:19.993Z</time>
      </trkpt>
      <trkpt lat="43.00281" lon="1.05701">
        <ele>459.2</ele>
        <time>2024-06-24T14:18:20.993Z</time>
      </trkpt>
      <trkpt lat="43.00281" lon="1.05704">
        <ele>459.4</ele>
        <time>2024-06-24T14:18:21.993Z</time>
      </trkpt>
      <trkpt lat="43.00281" lon="1.05707">
        <ele>459.8</ele>
        <time>2024-06-24T14:18:22.993Z</time>
      </trkpt>
      <trkpt lat="43.00282" lon="1.05711">
        <ele>460</ele>
        <time>2024-06-24T14:18:23.993Z</time>
      </trkpt>
      <trkpt lat="43.00283" lon="1.05714">
        <ele>460.2</ele>
        <time>2024-06-24T14:18:24.993Z</time>
      </trkpt>
      <trkpt lat="43.00283" lon="1.05716">
        <ele>460.2</ele>
        <time>2024-06-24T14:18:25.993Z</time>
      </trkpt>
      <trkpt lat="43.00284" lon="1.05719">
        <ele>460.4</ele>
        <time>2024-06-24T14:18:26.993Z</time>
      </trkpt>
      <trkpt lat="43.00284" lon="1.05722">
        <ele>460.4</ele>
        <time>2024-06-24T14:18:27.993Z</time>
      </trkpt>
      <trkpt lat="43.00285" lon="1.05725">
        <ele>460.8</ele>
        <time>2024-06-24T14:18:28.993Z</time>
      </trkpt>
      <trkpt lat="43.00285" lon="1.05728">
        <ele>461</ele>
        <time>2024-06-24T14:18:29.993Z</time>
      </trkpt>
      <trkpt lat="43.00285" lon="1.05731">
        <ele>461</ele>
        <time>2024-06-24T14:18:30.993Z</time>
      </trkpt>
      <trkpt lat="43.00286" lon="1.05734">
        <ele>461</ele>
        <time>2024-06-24T14:18:31.993Z</time>
      </trkpt>
      <trkpt lat="43.00286" lon="1.05737">
        <ele>461.4</ele>
        <time>2024-06-24T14:18:32.993Z</time>
      </trkpt>
      <trkpt lat="43.00287" lon="1.05739">
        <ele>461.6</ele>
        <time>2024-06-24T14:18:33.993Z</time>
      </trkpt>
      <trkpt lat="43.00287" lon="1.05742">
        <ele>461.6</ele>
        <time>2024-06-24T14:18:34.993Z</time>
      </trkpt>
      <trkpt lat="43.00287" lon="1.05745">
        <ele>461.6</ele>
        <time>2024-06-24T14:18:35.993Z</time>
      </trkpt>
      <trkpt lat="43.00287" lon="1.05747">
        <ele>462.2</ele>
        <time>2024-06-24T14:18:36.993Z</time>
      </trkpt>
      <trkpt lat="43.00287" lon="1.0575">
        <ele>462.6</ele>
        <time>2024-06-24T14:18:37.993Z</time>
      </trkpt>
      <trkpt lat="43.00287" lon="1.05753">
        <ele>462.8</ele>
        <time>2024-06-24T14:18:38.993Z</time>
      </trkpt>
      <trkpt lat="43.00287" lon="1.05756">
        <ele>462.8</ele>
        <time>2024-06-24T14:18:39.993Z</time>
      </trkpt>
      <trkpt lat="43.00287" lon="1.05759">
        <ele>462.8</ele>
        <time>2024-06-24T14:18:40.993Z</time>
      </trkpt>
      <trkpt lat="43.00287" lon="1.05762">
        <ele>463.4</ele>
        <time>2024-06-24T14:18:41.993Z</time>
      </trkpt>
      <trkpt lat="43.00287" lon="1.05765">
        <ele>463.4</ele>
        <time>2024-06-24T14:18:42.993Z</time>
      </trkpt>
      <trkpt lat="43.00286" lon="1.05767">
        <ele>463.4</ele>
        <time>2024-06-24T14:18:43.993Z</time>
      </trkpt>
      <trkpt lat="43.00286" lon="1.05769">
        <ele>463.8</ele>
        <time>2024-06-24T14:18:44.993Z</time>
      </trkpt>
      <trkpt lat="43.00286" lon="1.05771">
        <ele>463.8</ele>
        <time>2024-06-24T14:18:45.993Z</time>
      </trkpt>
      <trkpt lat="43.00286" lon="1.05774">
        <ele>464</ele>
        <time>2024-06-24T14:18:46.993Z</time>
      </trkpt>
      <trkpt lat="43.00286" lon="1.05778">
        <ele>464.4</ele>
        <time>2024-06-24T14:18:47.993Z</time>
      </trkpt>
      <trkpt lat="43.00285" lon="1.05782">
        <ele>464.4</ele>
        <time>2024-06-24T14:18:48.993Z</time>
      </trkpt>
      <trkpt lat="43.00285" lon="1.05785">
        <ele>464.4</ele>
        <time>2024-06-24T14:18:49.993Z</time>
      </trkpt>
      <trkpt lat="43.00285" lon="1.05789">
        <ele>464.8</ele>
        <time>2024-06-24T14:18:50.993Z</time>
      </trkpt>
      <trkpt lat="43.00284" lon="1.05792">
        <ele>465</ele>
        <time>2024-06-24T14:18:51.993Z</time>
      </trkpt>
      <trkpt lat="43.00284" lon="1.05796">
        <ele>465</ele>
        <time>2024-06-24T14:18:52.993Z</time>
      </trkpt>
      <trkpt lat="43.00284" lon="1.058">
        <ele>465.4</ele>
        <time>2024-06-24T14:18:53.993Z</time>
      </trkpt>
      <trkpt lat="43.00284" lon="1.05803">
        <ele>465.6</ele>
        <time>2024-06-24T14:18:54.993Z</time>
      </trkpt>
      <trkpt lat="43.00284" lon="1.05806">
        <ele>465.6</ele>
        <time>2024-06-24T14:18:55.993Z</time>
      </trkpt>
      <trkpt lat="43.00284" lon="1.05809">
        <ele>465.6</ele>
        <time>2024-06-24T14:18:56.993Z</time>
      </trkpt>
      <trkpt lat="43.00283" lon="1.05812">
        <ele>465.8</ele>
        <time>2024-06-24T14:18:57.993Z</time>
      </trkpt>
      <trkpt lat="43.00283" lon="1.05816">
        <ele>465.8</ele>
        <time>2024-06-24T14:18:58.993Z</time>
      </trkpt>
      <trkpt lat="43.00283" lon="1.0582">
        <ele>465.8</ele>
        <time>2024-06-24T14:18:59.993Z</time>
      </trkpt>
      <trkpt lat="43.00283" lon="1.05824">
        <ele>465.8</ele>
        <time>2024-06-24T14:19:00.993Z</time>
      </trkpt>
      <trkpt lat="43.00284" lon="1.05828">
        <ele>465.8</ele>
        <time>2024-06-24T14:19:01.993Z</time>
      </trkpt>
      <trkpt lat="43.00284" lon="1.05834">
        <ele>465.6</ele>
        <time>2024-06-24T14:19:02.993Z</time>
      </trkpt>
      <trkpt lat="43.00284" lon="1.05839">
        <ele>465.6</ele>
        <time>2024-06-24T14:19:03.993Z</time>
      </trkpt>
      <trkpt lat="43.00284" lon="1.05844">
        <ele>465.4</ele>
        <time>2024-06-24T14:19:04.993Z</time>
      </trkpt>
      <trkpt lat="43.00284" lon="1.05849">
        <ele>465.4</ele>
        <time>2024-06-24T14:19:05.993Z</time>
      </trkpt>
      <trkpt lat="43.00284" lon="1.05854">
        <ele>465.4</ele>
        <time>2024-06-24T14:19:06.993Z</time>
      </trkpt>
      <trkpt lat="43.00284" lon="1.05859">
        <ele>465.4</ele>
        <time>2024-06-24T14:19:07.993Z</time>
      </trkpt>
      <trkpt lat="43.00283" lon="1.05865">
        <ele>465</ele>
        <time>2024-06-24T14:19:08.993Z</time>
      </trkpt>
      <trkpt lat="43.00283" lon="1.05871">
        <ele>465</ele>
        <time>2024-06-24T14:19:09.993Z</time>
      </trkpt>
      <trkpt lat="43.00282" lon="1.05877">
        <ele>464.8</ele>
        <time>2024-06-24T14:19:10.993Z</time>
      </trkpt>
      <trkpt lat="43.00282" lon="1.05883">
        <ele>464.8</ele>
        <time>2024-06-24T14:19:11.993Z</time>
      </trkpt>
      <trkpt lat="43.00281" lon="1.05889">
        <ele>464.8</ele>
        <time>2024-06-24T14:19:12.993Z</time>
      </trkpt>
      <trkpt lat="43.0028" lon="1.05895">
        <ele>464.8</ele>
        <time>2024-06-24T14:19:13.993Z</time>
      </trkpt>
      <trkpt lat="43.00279" lon="1.05902">
        <ele>464.4</ele>
        <time>2024-06-24T14:19:14.993Z</time>
      </trkpt>
      <trkpt lat="43.00279" lon="1.05907">
        <ele>464</ele>
        <time>2024-06-24T14:19:15.993Z</time>
      </trkpt>
      <trkpt lat="43.00279" lon="1.05915">
        <ele>464</ele>
        <time>2024-06-24T14:19:16.993Z</time>
      </trkpt>
      <trkpt lat="43.00279" lon="1.05922">
        <ele>463.6</ele>
        <time>2024-06-24T14:19:17.993Z</time>
      </trkpt>
      <trkpt lat="43.00278" lon="1.05929">
        <ele>463.6</ele>
        <time>2024-06-24T14:19:18.993Z</time>
      </trkpt>
      <trkpt lat="43.00278" lon="1.05935">
        <ele>463.2</ele>
        <time>2024-06-24T14:19:19.993Z</time>
      </trkpt>
      <trkpt lat="43.00279" lon="1.05942">
        <ele>463.2</ele>
        <time>2024-06-24T14:19:20.993Z</time>
      </trkpt>
      <trkpt lat="43.0028" lon="1.0595">
        <ele>463.2</ele>
        <time>2024-06-24T14:19:21.993Z</time>
      </trkpt>
      <trkpt lat="43.00281" lon="1.05957">
        <ele>463.4</ele>
        <time>2024-06-24T14:19:22.993Z</time>
      </trkpt>
      <trkpt lat="43.00281" lon="1.05964">
        <ele>463.2</ele>
        <time>2024-06-24T14:19:23.993Z</time>
      </trkpt>
      <trkpt lat="43.00282" lon="1.05971">
        <ele>463.2</ele>
        <time>2024-06-24T14:19:24.993Z</time>
      </trkpt>
      <trkpt lat="43.00283" lon="1.05977">
        <ele>463.8</ele>
        <time>2024-06-24T14:19:25.993Z</time>
      </trkpt>
      <trkpt lat="43.00283" lon="1.05984">
        <ele>463.4</ele>
        <time>2024-06-24T14:19:26.993Z</time>
      </trkpt>
      <trkpt lat="43.00283" lon="1.05989">
        <ele>463.4</ele>
        <time>2024-06-24T14:19:27.993Z</time>
      </trkpt>
      <trkpt lat="43.00283" lon="1.05994">
        <ele>463.4</ele>
        <time>2024-06-24T14:19:28.993Z</time>
      </trkpt>
      <trkpt lat="43.00283" lon="1.05999">
        <ele>463</ele>
        <time>2024-06-24T14:19:29.993Z</time>
      </trkpt>
      <trkpt lat="43.00284" lon="1.06004">
        <ele>463</ele>
        <time>2024-06-24T14:19:30.993Z</time>
      </trkpt>
      <trkpt lat="43.00284" lon="1.06009">
        <ele>463</ele>
        <time>2024-06-24T14:19:31.993Z</time>
      </trkpt>
      <trkpt lat="43.00284" lon="1.06013">
        <ele>463.4</ele>
        <time>2024-06-24T14:19:32.993Z</time>
      </trkpt>
      <trkpt lat="43.00284" lon="1.06018">
        <ele>463.4</ele>
        <time>2024-06-24T14:19:33.993Z</time>
      </trkpt>
      <trkpt lat="43.00285" lon="1.06022">
        <ele>463.4</ele>
        <time>2024-06-24T14:19:34.993Z</time>
      </trkpt>
      <trkpt lat="43.00286" lon="1.06027">
        <ele>463.4</ele>
        <time>2024-06-24T14:19:35.993Z</time>
      </trkpt>
      <trkpt lat="43.00286" lon="1.06031">
        <ele>463.4</ele>
        <time>2024-06-24T14:19:36.993Z</time>
      </trkpt>
      <trkpt lat="43.00286" lon="1.06035">
        <ele>463.4</ele>
        <time>2024-06-24T14:19:37.993Z</time>
      </trkpt>
      <trkpt lat="43.00286" lon="1.0604">
        <ele>463.4</ele>
        <time>2024-06-24T14:19:38.993Z</time>
      </trkpt>
      <trkpt lat="43.00287" lon="1.06044">
        <ele>463.4</ele>
        <time>2024-06-24T14:19:39.993Z</time>
      </trkpt>
      <trkpt lat="43.00288" lon="1.06048">
        <ele>463.8</ele>
        <time>2024-06-24T14:19:40.993Z</time>
      </trkpt>
      <trkpt lat="43.00289" lon="1.06052">
        <ele>463.8</ele>
        <time>2024-06-24T14:19:41.993Z</time>
      </trkpt>
      <trkpt lat="43.0029" lon="1.06056">
        <ele>463.8</ele>
        <time>2024-06-24T14:19:42.993Z</time>
      </trkpt>
      <trkpt lat="43.00291" lon="1.0606">
        <ele>464.2</ele>
        <time>2024-06-24T14:19:43.993Z</time>
      </trkpt>
      <trkpt lat="43.00292" lon="1.06064">
        <ele>464.2</ele>
        <time>2024-06-24T14:19:44.993Z</time>
      </trkpt>
      <trkpt lat="43.00294" lon="1.06068">
        <ele>464.2</ele>
        <time>2024-06-24T14:19:45.993Z</time>
      </trkpt>
      <trkpt lat="43.00296" lon="1.06072">
        <ele>464.4</ele>
        <time>2024-06-24T14:19:46.993Z</time>
      </trkpt>
      <trkpt lat="43.00298" lon="1.06075">
        <ele>464.4</ele>
        <time>2024-06-24T14:19:47.993Z</time>
      </trkpt>
      <trkpt lat="43.00299" lon="1.06079">
        <ele>464.4</ele>
        <time>2024-06-24T14:19:48.993Z</time>
      </trkpt>
      <trkpt lat="43.00301" lon="1.06083">
        <ele>464.6</ele>
        <time>2024-06-24T14:19:49.993Z</time>
      </trkpt>
      <trkpt lat="43.00302" lon="1.06087">
        <ele>464.8</ele>
        <time>2024-06-24T14:19:50.993Z</time>
      </trkpt>
      <trkpt lat="43.00303" lon="1.06091">
        <ele>464.8</ele>
        <time>2024-06-24T14:19:51.993Z</time>
      </trkpt>
      <trkpt lat="43.00305" lon="1.06095">
        <ele>464.8</ele>
        <time>2024-06-24T14:19:52.993Z</time>
      </trkpt>
      <trkpt lat="43.00305" lon="1.06099">
        <ele>465</ele>
        <time>2024-06-24T14:19:53.993Z</time>
      </trkpt>
      <trkpt lat="43.00306" lon="1.06103">
        <ele>465</ele>
        <time>2024-06-24T14:19:54.993Z</time>
      </trkpt>
      <trkpt lat="43.00307" lon="1.06108">
        <ele>465</ele>
        <time>2024-06-24T14:19:55.993Z</time>
      </trkpt>
      <trkpt lat="43.00308" lon="1.06112">
        <ele>465</ele>
        <time>2024-06-24T14:19:56.993Z</time>
      </trkpt>
      <trkpt lat="43.00309" lon="1.06117">
        <ele>465</ele>
        <time>2024-06-24T14:19:57.993Z</time>
      </trkpt>
      <trkpt lat="43.0031" lon="1.06121">
        <ele>465.2</ele>
        <time>2024-06-24T14:19:58.993Z</time>
      </trkpt>
      <trkpt lat="43.0031" lon="1.06123">
        <ele>465.2</ele>
        <time>2024-06-24T14:19:59.993Z</time>
      </trkpt>
      <trkpt lat="43.00311" lon="1.06125">
        <ele>465.2</ele>
        <time>2024-06-24T14:20:00.993Z</time>
      </trkpt>
      <trkpt lat="43.00312" lon="1.0613">
        <ele>465.8</ele>
        <time>2024-06-24T14:20:01.993Z</time>
      </trkpt>
      <trkpt lat="43.00313" lon="1.06134">
        <ele>466.2</ele>
        <time>2024-06-24T14:20:02.993Z</time>
      </trkpt>
      <trkpt lat="43.00314" lon="1.06138">
        <ele>466.4</ele>
        <time>2024-06-24T14:20:03.993Z</time>
      </trkpt>
      <trkpt lat="43.00315" lon="1.06143">
        <ele>466.4</ele>
        <time>2024-06-24T14:20:04.993Z</time>
      </trkpt>
      <trkpt lat="43.00316" lon="1.06147">
        <ele>466.4</ele>
        <time>2024-06-24T14:20:05.993Z</time>
      </trkpt>
      <trkpt lat="43.00317" lon="1.06151">
        <ele>466.4</ele>
        <time>2024-06-24T14:20:06.993Z</time>
      </trkpt>
      <trkpt lat="43.00318" lon="1.06156">
        <ele>466.8</ele>
        <time>2024-06-24T14:20:07.993Z</time>
      </trkpt>
      <trkpt lat="43.00319" lon="1.0616">
        <ele>466.8</ele>
        <time>2024-06-24T14:20:08.993Z</time>
      </trkpt>
      <trkpt lat="43.0032" lon="1.06165">
        <ele>466.4</ele>
        <time>2024-06-24T14:20:09.993Z</time>
      </trkpt>
      <trkpt lat="43.00321" lon="1.06169">
        <ele>466.4</ele>
        <time>2024-06-24T14:20:10.993Z</time>
      </trkpt>
      <trkpt lat="43.00321" lon="1.06174">
        <ele>466.4</ele>
        <time>2024-06-24T14:20:11.993Z</time>
      </trkpt>
      <trkpt lat="43.00322" lon="1.06179">
        <ele>466.4</ele>
        <time>2024-06-24T14:20:12.993Z</time>
      </trkpt>
      <trkpt lat="43.00323" lon="1.06183">
        <ele>466.4</ele>
        <time>2024-06-24T14:20:13.993Z</time>
      </trkpt>
      <trkpt lat="43.00323" lon="1.06187">
        <ele>466.4</ele>
        <time>2024-06-24T14:20:14.993Z</time>
      </trkpt>
      <trkpt lat="43.00324" lon="1.06192">
        <ele>466.8</ele>
        <time>2024-06-24T14:20:15.993Z</time>
      </trkpt>
      <trkpt lat="43.00325" lon="1.06196">
        <ele>466.8</ele>
        <time>2024-06-24T14:20:16.993Z</time>
      </trkpt>
      <trkpt lat="43.00326" lon="1.062">
        <ele>466.8</ele>
        <time>2024-06-24T14:20:17.993Z</time>
      </trkpt>
      <trkpt lat="43.00326" lon="1.06205">
        <ele>467.2</ele>
        <time>2024-06-24T14:20:18.993Z</time>
      </trkpt>
      <trkpt lat="43.00327" lon="1.06209">
        <ele>467</ele>
        <time>2024-06-24T14:20:19.993Z</time>
      </trkpt>
      <trkpt lat="43.00328" lon="1.06214">
        <ele>467</ele>
        <time>2024-06-24T14:20:20.993Z</time>
      </trkpt>
      <trkpt lat="43.00328" lon="1.06218">
        <ele>467.2</ele>
        <time>2024-06-24T14:20:21.993Z</time>
      </trkpt>
      <trkpt lat="43.00328" lon="1.06222">
        <ele>467.2</ele>
        <time>2024-06-24T14:20:22.993Z</time>
      </trkpt>
      <trkpt lat="43.00329" lon="1.06227">
        <ele>467.2</ele>
        <time>2024-06-24T14:20:23.993Z</time>
      </trkpt>
      <trkpt lat="43.00329" lon="1.06231">
        <ele>468</ele>
        <time>2024-06-24T14:20:24.993Z</time>
      </trkpt>
      <trkpt lat="43.0033" lon="1.06235">
        <ele>468</ele>
        <time>2024-06-24T14:20:25.993Z</time>
      </trkpt>
      <trkpt lat="43.0033" lon="1.06238">
        <ele>468.2</ele>
        <time>2024-06-24T14:20:26.993Z</time>
      </trkpt>
      <trkpt lat="43.00331" lon="1.06242">
        <ele>468.2</ele>
        <time>2024-06-24T14:20:27.993Z</time>
      </trkpt>
      <trkpt lat="43.00331" lon="1.06246">
        <ele>468.2</ele>
        <time>2024-06-24T14:20:28.993Z</time>
      </trkpt>
      <trkpt lat="43.00331" lon="1.06249">
        <ele>468.2</ele>
        <time>2024-06-24T14:20:29.993Z</time>
      </trkpt>
      <trkpt lat="43.00331" lon="1.06253">
        <ele>468.2</ele>
        <time>2024-06-24T14:20:30.993Z</time>
      </trkpt>
      <trkpt lat="43.00332" lon="1.06257">
        <ele>468.6</ele>
        <time>2024-06-24T14:20:31.993Z</time>
      </trkpt>
      <trkpt lat="43.00333" lon="1.06262">
        <ele>468.6</ele>
        <time>2024-06-24T14:20:32.993Z</time>
      </trkpt>
      <trkpt lat="43.00333" lon="1.06266">
        <ele>469</ele>
        <time>2024-06-24T14:20:33.993Z</time>
      </trkpt>
      <trkpt lat="43.00334" lon="1.0627">
        <ele>469</ele>
        <time>2024-06-24T14:20:34.993Z</time>
      </trkpt>
      <trkpt lat="43.00334" lon="1.06275">
        <ele>469</ele>
        <time>2024-06-24T14:20:35.993Z</time>
      </trkpt>
      <trkpt lat="43.00335" lon="1.0628">
        <ele>469.2</ele>
        <time>2024-06-24T14:20:36.993Z</time>
      </trkpt>
      <trkpt lat="43.00336" lon="1.06284">
        <ele>469.4</ele>
        <time>2024-06-24T14:20:37.993Z</time>
      </trkpt>
      <trkpt lat="43.00337" lon="1.06289">
        <ele>469.4</ele>
        <time>2024-06-24T14:20:38.993Z</time>
      </trkpt>
      <trkpt lat="43.00338" lon="1.06293">
        <ele>469.8</ele>
        <time>2024-06-24T14:20:39.993Z</time>
      </trkpt>
      <trkpt lat="43.0034" lon="1.06297">
        <ele>469.8</ele>
        <time>2024-06-24T14:20:40.993Z</time>
      </trkpt>
      <trkpt lat="43.00341" lon="1.06302">
        <ele>470</ele>
        <time>2024-06-24T14:20:41.993Z</time>
      </trkpt>
      <trkpt lat="43.00342" lon="1.06306">
        <ele>470</ele>
        <time>2024-06-24T14:20:42.993Z</time>
      </trkpt>
      <trkpt lat="43.00343" lon="1.0631">
        <ele>470</ele>
        <time>2024-06-24T14:20:43.993Z</time>
      </trkpt>
      <trkpt lat="43.00345" lon="1.06314">
        <ele>470</ele>
        <time>2024-06-24T14:20:44.993Z</time>
      </trkpt>
      <trkpt lat="43.00346" lon="1.06319">
        <ele>470</ele>
        <time>2024-06-24T14:20:45.993Z</time>
      </trkpt>
      <trkpt lat="43.00347" lon="1.06323">
        <ele>470</ele>
        <time>2024-06-24T14:20:46.993Z</time>
      </trkpt>
      <trkpt lat="43.00349" lon="1.06327">
        <ele>470</ele>
        <time>2024-06-24T14:20:47.993Z</time>
      </trkpt>
      <trkpt lat="43.0035" lon="1.06331">
        <ele>470</ele>
        <time>2024-06-24T14:20:48.993Z</time>
      </trkpt>
      <trkpt lat="43.00351" lon="1.06335">
        <ele>470</ele>
        <time>2024-06-24T14:20:49.993Z</time>
      </trkpt>
      <trkpt lat="43.00352" lon="1.06339">
        <ele>470</ele>
        <time>2024-06-24T14:20:50.993Z</time>
      </trkpt>
      <trkpt lat="43.00353" lon="1.06344">
        <ele>470.2</ele>
        <time>2024-06-24T14:20:51.993Z</time>
      </trkpt>
      <trkpt lat="43.00355" lon="1.06348">
        <ele>470.2</ele>
        <time>2024-06-24T14:20:52.993Z</time>
      </trkpt>
      <trkpt lat="43.00356" lon="1.06352">
        <ele>470.2</ele>
        <time>2024-06-24T14:20:53.993Z</time>
      </trkpt>
      <trkpt lat="43.00357" lon="1.06356">
        <ele>470.2</ele>
        <time>2024-06-24T14:20:54.993Z</time>
      </trkpt>
      <trkpt lat="43.00358" lon="1.0636">
        <ele>470.2</ele>
        <time>2024-06-24T14:20:55.993Z</time>
      </trkpt>
      <trkpt lat="43.00359" lon="1.06364">
        <ele>470.2</ele>
        <time>2024-06-24T14:20:56.993Z</time>
      </trkpt>
      <trkpt lat="43.0036" lon="1.06368">
        <ele>470.2</ele>
        <time>2024-06-24T14:20:57.993Z</time>
      </trkpt>
      <trkpt lat="43.00361" lon="1.06373">
        <ele>470.2</ele>
        <time>2024-06-24T14:20:58.993Z</time>
      </trkpt>
      <trkpt lat="43.00361" lon="1.06377">
        <ele>470.2</ele>
        <time>2024-06-24T14:20:59.993Z</time>
      </trkpt>
      <trkpt lat="43.00362" lon="1.06381">
        <ele>470.4</ele>
        <time>2024-06-24T14:21:00.993Z</time>
      </trkpt>
      <trkpt lat="43.00363" lon="1.06385">
        <ele>470.4</ele>
        <time>2024-06-24T14:21:01.993Z</time>
      </trkpt>
      <trkpt lat="43.00364" lon="1.06389">
        <ele>470.4</ele>
        <time>2024-06-24T14:21:02.993Z</time>
      </trkpt>
      <trkpt lat="43.00365" lon="1.06391">
        <ele>470.4</ele>
        <time>2024-06-24T14:21:03.993Z</time>
      </trkpt>
      <trkpt lat="43.00366" lon="1.06394">
        <ele>470.8</ele>
        <time>2024-06-24T14:21:04.993Z</time>
      </trkpt>
      <trkpt lat="43.00367" lon="1.06398">
        <ele>470.8</ele>
        <time>2024-06-24T14:21:05.993Z</time>
      </trkpt>
      <trkpt lat="43.00368" lon="1.06402">
        <ele>470.8</ele>
        <time>2024-06-24T14:21:06.993Z</time>
      </trkpt>
      <trkpt lat="43.00369" lon="1.06407">
        <ele>470.6</ele>
        <time>2024-06-24T14:21:07.993Z</time>
      </trkpt>
      <trkpt lat="43.0037" lon="1.06411">
        <ele>470.6</ele>
        <time>2024-06-24T14:21:08.993Z</time>
      </trkpt>
      <trkpt lat="43.0037" lon="1.06414">
        <ele>470.6</ele>
        <time>2024-06-24T14:21:09.993Z</time>
      </trkpt>
      <trkpt lat="43.0037" lon="1.06417">
        <ele>470.6</ele>
        <time>2024-06-24T14:21:10.993Z</time>
      </trkpt>
      <trkpt lat="43.00371" lon="1.06421">
        <ele>470.6</ele>
        <time>2024-06-24T14:21:11.993Z</time>
      </trkpt>
      <trkpt lat="43.00372" lon="1.06425">
        <ele>470.2</ele>
        <time>2024-06-24T14:21:12.993Z</time>
      </trkpt>
      <trkpt lat="43.00373" lon="1.06429">
        <ele>470.2</ele>
        <time>2024-06-24T14:21:13.993Z</time>
      </trkpt>
      <trkpt lat="43.00374" lon="1.06433">
        <ele>470.2</ele>
        <time>2024-06-24T14:21:14.993Z</time>
      </trkpt>
      <trkpt lat="43.00375" lon="1.06438">
        <ele>469.8</ele>
        <time>2024-06-24T14:21:15.993Z</time>
      </trkpt>
      <trkpt lat="43.00377" lon="1.06443">
        <ele>469.6</ele>
        <time>2024-06-24T14:21:16.993Z</time>
      </trkpt>
      <trkpt lat="43.00378" lon="1.06447">
        <ele>469.6</ele>
        <time>2024-06-24T14:21:17.993Z</time>
      </trkpt>
      <trkpt lat="43.0038" lon="1.06452">
        <ele>469.6</ele>
        <time>2024-06-24T14:21:18.993Z</time>
      </trkpt>
      <trkpt lat="43.00382" lon="1.06457">
        <ele>469.6</ele>
        <time>2024-06-24T14:21:19.993Z</time>
      </trkpt>
      <trkpt lat="43.00383" lon="1.0646">
        <ele>469.2</ele>
        <time>2024-06-24T14:21:20.993Z</time>
      </trkpt>
      <trkpt lat="43.00384" lon="1.06462">
        <ele>469.2</ele>
        <time>2024-06-24T14:21:21.993Z</time>
      </trkpt>
      <trkpt lat="43.00384" lon="1.06465">
        <ele>469.2</ele>
        <time>2024-06-24T14:21:22.993Z</time>
      </trkpt>
      <trkpt lat="43.00382" lon="1.06469">
        <ele>468.8</ele>
        <time>2024-06-24T14:21:23.993Z</time>
      </trkpt>
      <trkpt lat="43.0038" lon="1.06472">
        <ele>468.6</ele>
        <time>2024-06-24T14:21:24.993Z</time>
      </trkpt>
      <trkpt lat="43.00377" lon="1.06474">
        <ele>468.2</ele>
        <time>2024-06-24T14:21:25.993Z</time>
      </trkpt>
      <trkpt lat="43.00374" lon="1.06476">
        <ele>467.8</ele>
        <time>2024-06-24T14:21:26.993Z</time>
      </trkpt>
      <trkpt lat="43.00371" lon="1.06476">
        <ele>467.2</ele>
        <time>2024-06-24T14:21:27.993Z</time>
      </trkpt>
      <trkpt lat="43.00368" lon="1.06477">
        <ele>467.2</ele>
        <time>2024-06-24T14:21:28.993Z</time>
      </trkpt>
      <trkpt lat="43.00364" lon="1.06478">
        <ele>467.2</ele>
        <time>2024-06-24T14:21:29.993Z</time>
      </trkpt>
      <trkpt lat="43.00361" lon="1.06478">
        <ele>466.6</ele>
        <time>2024-06-24T14:21:30.993Z</time>
      </trkpt>
      <trkpt lat="43.00358" lon="1.06479">
        <ele>465.8</ele>
        <time>2024-06-24T14:21:31.993Z</time>
      </trkpt>
      <trkpt lat="43.00355" lon="1.0648">
        <ele>465.6</ele>
        <time>2024-06-24T14:21:32.993Z</time>
      </trkpt>
      <trkpt lat="43.00352" lon="1.06481">
        <ele>465.4</ele>
        <time>2024-06-24T14:21:33.993Z</time>
      </trkpt>
      <trkpt lat="43.00348" lon="1.06482">
        <ele>465.8</ele>
        <time>2024-06-24T14:21:34.993Z</time>
      </trkpt>
      <trkpt lat="43.00345" lon="1.06483">
        <ele>465.4</ele>
        <time>2024-06-24T14:21:35.993Z</time>
      </trkpt>
      <trkpt lat="43.00342" lon="1.06485">
        <ele>464.8</ele>
        <time>2024-06-24T14:21:36.993Z</time>
      </trkpt>
      <trkpt lat="43.00338" lon="1.06486">
        <ele>464.8</ele>
        <time>2024-06-24T14:21:37.993Z</time>
      </trkpt>
      <trkpt lat="43.00335" lon="1.06487">
        <ele>465</ele>
        <time>2024-06-24T14:21:38.993Z</time>
      </trkpt>
      <trkpt lat="43.00332" lon="1.06489">
        <ele>464.6</ele>
        <time>2024-06-24T14:21:39.993Z</time>
      </trkpt>
      <trkpt lat="43.00328" lon="1.0649">
        <ele>464</ele>
        <time>2024-06-24T14:21:40.993Z</time>
      </trkpt>
      <trkpt lat="43.00325" lon="1.06492">
        <ele>463.4</ele>
        <time>2024-06-24T14:21:41.993Z</time>
      </trkpt>
      <trkpt lat="43.00322" lon="1.06493">
        <ele>463.2</ele>
        <time>2024-06-24T14:21:42.993Z</time>
      </trkpt>
      <trkpt lat="43.00318" lon="1.06494">
        <ele>463.2</ele>
        <time>2024-06-24T14:21:43.993Z</time>
      </trkpt>
      <trkpt lat="43.00315" lon="1.06495">
        <ele>462.4</ele>
        <time>2024-06-24T14:21:44.993Z</time>
      </trkpt>
      <trkpt lat="43.00312" lon="1.06496">
        <ele>462.4</ele>
        <time>2024-06-24T14:21:45.993Z</time>
      </trkpt>
      <trkpt lat="43.00309" lon="1.06497">
        <ele>462.4</ele>
        <time>2024-06-24T14:21:46.993Z</time>
      </trkpt>
      <trkpt lat="43.00306" lon="1.06498">
        <ele>462.8</ele>
        <time>2024-06-24T14:21:47.993Z</time>
      </trkpt>
      <trkpt lat="43.00302" lon="1.06499">
        <ele>462.8</ele>
        <time>2024-06-24T14:21:48.993Z</time>
      </trkpt>
      <trkpt lat="43.00298" lon="1.06501">
        <ele>461.6</ele>
        <time>2024-06-24T14:21:49.993Z</time>
      </trkpt>
      <trkpt lat="43.00294" lon="1.06503">
        <ele>461.8</ele>
        <time>2024-06-24T14:21:50.993Z</time>
      </trkpt>
      <trkpt lat="43.0029" lon="1.06504">
        <ele>461.6</ele>
        <time>2024-06-24T14:21:51.993Z</time>
      </trkpt>
      <trkpt lat="43.00287" lon="1.06506">
        <ele>461.6</ele>
        <time>2024-06-24T14:21:52.993Z</time>
      </trkpt>
      <trkpt lat="43.00284" lon="1.06507">
        <ele>461.6</ele>
        <time>2024-06-24T14:21:53.993Z</time>
      </trkpt>
      <trkpt lat="43.00281" lon="1.06508">
        <ele>461.6</ele>
        <time>2024-06-24T14:21:54.993Z</time>
      </trkpt>
      <trkpt lat="43.00278" lon="1.06509">
        <ele>461</ele>
        <time>2024-06-24T14:21:55.993Z</time>
      </trkpt>
      <trkpt lat="43.00275" lon="1.0651">
        <ele>461</ele>
        <time>2024-06-24T14:21:56.993Z</time>
      </trkpt>
      <trkpt lat="43.00271" lon="1.06511">
        <ele>461</ele>
        <time>2024-06-24T14:21:57.993Z</time>
      </trkpt>
      <trkpt lat="43.00267" lon="1.06513">
        <ele>460</ele>
        <time>2024-06-24T14:21:58.993Z</time>
      </trkpt>
      <trkpt lat="43.00263" lon="1.06514">
        <ele>459</ele>
        <time>2024-06-24T14:21:59.993Z</time>
      </trkpt>
      <trkpt lat="43.00259" lon="1.06516">
        <ele>459</ele>
        <time>2024-06-24T14:22:00.993Z</time>
      </trkpt>
      <trkpt lat="43.00255" lon="1.06518">
        <ele>458.6</ele>
        <time>2024-06-24T14:22:01.993Z</time>
      </trkpt>
      <trkpt lat="43.0025" lon="1.06519">
        <ele>458.2</ele>
        <time>2024-06-24T14:22:02.993Z</time>
      </trkpt>
      <trkpt lat="43.00245" lon="1.06521">
        <ele>458.2</ele>
        <time>2024-06-24T14:22:03.993Z</time>
      </trkpt>
      <trkpt lat="43.0024" lon="1.06522">
        <ele>457.6</ele>
        <time>2024-06-24T14:22:04.993Z</time>
      </trkpt>
      <trkpt lat="43.00235" lon="1.06525">
        <ele>457.6</ele>
        <time>2024-06-24T14:22:05.993Z</time>
      </trkpt>
      <trkpt lat="43.0023" lon="1.06526">
        <ele>457.6</ele>
        <time>2024-06-24T14:22:06.993Z</time>
      </trkpt>
      <trkpt lat="43.00225" lon="1.06528">
        <ele>457.6</ele>
        <time>2024-06-24T14:22:07.993Z</time>
      </trkpt>
      <trkpt lat="43.00221" lon="1.0653">
        <ele>457.6</ele>
        <time>2024-06-24T14:22:08.993Z</time>
      </trkpt>
      <trkpt lat="43.00216" lon="1.06531">
        <ele>457.6</ele>
        <time>2024-06-24T14:22:09.993Z</time>
      </trkpt>
      <trkpt lat="43.00212" lon="1.06532">
        <ele>457.2</ele>
        <time>2024-06-24T14:22:10.993Z</time>
      </trkpt>
      <trkpt lat="43.00207" lon="1.06533">
        <ele>457.2</ele>
        <time>2024-06-24T14:22:11.993Z</time>
      </trkpt>
      <trkpt lat="43.00203" lon="1.06534">
        <ele>456.8</ele>
        <time>2024-06-24T14:22:12.993Z</time>
      </trkpt>
      <trkpt lat="43.002" lon="1.06535">
        <ele>456.8</ele>
        <time>2024-06-24T14:22:13.993Z</time>
      </trkpt>
      <trkpt lat="43.00197" lon="1.06536">
        <ele>456.8</ele>
        <time>2024-06-24T14:22:14.993Z</time>
      </trkpt>
      <trkpt lat="43.00194" lon="1.06535">
        <ele>456.8</ele>
        <time>2024-06-24T14:22:15.993Z</time>
      </trkpt>
      <trkpt lat="43.00192" lon="1.06538">
        <ele>456.8</ele>
        <time>2024-06-24T14:22:16.993Z</time>
      </trkpt>
      <trkpt lat="43.00191" lon="1.0654">
        <ele>456.8</ele>
        <time>2024-06-24T14:22:17.993Z</time>
      </trkpt>
      <trkpt lat="43.0019" lon="1.06543">
        <ele>456.8</ele>
        <time>2024-06-24T14:22:18.993Z</time>
      </trkpt>
      <trkpt lat="43.00189" lon="1.06547">
        <ele>457</ele>
        <time>2024-06-24T14:22:19.993Z</time>
      </trkpt>
      <trkpt lat="43.0019" lon="1.06552">
        <ele>457</ele>
        <time>2024-06-24T14:22:20.993Z</time>
      </trkpt>
      <trkpt lat="43.0019" lon="1.06557">
        <ele>457</ele>
        <time>2024-06-24T14:22:21.993Z</time>
      </trkpt>
      <trkpt lat="43.00191" lon="1.06562">
        <ele>457</ele>
        <time>2024-06-24T14:22:22.993Z</time>
      </trkpt>
      <trkpt lat="43.00191" lon="1.06567">
        <ele>457</ele>
        <time>2024-06-24T14:22:23.993Z</time>
      </trkpt>
      <trkpt lat="43.00192" lon="1.06572">
        <ele>457</ele>
        <time>2024-06-24T14:22:24.993Z</time>
      </trkpt>
      <trkpt lat="43.00192" lon="1.06577">
        <ele>457</ele>
        <time>2024-06-24T14:22:25.993Z</time>
      </trkpt>
      <trkpt lat="43.00193" lon="1.06582">
        <ele>457</ele>
        <time>2024-06-24T14:22:26.993Z</time>
      </trkpt>
      <trkpt lat="43.00194" lon="1.06587">
        <ele>457</ele>
        <time>2024-06-24T14:22:27.993Z</time>
      </trkpt>
      <trkpt lat="43.00194" lon="1.06592">
        <ele>457</ele>
        <time>2024-06-24T14:22:28.993Z</time>
      </trkpt>
      <trkpt lat="43.00195" lon="1.06597">
        <ele>457.4</ele>
        <time>2024-06-24T14:22:29.993Z</time>
      </trkpt>
      <trkpt lat="43.00195" lon="1.06602">
        <ele>457.4</ele>
        <time>2024-06-24T14:22:30.993Z</time>
      </trkpt>
      <trkpt lat="43.00195" lon="1.06608">
        <ele>457.4</ele>
        <time>2024-06-24T14:22:31.993Z</time>
      </trkpt>
      <trkpt lat="43.00196" lon="1.06613">
        <ele>457</ele>
        <time>2024-06-24T14:22:32.993Z</time>
      </trkpt>
      <trkpt lat="43.00197" lon="1.06618">
        <ele>457</ele>
        <time>2024-06-24T14:22:33.993Z</time>
      </trkpt>
      <trkpt lat="43.00197" lon="1.06624">
        <ele>457</ele>
        <time>2024-06-24T14:22:34.993Z</time>
      </trkpt>
      <trkpt lat="43.00198" lon="1.0663">
        <ele>457</ele>
        <time>2024-06-24T14:22:35.993Z</time>
      </trkpt>
      <trkpt lat="43.00199" lon="1.06636">
        <ele>457.2</ele>
        <time>2024-06-24T14:22:36.993Z</time>
      </trkpt>
      <trkpt lat="43.00199" lon="1.06642">
        <ele>457.2</ele>
        <time>2024-06-24T14:22:37.993Z</time>
      </trkpt>
      <trkpt lat="43.002" lon="1.06648">
        <ele>457.6</ele>
        <time>2024-06-24T14:22:38.993Z</time>
      </trkpt>
      <trkpt lat="43.00201" lon="1.06653">
        <ele>457.6</ele>
        <time>2024-06-24T14:22:39.993Z</time>
      </trkpt>
      <trkpt lat="43.00201" lon="1.0666">
        <ele>457.6</ele>
        <time>2024-06-24T14:22:40.993Z</time>
      </trkpt>
      <trkpt lat="43.00203" lon="1.06665">
        <ele>457.6</ele>
        <time>2024-06-24T14:22:41.993Z</time>
      </trkpt>
      <trkpt lat="43.00203" lon="1.06671">
        <ele>457.6</ele>
        <time>2024-06-24T14:22:42.993Z</time>
      </trkpt>
      <trkpt lat="43.00205" lon="1.06677">
        <ele>457.6</ele>
        <time>2024-06-24T14:22:43.993Z</time>
      </trkpt>
      <trkpt lat="43.00206" lon="1.06682">
        <ele>458</ele>
        <time>2024-06-24T14:22:44.993Z</time>
      </trkpt>
      <trkpt lat="43.00208" lon="1.06688">
        <ele>458</ele>
        <time>2024-06-24T14:22:45.993Z</time>
      </trkpt>
      <trkpt lat="43.0021" lon="1.06693">
        <ele>458.6</ele>
        <time>2024-06-24T14:22:46.993Z</time>
      </trkpt>
      <trkpt lat="43.00211" lon="1.06699">
        <ele>458.6</ele>
        <time>2024-06-24T14:22:47.993Z</time>
      </trkpt>
      <trkpt lat="43.00214" lon="1.06705">
        <ele>458.6</ele>
        <time>2024-06-24T14:22:48.993Z</time>
      </trkpt>
      <trkpt lat="43.00215" lon="1.06711">
        <ele>459</ele>
        <time>2024-06-24T14:22:49.993Z</time>
      </trkpt>
      <trkpt lat="43.00217" lon="1.06716">
        <ele>458.8</ele>
        <time>2024-06-24T14:22:50.993Z</time>
      </trkpt>
      <trkpt lat="43.0022" lon="1.06722">
        <ele>459.2</ele>
        <time>2024-06-24T14:22:51.993Z</time>
      </trkpt>
      <trkpt lat="43.00222" lon="1.06727">
        <ele>459.2</ele>
        <time>2024-06-24T14:22:52.993Z</time>
      </trkpt>
      <trkpt lat="43.00223" lon="1.06731">
        <ele>459.2</ele>
        <time>2024-06-24T14:22:53.993Z</time>
      </trkpt>
      <trkpt lat="43.00225" lon="1.06736">
        <ele>459.2</ele>
        <time>2024-06-24T14:22:54.993Z</time>
      </trkpt>
      <trkpt lat="43.00227" lon="1.06742">
        <ele>459.4</ele>
        <time>2024-06-24T14:22:55.993Z</time>
      </trkpt>
      <trkpt lat="43.00229" lon="1.06748">
        <ele>459.4</ele>
        <time>2024-06-24T14:22:56.993Z</time>
      </trkpt>
      <trkpt lat="43.00231" lon="1.06753">
        <ele>459.4</ele>
        <time>2024-06-24T14:22:57.993Z</time>
      </trkpt>
      <trkpt lat="43.00233" lon="1.06758">
        <ele>459</ele>
        <time>2024-06-24T14:22:58.993Z</time>
      </trkpt>
      <trkpt lat="43.00235" lon="1.06763">
        <ele>459</ele>
        <time>2024-06-24T14:22:59.993Z</time>
      </trkpt>
      <trkpt lat="43.00237" lon="1.06769">
        <ele>459</ele>
        <time>2024-06-24T14:23:00.993Z</time>
      </trkpt>
      <trkpt lat="43.00239" lon="1.06774">
        <ele>458.8</ele>
        <time>2024-06-24T14:23:01.993Z</time>
      </trkpt>
      <trkpt lat="43.00241" lon="1.06779">
        <ele>459.4</ele>
        <time>2024-06-24T14:23:02.993Z</time>
      </trkpt>
      <trkpt lat="43.00243" lon="1.06784">
        <ele>459.2</ele>
        <time>2024-06-24T14:23:03.993Z</time>
      </trkpt>
      <trkpt lat="43.00245" lon="1.06789">
        <ele>459.4</ele>
        <time>2024-06-24T14:23:04.993Z</time>
      </trkpt>
      <trkpt lat="43.00247" lon="1.06795">
        <ele>459.4</ele>
        <time>2024-06-24T14:23:05.993Z</time>
      </trkpt>
      <trkpt lat="43.00249" lon="1.068">
        <ele>459.8</ele>
        <time>2024-06-24T14:23:06.993Z</time>
      </trkpt>
      <trkpt lat="43.00251" lon="1.06805">
        <ele>460</ele>
        <time>2024-06-24T14:23:07.993Z</time>
      </trkpt>
      <trkpt lat="43.00253" lon="1.0681">
        <ele>460</ele>
        <time>2024-06-24T14:23:08.993Z</time>
      </trkpt>
      <trkpt lat="43.00255" lon="1.06815">
        <ele>460</ele>
        <time>2024-06-24T14:23:09.993Z</time>
      </trkpt>
      <trkpt lat="43.00257" lon="1.0682">
        <ele>460.4</ele>
        <time>2024-06-24T14:23:10.993Z</time>
      </trkpt>
      <trkpt lat="43.00259" lon="1.06825">
        <ele>460.4</ele>
        <time>2024-06-24T14:23:11.993Z</time>
      </trkpt>
      <trkpt lat="43.00261" lon="1.0683">
        <ele>460.4</ele>
        <time>2024-06-24T14:23:12.993Z</time>
      </trkpt>
      <trkpt lat="43.00263" lon="1.06835">
        <ele>461</ele>
        <time>2024-06-24T14:23:13.993Z</time>
      </trkpt>
      <trkpt lat="43.00265" lon="1.0684">
        <ele>461</ele>
        <time>2024-06-24T14:23:14.993Z</time>
      </trkpt>
      <trkpt lat="43.00267" lon="1.06845">
        <ele>460.8</ele>
        <time>2024-06-24T14:23:15.993Z</time>
      </trkpt>
      <trkpt lat="43.00268" lon="1.0685">
        <ele>460.6</ele>
        <time>2024-06-24T14:23:16.993Z</time>
      </trkpt>
      <trkpt lat="43.0027" lon="1.06856">
        <ele>460.6</ele>
        <time>2024-06-24T14:23:17.993Z</time>
      </trkpt>
      <trkpt lat="43.00273" lon="1.06861">
        <ele>460.6</ele>
        <time>2024-06-24T14:23:18.993Z</time>
      </trkpt>
      <trkpt lat="43.00274" lon="1.06866">
        <ele>460.6</ele>
        <time>2024-06-24T14:23:19.993Z</time>
      </trkpt>
      <trkpt lat="43.00276" lon="1.06871">
        <ele>461</ele>
        <time>2024-06-24T14:23:20.993Z</time>
      </trkpt>
      <trkpt lat="43.00278" lon="1.06876">
        <ele>461.2</ele>
        <time>2024-06-24T14:23:21.993Z</time>
      </trkpt>
      <trkpt lat="43.0028" lon="1.06881">
        <ele>461.2</ele>
        <time>2024-06-24T14:23:22.993Z</time>
      </trkpt>
      <trkpt lat="43.00282" lon="1.06886">
        <ele>461.4</ele>
        <time>2024-06-24T14:23:23.993Z</time>
      </trkpt>
      <trkpt lat="43.00284" lon="1.0689">
        <ele>461.4</ele>
        <time>2024-06-24T14:23:24.993Z</time>
      </trkpt>
      <trkpt lat="43.00286" lon="1.06895">
        <ele>461.4</ele>
        <time>2024-06-24T14:23:25.993Z</time>
      </trkpt>
      <trkpt lat="43.00288" lon="1.069">
        <ele>462</ele>
        <time>2024-06-24T14:23:26.993Z</time>
      </trkpt>
      <trkpt lat="43.0029" lon="1.06905">
        <ele>462</ele>
        <time>2024-06-24T14:23:27.993Z</time>
      </trkpt>
      <trkpt lat="43.00292" lon="1.0691">
        <ele>462.4</ele>
        <time>2024-06-24T14:23:28.993Z</time>
      </trkpt>
      <trkpt lat="43.00294" lon="1.06915">
        <ele>462.4</ele>
        <time>2024-06-24T14:23:29.993Z</time>
      </trkpt>
      <trkpt lat="43.00296" lon="1.0692">
        <ele>462.6</ele>
        <time>2024-06-24T14:23:30.993Z</time>
      </trkpt>
      <trkpt lat="43.00297" lon="1.06925">
        <ele>462.6</ele>
        <time>2024-06-24T14:23:31.993Z</time>
      </trkpt>
      <trkpt lat="43.00299" lon="1.0693">
        <ele>462.6</ele>
        <time>2024-06-24T14:23:32.993Z</time>
      </trkpt>
      <trkpt lat="43.00301" lon="1.06935">
        <ele>462.6</ele>
        <time>2024-06-24T14:23:33.993Z</time>
      </trkpt>
      <trkpt lat="43.00303" lon="1.0694">
        <ele>462.6</ele>
        <time>2024-06-24T14:23:34.993Z</time>
      </trkpt>
      <trkpt lat="43.00305" lon="1.06945">
        <ele>462.8</ele>
        <time>2024-06-24T14:23:35.993Z</time>
      </trkpt>
      <trkpt lat="43.00307" lon="1.06949">
        <ele>462.8</ele>
        <time>2024-06-24T14:23:36.993Z</time>
      </trkpt>
      <trkpt lat="43.00308" lon="1.06954">
        <ele>462.8</ele>
        <time>2024-06-24T14:23:37.993Z</time>
      </trkpt>
      <trkpt lat="43.00311" lon="1.06959">
        <ele>462.8</ele>
        <time>2024-06-24T14:23:38.993Z</time>
      </trkpt>
      <trkpt lat="43.00313" lon="1.06964">
        <ele>462.8</ele>
        <time>2024-06-24T14:23:39.993Z</time>
      </trkpt>
      <trkpt lat="43.00315" lon="1.06968">
        <ele>463.2</ele>
        <time>2024-06-24T14:23:40.993Z</time>
      </trkpt>
      <trkpt lat="43.00316" lon="1.06973">
        <ele>463.6</ele>
        <time>2024-06-24T14:23:41.993Z</time>
      </trkpt>
      <trkpt lat="43.00318" lon="1.06978">
        <ele>464</ele>
        <time>2024-06-24T14:23:42.993Z</time>
      </trkpt>
      <trkpt lat="43.0032" lon="1.06983">
        <ele>463.6</ele>
        <time>2024-06-24T14:23:43.993Z</time>
      </trkpt>
      <trkpt lat="43.00322" lon="1.06988">
        <ele>463.6</ele>
        <time>2024-06-24T14:23:44.993Z</time>
      </trkpt>
      <trkpt lat="43.00324" lon="1.06993">
        <ele>463.4</ele>
        <time>2024-06-24T14:23:45.993Z</time>
      </trkpt>
      <trkpt lat="43.00326" lon="1.06998">
        <ele>463.8</ele>
        <time>2024-06-24T14:23:46.993Z</time>
      </trkpt>
      <trkpt lat="43.00327" lon="1.07004">
        <ele>464.2</ele>
        <time>2024-06-24T14:23:47.993Z</time>
      </trkpt>
      <trkpt lat="43.00329" lon="1.07009">
        <ele>464.2</ele>
        <time>2024-06-24T14:23:48.993Z</time>
      </trkpt>
      <trkpt lat="43.00331" lon="1.07014">
        <ele>464.4</ele>
        <time>2024-06-24T14:23:49.993Z</time>
      </trkpt>
      <trkpt lat="43.00333" lon="1.07018">
        <ele>464.8</ele>
        <time>2024-06-24T14:23:50.993Z</time>
      </trkpt>
      <trkpt lat="43.00335" lon="1.07023">
        <ele>464.8</ele>
        <time>2024-06-24T14:23:51.993Z</time>
      </trkpt>
      <trkpt lat="43.00337" lon="1.07028">
        <ele>464.8</ele>
        <time>2024-06-24T14:23:52.993Z</time>
      </trkpt>
      <trkpt lat="43.00339" lon="1.07032">
        <ele>465.2</ele>
        <time>2024-06-24T14:23:53.993Z</time>
      </trkpt>
      <trkpt lat="43.00341" lon="1.07037">
        <ele>465.4</ele>
        <time>2024-06-24T14:23:54.993Z</time>
      </trkpt>
      <trkpt lat="43.00343" lon="1.07042">
        <ele>465.4</ele>
        <time>2024-06-24T14:23:55.993Z</time>
      </trkpt>
      <trkpt lat="43.00345" lon="1.07047">
        <ele>465.6</ele>
        <time>2024-06-24T14:23:56.993Z</time>
      </trkpt>
      <trkpt lat="43.00347" lon="1.07052">
        <ele>466</ele>
        <time>2024-06-24T14:23:57.993Z</time>
      </trkpt>
      <trkpt lat="43.00348" lon="1.07057">
        <ele>466</ele>
        <time>2024-06-24T14:23:58.993Z</time>
      </trkpt>
      <trkpt lat="43.0035" lon="1.07062">
        <ele>466</ele>
        <time>2024-06-24T14:23:59.993Z</time>
      </trkpt>
      <trkpt lat="43.00352" lon="1.07067">
        <ele>466.4</ele>
        <time>2024-06-24T14:24:00.993Z</time>
      </trkpt>
      <trkpt lat="43.00354" lon="1.07072">
        <ele>466.6</ele>
        <time>2024-06-24T14:24:01.993Z</time>
      </trkpt>
      <trkpt lat="43.00356" lon="1.07076">
        <ele>466.6</ele>
        <time>2024-06-24T14:24:02.993Z</time>
      </trkpt>
      <trkpt lat="43.00358" lon="1.07081">
        <ele>467</ele>
        <time>2024-06-24T14:24:03.993Z</time>
      </trkpt>
      <trkpt lat="43.0036" lon="1.07085">
        <ele>467.2</ele>
        <time>2024-06-24T14:24:04.993Z</time>
      </trkpt>
      <trkpt lat="43.00362" lon="1.0709">
        <ele>467.6</ele>
        <time>2024-06-24T14:24:05.993Z</time>
      </trkpt>
      <trkpt lat="43.00364" lon="1.07095">
        <ele>467.6</ele>
        <time>2024-06-24T14:24:06.993Z</time>
      </trkpt>
      <trkpt lat="43.00366" lon="1.07099">
        <ele>467.8</ele>
        <time>2024-06-24T14:24:07.993Z</time>
      </trkpt>
      <trkpt lat="43.00367" lon="1.07104">
        <ele>467.8</ele>
        <time>2024-06-24T14:24:08.993Z</time>
      </trkpt>
      <trkpt lat="43.00369" lon="1.07109">
        <ele>467.8</ele>
        <time>2024-06-24T14:24:09.993Z</time>
      </trkpt>
      <trkpt lat="43.00371" lon="1.07113">
        <ele>467.8</ele>
        <time>2024-06-24T14:24:10.993Z</time>
      </trkpt>
      <trkpt lat="43.00372" lon="1.07118">
        <ele>467.8</ele>
        <time>2024-06-24T14:24:11.993Z</time>
      </trkpt>
      <trkpt lat="43.00374" lon="1.07123">
        <ele>468.2</ele>
        <time>2024-06-24T14:24:12.993Z</time>
      </trkpt>
      <trkpt lat="43.00375" lon="1.07128">
        <ele>468.2</ele>
        <time>2024-06-24T14:24:13.993Z</time>
      </trkpt>
      <trkpt lat="43.00376" lon="1.07133">
        <ele>468.2</ele>
        <time>2024-06-24T14:24:14.993Z</time>
      </trkpt>
      <trkpt lat="43.00377" lon="1.07138">
        <ele>468.6</ele>
        <time>2024-06-24T14:24:15.993Z</time>
      </trkpt>
      <trkpt lat="43.00378" lon="1.07143">
        <ele>468.8</ele>
        <time>2024-06-24T14:24:16.993Z</time>
      </trkpt>
      <trkpt lat="43.00379" lon="1.07148">
        <ele>469</ele>
        <time>2024-06-24T14:24:17.993Z</time>
      </trkpt>
      <trkpt lat="43.0038" lon="1.07152">
        <ele>469</ele>
        <time>2024-06-24T14:24:18.993Z</time>
      </trkpt>
      <trkpt lat="43.0038" lon="1.07158">
        <ele>469.2</ele>
        <time>2024-06-24T14:24:19.993Z</time>
      </trkpt>
      <trkpt lat="43.00381" lon="1.07163">
        <ele>469.2</ele>
        <time>2024-06-24T14:24:20.993Z</time>
      </trkpt>
      <trkpt lat="43.00381" lon="1.07168">
        <ele>469.4</ele>
        <time>2024-06-24T14:24:21.993Z</time>
      </trkpt>
      <trkpt lat="43.00381" lon="1.07172">
        <ele>469.4</ele>
        <time>2024-06-24T14:24:22.993Z</time>
      </trkpt>
      <trkpt lat="43.00381" lon="1.07178">
        <ele>469.4</ele>
        <time>2024-06-24T14:24:23.993Z</time>
      </trkpt>
      <trkpt lat="43.00381" lon="1.07183">
        <ele>469.8</ele>
        <time>2024-06-24T14:24:24.993Z</time>
      </trkpt>
      <trkpt lat="43.0038" lon="1.07189">
        <ele>469.8</ele>
        <time>2024-06-24T14:24:25.993Z</time>
      </trkpt>
      <trkpt lat="43.0038" lon="1.07195">
        <ele>470</ele>
        <time>2024-06-24T14:24:26.993Z</time>
      </trkpt>
      <trkpt lat="43.0038" lon="1.072">
        <ele>470</ele>
        <time>2024-06-24T14:24:27.993Z</time>
      </trkpt>
      <trkpt lat="43.0038" lon="1.07206">
        <ele>470</ele>
        <time>2024-06-24T14:24:28.993Z</time>
      </trkpt>
      <trkpt lat="43.00379" lon="1.07212">
        <ele>470</ele>
        <time>2024-06-24T14:24:29.993Z</time>
      </trkpt>
      <trkpt lat="43.00379" lon="1.07217">
        <ele>470.2</ele>
        <time>2024-06-24T14:24:30.993Z</time>
      </trkpt>
      <trkpt lat="43.00379" lon="1.07223">
        <ele>470.2</ele>
        <time>2024-06-24T14:24:31.993Z</time>
      </trkpt>
      <trkpt lat="43.00378" lon="1.07228">
        <ele>470.6</ele>
        <time>2024-06-24T14:24:32.993Z</time>
      </trkpt>
      <trkpt lat="43.00378" lon="1.07234">
        <ele>470.6</ele>
        <time>2024-06-24T14:24:33.993Z</time>
      </trkpt>
      <trkpt lat="43.00378" lon="1.07239">
        <ele>471</ele>
        <time>2024-06-24T14:24:34.993Z</time>
      </trkpt>
      <trkpt lat="43.00378" lon="1.07244">
        <ele>471</ele>
        <time>2024-06-24T14:24:35.993Z</time>
      </trkpt>
      <trkpt lat="43.00378" lon="1.07249">
        <ele>471.2</ele>
        <time>2024-06-24T14:24:36.993Z</time>
      </trkpt>
      <trkpt lat="43.00378" lon="1.07255">
        <ele>471.2</ele>
        <time>2024-06-24T14:24:37.993Z</time>
      </trkpt>
      <trkpt lat="43.00377" lon="1.0726">
        <ele>471.2</ele>
        <time>2024-06-24T14:24:38.993Z</time>
      </trkpt>
      <trkpt lat="43.00377" lon="1.07266">
        <ele>471.4</ele>
        <time>2024-06-24T14:24:39.993Z</time>
      </trkpt>
      <trkpt lat="43.00376" lon="1.07271">
        <ele>471.8</ele>
        <time>2024-06-24T14:24:40.993Z</time>
      </trkpt>
      <trkpt lat="43.00376" lon="1.07277">
        <ele>471.8</ele>
        <time>2024-06-24T14:24:41.993Z</time>
      </trkpt>
      <trkpt lat="43.00376" lon="1.07282">
        <ele>472</ele>
        <time>2024-06-24T14:24:42.993Z</time>
      </trkpt>
      <trkpt lat="43.00376" lon="1.07288">
        <ele>472</ele>
        <time>2024-06-24T14:24:43.993Z</time>
      </trkpt>
      <trkpt lat="43.00375" lon="1.07294">
        <ele>472</ele>
        <time>2024-06-24T14:24:44.993Z</time>
      </trkpt>
      <trkpt lat="43.00375" lon="1.07299">
        <ele>472</ele>
        <time>2024-06-24T14:24:45.993Z</time>
      </trkpt>
      <trkpt lat="43.00375" lon="1.07305">
        <ele>472</ele>
        <time>2024-06-24T14:24:46.993Z</time>
      </trkpt>
      <trkpt lat="43.00374" lon="1.0731">
        <ele>472</ele>
        <time>2024-06-24T14:24:47.993Z</time>
      </trkpt>
      <trkpt lat="43.00374" lon="1.07316">
        <ele>472</ele>
        <time>2024-06-24T14:24:48.993Z</time>
      </trkpt>
      <trkpt lat="43.00374" lon="1.07322">
        <ele>472.2</ele>
        <time>2024-06-24T14:24:49.993Z</time>
      </trkpt>
      <trkpt lat="43.00374" lon="1.07327">
        <ele>472.2</ele>
        <time>2024-06-24T14:24:50.993Z</time>
      </trkpt>
      <trkpt lat="43.00373" lon="1.07332">
        <ele>472.6</ele>
        <time>2024-06-24T14:24:51.993Z</time>
      </trkpt>
      <trkpt lat="43.00373" lon="1.07338">
        <ele>472.6</ele>
        <time>2024-06-24T14:24:52.993Z</time>
      </trkpt>
      <trkpt lat="43.00373" lon="1.07343">
        <ele>472.8</ele>
        <time>2024-06-24T14:24:53.993Z</time>
      </trkpt>
      <trkpt lat="43.00372" lon="1.07349">
        <ele>472.8</ele>
        <time>2024-06-24T14:24:54.993Z</time>
      </trkpt>
      <trkpt lat="43.00371" lon="1.07354">
        <ele>472.8</ele>
        <time>2024-06-24T14:24:55.993Z</time>
      </trkpt>
      <trkpt lat="43.00371" lon="1.0736">
        <ele>473.2</ele>
        <time>2024-06-24T14:24:56.993Z</time>
      </trkpt>
      <trkpt lat="43.00371" lon="1.07365">
        <ele>473.2</ele>
        <time>2024-06-24T14:24:57.993Z</time>
      </trkpt>
      <trkpt lat="43.0037" lon="1.07371">
        <ele>473.2</ele>
        <time>2024-06-24T14:24:58.993Z</time>
      </trkpt>
      <trkpt lat="43.0037" lon="1.07376">
        <ele>473.2</ele>
        <time>2024-06-24T14:24:59.993Z</time>
      </trkpt>
      <trkpt lat="43.0037" lon="1.07382">
        <ele>473.2</ele>
        <time>2024-06-24T14:25:00.993Z</time>
      </trkpt>
      <trkpt lat="43.00369" lon="1.07388">
        <ele>473.4</ele>
        <time>2024-06-24T14:25:01.993Z</time>
      </trkpt>
      <trkpt lat="43.00369" lon="1.07393">
        <ele>473.4</ele>
        <time>2024-06-24T14:25:02.993Z</time>
      </trkpt>
      <trkpt lat="43.00368" lon="1.07399">
        <ele>473.4</ele>
        <time>2024-06-24T14:25:03.993Z</time>
      </trkpt>
      <trkpt lat="43.00368" lon="1.07405">
        <ele>473.4</ele>
        <time>2024-06-24T14:25:04.993Z</time>
      </trkpt>
      <trkpt lat="43.00367" lon="1.0741">
        <ele>473.6</ele>
        <time>2024-06-24T14:25:05.993Z</time>
      </trkpt>
      <trkpt lat="43.00367" lon="1.07416">
        <ele>473.8</ele>
        <time>2024-06-24T14:25:06.993Z</time>
      </trkpt>
      <trkpt lat="43.00366" lon="1.07422">
        <ele>473.8</ele>
        <time>2024-06-24T14:25:07.993Z</time>
      </trkpt>
      <trkpt lat="43.00365" lon="1.07427">
        <ele>473.8</ele>
        <time>2024-06-24T14:25:08.993Z</time>
      </trkpt>
      <trkpt lat="43.00365" lon="1.07433">
        <ele>473.8</ele>
        <time>2024-06-24T14:25:09.993Z</time>
      </trkpt>
      <trkpt lat="43.00364" lon="1.07438">
        <ele>474</ele>
        <time>2024-06-24T14:25:10.993Z</time>
      </trkpt>
      <trkpt lat="43.00363" lon="1.07444">
        <ele>474</ele>
        <time>2024-06-24T14:25:11.993Z</time>
      </trkpt>
      <trkpt lat="43.00363" lon="1.07449">
        <ele>474.4</ele>
        <time>2024-06-24T14:25:12.993Z</time>
      </trkpt>
      <trkpt lat="43.00362" lon="1.07455">
        <ele>474.4</ele>
        <time>2024-06-24T14:25:13.993Z</time>
      </trkpt>
      <trkpt lat="43.00361" lon="1.0746">
        <ele>474.6</ele>
        <time>2024-06-24T14:25:14.993Z</time>
      </trkpt>
      <trkpt lat="43.0036" lon="1.07466">
        <ele>474.6</ele>
        <time>2024-06-24T14:25:15.993Z</time>
      </trkpt>
      <trkpt lat="43.00359" lon="1.07471">
        <ele>474.6</ele>
        <time>2024-06-24T14:25:16.993Z</time>
      </trkpt>
      <trkpt lat="43.00358" lon="1.07476">
        <ele>474.6</ele>
        <time>2024-06-24T14:25:17.993Z</time>
      </trkpt>
      <trkpt lat="43.00357" lon="1.07482">
        <ele>474.6</ele>
        <time>2024-06-24T14:25:18.993Z</time>
      </trkpt>
      <trkpt lat="43.00356" lon="1.07488">
        <ele>474.6</ele>
        <time>2024-06-24T14:25:19.993Z</time>
      </trkpt>
      <trkpt lat="43.00354" lon="1.07493">
        <ele>474.6</ele>
        <time>2024-06-24T14:25:20.993Z</time>
      </trkpt>
      <trkpt lat="43.00353" lon="1.07498">
        <ele>475</ele>
        <time>2024-06-24T14:25:21.993Z</time>
      </trkpt>
      <trkpt lat="43.00351" lon="1.07504">
        <ele>475.2</ele>
        <time>2024-06-24T14:25:22.993Z</time>
      </trkpt>
      <trkpt lat="43.0035" lon="1.07509">
        <ele>475.2</ele>
        <time>2024-06-24T14:25:23.993Z</time>
      </trkpt>
      <trkpt lat="43.00348" lon="1.07515">
        <ele>475</ele>
        <time>2024-06-24T14:25:24.993Z</time>
      </trkpt>
      <trkpt lat="43.00347" lon="1.0752">
        <ele>475</ele>
        <time>2024-06-24T14:25:25.993Z</time>
      </trkpt>
      <trkpt lat="43.00345" lon="1.07526">
        <ele>475</ele>
        <time>2024-06-24T14:25:26.993Z</time>
      </trkpt>
      <trkpt lat="43.00344" lon="1.07531">
        <ele>475.2</ele>
        <time>2024-06-24T14:25:27.993Z</time>
      </trkpt>
      <trkpt lat="43.00342" lon="1.07536">
        <ele>475.6</ele>
        <time>2024-06-24T14:25:28.993Z</time>
      </trkpt>
      <trkpt lat="43.0034" lon="1.0754">
        <ele>475.6</ele>
        <time>2024-06-24T14:25:29.993Z</time>
      </trkpt>
      <trkpt lat="43.00339" lon="1.07547">
        <ele>475.4</ele>
        <time>2024-06-24T14:25:30.993Z</time>
      </trkpt>
      <trkpt lat="43.00337" lon="1.07552">
        <ele>475.4</ele>
        <time>2024-06-24T14:25:31.993Z</time>
      </trkpt>
      <trkpt lat="43.00336" lon="1.07558">
        <ele>475.6</ele>
        <time>2024-06-24T14:25:32.993Z</time>
      </trkpt>
      <trkpt lat="43.00334" lon="1.07564">
        <ele>475.8</ele>
        <time>2024-06-24T14:25:33.993Z</time>
      </trkpt>
      <trkpt lat="43.00332" lon="1.07571">
        <ele>475.8</ele>
        <time>2024-06-24T14:25:34.993Z</time>
      </trkpt>
      <trkpt lat="43.0033" lon="1.07576">
        <ele>476</ele>
        <time>2024-06-24T14:25:35.993Z</time>
      </trkpt>
      <trkpt lat="43.00329" lon="1.07582">
        <ele>476</ele>
        <time>2024-06-24T14:25:36.993Z</time>
      </trkpt>
      <trkpt lat="43.00327" lon="1.07588">
        <ele>476.2</ele>
        <time>2024-06-24T14:25:37.993Z</time>
      </trkpt>
      <trkpt lat="43.00325" lon="1.07594">
        <ele>476.2</ele>
        <time>2024-06-24T14:25:38.993Z</time>
      </trkpt>
      <trkpt lat="43.00324" lon="1.076">
        <ele>476.2</ele>
        <time>2024-06-24T14:25:39.993Z</time>
      </trkpt>
      <trkpt lat="43.00322" lon="1.07606">
        <ele>476.2</ele>
        <time>2024-06-24T14:25:40.993Z</time>
      </trkpt>
      <trkpt lat="43.00321" lon="1.07611">
        <ele>476.6</ele>
        <time>2024-06-24T14:25:41.993Z</time>
      </trkpt>
      <trkpt lat="43.00319" lon="1.07617">
        <ele>476.6</ele>
        <time>2024-06-24T14:25:42.993Z</time>
      </trkpt>
      <trkpt lat="43.00318" lon="1.07622">
        <ele>476.6</ele>
        <time>2024-06-24T14:25:43.993Z</time>
      </trkpt>
      <trkpt lat="43.00316" lon="1.07628">
        <ele>476.6</ele>
        <time>2024-06-24T14:25:44.993Z</time>
      </trkpt>
      <trkpt lat="43.00314" lon="1.07634">
        <ele>476.8</ele>
        <time>2024-06-24T14:25:45.993Z</time>
      </trkpt>
      <trkpt lat="43.00313" lon="1.0764">
        <ele>476.8</ele>
        <time>2024-06-24T14:25:46.993Z</time>
      </trkpt>
      <trkpt lat="43.00311" lon="1.07645">
        <ele>476.8</ele>
        <time>2024-06-24T14:25:47.993Z</time>
      </trkpt>
      <trkpt lat="43.0031" lon="1.07651">
        <ele>476.6</ele>
        <time>2024-06-24T14:25:48.993Z</time>
      </trkpt>
      <trkpt lat="43.00308" lon="1.07657">
        <ele>476.2</ele>
        <time>2024-06-24T14:25:49.993Z</time>
      </trkpt>
      <trkpt lat="43.00306" lon="1.07663">
        <ele>476.2</ele>
        <time>2024-06-24T14:25:50.993Z</time>
      </trkpt>
      <trkpt lat="43.00305" lon="1.07668">
        <ele>476.6</ele>
        <time>2024-06-24T14:25:51.993Z</time>
      </trkpt>
      <trkpt lat="43.00304" lon="1.07675">
        <ele>476.2</ele>
        <time>2024-06-24T14:25:52.993Z</time>
      </trkpt>
      <trkpt lat="43.00302" lon="1.07682">
        <ele>476.6</ele>
        <time>2024-06-24T14:25:53.993Z</time>
      </trkpt>
      <trkpt lat="43.003" lon="1.07687">
        <ele>476.6</ele>
        <time>2024-06-24T14:25:54.993Z</time>
      </trkpt>
      <trkpt lat="43.00298" lon="1.07693">
        <ele>476.6</ele>
        <time>2024-06-24T14:25:55.993Z</time>
      </trkpt>
      <trkpt lat="43.00296" lon="1.077">
        <ele>476.6</ele>
        <time>2024-06-24T14:25:56.993Z</time>
      </trkpt>
      <trkpt lat="43.00294" lon="1.07706">
        <ele>477.2</ele>
        <time>2024-06-24T14:25:57.993Z</time>
      </trkpt>
      <trkpt lat="43.00293" lon="1.07711">
        <ele>477.2</ele>
        <time>2024-06-24T14:25:58.993Z</time>
      </trkpt>
      <trkpt lat="43.00291" lon="1.07719">
        <ele>477.2</ele>
        <time>2024-06-24T14:25:59.993Z</time>
      </trkpt>
      <trkpt lat="43.00289" lon="1.07725">
        <ele>477.2</ele>
        <time>2024-06-24T14:26:00.993Z</time>
      </trkpt>
      <trkpt lat="43.00286" lon="1.07732">
        <ele>477.2</ele>
        <time>2024-06-24T14:26:01.993Z</time>
      </trkpt>
      <trkpt lat="43.00285" lon="1.07739">
        <ele>477.2</ele>
        <time>2024-06-24T14:26:02.993Z</time>
      </trkpt>
      <trkpt lat="43.00283" lon="1.07746">
        <ele>476.8</ele>
        <time>2024-06-24T14:26:03.993Z</time>
      </trkpt>
      <trkpt lat="43.0028" lon="1.07752">
        <ele>476.8</ele>
        <time>2024-06-24T14:26:04.993Z</time>
      </trkpt>
      <trkpt lat="43.00278" lon="1.0776">
        <ele>477</ele>
        <time>2024-06-24T14:26:05.993Z</time>
      </trkpt>
      <trkpt lat="43.00276" lon="1.07767">
        <ele>477</ele>
        <time>2024-06-24T14:26:06.993Z</time>
      </trkpt>
      <trkpt lat="43.00274" lon="1.07774">
        <ele>476.6</ele>
        <time>2024-06-24T14:26:07.993Z</time>
      </trkpt>
      <trkpt lat="43.00272" lon="1.07781">
        <ele>476.6</ele>
        <time>2024-06-24T14:26:08.993Z</time>
      </trkpt>
      <trkpt lat="43.0027" lon="1.07789">
        <ele>476.4</ele>
        <time>2024-06-24T14:26:09.993Z</time>
      </trkpt>
      <trkpt lat="43.00268" lon="1.07796">
        <ele>476.4</ele>
        <time>2024-06-24T14:26:10.993Z</time>
      </trkpt>
      <trkpt lat="43.00267" lon="1.07804">
        <ele>475.8</ele>
        <time>2024-06-24T14:26:11.993Z</time>
      </trkpt>
      <trkpt lat="43.00265" lon="1.07812">
        <ele>476.2</ele>
        <time>2024-06-24T14:26:12.993Z</time>
      </trkpt>
      <trkpt lat="43.00264" lon="1.07819">
        <ele>475.6</ele>
        <time>2024-06-24T14:26:13.993Z</time>
      </trkpt>
      <trkpt lat="43.00262" lon="1.07827">
        <ele>475.2</ele>
        <time>2024-06-24T14:26:14.993Z</time>
      </trkpt>
      <trkpt lat="43.00261" lon="1.07835">
        <ele>475.2</ele>
        <time>2024-06-24T14:26:15.993Z</time>
      </trkpt>
      <trkpt lat="43.0026" lon="1.07844">
        <ele>475</ele>
        <time>2024-06-24T14:26:16.993Z</time>
      </trkpt>
      <trkpt lat="43.00259" lon="1.07852">
        <ele>474.6</ele>
        <time>2024-06-24T14:26:17.993Z</time>
      </trkpt>
      <trkpt lat="43.00259" lon="1.0786">
        <ele>474.6</ele>
        <time>2024-06-24T14:26:18.993Z</time>
      </trkpt>
      <trkpt lat="43.00259" lon="1.07868">
        <ele>474.4</ele>
        <time>2024-06-24T14:26:19.993Z</time>
      </trkpt>
      <trkpt lat="43.0026" lon="1.07877">
        <ele>474.4</ele>
        <time>2024-06-24T14:26:20.993Z</time>
      </trkpt>
      <trkpt lat="43.0026" lon="1.07883">
        <ele>474.6</ele>
        <time>2024-06-24T14:26:21.993Z</time>
      </trkpt>
      <trkpt lat="43.00261" lon="1.07889">
        <ele>474.6</ele>
        <time>2024-06-24T14:26:22.993Z</time>
      </trkpt>
      <trkpt lat="43.00264" lon="1.07893">
        <ele>475</ele>
        <time>2024-06-24T14:26:23.993Z</time>
      </trkpt>
      <trkpt lat="43.00267" lon="1.07895">
        <ele>474.6</ele>
        <time>2024-06-24T14:26:24.993Z</time>
      </trkpt>
      <trkpt lat="43.00272" lon="1.07896">
        <ele>474.6</ele>
        <time>2024-06-24T14:26:25.993Z</time>
      </trkpt>
      <trkpt lat="43.00276" lon="1.07897">
        <ele>474.6</ele>
        <time>2024-06-24T14:26:26.993Z</time>
      </trkpt>
      <trkpt lat="43.0028" lon="1.07898">
        <ele>475</ele>
        <time>2024-06-24T14:26:27.993Z</time>
      </trkpt>
      <trkpt lat="43.00284" lon="1.07898">
        <ele>475</ele>
        <time>2024-06-24T14:26:28.993Z</time>
      </trkpt>
      <trkpt lat="43.00288" lon="1.07899">
        <ele>475.4</ele>
        <time>2024-06-24T14:26:29.993Z</time>
      </trkpt>
      <trkpt lat="43.00291" lon="1.07899">
        <ele>475.4</ele>
        <time>2024-06-24T14:26:30.993Z</time>
      </trkpt>
      <trkpt lat="43.00294" lon="1.07899">
        <ele>475.8</ele>
        <time>2024-06-24T14:26:31.993Z</time>
      </trkpt>
      <trkpt lat="43.00297" lon="1.07899">
        <ele>475.8</ele>
        <time>2024-06-24T14:26:32.993Z</time>
      </trkpt>
      <trkpt lat="43.00301" lon="1.07899">
        <ele>475.8</ele>
        <time>2024-06-24T14:26:33.993Z</time>
      </trkpt>
      <trkpt lat="43.00304" lon="1.07901">
        <ele>476.2</ele>
        <time>2024-06-24T14:26:34.993Z</time>
      </trkpt>
      <trkpt lat="43.00307" lon="1.07902">
        <ele>476.6</ele>
        <time>2024-06-24T14:26:35.993Z</time>
      </trkpt>
      <trkpt lat="43.00311" lon="1.07902">
        <ele>476.8</ele>
        <time>2024-06-24T14:26:36.993Z</time>
      </trkpt>
      <trkpt lat="43.00314" lon="1.07903">
        <ele>477.4</ele>
        <time>2024-06-24T14:26:37.993Z</time>
      </trkpt>
      <trkpt lat="43.00317" lon="1.07903">
        <ele>477.8</ele>
        <time>2024-06-24T14:26:38.993Z</time>
      </trkpt>
      <trkpt lat="43.0032" lon="1.07903">
        <ele>477.8</ele>
        <time>2024-06-24T14:26:39.993Z</time>
      </trkpt>
      <trkpt lat="43.00323" lon="1.07904">
        <ele>478.2</ele>
        <time>2024-06-24T14:26:40.993Z</time>
      </trkpt>
      <trkpt lat="43.00326" lon="1.07904">
        <ele>478.2</ele>
        <time>2024-06-24T14:26:41.993Z</time>
      </trkpt>
      <trkpt lat="43.00329" lon="1.07905">
        <ele>478.6</ele>
        <time>2024-06-24T14:26:42.993Z</time>
      </trkpt>
      <trkpt lat="43.00332" lon="1.07905">
        <ele>479</ele>
        <time>2024-06-24T14:26:43.993Z</time>
      </trkpt>
      <trkpt lat="43.00335" lon="1.07906">
        <ele>479.2</ele>
        <time>2024-06-24T14:26:44.993Z</time>
      </trkpt>
      <trkpt lat="43.00337" lon="1.07906">
        <ele>479.2</ele>
        <time>2024-06-24T14:26:45.993Z</time>
      </trkpt>
      <trkpt lat="43.0034" lon="1.07907">
        <ele>479.6</ele>
        <time>2024-06-24T14:26:46.993Z</time>
      </trkpt>
      <trkpt lat="43.00343" lon="1.07907">
        <ele>479.6</ele>
        <time>2024-06-24T14:26:47.993Z</time>
      </trkpt>
      <trkpt lat="43.00346" lon="1.07907">
        <ele>480</ele>
        <time>2024-06-24T14:26:48.993Z</time>
      </trkpt>
      <trkpt lat="43.00349" lon="1.07907">
        <ele>480.6</ele>
        <time>2024-06-24T14:26:49.993Z</time>
      </trkpt>
      <trkpt lat="43.00351" lon="1.07907">
        <ele>480.6</ele>
        <time>2024-06-24T14:26:50.993Z</time>
      </trkpt>
      <trkpt lat="43.00354" lon="1.07908">
        <ele>481.2</ele>
        <time>2024-06-24T14:26:51.993Z</time>
      </trkpt>
      <trkpt lat="43.00357" lon="1.07909">
        <ele>481.6</ele>
        <time>2024-06-24T14:26:52.993Z</time>
      </trkpt>
      <trkpt lat="43.0036" lon="1.0791">
        <ele>481.8</ele>
        <time>2024-06-24T14:26:53.993Z</time>
      </trkpt>
      <trkpt lat="43.00362" lon="1.07912">
        <ele>481.8</ele>
        <time>2024-06-24T14:26:54.993Z</time>
      </trkpt>
      <trkpt lat="43.00366" lon="1.07912">
        <ele>482.4</ele>
        <time>2024-06-24T14:26:55.993Z</time>
      </trkpt>
      <trkpt lat="43.00369" lon="1.07913">
        <ele>482.6</ele>
        <time>2024-06-24T14:26:56.993Z</time>
      </trkpt>
      <trkpt lat="43.00371" lon="1.07913">
        <ele>482.8</ele>
        <time>2024-06-24T14:26:57.993Z</time>
      </trkpt>
      <trkpt lat="43.00374" lon="1.07913">
        <ele>483</ele>
        <time>2024-06-24T14:26:58.993Z</time>
      </trkpt>
      <trkpt lat="43.00377" lon="1.07914">
        <ele>483.4</ele>
        <time>2024-06-24T14:26:59.993Z</time>
      </trkpt>
      <trkpt lat="43.0038" lon="1.07915">
        <ele>483.6</ele>
        <time>2024-06-24T14:27:00.993Z</time>
      </trkpt>
      <trkpt lat="43.00383" lon="1.07915">
        <ele>484</ele>
        <time>2024-06-24T14:27:01.993Z</time>
      </trkpt>
      <trkpt lat="43.00385" lon="1.07916">
        <ele>484</ele>
        <time>2024-06-24T14:27:02.993Z</time>
      </trkpt>
      <trkpt lat="43.00388" lon="1.07917">
        <ele>484.2</ele>
        <time>2024-06-24T14:27:03.993Z</time>
      </trkpt>
      <trkpt lat="43.0039" lon="1.07918">
        <ele>484.6</ele>
        <time>2024-06-24T14:27:04.993Z</time>
      </trkpt>
      <trkpt lat="43.00392" lon="1.07918">
        <ele>485</ele>
        <time>2024-06-24T14:27:05.993Z</time>
      </trkpt>
      <trkpt lat="43.00395" lon="1.07919">
        <ele>485.2</ele>
        <time>2024-06-24T14:27:06.993Z</time>
      </trkpt>
      <trkpt lat="43.00398" lon="1.0792">
        <ele>485.6</ele>
        <time>2024-06-24T14:27:07.993Z</time>
      </trkpt>
      <trkpt lat="43.00401" lon="1.0792">
        <ele>486</ele>
        <time>2024-06-24T14:27:08.993Z</time>
      </trkpt>
      <trkpt lat="43.00403" lon="1.0792">
        <ele>486.4</ele>
        <time>2024-06-24T14:27:09.993Z</time>
      </trkpt>
      <trkpt lat="43.00405" lon="1.0792">
        <ele>486.8</ele>
        <time>2024-06-24T14:27:10.993Z</time>
      </trkpt>
      <trkpt lat="43.00408" lon="1.07919">
        <ele>487</ele>
        <time>2024-06-24T14:27:11.993Z</time>
      </trkpt>
      <trkpt lat="43.00411" lon="1.07918">
        <ele>487.2</ele>
        <time>2024-06-24T14:27:12.993Z</time>
      </trkpt>
      <trkpt lat="43.00414" lon="1.07915">
        <ele>487.2</ele>
        <time>2024-06-24T14:27:13.993Z</time>
      </trkpt>
      <trkpt lat="43.00416" lon="1.07912">
        <ele>487.8</ele>
        <time>2024-06-24T14:27:14.993Z</time>
      </trkpt>
      <trkpt lat="43.00418" lon="1.07909">
        <ele>488.4</ele>
        <time>2024-06-24T14:27:15.993Z</time>
      </trkpt>
      <trkpt lat="43.0042" lon="1.07907">
        <ele>488.8</ele>
        <time>2024-06-24T14:27:16.993Z</time>
      </trkpt>
      <trkpt lat="43.00421" lon="1.07904">
        <ele>488.8</ele>
        <time>2024-06-24T14:27:17.993Z</time>
      </trkpt>
      <trkpt lat="43.00423" lon="1.07901">
        <ele>489.2</ele>
        <time>2024-06-24T14:27:18.993Z</time>
      </trkpt>
      <trkpt lat="43.00425" lon="1.07898">
        <ele>489.4</ele>
        <time>2024-06-24T14:27:19.993Z</time>
      </trkpt>
      <trkpt lat="43.00426" lon="1.07894">
        <ele>489.6</ele>
        <time>2024-06-24T14:27:20.993Z</time>
      </trkpt>
      <trkpt lat="43.00427" lon="1.0789">
        <ele>490</ele>
        <time>2024-06-24T14:27:21.993Z</time>
      </trkpt>
      <trkpt lat="43.00428" lon="1.07886">
        <ele>490</ele>
        <time>2024-06-24T14:27:22.993Z</time>
      </trkpt>
      <trkpt lat="43.00429" lon="1.07882">
        <ele>490.6</ele>
        <time>2024-06-24T14:27:23.993Z</time>
      </trkpt>
      <trkpt lat="43.0043" lon="1.07878">
        <ele>490.8</ele>
        <time>2024-06-24T14:27:24.993Z</time>
      </trkpt>
      <trkpt lat="43.00431" lon="1.07873">
        <ele>490.8</ele>
        <time>2024-06-24T14:27:25.993Z</time>
      </trkpt>
      <trkpt lat="43.00432" lon="1.07869">
        <ele>490.8</ele>
        <time>2024-06-24T14:27:26.993Z</time>
      </trkpt>
      <trkpt lat="43.00433" lon="1.07864">
        <ele>491.2</ele>
        <time>2024-06-24T14:27:27.993Z</time>
      </trkpt>
      <trkpt lat="43.00434" lon="1.07859">
        <ele>491.2</ele>
        <time>2024-06-24T14:27:28.993Z</time>
      </trkpt>
      <trkpt lat="43.00435" lon="1.07854">
        <ele>490.8</ele>
        <time>2024-06-24T14:27:29.993Z</time>
      </trkpt>
      <trkpt lat="43.00437" lon="1.07849">
        <ele>491.2</ele>
        <time>2024-06-24T14:27:30.993Z</time>
      </trkpt>
      <trkpt lat="43.00438" lon="1.07844">
        <ele>491.2</ele>
        <time>2024-06-24T14:27:31.993Z</time>
      </trkpt>
      <trkpt lat="43.00439" lon="1.07839">
        <ele>491.2</ele>
        <time>2024-06-24T14:27:32.993Z</time>
      </trkpt>
      <trkpt lat="43.00441" lon="1.07834">
        <ele>491.2</ele>
        <time>2024-06-24T14:27:33.993Z</time>
      </trkpt>
      <trkpt lat="43.00442" lon="1.07829">
        <ele>491.2</ele>
        <time>2024-06-24T14:27:34.993Z</time>
      </trkpt>
      <trkpt lat="43.00444" lon="1.07824">
        <ele>491.2</ele>
        <time>2024-06-24T14:27:35.993Z</time>
      </trkpt>
      <trkpt lat="43.00446" lon="1.0782">
        <ele>490.8</ele>
        <time>2024-06-24T14:27:36.993Z</time>
      </trkpt>
      <trkpt lat="43.00448" lon="1.07817">
        <ele>490.8</ele>
        <time>2024-06-24T14:27:37.993Z</time>
      </trkpt>
      <trkpt lat="43.00451" lon="1.07814">
        <ele>490.8</ele>
        <time>2024-06-24T14:27:38.993Z</time>
      </trkpt>
      <trkpt lat="43.00455" lon="1.07813">
        <ele>490.4</ele>
        <time>2024-06-24T14:27:39.993Z</time>
      </trkpt>
      <trkpt lat="43.00459" lon="1.07813">
        <ele>490.4</ele>
        <time>2024-06-24T14:27:40.993Z</time>
      </trkpt>
      <trkpt lat="43.00466" lon="1.07817">
        <ele>490.4</ele>
        <time>2024-06-24T14:27:41.993Z</time>
      </trkpt>
      <trkpt lat="43.00471" lon="1.07818">
        <ele>489.6</ele>
        <time>2024-06-24T14:27:42.993Z</time>
      </trkpt>
      <trkpt lat="43.00478" lon="1.07817">
        <ele>489</ele>
        <time>2024-06-24T14:27:43.993Z</time>
      </trkpt>
      <trkpt lat="43.00485" lon="1.07817">
        <ele>488.4</ele>
        <time>2024-06-24T14:27:44.993Z</time>
      </trkpt>
      <trkpt lat="43.00492" lon="1.07816">
        <ele>488</ele>
        <time>2024-06-24T14:27:45.993Z</time>
      </trkpt>
      <trkpt lat="43.005" lon="1.07815">
        <ele>487.6</ele>
        <time>2024-06-24T14:27:46.993Z</time>
      </trkpt>
      <trkpt lat="43.00508" lon="1.07814">
        <ele>486.8</ele>
        <time>2024-06-24T14:27:47.993Z</time>
      </trkpt>
      <trkpt lat="43.00516" lon="1.07812">
        <ele>486.2</ele>
        <time>2024-06-24T14:27:48.993Z</time>
      </trkpt>
      <trkpt lat="43.00525" lon="1.07811">
        <ele>486</ele>
        <time>2024-06-24T14:27:49.993Z</time>
      </trkpt>
      <trkpt lat="43.00534" lon="1.0781">
        <ele>485.6</ele>
        <time>2024-06-24T14:27:50.993Z</time>
      </trkpt>
      <trkpt lat="43.00543" lon="1.07808">
        <ele>485</ele>
        <time>2024-06-24T14:27:51.993Z</time>
      </trkpt>
      <trkpt lat="43.00552" lon="1.07807">
        <ele>484.2</ele>
        <time>2024-06-24T14:27:52.993Z</time>
      </trkpt>
      <trkpt lat="43.00562" lon="1.07807">
        <ele>483.4</ele>
        <time>2024-06-24T14:27:53.993Z</time>
      </trkpt>
      <trkpt lat="43.00571" lon="1.07805">
        <ele>482.6</ele>
        <time>2024-06-24T14:27:54.993Z</time>
      </trkpt>
      <trkpt lat="43.0058" lon="1.07804">
        <ele>482</ele>
        <time>2024-06-24T14:27:55.993Z</time>
      </trkpt>
      <trkpt lat="43.00588" lon="1.07803">
        <ele>481</ele>
        <time>2024-06-24T14:27:56.993Z</time>
      </trkpt>
      <trkpt lat="43.00596" lon="1.07801">
        <ele>480.4</ele>
        <time>2024-06-24T14:27:57.993Z</time>
      </trkpt>
      <trkpt lat="43.00603" lon="1.07802">
        <ele>479.6</ele>
        <time>2024-06-24T14:27:58.993Z</time>
      </trkpt>
      <trkpt lat="43.00611" lon="1.07803">
        <ele>479</ele>
        <time>2024-06-24T14:27:59.993Z</time>
      </trkpt>
      <trkpt lat="43.00619" lon="1.07804">
        <ele>478.2</ele>
        <time>2024-06-24T14:28:00.993Z</time>
      </trkpt>
      <trkpt lat="43.00628" lon="1.07807">
        <ele>477.2</ele>
        <time>2024-06-24T14:28:01.993Z</time>
      </trkpt>
      <trkpt lat="43.00636" lon="1.07809">
        <ele>476.2</ele>
        <time>2024-06-24T14:28:02.993Z</time>
      </trkpt>
      <trkpt lat="43.00644" lon="1.07811">
        <ele>475.2</ele>
        <time>2024-06-24T14:28:03.993Z</time>
      </trkpt>
      <trkpt lat="43.00651" lon="1.07813">
        <ele>474</ele>
        <time>2024-06-24T14:28:04.993Z</time>
      </trkpt>
      <trkpt lat="43.00657" lon="1.07816">
        <ele>473</ele>
        <time>2024-06-24T14:28:05.993Z</time>
      </trkpt>
      <trkpt lat="43.00662" lon="1.0782">
        <ele>472</ele>
        <time>2024-06-24T14:28:06.993Z</time>
      </trkpt>
      <trkpt lat="43.00668" lon="1.07823">
        <ele>471</ele>
        <time>2024-06-24T14:28:07.993Z</time>
      </trkpt>
      <trkpt lat="43.00672" lon="1.07827">
        <ele>470</ele>
        <time>2024-06-24T14:28:08.993Z</time>
      </trkpt>
      <trkpt lat="43.00677" lon="1.07833">
        <ele>469</ele>
        <time>2024-06-24T14:28:09.993Z</time>
      </trkpt>
      <trkpt lat="43.00681" lon="1.07839">
        <ele>467.8</ele>
        <time>2024-06-24T14:28:10.993Z</time>
      </trkpt>
      <trkpt lat="43.00685" lon="1.07846">
        <ele>466</ele>
        <time>2024-06-24T14:28:11.993Z</time>
      </trkpt>
      <trkpt lat="43.00689" lon="1.07853">
        <ele>464.6</ele>
        <time>2024-06-24T14:28:12.993Z</time>
      </trkpt>
      <trkpt lat="43.00693" lon="1.0786">
        <ele>463.2</ele>
        <time>2024-06-24T14:28:13.993Z</time>
      </trkpt>
      <trkpt lat="43.00697" lon="1.07867">
        <ele>462.4</ele>
        <time>2024-06-24T14:28:14.993Z</time>
      </trkpt>
      <trkpt lat="43.00701" lon="1.07875">
        <ele>460.2</ele>
        <time>2024-06-24T14:28:15.993Z</time>
      </trkpt>
      <trkpt lat="43.00706" lon="1.07884">
        <ele>458.6</ele>
        <time>2024-06-24T14:28:16.993Z</time>
      </trkpt>
      <trkpt lat="43.00711" lon="1.07892">
        <ele>457</ele>
        <time>2024-06-24T14:28:17.993Z</time>
      </trkpt>
      <trkpt lat="43.00716" lon="1.07899">
        <ele>455.6</ele>
        <time>2024-06-24T14:28:18.993Z</time>
      </trkpt>
      <trkpt lat="43.00722" lon="1.07904">
        <ele>454.4</ele>
        <time>2024-06-24T14:28:19.993Z</time>
      </trkpt>
      <trkpt lat="43.00733" lon="1.07905">
        <ele>453.2</ele>
        <time>2024-06-24T14:28:20.993Z</time>
      </trkpt>
      <trkpt lat="43.00741" lon="1.07903">
        <ele>452.2</ele>
        <time>2024-06-24T14:28:21.993Z</time>
      </trkpt>
      <trkpt lat="43.00749" lon="1.07899">
        <ele>451</ele>
        <time>2024-06-24T14:28:22.993Z</time>
      </trkpt>
      <trkpt lat="43.00756" lon="1.07895">
        <ele>450.4</ele>
        <time>2024-06-24T14:28:23.993Z</time>
      </trkpt>
      <trkpt lat="43.00764" lon="1.07892">
        <ele>449.2</ele>
        <time>2024-06-24T14:28:24.993Z</time>
      </trkpt>
      <trkpt lat="43.00769" lon="1.07891">
        <ele>448.4</ele>
        <time>2024-06-24T14:28:25.993Z</time>
      </trkpt>
      <trkpt lat="43.00775" lon="1.07892">
        <ele>447.4</ele>
        <time>2024-06-24T14:28:26.993Z</time>
      </trkpt>
      <trkpt lat="43.0078" lon="1.07894">
        <ele>446.6</ele>
        <time>2024-06-24T14:28:27.993Z</time>
      </trkpt>
      <trkpt lat="43.00785" lon="1.07895">
        <ele>445.6</ele>
        <time>2024-06-24T14:28:28.993Z</time>
      </trkpt>
      <trkpt lat="43.00792" lon="1.07897">
        <ele>444.8</ele>
        <time>2024-06-24T14:28:29.993Z</time>
      </trkpt>
      <trkpt lat="43.00797" lon="1.07896">
        <ele>444</ele>
        <time>2024-06-24T14:28:30.993Z</time>
      </trkpt>
      <trkpt lat="43.00801" lon="1.07895">
        <ele>443.4</ele>
        <time>2024-06-24T14:28:31.993Z</time>
      </trkpt>
      <trkpt lat="43.00808" lon="1.07892">
        <ele>442.4</ele>
        <time>2024-06-24T14:28:32.993Z</time>
      </trkpt>
      <trkpt lat="43.00815" lon="1.0789">
        <ele>441.4</ele>
        <time>2024-06-24T14:28:33.993Z</time>
      </trkpt>
      <trkpt lat="43.00821" lon="1.07888">
        <ele>440.4</ele>
        <time>2024-06-24T14:28:34.993Z</time>
      </trkpt>
      <trkpt lat="43.00829" lon="1.07883">
        <ele>439.2</ele>
        <time>2024-06-24T14:28:35.993Z</time>
      </trkpt>
      <trkpt lat="43.00837" lon="1.07876">
        <ele>438.2</ele>
        <time>2024-06-24T14:28:36.993Z</time>
      </trkpt>
      <trkpt lat="43.00843" lon="1.0787">
        <ele>436.8</ele>
        <time>2024-06-24T14:28:37.993Z</time>
      </trkpt>
      <trkpt lat="43.00848" lon="1.07864">
        <ele>436</ele>
        <time>2024-06-24T14:28:38.993Z</time>
      </trkpt>
      <trkpt lat="43.00852" lon="1.07856">
        <ele>435.2</ele>
        <time>2024-06-24T14:28:39.993Z</time>
      </trkpt>
      <trkpt lat="43.00856" lon="1.07849">
        <ele>434.4</ele>
        <time>2024-06-24T14:28:40.993Z</time>
      </trkpt>
      <trkpt lat="43.00862" lon="1.07844">
        <ele>433.8</ele>
        <time>2024-06-24T14:28:41.993Z</time>
      </trkpt>
      <trkpt lat="43.00868" lon="1.07841">
        <ele>433.2</ele>
        <time>2024-06-24T14:28:42.993Z</time>
      </trkpt>
      <trkpt lat="43.00874" lon="1.07839">
        <ele>432.4</ele>
        <time>2024-06-24T14:28:43.993Z</time>
      </trkpt>
      <trkpt lat="43.00881" lon="1.07838">
        <ele>432</ele>
        <time>2024-06-24T14:28:44.993Z</time>
      </trkpt>
      <trkpt lat="43.00888" lon="1.07837">
        <ele>431.6</ele>
        <time>2024-06-24T14:28:45.993Z</time>
      </trkpt>
      <trkpt lat="43.00896" lon="1.07838">
        <ele>431.2</ele>
        <time>2024-06-24T14:28:46.993Z</time>
      </trkpt>
      <trkpt lat="43.00903" lon="1.07839">
        <ele>431</ele>
        <time>2024-06-24T14:28:47.993Z</time>
      </trkpt>
      <trkpt lat="43.0091" lon="1.07839">
        <ele>431</ele>
        <time>2024-06-24T14:28:48.993Z</time>
      </trkpt>
      <trkpt lat="43.00917" lon="1.07839">
        <ele>431</ele>
        <time>2024-06-24T14:28:49.993Z</time>
      </trkpt>
      <trkpt lat="43.00923" lon="1.0784">
        <ele>430.6</ele>
        <time>2024-06-24T14:28:50.993Z</time>
      </trkpt>
      <trkpt lat="43.00928" lon="1.07838">
        <ele>430.2</ele>
        <time>2024-06-24T14:28:51.993Z</time>
      </trkpt>
      <trkpt lat="43.00934" lon="1.07834">
        <ele>430.4</ele>
        <time>2024-06-24T14:28:52.993Z</time>
      </trkpt>
      <trkpt lat="43.00938" lon="1.0783">
        <ele>430.4</ele>
        <time>2024-06-24T14:28:53.993Z</time>
      </trkpt>
      <trkpt lat="43.00943" lon="1.07829">
        <ele>430.4</ele>
        <time>2024-06-24T14:28:54.993Z</time>
      </trkpt>
      <trkpt lat="43.00947" lon="1.07828">
        <ele>430.4</ele>
        <time>2024-06-24T14:28:55.993Z</time>
      </trkpt>
      <trkpt lat="43.0095" lon="1.07827">
        <ele>431</ele>
        <time>2024-06-24T14:28:56.993Z</time>
      </trkpt>
      <trkpt lat="43.00952" lon="1.07827">
        <ele>431.4</ele>
        <time>2024-06-24T14:28:57.993Z</time>
      </trkpt>
      <trkpt lat="43.00954" lon="1.07829">
        <ele>431.6</ele>
        <time>2024-06-24T14:28:58.993Z</time>
      </trkpt>
      <trkpt lat="43.00956" lon="1.07828">
        <ele>431.8</ele>
        <time>2024-06-24T14:28:59.993Z</time>
      </trkpt>
      <trkpt lat="43.00958" lon="1.07828">
        <ele>431.8</ele>
        <time>2024-06-24T14:29:00.993Z</time>
      </trkpt>
      <trkpt lat="43.00961" lon="1.07828">
        <ele>432.2</ele>
        <time>2024-06-24T14:29:01.993Z</time>
      </trkpt>
      <trkpt lat="43.00963" lon="1.07828">
        <ele>432.8</ele>
        <time>2024-06-24T14:29:02.993Z</time>
      </trkpt>
      <trkpt lat="43.00966" lon="1.07828">
        <ele>433</ele>
        <time>2024-06-24T14:29:03.993Z</time>
      </trkpt>
      <trkpt lat="43.00968" lon="1.07828">
        <ele>433.6</ele>
        <time>2024-06-24T14:29:04.993Z</time>
      </trkpt>
      <trkpt lat="43.0097" lon="1.07828">
        <ele>433.6</ele>
        <time>2024-06-24T14:29:05.993Z</time>
      </trkpt>
      <trkpt lat="43.00972" lon="1.07828">
        <ele>434</ele>
        <time>2024-06-24T14:29:06.993Z</time>
      </trkpt>
      <trkpt lat="43.00974" lon="1.07829">
        <ele>434</ele>
        <time>2024-06-24T14:29:07.993Z</time>
      </trkpt>
      <trkpt lat="43.00975" lon="1.07829">
        <ele>434.4</ele>
        <time>2024-06-24T14:29:08.993Z</time>
      </trkpt>
      <trkpt lat="43.00977" lon="1.07829">
        <ele>434.6</ele>
        <time>2024-06-24T14:29:09.993Z</time>
      </trkpt>
      <trkpt lat="43.00979" lon="1.07829">
        <ele>434.6</ele>
        <time>2024-06-24T14:29:10.993Z</time>
      </trkpt>
      <trkpt lat="43.00981" lon="1.07829">
        <ele>435</ele>
        <time>2024-06-24T14:29:11.993Z</time>
      </trkpt>
      <trkpt lat="43.00983" lon="1.07829">
        <ele>435.4</ele>
        <time>2024-06-24T14:29:12.993Z</time>
      </trkpt>
      <trkpt lat="43.00985" lon="1.07829">
        <ele>435.4</ele>
        <time>2024-06-24T14:29:13.993Z</time>
      </trkpt>
      <trkpt lat="43.00986" lon="1.07829">
        <ele>436.2</ele>
        <time>2024-06-24T14:29:14.993Z</time>
      </trkpt>
      <trkpt lat="43.00988" lon="1.07829">
        <ele>436.6</ele>
        <time>2024-06-24T14:29:15.993Z</time>
      </trkpt>
      <trkpt lat="43.00989" lon="1.0783">
        <ele>436.8</ele>
        <time>2024-06-24T14:29:16.993Z</time>
      </trkpt>
      <trkpt lat="43.00991" lon="1.0783">
        <ele>436.8</ele>
        <time>2024-06-24T14:29:17.993Z</time>
      </trkpt>
      <trkpt lat="43.00992" lon="1.0783">
        <ele>437.4</ele>
        <time>2024-06-24T14:29:18.993Z</time>
      </trkpt>
      <trkpt lat="43.00995" lon="1.0783">
        <ele>437.8</ele>
        <time>2024-06-24T14:29:19.993Z</time>
      </trkpt>
      <trkpt lat="43.00997" lon="1.0783">
        <ele>438.2</ele>
        <time>2024-06-24T14:29:20.993Z</time>
      </trkpt>
      <trkpt lat="43.00999" lon="1.07829">
        <ele>438.4</ele>
        <time>2024-06-24T14:29:21.993Z</time>
      </trkpt>
      <trkpt lat="43.01001" lon="1.07829">
        <ele>439</ele>
        <time>2024-06-24T14:29:22.993Z</time>
      </trkpt>
      <trkpt lat="43.01003" lon="1.07828">
        <ele>439.2</ele>
        <time>2024-06-24T14:29:23.993Z</time>
      </trkpt>
      <trkpt lat="43.01005" lon="1.07828">
        <ele>439.6</ele>
        <time>2024-06-24T14:29:24.993Z</time>
      </trkpt>
      <trkpt lat="43.01006" lon="1.07827">
        <ele>439.8</ele>
        <time>2024-06-24T14:29:25.993Z</time>
      </trkpt>
      <trkpt lat="43.01008" lon="1.07827">
        <ele>440.2</ele>
        <time>2024-06-24T14:29:26.993Z</time>
      </trkpt>
      <trkpt lat="43.0101" lon="1.07826">
        <ele>440.6</ele>
        <time>2024-06-24T14:29:27.993Z</time>
      </trkpt>
      <trkpt lat="43.01011" lon="1.07826">
        <ele>441</ele>
        <time>2024-06-24T14:29:28.993Z</time>
      </trkpt>
      <trkpt lat="43.01014" lon="1.07825">
        <ele>441.2</ele>
        <time>2024-06-24T14:29:29.993Z</time>
      </trkpt>
      <trkpt lat="43.01016" lon="1.07826">
        <ele>441.6</ele>
        <time>2024-06-24T14:29:30.993Z</time>
      </trkpt>
      <trkpt lat="43.01018" lon="1.07826">
        <ele>441.6</ele>
        <time>2024-06-24T14:29:31.993Z</time>
      </trkpt>
      <trkpt lat="43.0102" lon="1.07827">
        <ele>441.8</ele>
        <time>2024-06-24T14:29:32.993Z</time>
      </trkpt>
      <trkpt lat="43.01021" lon="1.07826">
        <ele>442.2</ele>
        <time>2024-06-24T14:29:33.993Z</time>
      </trkpt>
      <trkpt lat="43.01023" lon="1.07826">
        <ele>442.2</ele>
        <time>2024-06-24T14:29:34.993Z</time>
      </trkpt>
      <trkpt lat="43.01025" lon="1.07826">
        <ele>442.4</ele>
        <time>2024-06-24T14:29:35.993Z</time>
      </trkpt>
      <trkpt lat="43.01027" lon="1.07826">
        <ele>442.8</ele>
        <time>2024-06-24T14:29:36.993Z</time>
      </trkpt>
      <trkpt lat="43.01029" lon="1.07825">
        <ele>443</ele>
        <time>2024-06-24T14:29:37.993Z</time>
      </trkpt>
      <trkpt lat="43.01031" lon="1.07825">
        <ele>443.4</ele>
        <time>2024-06-24T14:29:38.993Z</time>
      </trkpt>
      <trkpt lat="43.01033" lon="1.07824">
        <ele>443.4</ele>
        <time>2024-06-24T14:29:39.993Z</time>
      </trkpt>
      <trkpt lat="43.01036" lon="1.07823">
        <ele>443.8</ele>
        <time>2024-06-24T14:29:40.993Z</time>
      </trkpt>
      <trkpt lat="43.01038" lon="1.07822">
        <ele>444</ele>
        <time>2024-06-24T14:29:41.993Z</time>
      </trkpt>
      <trkpt lat="43.0104" lon="1.07822">
        <ele>444</ele>
        <time>2024-06-24T14:29:42.993Z</time>
      </trkpt>
      <trkpt lat="43.01042" lon="1.07822">
        <ele>444.4</ele>
        <time>2024-06-24T14:29:43.993Z</time>
      </trkpt>
      <trkpt lat="43.01044" lon="1.07821">
        <ele>444.6</ele>
        <time>2024-06-24T14:29:44.993Z</time>
      </trkpt>
      <trkpt lat="43.01047" lon="1.07821">
        <ele>445</ele>
        <time>2024-06-24T14:29:45.993Z</time>
      </trkpt>
      <trkpt lat="43.01049" lon="1.07821">
        <ele>445.4</ele>
        <time>2024-06-24T14:29:46.993Z</time>
      </trkpt>
      <trkpt lat="43.0105" lon="1.07821">
        <ele>445.8</ele>
        <time>2024-06-24T14:29:47.993Z</time>
      </trkpt>
      <trkpt lat="43.01052" lon="1.07822">
        <ele>446.2</ele>
        <time>2024-06-24T14:29:48.993Z</time>
      </trkpt>
      <trkpt lat="43.01054" lon="1.07823">
        <ele>446.6</ele>
        <time>2024-06-24T14:29:49.993Z</time>
      </trkpt>
      <trkpt lat="43.01057" lon="1.07824">
        <ele>446.6</ele>
        <time>2024-06-24T14:29:50.993Z</time>
      </trkpt>
      <trkpt lat="43.01058" lon="1.07825">
        <ele>447.2</ele>
        <time>2024-06-24T14:29:51.993Z</time>
      </trkpt>
      <trkpt lat="43.0106" lon="1.07826">
        <ele>447.6</ele>
        <time>2024-06-24T14:29:52.993Z</time>
      </trkpt>
      <trkpt lat="43.01062" lon="1.07828">
        <ele>448</ele>
        <time>2024-06-24T14:29:53.993Z</time>
      </trkpt>
      <trkpt lat="43.01065" lon="1.07829">
        <ele>448.4</ele>
        <time>2024-06-24T14:29:54.993Z</time>
      </trkpt>
      <trkpt lat="43.01067" lon="1.0783">
        <ele>448.6</ele>
        <time>2024-06-24T14:29:55.993Z</time>
      </trkpt>
      <trkpt lat="43.01069" lon="1.07831">
        <ele>448.8</ele>
        <time>2024-06-24T14:29:56.993Z</time>
      </trkpt>
      <trkpt lat="43.01071" lon="1.07832">
        <ele>448.8</ele>
        <time>2024-06-24T14:29:57.993Z</time>
      </trkpt>
      <trkpt lat="43.01072" lon="1.07833">
        <ele>448.8</ele>
        <time>2024-06-24T14:29:58.993Z</time>
      </trkpt>
      <trkpt lat="43.01074" lon="1.07834">
        <ele>449.4</ele>
        <time>2024-06-24T14:29:59.993Z</time>
      </trkpt>
      <trkpt lat="43.01077" lon="1.07835">
        <ele>449.4</ele>
        <time>2024-06-24T14:30:00.993Z</time>
      </trkpt>
      <trkpt lat="43.01079" lon="1.07837">
        <ele>449.8</ele>
        <time>2024-06-24T14:30:01.993Z</time>
      </trkpt>
      <trkpt lat="43.01081" lon="1.07838">
        <ele>449.8</ele>
        <time>2024-06-24T14:30:02.993Z</time>
      </trkpt>
      <trkpt lat="43.01082" lon="1.07839">
        <ele>450.2</ele>
        <time>2024-06-24T14:30:03.993Z</time>
      </trkpt>
      <trkpt lat="43.01083" lon="1.07841">
        <ele>450.4</ele>
        <time>2024-06-24T14:30:04.993Z</time>
      </trkpt>
      <trkpt lat="43.01084" lon="1.07842">
        <ele>450.8</ele>
        <time>2024-06-24T14:30:05.993Z</time>
      </trkpt>
      <trkpt lat="43.01086" lon="1.07844">
        <ele>450.8</ele>
        <time>2024-06-24T14:30:06.993Z</time>
      </trkpt>
      <trkpt lat="43.01088" lon="1.07846">
        <ele>451</ele>
        <time>2024-06-24T14:30:07.993Z</time>
      </trkpt>
      <trkpt lat="43.01089" lon="1.07847">
        <ele>451.4</ele>
        <time>2024-06-24T14:30:08.993Z</time>
      </trkpt>
      <trkpt lat="43.0109" lon="1.07848">
        <ele>451.6</ele>
        <time>2024-06-24T14:30:09.993Z</time>
      </trkpt>
      <trkpt lat="43.01091" lon="1.0785">
        <ele>451.8</ele>
        <time>2024-06-24T14:30:10.993Z</time>
      </trkpt>
      <trkpt lat="43.01093" lon="1.07853">
        <ele>451.8</ele>
        <time>2024-06-24T14:30:11.993Z</time>
      </trkpt>
      <trkpt lat="43.01095" lon="1.07854">
        <ele>452.4</ele>
        <time>2024-06-24T14:30:12.993Z</time>
      </trkpt>
      <trkpt lat="43.01096" lon="1.07856">
        <ele>452.4</ele>
        <time>2024-06-24T14:30:13.993Z</time>
      </trkpt>
      <trkpt lat="43.01098" lon="1.07857">
        <ele>453</ele>
        <time>2024-06-24T14:30:14.993Z</time>
      </trkpt>
      <trkpt lat="43.01099" lon="1.07859">
        <ele>453</ele>
        <time>2024-06-24T14:30:15.993Z</time>
      </trkpt>
      <trkpt lat="43.01101" lon="1.0786">
        <ele>453</ele>
        <time>2024-06-24T14:30:16.993Z</time>
      </trkpt>
      <trkpt lat="43.01101" lon="1.07861">
        <ele>453.2</ele>
        <time>2024-06-24T14:30:17.993Z</time>
      </trkpt>
      <trkpt lat="43.01103" lon="1.07862">
        <ele>453.2</ele>
        <time>2024-06-24T14:30:18.993Z</time>
      </trkpt>
      <trkpt lat="43.01105" lon="1.07863">
        <ele>453.4</ele>
        <time>2024-06-24T14:30:19.993Z</time>
      </trkpt>
      <trkpt lat="43.01107" lon="1.07865">
        <ele>453.8</ele>
        <time>2024-06-24T14:30:20.993Z</time>
      </trkpt>
      <trkpt lat="43.01109" lon="1.07867">
        <ele>453.8</ele>
        <time>2024-06-24T14:30:21.993Z</time>
      </trkpt>
      <trkpt lat="43.0111" lon="1.0787">
        <ele>454</ele>
        <time>2024-06-24T14:30:22.993Z</time>
      </trkpt>
      <trkpt lat="43.01111" lon="1.07872">
        <ele>454.2</ele>
        <time>2024-06-24T14:30:23.993Z</time>
      </trkpt>
      <trkpt lat="43.01113" lon="1.07874">
        <ele>454.2</ele>
        <time>2024-06-24T14:30:24.993Z</time>
      </trkpt>
      <trkpt lat="43.01115" lon="1.07876">
        <ele>454.8</ele>
        <time>2024-06-24T14:30:25.993Z</time>
      </trkpt>
      <trkpt lat="43.01117" lon="1.07878">
        <ele>455.2</ele>
        <time>2024-06-24T14:30:26.993Z</time>
      </trkpt>
      <trkpt lat="43.01119" lon="1.0788">
        <ele>455.4</ele>
        <time>2024-06-24T14:30:27.993Z</time>
      </trkpt>
      <trkpt lat="43.01121" lon="1.07881">
        <ele>455.4</ele>
        <time>2024-06-24T14:30:28.993Z</time>
      </trkpt>
      <trkpt lat="43.01123" lon="1.07882">
        <ele>455.8</ele>
        <time>2024-06-24T14:30:29.993Z</time>
      </trkpt>
      <trkpt lat="43.01124" lon="1.07884">
        <ele>455.8</ele>
        <time>2024-06-24T14:30:30.993Z</time>
      </trkpt>
      <trkpt lat="43.01126" lon="1.07885">
        <ele>456.2</ele>
        <time>2024-06-24T14:30:31.993Z</time>
      </trkpt>
      <trkpt lat="43.01128" lon="1.07887">
        <ele>456.8</ele>
        <time>2024-06-24T14:30:32.993Z</time>
      </trkpt>
      <trkpt lat="43.01129" lon="1.07888">
        <ele>457.2</ele>
        <time>2024-06-24T14:30:33.993Z</time>
      </trkpt>
      <trkpt lat="43.01131" lon="1.07888">
        <ele>457.6</ele>
        <time>2024-06-24T14:30:34.993Z</time>
      </trkpt>
      <trkpt lat="43.01133" lon="1.07888">
        <ele>457.6</ele>
        <time>2024-06-24T14:30:35.993Z</time>
      </trkpt>
      <trkpt lat="43.01134" lon="1.07889">
        <ele>457.8</ele>
        <time>2024-06-24T14:30:36.993Z</time>
      </trkpt>
      <trkpt lat="43.01135" lon="1.07889">
        <ele>457.8</ele>
        <time>2024-06-24T14:30:37.993Z</time>
      </trkpt>
      <trkpt lat="43.01137" lon="1.07891">
        <ele>458.2</ele>
        <time>2024-06-24T14:30:38.993Z</time>
      </trkpt>
      <trkpt lat="43.01137" lon="1.07891">
        <ele>458.2</ele>
        <time>2024-06-24T14:30:39.993Z</time>
      </trkpt>
      <trkpt lat="43.01138" lon="1.07892">
        <ele>458.6</ele>
        <time>2024-06-24T14:30:40.993Z</time>
      </trkpt>
      <trkpt lat="43.01138" lon="1.07892">
        <ele>458.6</ele>
        <time>2024-06-24T14:30:41.993Z</time>
      </trkpt>
      <trkpt lat="43.01138" lon="1.07892">
        <ele>458.6</ele>
        <time>2024-06-24T14:30:42.993Z</time>
      </trkpt>
      <trkpt lat="43.01139" lon="1.07894">
        <ele>458.8</ele>
        <time>2024-06-24T14:30:45.993Z</time>
      </trkpt>
      <trkpt lat="43.01139" lon="1.07894">
        <ele>458.8</ele>
        <time>2024-06-24T14:30:46.993Z</time>
      </trkpt>
      <trkpt lat="43.01139" lon="1.07895">
        <ele>458.8</ele>
        <time>2024-06-24T14:30:47.993Z</time>
      </trkpt>
      <trkpt lat="43.01139" lon="1.07895">
        <ele>458.8</ele>
        <time>2024-06-24T14:30:48.993Z</time>
      </trkpt>
      <trkpt lat="43.01137" lon="1.07895">
        <ele>459.2</ele>
        <time>2024-06-24T14:32:07.993Z</time>
      </trkpt>
      <trkpt lat="43.01138" lon="1.07895">
        <ele>459.2</ele>
        <time>2024-06-24T14:32:08.993Z</time>
      </trkpt>
      <trkpt lat="43.0114" lon="1.07897">
        <ele>459.2</ele>
        <time>2024-06-24T14:32:09.993Z</time>
      </trkpt>
      <trkpt lat="43.01142" lon="1.07898">
        <ele>459.2</ele>
        <time>2024-06-24T14:32:10.993Z</time>
      </trkpt>
      <trkpt lat="43.01145" lon="1.07901">
        <ele>459.2</ele>
        <time>2024-06-24T14:32:11.993Z</time>
      </trkpt>
      <trkpt lat="43.01148" lon="1.07903">
        <ele>459</ele>
        <time>2024-06-24T14:32:12.993Z</time>
      </trkpt>
      <trkpt lat="43.01151" lon="1.07904">
        <ele>458.6</ele>
        <time>2024-06-24T14:32:13.993Z</time>
      </trkpt>
      <trkpt lat="43.01154" lon="1.07906">
        <ele>457.8</ele>
        <time>2024-06-24T14:32:14.993Z</time>
      </trkpt>
      <trkpt lat="43.01158" lon="1.07907">
        <ele>457.4</ele>
        <time>2024-06-24T14:32:15.993Z</time>
      </trkpt>
      <trkpt lat="43.01162" lon="1.07908">
        <ele>457.4</ele>
        <time>2024-06-24T14:32:16.993Z</time>
      </trkpt>
      <trkpt lat="43.01165" lon="1.07909">
        <ele>457.4</ele>
        <time>2024-06-24T14:32:17.993Z</time>
      </trkpt>
      <trkpt lat="43.01168" lon="1.0791">
        <ele>456.6</ele>
        <time>2024-06-24T14:32:18.993Z</time>
      </trkpt>
      <trkpt lat="43.01171" lon="1.07911">
        <ele>456</ele>
        <time>2024-06-24T14:32:19.993Z</time>
      </trkpt>
      <trkpt lat="43.01174" lon="1.07912">
        <ele>455.4</ele>
        <time>2024-06-24T14:32:20.993Z</time>
      </trkpt>
      <trkpt lat="43.01176" lon="1.07914">
        <ele>455</ele>
        <time>2024-06-24T14:32:21.993Z</time>
      </trkpt>
      <trkpt lat="43.01177" lon="1.07915">
        <ele>454.8</ele>
        <time>2024-06-24T14:32:22.993Z</time>
      </trkpt>
      <trkpt lat="43.01178" lon="1.07915">
        <ele>454.8</ele>
        <time>2024-06-24T14:32:23.993Z</time>
      </trkpt>
      <trkpt lat="43.01179" lon="1.07916">
        <ele>454.8</ele>
        <time>2024-06-24T14:32:24.993Z</time>
      </trkpt>
      <trkpt lat="43.0118" lon="1.07918">
        <ele>454.4</ele>
        <time>2024-06-24T14:32:25.993Z</time>
      </trkpt>
      <trkpt lat="43.01182" lon="1.07919">
        <ele>454.2</ele>
        <time>2024-06-24T14:32:26.993Z</time>
      </trkpt>
      <trkpt lat="43.01184" lon="1.07921">
        <ele>454.2</ele>
        <time>2024-06-24T14:32:27.993Z</time>
      </trkpt>
      <trkpt lat="43.01185" lon="1.07922">
        <ele>454.2</ele>
        <time>2024-06-24T14:32:28.993Z</time>
      </trkpt>
      <trkpt lat="43.01187" lon="1.07924">
        <ele>454</ele>
        <time>2024-06-24T14:32:29.993Z</time>
      </trkpt>
      <trkpt lat="43.01189" lon="1.07926">
        <ele>454</ele>
        <time>2024-06-24T14:32:30.993Z</time>
      </trkpt>
      <trkpt lat="43.01191" lon="1.07927">
        <ele>454</ele>
        <time>2024-06-24T14:32:31.993Z</time>
      </trkpt>
      <trkpt lat="43.01193" lon="1.0793">
        <ele>453.8</ele>
        <time>2024-06-24T14:32:32.993Z</time>
      </trkpt>
      <trkpt lat="43.01196" lon="1.07932">
        <ele>454.2</ele>
        <time>2024-06-24T14:32:33.993Z</time>
      </trkpt>
      <trkpt lat="43.01198" lon="1.07934">
        <ele>454.2</ele>
        <time>2024-06-24T14:32:34.993Z</time>
      </trkpt>
      <trkpt lat="43.012" lon="1.07937">
        <ele>454.2</ele>
        <time>2024-06-24T14:32:35.993Z</time>
      </trkpt>
      <trkpt lat="43.01202" lon="1.0794">
        <ele>454</ele>
        <time>2024-06-24T14:32:36.993Z</time>
      </trkpt>
      <trkpt lat="43.01204" lon="1.07942">
        <ele>453.8</ele>
        <time>2024-06-24T14:32:37.993Z</time>
      </trkpt>
      <trkpt lat="43.01207" lon="1.07944">
        <ele>453.8</ele>
        <time>2024-06-24T14:32:38.993Z</time>
      </trkpt>
      <trkpt lat="43.01209" lon="1.07946">
        <ele>453.8</ele>
        <time>2024-06-24T14:32:39.993Z</time>
      </trkpt>
      <trkpt lat="43.01212" lon="1.07948">
        <ele>453.8</ele>
        <time>2024-06-24T14:32:40.993Z</time>
      </trkpt>
      <trkpt lat="43.01213" lon="1.0795">
        <ele>453.8</ele>
        <time>2024-06-24T14:32:41.993Z</time>
      </trkpt>
      <trkpt lat="43.01216" lon="1.07952">
        <ele>453.8</ele>
        <time>2024-06-24T14:32:42.993Z</time>
      </trkpt>
      <trkpt lat="43.01219" lon="1.07954">
        <ele>453.8</ele>
        <time>2024-06-24T14:32:43.993Z</time>
      </trkpt>
      <trkpt lat="43.01221" lon="1.07956">
        <ele>453.8</ele>
        <time>2024-06-24T14:32:44.993Z</time>
      </trkpt>
      <trkpt lat="43.01224" lon="1.07958">
        <ele>453.6</ele>
        <time>2024-06-24T14:32:45.993Z</time>
      </trkpt>
      <trkpt lat="43.01226" lon="1.0796">
        <ele>453.6</ele>
        <time>2024-06-24T14:32:46.993Z</time>
      </trkpt>
      <trkpt lat="43.01228" lon="1.07963">
        <ele>453.2</ele>
        <time>2024-06-24T14:32:47.993Z</time>
      </trkpt>
      <trkpt lat="43.0123" lon="1.07966">
        <ele>453.2</ele>
        <time>2024-06-24T14:32:48.993Z</time>
      </trkpt>
      <trkpt lat="43.01233" lon="1.07969">
        <ele>453.6</ele>
        <time>2024-06-24T14:32:49.993Z</time>
      </trkpt>
      <trkpt lat="43.01236" lon="1.07971">
        <ele>453.2</ele>
        <time>2024-06-24T14:32:50.993Z</time>
      </trkpt>
      <trkpt lat="43.01238" lon="1.07974">
        <ele>452.2</ele>
        <time>2024-06-24T14:32:51.993Z</time>
      </trkpt>
      <trkpt lat="43.0124" lon="1.07976">
        <ele>452.8</ele>
        <time>2024-06-24T14:32:52.993Z</time>
      </trkpt>
      <trkpt lat="43.01242" lon="1.07979">
        <ele>453</ele>
        <time>2024-06-24T14:32:53.993Z</time>
      </trkpt>
      <trkpt lat="43.01244" lon="1.07981">
        <ele>453</ele>
        <time>2024-06-24T14:32:54.993Z</time>
      </trkpt>
      <trkpt lat="43.01246" lon="1.07982">
        <ele>453</ele>
        <time>2024-06-24T14:32:55.993Z</time>
      </trkpt>
      <trkpt lat="43.01248" lon="1.07984">
        <ele>453</ele>
        <time>2024-06-24T14:32:56.993Z</time>
      </trkpt>
      <trkpt lat="43.0125" lon="1.07986">
        <ele>453</ele>
        <time>2024-06-24T14:32:57.993Z</time>
      </trkpt>
      <trkpt lat="43.01252" lon="1.07988">
        <ele>452.6</ele>
        <time>2024-06-24T14:32:58.993Z</time>
      </trkpt>
      <trkpt lat="43.01254" lon="1.0799">
        <ele>453</ele>
        <time>2024-06-24T14:32:59.993Z</time>
      </trkpt>
      <trkpt lat="43.01255" lon="1.07991">
        <ele>453</ele>
        <time>2024-06-24T14:33:00.993Z</time>
      </trkpt>
      <trkpt lat="43.01255" lon="1.0799">
        <ele>453.2</ele>
        <time>2024-06-24T14:33:01.993Z</time>
      </trkpt>
      <trkpt lat="43.01255" lon="1.0799">
        <ele>453.2</ele>
        <time>2024-06-24T14:33:02.993Z</time>
      </trkpt>
      <trkpt lat="43.01254" lon="1.07992">
        <ele>453.2</ele>
        <time>2024-06-24T14:33:06.993Z</time>
      </trkpt>
      <trkpt lat="43.01255" lon="1.07993">
        <ele>453.4</ele>
        <time>2024-06-24T14:33:07.993Z</time>
      </trkpt>
      <trkpt lat="43.01256" lon="1.07994">
        <ele>453.4</ele>
        <time>2024-06-24T14:33:08.993Z</time>
      </trkpt>
      <trkpt lat="43.01256" lon="1.07995">
        <ele>453.4</ele>
        <time>2024-06-24T14:33:09.993Z</time>
      </trkpt>
      <trkpt lat="43.01257" lon="1.07996">
        <ele>453.4</ele>
        <time>2024-06-24T14:33:10.993Z</time>
      </trkpt>
      <trkpt lat="43.01259" lon="1.07997">
        <ele>453.4</ele>
        <time>2024-06-24T14:33:11.993Z</time>
      </trkpt>
      <trkpt lat="43.01261" lon="1.07997">
        <ele>453.4</ele>
        <time>2024-06-24T14:33:12.993Z</time>
      </trkpt>
      <trkpt lat="43.01262" lon="1.07998">
        <ele>453.6</ele>
        <time>2024-06-24T14:33:13.993Z</time>
      </trkpt>
      <trkpt lat="43.01262" lon="1.07998">
        <ele>453.6</ele>
        <time>2024-06-24T14:33:14.993Z</time>
      </trkpt>
      <trkpt lat="43.01262" lon="1.07998">
        <ele>453.6</ele>
        <time>2024-06-24T14:33:15.993Z</time>
      </trkpt>
      <trkpt lat="43.01262" lon="1.07998">
        <ele>453.6</ele>
        <time>2024-06-24T14:33:16.993Z</time>
      </trkpt>
      <trkpt lat="43.01265" lon="1.07999">
        <ele>453.8</ele>
        <time>2024-06-24T14:33:22.993Z</time>
      </trkpt>
      <trkpt lat="43.01266" lon="1.07999">
        <ele>453.8</ele>
        <time>2024-06-24T14:33:23.993Z</time>
      </trkpt>
      <trkpt lat="43.01266" lon="1.08">
        <ele>453.8</ele>
        <time>2024-06-24T14:33:24.993Z</time>
      </trkpt>
      <trkpt lat="43.01267" lon="1.08001">
        <ele>453.8</ele>
        <time>2024-06-24T14:33:25.993Z</time>
      </trkpt>
      <trkpt lat="43.01268" lon="1.08002">
        <ele>454</ele>
        <time>2024-06-24T14:33:26.993Z</time>
      </trkpt>
      <trkpt lat="43.01268" lon="1.08002">
        <ele>454</ele>
        <time>2024-06-24T14:33:27.993Z</time>
      </trkpt>
      <trkpt lat="43.01268" lon="1.08003">
        <ele>454.2</ele>
        <time>2024-06-24T14:33:28.993Z</time>
      </trkpt>
      <trkpt lat="43.01268" lon="1.08003">
        <ele>454.2</ele>
        <time>2024-06-24T14:33:29.993Z</time>
      </trkpt>
      <trkpt lat="43.01268" lon="1.08003">
        <ele>454.2</ele>
        <time>2024-06-24T14:33:30.993Z</time>
      </trkpt>
      <trkpt lat="43.01269" lon="1.08004">
        <ele>454.2</ele>
        <time>2024-06-24T14:33:31.993Z</time>
      </trkpt>
      <trkpt lat="43.01271" lon="1.08006">
        <ele>454.8</ele>
        <time>2024-06-24T14:33:32.993Z</time>
      </trkpt>
      <trkpt lat="43.01272" lon="1.08007">
        <ele>455</ele>
        <time>2024-06-24T14:33:33.993Z</time>
      </trkpt>
      <trkpt lat="43.01273" lon="1.08007">
        <ele>455</ele>
        <time>2024-06-24T14:33:34.993Z</time>
      </trkpt>
      <trkpt lat="43.01275" lon="1.08008">
        <ele>455.4</ele>
        <time>2024-06-24T14:33:35.993Z</time>
      </trkpt>
      <trkpt lat="43.01276" lon="1.08008">
        <ele>455.4</ele>
        <time>2024-06-24T14:33:36.993Z</time>
      </trkpt>
      <trkpt lat="43.01277" lon="1.08009">
        <ele>455.8</ele>
        <time>2024-06-24T14:33:37.993Z</time>
      </trkpt>
      <trkpt lat="43.01279" lon="1.0801">
        <ele>456</ele>
        <time>2024-06-24T14:33:38.993Z</time>
      </trkpt>
      <trkpt lat="43.01282" lon="1.08012">
        <ele>456</ele>
        <time>2024-06-24T14:33:39.993Z</time>
      </trkpt>
      <trkpt lat="43.01284" lon="1.08013">
        <ele>456.4</ele>
        <time>2024-06-24T14:33:40.993Z</time>
      </trkpt>
      <trkpt lat="43.01286" lon="1.08013">
        <ele>456.6</ele>
        <time>2024-06-24T14:33:41.993Z</time>
      </trkpt>
      <trkpt lat="43.01287" lon="1.08014">
        <ele>456.6</ele>
        <time>2024-06-24T14:33:42.993Z</time>
      </trkpt>
      <trkpt lat="43.01289" lon="1.08013">
        <ele>456.6</ele>
        <time>2024-06-24T14:33:43.993Z</time>
      </trkpt>
      <trkpt lat="43.01291" lon="1.08012">
        <ele>457</ele>
        <time>2024-06-24T14:33:44.993Z</time>
      </trkpt>
      <trkpt lat="43.01292" lon="1.08011">
        <ele>457</ele>
        <time>2024-06-24T14:33:45.993Z</time>
      </trkpt>
      <trkpt lat="43.01293" lon="1.08008">
        <ele>457.2</ele>
        <time>2024-06-24T14:33:46.993Z</time>
      </trkpt>
      <trkpt lat="43.01295" lon="1.08004">
        <ele>457.2</ele>
        <time>2024-06-24T14:33:47.993Z</time>
      </trkpt>
      <trkpt lat="43.01295" lon="1.08">
        <ele>457.6</ele>
        <time>2024-06-24T14:33:48.993Z</time>
      </trkpt>
      <trkpt lat="43.01296" lon="1.07995">
        <ele>457.6</ele>
        <time>2024-06-24T14:33:49.993Z</time>
      </trkpt>
      <trkpt lat="43.01296" lon="1.07992">
        <ele>457.6</ele>
        <time>2024-06-24T14:33:50.993Z</time>
      </trkpt>
      <trkpt lat="43.01298" lon="1.07988">
        <ele>457.6</ele>
        <time>2024-06-24T14:33:51.993Z</time>
      </trkpt>
      <trkpt lat="43.01299" lon="1.07982">
        <ele>457.6</ele>
        <time>2024-06-24T14:33:52.993Z</time>
      </trkpt>
      <trkpt lat="43.01301" lon="1.07977">
        <ele>457.6</ele>
        <time>2024-06-24T14:33:53.993Z</time>
      </trkpt>
      <trkpt lat="43.01304" lon="1.07972">
        <ele>456.8</ele>
        <time>2024-06-24T14:33:54.993Z</time>
      </trkpt>
      <trkpt lat="43.01306" lon="1.07967">
        <ele>456.8</ele>
        <time>2024-06-24T14:33:55.993Z</time>
      </trkpt>
      <trkpt lat="43.01306" lon="1.07967">
        <ele>456.2</ele>
        <time>2024-06-24T14:33:56.993Z</time>
      </trkpt>
      <trkpt lat="43.01308" lon="1.07962">
        <ele>456.2</ele>
        <time>2024-06-24T14:33:57.993Z</time>
      </trkpt>
      <trkpt lat="43.0131" lon="1.07957">
        <ele>456.6</ele>
        <time>2024-06-24T14:33:58.993Z</time>
      </trkpt>
      <trkpt lat="43.01314" lon="1.0795">
        <ele>456.2</ele>
        <time>2024-06-24T14:33:59.993Z</time>
      </trkpt>
      <trkpt lat="43.01315" lon="1.07949">
        <ele>455.8</ele>
        <time>2024-06-24T14:34:00.993Z</time>
      </trkpt>
      <trkpt lat="43.01316" lon="1.07947">
        <ele>455.6</ele>
        <time>2024-06-24T14:34:01.993Z</time>
      </trkpt>
      <trkpt lat="43.01316" lon="1.07946">
        <ele>455.6</ele>
        <time>2024-06-24T14:34:02.993Z</time>
      </trkpt>
      <trkpt lat="43.01317" lon="1.07945">
        <ele>455.6</ele>
        <time>2024-06-24T14:34:03.993Z</time>
      </trkpt>
      <trkpt lat="43.01318" lon="1.07946">
        <ele>454.8</ele>
        <time>2024-06-24T14:34:34.993Z</time>
      </trkpt>
      <trkpt lat="43.0132" lon="1.07943">
        <ele>454.8</ele>
        <time>2024-06-24T14:34:35.993Z</time>
      </trkpt>
      <trkpt lat="43.01321" lon="1.07941">
        <ele>454.8</ele>
        <time>2024-06-24T14:34:36.993Z</time>
      </trkpt>
      <trkpt lat="43.01322" lon="1.07937">
        <ele>454.8</ele>
        <time>2024-06-24T14:34:37.993Z</time>
      </trkpt>
      <trkpt lat="43.01324" lon="1.07934">
        <ele>454.8</ele>
        <time>2024-06-24T14:34:38.993Z</time>
      </trkpt>
      <trkpt lat="43.01326" lon="1.0793">
        <ele>454.8</ele>
        <time>2024-06-24T14:34:39.993Z</time>
      </trkpt>
      <trkpt lat="43.01328" lon="1.07926">
        <ele>454.8</ele>
        <time>2024-06-24T14:34:40.993Z</time>
      </trkpt>
      <trkpt lat="43.0133" lon="1.07922">
        <ele>454</ele>
        <time>2024-06-24T14:34:41.993Z</time>
      </trkpt>
      <trkpt lat="43.01332" lon="1.07919">
        <ele>454</ele>
        <time>2024-06-24T14:34:42.993Z</time>
      </trkpt>
      <trkpt lat="43.01335" lon="1.07915">
        <ele>453.8</ele>
        <time>2024-06-24T14:34:43.993Z</time>
      </trkpt>
      <trkpt lat="43.01337" lon="1.07912">
        <ele>453.6</ele>
        <time>2024-06-24T14:34:44.993Z</time>
      </trkpt>
      <trkpt lat="43.01339" lon="1.07908">
        <ele>453.8</ele>
        <time>2024-06-24T14:34:45.993Z</time>
      </trkpt>
      <trkpt lat="43.01341" lon="1.07904">
        <ele>453.8</ele>
        <time>2024-06-24T14:34:46.993Z</time>
      </trkpt>
      <trkpt lat="43.01343" lon="1.07902">
        <ele>453.8</ele>
        <time>2024-06-24T14:34:47.993Z</time>
      </trkpt>
      <trkpt lat="43.01344" lon="1.07901">
        <ele>453.6</ele>
        <time>2024-06-24T14:34:48.993Z</time>
      </trkpt>
      <trkpt lat="43.01344" lon="1.079">
        <ele>453.6</ele>
        <time>2024-06-24T14:34:49.993Z</time>
      </trkpt>
      <trkpt lat="43.01344" lon="1.079">
        <ele>453.6</ele>
        <time>2024-06-24T14:34:50.993Z</time>
      </trkpt>
      <trkpt lat="43.01345" lon="1.07899">
        <ele>453.4</ele>
        <time>2024-06-24T14:34:54.993Z</time>
      </trkpt>
      <trkpt lat="43.01345" lon="1.07898">
        <ele>453.4</ele>
        <time>2024-06-24T14:34:55.993Z</time>
      </trkpt>
      <trkpt lat="43.01346" lon="1.07897">
        <ele>453.4</ele>
        <time>2024-06-24T14:34:56.993Z</time>
      </trkpt>
      <trkpt lat="43.01346" lon="1.07895">
        <ele>453.4</ele>
        <time>2024-06-24T14:34:57.993Z</time>
      </trkpt>
      <trkpt lat="43.01347" lon="1.07894">
        <ele>453.4</ele>
        <time>2024-06-24T14:34:58.993Z</time>
      </trkpt>
      <trkpt lat="43.01348" lon="1.07894">
        <ele>453.4</ele>
        <time>2024-06-24T14:34:59.993Z</time>
      </trkpt>
      <trkpt lat="43.01349" lon="1.07893">
        <ele>453.4</ele>
        <time>2024-06-24T14:35:00.993Z</time>
      </trkpt>
      <trkpt lat="43.0135" lon="1.07891">
        <ele>453.4</ele>
        <time>2024-06-24T14:35:01.993Z</time>
      </trkpt>
      <trkpt lat="43.01351" lon="1.0789">
        <ele>453.4</ele>
        <time>2024-06-24T14:35:02.993Z</time>
      </trkpt>
      <trkpt lat="43.01352" lon="1.07889">
        <ele>453.8</ele>
        <time>2024-06-24T14:35:03.993Z</time>
      </trkpt>
      <trkpt lat="43.01353" lon="1.07888">
        <ele>453.8</ele>
        <time>2024-06-24T14:35:04.993Z</time>
      </trkpt>
      <trkpt lat="43.01353" lon="1.07887">
        <ele>454</ele>
        <time>2024-06-24T14:35:05.993Z</time>
      </trkpt>
      <trkpt lat="43.01354" lon="1.07887">
        <ele>454</ele>
        <time>2024-06-24T14:35:06.993Z</time>
      </trkpt>
      <trkpt lat="43.01356" lon="1.07886">
        <ele>454</ele>
        <time>2024-06-24T14:35:07.993Z</time>
      </trkpt>
      <trkpt lat="43.01357" lon="1.07885">
        <ele>454</ele>
        <time>2024-06-24T14:35:08.993Z</time>
      </trkpt>
      <trkpt lat="43.01357" lon="1.07885">
        <ele>454</ele>
        <time>2024-06-24T14:35:09.993Z</time>
      </trkpt>
      <trkpt lat="43.01357" lon="1.07885">
        <ele>454</ele>
        <time>2024-06-24T14:35:10.993Z</time>
      </trkpt>
      <trkpt lat="43.01357" lon="1.07885">
        <ele>454</ele>
        <time>2024-06-24T14:35:11.993Z</time>
      </trkpt>
      <trkpt lat="43.01357" lon="1.07885">
        <ele>454</ele>
        <time>2024-06-24T14:35:12.993Z</time>
      </trkpt>
      <trkpt lat="43.01358" lon="1.07884">
        <ele>454</ele>
        <time>2024-06-24T14:35:13.993Z</time>
      </trkpt>
      <trkpt lat="43.0136" lon="1.07883">
        <ele>454</ele>
        <time>2024-06-24T14:35:14.993Z</time>
      </trkpt>
      <trkpt lat="43.01362" lon="1.07882">
        <ele>453.6</ele>
        <time>2024-06-24T14:35:15.993Z</time>
      </trkpt>
      <trkpt lat="43.01364" lon="1.07881">
        <ele>453.6</ele>
        <time>2024-06-24T14:35:16.993Z</time>
      </trkpt>
      <trkpt lat="43.01365" lon="1.07881">
        <ele>453.6</ele>
        <time>2024-06-24T14:35:17.993Z</time>
      </trkpt>
      <trkpt lat="43.01368" lon="1.0788">
        <ele>453.6</ele>
        <time>2024-06-24T14:35:18.993Z</time>
      </trkpt>
      <trkpt lat="43.01371" lon="1.0788">
        <ele>453.6</ele>
        <time>2024-06-24T14:35:19.993Z</time>
      </trkpt>
      <trkpt lat="43.01373" lon="1.0788">
        <ele>453.6</ele>
        <time>2024-06-24T14:35:20.993Z</time>
      </trkpt>
      <trkpt lat="43.01375" lon="1.07879">
        <ele>453.8</ele>
        <time>2024-06-24T14:35:21.993Z</time>
      </trkpt>
      <trkpt lat="43.01378" lon="1.07879">
        <ele>453.8</ele>
        <time>2024-06-24T14:35:22.993Z</time>
      </trkpt>
      <trkpt lat="43.01381" lon="1.07879">
        <ele>453.4</ele>
        <time>2024-06-24T14:35:23.993Z</time>
      </trkpt>
      <trkpt lat="43.01383" lon="1.07879">
        <ele>453</ele>
        <time>2024-06-24T14:35:24.993Z</time>
      </trkpt>
      <trkpt lat="43.01385" lon="1.07879">
        <ele>452.6</ele>
        <time>2024-06-24T14:35:25.993Z</time>
      </trkpt>
      <trkpt lat="43.01387" lon="1.07879">
        <ele>452.8</ele>
        <time>2024-06-24T14:35:26.993Z</time>
      </trkpt>
      <trkpt lat="43.01389" lon="1.0788">
        <ele>452.6</ele>
        <time>2024-06-24T14:35:27.993Z</time>
      </trkpt>
      <trkpt lat="43.01391" lon="1.0788">
        <ele>452</ele>
        <time>2024-06-24T14:35:28.993Z</time>
      </trkpt>
      <trkpt lat="43.01394" lon="1.07881">
        <ele>451.6</ele>
        <time>2024-06-24T14:35:29.993Z</time>
      </trkpt>
      <trkpt lat="43.01397" lon="1.0788">
        <ele>451.6</ele>
        <time>2024-06-24T14:35:30.993Z</time>
      </trkpt>
      <trkpt lat="43.01399" lon="1.0788">
        <ele>451.2</ele>
        <time>2024-06-24T14:35:31.993Z</time>
      </trkpt>
      <trkpt lat="43.01402" lon="1.0788">
        <ele>451.2</ele>
        <time>2024-06-24T14:35:32.993Z</time>
      </trkpt>
      <trkpt lat="43.01403" lon="1.0788">
        <ele>451.2</ele>
        <time>2024-06-24T14:35:33.993Z</time>
      </trkpt>
      <trkpt lat="43.01405" lon="1.0788">
        <ele>450.4</ele>
        <time>2024-06-24T14:35:34.993Z</time>
      </trkpt>
      <trkpt lat="43.01407" lon="1.0788">
        <ele>450.2</ele>
        <time>2024-06-24T14:35:35.993Z</time>
      </trkpt>
      <trkpt lat="43.01409" lon="1.0788">
        <ele>449.8</ele>
        <time>2024-06-24T14:35:36.993Z</time>
      </trkpt>
      <trkpt lat="43.0141" lon="1.0788">
        <ele>449.6</ele>
        <time>2024-06-24T14:35:37.993Z</time>
      </trkpt>
      <trkpt lat="43.01411" lon="1.0788">
        <ele>449.6</ele>
        <time>2024-06-24T14:35:38.993Z</time>
      </trkpt>
      <trkpt lat="43.01411" lon="1.0788">
        <ele>449.2</ele>
        <time>2024-06-24T14:35:39.993Z</time>
      </trkpt>
      <trkpt lat="43.01412" lon="1.0788">
        <ele>449</ele>
        <time>2024-06-24T14:35:40.993Z</time>
      </trkpt>
      <trkpt lat="43.01413" lon="1.07879">
        <ele>448.6</ele>
        <time>2024-06-24T14:35:44.993Z</time>
      </trkpt>
      <trkpt lat="43.01414" lon="1.07879">
        <ele>448.4</ele>
        <time>2024-06-24T14:35:45.993Z</time>
      </trkpt>
      <trkpt lat="43.01415" lon="1.07879">
        <ele>448.4</ele>
        <time>2024-06-24T14:35:46.993Z</time>
      </trkpt>
      <trkpt lat="43.01416" lon="1.07879">
        <ele>448.2</ele>
        <time>2024-06-24T14:35:47.993Z</time>
      </trkpt>
      <trkpt lat="43.01417" lon="1.07879">
        <ele>448.2</ele>
        <time>2024-06-24T14:35:48.993Z</time>
      </trkpt>
      <trkpt lat="43.01417" lon="1.07879">
        <ele>448.2</ele>
        <time>2024-06-24T14:35:49.993Z</time>
      </trkpt>
      <trkpt lat="43.01418" lon="1.0788">
        <ele>447.6</ele>
        <time>2024-06-24T14:35:50.993Z</time>
      </trkpt>
      <trkpt lat="43.01419" lon="1.0788">
        <ele>447.6</ele>
        <time>2024-06-24T14:35:51.993Z</time>
      </trkpt>
      <trkpt lat="43.0142" lon="1.07881">
        <ele>447.4</ele>
        <time>2024-06-24T14:35:52.993Z</time>
      </trkpt>
      <trkpt lat="43.01421" lon="1.07881">
        <ele>447.2</ele>
        <time>2024-06-24T14:35:53.993Z</time>
      </trkpt>
      <trkpt lat="43.01422" lon="1.07881">
        <ele>447</ele>
        <time>2024-06-24T14:35:54.993Z</time>
      </trkpt>
      <trkpt lat="43.01423" lon="1.07881">
        <ele>447</ele>
        <time>2024-06-24T14:35:55.993Z</time>
      </trkpt>
      <trkpt lat="43.01424" lon="1.07881">
        <ele>446.6</ele>
        <time>2024-06-24T14:35:56.993Z</time>
      </trkpt>
      <trkpt lat="43.01425" lon="1.07881">
        <ele>446.6</ele>
        <time>2024-06-24T14:35:57.993Z</time>
      </trkpt>
      <trkpt lat="43.01426" lon="1.07881">
        <ele>446.4</ele>
        <time>2024-06-24T14:35:58.993Z</time>
      </trkpt>
      <trkpt lat="43.01427" lon="1.07882">
        <ele>446.2</ele>
        <time>2024-06-24T14:35:59.993Z</time>
      </trkpt>
      <trkpt lat="43.01428" lon="1.07883">
        <ele>445.8</ele>
        <time>2024-06-24T14:36:00.993Z</time>
      </trkpt>
      <trkpt lat="43.01429" lon="1.07883">
        <ele>445.8</ele>
        <time>2024-06-24T14:36:01.993Z</time>
      </trkpt>
      <trkpt lat="43.01429" lon="1.07884">
        <ele>445.8</ele>
        <time>2024-06-24T14:36:02.993Z</time>
      </trkpt>
      <trkpt lat="43.01429" lon="1.07884">
        <ele>445.6</ele>
        <time>2024-06-24T14:36:03.993Z</time>
      </trkpt>
      <trkpt lat="43.0143" lon="1.07885">
        <ele>445.4</ele>
        <time>2024-06-24T14:36:06.993Z</time>
      </trkpt>
      <trkpt lat="43.01433" lon="1.07886">
        <ele>445</ele>
        <time>2024-06-24T14:36:07.993Z</time>
      </trkpt>
      <trkpt lat="43.01436" lon="1.07886">
        <ele>445</ele>
        <time>2024-06-24T14:36:08.993Z</time>
      </trkpt>
      <trkpt lat="43.01439" lon="1.07887">
        <ele>444.2</ele>
        <time>2024-06-24T14:36:09.993Z</time>
      </trkpt>
      <trkpt lat="43.01442" lon="1.07887">
        <ele>443.2</ele>
        <time>2024-06-24T14:36:10.993Z</time>
      </trkpt>
      <trkpt lat="43.01445" lon="1.07888">
        <ele>442.6</ele>
        <time>2024-06-24T14:36:11.993Z</time>
      </trkpt>
      <trkpt lat="43.01449" lon="1.07888">
        <ele>442</ele>
        <time>2024-06-24T14:36:12.993Z</time>
      </trkpt>
      <trkpt lat="43.01453" lon="1.07888">
        <ele>440.6</ele>
        <time>2024-06-24T14:36:13.993Z</time>
      </trkpt>
      <trkpt lat="43.01457" lon="1.07888">
        <ele>440.2</ele>
        <time>2024-06-24T14:36:14.993Z</time>
      </trkpt>
      <trkpt lat="43.0146" lon="1.07888">
        <ele>440.2</ele>
        <time>2024-06-24T14:36:15.993Z</time>
      </trkpt>
      <trkpt lat="43.01464" lon="1.07887">
        <ele>440.2</ele>
        <time>2024-06-24T14:36:16.993Z</time>
      </trkpt>
      <trkpt lat="43.01467" lon="1.07885">
        <ele>439.8</ele>
        <time>2024-06-24T14:36:17.993Z</time>
      </trkpt>
      <trkpt lat="43.01469" lon="1.07884">
        <ele>439.8</ele>
        <time>2024-06-24T14:36:18.993Z</time>
      </trkpt>
      <trkpt lat="43.01471" lon="1.07883">
        <ele>439.8</ele>
        <time>2024-06-24T14:36:19.993Z</time>
      </trkpt>
      <trkpt lat="43.01473" lon="1.07881">
        <ele>439.8</ele>
        <time>2024-06-24T14:36:20.993Z</time>
      </trkpt>
      <trkpt lat="43.01476" lon="1.0788">
        <ele>439.8</ele>
        <time>2024-06-24T14:36:21.993Z</time>
      </trkpt>
      <trkpt lat="43.01478" lon="1.0788">
        <ele>439.8</ele>
        <time>2024-06-24T14:36:22.993Z</time>
      </trkpt>
      <trkpt lat="43.0148" lon="1.0788">
        <ele>439.8</ele>
        <time>2024-06-24T14:36:23.993Z</time>
      </trkpt>
      <trkpt lat="43.01483" lon="1.0788">
        <ele>439.8</ele>
        <time>2024-06-24T14:36:24.993Z</time>
      </trkpt>
      <trkpt lat="43.01485" lon="1.07881">
        <ele>439.8</ele>
        <time>2024-06-24T14:36:25.993Z</time>
      </trkpt>
      <trkpt lat="43.01488" lon="1.07881">
        <ele>440.4</ele>
        <time>2024-06-24T14:36:26.993Z</time>
      </trkpt>
      <trkpt lat="43.0149" lon="1.07881">
        <ele>440.4</ele>
        <time>2024-06-24T14:36:27.993Z</time>
      </trkpt>
      <trkpt lat="43.01492" lon="1.07882">
        <ele>440.4</ele>
        <time>2024-06-24T14:36:28.993Z</time>
      </trkpt>
      <trkpt lat="43.01493" lon="1.07883">
        <ele>440.4</ele>
        <time>2024-06-24T14:36:29.993Z</time>
      </trkpt>
      <trkpt lat="43.01495" lon="1.07883">
        <ele>440.6</ele>
        <time>2024-06-24T14:36:30.993Z</time>
      </trkpt>
      <trkpt lat="43.01496" lon="1.07883">
        <ele>440.6</ele>
        <time>2024-06-24T14:36:31.993Z</time>
      </trkpt>
      <trkpt lat="43.01499" lon="1.07883">
        <ele>440.6</ele>
        <time>2024-06-24T14:36:32.993Z</time>
      </trkpt>
      <trkpt lat="43.01501" lon="1.07882">
        <ele>440.8</ele>
        <time>2024-06-24T14:36:33.993Z</time>
      </trkpt>
      <trkpt lat="43.01503" lon="1.07881">
        <ele>440.8</ele>
        <time>2024-06-24T14:36:34.993Z</time>
      </trkpt>
      <trkpt lat="43.01506" lon="1.0788">
        <ele>441.2</ele>
        <time>2024-06-24T14:36:35.993Z</time>
      </trkpt>
      <trkpt lat="43.01509" lon="1.07879">
        <ele>441.2</ele>
        <time>2024-06-24T14:36:36.993Z</time>
      </trkpt>
      <trkpt lat="43.01511" lon="1.07878">
        <ele>441.6</ele>
        <time>2024-06-24T14:36:37.993Z</time>
      </trkpt>
      <trkpt lat="43.01514" lon="1.07876">
        <ele>441.8</ele>
        <time>2024-06-24T14:36:38.993Z</time>
      </trkpt>
      <trkpt lat="43.01515" lon="1.07874">
        <ele>441.8</ele>
        <time>2024-06-24T14:36:39.993Z</time>
      </trkpt>
      <trkpt lat="43.01517" lon="1.07872">
        <ele>441.8</ele>
        <time>2024-06-24T14:36:40.993Z</time>
      </trkpt>
      <trkpt lat="43.01519" lon="1.07871">
        <ele>441.8</ele>
        <time>2024-06-24T14:36:41.993Z</time>
      </trkpt>
      <trkpt lat="43.0152" lon="1.0787">
        <ele>442</ele>
        <time>2024-06-24T14:36:42.993Z</time>
      </trkpt>
      <trkpt lat="43.01522" lon="1.07868">
        <ele>442.8</ele>
        <time>2024-06-24T14:36:43.993Z</time>
      </trkpt>
      <trkpt lat="43.01524" lon="1.07867">
        <ele>443.2</ele>
        <time>2024-06-24T14:36:44.993Z</time>
      </trkpt>
      <trkpt lat="43.01526" lon="1.07866">
        <ele>443.2</ele>
        <time>2024-06-24T14:36:45.993Z</time>
      </trkpt>
      <trkpt lat="43.01527" lon="1.07865">
        <ele>443.6</ele>
        <time>2024-06-24T14:36:46.993Z</time>
      </trkpt>
      <trkpt lat="43.01529" lon="1.07863">
        <ele>443.8</ele>
        <time>2024-06-24T14:36:47.993Z</time>
      </trkpt>
      <trkpt lat="43.0153" lon="1.07861">
        <ele>444</ele>
        <time>2024-06-24T14:36:48.993Z</time>
      </trkpt>
      <trkpt lat="43.01531" lon="1.07859">
        <ele>444.4</ele>
        <time>2024-06-24T14:36:49.993Z</time>
      </trkpt>
      <trkpt lat="43.01532" lon="1.07857">
        <ele>444.6</ele>
        <time>2024-06-24T14:36:50.993Z</time>
      </trkpt>
      <trkpt lat="43.01535" lon="1.07854">
        <ele>444.6</ele>
        <time>2024-06-24T14:36:51.993Z</time>
      </trkpt>
      <trkpt lat="43.01537" lon="1.07852">
        <ele>445</ele>
        <time>2024-06-24T14:36:52.993Z</time>
      </trkpt>
      <trkpt lat="43.01538" lon="1.0785">
        <ele>445.4</ele>
        <time>2024-06-24T14:36:53.993Z</time>
      </trkpt>
      <trkpt lat="43.0154" lon="1.07848">
        <ele>445.4</ele>
        <time>2024-06-24T14:36:54.993Z</time>
      </trkpt>
      <trkpt lat="43.01541" lon="1.07846">
        <ele>445.8</ele>
        <time>2024-06-24T14:36:55.993Z</time>
      </trkpt>
      <trkpt lat="43.01543" lon="1.07843">
        <ele>446.2</ele>
        <time>2024-06-24T14:36:56.993Z</time>
      </trkpt>
      <trkpt lat="43.01546" lon="1.07841">
        <ele>446.6</ele>
        <time>2024-06-24T14:36:57.993Z</time>
      </trkpt>
      <trkpt lat="43.01548" lon="1.0784">
        <ele>447</ele>
        <time>2024-06-24T14:36:58.993Z</time>
      </trkpt>
      <trkpt lat="43.0155" lon="1.07839">
        <ele>447.4</ele>
        <time>2024-06-24T14:36:59.993Z</time>
      </trkpt>
      <trkpt lat="43.01552" lon="1.07837">
        <ele>448</ele>
        <time>2024-06-24T14:37:00.993Z</time>
      </trkpt>
      <trkpt lat="43.01555" lon="1.07836">
        <ele>448.2</ele>
        <time>2024-06-24T14:37:01.993Z</time>
      </trkpt>
      <trkpt lat="43.01557" lon="1.07834">
        <ele>448.6</ele>
        <time>2024-06-24T14:37:02.993Z</time>
      </trkpt>
      <trkpt lat="43.01559" lon="1.07831">
        <ele>449</ele>
        <time>2024-06-24T14:37:03.993Z</time>
      </trkpt>
      <trkpt lat="43.01561" lon="1.0783">
        <ele>449.2</ele>
        <time>2024-06-24T14:37:04.993Z</time>
      </trkpt>
      <trkpt lat="43.01563" lon="1.07828">
        <ele>449.6</ele>
        <time>2024-06-24T14:37:05.993Z</time>
      </trkpt>
      <trkpt lat="43.01565" lon="1.07825">
        <ele>449.6</ele>
        <time>2024-06-24T14:37:06.993Z</time>
      </trkpt>
      <trkpt lat="43.01567" lon="1.07822">
        <ele>450</ele>
        <time>2024-06-24T14:37:07.993Z</time>
      </trkpt>
      <trkpt lat="43.01569" lon="1.07819">
        <ele>450</ele>
        <time>2024-06-24T14:37:08.993Z</time>
      </trkpt>
      <trkpt lat="43.0157" lon="1.07817">
        <ele>450.4</ele>
        <time>2024-06-24T14:37:09.993Z</time>
      </trkpt>
      <trkpt lat="43.01572" lon="1.07815">
        <ele>450.8</ele>
        <time>2024-06-24T14:37:10.993Z</time>
      </trkpt>
      <trkpt lat="43.01574" lon="1.07813">
        <ele>451.2</ele>
        <time>2024-06-24T14:37:11.993Z</time>
      </trkpt>
      <trkpt lat="43.01576" lon="1.07811">
        <ele>451.2</ele>
        <time>2024-06-24T14:37:12.993Z</time>
      </trkpt>
      <trkpt lat="43.01578" lon="1.0781">
        <ele>451.6</ele>
        <time>2024-06-24T14:37:13.993Z</time>
      </trkpt>
      <trkpt lat="43.0158" lon="1.07808">
        <ele>451.8</ele>
        <time>2024-06-24T14:37:14.993Z</time>
      </trkpt>
      <trkpt lat="43.01582" lon="1.07806">
        <ele>452.4</ele>
        <time>2024-06-24T14:37:15.993Z</time>
      </trkpt>
      <trkpt lat="43.01584" lon="1.07804">
        <ele>452.8</ele>
        <time>2024-06-24T14:37:16.993Z</time>
      </trkpt>
      <trkpt lat="43.01585" lon="1.07802">
        <ele>453.2</ele>
        <time>2024-06-24T14:37:17.993Z</time>
      </trkpt>
      <trkpt lat="43.01587" lon="1.07801">
        <ele>453.4</ele>
        <time>2024-06-24T14:37:18.993Z</time>
      </trkpt>
      <trkpt lat="43.01589" lon="1.07801">
        <ele>453.8</ele>
        <time>2024-06-24T14:37:19.993Z</time>
      </trkpt>
      <trkpt lat="43.0159" lon="1.078">
        <ele>454</ele>
        <time>2024-06-24T14:37:20.993Z</time>
      </trkpt>
      <trkpt lat="43.01591" lon="1.07798">
        <ele>454.6</ele>
        <time>2024-06-24T14:37:21.993Z</time>
      </trkpt>
      <trkpt lat="43.01593" lon="1.07796">
        <ele>454.8</ele>
        <time>2024-06-24T14:37:22.993Z</time>
      </trkpt>
      <trkpt lat="43.01595" lon="1.07794">
        <ele>454.8</ele>
        <time>2024-06-24T14:37:23.993Z</time>
      </trkpt>
      <trkpt lat="43.01596" lon="1.07792">
        <ele>455.4</ele>
        <time>2024-06-24T14:37:24.993Z</time>
      </trkpt>
      <trkpt lat="43.01598" lon="1.07791">
        <ele>455.6</ele>
        <time>2024-06-24T14:37:25.993Z</time>
      </trkpt>
      <trkpt lat="43.016" lon="1.07789">
        <ele>455.6</ele>
        <time>2024-06-24T14:37:26.993Z</time>
      </trkpt>
      <trkpt lat="43.01601" lon="1.07788">
        <ele>456.2</ele>
        <time>2024-06-24T14:37:27.993Z</time>
      </trkpt>
      <trkpt lat="43.01603" lon="1.07786">
        <ele>456.4</ele>
        <time>2024-06-24T14:37:28.993Z</time>
      </trkpt>
      <trkpt lat="43.01603" lon="1.07785">
        <ele>456.4</ele>
        <time>2024-06-24T14:37:29.993Z</time>
      </trkpt>
      <trkpt lat="43.01603" lon="1.07785">
        <ele>456.8</ele>
        <time>2024-06-24T14:37:30.993Z</time>
      </trkpt>
      <trkpt lat="43.01604" lon="1.07783">
        <ele>457</ele>
        <time>2024-06-24T14:37:35.993Z</time>
      </trkpt>
      <trkpt lat="43.01605" lon="1.07782">
        <ele>457</ele>
        <time>2024-06-24T14:37:36.993Z</time>
      </trkpt>
      <trkpt lat="43.01607" lon="1.07781">
        <ele>457.4</ele>
        <time>2024-06-24T14:37:37.993Z</time>
      </trkpt>
      <trkpt lat="43.01607" lon="1.07779">
        <ele>457.6</ele>
        <time>2024-06-24T14:37:38.993Z</time>
      </trkpt>
      <trkpt lat="43.01608" lon="1.07778">
        <ele>457.6</ele>
        <time>2024-06-24T14:37:39.993Z</time>
      </trkpt>
      <trkpt lat="43.01608" lon="1.07776">
        <ele>457.8</ele>
        <time>2024-06-24T14:37:40.993Z</time>
      </trkpt>
      <trkpt lat="43.01609" lon="1.07775">
        <ele>458</ele>
        <time>2024-06-24T14:37:41.993Z</time>
      </trkpt>
      <trkpt lat="43.0161" lon="1.07774">
        <ele>458.2</ele>
        <time>2024-06-24T14:37:42.993Z</time>
      </trkpt>
      <trkpt lat="43.01611" lon="1.07772">
        <ele>458.2</ele>
        <time>2024-06-24T14:37:43.993Z</time>
      </trkpt>
      <trkpt lat="43.01612" lon="1.07771">
        <ele>458.6</ele>
        <time>2024-06-24T14:37:44.993Z</time>
      </trkpt>
      <trkpt lat="43.01613" lon="1.07771">
        <ele>458.6</ele>
        <time>2024-06-24T14:37:45.993Z</time>
      </trkpt>
      <trkpt lat="43.01614" lon="1.0777">
        <ele>458.8</ele>
        <time>2024-06-24T14:37:46.993Z</time>
      </trkpt>
      <trkpt lat="43.01615" lon="1.07769">
        <ele>459.2</ele>
        <time>2024-06-24T14:37:47.993Z</time>
      </trkpt>
      <trkpt lat="43.01616" lon="1.07768">
        <ele>459.2</ele>
        <time>2024-06-24T14:37:48.993Z</time>
      </trkpt>
      <trkpt lat="43.01616" lon="1.07767">
        <ele>459.4</ele>
        <time>2024-06-24T14:37:49.993Z</time>
      </trkpt>
      <trkpt lat="43.01616" lon="1.07767">
        <ele>459.4</ele>
        <time>2024-06-24T14:37:50.993Z</time>
      </trkpt>
      <trkpt lat="43.01616" lon="1.07766">
        <ele>459.8</ele>
        <time>2024-06-24T14:37:51.993Z</time>
      </trkpt>
      <trkpt lat="43.01617" lon="1.07766">
        <ele>459.8</ele>
        <time>2024-06-24T14:37:52.993Z</time>
      </trkpt>
      <trkpt lat="43.01617" lon="1.07766">
        <ele>460</ele>
        <time>2024-06-24T14:37:53.993Z</time>
      </trkpt>
      <trkpt lat="43.01617" lon="1.07765">
        <ele>460.4</ele>
        <time>2024-06-24T14:37:54.993Z</time>
      </trkpt>
      <trkpt lat="43.01618" lon="1.07765">
        <ele>460.6</ele>
        <time>2024-06-24T14:37:55.993Z</time>
      </trkpt>
      <trkpt lat="43.01619" lon="1.07764">
        <ele>460.8</ele>
        <time>2024-06-24T14:37:56.993Z</time>
      </trkpt>
      <trkpt lat="43.01619" lon="1.07762">
        <ele>460.8</ele>
        <time>2024-06-24T14:37:57.993Z</time>
      </trkpt>
      <trkpt lat="43.0162" lon="1.07762">
        <ele>461.2</ele>
        <time>2024-06-24T14:37:58.993Z</time>
      </trkpt>
      <trkpt lat="43.0162" lon="1.07761">
        <ele>461.2</ele>
        <time>2024-06-24T14:37:59.993Z</time>
      </trkpt>
      <trkpt lat="43.01621" lon="1.0776">
        <ele>461.4</ele>
        <time>2024-06-24T14:38:00.993Z</time>
      </trkpt>
      <trkpt lat="43.01622" lon="1.07759">
        <ele>461.4</ele>
        <time>2024-06-24T14:38:01.993Z</time>
      </trkpt>
      <trkpt lat="43.01623" lon="1.07759">
        <ele>461.8</ele>
        <time>2024-06-24T14:38:02.993Z</time>
      </trkpt>
      <trkpt lat="43.01624" lon="1.07758">
        <ele>461.8</ele>
        <time>2024-06-24T14:38:03.993Z</time>
      </trkpt>
      <trkpt lat="43.01625" lon="1.07757">
        <ele>462</ele>
        <time>2024-06-24T14:38:04.993Z</time>
      </trkpt>
      <trkpt lat="43.01626" lon="1.07757">
        <ele>462</ele>
        <time>2024-06-24T14:38:05.993Z</time>
      </trkpt>
      <trkpt lat="43.01627" lon="1.07756">
        <ele>462.2</ele>
        <time>2024-06-24T14:38:06.993Z</time>
      </trkpt>
      <trkpt lat="43.01627" lon="1.07756">
        <ele>462.2</ele>
        <time>2024-06-24T14:38:07.993Z</time>
      </trkpt>
      <trkpt lat="43.01628" lon="1.07756">
        <ele>462.2</ele>
        <time>2024-06-24T14:38:08.993Z</time>
      </trkpt>
      <trkpt lat="43.01628" lon="1.07754">
        <ele>462.6</ele>
        <time>2024-06-24T14:38:17.993Z</time>
      </trkpt>
      <trkpt lat="43.01629" lon="1.07754">
        <ele>462.6</ele>
        <time>2024-06-24T14:38:18.993Z</time>
      </trkpt>
      <trkpt lat="43.01631" lon="1.07756">
        <ele>462.6</ele>
        <time>2024-06-24T14:38:19.993Z</time>
      </trkpt>
      <trkpt lat="43.01633" lon="1.07758">
        <ele>462.8</ele>
        <time>2024-06-24T14:38:20.993Z</time>
      </trkpt>
      <trkpt lat="43.01634" lon="1.07759">
        <ele>462.8</ele>
        <time>2024-06-24T14:38:21.993Z</time>
      </trkpt>
      <trkpt lat="43.01635" lon="1.0776">
        <ele>463</ele>
        <time>2024-06-24T14:38:22.993Z</time>
      </trkpt>
      <trkpt lat="43.01636" lon="1.07761">
        <ele>463</ele>
        <time>2024-06-24T14:38:23.993Z</time>
      </trkpt>
      <trkpt lat="43.01638" lon="1.07762">
        <ele>463.4</ele>
        <time>2024-06-24T14:38:24.993Z</time>
      </trkpt>
      <trkpt lat="43.01639" lon="1.07762">
        <ele>463.4</ele>
        <time>2024-06-24T14:38:25.993Z</time>
      </trkpt>
      <trkpt lat="43.01642" lon="1.07763">
        <ele>463.4</ele>
        <time>2024-06-24T14:38:26.993Z</time>
      </trkpt>
      <trkpt lat="43.01644" lon="1.07763">
        <ele>463.8</ele>
        <time>2024-06-24T14:38:27.993Z</time>
      </trkpt>
      <trkpt lat="43.01645" lon="1.07763">
        <ele>463.8</ele>
        <time>2024-06-24T14:38:28.993Z</time>
      </trkpt>
      <trkpt lat="43.01648" lon="1.07763">
        <ele>463.8</ele>
        <time>2024-06-24T14:38:29.993Z</time>
      </trkpt>
      <trkpt lat="43.01651" lon="1.07763">
        <ele>464.4</ele>
        <time>2024-06-24T14:38:30.993Z</time>
      </trkpt>
      <trkpt lat="43.01652" lon="1.07762">
        <ele>464.4</ele>
        <time>2024-06-24T14:38:31.993Z</time>
      </trkpt>
      <trkpt lat="43.01654" lon="1.07762">
        <ele>464.6</ele>
        <time>2024-06-24T14:38:32.993Z</time>
      </trkpt>
      <trkpt lat="43.01657" lon="1.07762">
        <ele>464.8</ele>
        <time>2024-06-24T14:38:33.993Z</time>
      </trkpt>
      <trkpt lat="43.01659" lon="1.07763">
        <ele>465.2</ele>
        <time>2024-06-24T14:38:34.993Z</time>
      </trkpt>
      <trkpt lat="43.01661" lon="1.07763">
        <ele>465.2</ele>
        <time>2024-06-24T14:38:35.993Z</time>
      </trkpt>
      <trkpt lat="43.01663" lon="1.07765">
        <ele>465.6</ele>
        <time>2024-06-24T14:38:36.993Z</time>
      </trkpt>
      <trkpt lat="43.01665" lon="1.07766">
        <ele>466</ele>
        <time>2024-06-24T14:38:37.993Z</time>
      </trkpt>
      <trkpt lat="43.01666" lon="1.07767">
        <ele>466</ele>
        <time>2024-06-24T14:38:38.993Z</time>
      </trkpt>
      <trkpt lat="43.01668" lon="1.07769">
        <ele>466</ele>
        <time>2024-06-24T14:38:39.993Z</time>
      </trkpt>
      <trkpt lat="43.01671" lon="1.07771">
        <ele>466</ele>
        <time>2024-06-24T14:38:40.993Z</time>
      </trkpt>
      <trkpt lat="43.01672" lon="1.07771">
        <ele>466.4</ele>
        <time>2024-06-24T14:38:41.993Z</time>
      </trkpt>
      <trkpt lat="43.01673" lon="1.07772">
        <ele>466.6</ele>
        <time>2024-06-24T14:38:42.993Z</time>
      </trkpt>
      <trkpt lat="43.01675" lon="1.07773">
        <ele>466.8</ele>
        <time>2024-06-24T14:38:43.993Z</time>
      </trkpt>
      <trkpt lat="43.01676" lon="1.07774">
        <ele>466.8</ele>
        <time>2024-06-24T14:38:44.993Z</time>
      </trkpt>
      <trkpt lat="43.01677" lon="1.07776">
        <ele>467</ele>
        <time>2024-06-24T14:38:45.993Z</time>
      </trkpt>
      <trkpt lat="43.01679" lon="1.07777">
        <ele>467.4</ele>
        <time>2024-06-24T14:38:46.993Z</time>
      </trkpt>
      <trkpt lat="43.01681" lon="1.07778">
        <ele>467.6</ele>
        <time>2024-06-24T14:38:47.993Z</time>
      </trkpt>
      <trkpt lat="43.01682" lon="1.0778">
        <ele>467.6</ele>
        <time>2024-06-24T14:38:48.993Z</time>
      </trkpt>
      <trkpt lat="43.01683" lon="1.07781">
        <ele>468</ele>
        <time>2024-06-24T14:38:49.993Z</time>
      </trkpt>
      <trkpt lat="43.01684" lon="1.07783">
        <ele>468</ele>
        <time>2024-06-24T14:38:50.993Z</time>
      </trkpt>
      <trkpt lat="43.01685" lon="1.07784">
        <ele>468.2</ele>
        <time>2024-06-24T14:38:51.993Z</time>
      </trkpt>
      <trkpt lat="43.01686" lon="1.07786">
        <ele>468.2</ele>
        <time>2024-06-24T14:38:52.993Z</time>
      </trkpt>
      <trkpt lat="43.01686" lon="1.07787">
        <ele>469</ele>
        <time>2024-06-24T14:38:53.993Z</time>
      </trkpt>
      <trkpt lat="43.01687" lon="1.07789">
        <ele>469</ele>
        <time>2024-06-24T14:38:54.993Z</time>
      </trkpt>
      <trkpt lat="43.01687" lon="1.07792">
        <ele>469.6</ele>
        <time>2024-06-24T14:38:55.993Z</time>
      </trkpt>
      <trkpt lat="43.01688" lon="1.07793">
        <ele>469.6</ele>
        <time>2024-06-24T14:38:56.993Z</time>
      </trkpt>
      <trkpt lat="43.01689" lon="1.07795">
        <ele>469.6</ele>
        <time>2024-06-24T14:38:57.993Z</time>
      </trkpt>
      <trkpt lat="43.0169" lon="1.07798">
        <ele>470</ele>
        <time>2024-06-24T14:38:58.993Z</time>
      </trkpt>
      <trkpt lat="43.0169" lon="1.078">
        <ele>470</ele>
        <time>2024-06-24T14:38:59.993Z</time>
      </trkpt>
      <trkpt lat="43.01691" lon="1.078">
        <ele>470.4</ele>
        <time>2024-06-24T14:39:00.993Z</time>
      </trkpt>
      <trkpt lat="43.01691" lon="1.07803">
        <ele>470.4</ele>
        <time>2024-06-24T14:39:01.993Z</time>
      </trkpt>
      <trkpt lat="43.01692" lon="1.07805">
        <ele>470.8</ele>
        <time>2024-06-24T14:39:02.993Z</time>
      </trkpt>
      <trkpt lat="43.01693" lon="1.07808">
        <ele>471</ele>
        <time>2024-06-24T14:39:03.993Z</time>
      </trkpt>
      <trkpt lat="43.01694" lon="1.0781">
        <ele>471.2</ele>
        <time>2024-06-24T14:39:04.993Z</time>
      </trkpt>
      <trkpt lat="43.01694" lon="1.07813">
        <ele>471.2</ele>
        <time>2024-06-24T14:39:05.993Z</time>
      </trkpt>
      <trkpt lat="43.01695" lon="1.07815">
        <ele>471.2</ele>
        <time>2024-06-24T14:39:06.993Z</time>
      </trkpt>
      <trkpt lat="43.01697" lon="1.07818">
        <ele>471.4</ele>
        <time>2024-06-24T14:39:07.993Z</time>
      </trkpt>
      <trkpt lat="43.01698" lon="1.07819">
        <ele>471.8</ele>
        <time>2024-06-24T14:39:08.993Z</time>
      </trkpt>
      <trkpt lat="43.01699" lon="1.07821">
        <ele>471.8</ele>
        <time>2024-06-24T14:39:09.993Z</time>
      </trkpt>
      <trkpt lat="43.01701" lon="1.07823">
        <ele>472.2</ele>
        <time>2024-06-24T14:39:10.993Z</time>
      </trkpt>
      <trkpt lat="43.01703" lon="1.07825">
        <ele>472.2</ele>
        <time>2024-06-24T14:39:11.993Z</time>
      </trkpt>
      <trkpt lat="43.01705" lon="1.07827">
        <ele>472.4</ele>
        <time>2024-06-24T14:39:12.993Z</time>
      </trkpt>
      <trkpt lat="43.01707" lon="1.07829">
        <ele>472.4</ele>
        <time>2024-06-24T14:39:13.993Z</time>
      </trkpt>
      <trkpt lat="43.01709" lon="1.07831">
        <ele>472.8</ele>
        <time>2024-06-24T14:39:14.993Z</time>
      </trkpt>
      <trkpt lat="43.01711" lon="1.07832">
        <ele>473</ele>
        <time>2024-06-24T14:39:15.993Z</time>
      </trkpt>
      <trkpt lat="43.01714" lon="1.07832">
        <ele>473</ele>
        <time>2024-06-24T14:39:16.993Z</time>
      </trkpt>
      <trkpt lat="43.01716" lon="1.07833">
        <ele>473</ele>
        <time>2024-06-24T14:39:17.993Z</time>
      </trkpt>
      <trkpt lat="43.01719" lon="1.07835">
        <ele>473.4</ele>
        <time>2024-06-24T14:39:18.993Z</time>
      </trkpt>
      <trkpt lat="43.01721" lon="1.07836">
        <ele>473.6</ele>
        <time>2024-06-24T14:39:19.993Z</time>
      </trkpt>
      <trkpt lat="43.01723" lon="1.07837">
        <ele>473.6</ele>
        <time>2024-06-24T14:39:20.993Z</time>
      </trkpt>
      <trkpt lat="43.01725" lon="1.07838">
        <ele>473.6</ele>
        <time>2024-06-24T14:39:21.993Z</time>
      </trkpt>
      <trkpt lat="43.01727" lon="1.0784">
        <ele>473.6</ele>
        <time>2024-06-24T14:39:22.993Z</time>
      </trkpt>
      <trkpt lat="43.01729" lon="1.07842">
        <ele>473.8</ele>
        <time>2024-06-24T14:39:23.993Z</time>
      </trkpt>
      <trkpt lat="43.01731" lon="1.07843">
        <ele>473.8</ele>
        <time>2024-06-24T14:39:24.993Z</time>
      </trkpt>
      <trkpt lat="43.01733" lon="1.07845">
        <ele>474.2</ele>
        <time>2024-06-24T14:39:25.993Z</time>
      </trkpt>
      <trkpt lat="43.01736" lon="1.07846">
        <ele>474.4</ele>
        <time>2024-06-24T14:39:26.993Z</time>
      </trkpt>
      <trkpt lat="43.01738" lon="1.07848">
        <ele>474.2</ele>
        <time>2024-06-24T14:39:27.993Z</time>
      </trkpt>
      <trkpt lat="43.01741" lon="1.07849">
        <ele>474.2</ele>
        <time>2024-06-24T14:39:28.993Z</time>
      </trkpt>
      <trkpt lat="43.01743" lon="1.0785">
        <ele>474.2</ele>
        <time>2024-06-24T14:39:29.993Z</time>
      </trkpt>
      <trkpt lat="43.01746" lon="1.07851">
        <ele>474.4</ele>
        <time>2024-06-24T14:39:30.993Z</time>
      </trkpt>
      <trkpt lat="43.01748" lon="1.07851">
        <ele>474.4</ele>
        <time>2024-06-24T14:39:31.993Z</time>
      </trkpt>
      <trkpt lat="43.0175" lon="1.07852">
        <ele>474.6</ele>
        <time>2024-06-24T14:39:32.993Z</time>
      </trkpt>
      <trkpt lat="43.01752" lon="1.07854">
        <ele>474.6</ele>
        <time>2024-06-24T14:39:33.993Z</time>
      </trkpt>
      <trkpt lat="43.01754" lon="1.07855">
        <ele>474.6</ele>
        <time>2024-06-24T14:39:34.993Z</time>
      </trkpt>
      <trkpt lat="43.01756" lon="1.07855">
        <ele>474.6</ele>
        <time>2024-06-24T14:39:35.993Z</time>
      </trkpt>
      <trkpt lat="43.01757" lon="1.07856">
        <ele>474.6</ele>
        <time>2024-06-24T14:39:36.993Z</time>
      </trkpt>
      <trkpt lat="43.01759" lon="1.07856">
        <ele>474.6</ele>
        <time>2024-06-24T14:39:37.993Z</time>
      </trkpt>
      <trkpt lat="43.0176" lon="1.07857">
        <ele>474.4</ele>
        <time>2024-06-24T14:39:38.993Z</time>
      </trkpt>
      <trkpt lat="43.01762" lon="1.07859">
        <ele>474.4</ele>
        <time>2024-06-24T14:39:39.993Z</time>
      </trkpt>
      <trkpt lat="43.01764" lon="1.0786">
        <ele>474.4</ele>
        <time>2024-06-24T14:39:40.993Z</time>
      </trkpt>
      <trkpt lat="43.01766" lon="1.07861">
        <ele>474.4</ele>
        <time>2024-06-24T14:39:41.993Z</time>
      </trkpt>
      <trkpt lat="43.01769" lon="1.07863">
        <ele>474.6</ele>
        <time>2024-06-24T14:39:42.993Z</time>
      </trkpt>
      <trkpt lat="43.01771" lon="1.07864">
        <ele>475</ele>
        <time>2024-06-24T14:39:43.993Z</time>
      </trkpt>
      <trkpt lat="43.01772" lon="1.07865">
        <ele>475</ele>
        <time>2024-06-24T14:39:44.993Z</time>
      </trkpt>
      <trkpt lat="43.01774" lon="1.07866">
        <ele>475</ele>
        <time>2024-06-24T14:39:45.993Z</time>
      </trkpt>
      <trkpt lat="43.01775" lon="1.07868">
        <ele>475.4</ele>
        <time>2024-06-24T14:39:46.993Z</time>
      </trkpt>
      <trkpt lat="43.01777" lon="1.07871">
        <ele>475.4</ele>
        <time>2024-06-24T14:39:47.993Z</time>
      </trkpt>
      <trkpt lat="43.01778" lon="1.07873">
        <ele>475.4</ele>
        <time>2024-06-24T14:39:48.993Z</time>
      </trkpt>
      <trkpt lat="43.01779" lon="1.07875">
        <ele>475.4</ele>
        <time>2024-06-24T14:39:49.993Z</time>
      </trkpt>
      <trkpt lat="43.0178" lon="1.07877">
        <ele>475.8</ele>
        <time>2024-06-24T14:39:50.993Z</time>
      </trkpt>
      <trkpt lat="43.01781" lon="1.07879">
        <ele>475.8</ele>
        <time>2024-06-24T14:39:51.993Z</time>
      </trkpt>
      <trkpt lat="43.01782" lon="1.07881">
        <ele>476</ele>
        <time>2024-06-24T14:39:52.993Z</time>
      </trkpt>
      <trkpt lat="43.01783" lon="1.07882">
        <ele>476.2</ele>
        <time>2024-06-24T14:39:53.993Z</time>
      </trkpt>
      <trkpt lat="43.01784" lon="1.07884">
        <ele>476.2</ele>
        <time>2024-06-24T14:39:54.993Z</time>
      </trkpt>
      <trkpt lat="43.01784" lon="1.07884">
        <ele>476.2</ele>
        <time>2024-06-24T14:39:55.993Z</time>
      </trkpt>
      <trkpt lat="43.01785" lon="1.07886">
        <ele>476.2</ele>
        <time>2024-06-24T14:39:58.993Z</time>
      </trkpt>
      <trkpt lat="43.01785" lon="1.07887">
        <ele>476.2</ele>
        <time>2024-06-24T14:39:59.993Z</time>
      </trkpt>
      <trkpt lat="43.01785" lon="1.07889">
        <ele>476.2</ele>
        <time>2024-06-24T14:40:00.993Z</time>
      </trkpt>
      <trkpt lat="43.01786" lon="1.0789">
        <ele>476.2</ele>
        <time>2024-06-24T14:40:01.993Z</time>
      </trkpt>
      <trkpt lat="43.01787" lon="1.07892">
        <ele>476.6</ele>
        <time>2024-06-24T14:40:02.993Z</time>
      </trkpt>
      <trkpt lat="43.01787" lon="1.07893">
        <ele>476.6</ele>
        <time>2024-06-24T14:40:03.993Z</time>
      </trkpt>
      <trkpt lat="43.01788" lon="1.07894">
        <ele>476.6</ele>
        <time>2024-06-24T14:40:04.993Z</time>
      </trkpt>
      <trkpt lat="43.01789" lon="1.07894">
        <ele>476.8</ele>
        <time>2024-06-24T14:40:05.993Z</time>
      </trkpt>
      <trkpt lat="43.0179" lon="1.07895">
        <ele>476.8</ele>
        <time>2024-06-24T14:40:06.993Z</time>
      </trkpt>
      <trkpt lat="43.0179" lon="1.07895">
        <ele>476.8</ele>
        <time>2024-06-24T14:40:07.993Z</time>
      </trkpt>
      <trkpt lat="43.01791" lon="1.07895">
        <ele>476.8</ele>
        <time>2024-06-24T14:40:08.993Z</time>
      </trkpt>
      <trkpt lat="43.01792" lon="1.07896">
        <ele>477.4</ele>
        <time>2024-06-24T14:40:09.993Z</time>
      </trkpt>
      <trkpt lat="43.01793" lon="1.07896">
        <ele>477.6</ele>
        <time>2024-06-24T14:40:10.993Z</time>
      </trkpt>
      <trkpt lat="43.01794" lon="1.07896">
        <ele>477.8</ele>
        <time>2024-06-24T14:40:11.993Z</time>
      </trkpt>
      <trkpt lat="43.01796" lon="1.07896">
        <ele>477.8</ele>
        <time>2024-06-24T14:40:12.993Z</time>
      </trkpt>
      <trkpt lat="43.01796" lon="1.07896">
        <ele>477.8</ele>
        <time>2024-06-24T14:40:13.993Z</time>
      </trkpt>
      <trkpt lat="43.01797" lon="1.07896">
        <ele>478</ele>
        <time>2024-06-24T14:40:14.993Z</time>
      </trkpt>
      <trkpt lat="43.01798" lon="1.07897">
        <ele>478</ele>
        <time>2024-06-24T14:40:15.993Z</time>
      </trkpt>
      <trkpt lat="43.01798" lon="1.07897">
        <ele>478.2</ele>
        <time>2024-06-24T14:40:16.993Z</time>
      </trkpt>
      <trkpt lat="43.01798" lon="1.07898">
        <ele>478.2</ele>
        <time>2024-06-24T14:40:17.993Z</time>
      </trkpt>
      <trkpt lat="43.01799" lon="1.07898">
        <ele>478.2</ele>
        <time>2024-06-24T14:40:18.993Z</time>
      </trkpt>
      <trkpt lat="43.01801" lon="1.07899">
        <ele>478.6</ele>
        <time>2024-06-24T14:40:19.993Z</time>
      </trkpt>
      <trkpt lat="43.01802" lon="1.07899">
        <ele>478.6</ele>
        <time>2024-06-24T14:40:20.993Z</time>
      </trkpt>
      <trkpt lat="43.01802" lon="1.079">
        <ele>478.6</ele>
        <time>2024-06-24T14:40:21.993Z</time>
      </trkpt>
      <trkpt lat="43.01804" lon="1.07901">
        <ele>478.6</ele>
        <time>2024-06-24T14:40:22.993Z</time>
      </trkpt>
      <trkpt lat="43.01805" lon="1.07902">
        <ele>478.6</ele>
        <time>2024-06-24T14:40:23.993Z</time>
      </trkpt>
      <trkpt lat="43.01807" lon="1.07902">
        <ele>478.6</ele>
        <time>2024-06-24T14:40:24.993Z</time>
      </trkpt>
      <trkpt lat="43.01809" lon="1.07903">
        <ele>478.8</ele>
        <time>2024-06-24T14:40:25.993Z</time>
      </trkpt>
      <trkpt lat="43.0181" lon="1.07903">
        <ele>478.8</ele>
        <time>2024-06-24T14:40:26.993Z</time>
      </trkpt>
      <trkpt lat="43.01812" lon="1.07903">
        <ele>478.8</ele>
        <time>2024-06-24T14:40:27.993Z</time>
      </trkpt>
      <trkpt lat="43.01815" lon="1.07903">
        <ele>478.8</ele>
        <time>2024-06-24T14:40:28.993Z</time>
      </trkpt>
      <trkpt lat="43.01817" lon="1.07904">
        <ele>478.4</ele>
        <time>2024-06-24T14:40:29.993Z</time>
      </trkpt>
      <trkpt lat="43.01819" lon="1.07905">
        <ele>478.4</ele>
        <time>2024-06-24T14:40:30.993Z</time>
      </trkpt>
      <trkpt lat="43.01822" lon="1.07906">
        <ele>478.4</ele>
        <time>2024-06-24T14:40:31.993Z</time>
      </trkpt>
      <trkpt lat="43.01824" lon="1.07908">
        <ele>478.4</ele>
        <time>2024-06-24T14:40:32.993Z</time>
      </trkpt>
      <trkpt lat="43.01827" lon="1.0791">
        <ele>478.4</ele>
        <time>2024-06-24T14:40:33.993Z</time>
      </trkpt>
      <trkpt lat="43.01828" lon="1.07911">
        <ele>478.4</ele>
        <time>2024-06-24T14:40:34.993Z</time>
      </trkpt>
      <trkpt lat="43.0183" lon="1.07913">
        <ele>478.4</ele>
        <time>2024-06-24T14:40:35.993Z</time>
      </trkpt>
      <trkpt lat="43.01832" lon="1.07915">
        <ele>478.6</ele>
        <time>2024-06-24T14:40:36.993Z</time>
      </trkpt>
      <trkpt lat="43.01834" lon="1.07917">
        <ele>478.6</ele>
        <time>2024-06-24T14:40:37.993Z</time>
      </trkpt>
      <trkpt lat="43.01836" lon="1.07919">
        <ele>478.6</ele>
        <time>2024-06-24T14:40:38.993Z</time>
      </trkpt>
      <trkpt lat="43.01839" lon="1.07922">
        <ele>479</ele>
        <time>2024-06-24T14:40:39.993Z</time>
      </trkpt>
      <trkpt lat="43.0184" lon="1.07923">
        <ele>479</ele>
        <time>2024-06-24T14:40:40.993Z</time>
      </trkpt>
      <trkpt lat="43.01842" lon="1.07926">
        <ele>478.4</ele>
        <time>2024-06-24T14:40:41.993Z</time>
      </trkpt>
      <trkpt lat="43.01845" lon="1.07929">
        <ele>478.4</ele>
        <time>2024-06-24T14:40:42.993Z</time>
      </trkpt>
      <trkpt lat="43.01847" lon="1.07933">
        <ele>478.8</ele>
        <time>2024-06-24T14:40:43.993Z</time>
      </trkpt>
      <trkpt lat="43.01848" lon="1.07935">
        <ele>478.8</ele>
        <time>2024-06-24T14:40:44.993Z</time>
      </trkpt>
      <trkpt lat="43.01849" lon="1.07938">
        <ele>479</ele>
        <time>2024-06-24T14:40:45.993Z</time>
      </trkpt>
      <trkpt lat="43.0185" lon="1.07941">
        <ele>479</ele>
        <time>2024-06-24T14:40:46.993Z</time>
      </trkpt>
      <trkpt lat="43.01851" lon="1.07945">
        <ele>479.4</ele>
        <time>2024-06-24T14:40:47.993Z</time>
      </trkpt>
      <trkpt lat="43.01852" lon="1.07948">
        <ele>479.4</ele>
        <time>2024-06-24T14:40:48.993Z</time>
      </trkpt>
      <trkpt lat="43.01853" lon="1.0795">
        <ele>479.4</ele>
        <time>2024-06-24T14:40:49.993Z</time>
      </trkpt>
      <trkpt lat="43.01854" lon="1.07953">
        <ele>479.4</ele>
        <time>2024-06-24T14:40:50.993Z</time>
      </trkpt>
      <trkpt lat="43.01855" lon="1.07956">
        <ele>479.8</ele>
        <time>2024-06-24T14:40:51.993Z</time>
      </trkpt>
      <trkpt lat="43.01855" lon="1.07958">
        <ele>479.8</ele>
        <time>2024-06-24T14:40:52.993Z</time>
      </trkpt>
      <trkpt lat="43.01855" lon="1.07961">
        <ele>479.8</ele>
        <time>2024-06-24T14:40:53.993Z</time>
      </trkpt>
      <trkpt lat="43.01854" lon="1.07963">
        <ele>479.8</ele>
        <time>2024-06-24T14:40:54.993Z</time>
      </trkpt>
      <trkpt lat="43.01854" lon="1.07964">
        <ele>479.8</ele>
        <time>2024-06-24T14:40:55.993Z</time>
      </trkpt>
      <trkpt lat="43.01854" lon="1.07966">
        <ele>479.8</ele>
        <time>2024-06-24T14:40:56.993Z</time>
      </trkpt>
      <trkpt lat="43.01853" lon="1.07968">
        <ele>479.8</ele>
        <time>2024-06-24T14:40:57.993Z</time>
      </trkpt>
      <trkpt lat="43.01853" lon="1.07971">
        <ele>479.8</ele>
        <time>2024-06-24T14:40:58.993Z</time>
      </trkpt>
      <trkpt lat="43.01852" lon="1.07974">
        <ele>479.2</ele>
        <time>2024-06-24T14:40:59.993Z</time>
      </trkpt>
      <trkpt lat="43.01852" lon="1.07977">
        <ele>479.2</ele>
        <time>2024-06-24T14:41:00.993Z</time>
      </trkpt>
      <trkpt lat="43.01852" lon="1.07981">
        <ele>478.8</ele>
        <time>2024-06-24T14:41:01.993Z</time>
      </trkpt>
      <trkpt lat="43.01851" lon="1.07985">
        <ele>479</ele>
        <time>2024-06-24T14:41:02.993Z</time>
      </trkpt>
      <trkpt lat="43.01851" lon="1.07989">
        <ele>479</ele>
        <time>2024-06-24T14:41:03.993Z</time>
      </trkpt>
      <trkpt lat="43.0185" lon="1.07992">
        <ele>478.8</ele>
        <time>2024-06-24T14:41:04.993Z</time>
      </trkpt>
      <trkpt lat="43.01851" lon="1.07996">
        <ele>478.8</ele>
        <time>2024-06-24T14:41:05.993Z</time>
      </trkpt>
      <trkpt lat="43.01851" lon="1.07999">
        <ele>478.8</ele>
        <time>2024-06-24T14:41:06.993Z</time>
      </trkpt>
      <trkpt lat="43.01852" lon="1.08002">
        <ele>478.8</ele>
        <time>2024-06-24T14:41:07.993Z</time>
      </trkpt>
      <trkpt lat="43.01853" lon="1.08005">
        <ele>478.6</ele>
        <time>2024-06-24T14:41:08.993Z</time>
      </trkpt>
      <trkpt lat="43.01854" lon="1.08008">
        <ele>478.6</ele>
        <time>2024-06-24T14:41:09.993Z</time>
      </trkpt>
      <trkpt lat="43.01855" lon="1.08011">
        <ele>478.4</ele>
        <time>2024-06-24T14:41:10.993Z</time>
      </trkpt>
      <trkpt lat="43.01856" lon="1.08014">
        <ele>478.4</ele>
        <time>2024-06-24T14:41:11.993Z</time>
      </trkpt>
      <trkpt lat="43.01858" lon="1.08017">
        <ele>478.4</ele>
        <time>2024-06-24T14:41:12.993Z</time>
      </trkpt>
      <trkpt lat="43.0186" lon="1.08021">
        <ele>478.2</ele>
        <time>2024-06-24T14:41:13.993Z</time>
      </trkpt>
      <trkpt lat="43.01862" lon="1.08024">
        <ele>478.2</ele>
        <time>2024-06-24T14:41:14.993Z</time>
      </trkpt>
      <trkpt lat="43.01864" lon="1.08026">
        <ele>477.8</ele>
        <time>2024-06-24T14:41:15.993Z</time>
      </trkpt>
      <trkpt lat="43.01866" lon="1.08028">
        <ele>478.2</ele>
        <time>2024-06-24T14:41:16.993Z</time>
      </trkpt>
      <trkpt lat="43.01868" lon="1.08029">
        <ele>478.2</ele>
        <time>2024-06-24T14:41:17.993Z</time>
      </trkpt>
      <trkpt lat="43.0187" lon="1.08031">
        <ele>478</ele>
        <time>2024-06-24T14:41:18.993Z</time>
      </trkpt>
      <trkpt lat="43.01873" lon="1.08032">
        <ele>478</ele>
        <time>2024-06-24T14:41:19.993Z</time>
      </trkpt>
      <trkpt lat="43.01876" lon="1.08033">
        <ele>478</ele>
        <time>2024-06-24T14:41:20.993Z</time>
      </trkpt>
      <trkpt lat="43.01878" lon="1.08034">
        <ele>478</ele>
        <time>2024-06-24T14:41:21.993Z</time>
      </trkpt>
      <trkpt lat="43.01881" lon="1.08034">
        <ele>478</ele>
        <time>2024-06-24T14:41:22.993Z</time>
      </trkpt>
      <trkpt lat="43.01882" lon="1.08034">
        <ele>478</ele>
        <time>2024-06-24T14:41:23.993Z</time>
      </trkpt>
      <trkpt lat="43.01884" lon="1.08034">
        <ele>478.2</ele>
        <time>2024-06-24T14:41:24.993Z</time>
      </trkpt>
      <trkpt lat="43.01886" lon="1.08035">
        <ele>478.2</ele>
        <time>2024-06-24T14:41:25.993Z</time>
      </trkpt>
      <trkpt lat="43.01888" lon="1.08035">
        <ele>478.2</ele>
        <time>2024-06-24T14:41:26.993Z</time>
      </trkpt>
      <trkpt lat="43.01891" lon="1.08036">
        <ele>477.8</ele>
        <time>2024-06-24T14:41:27.993Z</time>
      </trkpt>
      <trkpt lat="43.01894" lon="1.08036">
        <ele>477.8</ele>
        <time>2024-06-24T14:41:28.993Z</time>
      </trkpt>
      <trkpt lat="43.01896" lon="1.08037">
        <ele>477.8</ele>
        <time>2024-06-24T14:41:29.993Z</time>
      </trkpt>
      <trkpt lat="43.01899" lon="1.08037">
        <ele>477.8</ele>
        <time>2024-06-24T14:41:30.993Z</time>
      </trkpt>
      <trkpt lat="43.01903" lon="1.08038">
        <ele>477.8</ele>
        <time>2024-06-24T14:41:31.993Z</time>
      </trkpt>
      <trkpt lat="43.01906" lon="1.0804">
        <ele>477.6</ele>
        <time>2024-06-24T14:41:32.993Z</time>
      </trkpt>
      <trkpt lat="43.01909" lon="1.08042">
        <ele>477.6</ele>
        <time>2024-06-24T14:41:33.993Z</time>
      </trkpt>
      <trkpt lat="43.01913" lon="1.08044">
        <ele>477.6</ele>
        <time>2024-06-24T14:41:34.993Z</time>
      </trkpt>
      <trkpt lat="43.01916" lon="1.08046">
        <ele>478</ele>
        <time>2024-06-24T14:41:35.993Z</time>
      </trkpt>
      <trkpt lat="43.01919" lon="1.08047">
        <ele>477.4</ele>
        <time>2024-06-24T14:41:36.993Z</time>
      </trkpt>
      <trkpt lat="43.01922" lon="1.08048">
        <ele>477.2</ele>
        <time>2024-06-24T14:41:37.993Z</time>
      </trkpt>
      <trkpt lat="43.01926" lon="1.08049">
        <ele>477</ele>
        <time>2024-06-24T14:41:38.993Z</time>
      </trkpt>
      <trkpt lat="43.01929" lon="1.08049">
        <ele>476.4</ele>
        <time>2024-06-24T14:41:39.993Z</time>
      </trkpt>
      <trkpt lat="43.01932" lon="1.08049">
        <ele>476.2</ele>
        <time>2024-06-24T14:41:40.993Z</time>
      </trkpt>
      <trkpt lat="43.01935" lon="1.08049">
        <ele>476</ele>
        <time>2024-06-24T14:41:41.993Z</time>
      </trkpt>
      <trkpt lat="43.01938" lon="1.0805">
        <ele>476</ele>
        <time>2024-06-24T14:41:42.993Z</time>
      </trkpt>
      <trkpt lat="43.01942" lon="1.08051">
        <ele>475.4</ele>
        <time>2024-06-24T14:41:43.993Z</time>
      </trkpt>
      <trkpt lat="43.01946" lon="1.08052">
        <ele>475.4</ele>
        <time>2024-06-24T14:41:44.993Z</time>
      </trkpt>
      <trkpt lat="43.01949" lon="1.08052">
        <ele>474.8</ele>
        <time>2024-06-24T14:41:45.993Z</time>
      </trkpt>
      <trkpt lat="43.01951" lon="1.08053">
        <ele>474.2</ele>
        <time>2024-06-24T14:41:46.993Z</time>
      </trkpt>
      <trkpt lat="43.01953" lon="1.08053">
        <ele>473.8</ele>
        <time>2024-06-24T14:41:47.993Z</time>
      </trkpt>
      <trkpt lat="43.01956" lon="1.08054">
        <ele>473.2</ele>
        <time>2024-06-24T14:41:48.993Z</time>
      </trkpt>
      <trkpt lat="43.01959" lon="1.08055">
        <ele>473</ele>
        <time>2024-06-24T14:41:49.993Z</time>
      </trkpt>
      <trkpt lat="43.01962" lon="1.08056">
        <ele>473</ele>
        <time>2024-06-24T14:41:50.993Z</time>
      </trkpt>
      <trkpt lat="43.01965" lon="1.08057">
        <ele>472.8</ele>
        <time>2024-06-24T14:41:51.993Z</time>
      </trkpt>
      <trkpt lat="43.01969" lon="1.08058">
        <ele>472.8</ele>
        <time>2024-06-24T14:41:52.993Z</time>
      </trkpt>
      <trkpt lat="43.01972" lon="1.08059">
        <ele>472.8</ele>
        <time>2024-06-24T14:41:53.993Z</time>
      </trkpt>
      <trkpt lat="43.01976" lon="1.08059">
        <ele>472.2</ele>
        <time>2024-06-24T14:41:54.993Z</time>
      </trkpt>
      <trkpt lat="43.01979" lon="1.0806">
        <ele>471.6</ele>
        <time>2024-06-24T14:41:55.993Z</time>
      </trkpt>
      <trkpt lat="43.01981" lon="1.08061">
        <ele>470.2</ele>
        <time>2024-06-24T14:41:56.993Z</time>
      </trkpt>
      <trkpt lat="43.01984" lon="1.08062">
        <ele>470</ele>
        <time>2024-06-24T14:41:57.993Z</time>
      </trkpt>
      <trkpt lat="43.01986" lon="1.08063">
        <ele>470</ele>
        <time>2024-06-24T14:41:58.993Z</time>
      </trkpt>
      <trkpt lat="43.01988" lon="1.08064">
        <ele>470</ele>
        <time>2024-06-24T14:41:59.993Z</time>
      </trkpt>
      <trkpt lat="43.01991" lon="1.08065">
        <ele>469.6</ele>
        <time>2024-06-24T14:42:00.993Z</time>
      </trkpt>
      <trkpt lat="43.01993" lon="1.08066">
        <ele>469</ele>
        <time>2024-06-24T14:42:01.993Z</time>
      </trkpt>
      <trkpt lat="43.01995" lon="1.08067">
        <ele>468</ele>
        <time>2024-06-24T14:42:02.993Z</time>
      </trkpt>
      <trkpt lat="43.01997" lon="1.08068">
        <ele>467.2</ele>
        <time>2024-06-24T14:42:03.993Z</time>
      </trkpt>
      <trkpt lat="43.01999" lon="1.08069">
        <ele>466.8</ele>
        <time>2024-06-24T14:42:04.993Z</time>
      </trkpt>
      <trkpt lat="43.02002" lon="1.0807">
        <ele>466.4</ele>
        <time>2024-06-24T14:42:05.993Z</time>
      </trkpt>
      <trkpt lat="43.02004" lon="1.08071">
        <ele>466</ele>
        <time>2024-06-24T14:42:06.993Z</time>
      </trkpt>
      <trkpt lat="43.02005" lon="1.08072">
        <ele>465.4</ele>
        <time>2024-06-24T14:42:07.993Z</time>
      </trkpt>
      <trkpt lat="43.02007" lon="1.08073">
        <ele>465.2</ele>
        <time>2024-06-24T14:42:08.993Z</time>
      </trkpt>
      <trkpt lat="43.02009" lon="1.08075">
        <ele>464.8</ele>
        <time>2024-06-24T14:42:09.993Z</time>
      </trkpt>
      <trkpt lat="43.02011" lon="1.08076">
        <ele>464.4</ele>
        <time>2024-06-24T14:42:10.993Z</time>
      </trkpt>
      <trkpt lat="43.02014" lon="1.08077">
        <ele>464</ele>
        <time>2024-06-24T14:42:11.993Z</time>
      </trkpt>
      <trkpt lat="43.02016" lon="1.08079">
        <ele>463.8</ele>
        <time>2024-06-24T14:42:12.993Z</time>
      </trkpt>
      <trkpt lat="43.02018" lon="1.08079">
        <ele>463.4</ele>
        <time>2024-06-24T14:42:13.993Z</time>
      </trkpt>
      <trkpt lat="43.02019" lon="1.08079">
        <ele>463</ele>
        <time>2024-06-24T14:42:14.993Z</time>
      </trkpt>
      <trkpt lat="43.02021" lon="1.0808">
        <ele>462.8</ele>
        <time>2024-06-24T14:42:15.993Z</time>
      </trkpt>
      <trkpt lat="43.02022" lon="1.08081">
        <ele>462</ele>
        <time>2024-06-24T14:42:16.993Z</time>
      </trkpt>
      <trkpt lat="43.02023" lon="1.08082">
        <ele>461</ele>
        <time>2024-06-24T14:42:17.993Z</time>
      </trkpt>
      <trkpt lat="43.02024" lon="1.08083">
        <ele>460.2</ele>
        <time>2024-06-24T14:42:18.993Z</time>
      </trkpt>
      <trkpt lat="43.02026" lon="1.08083">
        <ele>459.8</ele>
        <time>2024-06-24T14:42:19.993Z</time>
      </trkpt>
      <trkpt lat="43.02027" lon="1.08084">
        <ele>459.4</ele>
        <time>2024-06-24T14:42:20.993Z</time>
      </trkpt>
      <trkpt lat="43.02029" lon="1.08085">
        <ele>459</ele>
        <time>2024-06-24T14:42:21.993Z</time>
      </trkpt>
      <trkpt lat="43.02031" lon="1.08086">
        <ele>458.2</ele>
        <time>2024-06-24T14:42:22.993Z</time>
      </trkpt>
      <trkpt lat="43.02032" lon="1.08087">
        <ele>458.2</ele>
        <time>2024-06-24T14:42:23.993Z</time>
      </trkpt>
      <trkpt lat="43.02034" lon="1.08088">
        <ele>457.8</ele>
        <time>2024-06-24T14:42:24.993Z</time>
      </trkpt>
      <trkpt lat="43.02036" lon="1.08089">
        <ele>457.4</ele>
        <time>2024-06-24T14:42:25.993Z</time>
      </trkpt>
      <trkpt lat="43.02037" lon="1.0809">
        <ele>456.8</ele>
        <time>2024-06-24T14:42:26.993Z</time>
      </trkpt>
      <trkpt lat="43.02039" lon="1.08092">
        <ele>456.6</ele>
        <time>2024-06-24T14:42:27.993Z</time>
      </trkpt>
      <trkpt lat="43.0204" lon="1.08093">
        <ele>456.2</ele>
        <time>2024-06-24T14:42:28.993Z</time>
      </trkpt>
      <trkpt lat="43.02042" lon="1.08095">
        <ele>456.2</ele>
        <time>2024-06-24T14:42:29.993Z</time>
      </trkpt>
      <trkpt lat="43.02044" lon="1.08096">
        <ele>455.4</ele>
        <time>2024-06-24T14:42:30.993Z</time>
      </trkpt>
      <trkpt lat="43.02046" lon="1.08097">
        <ele>455</ele>
        <time>2024-06-24T14:42:31.993Z</time>
      </trkpt>
      <trkpt lat="43.02048" lon="1.08098">
        <ele>454.6</ele>
        <time>2024-06-24T14:42:32.993Z</time>
      </trkpt>
      <trkpt lat="43.0205" lon="1.08099">
        <ele>454.2</ele>
        <time>2024-06-24T14:42:33.993Z</time>
      </trkpt>
      <trkpt lat="43.02052" lon="1.081">
        <ele>453.8</ele>
        <time>2024-06-24T14:42:34.993Z</time>
      </trkpt>
      <trkpt lat="43.02054" lon="1.08101">
        <ele>453.6</ele>
        <time>2024-06-24T14:42:35.993Z</time>
      </trkpt>
      <trkpt lat="43.02056" lon="1.08102">
        <ele>453.2</ele>
        <time>2024-06-24T14:42:36.993Z</time>
      </trkpt>
      <trkpt lat="43.02058" lon="1.08104">
        <ele>452.8</ele>
        <time>2024-06-24T14:42:37.993Z</time>
      </trkpt>
      <trkpt lat="43.0206" lon="1.08105">
        <ele>452</ele>
        <time>2024-06-24T14:42:38.993Z</time>
      </trkpt>
      <trkpt lat="43.02062" lon="1.08107">
        <ele>451.6</ele>
        <time>2024-06-24T14:42:39.993Z</time>
      </trkpt>
      <trkpt lat="43.02064" lon="1.08109">
        <ele>451.4</ele>
        <time>2024-06-24T14:42:40.993Z</time>
      </trkpt>
      <trkpt lat="43.02066" lon="1.0811">
        <ele>451</ele>
        <time>2024-06-24T14:42:41.993Z</time>
      </trkpt>
      <trkpt lat="43.02068" lon="1.08111">
        <ele>450.6</ele>
        <time>2024-06-24T14:42:42.993Z</time>
      </trkpt>
      <trkpt lat="43.0207" lon="1.08111">
        <ele>450</ele>
        <time>2024-06-24T14:42:43.993Z</time>
      </trkpt>
      <trkpt lat="43.02071" lon="1.08112">
        <ele>449.6</ele>
        <time>2024-06-24T14:42:44.993Z</time>
      </trkpt>
      <trkpt lat="43.02073" lon="1.08112">
        <ele>449.4</ele>
        <time>2024-06-24T14:42:45.993Z</time>
      </trkpt>
      <trkpt lat="43.02075" lon="1.08114">
        <ele>448.8</ele>
        <time>2024-06-24T14:42:46.993Z</time>
      </trkpt>
      <trkpt lat="43.02076" lon="1.08115">
        <ele>448.6</ele>
        <time>2024-06-24T14:42:47.993Z</time>
      </trkpt>
      <trkpt lat="43.02078" lon="1.08117">
        <ele>448.2</ele>
        <time>2024-06-24T14:42:48.993Z</time>
      </trkpt>
      <trkpt lat="43.02079" lon="1.08118">
        <ele>448</ele>
        <time>2024-06-24T14:42:49.993Z</time>
      </trkpt>
      <trkpt lat="43.02079" lon="1.08118">
        <ele>447.6</ele>
        <time>2024-06-24T14:42:50.993Z</time>
      </trkpt>
      <trkpt lat="43.02079" lon="1.0812">
        <ele>447.6</ele>
        <time>2024-06-24T14:42:51.993Z</time>
      </trkpt>
      <trkpt lat="43.0208" lon="1.08122">
        <ele>447.6</ele>
        <time>2024-06-24T14:42:52.993Z</time>
      </trkpt>
      <trkpt lat="43.02082" lon="1.08124">
        <ele>447</ele>
        <time>2024-06-24T14:42:53.993Z</time>
      </trkpt>
      <trkpt lat="43.02083" lon="1.08126">
        <ele>446.6</ele>
        <time>2024-06-24T14:42:54.993Z</time>
      </trkpt>
      <trkpt lat="43.02084" lon="1.08127">
        <ele>446.4</ele>
        <time>2024-06-24T14:42:55.993Z</time>
      </trkpt>
      <trkpt lat="43.02086" lon="1.08129">
        <ele>446.4</ele>
        <time>2024-06-24T14:42:56.993Z</time>
      </trkpt>
      <trkpt lat="43.02088" lon="1.0813">
        <ele>445.8</ele>
        <time>2024-06-24T14:42:57.993Z</time>
      </trkpt>
      <trkpt lat="43.02089" lon="1.0813">
        <ele>445.4</ele>
        <time>2024-06-24T14:42:58.993Z</time>
      </trkpt>
      <trkpt lat="43.02091" lon="1.0813">
        <ele>445.2</ele>
        <time>2024-06-24T14:42:59.993Z</time>
      </trkpt>
      <trkpt lat="43.02093" lon="1.08131">
        <ele>444.8</ele>
        <time>2024-06-24T14:43:00.993Z</time>
      </trkpt>
      <trkpt lat="43.02095" lon="1.08131">
        <ele>444.2</ele>
        <time>2024-06-24T14:43:01.993Z</time>
      </trkpt>
      <trkpt lat="43.02097" lon="1.08132">
        <ele>444.2</ele>
        <time>2024-06-24T14:43:02.993Z</time>
      </trkpt>
      <trkpt lat="43.02097" lon="1.08132">
        <ele>444</ele>
        <time>2024-06-24T14:43:03.993Z</time>
      </trkpt>
      <trkpt lat="43.02098" lon="1.08132">
        <ele>444</ele>
        <time>2024-06-24T14:43:04.993Z</time>
      </trkpt>
      <trkpt lat="43.02098" lon="1.08132">
        <ele>443.6</ele>
        <time>2024-06-24T14:43:05.993Z</time>
      </trkpt>
      <trkpt lat="43.02101" lon="1.08137">
        <ele>443</ele>
        <time>2024-06-24T14:43:18.993Z</time>
      </trkpt>
      <trkpt lat="43.02102" lon="1.08138">
        <ele>443</ele>
        <time>2024-06-24T14:43:19.993Z</time>
      </trkpt>
      <trkpt lat="43.02103" lon="1.0814">
        <ele>442.8</ele>
        <time>2024-06-24T14:43:20.993Z</time>
      </trkpt>
      <trkpt lat="43.02103" lon="1.08141">
        <ele>442.8</ele>
        <time>2024-06-24T14:43:21.993Z</time>
      </trkpt>
      <trkpt lat="43.02104" lon="1.08142">
        <ele>442.8</ele>
        <time>2024-06-24T14:43:22.993Z</time>
      </trkpt>
      <trkpt lat="43.02105" lon="1.08144">
        <ele>442.4</ele>
        <time>2024-06-24T14:43:23.993Z</time>
      </trkpt>
      <trkpt lat="43.02106" lon="1.08145">
        <ele>442.2</ele>
        <time>2024-06-24T14:43:24.993Z</time>
      </trkpt>
      <trkpt lat="43.02107" lon="1.08146">
        <ele>442.2</ele>
        <time>2024-06-24T14:43:25.993Z</time>
      </trkpt>
      <trkpt lat="43.02109" lon="1.08147">
        <ele>442.2</ele>
        <time>2024-06-24T14:43:26.993Z</time>
      </trkpt>
      <trkpt lat="43.02111" lon="1.08148">
        <ele>441.4</ele>
        <time>2024-06-24T14:43:27.993Z</time>
      </trkpt>
      <trkpt lat="43.02112" lon="1.08149">
        <ele>440.8</ele>
        <time>2024-06-24T14:43:28.993Z</time>
      </trkpt>
      <trkpt lat="43.02114" lon="1.08149">
        <ele>440.4</ele>
        <time>2024-06-24T14:43:29.993Z</time>
      </trkpt>
      <trkpt lat="43.02115" lon="1.08149">
        <ele>439.6</ele>
        <time>2024-06-24T14:43:30.993Z</time>
      </trkpt>
      <trkpt lat="43.02117" lon="1.0815">
        <ele>438.8</ele>
        <time>2024-06-24T14:43:31.993Z</time>
      </trkpt>
      <trkpt lat="43.02119" lon="1.08151">
        <ele>438.8</ele>
        <time>2024-06-24T14:43:32.993Z</time>
      </trkpt>
      <trkpt lat="43.0212" lon="1.08152">
        <ele>438.4</ele>
        <time>2024-06-24T14:43:33.993Z</time>
      </trkpt>
      <trkpt lat="43.02121" lon="1.08153">
        <ele>438</ele>
        <time>2024-06-24T14:43:34.993Z</time>
      </trkpt>
      <trkpt lat="43.02122" lon="1.08154">
        <ele>437.8</ele>
        <time>2024-06-24T14:43:35.993Z</time>
      </trkpt>
      <trkpt lat="43.02123" lon="1.08155">
        <ele>437.8</ele>
        <time>2024-06-24T14:43:36.993Z</time>
      </trkpt>
      <trkpt lat="43.02124" lon="1.08155">
        <ele>437.4</ele>
        <time>2024-06-24T14:43:37.993Z</time>
      </trkpt>
      <trkpt lat="43.02125" lon="1.08156">
        <ele>437.2</ele>
        <time>2024-06-24T14:43:38.993Z</time>
      </trkpt>
      <trkpt lat="43.02126" lon="1.08157">
        <ele>437</ele>
        <time>2024-06-24T14:43:39.993Z</time>
      </trkpt>
      <trkpt lat="43.02128" lon="1.08159">
        <ele>437</ele>
        <time>2024-06-24T14:43:40.993Z</time>
      </trkpt>
      <trkpt lat="43.0213" lon="1.0816">
        <ele>436.4</ele>
        <time>2024-06-24T14:43:41.993Z</time>
      </trkpt>
      <trkpt lat="43.02131" lon="1.0816">
        <ele>436.2</ele>
        <time>2024-06-24T14:43:42.993Z</time>
      </trkpt>
      <trkpt lat="43.02132" lon="1.0816">
        <ele>436</ele>
        <time>2024-06-24T14:43:43.993Z</time>
      </trkpt>
      <trkpt lat="43.02132" lon="1.08161">
        <ele>435.8</ele>
        <time>2024-06-24T14:43:44.993Z</time>
      </trkpt>
      <trkpt lat="43.02132" lon="1.08161">
        <ele>435.8</ele>
        <time>2024-06-24T14:43:45.993Z</time>
      </trkpt>
      <trkpt lat="43.02133" lon="1.08161">
        <ele>435.2</ele>
        <time>2024-06-24T14:43:51.993Z</time>
      </trkpt>
      <trkpt lat="43.02135" lon="1.08163">
        <ele>435.2</ele>
        <time>2024-06-24T14:43:52.993Z</time>
      </trkpt>
      <trkpt lat="43.02136" lon="1.08164">
        <ele>434.6</ele>
        <time>2024-06-24T14:43:53.993Z</time>
      </trkpt>
      <trkpt lat="43.02138" lon="1.08165">
        <ele>434.6</ele>
        <time>2024-06-24T14:43:54.993Z</time>
      </trkpt>
      <trkpt lat="43.02139" lon="1.08166">
        <ele>434</ele>
        <time>2024-06-24T14:43:55.993Z</time>
      </trkpt>
      <trkpt lat="43.0214" lon="1.08168">
        <ele>434</ele>
        <time>2024-06-24T14:43:56.993Z</time>
      </trkpt>
      <trkpt lat="43.02143" lon="1.0817">
        <ele>433.6</ele>
        <time>2024-06-24T14:43:57.993Z</time>
      </trkpt>
      <trkpt lat="43.02145" lon="1.08171">
        <ele>433.4</ele>
        <time>2024-06-24T14:43:58.993Z</time>
      </trkpt>
      <trkpt lat="43.02147" lon="1.08173">
        <ele>433</ele>
        <time>2024-06-24T14:43:59.993Z</time>
      </trkpt>
      <trkpt lat="43.02148" lon="1.08174">
        <ele>432.8</ele>
        <time>2024-06-24T14:44:00.993Z</time>
      </trkpt>
      <trkpt lat="43.02149" lon="1.08175">
        <ele>432.4</ele>
        <time>2024-06-24T14:44:01.993Z</time>
      </trkpt>
      <trkpt lat="43.02151" lon="1.08177">
        <ele>432.4</ele>
        <time>2024-06-24T14:44:02.993Z</time>
      </trkpt>
      <trkpt lat="43.02153" lon="1.0818">
        <ele>431.8</ele>
        <time>2024-06-24T14:44:03.993Z</time>
      </trkpt>
      <trkpt lat="43.02153" lon="1.08181">
        <ele>431.2</ele>
        <time>2024-06-24T14:44:04.993Z</time>
      </trkpt>
      <trkpt lat="43.02153" lon="1.0818">
        <ele>430.8</ele>
        <time>2024-06-24T14:44:05.993Z</time>
      </trkpt>
      <trkpt lat="43.02154" lon="1.08181">
        <ele>430.6</ele>
        <time>2024-06-24T14:44:06.993Z</time>
      </trkpt>
      <trkpt lat="43.02154" lon="1.08181">
        <ele>430.2</ele>
        <time>2024-06-24T14:44:07.993Z</time>
      </trkpt>
      <trkpt lat="43.02155" lon="1.08181">
        <ele>429.8</ele>
        <time>2024-06-24T14:44:08.993Z</time>
      </trkpt>
      <trkpt lat="43.02155" lon="1.08181">
        <ele>429.8</ele>
        <time>2024-06-24T14:44:09.993Z</time>
      </trkpt>
      <trkpt lat="43.02157" lon="1.08182">
        <ele>429.2</ele>
        <time>2024-06-24T14:44:10.993Z</time>
      </trkpt>
      <trkpt lat="43.02159" lon="1.08183">
        <ele>429</ele>
        <time>2024-06-24T14:44:11.993Z</time>
      </trkpt>
      <trkpt lat="43.0216" lon="1.08184">
        <ele>428.6</ele>
        <time>2024-06-24T14:44:12.993Z</time>
      </trkpt>
      <trkpt lat="43.02161" lon="1.08186">
        <ele>428.4</ele>
        <time>2024-06-24T14:44:13.993Z</time>
      </trkpt>
      <trkpt lat="43.02163" lon="1.08187">
        <ele>428.4</ele>
        <time>2024-06-24T14:44:14.993Z</time>
      </trkpt>
      <trkpt lat="43.02165" lon="1.08189">
        <ele>428.4</ele>
        <time>2024-06-24T14:44:15.993Z</time>
      </trkpt>
      <trkpt lat="43.02166" lon="1.08189">
        <ele>427.8</ele>
        <time>2024-06-24T14:44:16.993Z</time>
      </trkpt>
      <trkpt lat="43.02166" lon="1.08188">
        <ele>427.8</ele>
        <time>2024-06-24T14:44:17.993Z</time>
      </trkpt>
      <trkpt lat="43.02166" lon="1.08188">
        <ele>427.6</ele>
        <time>2024-06-24T14:44:18.993Z</time>
      </trkpt>
      <trkpt lat="43.02166" lon="1.08188">
        <ele>427.6</ele>
        <time>2024-06-24T14:44:19.993Z</time>
      </trkpt>
      <trkpt lat="43.02167" lon="1.08189">
        <ele>427.6</ele>
        <time>2024-06-24T14:44:20.993Z</time>
      </trkpt>
      <trkpt lat="43.02168" lon="1.08189">
        <ele>427.6</ele>
        <time>2024-06-24T14:44:21.993Z</time>
      </trkpt>
      <trkpt lat="43.02168" lon="1.08191">
        <ele>427</ele>
        <time>2024-06-24T14:44:22.993Z</time>
      </trkpt>
      <trkpt lat="43.02169" lon="1.08192">
        <ele>427</ele>
        <time>2024-06-24T14:44:23.993Z</time>
      </trkpt>
      <trkpt lat="43.02169" lon="1.08193">
        <ele>427</ele>
        <time>2024-06-24T14:44:24.993Z</time>
      </trkpt>
      <trkpt lat="43.0217" lon="1.08194">
        <ele>427</ele>
        <time>2024-06-24T14:44:25.993Z</time>
      </trkpt>
      <trkpt lat="43.0217" lon="1.08194">
        <ele>427</ele>
        <time>2024-06-24T14:44:26.993Z</time>
      </trkpt>
      <trkpt lat="43.02171" lon="1.08195">
        <ele>427</ele>
        <time>2024-06-24T14:44:27.993Z</time>
      </trkpt>
      <trkpt lat="43.02172" lon="1.08195">
        <ele>427</ele>
        <time>2024-06-24T14:44:28.993Z</time>
      </trkpt>
      <trkpt lat="43.02173" lon="1.08197">
        <ele>426.8</ele>
        <time>2024-06-24T14:44:29.993Z</time>
      </trkpt>
      <trkpt lat="43.02174" lon="1.08198">
        <ele>426.2</ele>
        <time>2024-06-24T14:44:30.993Z</time>
      </trkpt>
      <trkpt lat="43.02175" lon="1.08199">
        <ele>425.8</ele>
        <time>2024-06-24T14:44:31.993Z</time>
      </trkpt>
      <trkpt lat="43.02176" lon="1.08199">
        <ele>425.6</ele>
        <time>2024-06-24T14:44:32.993Z</time>
      </trkpt>
      <trkpt lat="43.02178" lon="1.082">
        <ele>425.6</ele>
        <time>2024-06-24T14:44:33.993Z</time>
      </trkpt>
      <trkpt lat="43.02179" lon="1.08201">
        <ele>425.6</ele>
        <time>2024-06-24T14:44:34.993Z</time>
      </trkpt>
      <trkpt lat="43.02179" lon="1.08203">
        <ele>425.2</ele>
        <time>2024-06-24T14:44:35.993Z</time>
      </trkpt>
      <trkpt lat="43.0218" lon="1.08204">
        <ele>424.6</ele>
        <time>2024-06-24T14:44:36.993Z</time>
      </trkpt>
      <trkpt lat="43.0218" lon="1.08204">
        <ele>424.6</ele>
        <time>2024-06-24T14:44:37.993Z</time>
      </trkpt>
      <trkpt lat="43.02181" lon="1.08205">
        <ele>424.6</ele>
        <time>2024-06-24T14:44:38.993Z</time>
      </trkpt>
      <trkpt lat="43.02181" lon="1.08206">
        <ele>424.2</ele>
        <time>2024-06-24T14:44:39.993Z</time>
      </trkpt>
      <trkpt lat="43.02182" lon="1.08208">
        <ele>424</ele>
        <time>2024-06-24T14:44:40.993Z</time>
      </trkpt>
      <trkpt lat="43.02184" lon="1.0821">
        <ele>423.6</ele>
        <time>2024-06-24T14:44:41.993Z</time>
      </trkpt>
      <trkpt lat="43.02185" lon="1.08211">
        <ele>423.4</ele>
        <time>2024-06-24T14:44:42.993Z</time>
      </trkpt>
      <trkpt lat="43.02186" lon="1.08212">
        <ele>423.2</ele>
        <time>2024-06-24T14:44:43.993Z</time>
      </trkpt>
      <trkpt lat="43.02188" lon="1.08213">
        <ele>423.2</ele>
        <time>2024-06-24T14:44:44.993Z</time>
      </trkpt>
      <trkpt lat="43.02188" lon="1.08213">
        <ele>422.8</ele>
        <time>2024-06-24T14:44:45.993Z</time>
      </trkpt>
      <trkpt lat="43.0219" lon="1.08214">
        <ele>422.8</ele>
        <time>2024-06-24T14:44:46.993Z</time>
      </trkpt>
      <trkpt lat="43.02191" lon="1.08215">
        <ele>422.6</ele>
        <time>2024-06-24T14:44:47.993Z</time>
      </trkpt>
      <trkpt lat="43.02193" lon="1.08216">
        <ele>422.6</ele>
        <time>2024-06-24T14:44:48.993Z</time>
      </trkpt>
      <trkpt lat="43.02194" lon="1.08216">
        <ele>422.6</ele>
        <time>2024-06-24T14:44:49.993Z</time>
      </trkpt>
      <trkpt lat="43.02195" lon="1.08217">
        <ele>422.2</ele>
        <time>2024-06-24T14:44:50.993Z</time>
      </trkpt>
      <trkpt lat="43.02196" lon="1.08217">
        <ele>422.2</ele>
        <time>2024-06-24T14:44:51.993Z</time>
      </trkpt>
      <trkpt lat="43.02198" lon="1.08218">
        <ele>422</ele>
        <time>2024-06-24T14:44:52.993Z</time>
      </trkpt>
      <trkpt lat="43.02199" lon="1.08218">
        <ele>422</ele>
        <time>2024-06-24T14:44:53.993Z</time>
      </trkpt>
      <trkpt lat="43.022" lon="1.08218">
        <ele>422</ele>
        <time>2024-06-24T14:44:54.993Z</time>
      </trkpt>
      <trkpt lat="43.02201" lon="1.08217">
        <ele>421.6</ele>
        <time>2024-06-24T14:44:55.993Z</time>
      </trkpt>
      <trkpt lat="43.02202" lon="1.08217">
        <ele>421.4</ele>
        <time>2024-06-24T14:44:56.993Z</time>
      </trkpt>
      <trkpt lat="43.02202" lon="1.08216">
        <ele>421</ele>
        <time>2024-06-24T14:44:57.993Z</time>
      </trkpt>
      <trkpt lat="43.02203" lon="1.08215">
        <ele>421</ele>
        <time>2024-06-24T14:44:58.993Z</time>
      </trkpt>
      <trkpt lat="43.02204" lon="1.08214">
        <ele>420.4</ele>
        <time>2024-06-24T14:44:59.993Z</time>
      </trkpt>
      <trkpt lat="43.02205" lon="1.08213">
        <ele>420</ele>
        <time>2024-06-24T14:45:00.993Z</time>
      </trkpt>
      <trkpt lat="43.02206" lon="1.08213">
        <ele>419.8</ele>
        <time>2024-06-24T14:45:01.993Z</time>
      </trkpt>
      <trkpt lat="43.02208" lon="1.08213">
        <ele>419.8</ele>
        <time>2024-06-24T14:45:02.993Z</time>
      </trkpt>
      <trkpt lat="43.02209" lon="1.08213">
        <ele>419.8</ele>
        <time>2024-06-24T14:45:03.993Z</time>
      </trkpt>
      <trkpt lat="43.0221" lon="1.08213">
        <ele>419.6</ele>
        <time>2024-06-24T14:45:04.993Z</time>
      </trkpt>
      <trkpt lat="43.02212" lon="1.08212">
        <ele>419.6</ele>
        <time>2024-06-24T14:45:05.993Z</time>
      </trkpt>
      <trkpt lat="43.02213" lon="1.08212">
        <ele>419</ele>
        <time>2024-06-24T14:45:06.993Z</time>
      </trkpt>
      <trkpt lat="43.02214" lon="1.08212">
        <ele>418.4</ele>
        <time>2024-06-24T14:45:07.993Z</time>
      </trkpt>
      <trkpt lat="43.02215" lon="1.08212">
        <ele>418.4</ele>
        <time>2024-06-24T14:45:08.993Z</time>
      </trkpt>
      <trkpt lat="43.02216" lon="1.08212">
        <ele>418.4</ele>
        <time>2024-06-24T14:45:09.993Z</time>
      </trkpt>
      <trkpt lat="43.02218" lon="1.08212">
        <ele>418.2</ele>
        <time>2024-06-24T14:45:10.993Z</time>
      </trkpt>
      <trkpt lat="43.02219" lon="1.08212">
        <ele>417.2</ele>
        <time>2024-06-24T14:45:11.993Z</time>
      </trkpt>
      <trkpt lat="43.0222" lon="1.08213">
        <ele>417.2</ele>
        <time>2024-06-24T14:45:12.993Z</time>
      </trkpt>
      <trkpt lat="43.02221" lon="1.08213">
        <ele>417.4</ele>
        <time>2024-06-24T14:45:13.993Z</time>
      </trkpt>
      <trkpt lat="43.02222" lon="1.08214">
        <ele>417.4</ele>
        <time>2024-06-24T14:45:14.993Z</time>
      </trkpt>
      <trkpt lat="43.02223" lon="1.08214">
        <ele>417.4</ele>
        <time>2024-06-24T14:45:15.993Z</time>
      </trkpt>
      <trkpt lat="43.02224" lon="1.08215">
        <ele>417.4</ele>
        <time>2024-06-24T14:45:16.993Z</time>
      </trkpt>
      <trkpt lat="43.02226" lon="1.08215">
        <ele>417.2</ele>
        <time>2024-06-24T14:45:17.993Z</time>
      </trkpt>
      <trkpt lat="43.02227" lon="1.08216">
        <ele>416.8</ele>
        <time>2024-06-24T14:45:18.993Z</time>
      </trkpt>
      <trkpt lat="43.02228" lon="1.08216">
        <ele>416.2</ele>
        <time>2024-06-24T14:45:19.993Z</time>
      </trkpt>
      <trkpt lat="43.02229" lon="1.08217">
        <ele>416</ele>
        <time>2024-06-24T14:45:20.993Z</time>
      </trkpt>
      <trkpt lat="43.0223" lon="1.08217">
        <ele>416</ele>
        <time>2024-06-24T14:45:21.993Z</time>
      </trkpt>
      <trkpt lat="43.02231" lon="1.08217">
        <ele>416</ele>
        <time>2024-06-24T14:45:22.993Z</time>
      </trkpt>
      <trkpt lat="43.02231" lon="1.08218">
        <ele>415.6</ele>
        <time>2024-06-24T14:45:23.993Z</time>
      </trkpt>
      <trkpt lat="43.02232" lon="1.08219">
        <ele>415.4</ele>
        <time>2024-06-24T14:45:24.993Z</time>
      </trkpt>
      <trkpt lat="43.02233" lon="1.0822">
        <ele>415.4</ele>
        <time>2024-06-24T14:45:25.993Z</time>
      </trkpt>
      <trkpt lat="43.02234" lon="1.08222">
        <ele>415.4</ele>
        <time>2024-06-24T14:45:26.993Z</time>
      </trkpt>
      <trkpt lat="43.02234" lon="1.08224">
        <ele>415</ele>
        <time>2024-06-24T14:45:27.993Z</time>
      </trkpt>
      <trkpt lat="43.02234" lon="1.08225">
        <ele>415</ele>
        <time>2024-06-24T14:45:28.993Z</time>
      </trkpt>
      <trkpt lat="43.02234" lon="1.08227">
        <ele>414.8</ele>
        <time>2024-06-24T14:45:29.993Z</time>
      </trkpt>
      <trkpt lat="43.02234" lon="1.08228">
        <ele>414.6</ele>
        <time>2024-06-24T14:45:30.993Z</time>
      </trkpt>
      <trkpt lat="43.02234" lon="1.08229">
        <ele>414.2</ele>
        <time>2024-06-24T14:45:31.993Z</time>
      </trkpt>
      <trkpt lat="43.02235" lon="1.0823">
        <ele>413.8</ele>
        <time>2024-06-24T14:45:32.993Z</time>
      </trkpt>
      <trkpt lat="43.02235" lon="1.08231">
        <ele>413.6</ele>
        <time>2024-06-24T14:45:33.993Z</time>
      </trkpt>
      <trkpt lat="43.02235" lon="1.08231">
        <ele>413.6</ele>
        <time>2024-06-24T14:45:34.993Z</time>
      </trkpt>
      <trkpt lat="43.02236" lon="1.08232">
        <ele>413.4</ele>
        <time>2024-06-24T14:45:35.993Z</time>
      </trkpt>
      <trkpt lat="43.02236" lon="1.08233">
        <ele>413.2</ele>
        <time>2024-06-24T14:45:36.993Z</time>
      </trkpt>
      <trkpt lat="43.02237" lon="1.08234">
        <ele>412</ele>
        <time>2024-06-24T14:45:37.993Z</time>
      </trkpt>
      <trkpt lat="43.02238" lon="1.08235">
        <ele>412</ele>
        <time>2024-06-24T14:45:38.993Z</time>
      </trkpt>
      <trkpt lat="43.02239" lon="1.08236">
        <ele>412</ele>
        <time>2024-06-24T14:45:39.993Z</time>
      </trkpt>
      <trkpt lat="43.02239" lon="1.08237">
        <ele>412</ele>
        <time>2024-06-24T14:45:40.993Z</time>
      </trkpt>
      <trkpt lat="43.0224" lon="1.08238">
        <ele>411.8</ele>
        <time>2024-06-24T14:45:41.993Z</time>
      </trkpt>
      <trkpt lat="43.0224" lon="1.0824">
        <ele>411.8</ele>
        <time>2024-06-24T14:45:42.993Z</time>
      </trkpt>
      <trkpt lat="43.0224" lon="1.08241">
        <ele>411.4</ele>
        <time>2024-06-24T14:45:43.993Z</time>
      </trkpt>
      <trkpt lat="43.0224" lon="1.08242">
        <ele>411</ele>
        <time>2024-06-24T14:45:44.993Z</time>
      </trkpt>
      <trkpt lat="43.02241" lon="1.08243">
        <ele>411</ele>
        <time>2024-06-24T14:45:45.993Z</time>
      </trkpt>
      <trkpt lat="43.02241" lon="1.08244">
        <ele>410.8</ele>
        <time>2024-06-24T14:45:46.993Z</time>
      </trkpt>
      <trkpt lat="43.02241" lon="1.08246">
        <ele>410.2</ele>
        <time>2024-06-24T14:45:47.993Z</time>
      </trkpt>
      <trkpt lat="43.02242" lon="1.08247">
        <ele>410.2</ele>
        <time>2024-06-24T14:45:48.993Z</time>
      </trkpt>
      <trkpt lat="43.02242" lon="1.08249">
        <ele>410.2</ele>
        <time>2024-06-24T14:45:49.993Z</time>
      </trkpt>
      <trkpt lat="43.02242" lon="1.0825">
        <ele>410</ele>
        <time>2024-06-24T14:45:50.993Z</time>
      </trkpt>
      <trkpt lat="43.02243" lon="1.08251">
        <ele>409.4</ele>
        <time>2024-06-24T14:45:51.993Z</time>
      </trkpt>
      <trkpt lat="43.02245" lon="1.08252">
        <ele>409.4</ele>
        <time>2024-06-24T14:45:52.993Z</time>
      </trkpt>
      <trkpt lat="43.02245" lon="1.08252">
        <ele>409.4</ele>
        <time>2024-06-24T14:45:53.993Z</time>
      </trkpt>
      <trkpt lat="43.02245" lon="1.08254">
        <ele>409.4</ele>
        <time>2024-06-24T14:45:54.993Z</time>
      </trkpt>
      <trkpt lat="43.02245" lon="1.08255">
        <ele>409</ele>
        <time>2024-06-24T14:45:55.993Z</time>
      </trkpt>
      <trkpt lat="43.02245" lon="1.08257">
        <ele>409</ele>
        <time>2024-06-24T14:45:56.993Z</time>
      </trkpt>
      <trkpt lat="43.02246" lon="1.08258">
        <ele>408.6</ele>
        <time>2024-06-24T14:45:57.993Z</time>
      </trkpt>
      <trkpt lat="43.02247" lon="1.08259">
        <ele>408.4</ele>
        <time>2024-06-24T14:45:58.993Z</time>
      </trkpt>
      <trkpt lat="43.02248" lon="1.0826">
        <ele>408.4</ele>
        <time>2024-06-24T14:45:59.993Z</time>
      </trkpt>
      <trkpt lat="43.02248" lon="1.08262">
        <ele>408.2</ele>
        <time>2024-06-24T14:46:00.993Z</time>
      </trkpt>
      <trkpt lat="43.02249" lon="1.08264">
        <ele>408.2</ele>
        <time>2024-06-24T14:46:01.993Z</time>
      </trkpt>
      <trkpt lat="43.02249" lon="1.08266">
        <ele>407.6</ele>
        <time>2024-06-24T14:46:02.993Z</time>
      </trkpt>
      <trkpt lat="43.02249" lon="1.08268">
        <ele>407.6</ele>
        <time>2024-06-24T14:46:03.993Z</time>
      </trkpt>
      <trkpt lat="43.02249" lon="1.0827">
        <ele>407.2</ele>
        <time>2024-06-24T14:46:04.993Z</time>
      </trkpt>
      <trkpt lat="43.02249" lon="1.08271">
        <ele>406.8</ele>
        <time>2024-06-24T14:46:05.993Z</time>
      </trkpt>
      <trkpt lat="43.02249" lon="1.08273">
        <ele>406.8</ele>
        <time>2024-06-24T14:46:06.993Z</time>
      </trkpt>
      <trkpt lat="43.0225" lon="1.08275">
        <ele>406.2</ele>
        <time>2024-06-24T14:46:07.993Z</time>
      </trkpt>
      <trkpt lat="43.0225" lon="1.08277">
        <ele>406.2</ele>
        <time>2024-06-24T14:46:08.993Z</time>
      </trkpt>
      <trkpt lat="43.02249" lon="1.08278">
        <ele>405.8</ele>
        <time>2024-06-24T14:46:09.993Z</time>
      </trkpt>
      <trkpt lat="43.02249" lon="1.0828">
        <ele>405.8</ele>
        <time>2024-06-24T14:46:10.993Z</time>
      </trkpt>
      <trkpt lat="43.02249" lon="1.08282">
        <ele>405.4</ele>
        <time>2024-06-24T14:46:11.993Z</time>
      </trkpt>
      <trkpt lat="43.0225" lon="1.08284">
        <ele>405</ele>
        <time>2024-06-24T14:46:12.993Z</time>
      </trkpt>
      <trkpt lat="43.0225" lon="1.08286">
        <ele>404.8</ele>
        <time>2024-06-24T14:46:13.993Z</time>
      </trkpt>
      <trkpt lat="43.0225" lon="1.08288">
        <ele>404.4</ele>
        <time>2024-06-24T14:46:14.993Z</time>
      </trkpt>
      <trkpt lat="43.0225" lon="1.08289">
        <ele>404.2</ele>
        <time>2024-06-24T14:46:15.993Z</time>
      </trkpt>
      <trkpt lat="43.0225" lon="1.08291">
        <ele>403.8</ele>
        <time>2024-06-24T14:46:16.993Z</time>
      </trkpt>
      <trkpt lat="43.0225" lon="1.08293">
        <ele>403.6</ele>
        <time>2024-06-24T14:46:17.993Z</time>
      </trkpt>
      <trkpt lat="43.0225" lon="1.08295">
        <ele>403.6</ele>
        <time>2024-06-24T14:46:18.993Z</time>
      </trkpt>
      <trkpt lat="43.0225" lon="1.08296">
        <ele>403</ele>
        <time>2024-06-24T14:46:19.993Z</time>
      </trkpt>
      <trkpt lat="43.02251" lon="1.08297">
        <ele>403</ele>
        <time>2024-06-24T14:46:20.993Z</time>
      </trkpt>
      <trkpt lat="43.02251" lon="1.08299">
        <ele>403</ele>
        <time>2024-06-24T14:46:21.993Z</time>
      </trkpt>
      <trkpt lat="43.02251" lon="1.083">
        <ele>403</ele>
        <time>2024-06-24T14:46:22.993Z</time>
      </trkpt>
      <trkpt lat="43.0225" lon="1.08301">
        <ele>403</ele>
        <time>2024-06-24T14:46:23.993Z</time>
      </trkpt>
      <trkpt lat="43.02249" lon="1.08303">
        <ele>401.2</ele>
        <time>2024-06-24T14:46:24.993Z</time>
      </trkpt>
      <trkpt lat="43.02249" lon="1.08304">
        <ele>400.8</ele>
        <time>2024-06-24T14:46:25.993Z</time>
      </trkpt>
      <trkpt lat="43.02248" lon="1.08305">
        <ele>400.8</ele>
        <time>2024-06-24T14:46:26.993Z</time>
      </trkpt>
      <trkpt lat="43.02248" lon="1.08308">
        <ele>401.2</ele>
        <time>2024-06-24T14:46:27.993Z</time>
      </trkpt>
      <trkpt lat="43.02248" lon="1.08309">
        <ele>401.2</ele>
        <time>2024-06-24T14:46:28.993Z</time>
      </trkpt>
      <trkpt lat="43.02248" lon="1.08311">
        <ele>401.2</ele>
        <time>2024-06-24T14:46:29.993Z</time>
      </trkpt>
      <trkpt lat="43.02247" lon="1.08313">
        <ele>400.8</ele>
        <time>2024-06-24T14:46:30.993Z</time>
      </trkpt>
      <trkpt lat="43.02247" lon="1.08315">
        <ele>400.8</ele>
        <time>2024-06-24T14:46:31.993Z</time>
      </trkpt>
      <trkpt lat="43.02246" lon="1.08315">
        <ele>401.2</ele>
        <time>2024-06-24T14:46:32.993Z</time>
      </trkpt>
      <trkpt lat="43.02245" lon="1.08316">
        <ele>400.6</ele>
        <time>2024-06-24T14:46:33.993Z</time>
      </trkpt>
      <trkpt lat="43.02244" lon="1.08317">
        <ele>400.6</ele>
        <time>2024-06-24T14:46:34.993Z</time>
      </trkpt>
      <trkpt lat="43.02244" lon="1.08318">
        <ele>400.6</ele>
        <time>2024-06-24T14:46:35.993Z</time>
      </trkpt>
      <trkpt lat="43.02244" lon="1.08319">
        <ele>400.2</ele>
        <time>2024-06-24T14:46:36.993Z</time>
      </trkpt>
      <trkpt lat="43.02243" lon="1.0832">
        <ele>400.2</ele>
        <time>2024-06-24T14:46:37.993Z</time>
      </trkpt>
      <trkpt lat="43.02243" lon="1.08321">
        <ele>399.8</ele>
        <time>2024-06-24T14:46:38.993Z</time>
      </trkpt>
      <trkpt lat="43.02242" lon="1.08322">
        <ele>399.6</ele>
        <time>2024-06-24T14:46:39.993Z</time>
      </trkpt>
      <trkpt lat="43.02242" lon="1.08323">
        <ele>399.6</ele>
        <time>2024-06-24T14:46:40.993Z</time>
      </trkpt>
      <trkpt lat="43.02241" lon="1.08324">
        <ele>399.6</ele>
        <time>2024-06-24T14:46:41.993Z</time>
      </trkpt>
      <trkpt lat="43.0224" lon="1.08326">
        <ele>399.2</ele>
        <time>2024-06-24T14:46:42.993Z</time>
      </trkpt>
      <trkpt lat="43.02239" lon="1.08327">
        <ele>399.2</ele>
        <time>2024-06-24T14:46:43.993Z</time>
      </trkpt>
      <trkpt lat="43.02238" lon="1.08328">
        <ele>398.6</ele>
        <time>2024-06-24T14:46:44.993Z</time>
      </trkpt>
      <trkpt lat="43.02238" lon="1.0833">
        <ele>398.6</ele>
        <time>2024-06-24T14:46:45.993Z</time>
      </trkpt>
      <trkpt lat="43.02238" lon="1.08331">
        <ele>398.6</ele>
        <time>2024-06-24T14:46:46.993Z</time>
      </trkpt>
      <trkpt lat="43.02238" lon="1.08333">
        <ele>398.4</ele>
        <time>2024-06-24T14:46:47.993Z</time>
      </trkpt>
      <trkpt lat="43.02239" lon="1.08335">
        <ele>398</ele>
        <time>2024-06-24T14:46:48.993Z</time>
      </trkpt>
      <trkpt lat="43.02239" lon="1.08336">
        <ele>398</ele>
        <time>2024-06-24T14:46:49.993Z</time>
      </trkpt>
      <trkpt lat="43.0224" lon="1.08337">
        <ele>398</ele>
        <time>2024-06-24T14:46:50.993Z</time>
      </trkpt>
      <trkpt lat="43.02242" lon="1.08338">
        <ele>397.8</ele>
        <time>2024-06-24T14:46:51.993Z</time>
      </trkpt>
      <trkpt lat="43.02243" lon="1.08339">
        <ele>397.4</ele>
        <time>2024-06-24T14:46:52.993Z</time>
      </trkpt>
      <trkpt lat="43.02245" lon="1.08339">
        <ele>397.4</ele>
        <time>2024-06-24T14:46:53.993Z</time>
      </trkpt>
      <trkpt lat="43.02245" lon="1.08338">
        <ele>397.6</ele>
        <time>2024-06-24T14:46:54.993Z</time>
      </trkpt>
      <trkpt lat="43.02247" lon="1.08338">
        <ele>397.2</ele>
        <time>2024-06-24T14:46:55.993Z</time>
      </trkpt>
      <trkpt lat="43.02248" lon="1.08337">
        <ele>397.2</ele>
        <time>2024-06-24T14:46:56.993Z</time>
      </trkpt>
      <trkpt lat="43.02249" lon="1.08337">
        <ele>397</ele>
        <time>2024-06-24T14:46:57.993Z</time>
      </trkpt>
      <trkpt lat="43.0225" lon="1.08336">
        <ele>397</ele>
        <time>2024-06-24T14:46:58.993Z</time>
      </trkpt>
      <trkpt lat="43.0225" lon="1.08335">
        <ele>396.6</ele>
        <time>2024-06-24T14:46:59.993Z</time>
      </trkpt>
      <trkpt lat="43.0225" lon="1.08335">
        <ele>396.6</ele>
        <time>2024-06-24T14:47:00.993Z</time>
      </trkpt>
      <trkpt lat="43.0225" lon="1.08335">
        <ele>396.6</ele>
        <time>2024-06-24T14:47:01.993Z</time>
      </trkpt>
      <trkpt lat="43.0225" lon="1.08333">
        <ele>396.4</ele>
        <time>2024-06-24T14:47:04.993Z</time>
      </trkpt>
      <trkpt lat="43.02253" lon="1.08332">
        <ele>396.4</ele>
        <time>2024-06-24T14:47:05.993Z</time>
      </trkpt>
      <trkpt lat="43.02256" lon="1.0833">
        <ele>396.4</ele>
        <time>2024-06-24T14:47:06.993Z</time>
      </trkpt>
      <trkpt lat="43.02259" lon="1.0833">
        <ele>395.8</ele>
        <time>2024-06-24T14:47:07.993Z</time>
      </trkpt>
      <trkpt lat="43.02261" lon="1.08329">
        <ele>395.8</ele>
        <time>2024-06-24T14:47:08.993Z</time>
      </trkpt>
      <trkpt lat="43.02264" lon="1.08329">
        <ele>395.6</ele>
        <time>2024-06-24T14:47:09.993Z</time>
      </trkpt>
      <trkpt lat="43.02266" lon="1.08329">
        <ele>395.4</ele>
        <time>2024-06-24T14:47:10.993Z</time>
      </trkpt>
      <trkpt lat="43.02269" lon="1.08329">
        <ele>395</ele>
        <time>2024-06-24T14:47:11.993Z</time>
      </trkpt>
      <trkpt lat="43.02271" lon="1.08328">
        <ele>394.8</ele>
        <time>2024-06-24T14:47:12.993Z</time>
      </trkpt>
      <trkpt lat="43.02274" lon="1.08327">
        <ele>394.6</ele>
        <time>2024-06-24T14:47:13.993Z</time>
      </trkpt>
      <trkpt lat="43.02276" lon="1.08327">
        <ele>394.2</ele>
        <time>2024-06-24T14:47:14.993Z</time>
      </trkpt>
      <trkpt lat="43.02278" lon="1.08328">
        <ele>394.2</ele>
        <time>2024-06-24T14:47:15.993Z</time>
      </trkpt>
      <trkpt lat="43.0228" lon="1.08329">
        <ele>394</ele>
        <time>2024-06-24T14:47:16.993Z</time>
      </trkpt>
      <trkpt lat="43.02282" lon="1.08331">
        <ele>394</ele>
        <time>2024-06-24T14:47:17.993Z</time>
      </trkpt>
      <trkpt lat="43.02282" lon="1.08332">
        <ele>393.4</ele>
        <time>2024-06-24T14:47:18.993Z</time>
      </trkpt>
      <trkpt lat="43.02284" lon="1.08335">
        <ele>393.4</ele>
        <time>2024-06-24T14:47:19.993Z</time>
      </trkpt>
      <trkpt lat="43.02285" lon="1.08337">
        <ele>393</ele>
        <time>2024-06-24T14:47:20.993Z</time>
      </trkpt>
      <trkpt lat="43.02287" lon="1.0834">
        <ele>392.8</ele>
        <time>2024-06-24T14:47:21.993Z</time>
      </trkpt>
      <trkpt lat="43.02288" lon="1.08343">
        <ele>392.8</ele>
        <time>2024-06-24T14:47:22.993Z</time>
      </trkpt>
      <trkpt lat="43.02289" lon="1.08346">
        <ele>392.4</ele>
        <time>2024-06-24T14:47:23.993Z</time>
      </trkpt>
      <trkpt lat="43.0229" lon="1.0835">
        <ele>391.8</ele>
        <time>2024-06-24T14:47:24.993Z</time>
      </trkpt>
      <trkpt lat="43.02292" lon="1.08354">
        <ele>391.4</ele>
        <time>2024-06-24T14:47:25.993Z</time>
      </trkpt>
      <trkpt lat="43.02294" lon="1.08358">
        <ele>391.2</ele>
        <time>2024-06-24T14:47:26.993Z</time>
      </trkpt>
      <trkpt lat="43.02296" lon="1.08363">
        <ele>391.2</ele>
        <time>2024-06-24T14:47:27.993Z</time>
      </trkpt>
      <trkpt lat="43.02298" lon="1.08367">
        <ele>390.6</ele>
        <time>2024-06-24T14:47:28.993Z</time>
      </trkpt>
      <trkpt lat="43.023" lon="1.0837">
        <ele>390.2</ele>
        <time>2024-06-24T14:47:29.993Z</time>
      </trkpt>
      <trkpt lat="43.02301" lon="1.08374">
        <ele>390</ele>
        <time>2024-06-24T14:47:30.993Z</time>
      </trkpt>
      <trkpt lat="43.02302" lon="1.08377">
        <ele>390</ele>
        <time>2024-06-24T14:47:31.993Z</time>
      </trkpt>
      <trkpt lat="43.02303" lon="1.08381">
        <ele>389.4</ele>
        <time>2024-06-24T14:47:32.993Z</time>
      </trkpt>
      <trkpt lat="43.02305" lon="1.08385">
        <ele>389</ele>
        <time>2024-06-24T14:47:33.993Z</time>
      </trkpt>
      <trkpt lat="43.02308" lon="1.08393">
        <ele>389.4</ele>
        <time>2024-06-24T14:47:34.993Z</time>
      </trkpt>
      <trkpt lat="43.0231" lon="1.08398">
        <ele>389.4</ele>
        <time>2024-06-24T14:47:35.993Z</time>
      </trkpt>
      <trkpt lat="43.02313" lon="1.08404">
        <ele>388.4</ele>
        <time>2024-06-24T14:47:36.993Z</time>
      </trkpt>
      <trkpt lat="43.02315" lon="1.08408">
        <ele>388.2</ele>
        <time>2024-06-24T14:47:37.993Z</time>
      </trkpt>
      <trkpt lat="43.02316" lon="1.08411">
        <ele>388</ele>
        <time>2024-06-24T14:47:38.993Z</time>
      </trkpt>
      <trkpt lat="43.02318" lon="1.08415">
        <ele>388</ele>
        <time>2024-06-24T14:47:39.993Z</time>
      </trkpt>
      <trkpt lat="43.02321" lon="1.08416">
        <ele>386.8</ele>
        <time>2024-06-24T14:47:40.993Z</time>
      </trkpt>
      <trkpt lat="43.02324" lon="1.08421">
        <ele>386.8</ele>
        <time>2024-06-24T14:47:41.993Z</time>
      </trkpt>
      <trkpt lat="43.02327" lon="1.08424">
        <ele>386.8</ele>
        <time>2024-06-24T14:47:42.993Z</time>
      </trkpt>
      <trkpt lat="43.0233" lon="1.08428">
        <ele>386.2</ele>
        <time>2024-06-24T14:47:43.993Z</time>
      </trkpt>
      <trkpt lat="43.02332" lon="1.08429">
        <ele>386.2</ele>
        <time>2024-06-24T14:47:44.993Z</time>
      </trkpt>
      <trkpt lat="43.02338" lon="1.08433">
        <ele>386.2</ele>
        <time>2024-06-24T14:47:45.993Z</time>
      </trkpt>
      <trkpt lat="43.02342" lon="1.08437">
        <ele>384.8</ele>
        <time>2024-06-24T14:47:46.993Z</time>
      </trkpt>
      <trkpt lat="43.02346" lon="1.0844">
        <ele>384.8</ele>
        <time>2024-06-24T14:47:47.993Z</time>
      </trkpt>
      <trkpt lat="43.0235" lon="1.08443">
        <ele>384.4</ele>
        <time>2024-06-24T14:47:48.993Z</time>
      </trkpt>
      <trkpt lat="43.02354" lon="1.08447">
        <ele>384.6</ele>
        <time>2024-06-24T14:47:49.993Z</time>
      </trkpt>
      <trkpt lat="43.02358" lon="1.0845">
        <ele>384.4</ele>
        <time>2024-06-24T14:47:50.993Z</time>
      </trkpt>
      <trkpt lat="43.02362" lon="1.08453">
        <ele>384.2</ele>
        <time>2024-06-24T14:47:51.993Z</time>
      </trkpt>
      <trkpt lat="43.02365" lon="1.08455">
        <ele>383.6</ele>
        <time>2024-06-24T14:47:52.993Z</time>
      </trkpt>
      <trkpt lat="43.02367" lon="1.08458">
        <ele>383.2</ele>
        <time>2024-06-24T14:47:53.993Z</time>
      </trkpt>
      <trkpt lat="43.02369" lon="1.08461">
        <ele>383.2</ele>
        <time>2024-06-24T14:47:54.993Z</time>
      </trkpt>
      <trkpt lat="43.02372" lon="1.08463">
        <ele>383.2</ele>
        <time>2024-06-24T14:47:55.993Z</time>
      </trkpt>
      <trkpt lat="43.02375" lon="1.08464">
        <ele>382.8</ele>
        <time>2024-06-24T14:47:56.993Z</time>
      </trkpt>
      <trkpt lat="43.02377" lon="1.08466">
        <ele>382.8</ele>
        <time>2024-06-24T14:47:57.993Z</time>
      </trkpt>
      <trkpt lat="43.0238" lon="1.08469">
        <ele>382.4</ele>
        <time>2024-06-24T14:47:58.993Z</time>
      </trkpt>
      <trkpt lat="43.02383" lon="1.08472">
        <ele>382</ele>
        <time>2024-06-24T14:47:59.993Z</time>
      </trkpt>
      <trkpt lat="43.02386" lon="1.08475">
        <ele>381.6</ele>
        <time>2024-06-24T14:48:00.993Z</time>
      </trkpt>
      <trkpt lat="43.02389" lon="1.08478">
        <ele>381.6</ele>
        <time>2024-06-24T14:48:01.993Z</time>
      </trkpt>
      <trkpt lat="43.02392" lon="1.08482">
        <ele>381.6</ele>
        <time>2024-06-24T14:48:02.993Z</time>
      </trkpt>
      <trkpt lat="43.02395" lon="1.08485">
        <ele>381.2</ele>
        <time>2024-06-24T14:48:03.993Z</time>
      </trkpt>
      <trkpt lat="43.02398" lon="1.08489">
        <ele>381.2</ele>
        <time>2024-06-24T14:48:04.993Z</time>
      </trkpt>
      <trkpt lat="43.02401" lon="1.08492">
        <ele>381</ele>
        <time>2024-06-24T14:48:05.993Z</time>
      </trkpt>
      <trkpt lat="43.02404" lon="1.08497">
        <ele>381</ele>
        <time>2024-06-24T14:48:06.993Z</time>
      </trkpt>
      <trkpt lat="43.02406" lon="1.08501">
        <ele>381</ele>
        <time>2024-06-24T14:48:07.993Z</time>
      </trkpt>
      <trkpt lat="43.02409" lon="1.08505">
        <ele>380.6</ele>
        <time>2024-06-24T14:48:08.993Z</time>
      </trkpt>
      <trkpt lat="43.02412" lon="1.0851">
        <ele>380.8</ele>
        <time>2024-06-24T14:48:09.993Z</time>
      </trkpt>
      <trkpt lat="43.02415" lon="1.08514">
        <ele>380.6</ele>
        <time>2024-06-24T14:48:10.993Z</time>
      </trkpt>
      <trkpt lat="43.02418" lon="1.08518">
        <ele>380.6</ele>
        <time>2024-06-24T14:48:11.993Z</time>
      </trkpt>
      <trkpt lat="43.0242" lon="1.08522">
        <ele>380</ele>
        <time>2024-06-24T14:48:12.993Z</time>
      </trkpt>
      <trkpt lat="43.02423" lon="1.08525">
        <ele>379.4</ele>
        <time>2024-06-24T14:48:13.993Z</time>
      </trkpt>
      <trkpt lat="43.02426" lon="1.08529">
        <ele>378.6</ele>
        <time>2024-06-24T14:48:14.993Z</time>
      </trkpt>
      <trkpt lat="43.02428" lon="1.08532">
        <ele>379</ele>
        <time>2024-06-24T14:48:15.993Z</time>
      </trkpt>
      <trkpt lat="43.02431" lon="1.08537">
        <ele>378.6</ele>
        <time>2024-06-24T14:48:16.993Z</time>
      </trkpt>
      <trkpt lat="43.02434" lon="1.08541">
        <ele>378.2</ele>
        <time>2024-06-24T14:48:17.993Z</time>
      </trkpt>
      <trkpt lat="43.02437" lon="1.08544">
        <ele>377.6</ele>
        <time>2024-06-24T14:48:18.993Z</time>
      </trkpt>
      <trkpt lat="43.0244" lon="1.08548">
        <ele>378.4</ele>
        <time>2024-06-24T14:48:19.993Z</time>
      </trkpt>
      <trkpt lat="43.02443" lon="1.08551">
        <ele>377.8</ele>
        <time>2024-06-24T14:48:20.993Z</time>
      </trkpt>
      <trkpt lat="43.02447" lon="1.08554">
        <ele>377.8</ele>
        <time>2024-06-24T14:48:21.993Z</time>
      </trkpt>
      <trkpt lat="43.0245" lon="1.08557">
        <ele>377.8</ele>
        <time>2024-06-24T14:48:22.993Z</time>
      </trkpt>
      <trkpt lat="43.02453" lon="1.0856">
        <ele>377.8</ele>
        <time>2024-06-24T14:48:23.993Z</time>
      </trkpt>
      <trkpt lat="43.02457" lon="1.08562">
        <ele>377.8</ele>
        <time>2024-06-24T14:48:24.993Z</time>
      </trkpt>
      <trkpt lat="43.0246" lon="1.08565">
        <ele>377.8</ele>
        <time>2024-06-24T14:48:25.993Z</time>
      </trkpt>
      <trkpt lat="43.02463" lon="1.08567">
        <ele>377.2</ele>
        <time>2024-06-24T14:48:26.993Z</time>
      </trkpt>
      <trkpt lat="43.02466" lon="1.0857">
        <ele>377</ele>
        <time>2024-06-24T14:48:27.993Z</time>
      </trkpt>
      <trkpt lat="43.0247" lon="1.08571">
        <ele>376.6</ele>
        <time>2024-06-24T14:48:28.993Z</time>
      </trkpt>
      <trkpt lat="43.02473" lon="1.08572">
        <ele>376.6</ele>
        <time>2024-06-24T14:48:29.993Z</time>
      </trkpt>
      <trkpt lat="43.02476" lon="1.08573">
        <ele>376.6</ele>
        <time>2024-06-24T14:48:30.993Z</time>
      </trkpt>
      <trkpt lat="43.02479" lon="1.08573">
        <ele>376.6</ele>
        <time>2024-06-24T14:48:31.993Z</time>
      </trkpt>
      <trkpt lat="43.02482" lon="1.08573">
        <ele>376.4</ele>
        <time>2024-06-24T14:48:32.993Z</time>
      </trkpt>
      <trkpt lat="43.02486" lon="1.08572">
        <ele>376.4</ele>
        <time>2024-06-24T14:48:33.993Z</time>
      </trkpt>
      <trkpt lat="43.02489" lon="1.08573">
        <ele>376.4</ele>
        <time>2024-06-24T14:48:34.993Z</time>
      </trkpt>
      <trkpt lat="43.02493" lon="1.08573">
        <ele>376.4</ele>
        <time>2024-06-24T14:48:35.993Z</time>
      </trkpt>
      <trkpt lat="43.02496" lon="1.08573">
        <ele>376.4</ele>
        <time>2024-06-24T14:48:36.993Z</time>
      </trkpt>
      <trkpt lat="43.025" lon="1.08574">
        <ele>376.4</ele>
        <time>2024-06-24T14:48:37.993Z</time>
      </trkpt>
      <trkpt lat="43.02504" lon="1.08574">
        <ele>376.4</ele>
        <time>2024-06-24T14:48:38.993Z</time>
      </trkpt>
      <trkpt lat="43.02508" lon="1.08574">
        <ele>376.4</ele>
        <time>2024-06-24T14:48:39.993Z</time>
      </trkpt>
      <trkpt lat="43.02512" lon="1.08575">
        <ele>376.4</ele>
        <time>2024-06-24T14:48:40.993Z</time>
      </trkpt>
      <trkpt lat="43.02516" lon="1.08575">
        <ele>376.4</ele>
        <time>2024-06-24T14:48:41.993Z</time>
      </trkpt>
      <trkpt lat="43.0252" lon="1.08575">
        <ele>376.4</ele>
        <time>2024-06-24T14:48:42.993Z</time>
      </trkpt>
      <trkpt lat="43.02524" lon="1.08575">
        <ele>376.6</ele>
        <time>2024-06-24T14:48:43.993Z</time>
      </trkpt>
      <trkpt lat="43.02528" lon="1.08575">
        <ele>376.4</ele>
        <time>2024-06-24T14:48:44.993Z</time>
      </trkpt>
      <trkpt lat="43.02532" lon="1.08575">
        <ele>376.4</ele>
        <time>2024-06-24T14:48:45.993Z</time>
      </trkpt>
      <trkpt lat="43.02537" lon="1.08575">
        <ele>376.4</ele>
        <time>2024-06-24T14:48:46.993Z</time>
      </trkpt>
      <trkpt lat="43.0254" lon="1.08575">
        <ele>376</ele>
        <time>2024-06-24T14:48:47.993Z</time>
      </trkpt>
      <trkpt lat="43.02544" lon="1.08575">
        <ele>376</ele>
        <time>2024-06-24T14:48:48.993Z</time>
      </trkpt>
      <trkpt lat="43.02548" lon="1.08575">
        <ele>376</ele>
        <time>2024-06-24T14:48:49.993Z</time>
      </trkpt>
      <trkpt lat="43.02552" lon="1.08575">
        <ele>376</ele>
        <time>2024-06-24T14:48:50.993Z</time>
      </trkpt>
      <trkpt lat="43.02556" lon="1.08574">
        <ele>376</ele>
        <time>2024-06-24T14:48:51.993Z</time>
      </trkpt>
      <trkpt lat="43.02559" lon="1.08574">
        <ele>375.8</ele>
        <time>2024-06-24T14:48:52.993Z</time>
      </trkpt>
      <trkpt lat="43.02563" lon="1.08574">
        <ele>375.8</ele>
        <time>2024-06-24T14:48:53.993Z</time>
      </trkpt>
      <trkpt lat="43.02567" lon="1.08574">
        <ele>375.6</ele>
        <time>2024-06-24T14:48:54.993Z</time>
      </trkpt>
      <trkpt lat="43.02572" lon="1.08575">
        <ele>375.6</ele>
        <time>2024-06-24T14:48:55.993Z</time>
      </trkpt>
      <trkpt lat="43.02576" lon="1.08574">
        <ele>375.2</ele>
        <time>2024-06-24T14:48:56.993Z</time>
      </trkpt>
      <trkpt lat="43.0258" lon="1.08574">
        <ele>375</ele>
        <time>2024-06-24T14:48:57.993Z</time>
      </trkpt>
      <trkpt lat="43.02585" lon="1.08574">
        <ele>374.8</ele>
        <time>2024-06-24T14:48:58.993Z</time>
      </trkpt>
      <trkpt lat="43.0259" lon="1.08573">
        <ele>374.8</ele>
        <time>2024-06-24T14:48:59.993Z</time>
      </trkpt>
      <trkpt lat="43.02596" lon="1.08574">
        <ele>374.4</ele>
        <time>2024-06-24T14:49:00.993Z</time>
      </trkpt>
      <trkpt lat="43.02601" lon="1.08573">
        <ele>374</ele>
        <time>2024-06-24T14:49:01.993Z</time>
      </trkpt>
      <trkpt lat="43.02607" lon="1.08573">
        <ele>374</ele>
        <time>2024-06-24T14:49:02.993Z</time>
      </trkpt>
      <trkpt lat="43.02612" lon="1.08572">
        <ele>374.2</ele>
        <time>2024-06-24T14:49:03.993Z</time>
      </trkpt>
      <trkpt lat="43.02618" lon="1.08571">
        <ele>373.8</ele>
        <time>2024-06-24T14:49:04.993Z</time>
      </trkpt>
      <trkpt lat="43.02624" lon="1.0857">
        <ele>373.8</ele>
        <time>2024-06-24T14:49:05.993Z</time>
      </trkpt>
      <trkpt lat="43.02629" lon="1.08569">
        <ele>373.4</ele>
        <time>2024-06-24T14:49:06.993Z</time>
      </trkpt>
      <trkpt lat="43.02636" lon="1.08569">
        <ele>373.4</ele>
        <time>2024-06-24T14:49:07.993Z</time>
      </trkpt>
      <trkpt lat="43.02642" lon="1.08567">
        <ele>373.2</ele>
        <time>2024-06-24T14:49:08.993Z</time>
      </trkpt>
      <trkpt lat="43.02647" lon="1.08566">
        <ele>373</ele>
        <time>2024-06-24T14:49:09.993Z</time>
      </trkpt>
      <trkpt lat="43.02654" lon="1.08565">
        <ele>372.8</ele>
        <time>2024-06-24T14:49:10.993Z</time>
      </trkpt>
      <trkpt lat="43.02661" lon="1.08565">
        <ele>372.4</ele>
        <time>2024-06-24T14:49:11.993Z</time>
      </trkpt>
      <trkpt lat="43.02667" lon="1.08563">
        <ele>372.2</ele>
        <time>2024-06-24T14:49:12.993Z</time>
      </trkpt>
      <trkpt lat="43.02674" lon="1.08563">
        <ele>372</ele>
        <time>2024-06-24T14:49:13.993Z</time>
      </trkpt>
      <trkpt lat="43.02681" lon="1.08562">
        <ele>371.6</ele>
        <time>2024-06-24T14:49:14.993Z</time>
      </trkpt>
      <trkpt lat="43.02688" lon="1.08561">
        <ele>371.6</ele>
        <time>2024-06-24T14:49:15.993Z</time>
      </trkpt>
      <trkpt lat="43.02695" lon="1.0856">
        <ele>371.2</ele>
        <time>2024-06-24T14:49:16.993Z</time>
      </trkpt>
      <trkpt lat="43.02703" lon="1.08559">
        <ele>371</ele>
        <time>2024-06-24T14:49:17.993Z</time>
      </trkpt>
      <trkpt lat="43.02709" lon="1.08558">
        <ele>370.6</ele>
        <time>2024-06-24T14:49:18.993Z</time>
      </trkpt>
      <trkpt lat="43.02716" lon="1.08557">
        <ele>370.4</ele>
        <time>2024-06-24T14:49:19.993Z</time>
      </trkpt>
      <trkpt lat="43.02722" lon="1.08556">
        <ele>370.4</ele>
        <time>2024-06-24T14:49:20.993Z</time>
      </trkpt>
      <trkpt lat="43.02729" lon="1.08555">
        <ele>370.4</ele>
        <time>2024-06-24T14:49:21.993Z</time>
      </trkpt>
      <trkpt lat="43.02734" lon="1.08554">
        <ele>370</ele>
        <time>2024-06-24T14:49:22.993Z</time>
      </trkpt>
      <trkpt lat="43.0274" lon="1.08552">
        <ele>369.8</ele>
        <time>2024-06-24T14:49:23.993Z</time>
      </trkpt>
      <trkpt lat="43.02746" lon="1.0855">
        <ele>369.4</ele>
        <time>2024-06-24T14:49:24.993Z</time>
      </trkpt>
      <trkpt lat="43.02752" lon="1.08548">
        <ele>369.4</ele>
        <time>2024-06-24T14:49:25.993Z</time>
      </trkpt>
      <trkpt lat="43.02758" lon="1.08547">
        <ele>369.4</ele>
        <time>2024-06-24T14:49:26.993Z</time>
      </trkpt>
      <trkpt lat="43.02764" lon="1.08544">
        <ele>369.4</ele>
        <time>2024-06-24T14:49:27.993Z</time>
      </trkpt>
      <trkpt lat="43.0277" lon="1.08542">
        <ele>369.4</ele>
        <time>2024-06-24T14:49:28.993Z</time>
      </trkpt>
      <trkpt lat="43.02775" lon="1.0854">
        <ele>369.4</ele>
        <time>2024-06-24T14:49:29.993Z</time>
      </trkpt>
      <trkpt lat="43.0278" lon="1.08537">
        <ele>369</ele>
        <time>2024-06-24T14:49:30.993Z</time>
      </trkpt>
      <trkpt lat="43.02784" lon="1.08536">
        <ele>368.6</ele>
        <time>2024-06-24T14:49:31.993Z</time>
      </trkpt>
      <trkpt lat="43.02787" lon="1.08533">
        <ele>368.2</ele>
        <time>2024-06-24T14:49:32.993Z</time>
      </trkpt>
      <trkpt lat="43.0279" lon="1.08529">
        <ele>367.8</ele>
        <time>2024-06-24T14:49:33.993Z</time>
      </trkpt>
      <trkpt lat="43.02792" lon="1.08526">
        <ele>367.4</ele>
        <time>2024-06-24T14:49:34.993Z</time>
      </trkpt>
      <trkpt lat="43.02795" lon="1.08521">
        <ele>367.4</ele>
        <time>2024-06-24T14:49:35.993Z</time>
      </trkpt>
      <trkpt lat="43.02797" lon="1.08517">
        <ele>367.4</ele>
        <time>2024-06-24T14:49:36.993Z</time>
      </trkpt>
      <trkpt lat="43.02799" lon="1.08513">
        <ele>367</ele>
        <time>2024-06-24T14:49:37.993Z</time>
      </trkpt>
      <trkpt lat="43.02801" lon="1.08508">
        <ele>367</ele>
        <time>2024-06-24T14:49:38.993Z</time>
      </trkpt>
      <trkpt lat="43.02803" lon="1.08503">
        <ele>367.2</ele>
        <time>2024-06-24T14:49:39.993Z</time>
      </trkpt>
      <trkpt lat="43.02805" lon="1.08498">
        <ele>367.2</ele>
        <time>2024-06-24T14:49:40.993Z</time>
      </trkpt>
      <trkpt lat="43.02808" lon="1.08494">
        <ele>367.2</ele>
        <time>2024-06-24T14:49:41.993Z</time>
      </trkpt>
      <trkpt lat="43.02811" lon="1.08489">
        <ele>366.8</ele>
        <time>2024-06-24T14:49:42.993Z</time>
      </trkpt>
      <trkpt lat="43.02814" lon="1.08485">
        <ele>366.6</ele>
        <time>2024-06-24T14:49:43.993Z</time>
      </trkpt>
      <trkpt lat="43.02816" lon="1.0848">
        <ele>366.8</ele>
        <time>2024-06-24T14:49:44.993Z</time>
      </trkpt>
      <trkpt lat="43.02819" lon="1.08475">
        <ele>366.8</ele>
        <time>2024-06-24T14:49:45.993Z</time>
      </trkpt>
      <trkpt lat="43.02822" lon="1.0847">
        <ele>366.8</ele>
        <time>2024-06-24T14:49:46.993Z</time>
      </trkpt>
      <trkpt lat="43.02824" lon="1.08464">
        <ele>366.6</ele>
        <time>2024-06-24T14:49:47.993Z</time>
      </trkpt>
      <trkpt lat="43.02827" lon="1.0846">
        <ele>366.6</ele>
        <time>2024-06-24T14:49:48.993Z</time>
      </trkpt>
      <trkpt lat="43.02827" lon="1.0846">
        <ele>366.6</ele>
        <time>2024-06-24T14:49:49.993Z</time>
      </trkpt>
      <trkpt lat="43.0283" lon="1.08455">
        <ele>366.6</ele>
        <time>2024-06-24T14:49:50.993Z</time>
      </trkpt>
      <trkpt lat="43.02832" lon="1.08451">
        <ele>366.6</ele>
        <time>2024-06-24T14:49:51.993Z</time>
      </trkpt>
      <trkpt lat="43.02835" lon="1.08447">
        <ele>366.6</ele>
        <time>2024-06-24T14:49:52.993Z</time>
      </trkpt>
      <trkpt lat="43.02838" lon="1.08443">
        <ele>366.8</ele>
        <time>2024-06-24T14:49:53.993Z</time>
      </trkpt>
      <trkpt lat="43.02841" lon="1.08438">
        <ele>366.2</ele>
        <time>2024-06-24T14:49:54.993Z</time>
      </trkpt>
      <trkpt lat="43.02844" lon="1.08434">
        <ele>366.2</ele>
        <time>2024-06-24T14:49:55.993Z</time>
      </trkpt>
      <trkpt lat="43.02846" lon="1.08431">
        <ele>366</ele>
        <time>2024-06-24T14:49:56.993Z</time>
      </trkpt>
      <trkpt lat="43.02849" lon="1.08426">
        <ele>366</ele>
        <time>2024-06-24T14:49:57.993Z</time>
      </trkpt>
      <trkpt lat="43.02852" lon="1.08422">
        <ele>366.2</ele>
        <time>2024-06-24T14:49:58.993Z</time>
      </trkpt>
      <trkpt lat="43.02857" lon="1.08416">
        <ele>366.4</ele>
        <time>2024-06-24T14:49:59.993Z</time>
      </trkpt>
      <trkpt lat="43.02859" lon="1.08414">
        <ele>366.2</ele>
        <time>2024-06-24T14:50:00.993Z</time>
      </trkpt>
      <trkpt lat="43.02861" lon="1.08409">
        <ele>365.8</ele>
        <time>2024-06-24T14:50:01.993Z</time>
      </trkpt>
      <trkpt lat="43.02864" lon="1.08405">
        <ele>365.6</ele>
        <time>2024-06-24T14:50:02.993Z</time>
      </trkpt>
      <trkpt lat="43.02868" lon="1.08401">
        <ele>365.6</ele>
        <time>2024-06-24T14:50:03.993Z</time>
      </trkpt>
      <trkpt lat="43.02871" lon="1.08397">
        <ele>365.6</ele>
        <time>2024-06-24T14:50:04.993Z</time>
      </trkpt>
      <trkpt lat="43.02874" lon="1.08393">
        <ele>365.6</ele>
        <time>2024-06-24T14:50:05.993Z</time>
      </trkpt>
      <trkpt lat="43.02877" lon="1.08389">
        <ele>365.2</ele>
        <time>2024-06-24T14:50:06.993Z</time>
      </trkpt>
      <trkpt lat="43.02881" lon="1.08386">
        <ele>365</ele>
        <time>2024-06-24T14:50:07.993Z</time>
      </trkpt>
      <trkpt lat="43.02884" lon="1.08381">
        <ele>365</ele>
        <time>2024-06-24T14:50:08.993Z</time>
      </trkpt>
      <trkpt lat="43.02888" lon="1.08378">
        <ele>365</ele>
        <time>2024-06-24T14:50:09.993Z</time>
      </trkpt>
      <trkpt lat="43.02892" lon="1.08375">
        <ele>364.6</ele>
        <time>2024-06-24T14:50:10.993Z</time>
      </trkpt>
      <trkpt lat="43.02895" lon="1.08371">
        <ele>364.6</ele>
        <time>2024-06-24T14:50:11.993Z</time>
      </trkpt>
      <trkpt lat="43.02899" lon="1.08367">
        <ele>364.6</ele>
        <time>2024-06-24T14:50:12.993Z</time>
      </trkpt>
      <trkpt lat="43.02903" lon="1.08363">
        <ele>364.6</ele>
        <time>2024-06-24T14:50:13.993Z</time>
      </trkpt>
      <trkpt lat="43.02908" lon="1.0836">
        <ele>364.2</ele>
        <time>2024-06-24T14:50:14.993Z</time>
      </trkpt>
      <trkpt lat="43.02912" lon="1.08357">
        <ele>364.2</ele>
        <time>2024-06-24T14:50:15.993Z</time>
      </trkpt>
      <trkpt lat="43.02917" lon="1.08355">
        <ele>364.2</ele>
        <time>2024-06-24T14:50:16.993Z</time>
      </trkpt>
      <trkpt lat="43.02922" lon="1.08352">
        <ele>363.8</ele>
        <time>2024-06-24T14:50:17.993Z</time>
      </trkpt>
      <trkpt lat="43.02927" lon="1.0835">
        <ele>363.8</ele>
        <time>2024-06-24T14:50:18.993Z</time>
      </trkpt>
      <trkpt lat="43.02932" lon="1.08347">
        <ele>363.8</ele>
        <time>2024-06-24T14:50:19.993Z</time>
      </trkpt>
      <trkpt lat="43.02937" lon="1.08344">
        <ele>363.8</ele>
        <time>2024-06-24T14:50:20.993Z</time>
      </trkpt>
      <trkpt lat="43.02942" lon="1.08341">
        <ele>363.8</ele>
        <time>2024-06-24T14:50:21.993Z</time>
      </trkpt>
      <trkpt lat="43.02947" lon="1.08339">
        <ele>363.4</ele>
        <time>2024-06-24T14:50:22.993Z</time>
      </trkpt>
      <trkpt lat="43.02952" lon="1.08336">
        <ele>363.4</ele>
        <time>2024-06-24T14:50:23.993Z</time>
      </trkpt>
      <trkpt lat="43.02957" lon="1.08333">
        <ele>363.4</ele>
        <time>2024-06-24T14:50:24.993Z</time>
      </trkpt>
      <trkpt lat="43.02962" lon="1.08331">
        <ele>363</ele>
        <time>2024-06-24T14:50:25.993Z</time>
      </trkpt>
      <trkpt lat="43.02966" lon="1.08329">
        <ele>363.4</ele>
        <time>2024-06-24T14:50:26.993Z</time>
      </trkpt>
      <trkpt lat="43.0297" lon="1.08326">
        <ele>363</ele>
        <time>2024-06-24T14:50:27.993Z</time>
      </trkpt>
      <trkpt lat="43.02974" lon="1.08324">
        <ele>363</ele>
        <time>2024-06-24T14:50:28.993Z</time>
      </trkpt>
      <trkpt lat="43.02978" lon="1.08324">
        <ele>363.6</ele>
        <time>2024-06-24T14:50:29.993Z</time>
      </trkpt>
      <trkpt lat="43.02981" lon="1.08329">
        <ele>363.2</ele>
        <time>2024-06-24T14:50:30.993Z</time>
      </trkpt>
      <trkpt lat="43.02985" lon="1.08332">
        <ele>362.8</ele>
        <time>2024-06-24T14:50:31.993Z</time>
      </trkpt>
      <trkpt lat="43.02988" lon="1.08338">
        <ele>362.4</ele>
        <time>2024-06-24T14:50:32.993Z</time>
      </trkpt>
      <trkpt lat="43.02991" lon="1.08344">
        <ele>362.2</ele>
        <time>2024-06-24T14:50:33.993Z</time>
      </trkpt>
      <trkpt lat="43.02994" lon="1.0835">
        <ele>361.8</ele>
        <time>2024-06-24T14:50:34.993Z</time>
      </trkpt>
      <trkpt lat="43.02999" lon="1.08356">
        <ele>361.6</ele>
        <time>2024-06-24T14:50:35.993Z</time>
      </trkpt>
      <trkpt lat="43.03002" lon="1.08363">
        <ele>361.2</ele>
        <time>2024-06-24T14:50:36.993Z</time>
      </trkpt>
      <trkpt lat="43.03006" lon="1.08369">
        <ele>360.8</ele>
        <time>2024-06-24T14:50:37.993Z</time>
      </trkpt>
      <trkpt lat="43.03011" lon="1.08375">
        <ele>360.8</ele>
        <time>2024-06-24T14:50:38.993Z</time>
      </trkpt>
      <trkpt lat="43.03013" lon="1.0838">
        <ele>360.4</ele>
        <time>2024-06-24T14:50:39.993Z</time>
      </trkpt>
      <trkpt lat="43.03016" lon="1.08385">
        <ele>360.4</ele>
        <time>2024-06-24T14:50:40.993Z</time>
      </trkpt>
      <trkpt lat="43.03018" lon="1.08389">
        <ele>360.2</ele>
        <time>2024-06-24T14:50:41.993Z</time>
      </trkpt>
      <trkpt lat="43.03018" lon="1.08394">
        <ele>360.2</ele>
        <time>2024-06-24T14:50:42.993Z</time>
      </trkpt>
      <trkpt lat="43.03018" lon="1.08398">
        <ele>359.8</ele>
        <time>2024-06-24T14:50:43.993Z</time>
      </trkpt>
      <trkpt lat="43.03018" lon="1.08402">
        <ele>359.6</ele>
        <time>2024-06-24T14:50:44.993Z</time>
      </trkpt>
      <trkpt lat="43.03018" lon="1.08406">
        <ele>359</ele>
        <time>2024-06-24T14:50:45.993Z</time>
      </trkpt>
      <trkpt lat="43.03017" lon="1.0841">
        <ele>359</ele>
        <time>2024-06-24T14:50:46.993Z</time>
      </trkpt>
      <trkpt lat="43.03017" lon="1.08415">
        <ele>359</ele>
        <time>2024-06-24T14:50:47.993Z</time>
      </trkpt>
      <trkpt lat="43.03017" lon="1.08418">
        <ele>358.8</ele>
        <time>2024-06-24T14:50:48.993Z</time>
      </trkpt>
      <trkpt lat="43.03017" lon="1.08421">
        <ele>358.4</ele>
        <time>2024-06-24T14:50:49.993Z</time>
      </trkpt>
      <trkpt lat="43.03018" lon="1.08425">
        <ele>358.2</ele>
        <time>2024-06-24T14:50:50.993Z</time>
      </trkpt>
      <trkpt lat="43.03019" lon="1.08429">
        <ele>358</ele>
        <time>2024-06-24T14:50:51.993Z</time>
      </trkpt>
      <trkpt lat="43.0302" lon="1.08433">
        <ele>357.6</ele>
        <time>2024-06-24T14:50:52.993Z</time>
      </trkpt>
      <trkpt lat="43.03021" lon="1.08436">
        <ele>357</ele>
        <time>2024-06-24T14:50:53.993Z</time>
      </trkpt>
      <trkpt lat="43.03022" lon="1.0844">
        <ele>357</ele>
        <time>2024-06-24T14:50:54.993Z</time>
      </trkpt>
      <trkpt lat="43.03023" lon="1.08442">
        <ele>357</ele>
        <time>2024-06-24T14:50:55.993Z</time>
      </trkpt>
      <trkpt lat="43.03023" lon="1.08445">
        <ele>357</ele>
        <time>2024-06-24T14:50:56.993Z</time>
      </trkpt>
      <trkpt lat="43.03024" lon="1.08449">
        <ele>356.8</ele>
        <time>2024-06-24T14:50:57.993Z</time>
      </trkpt>
      <trkpt lat="43.03025" lon="1.08453">
        <ele>356.8</ele>
        <time>2024-06-24T14:50:58.993Z</time>
      </trkpt>
      <trkpt lat="43.03026" lon="1.08456">
        <ele>356.8</ele>
        <time>2024-06-24T14:50:59.993Z</time>
      </trkpt>
      <trkpt lat="43.03027" lon="1.08459">
        <ele>357</ele>
        <time>2024-06-24T14:51:00.993Z</time>
      </trkpt>
      <trkpt lat="43.03028" lon="1.08462">
        <ele>357</ele>
        <time>2024-06-24T14:51:01.993Z</time>
      </trkpt>
      <trkpt lat="43.03029" lon="1.08466">
        <ele>357.4</ele>
        <time>2024-06-24T14:51:02.993Z</time>
      </trkpt>
      <trkpt lat="43.03029" lon="1.08469">
        <ele>357.6</ele>
        <time>2024-06-24T14:51:03.993Z</time>
      </trkpt>
      <trkpt lat="43.03029" lon="1.08473">
        <ele>357.6</ele>
        <time>2024-06-24T14:51:04.993Z</time>
      </trkpt>
      <trkpt lat="43.03029" lon="1.08476">
        <ele>357.6</ele>
        <time>2024-06-24T14:51:05.993Z</time>
      </trkpt>
      <trkpt lat="43.03029" lon="1.08479">
        <ele>357.6</ele>
        <time>2024-06-24T14:51:06.993Z</time>
      </trkpt>
      <trkpt lat="43.03029" lon="1.08482">
        <ele>357.6</ele>
        <time>2024-06-24T14:51:07.993Z</time>
      </trkpt>
      <trkpt lat="43.03028" lon="1.08485">
        <ele>358</ele>
        <time>2024-06-24T14:51:08.993Z</time>
      </trkpt>
      <trkpt lat="43.03028" lon="1.08488">
        <ele>358</ele>
        <time>2024-06-24T14:51:09.993Z</time>
      </trkpt>
      <trkpt lat="43.03028" lon="1.08492">
        <ele>358</ele>
        <time>2024-06-24T14:51:10.993Z</time>
      </trkpt>
      <trkpt lat="43.03029" lon="1.08497">
        <ele>358</ele>
        <time>2024-06-24T14:51:11.993Z</time>
      </trkpt>
      <trkpt lat="43.0303" lon="1.08501">
        <ele>358</ele>
        <time>2024-06-24T14:51:12.993Z</time>
      </trkpt>
      <trkpt lat="43.03032" lon="1.08506">
        <ele>358</ele>
        <time>2024-06-24T14:51:13.993Z</time>
      </trkpt>
      <trkpt lat="43.03036" lon="1.08511">
        <ele>358</ele>
        <time>2024-06-24T14:51:14.993Z</time>
      </trkpt>
      <trkpt lat="43.03039" lon="1.08516">
        <ele>357.6</ele>
        <time>2024-06-24T14:51:15.993Z</time>
      </trkpt>
      <trkpt lat="43.03042" lon="1.0852">
        <ele>357.6</ele>
        <time>2024-06-24T14:51:16.993Z</time>
      </trkpt>
      <trkpt lat="43.03046" lon="1.08524">
        <ele>357.2</ele>
        <time>2024-06-24T14:51:17.993Z</time>
      </trkpt>
      <trkpt lat="43.0305" lon="1.08529">
        <ele>357.2</ele>
        <time>2024-06-24T14:51:18.993Z</time>
      </trkpt>
      <trkpt lat="43.03054" lon="1.08532">
        <ele>357.2</ele>
        <time>2024-06-24T14:51:19.993Z</time>
      </trkpt>
      <trkpt lat="43.03058" lon="1.08537">
        <ele>357</ele>
        <time>2024-06-24T14:51:20.993Z</time>
      </trkpt>
      <trkpt lat="43.03061" lon="1.08542">
        <ele>357</ele>
        <time>2024-06-24T14:51:21.993Z</time>
      </trkpt>
      <trkpt lat="43.03065" lon="1.08548">
        <ele>357</ele>
        <time>2024-06-24T14:51:22.993Z</time>
      </trkpt>
      <trkpt lat="43.0307" lon="1.08554">
        <ele>356.4</ele>
        <time>2024-06-24T14:51:23.993Z</time>
      </trkpt>
      <trkpt lat="43.03074" lon="1.0856">
        <ele>356.2</ele>
        <time>2024-06-24T14:51:24.993Z</time>
      </trkpt>
      <trkpt lat="43.03079" lon="1.08566">
        <ele>356.2</ele>
        <time>2024-06-24T14:51:25.993Z</time>
      </trkpt>
      <trkpt lat="43.03081" lon="1.08574">
        <ele>355.8</ele>
        <time>2024-06-24T14:51:26.993Z</time>
      </trkpt>
      <trkpt lat="43.03082" lon="1.08583">
        <ele>355.8</ele>
        <time>2024-06-24T14:51:27.993Z</time>
      </trkpt>
      <trkpt lat="43.03082" lon="1.08591">
        <ele>355.6</ele>
        <time>2024-06-24T14:51:28.993Z</time>
      </trkpt>
      <trkpt lat="43.03082" lon="1.086">
        <ele>355.2</ele>
        <time>2024-06-24T14:51:29.993Z</time>
      </trkpt>
      <trkpt lat="43.03082" lon="1.08607">
        <ele>355.2</ele>
        <time>2024-06-24T14:51:30.993Z</time>
      </trkpt>
      <trkpt lat="43.03082" lon="1.08615">
        <ele>355</ele>
        <time>2024-06-24T14:51:31.993Z</time>
      </trkpt>
      <trkpt lat="43.03081" lon="1.08622">
        <ele>355</ele>
        <time>2024-06-24T14:51:32.993Z</time>
      </trkpt>
      <trkpt lat="43.0308" lon="1.08629">
        <ele>355</ele>
        <time>2024-06-24T14:51:33.993Z</time>
      </trkpt>
      <trkpt lat="43.0308" lon="1.08635">
        <ele>355</ele>
        <time>2024-06-24T14:51:34.993Z</time>
      </trkpt>
      <trkpt lat="43.0308" lon="1.08641">
        <ele>355</ele>
        <time>2024-06-24T14:51:35.993Z</time>
      </trkpt>
      <trkpt lat="43.0308" lon="1.08648">
        <ele>355</ele>
        <time>2024-06-24T14:51:36.993Z</time>
      </trkpt>
      <trkpt lat="43.03079" lon="1.08653">
        <ele>355</ele>
        <time>2024-06-24T14:51:37.993Z</time>
      </trkpt>
      <trkpt lat="43.03078" lon="1.0866">
        <ele>355.2</ele>
        <time>2024-06-24T14:51:38.993Z</time>
      </trkpt>
      <trkpt lat="43.03077" lon="1.08667">
        <ele>355.4</ele>
        <time>2024-06-24T14:51:39.993Z</time>
      </trkpt>
      <trkpt lat="43.03076" lon="1.08673">
        <ele>355.4</ele>
        <time>2024-06-24T14:51:40.993Z</time>
      </trkpt>
      <trkpt lat="43.03075" lon="1.0868">
        <ele>355.4</ele>
        <time>2024-06-24T14:51:41.993Z</time>
      </trkpt>
      <trkpt lat="43.03074" lon="1.08685">
        <ele>355.4</ele>
        <time>2024-06-24T14:51:42.993Z</time>
      </trkpt>
      <trkpt lat="43.03072" lon="1.08692">
        <ele>355.4</ele>
        <time>2024-06-24T14:51:43.993Z</time>
      </trkpt>
      <trkpt lat="43.0307" lon="1.08698">
        <ele>355.4</ele>
        <time>2024-06-24T14:51:44.993Z</time>
      </trkpt>
      <trkpt lat="43.0307" lon="1.08705">
        <ele>355.4</ele>
        <time>2024-06-24T14:51:45.993Z</time>
      </trkpt>
      <trkpt lat="43.03069" lon="1.08712">
        <ele>355.4</ele>
        <time>2024-06-24T14:51:46.993Z</time>
      </trkpt>
      <trkpt lat="43.03068" lon="1.08717">
        <ele>355.8</ele>
        <time>2024-06-24T14:51:47.993Z</time>
      </trkpt>
      <trkpt lat="43.03066" lon="1.08724">
        <ele>355.8</ele>
        <time>2024-06-24T14:51:48.993Z</time>
      </trkpt>
      <trkpt lat="43.03065" lon="1.0873">
        <ele>355.8</ele>
        <time>2024-06-24T14:51:49.993Z</time>
      </trkpt>
      <trkpt lat="43.03064" lon="1.08736">
        <ele>355.8</ele>
        <time>2024-06-24T14:51:50.993Z</time>
      </trkpt>
      <trkpt lat="43.03063" lon="1.08742">
        <ele>355.8</ele>
        <time>2024-06-24T14:51:51.993Z</time>
      </trkpt>
      <trkpt lat="43.03062" lon="1.08749">
        <ele>355.8</ele>
        <time>2024-06-24T14:51:52.993Z</time>
      </trkpt>
      <trkpt lat="43.03061" lon="1.08755">
        <ele>355.8</ele>
        <time>2024-06-24T14:51:53.993Z</time>
      </trkpt>
      <trkpt lat="43.03059" lon="1.08761">
        <ele>356</ele>
        <time>2024-06-24T14:51:54.993Z</time>
      </trkpt>
      <trkpt lat="43.03058" lon="1.08768">
        <ele>356</ele>
        <time>2024-06-24T14:51:55.993Z</time>
      </trkpt>
      <trkpt lat="43.03056" lon="1.08774">
        <ele>356</ele>
        <time>2024-06-24T14:51:56.993Z</time>
      </trkpt>
      <trkpt lat="43.03055" lon="1.0878">
        <ele>356</ele>
        <time>2024-06-24T14:51:57.993Z</time>
      </trkpt>
      <trkpt lat="43.03054" lon="1.08786">
        <ele>356</ele>
        <time>2024-06-24T14:51:58.993Z</time>
      </trkpt>
      <trkpt lat="43.03054" lon="1.08792">
        <ele>356.4</ele>
        <time>2024-06-24T14:51:59.993Z</time>
      </trkpt>
      <trkpt lat="43.03052" lon="1.08798">
        <ele>356.4</ele>
        <time>2024-06-24T14:52:00.993Z</time>
      </trkpt>
      <trkpt lat="43.03052" lon="1.08804">
        <ele>356.4</ele>
        <time>2024-06-24T14:52:01.993Z</time>
      </trkpt>
      <trkpt lat="43.03051" lon="1.0881">
        <ele>356.8</ele>
        <time>2024-06-24T14:52:02.993Z</time>
      </trkpt>
      <trkpt lat="43.03051" lon="1.08817">
        <ele>357</ele>
        <time>2024-06-24T14:52:03.993Z</time>
      </trkpt>
      <trkpt lat="43.03051" lon="1.08823">
        <ele>356.6</ele>
        <time>2024-06-24T14:52:04.993Z</time>
      </trkpt>
      <trkpt lat="43.03052" lon="1.0883">
        <ele>356.6</ele>
        <time>2024-06-24T14:52:05.993Z</time>
      </trkpt>
      <trkpt lat="43.03052" lon="1.08837">
        <ele>357</ele>
        <time>2024-06-24T14:52:06.993Z</time>
      </trkpt>
      <trkpt lat="43.03052" lon="1.08844">
        <ele>357</ele>
        <time>2024-06-24T14:52:07.993Z</time>
      </trkpt>
      <trkpt lat="43.03052" lon="1.0885">
        <ele>357</ele>
        <time>2024-06-24T14:52:08.993Z</time>
      </trkpt>
      <trkpt lat="43.03052" lon="1.08857">
        <ele>357</ele>
        <time>2024-06-24T14:52:09.993Z</time>
      </trkpt>
      <trkpt lat="43.03052" lon="1.08863">
        <ele>356.8</ele>
        <time>2024-06-24T14:52:10.993Z</time>
      </trkpt>
      <trkpt lat="43.03052" lon="1.0887">
        <ele>356.8</ele>
        <time>2024-06-24T14:52:11.993Z</time>
      </trkpt>
      <trkpt lat="43.03052" lon="1.08876">
        <ele>357</ele>
        <time>2024-06-24T14:52:12.993Z</time>
      </trkpt>
      <trkpt lat="43.03052" lon="1.08883">
        <ele>357</ele>
        <time>2024-06-24T14:52:13.993Z</time>
      </trkpt>
      <trkpt lat="43.03052" lon="1.0889">
        <ele>357</ele>
        <time>2024-06-24T14:52:14.993Z</time>
      </trkpt>
      <trkpt lat="43.03052" lon="1.08897">
        <ele>357</ele>
        <time>2024-06-24T14:52:15.993Z</time>
      </trkpt>
      <trkpt lat="43.03052" lon="1.08903">
        <ele>357.4</ele>
        <time>2024-06-24T14:52:16.993Z</time>
      </trkpt>
      <trkpt lat="43.03052" lon="1.0891">
        <ele>357.4</ele>
        <time>2024-06-24T14:52:17.993Z</time>
      </trkpt>
      <trkpt lat="43.03052" lon="1.08917">
        <ele>357.4</ele>
        <time>2024-06-24T14:52:18.993Z</time>
      </trkpt>
      <trkpt lat="43.03051" lon="1.08924">
        <ele>357.4</ele>
        <time>2024-06-24T14:52:19.993Z</time>
      </trkpt>
      <trkpt lat="43.03052" lon="1.0893">
        <ele>357.4</ele>
        <time>2024-06-24T14:52:20.993Z</time>
      </trkpt>
      <trkpt lat="43.03052" lon="1.08937">
        <ele>357.4</ele>
        <time>2024-06-24T14:52:21.993Z</time>
      </trkpt>
      <trkpt lat="43.03053" lon="1.08943">
        <ele>357.4</ele>
        <time>2024-06-24T14:52:22.993Z</time>
      </trkpt>
      <trkpt lat="43.03053" lon="1.0895">
        <ele>357.4</ele>
        <time>2024-06-24T14:52:23.993Z</time>
      </trkpt>
      <trkpt lat="43.03053" lon="1.08957">
        <ele>357.4</ele>
        <time>2024-06-24T14:52:24.993Z</time>
      </trkpt>
      <trkpt lat="43.03053" lon="1.08964">
        <ele>357.4</ele>
        <time>2024-06-24T14:52:25.993Z</time>
      </trkpt>
      <trkpt lat="43.03052" lon="1.0897">
        <ele>357.4</ele>
        <time>2024-06-24T14:52:26.993Z</time>
      </trkpt>
      <trkpt lat="43.03052" lon="1.08976">
        <ele>357.8</ele>
        <time>2024-06-24T14:52:27.993Z</time>
      </trkpt>
      <trkpt lat="43.03052" lon="1.08983">
        <ele>357.8</ele>
        <time>2024-06-24T14:52:28.993Z</time>
      </trkpt>
      <trkpt lat="43.03053" lon="1.0899">
        <ele>357.8</ele>
        <time>2024-06-24T14:52:29.993Z</time>
      </trkpt>
      <trkpt lat="43.03053" lon="1.08997">
        <ele>358.2</ele>
        <time>2024-06-24T14:52:30.993Z</time>
      </trkpt>
      <trkpt lat="43.03053" lon="1.09003">
        <ele>358.2</ele>
        <time>2024-06-24T14:52:31.993Z</time>
      </trkpt>
      <trkpt lat="43.03053" lon="1.09011">
        <ele>357.8</ele>
        <time>2024-06-24T14:52:32.993Z</time>
      </trkpt>
      <trkpt lat="43.03053" lon="1.09017">
        <ele>357.8</ele>
        <time>2024-06-24T14:52:33.993Z</time>
      </trkpt>
      <trkpt lat="43.03053" lon="1.09024">
        <ele>357.8</ele>
        <time>2024-06-24T14:52:34.993Z</time>
      </trkpt>
      <trkpt lat="43.03053" lon="1.09031">
        <ele>357.6</ele>
        <time>2024-06-24T14:52:35.993Z</time>
      </trkpt>
      <trkpt lat="43.03053" lon="1.09038">
        <ele>357.6</ele>
        <time>2024-06-24T14:52:36.993Z</time>
      </trkpt>
      <trkpt lat="43.03053" lon="1.09045">
        <ele>357.6</ele>
        <time>2024-06-24T14:52:37.993Z</time>
      </trkpt>
      <trkpt lat="43.03053" lon="1.09052">
        <ele>357.2</ele>
        <time>2024-06-24T14:52:38.993Z</time>
      </trkpt>
      <trkpt lat="43.03054" lon="1.09058">
        <ele>357.6</ele>
        <time>2024-06-24T14:52:39.993Z</time>
      </trkpt>
      <trkpt lat="43.03055" lon="1.09065">
        <ele>357.6</ele>
        <time>2024-06-24T14:52:40.993Z</time>
      </trkpt>
      <trkpt lat="43.03056" lon="1.09072">
        <ele>358</ele>
        <time>2024-06-24T14:52:41.993Z</time>
      </trkpt>
      <trkpt lat="43.03057" lon="1.09078">
        <ele>358</ele>
        <time>2024-06-24T14:52:42.993Z</time>
      </trkpt>
      <trkpt lat="43.03058" lon="1.09085">
        <ele>358.2</ele>
        <time>2024-06-24T14:52:43.993Z</time>
      </trkpt>
      <trkpt lat="43.03058" lon="1.09092">
        <ele>358.2</ele>
        <time>2024-06-24T14:52:44.993Z</time>
      </trkpt>
      <trkpt lat="43.03059" lon="1.09099">
        <ele>358.2</ele>
        <time>2024-06-24T14:52:45.993Z</time>
      </trkpt>
      <trkpt lat="43.0306" lon="1.09105">
        <ele>358.2</ele>
        <time>2024-06-24T14:52:46.993Z</time>
      </trkpt>
      <trkpt lat="43.03062" lon="1.09112">
        <ele>358.2</ele>
        <time>2024-06-24T14:52:47.993Z</time>
      </trkpt>
      <trkpt lat="43.03063" lon="1.09118">
        <ele>358.2</ele>
        <time>2024-06-24T14:52:48.993Z</time>
      </trkpt>
      <trkpt lat="43.03064" lon="1.09124">
        <ele>358.2</ele>
        <time>2024-06-24T14:52:49.993Z</time>
      </trkpt>
      <trkpt lat="43.03065" lon="1.0913">
        <ele>358.2</ele>
        <time>2024-06-24T14:52:50.993Z</time>
      </trkpt>
      <trkpt lat="43.03067" lon="1.09137">
        <ele>358.2</ele>
        <time>2024-06-24T14:52:51.993Z</time>
      </trkpt>
      <trkpt lat="43.03069" lon="1.09143">
        <ele>358.2</ele>
        <time>2024-06-24T14:52:52.993Z</time>
      </trkpt>
      <trkpt lat="43.03071" lon="1.0915">
        <ele>358.2</ele>
        <time>2024-06-24T14:52:53.993Z</time>
      </trkpt>
      <trkpt lat="43.03073" lon="1.09156">
        <ele>358.2</ele>
        <time>2024-06-24T14:52:54.993Z</time>
      </trkpt>
      <trkpt lat="43.03075" lon="1.09161">
        <ele>358.4</ele>
        <time>2024-06-24T14:52:55.993Z</time>
      </trkpt>
      <trkpt lat="43.03079" lon="1.09165">
        <ele>358.4</ele>
        <time>2024-06-24T14:52:56.993Z</time>
      </trkpt>
      <trkpt lat="43.03084" lon="1.09167">
        <ele>358</ele>
        <time>2024-06-24T14:52:57.993Z</time>
      </trkpt>
      <trkpt lat="43.03088" lon="1.09169">
        <ele>358</ele>
        <time>2024-06-24T14:52:58.993Z</time>
      </trkpt>
      <trkpt lat="43.03094" lon="1.09171">
        <ele>358.2</ele>
        <time>2024-06-24T14:52:59.993Z</time>
      </trkpt>
      <trkpt lat="43.03099" lon="1.09172">
        <ele>358.6</ele>
        <time>2024-06-24T14:53:00.993Z</time>
      </trkpt>
      <trkpt lat="43.03104" lon="1.09173">
        <ele>358.8</ele>
        <time>2024-06-24T14:53:01.993Z</time>
      </trkpt>
      <trkpt lat="43.03109" lon="1.09174">
        <ele>358.8</ele>
        <time>2024-06-24T14:53:02.993Z</time>
      </trkpt>
      <trkpt lat="43.03114" lon="1.09176">
        <ele>358.4</ele>
        <time>2024-06-24T14:53:03.993Z</time>
      </trkpt>
      <trkpt lat="43.03119" lon="1.09177">
        <ele>358.4</ele>
        <time>2024-06-24T14:53:04.993Z</time>
      </trkpt>
      <trkpt lat="43.03124" lon="1.09178">
        <ele>358.2</ele>
        <time>2024-06-24T14:53:05.993Z</time>
      </trkpt>
      <trkpt lat="43.0313" lon="1.09179">
        <ele>358.2</ele>
        <time>2024-06-24T14:53:06.993Z</time>
      </trkpt>
      <trkpt lat="43.03134" lon="1.0918">
        <ele>358.2</ele>
        <time>2024-06-24T14:53:07.993Z</time>
      </trkpt>
      <trkpt lat="43.03139" lon="1.09181">
        <ele>357.6</ele>
        <time>2024-06-24T14:53:08.993Z</time>
      </trkpt>
      <trkpt lat="43.03144" lon="1.09182">
        <ele>357.6</ele>
        <time>2024-06-24T14:53:09.993Z</time>
      </trkpt>
      <trkpt lat="43.03149" lon="1.09184">
        <ele>358</ele>
        <time>2024-06-24T14:53:10.993Z</time>
      </trkpt>
      <trkpt lat="43.03155" lon="1.09185">
        <ele>358</ele>
        <time>2024-06-24T14:53:11.993Z</time>
      </trkpt>
      <trkpt lat="43.0316" lon="1.09186">
        <ele>358</ele>
        <time>2024-06-24T14:53:12.993Z</time>
      </trkpt>
      <trkpt lat="43.03165" lon="1.09187">
        <ele>358</ele>
        <time>2024-06-24T14:53:13.993Z</time>
      </trkpt>
      <trkpt lat="43.03171" lon="1.09188">
        <ele>358</ele>
        <time>2024-06-24T14:53:14.993Z</time>
      </trkpt>
      <trkpt lat="43.03176" lon="1.0919">
        <ele>357.8</ele>
        <time>2024-06-24T14:53:15.993Z</time>
      </trkpt>
      <trkpt lat="43.03181" lon="1.09191">
        <ele>357.8</ele>
        <time>2024-06-24T14:53:16.993Z</time>
      </trkpt>
      <trkpt lat="43.03187" lon="1.09192">
        <ele>357.4</ele>
        <time>2024-06-24T14:53:17.993Z</time>
      </trkpt>
      <trkpt lat="43.03193" lon="1.09193">
        <ele>357.4</ele>
        <time>2024-06-24T14:53:18.993Z</time>
      </trkpt>
      <trkpt lat="43.03198" lon="1.09195">
        <ele>357.4</ele>
        <time>2024-06-24T14:53:19.993Z</time>
      </trkpt>
      <trkpt lat="43.03204" lon="1.09196">
        <ele>356.8</ele>
        <time>2024-06-24T14:53:20.993Z</time>
      </trkpt>
      <trkpt lat="43.03209" lon="1.09197">
        <ele>357.6</ele>
        <time>2024-06-24T14:53:21.993Z</time>
      </trkpt>
      <trkpt lat="43.03214" lon="1.09197">
        <ele>357.6</ele>
        <time>2024-06-24T14:53:22.993Z</time>
      </trkpt>
      <trkpt lat="43.03219" lon="1.09197">
        <ele>357.2</ele>
        <time>2024-06-24T14:53:23.993Z</time>
      </trkpt>
      <trkpt lat="43.03224" lon="1.09198">
        <ele>357.2</ele>
        <time>2024-06-24T14:53:24.993Z</time>
      </trkpt>
      <trkpt lat="43.03229" lon="1.09199">
        <ele>356.8</ele>
        <time>2024-06-24T14:53:25.993Z</time>
      </trkpt>
      <trkpt lat="43.03234" lon="1.09201">
        <ele>356.8</ele>
        <time>2024-06-24T14:53:26.993Z</time>
      </trkpt>
      <trkpt lat="43.03239" lon="1.09202">
        <ele>356.8</ele>
        <time>2024-06-24T14:53:27.993Z</time>
      </trkpt>
      <trkpt lat="43.03244" lon="1.09203">
        <ele>357</ele>
        <time>2024-06-24T14:53:28.993Z</time>
      </trkpt>
      <trkpt lat="43.03249" lon="1.09204">
        <ele>357</ele>
        <time>2024-06-24T14:53:29.993Z</time>
      </trkpt>
      <trkpt lat="43.03254" lon="1.09206">
        <ele>356.8</ele>
        <time>2024-06-24T14:53:30.993Z</time>
      </trkpt>
      <trkpt lat="43.03259" lon="1.09207">
        <ele>356.8</ele>
        <time>2024-06-24T14:53:31.993Z</time>
      </trkpt>
      <trkpt lat="43.03264" lon="1.09208">
        <ele>356.8</ele>
        <time>2024-06-24T14:53:32.993Z</time>
      </trkpt>
      <trkpt lat="43.03269" lon="1.09208">
        <ele>356.8</ele>
        <time>2024-06-24T14:53:33.993Z</time>
      </trkpt>
      <trkpt lat="43.03274" lon="1.09209">
        <ele>356.8</ele>
        <time>2024-06-24T14:53:34.993Z</time>
      </trkpt>
      <trkpt lat="43.03279" lon="1.09209">
        <ele>357.2</ele>
        <time>2024-06-24T14:53:35.993Z</time>
      </trkpt>
      <trkpt lat="43.03284" lon="1.0921">
        <ele>357.2</ele>
        <time>2024-06-24T14:53:36.993Z</time>
      </trkpt>
      <trkpt lat="43.03289" lon="1.09211">
        <ele>357.2</ele>
        <time>2024-06-24T14:53:37.993Z</time>
      </trkpt>
      <trkpt lat="43.03293" lon="1.09212">
        <ele>357.2</ele>
        <time>2024-06-24T14:53:38.993Z</time>
      </trkpt>
      <trkpt lat="43.03298" lon="1.09214">
        <ele>357.2</ele>
        <time>2024-06-24T14:53:39.993Z</time>
      </trkpt>
      <trkpt lat="43.03303" lon="1.09215">
        <ele>357.2</ele>
        <time>2024-06-24T14:53:40.993Z</time>
      </trkpt>
      <trkpt lat="43.03308" lon="1.09216">
        <ele>357.2</ele>
        <time>2024-06-24T14:53:41.993Z</time>
      </trkpt>
      <trkpt lat="43.03313" lon="1.09216">
        <ele>357</ele>
        <time>2024-06-24T14:53:42.993Z</time>
      </trkpt>
      <trkpt lat="43.03317" lon="1.09218">
        <ele>357</ele>
        <time>2024-06-24T14:53:43.993Z</time>
      </trkpt>
      <trkpt lat="43.03322" lon="1.09219">
        <ele>357.2</ele>
        <time>2024-06-24T14:53:44.993Z</time>
      </trkpt>
      <trkpt lat="43.03327" lon="1.0922">
        <ele>357.8</ele>
        <time>2024-06-24T14:53:45.993Z</time>
      </trkpt>
      <trkpt lat="43.03332" lon="1.09221">
        <ele>357.8</ele>
        <time>2024-06-24T14:53:46.993Z</time>
      </trkpt>
      <trkpt lat="43.03337" lon="1.09222">
        <ele>358</ele>
        <time>2024-06-24T14:53:47.993Z</time>
      </trkpt>
      <trkpt lat="43.03342" lon="1.09223">
        <ele>357.6</ele>
        <time>2024-06-24T14:53:48.993Z</time>
      </trkpt>
      <trkpt lat="43.03347" lon="1.09224">
        <ele>358.2</ele>
        <time>2024-06-24T14:53:49.993Z</time>
      </trkpt>
      <trkpt lat="43.03352" lon="1.09225">
        <ele>358</ele>
        <time>2024-06-24T14:53:50.993Z</time>
      </trkpt>
      <trkpt lat="43.03358" lon="1.09225">
        <ele>358</ele>
        <time>2024-06-24T14:53:51.993Z</time>
      </trkpt>
      <trkpt lat="43.03363" lon="1.09227">
        <ele>358.2</ele>
        <time>2024-06-24T14:53:52.993Z</time>
      </trkpt>
      <trkpt lat="43.03368" lon="1.09228">
        <ele>358.2</ele>
        <time>2024-06-24T14:53:53.993Z</time>
      </trkpt>
      <trkpt lat="43.03373" lon="1.09229">
        <ele>358.2</ele>
        <time>2024-06-24T14:53:54.993Z</time>
      </trkpt>
      <trkpt lat="43.03377" lon="1.0923">
        <ele>358.2</ele>
        <time>2024-06-24T14:53:55.993Z</time>
      </trkpt>
      <trkpt lat="43.03382" lon="1.09231">
        <ele>357.6</ele>
        <time>2024-06-24T14:53:56.993Z</time>
      </trkpt>
      <trkpt lat="43.03388" lon="1.09232">
        <ele>357.6</ele>
        <time>2024-06-24T14:53:57.993Z</time>
      </trkpt>
      <trkpt lat="43.03393" lon="1.09233">
        <ele>357.4</ele>
        <time>2024-06-24T14:53:58.993Z</time>
      </trkpt>
      <trkpt lat="43.03398" lon="1.09234">
        <ele>357.2</ele>
        <time>2024-06-24T14:53:59.993Z</time>
      </trkpt>
      <trkpt lat="43.03403" lon="1.09235">
        <ele>356.8</ele>
        <time>2024-06-24T14:54:00.993Z</time>
      </trkpt>
      <trkpt lat="43.03407" lon="1.09236">
        <ele>356.8</ele>
        <time>2024-06-24T14:54:01.993Z</time>
      </trkpt>
      <trkpt lat="43.03413" lon="1.09238">
        <ele>356.6</ele>
        <time>2024-06-24T14:54:02.993Z</time>
      </trkpt>
      <trkpt lat="43.03418" lon="1.09238">
        <ele>357</ele>
        <time>2024-06-24T14:54:03.993Z</time>
      </trkpt>
      <trkpt lat="43.03423" lon="1.09239">
        <ele>357</ele>
        <time>2024-06-24T14:54:04.993Z</time>
      </trkpt>
      <trkpt lat="43.03428" lon="1.0924">
        <ele>357</ele>
        <time>2024-06-24T14:54:05.993Z</time>
      </trkpt>
      <trkpt lat="43.03433" lon="1.09242">
        <ele>357</ele>
        <time>2024-06-24T14:54:06.993Z</time>
      </trkpt>
      <trkpt lat="43.03438" lon="1.09243">
        <ele>356.6</ele>
        <time>2024-06-24T14:54:07.993Z</time>
      </trkpt>
      <trkpt lat="43.03443" lon="1.09244">
        <ele>356.6</ele>
        <time>2024-06-24T14:54:08.993Z</time>
      </trkpt>
      <trkpt lat="43.03448" lon="1.09244">
        <ele>356.2</ele>
        <time>2024-06-24T14:54:09.993Z</time>
      </trkpt>
      <trkpt lat="43.03453" lon="1.09245">
        <ele>357</ele>
        <time>2024-06-24T14:54:10.993Z</time>
      </trkpt>
      <trkpt lat="43.03458" lon="1.09246">
        <ele>356.6</ele>
        <time>2024-06-24T14:54:11.993Z</time>
      </trkpt>
      <trkpt lat="43.03463" lon="1.09248">
        <ele>357</ele>
        <time>2024-06-24T14:54:12.993Z</time>
      </trkpt>
      <trkpt lat="43.03468" lon="1.09248">
        <ele>357</ele>
        <time>2024-06-24T14:54:13.993Z</time>
      </trkpt>
      <trkpt lat="43.03473" lon="1.0925">
        <ele>357.6</ele>
        <time>2024-06-24T14:54:14.993Z</time>
      </trkpt>
      <trkpt lat="43.03478" lon="1.0925">
        <ele>357.6</ele>
        <time>2024-06-24T14:54:15.993Z</time>
      </trkpt>
      <trkpt lat="43.03483" lon="1.09251">
        <ele>357.2</ele>
        <time>2024-06-24T14:54:16.993Z</time>
      </trkpt>
      <trkpt lat="43.03488" lon="1.09252">
        <ele>357.2</ele>
        <time>2024-06-24T14:54:17.993Z</time>
      </trkpt>
      <trkpt lat="43.03493" lon="1.09254">
        <ele>357</ele>
        <time>2024-06-24T14:54:18.993Z</time>
      </trkpt>
      <trkpt lat="43.03497" lon="1.09254">
        <ele>357.2</ele>
        <time>2024-06-24T14:54:19.993Z</time>
      </trkpt>
      <trkpt lat="43.03501" lon="1.09254">
        <ele>357</ele>
        <time>2024-06-24T14:54:20.993Z</time>
      </trkpt>
      <trkpt lat="43.03506" lon="1.09256">
        <ele>357</ele>
        <time>2024-06-24T14:54:21.993Z</time>
      </trkpt>
      <trkpt lat="43.03509" lon="1.0926">
        <ele>356.8</ele>
        <time>2024-06-24T14:54:22.993Z</time>
      </trkpt>
      <trkpt lat="43.0351" lon="1.09264">
        <ele>356.8</ele>
        <time>2024-06-24T14:54:23.993Z</time>
      </trkpt>
      <trkpt lat="43.03511" lon="1.0927">
        <ele>356.8</ele>
        <time>2024-06-24T14:54:24.993Z</time>
      </trkpt>
      <trkpt lat="43.0351" lon="1.09275">
        <ele>356.8</ele>
        <time>2024-06-24T14:54:25.993Z</time>
      </trkpt>
      <trkpt lat="43.0351" lon="1.09281">
        <ele>357.2</ele>
        <time>2024-06-24T14:54:26.993Z</time>
      </trkpt>
      <trkpt lat="43.03509" lon="1.09287">
        <ele>357.2</ele>
        <time>2024-06-24T14:54:27.993Z</time>
      </trkpt>
      <trkpt lat="43.03509" lon="1.09293">
        <ele>357.2</ele>
        <time>2024-06-24T14:54:28.993Z</time>
      </trkpt>
      <trkpt lat="43.03508" lon="1.093">
        <ele>357.4</ele>
        <time>2024-06-24T14:54:29.993Z</time>
      </trkpt>
      <trkpt lat="43.03508" lon="1.09306">
        <ele>357.4</ele>
        <time>2024-06-24T14:54:30.993Z</time>
      </trkpt>
      <trkpt lat="43.03507" lon="1.09313">
        <ele>358</ele>
        <time>2024-06-24T14:54:31.993Z</time>
      </trkpt>
      <trkpt lat="43.03507" lon="1.09319">
        <ele>358</ele>
        <time>2024-06-24T14:54:32.993Z</time>
      </trkpt>
      <trkpt lat="43.03507" lon="1.09326">
        <ele>358</ele>
        <time>2024-06-24T14:54:33.993Z</time>
      </trkpt>
      <trkpt lat="43.03508" lon="1.09333">
        <ele>358</ele>
        <time>2024-06-24T14:54:34.993Z</time>
      </trkpt>
      <trkpt lat="43.03508" lon="1.09339">
        <ele>358</ele>
        <time>2024-06-24T14:54:35.993Z</time>
      </trkpt>
      <trkpt lat="43.03507" lon="1.09346">
        <ele>358</ele>
        <time>2024-06-24T14:54:36.993Z</time>
      </trkpt>
      <trkpt lat="43.03507" lon="1.09352">
        <ele>358.2</ele>
        <time>2024-06-24T14:54:37.993Z</time>
      </trkpt>
      <trkpt lat="43.03506" lon="1.09359">
        <ele>358.2</ele>
        <time>2024-06-24T14:54:38.993Z</time>
      </trkpt>
      <trkpt lat="43.03505" lon="1.09366">
        <ele>358.4</ele>
        <time>2024-06-24T14:54:39.993Z</time>
      </trkpt>
      <trkpt lat="43.03505" lon="1.09373">
        <ele>358</ele>
        <time>2024-06-24T14:54:40.993Z</time>
      </trkpt>
      <trkpt lat="43.03505" lon="1.0938">
        <ele>358</ele>
        <time>2024-06-24T14:54:41.993Z</time>
      </trkpt>
      <trkpt lat="43.03504" lon="1.09387">
        <ele>357.4</ele>
        <time>2024-06-24T14:54:42.993Z</time>
      </trkpt>
      <trkpt lat="43.03504" lon="1.09394">
        <ele>357.4</ele>
        <time>2024-06-24T14:54:43.993Z</time>
      </trkpt>
      <trkpt lat="43.03503" lon="1.09401">
        <ele>357</ele>
        <time>2024-06-24T14:54:44.993Z</time>
      </trkpt>
      <trkpt lat="43.03503" lon="1.09408">
        <ele>357</ele>
        <time>2024-06-24T14:54:45.993Z</time>
      </trkpt>
      <trkpt lat="43.03503" lon="1.09415">
        <ele>357.2</ele>
        <time>2024-06-24T14:54:46.993Z</time>
      </trkpt>
      <trkpt lat="43.03503" lon="1.09422">
        <ele>357.6</ele>
        <time>2024-06-24T14:54:47.993Z</time>
      </trkpt>
      <trkpt lat="43.03502" lon="1.09429">
        <ele>358.2</ele>
        <time>2024-06-24T14:54:48.993Z</time>
      </trkpt>
      <trkpt lat="43.03502" lon="1.09435">
        <ele>358.6</ele>
        <time>2024-06-24T14:54:49.993Z</time>
      </trkpt>
      <trkpt lat="43.03502" lon="1.09443">
        <ele>358.8</ele>
        <time>2024-06-24T14:54:50.993Z</time>
      </trkpt>
      <trkpt lat="43.03501" lon="1.0945">
        <ele>358.8</ele>
        <time>2024-06-24T14:54:51.993Z</time>
      </trkpt>
      <trkpt lat="43.03501" lon="1.09457">
        <ele>358.8</ele>
        <time>2024-06-24T14:54:52.993Z</time>
      </trkpt>
      <trkpt lat="43.03501" lon="1.09464">
        <ele>358.8</ele>
        <time>2024-06-24T14:54:53.993Z</time>
      </trkpt>
      <trkpt lat="43.03501" lon="1.0947">
        <ele>358.8</ele>
        <time>2024-06-24T14:54:54.993Z</time>
      </trkpt>
      <trkpt lat="43.03501" lon="1.09477">
        <ele>358.8</ele>
        <time>2024-06-24T14:54:55.993Z</time>
      </trkpt>
      <trkpt lat="43.035" lon="1.09484">
        <ele>358.8</ele>
        <time>2024-06-24T14:54:56.993Z</time>
      </trkpt>
      <trkpt lat="43.03499" lon="1.09491">
        <ele>358.6</ele>
        <time>2024-06-24T14:54:57.993Z</time>
      </trkpt>
      <trkpt lat="43.03498" lon="1.09498">
        <ele>358</ele>
        <time>2024-06-24T14:54:58.993Z</time>
      </trkpt>
      <trkpt lat="43.03496" lon="1.09505">
        <ele>358</ele>
        <time>2024-06-24T14:54:59.993Z</time>
      </trkpt>
      <trkpt lat="43.03495" lon="1.09512">
        <ele>358.2</ele>
        <time>2024-06-24T14:55:00.993Z</time>
      </trkpt>
      <trkpt lat="43.03494" lon="1.09518">
        <ele>358.4</ele>
        <time>2024-06-24T14:55:01.993Z</time>
      </trkpt>
      <trkpt lat="43.03492" lon="1.09524">
        <ele>358.4</ele>
        <time>2024-06-24T14:55:02.993Z</time>
      </trkpt>
      <trkpt lat="43.03491" lon="1.09531">
        <ele>358.4</ele>
        <time>2024-06-24T14:55:03.993Z</time>
      </trkpt>
      <trkpt lat="43.0349" lon="1.09537">
        <ele>358.4</ele>
        <time>2024-06-24T14:55:04.993Z</time>
      </trkpt>
      <trkpt lat="43.03488" lon="1.09544">
        <ele>358.4</ele>
        <time>2024-06-24T14:55:05.993Z</time>
      </trkpt>
      <trkpt lat="43.03486" lon="1.0955">
        <ele>358.4</ele>
        <time>2024-06-24T14:55:06.993Z</time>
      </trkpt>
      <trkpt lat="43.03485" lon="1.09557">
        <ele>358.4</ele>
        <time>2024-06-24T14:55:07.993Z</time>
      </trkpt>
      <trkpt lat="43.03484" lon="1.09564">
        <ele>358</ele>
        <time>2024-06-24T14:55:08.993Z</time>
      </trkpt>
      <trkpt lat="43.03482" lon="1.0957">
        <ele>358</ele>
        <time>2024-06-24T14:55:09.993Z</time>
      </trkpt>
      <trkpt lat="43.0348" lon="1.09577">
        <ele>359</ele>
        <time>2024-06-24T14:55:10.993Z</time>
      </trkpt>
      <trkpt lat="43.03479" lon="1.09583">
        <ele>359</ele>
        <time>2024-06-24T14:55:11.993Z</time>
      </trkpt>
      <trkpt lat="43.03478" lon="1.09589">
        <ele>359</ele>
        <time>2024-06-24T14:55:12.993Z</time>
      </trkpt>
      <trkpt lat="43.03476" lon="1.09597">
        <ele>358.4</ele>
        <time>2024-06-24T14:55:13.993Z</time>
      </trkpt>
      <trkpt lat="43.03475" lon="1.09603">
        <ele>359.2</ele>
        <time>2024-06-24T14:55:14.993Z</time>
      </trkpt>
      <trkpt lat="43.03474" lon="1.0961">
        <ele>359.2</ele>
        <time>2024-06-24T14:55:15.993Z</time>
      </trkpt>
      <trkpt lat="43.03473" lon="1.09618">
        <ele>359.6</ele>
        <time>2024-06-24T14:55:16.993Z</time>
      </trkpt>
      <trkpt lat="43.03471" lon="1.09624">
        <ele>359.2</ele>
        <time>2024-06-24T14:55:17.993Z</time>
      </trkpt>
      <trkpt lat="43.03469" lon="1.09631">
        <ele>359.2</ele>
        <time>2024-06-24T14:55:18.993Z</time>
      </trkpt>
      <trkpt lat="43.03467" lon="1.09638">
        <ele>359.2</ele>
        <time>2024-06-24T14:55:19.993Z</time>
      </trkpt>
      <trkpt lat="43.03465" lon="1.09645">
        <ele>358.8</ele>
        <time>2024-06-24T14:55:20.993Z</time>
      </trkpt>
      <trkpt lat="43.03464" lon="1.09651">
        <ele>359.2</ele>
        <time>2024-06-24T14:55:21.993Z</time>
      </trkpt>
      <trkpt lat="43.03462" lon="1.09658">
        <ele>359.2</ele>
        <time>2024-06-24T14:55:22.993Z</time>
      </trkpt>
      <trkpt lat="43.0346" lon="1.09664">
        <ele>359.2</ele>
        <time>2024-06-24T14:55:23.993Z</time>
      </trkpt>
      <trkpt lat="43.03458" lon="1.09671">
        <ele>359.2</ele>
        <time>2024-06-24T14:55:24.993Z</time>
      </trkpt>
      <trkpt lat="43.03456" lon="1.09678">
        <ele>359.2</ele>
        <time>2024-06-24T14:55:25.993Z</time>
      </trkpt>
      <trkpt lat="43.03455" lon="1.09684">
        <ele>359.2</ele>
        <time>2024-06-24T14:55:26.993Z</time>
      </trkpt>
      <trkpt lat="43.03454" lon="1.09691">
        <ele>359.6</ele>
        <time>2024-06-24T14:55:27.993Z</time>
      </trkpt>
      <trkpt lat="43.03451" lon="1.09704">
        <ele>359.6</ele>
        <time>2024-06-24T14:55:28.993Z</time>
      </trkpt>
      <trkpt lat="43.03449" lon="1.0971">
        <ele>359.6</ele>
        <time>2024-06-24T14:55:29.993Z</time>
      </trkpt>
      <trkpt lat="43.03448" lon="1.09717">
        <ele>359</ele>
        <time>2024-06-24T14:55:30.993Z</time>
      </trkpt>
      <trkpt lat="43.03445" lon="1.09721">
        <ele>359</ele>
        <time>2024-06-24T14:55:31.993Z</time>
      </trkpt>
      <trkpt lat="43.03441" lon="1.09724">
        <ele>359.4</ele>
        <time>2024-06-24T14:55:32.993Z</time>
      </trkpt>
      <trkpt lat="43.03437" lon="1.09725">
        <ele>359.4</ele>
        <time>2024-06-24T14:55:33.993Z</time>
      </trkpt>
      <trkpt lat="43.03433" lon="1.09724">
        <ele>359.4</ele>
        <time>2024-06-24T14:55:34.993Z</time>
      </trkpt>
      <trkpt lat="43.0343" lon="1.09722">
        <ele>359.4</ele>
        <time>2024-06-24T14:55:35.993Z</time>
      </trkpt>
      <trkpt lat="43.03426" lon="1.09719">
        <ele>359.4</ele>
        <time>2024-06-24T14:55:36.993Z</time>
      </trkpt>
      <trkpt lat="43.03422" lon="1.09717">
        <ele>360</ele>
        <time>2024-06-24T14:55:37.993Z</time>
      </trkpt>
      <trkpt lat="43.03419" lon="1.09715">
        <ele>360</ele>
        <time>2024-06-24T14:55:38.993Z</time>
      </trkpt>
      <trkpt lat="43.03414" lon="1.09713">
        <ele>360</ele>
        <time>2024-06-24T14:55:39.993Z</time>
      </trkpt>
      <trkpt lat="43.0341" lon="1.09711">
        <ele>359.6</ele>
        <time>2024-06-24T14:55:40.993Z</time>
      </trkpt>
      <trkpt lat="43.03406" lon="1.09709">
        <ele>359.6</ele>
        <time>2024-06-24T14:55:41.993Z</time>
      </trkpt>
      <trkpt lat="43.03401" lon="1.09708">
        <ele>359.6</ele>
        <time>2024-06-24T14:55:42.993Z</time>
      </trkpt>
      <trkpt lat="43.03397" lon="1.09706">
        <ele>360.2</ele>
        <time>2024-06-24T14:55:43.993Z</time>
      </trkpt>
      <trkpt lat="43.03393" lon="1.09704">
        <ele>360.4</ele>
        <time>2024-06-24T14:55:44.993Z</time>
      </trkpt>
      <trkpt lat="43.03388" lon="1.09702">
        <ele>360</ele>
        <time>2024-06-24T14:55:45.993Z</time>
      </trkpt>
      <trkpt lat="43.03384" lon="1.097">
        <ele>360</ele>
        <time>2024-06-24T14:55:46.993Z</time>
      </trkpt>
      <trkpt lat="43.03379" lon="1.09698">
        <ele>360.4</ele>
        <time>2024-06-24T14:55:47.993Z</time>
      </trkpt>
      <trkpt lat="43.03374" lon="1.09696">
        <ele>361</ele>
        <time>2024-06-24T14:55:48.993Z</time>
      </trkpt>
      <trkpt lat="43.0337" lon="1.09693">
        <ele>361.2</ele>
        <time>2024-06-24T14:55:49.993Z</time>
      </trkpt>
      <trkpt lat="43.03366" lon="1.09691">
        <ele>361.2</ele>
        <time>2024-06-24T14:55:50.993Z</time>
      </trkpt>
      <trkpt lat="43.03361" lon="1.09689">
        <ele>361.2</ele>
        <time>2024-06-24T14:55:51.993Z</time>
      </trkpt>
      <trkpt lat="43.03357" lon="1.09687">
        <ele>361.2</ele>
        <time>2024-06-24T14:55:52.993Z</time>
      </trkpt>
      <trkpt lat="43.03353" lon="1.09688">
        <ele>361.2</ele>
        <time>2024-06-24T14:55:53.993Z</time>
      </trkpt>
      <trkpt lat="43.03349" lon="1.0969">
        <ele>361.4</ele>
        <time>2024-06-24T14:55:54.993Z</time>
      </trkpt>
      <trkpt lat="43.03345" lon="1.09694">
        <ele>361.4</ele>
        <time>2024-06-24T14:55:55.993Z</time>
      </trkpt>
      <trkpt lat="43.03343" lon="1.09698">
        <ele>361.4</ele>
        <time>2024-06-24T14:55:56.993Z</time>
      </trkpt>
      <trkpt lat="43.03341" lon="1.09703">
        <ele>361.6</ele>
        <time>2024-06-24T14:55:57.993Z</time>
      </trkpt>
      <trkpt lat="43.03339" lon="1.09707">
        <ele>361.6</ele>
        <time>2024-06-24T14:55:58.993Z</time>
      </trkpt>
      <trkpt lat="43.03337" lon="1.09713">
        <ele>361.6</ele>
        <time>2024-06-24T14:55:59.993Z</time>
      </trkpt>
      <trkpt lat="43.03336" lon="1.09719">
        <ele>361.6</ele>
        <time>2024-06-24T14:56:00.993Z</time>
      </trkpt>
      <trkpt lat="43.03335" lon="1.09726">
        <ele>361.6</ele>
        <time>2024-06-24T14:56:01.993Z</time>
      </trkpt>
      <trkpt lat="43.03334" lon="1.09732">
        <ele>361.6</ele>
        <time>2024-06-24T14:56:02.993Z</time>
      </trkpt>
      <trkpt lat="43.03332" lon="1.09737">
        <ele>361.6</ele>
        <time>2024-06-24T14:56:03.993Z</time>
      </trkpt>
      <trkpt lat="43.03331" lon="1.09744">
        <ele>361.6</ele>
        <time>2024-06-24T14:56:04.993Z</time>
      </trkpt>
      <trkpt lat="43.03329" lon="1.09749">
        <ele>361.8</ele>
        <time>2024-06-24T14:56:05.993Z</time>
      </trkpt>
      <trkpt lat="43.03328" lon="1.09756">
        <ele>361.8</ele>
        <time>2024-06-24T14:56:06.993Z</time>
      </trkpt>
      <trkpt lat="43.03327" lon="1.09762">
        <ele>361.6</ele>
        <time>2024-06-24T14:56:07.993Z</time>
      </trkpt>
      <trkpt lat="43.03326" lon="1.09767">
        <ele>361.6</ele>
        <time>2024-06-24T14:56:08.993Z</time>
      </trkpt>
      <trkpt lat="43.03324" lon="1.09774">
        <ele>361.6</ele>
        <time>2024-06-24T14:56:09.993Z</time>
      </trkpt>
      <trkpt lat="43.03323" lon="1.0978">
        <ele>361.8</ele>
        <time>2024-06-24T14:56:10.993Z</time>
      </trkpt>
      <trkpt lat="43.03321" lon="1.09786">
        <ele>362</ele>
        <time>2024-06-24T14:56:11.993Z</time>
      </trkpt>
      <trkpt lat="43.03319" lon="1.09793">
        <ele>362</ele>
        <time>2024-06-24T14:56:12.993Z</time>
      </trkpt>
      <trkpt lat="43.03318" lon="1.09799">
        <ele>362</ele>
        <time>2024-06-24T14:56:13.993Z</time>
      </trkpt>
      <trkpt lat="43.03317" lon="1.09805">
        <ele>362</ele>
        <time>2024-06-24T14:56:14.993Z</time>
      </trkpt>
      <trkpt lat="43.03315" lon="1.09811">
        <ele>361.6</ele>
        <time>2024-06-24T14:56:15.993Z</time>
      </trkpt>
      <trkpt lat="43.03313" lon="1.09817">
        <ele>361.8</ele>
        <time>2024-06-24T14:56:16.993Z</time>
      </trkpt>
      <trkpt lat="43.03312" lon="1.09823">
        <ele>361.8</ele>
        <time>2024-06-24T14:56:17.993Z</time>
      </trkpt>
      <trkpt lat="43.0331" lon="1.09829">
        <ele>361.6</ele>
        <time>2024-06-24T14:56:18.993Z</time>
      </trkpt>
      <trkpt lat="43.03309" lon="1.09835">
        <ele>361.6</ele>
        <time>2024-06-24T14:56:19.993Z</time>
      </trkpt>
      <trkpt lat="43.03307" lon="1.0984">
        <ele>362</ele>
        <time>2024-06-24T14:56:20.993Z</time>
      </trkpt>
      <trkpt lat="43.03305" lon="1.09847">
        <ele>362.4</ele>
        <time>2024-06-24T14:56:21.993Z</time>
      </trkpt>
      <trkpt lat="43.03304" lon="1.09852">
        <ele>362.4</ele>
        <time>2024-06-24T14:56:22.993Z</time>
      </trkpt>
      <trkpt lat="43.03302" lon="1.09858">
        <ele>362.4</ele>
        <time>2024-06-24T14:56:23.993Z</time>
      </trkpt>
      <trkpt lat="43.033" lon="1.09863">
        <ele>362.8</ele>
        <time>2024-06-24T14:56:24.993Z</time>
      </trkpt>
      <trkpt lat="43.03299" lon="1.09869">
        <ele>362.8</ele>
        <time>2024-06-24T14:56:25.993Z</time>
      </trkpt>
      <trkpt lat="43.03298" lon="1.09875">
        <ele>363.6</ele>
        <time>2024-06-24T14:56:26.993Z</time>
      </trkpt>
      <trkpt lat="43.03296" lon="1.09881">
        <ele>363.2</ele>
        <time>2024-06-24T14:56:27.993Z</time>
      </trkpt>
      <trkpt lat="43.03294" lon="1.09887">
        <ele>363</ele>
        <time>2024-06-24T14:56:28.993Z</time>
      </trkpt>
      <trkpt lat="43.03292" lon="1.09893">
        <ele>362.4</ele>
        <time>2024-06-24T14:56:29.993Z</time>
      </trkpt>
      <trkpt lat="43.03291" lon="1.09899">
        <ele>362.8</ele>
        <time>2024-06-24T14:56:30.993Z</time>
      </trkpt>
      <trkpt lat="43.03289" lon="1.09905">
        <ele>362.8</ele>
        <time>2024-06-24T14:56:31.993Z</time>
      </trkpt>
      <trkpt lat="43.03287" lon="1.09911">
        <ele>362.8</ele>
        <time>2024-06-24T14:56:32.993Z</time>
      </trkpt>
      <trkpt lat="43.03286" lon="1.09917">
        <ele>362.8</ele>
        <time>2024-06-24T14:56:33.993Z</time>
      </trkpt>
      <trkpt lat="43.03285" lon="1.09923">
        <ele>363</ele>
        <time>2024-06-24T14:56:34.993Z</time>
      </trkpt>
      <trkpt lat="43.03282" lon="1.09927">
        <ele>363</ele>
        <time>2024-06-24T14:56:35.993Z</time>
      </trkpt>
      <trkpt lat="43.03282" lon="1.09933">
        <ele>363</ele>
        <time>2024-06-24T14:56:36.993Z</time>
      </trkpt>
      <trkpt lat="43.0328" lon="1.09938">
        <ele>363</ele>
        <time>2024-06-24T14:56:37.993Z</time>
      </trkpt>
      <trkpt lat="43.03279" lon="1.09944">
        <ele>362.8</ele>
        <time>2024-06-24T14:56:38.993Z</time>
      </trkpt>
      <trkpt lat="43.03278" lon="1.09949">
        <ele>362.8</ele>
        <time>2024-06-24T14:56:39.993Z</time>
      </trkpt>
      <trkpt lat="43.03276" lon="1.09955">
        <ele>362.8</ele>
        <time>2024-06-24T14:56:40.993Z</time>
      </trkpt>
      <trkpt lat="43.03274" lon="1.09961">
        <ele>363.2</ele>
        <time>2024-06-24T14:56:41.993Z</time>
      </trkpt>
      <trkpt lat="43.03273" lon="1.09966">
        <ele>363.2</ele>
        <time>2024-06-24T14:56:42.993Z</time>
      </trkpt>
      <trkpt lat="43.03271" lon="1.09972">
        <ele>363.6</ele>
        <time>2024-06-24T14:56:43.993Z</time>
      </trkpt>
      <trkpt lat="43.0327" lon="1.09978">
        <ele>363.6</ele>
        <time>2024-06-24T14:56:44.993Z</time>
      </trkpt>
      <trkpt lat="43.03268" lon="1.09984">
        <ele>363.6</ele>
        <time>2024-06-24T14:56:45.993Z</time>
      </trkpt>
      <trkpt lat="43.03267" lon="1.0999">
        <ele>363.6</ele>
        <time>2024-06-24T14:56:46.993Z</time>
      </trkpt>
      <trkpt lat="43.03265" lon="1.09996">
        <ele>364</ele>
        <time>2024-06-24T14:56:47.993Z</time>
      </trkpt>
      <trkpt lat="43.03264" lon="1.10002">
        <ele>364</ele>
        <time>2024-06-24T14:56:48.993Z</time>
      </trkpt>
      <trkpt lat="43.03263" lon="1.10007">
        <ele>363.8</ele>
        <time>2024-06-24T14:56:49.993Z</time>
      </trkpt>
      <trkpt lat="43.03261" lon="1.10013">
        <ele>363.8</ele>
        <time>2024-06-24T14:56:50.993Z</time>
      </trkpt>
      <trkpt lat="43.0326" lon="1.10019">
        <ele>363.8</ele>
        <time>2024-06-24T14:56:51.993Z</time>
      </trkpt>
      <trkpt lat="43.03257" lon="1.10025">
        <ele>364</ele>
        <time>2024-06-24T14:56:52.993Z</time>
      </trkpt>
      <trkpt lat="43.03257" lon="1.10031">
        <ele>364</ele>
        <time>2024-06-24T14:56:53.993Z</time>
      </trkpt>
      <trkpt lat="43.03256" lon="1.10038">
        <ele>364</ele>
        <time>2024-06-24T14:56:54.993Z</time>
      </trkpt>
      <trkpt lat="43.03254" lon="1.10044">
        <ele>363.6</ele>
        <time>2024-06-24T14:56:55.993Z</time>
      </trkpt>
      <trkpt lat="43.03252" lon="1.1005">
        <ele>363</ele>
        <time>2024-06-24T14:56:56.993Z</time>
      </trkpt>
      <trkpt lat="43.03251" lon="1.10056">
        <ele>362.6</ele>
        <time>2024-06-24T14:56:57.993Z</time>
      </trkpt>
      <trkpt lat="43.0325" lon="1.10063">
        <ele>362.6</ele>
        <time>2024-06-24T14:56:58.993Z</time>
      </trkpt>
      <trkpt lat="43.03249" lon="1.1007">
        <ele>363</ele>
        <time>2024-06-24T14:56:59.993Z</time>
      </trkpt>
      <trkpt lat="43.03247" lon="1.10076">
        <ele>363</ele>
        <time>2024-06-24T14:57:00.993Z</time>
      </trkpt>
      <trkpt lat="43.03246" lon="1.10083">
        <ele>363</ele>
        <time>2024-06-24T14:57:01.993Z</time>
      </trkpt>
      <trkpt lat="43.03245" lon="1.1009">
        <ele>363.4</ele>
        <time>2024-06-24T14:57:02.993Z</time>
      </trkpt>
      <trkpt lat="43.03244" lon="1.10098">
        <ele>363.8</ele>
        <time>2024-06-24T14:57:03.993Z</time>
      </trkpt>
      <trkpt lat="43.03243" lon="1.10105">
        <ele>364.6</ele>
        <time>2024-06-24T14:57:04.993Z</time>
      </trkpt>
      <trkpt lat="43.03242" lon="1.10112">
        <ele>364.2</ele>
        <time>2024-06-24T14:57:05.993Z</time>
      </trkpt>
      <trkpt lat="43.03241" lon="1.10119">
        <ele>364</ele>
        <time>2024-06-24T14:57:06.993Z</time>
      </trkpt>
      <trkpt lat="43.0324" lon="1.10126">
        <ele>363.6</ele>
        <time>2024-06-24T14:57:07.993Z</time>
      </trkpt>
      <trkpt lat="43.03238" lon="1.10132">
        <ele>363.8</ele>
        <time>2024-06-24T14:57:08.993Z</time>
      </trkpt>
      <trkpt lat="43.03238" lon="1.10138">
        <ele>364.2</ele>
        <time>2024-06-24T14:57:09.993Z</time>
      </trkpt>
      <trkpt lat="43.03236" lon="1.10144">
        <ele>364.6</ele>
        <time>2024-06-24T14:57:10.993Z</time>
      </trkpt>
      <trkpt lat="43.03236" lon="1.1015">
        <ele>364.6</ele>
        <time>2024-06-24T14:57:11.993Z</time>
      </trkpt>
      <trkpt lat="43.03235" lon="1.10155">
        <ele>364</ele>
        <time>2024-06-24T14:57:12.993Z</time>
      </trkpt>
      <trkpt lat="43.03232" lon="1.10159">
        <ele>364</ele>
        <time>2024-06-24T14:57:13.993Z</time>
      </trkpt>
      <trkpt lat="43.0323" lon="1.10163">
        <ele>364</ele>
        <time>2024-06-24T14:57:14.993Z</time>
      </trkpt>
      <trkpt lat="43.03226" lon="1.10167">
        <ele>363.8</ele>
        <time>2024-06-24T14:57:15.993Z</time>
      </trkpt>
      <trkpt lat="43.03223" lon="1.10169">
        <ele>363.8</ele>
        <time>2024-06-24T14:57:16.993Z</time>
      </trkpt>
      <trkpt lat="43.03219" lon="1.10172">
        <ele>363.8</ele>
        <time>2024-06-24T14:57:17.993Z</time>
      </trkpt>
      <trkpt lat="43.03215" lon="1.10174">
        <ele>363.8</ele>
        <time>2024-06-24T14:57:18.993Z</time>
      </trkpt>
      <trkpt lat="43.03211" lon="1.10177">
        <ele>363.4</ele>
        <time>2024-06-24T14:57:19.993Z</time>
      </trkpt>
      <trkpt lat="43.03207" lon="1.10181">
        <ele>363.4</ele>
        <time>2024-06-24T14:57:20.993Z</time>
      </trkpt>
      <trkpt lat="43.03203" lon="1.10184">
        <ele>363.6</ele>
        <time>2024-06-24T14:57:21.993Z</time>
      </trkpt>
      <trkpt lat="43.03198" lon="1.10187">
        <ele>363.8</ele>
        <time>2024-06-24T14:57:22.993Z</time>
      </trkpt>
      <trkpt lat="43.03194" lon="1.1019">
        <ele>363.8</ele>
        <time>2024-06-24T14:57:23.993Z</time>
      </trkpt>
      <trkpt lat="43.0319" lon="1.10194">
        <ele>364.4</ele>
        <time>2024-06-24T14:57:24.993Z</time>
      </trkpt>
      <trkpt lat="43.03185" lon="1.10196">
        <ele>364</ele>
        <time>2024-06-24T14:57:25.993Z</time>
      </trkpt>
      <trkpt lat="43.03181" lon="1.102">
        <ele>364.2</ele>
        <time>2024-06-24T14:57:26.993Z</time>
      </trkpt>
      <trkpt lat="43.03177" lon="1.10203">
        <ele>364.2</ele>
        <time>2024-06-24T14:57:27.993Z</time>
      </trkpt>
      <trkpt lat="43.03173" lon="1.10207">
        <ele>364</ele>
        <time>2024-06-24T14:57:28.993Z</time>
      </trkpt>
      <trkpt lat="43.03169" lon="1.1021">
        <ele>363.6</ele>
        <time>2024-06-24T14:57:29.993Z</time>
      </trkpt>
      <trkpt lat="43.03164" lon="1.10212">
        <ele>363.6</ele>
        <time>2024-06-24T14:57:30.993Z</time>
      </trkpt>
      <trkpt lat="43.0316" lon="1.10217">
        <ele>363.6</ele>
        <time>2024-06-24T14:57:31.993Z</time>
      </trkpt>
      <trkpt lat="43.03156" lon="1.1022">
        <ele>363.8</ele>
        <time>2024-06-24T14:57:32.993Z</time>
      </trkpt>
      <trkpt lat="43.03152" lon="1.10224">
        <ele>363.8</ele>
        <time>2024-06-24T14:57:33.993Z</time>
      </trkpt>
      <trkpt lat="43.03148" lon="1.10227">
        <ele>363.8</ele>
        <time>2024-06-24T14:57:34.993Z</time>
      </trkpt>
      <trkpt lat="43.03143" lon="1.10229">
        <ele>363.8</ele>
        <time>2024-06-24T14:57:35.993Z</time>
      </trkpt>
      <trkpt lat="43.03138" lon="1.10232">
        <ele>363.8</ele>
        <time>2024-06-24T14:57:36.993Z</time>
      </trkpt>
      <trkpt lat="43.03134" lon="1.10235">
        <ele>364.6</ele>
        <time>2024-06-24T14:57:37.993Z</time>
      </trkpt>
      <trkpt lat="43.03129" lon="1.10238">
        <ele>364.2</ele>
        <time>2024-06-24T14:57:38.993Z</time>
      </trkpt>
      <trkpt lat="43.03125" lon="1.10241">
        <ele>364.2</ele>
        <time>2024-06-24T14:57:39.993Z</time>
      </trkpt>
      <trkpt lat="43.03121" lon="1.10243">
        <ele>364.2</ele>
        <time>2024-06-24T14:57:40.993Z</time>
      </trkpt>
      <trkpt lat="43.03116" lon="1.10247">
        <ele>363.4</ele>
        <time>2024-06-24T14:57:41.993Z</time>
      </trkpt>
      <trkpt lat="43.03112" lon="1.1025">
        <ele>363.4</ele>
        <time>2024-06-24T14:57:42.993Z</time>
      </trkpt>
      <trkpt lat="43.03108" lon="1.10253">
        <ele>363.4</ele>
        <time>2024-06-24T14:57:43.993Z</time>
      </trkpt>
      <trkpt lat="43.03103" lon="1.10255">
        <ele>363.4</ele>
        <time>2024-06-24T14:57:44.993Z</time>
      </trkpt>
      <trkpt lat="43.03099" lon="1.10259">
        <ele>363.4</ele>
        <time>2024-06-24T14:57:45.993Z</time>
      </trkpt>
      <trkpt lat="43.03095" lon="1.10262">
        <ele>363.8</ele>
        <time>2024-06-24T14:57:46.993Z</time>
      </trkpt>
      <trkpt lat="43.0309" lon="1.10265">
        <ele>363.8</ele>
        <time>2024-06-24T14:57:47.993Z</time>
      </trkpt>
      <trkpt lat="43.03086" lon="1.10268">
        <ele>363.8</ele>
        <time>2024-06-24T14:57:48.993Z</time>
      </trkpt>
      <trkpt lat="43.03082" lon="1.10272">
        <ele>363.8</ele>
        <time>2024-06-24T14:57:49.993Z</time>
      </trkpt>
      <trkpt lat="43.03078" lon="1.10276">
        <ele>363.8</ele>
        <time>2024-06-24T14:57:50.993Z</time>
      </trkpt>
      <trkpt lat="43.03074" lon="1.10279">
        <ele>363.2</ele>
        <time>2024-06-24T14:57:51.993Z</time>
      </trkpt>
      <trkpt lat="43.0307" lon="1.10283">
        <ele>363.2</ele>
        <time>2024-06-24T14:57:52.993Z</time>
      </trkpt>
      <trkpt lat="43.03066" lon="1.10287">
        <ele>363.6</ele>
        <time>2024-06-24T14:57:53.993Z</time>
      </trkpt>
      <trkpt lat="43.03062" lon="1.10291">
        <ele>364</ele>
        <time>2024-06-24T14:57:54.993Z</time>
      </trkpt>
      <trkpt lat="43.03059" lon="1.10294">
        <ele>364.2</ele>
        <time>2024-06-24T14:57:55.993Z</time>
      </trkpt>
      <trkpt lat="43.03055" lon="1.10297">
        <ele>364.2</ele>
        <time>2024-06-24T14:57:56.993Z</time>
      </trkpt>
      <trkpt lat="43.03051" lon="1.10301">
        <ele>364</ele>
        <time>2024-06-24T14:57:57.993Z</time>
      </trkpt>
      <trkpt lat="43.03047" lon="1.10305">
        <ele>364.4</ele>
        <time>2024-06-24T14:57:58.993Z</time>
      </trkpt>
      <trkpt lat="43.03043" lon="1.10309">
        <ele>364.4</ele>
        <time>2024-06-24T14:57:59.993Z</time>
      </trkpt>
      <trkpt lat="43.0304" lon="1.10312">
        <ele>364.4</ele>
        <time>2024-06-24T14:58:00.993Z</time>
      </trkpt>
      <trkpt lat="43.03036" lon="1.10315">
        <ele>364.6</ele>
        <time>2024-06-24T14:58:01.993Z</time>
      </trkpt>
      <trkpt lat="43.03031" lon="1.10319">
        <ele>365</ele>
        <time>2024-06-24T14:58:02.993Z</time>
      </trkpt>
      <trkpt lat="43.03027" lon="1.10322">
        <ele>364.6</ele>
        <time>2024-06-24T14:58:03.993Z</time>
      </trkpt>
      <trkpt lat="43.03023" lon="1.10325">
        <ele>364.6</ele>
        <time>2024-06-24T14:58:04.993Z</time>
      </trkpt>
      <trkpt lat="43.03019" lon="1.10328">
        <ele>364.6</ele>
        <time>2024-06-24T14:58:05.993Z</time>
      </trkpt>
      <trkpt lat="43.03014" lon="1.10331">
        <ele>364.6</ele>
        <time>2024-06-24T14:58:06.993Z</time>
      </trkpt>
      <trkpt lat="43.0301" lon="1.10334">
        <ele>364.6</ele>
        <time>2024-06-24T14:58:07.993Z</time>
      </trkpt>
      <trkpt lat="43.03006" lon="1.10338">
        <ele>364.6</ele>
        <time>2024-06-24T14:58:08.993Z</time>
      </trkpt>
      <trkpt lat="43.03002" lon="1.10341">
        <ele>364.6</ele>
        <time>2024-06-24T14:58:09.993Z</time>
      </trkpt>
      <trkpt lat="43.02998" lon="1.10345">
        <ele>364.8</ele>
        <time>2024-06-24T14:58:10.993Z</time>
      </trkpt>
      <trkpt lat="43.02995" lon="1.10348">
        <ele>365.8</ele>
        <time>2024-06-24T14:58:11.993Z</time>
      </trkpt>
      <trkpt lat="43.0299" lon="1.1035">
        <ele>365.8</ele>
        <time>2024-06-24T14:58:12.993Z</time>
      </trkpt>
      <trkpt lat="43.02987" lon="1.10353">
        <ele>365.6</ele>
        <time>2024-06-24T14:58:13.993Z</time>
      </trkpt>
      <trkpt lat="43.02984" lon="1.10356">
        <ele>365.6</ele>
        <time>2024-06-24T14:58:14.993Z</time>
      </trkpt>
      <trkpt lat="43.02981" lon="1.1036">
        <ele>365.6</ele>
        <time>2024-06-24T14:58:15.993Z</time>
      </trkpt>
      <trkpt lat="43.02978" lon="1.10364">
        <ele>365.2</ele>
        <time>2024-06-24T14:58:16.993Z</time>
      </trkpt>
      <trkpt lat="43.02977" lon="1.10366">
        <ele>365.2</ele>
        <time>2024-06-24T14:58:17.993Z</time>
      </trkpt>
      <trkpt lat="43.02975" lon="1.10369">
        <ele>365.2</ele>
        <time>2024-06-24T14:58:18.993Z</time>
      </trkpt>
      <trkpt lat="43.02974" lon="1.1037">
        <ele>365.2</ele>
        <time>2024-06-24T14:58:19.993Z</time>
      </trkpt>
      <trkpt lat="43.02974" lon="1.10371">
        <ele>365.2</ele>
        <time>2024-06-24T14:58:20.993Z</time>
      </trkpt>
      <trkpt lat="43.02974" lon="1.10372">
        <ele>365.2</ele>
        <time>2024-06-24T14:58:21.993Z</time>
      </trkpt>
      <trkpt lat="43.02974" lon="1.10372">
        <ele>365.2</ele>
        <time>2024-06-24T14:58:22.993Z</time>
      </trkpt>
      <trkpt lat="43.02974" lon="1.10372">
        <ele>365.2</ele>
        <time>2024-06-24T14:58:23.993Z</time>
      </trkpt>
      <trkpt lat="43.02971" lon="1.10373">
        <ele>365.2</ele>
        <time>2024-06-24T14:58:26.993Z</time>
      </trkpt>
      <trkpt lat="43.02969" lon="1.10375">
        <ele>365.2</ele>
        <time>2024-06-24T14:58:27.993Z</time>
      </trkpt>
      <trkpt lat="43.02967" lon="1.10377">
        <ele>365.2</ele>
        <time>2024-06-24T14:58:28.993Z</time>
      </trkpt>
      <trkpt lat="43.02965" lon="1.10381">
        <ele>365.2</ele>
        <time>2024-06-24T14:58:29.993Z</time>
      </trkpt>
      <trkpt lat="43.02963" lon="1.10385">
        <ele>365.6</ele>
        <time>2024-06-24T14:58:30.993Z</time>
      </trkpt>
      <trkpt lat="43.0296" lon="1.10389">
        <ele>366</ele>
        <time>2024-06-24T14:58:31.993Z</time>
      </trkpt>
      <trkpt lat="43.02957" lon="1.10393">
        <ele>366</ele>
        <time>2024-06-24T14:58:32.993Z</time>
      </trkpt>
      <trkpt lat="43.02955" lon="1.10399">
        <ele>366.2</ele>
        <time>2024-06-24T14:58:33.993Z</time>
      </trkpt>
      <trkpt lat="43.02953" lon="1.10404">
        <ele>365.8</ele>
        <time>2024-06-24T14:58:34.993Z</time>
      </trkpt>
      <trkpt lat="43.02951" lon="1.1041">
        <ele>365.6</ele>
        <time>2024-06-24T14:58:35.993Z</time>
      </trkpt>
      <trkpt lat="43.02949" lon="1.10414">
        <ele>365.6</ele>
        <time>2024-06-24T14:58:36.993Z</time>
      </trkpt>
      <trkpt lat="43.02946" lon="1.10418">
        <ele>366.2</ele>
        <time>2024-06-24T14:58:37.993Z</time>
      </trkpt>
      <trkpt lat="43.02944" lon="1.10423">
        <ele>366.2</ele>
        <time>2024-06-24T14:58:38.993Z</time>
      </trkpt>
      <trkpt lat="43.02942" lon="1.10428">
        <ele>366.2</ele>
        <time>2024-06-24T14:58:39.993Z</time>
      </trkpt>
      <trkpt lat="43.02939" lon="1.10432">
        <ele>366.2</ele>
        <time>2024-06-24T14:58:40.993Z</time>
      </trkpt>
      <trkpt lat="43.02937" lon="1.10437">
        <ele>366.4</ele>
        <time>2024-06-24T14:58:41.993Z</time>
      </trkpt>
      <trkpt lat="43.02935" lon="1.10443">
        <ele>366.4</ele>
        <time>2024-06-24T14:58:42.993Z</time>
      </trkpt>
      <trkpt lat="43.02932" lon="1.10447">
        <ele>366.4</ele>
        <time>2024-06-24T14:58:43.993Z</time>
      </trkpt>
      <trkpt lat="43.0293" lon="1.10452">
        <ele>366.4</ele>
        <time>2024-06-24T14:58:44.993Z</time>
      </trkpt>
      <trkpt lat="43.02927" lon="1.10457">
        <ele>366.2</ele>
        <time>2024-06-24T14:58:45.993Z</time>
      </trkpt>
      <trkpt lat="43.02925" lon="1.10462">
        <ele>366.2</ele>
        <time>2024-06-24T14:58:46.993Z</time>
      </trkpt>
      <trkpt lat="43.02923" lon="1.10467">
        <ele>366.2</ele>
        <time>2024-06-24T14:58:47.993Z</time>
      </trkpt>
      <trkpt lat="43.0292" lon="1.10472">
        <ele>366.4</ele>
        <time>2024-06-24T14:58:48.993Z</time>
      </trkpt>
      <trkpt lat="43.02918" lon="1.10477">
        <ele>366.4</ele>
        <time>2024-06-24T14:58:49.993Z</time>
      </trkpt>
      <trkpt lat="43.02916" lon="1.10483">
        <ele>366.4</ele>
        <time>2024-06-24T14:58:50.993Z</time>
      </trkpt>
      <trkpt lat="43.02913" lon="1.10487">
        <ele>366.8</ele>
        <time>2024-06-24T14:58:51.993Z</time>
      </trkpt>
      <trkpt lat="43.0291" lon="1.10492">
        <ele>366.8</ele>
        <time>2024-06-24T14:58:52.993Z</time>
      </trkpt>
      <trkpt lat="43.02907" lon="1.10498">
        <ele>366.8</ele>
        <time>2024-06-24T14:58:53.993Z</time>
      </trkpt>
      <trkpt lat="43.02905" lon="1.10503">
        <ele>367</ele>
        <time>2024-06-24T14:58:54.993Z</time>
      </trkpt>
      <trkpt lat="43.02902" lon="1.10508">
        <ele>367</ele>
        <time>2024-06-24T14:58:55.993Z</time>
      </trkpt>
      <trkpt lat="43.02899" lon="1.10513">
        <ele>367</ele>
        <time>2024-06-24T14:58:56.993Z</time>
      </trkpt>
      <trkpt lat="43.02897" lon="1.10518">
        <ele>367</ele>
        <time>2024-06-24T14:58:57.993Z</time>
      </trkpt>
      <trkpt lat="43.02894" lon="1.10524">
        <ele>367</ele>
        <time>2024-06-24T14:58:58.993Z</time>
      </trkpt>
      <trkpt lat="43.02892" lon="1.10529">
        <ele>367</ele>
        <time>2024-06-24T14:58:59.993Z</time>
      </trkpt>
      <trkpt lat="43.02889" lon="1.10533">
        <ele>367</ele>
        <time>2024-06-24T14:59:00.993Z</time>
      </trkpt>
      <trkpt lat="43.02887" lon="1.10539">
        <ele>367</ele>
        <time>2024-06-24T14:59:01.993Z</time>
      </trkpt>
      <trkpt lat="43.02884" lon="1.10544">
        <ele>367</ele>
        <time>2024-06-24T14:59:02.993Z</time>
      </trkpt>
      <trkpt lat="43.02881" lon="1.1055">
        <ele>367</ele>
        <time>2024-06-24T14:59:03.993Z</time>
      </trkpt>
      <trkpt lat="43.02878" lon="1.10555">
        <ele>366.4</ele>
        <time>2024-06-24T14:59:04.993Z</time>
      </trkpt>
      <trkpt lat="43.02875" lon="1.1056">
        <ele>366.4</ele>
        <time>2024-06-24T14:59:05.993Z</time>
      </trkpt>
      <trkpt lat="43.02873" lon="1.10565">
        <ele>366.4</ele>
        <time>2024-06-24T14:59:06.993Z</time>
      </trkpt>
      <trkpt lat="43.02871" lon="1.1057">
        <ele>366.8</ele>
        <time>2024-06-24T14:59:07.993Z</time>
      </trkpt>
      <trkpt lat="43.02868" lon="1.10575">
        <ele>366.8</ele>
        <time>2024-06-24T14:59:08.993Z</time>
      </trkpt>
      <trkpt lat="43.02866" lon="1.10579">
        <ele>366.8</ele>
        <time>2024-06-24T14:59:09.993Z</time>
      </trkpt>
      <trkpt lat="43.02863" lon="1.10584">
        <ele>366.8</ele>
        <time>2024-06-24T14:59:10.993Z</time>
      </trkpt>
      <trkpt lat="43.02861" lon="1.10588">
        <ele>367</ele>
        <time>2024-06-24T14:59:11.993Z</time>
      </trkpt>
      <trkpt lat="43.02858" lon="1.10593">
        <ele>367</ele>
        <time>2024-06-24T14:59:12.993Z</time>
      </trkpt>
      <trkpt lat="43.02856" lon="1.10598">
        <ele>367</ele>
        <time>2024-06-24T14:59:13.993Z</time>
      </trkpt>
      <trkpt lat="43.02854" lon="1.10602">
        <ele>367.2</ele>
        <time>2024-06-24T14:59:14.993Z</time>
      </trkpt>
      <trkpt lat="43.02851" lon="1.10605">
        <ele>367.2</ele>
        <time>2024-06-24T14:59:15.993Z</time>
      </trkpt>
      <trkpt lat="43.02849" lon="1.1061">
        <ele>367.8</ele>
        <time>2024-06-24T14:59:16.993Z</time>
      </trkpt>
      <trkpt lat="43.02847" lon="1.10614">
        <ele>367.8</ele>
        <time>2024-06-24T14:59:17.993Z</time>
      </trkpt>
      <trkpt lat="43.02845" lon="1.10617">
        <ele>367.8</ele>
        <time>2024-06-24T14:59:18.993Z</time>
      </trkpt>
      <trkpt lat="43.02844" lon="1.10619">
        <ele>367.8</ele>
        <time>2024-06-24T14:59:19.993Z</time>
      </trkpt>
      <trkpt lat="43.02844" lon="1.10621">
        <ele>367.8</ele>
        <time>2024-06-24T14:59:20.993Z</time>
      </trkpt>
      <trkpt lat="43.02843" lon="1.10623">
        <ele>368</ele>
        <time>2024-06-24T14:59:21.993Z</time>
      </trkpt>
      <trkpt lat="43.02842" lon="1.10625">
        <ele>368</ele>
        <time>2024-06-24T14:59:22.993Z</time>
      </trkpt>
      <trkpt lat="43.0284" lon="1.10628">
        <ele>368.2</ele>
        <time>2024-06-24T14:59:23.993Z</time>
      </trkpt>
      <trkpt lat="43.02839" lon="1.10632">
        <ele>368.2</ele>
        <time>2024-06-24T14:59:24.993Z</time>
      </trkpt>
      <trkpt lat="43.02839" lon="1.10636">
        <ele>368.2</ele>
        <time>2024-06-24T14:59:25.993Z</time>
      </trkpt>
      <trkpt lat="43.0284" lon="1.10641">
        <ele>368.2</ele>
        <time>2024-06-24T14:59:26.993Z</time>
      </trkpt>
      <trkpt lat="43.0284" lon="1.10646">
        <ele>368.2</ele>
        <time>2024-06-24T14:59:27.993Z</time>
      </trkpt>
      <trkpt lat="43.02839" lon="1.10651">
        <ele>368.2</ele>
        <time>2024-06-24T14:59:28.993Z</time>
      </trkpt>
      <trkpt lat="43.02838" lon="1.10656">
        <ele>368.2</ele>
        <time>2024-06-24T14:59:29.993Z</time>
      </trkpt>
      <trkpt lat="43.02837" lon="1.10661">
        <ele>368.2</ele>
        <time>2024-06-24T14:59:30.993Z</time>
      </trkpt>
      <trkpt lat="43.02835" lon="1.10666">
        <ele>368</ele>
        <time>2024-06-24T14:59:31.993Z</time>
      </trkpt>
      <trkpt lat="43.02832" lon="1.1067">
        <ele>368</ele>
        <time>2024-06-24T14:59:32.993Z</time>
      </trkpt>
      <trkpt lat="43.02829" lon="1.10675">
        <ele>368</ele>
        <time>2024-06-24T14:59:33.993Z</time>
      </trkpt>
      <trkpt lat="43.02827" lon="1.1068">
        <ele>368</ele>
        <time>2024-06-24T14:59:34.993Z</time>
      </trkpt>
      <trkpt lat="43.02824" lon="1.10685">
        <ele>368</ele>
        <time>2024-06-24T14:59:35.993Z</time>
      </trkpt>
      <trkpt lat="43.02822" lon="1.1069">
        <ele>367</ele>
        <time>2024-06-24T14:59:36.993Z</time>
      </trkpt>
      <trkpt lat="43.0282" lon="1.10696">
        <ele>367.4</ele>
        <time>2024-06-24T14:59:37.993Z</time>
      </trkpt>
      <trkpt lat="43.02818" lon="1.10701">
        <ele>366.8</ele>
        <time>2024-06-24T14:59:38.993Z</time>
      </trkpt>
      <trkpt lat="43.02816" lon="1.10706">
        <ele>367.2</ele>
        <time>2024-06-24T14:59:39.993Z</time>
      </trkpt>
      <trkpt lat="43.02814" lon="1.10711">
        <ele>367.6</ele>
        <time>2024-06-24T14:59:40.993Z</time>
      </trkpt>
      <trkpt lat="43.02812" lon="1.10717">
        <ele>367.6</ele>
        <time>2024-06-24T14:59:41.993Z</time>
      </trkpt>
      <trkpt lat="43.0281" lon="1.10722">
        <ele>367.8</ele>
        <time>2024-06-24T14:59:42.993Z</time>
      </trkpt>
      <trkpt lat="43.02808" lon="1.10727">
        <ele>367.8</ele>
        <time>2024-06-24T14:59:43.993Z</time>
      </trkpt>
      <trkpt lat="43.02806" lon="1.10733">
        <ele>368.2</ele>
        <time>2024-06-24T14:59:44.993Z</time>
      </trkpt>
      <trkpt lat="43.02804" lon="1.10738">
        <ele>368.2</ele>
        <time>2024-06-24T14:59:45.993Z</time>
      </trkpt>
      <trkpt lat="43.02802" lon="1.10743">
        <ele>368.2</ele>
        <time>2024-06-24T14:59:46.993Z</time>
      </trkpt>
      <trkpt lat="43.028" lon="1.10748">
        <ele>368</ele>
        <time>2024-06-24T14:59:47.993Z</time>
      </trkpt>
      <trkpt lat="43.02798" lon="1.10754">
        <ele>368</ele>
        <time>2024-06-24T14:59:48.993Z</time>
      </trkpt>
      <trkpt lat="43.02797" lon="1.1076">
        <ele>368</ele>
        <time>2024-06-24T14:59:49.993Z</time>
      </trkpt>
      <trkpt lat="43.02795" lon="1.10765">
        <ele>368</ele>
        <time>2024-06-24T14:59:50.993Z</time>
      </trkpt>
      <trkpt lat="43.02794" lon="1.10771">
        <ele>368</ele>
        <time>2024-06-24T14:59:51.993Z</time>
      </trkpt>
      <trkpt lat="43.02792" lon="1.10776">
        <ele>368</ele>
        <time>2024-06-24T14:59:52.993Z</time>
      </trkpt>
      <trkpt lat="43.0279" lon="1.10782">
        <ele>368</ele>
        <time>2024-06-24T14:59:53.993Z</time>
      </trkpt>
      <trkpt lat="43.02789" lon="1.10788">
        <ele>368</ele>
        <time>2024-06-24T14:59:54.993Z</time>
      </trkpt>
      <trkpt lat="43.02787" lon="1.10795">
        <ele>368</ele>
        <time>2024-06-24T14:59:55.993Z</time>
      </trkpt>
      <trkpt lat="43.02786" lon="1.10801">
        <ele>368</ele>
        <time>2024-06-24T14:59:56.993Z</time>
      </trkpt>
      <trkpt lat="43.02784" lon="1.10807">
        <ele>368.2</ele>
        <time>2024-06-24T14:59:57.993Z</time>
      </trkpt>
      <trkpt lat="43.02784" lon="1.1081">
        <ele>368.2</ele>
        <time>2024-06-24T14:59:58.993Z</time>
      </trkpt>
      <trkpt lat="43.0278" lon="1.10812">
        <ele>368.2</ele>
        <time>2024-06-24T14:59:59.993Z</time>
      </trkpt>
      <trkpt lat="43.02777" lon="1.10813">
        <ele>368.2</ele>
        <time>2024-06-24T15:00:00.993Z</time>
      </trkpt>
      <trkpt lat="43.02774" lon="1.10811">
        <ele>368.2</ele>
        <time>2024-06-24T15:00:01.993Z</time>
      </trkpt>
      <trkpt lat="43.02771" lon="1.10811">
        <ele>368.2</ele>
        <time>2024-06-24T15:00:02.993Z</time>
      </trkpt>
      <trkpt lat="43.02767" lon="1.10809">
        <ele>368.6</ele>
        <time>2024-06-24T15:00:03.993Z</time>
      </trkpt>
      <trkpt lat="43.02764" lon="1.10809">
        <ele>368.6</ele>
        <time>2024-06-24T15:00:04.993Z</time>
      </trkpt>
      <trkpt lat="43.02759" lon="1.10808">
        <ele>368.6</ele>
        <time>2024-06-24T15:00:05.993Z</time>
      </trkpt>
      <trkpt lat="43.02755" lon="1.10808">
        <ele>368.6</ele>
        <time>2024-06-24T15:00:06.993Z</time>
      </trkpt>
      <trkpt lat="43.0275" lon="1.10808">
        <ele>368.6</ele>
        <time>2024-06-24T15:00:07.993Z</time>
      </trkpt>
      <trkpt lat="43.02746" lon="1.10809">
        <ele>368.6</ele>
        <time>2024-06-24T15:00:08.993Z</time>
      </trkpt>
      <trkpt lat="43.02742" lon="1.10811">
        <ele>368.6</ele>
        <time>2024-06-24T15:00:09.993Z</time>
      </trkpt>
      <trkpt lat="43.02737" lon="1.10812">
        <ele>368.6</ele>
        <time>2024-06-24T15:00:10.993Z</time>
      </trkpt>
      <trkpt lat="43.02733" lon="1.10814">
        <ele>368.6</ele>
        <time>2024-06-24T15:00:11.993Z</time>
      </trkpt>
      <trkpt lat="43.02729" lon="1.10814">
        <ele>368.6</ele>
        <time>2024-06-24T15:00:12.993Z</time>
      </trkpt>
      <trkpt lat="43.02725" lon="1.10815">
        <ele>368.6</ele>
        <time>2024-06-24T15:00:13.993Z</time>
      </trkpt>
      <trkpt lat="43.02721" lon="1.10815">
        <ele>368.6</ele>
        <time>2024-06-24T15:00:14.993Z</time>
      </trkpt>
      <trkpt lat="43.02717" lon="1.10814">
        <ele>368.6</ele>
        <time>2024-06-24T15:00:15.993Z</time>
      </trkpt>
      <trkpt lat="43.02712" lon="1.10814">
        <ele>368.6</ele>
        <time>2024-06-24T15:00:16.993Z</time>
      </trkpt>
      <trkpt lat="43.02708" lon="1.10814">
        <ele>368.6</ele>
        <time>2024-06-24T15:00:17.993Z</time>
      </trkpt>
      <trkpt lat="43.02704" lon="1.10813">
        <ele>368.8</ele>
        <time>2024-06-24T15:00:18.993Z</time>
      </trkpt>
      <trkpt lat="43.027" lon="1.10812">
        <ele>368.6</ele>
        <time>2024-06-24T15:00:19.993Z</time>
      </trkpt>
      <trkpt lat="43.02695" lon="1.10811">
        <ele>368.6</ele>
        <time>2024-06-24T15:00:20.993Z</time>
      </trkpt>
      <trkpt lat="43.02691" lon="1.1081">
        <ele>368.6</ele>
        <time>2024-06-24T15:00:21.993Z</time>
      </trkpt>
      <trkpt lat="43.02686" lon="1.1081">
        <ele>368.6</ele>
        <time>2024-06-24T15:00:22.993Z</time>
      </trkpt>
      <trkpt lat="43.02682" lon="1.1081">
        <ele>368.6</ele>
        <time>2024-06-24T15:00:23.993Z</time>
      </trkpt>
      <trkpt lat="43.02677" lon="1.10809">
        <ele>368.6</ele>
        <time>2024-06-24T15:00:24.993Z</time>
      </trkpt>
      <trkpt lat="43.02673" lon="1.10809">
        <ele>368.6</ele>
        <time>2024-06-24T15:00:25.993Z</time>
      </trkpt>
      <trkpt lat="43.02669" lon="1.10807">
        <ele>368.6</ele>
        <time>2024-06-24T15:00:26.993Z</time>
      </trkpt>
      <trkpt lat="43.02665" lon="1.10805">
        <ele>369</ele>
        <time>2024-06-24T15:00:27.993Z</time>
      </trkpt>
      <trkpt lat="43.02662" lon="1.10802">
        <ele>369</ele>
        <time>2024-06-24T15:00:28.993Z</time>
      </trkpt>
      <trkpt lat="43.02662" lon="1.10802">
        <ele>369</ele>
        <time>2024-06-24T15:00:29.993Z</time>
      </trkpt>
      <trkpt lat="43.02659" lon="1.10799">
        <ele>369</ele>
        <time>2024-06-24T15:00:30.993Z</time>
      </trkpt>
      <trkpt lat="43.02655" lon="1.10797">
        <ele>369</ele>
        <time>2024-06-24T15:00:31.993Z</time>
      </trkpt>
      <trkpt lat="43.02652" lon="1.10795">
        <ele>369</ele>
        <time>2024-06-24T15:00:32.993Z</time>
      </trkpt>
      <trkpt lat="43.02649" lon="1.10792">
        <ele>369.2</ele>
        <time>2024-06-24T15:00:33.993Z</time>
      </trkpt>
      <trkpt lat="43.02646" lon="1.10789">
        <ele>369.2</ele>
        <time>2024-06-24T15:00:34.993Z</time>
      </trkpt>
      <trkpt lat="43.02644" lon="1.10788">
        <ele>369.2</ele>
        <time>2024-06-24T15:00:35.993Z</time>
      </trkpt>
      <trkpt lat="43.02643" lon="1.10787">
        <ele>369.2</ele>
        <time>2024-06-24T15:00:36.993Z</time>
      </trkpt>
      <trkpt lat="43.02642" lon="1.10787">
        <ele>369.2</ele>
        <time>2024-06-24T15:00:37.993Z</time>
      </trkpt>
      <trkpt lat="43.02641" lon="1.10787">
        <ele>369.2</ele>
        <time>2024-06-24T15:00:38.993Z</time>
      </trkpt>
      <trkpt lat="43.02639" lon="1.10788">
        <ele>369.2</ele>
        <time>2024-06-24T15:00:39.993Z</time>
      </trkpt>
      <trkpt lat="43.02637" lon="1.10789">
        <ele>369.2</ele>
        <time>2024-06-24T15:00:40.993Z</time>
      </trkpt>
      <trkpt lat="43.02636" lon="1.10791">
        <ele>369.2</ele>
        <time>2024-06-24T15:00:41.993Z</time>
      </trkpt>
      <trkpt lat="43.02634" lon="1.10795">
        <ele>369.2</ele>
        <time>2024-06-24T15:00:42.993Z</time>
      </trkpt>
      <trkpt lat="43.02632" lon="1.10799">
        <ele>369.2</ele>
        <time>2024-06-24T15:00:43.993Z</time>
      </trkpt>
      <trkpt lat="43.02631" lon="1.10804">
        <ele>368.8</ele>
        <time>2024-06-24T15:00:44.993Z</time>
      </trkpt>
      <trkpt lat="43.02629" lon="1.10809">
        <ele>368.8</ele>
        <time>2024-06-24T15:00:45.993Z</time>
      </trkpt>
      <trkpt lat="43.02627" lon="1.10814">
        <ele>368.8</ele>
        <time>2024-06-24T15:00:46.993Z</time>
      </trkpt>
      <trkpt lat="43.02625" lon="1.10819">
        <ele>368.6</ele>
        <time>2024-06-24T15:00:47.993Z</time>
      </trkpt>
      <trkpt lat="43.02623" lon="1.10824">
        <ele>368.6</ele>
        <time>2024-06-24T15:00:48.993Z</time>
      </trkpt>
      <trkpt lat="43.02621" lon="1.10829">
        <ele>368.4</ele>
        <time>2024-06-24T15:00:49.993Z</time>
      </trkpt>
      <trkpt lat="43.02619" lon="1.10835">
        <ele>368.4</ele>
        <time>2024-06-24T15:00:50.993Z</time>
      </trkpt>
      <trkpt lat="43.02616" lon="1.1084">
        <ele>368.8</ele>
        <time>2024-06-24T15:00:51.993Z</time>
      </trkpt>
      <trkpt lat="43.02615" lon="1.10845">
        <ele>368.8</ele>
        <time>2024-06-24T15:00:52.993Z</time>
      </trkpt>
      <trkpt lat="43.02612" lon="1.1085">
        <ele>368.8</ele>
        <time>2024-06-24T15:00:53.993Z</time>
      </trkpt>
      <trkpt lat="43.0261" lon="1.10855">
        <ele>368.8</ele>
        <time>2024-06-24T15:00:54.993Z</time>
      </trkpt>
      <trkpt lat="43.02607" lon="1.1086">
        <ele>368.4</ele>
        <time>2024-06-24T15:00:55.993Z</time>
      </trkpt>
      <trkpt lat="43.02605" lon="1.10866">
        <ele>368.4</ele>
        <time>2024-06-24T15:00:56.993Z</time>
      </trkpt>
      <trkpt lat="43.02602" lon="1.10871">
        <ele>368.2</ele>
        <time>2024-06-24T15:00:57.993Z</time>
      </trkpt>
      <trkpt lat="43.02601" lon="1.10877">
        <ele>368.2</ele>
        <time>2024-06-24T15:00:58.993Z</time>
      </trkpt>
      <trkpt lat="43.02598" lon="1.10883">
        <ele>368.2</ele>
        <time>2024-06-24T15:00:59.993Z</time>
      </trkpt>
      <trkpt lat="43.02595" lon="1.10888">
        <ele>368.2</ele>
        <time>2024-06-24T15:01:00.993Z</time>
      </trkpt>
      <trkpt lat="43.02592" lon="1.10893">
        <ele>368.2</ele>
        <time>2024-06-24T15:01:01.993Z</time>
      </trkpt>
      <trkpt lat="43.0259" lon="1.10898">
        <ele>368.2</ele>
        <time>2024-06-24T15:01:02.993Z</time>
      </trkpt>
      <trkpt lat="43.02587" lon="1.10903">
        <ele>368.2</ele>
        <time>2024-06-24T15:01:03.993Z</time>
      </trkpt>
      <trkpt lat="43.02584" lon="1.10909">
        <ele>368.4</ele>
        <time>2024-06-24T15:01:04.993Z</time>
      </trkpt>
      <trkpt lat="43.02581" lon="1.10914">
        <ele>368.4</ele>
        <time>2024-06-24T15:01:05.993Z</time>
      </trkpt>
      <trkpt lat="43.02578" lon="1.10919">
        <ele>368.4</ele>
        <time>2024-06-24T15:01:06.993Z</time>
      </trkpt>
      <trkpt lat="43.02576" lon="1.10925">
        <ele>368.4</ele>
        <time>2024-06-24T15:01:07.993Z</time>
      </trkpt>
      <trkpt lat="43.02573" lon="1.10929">
        <ele>368.4</ele>
        <time>2024-06-24T15:01:08.993Z</time>
      </trkpt>
      <trkpt lat="43.0257" lon="1.10934">
        <ele>368.4</ele>
        <time>2024-06-24T15:01:09.993Z</time>
      </trkpt>
      <trkpt lat="43.02567" lon="1.1094">
        <ele>368.4</ele>
        <time>2024-06-24T15:01:10.993Z</time>
      </trkpt>
      <trkpt lat="43.02564" lon="1.10945">
        <ele>368.4</ele>
        <time>2024-06-24T15:01:11.993Z</time>
      </trkpt>
      <trkpt lat="43.02561" lon="1.10949">
        <ele>368.4</ele>
        <time>2024-06-24T15:01:12.993Z</time>
      </trkpt>
      <trkpt lat="43.02558" lon="1.10954">
        <ele>368.2</ele>
        <time>2024-06-24T15:01:13.993Z</time>
      </trkpt>
      <trkpt lat="43.02555" lon="1.10959">
        <ele>368.2</ele>
        <time>2024-06-24T15:01:14.993Z</time>
      </trkpt>
      <trkpt lat="43.02552" lon="1.10964">
        <ele>368.2</ele>
        <time>2024-06-24T15:01:15.993Z</time>
      </trkpt>
      <trkpt lat="43.02549" lon="1.10969">
        <ele>368.2</ele>
        <time>2024-06-24T15:01:16.993Z</time>
      </trkpt>
      <trkpt lat="43.02546" lon="1.10974">
        <ele>368.2</ele>
        <time>2024-06-24T15:01:17.993Z</time>
      </trkpt>
      <trkpt lat="43.02543" lon="1.10979">
        <ele>368.2</ele>
        <time>2024-06-24T15:01:18.993Z</time>
      </trkpt>
      <trkpt lat="43.02539" lon="1.10983">
        <ele>368.2</ele>
        <time>2024-06-24T15:01:19.993Z</time>
      </trkpt>
      <trkpt lat="43.02536" lon="1.10987">
        <ele>368.6</ele>
        <time>2024-06-24T15:01:20.993Z</time>
      </trkpt>
      <trkpt lat="43.02532" lon="1.10992">
        <ele>369</ele>
        <time>2024-06-24T15:01:21.993Z</time>
      </trkpt>
      <trkpt lat="43.02529" lon="1.10996">
        <ele>369.2</ele>
        <time>2024-06-24T15:01:22.993Z</time>
      </trkpt>
      <trkpt lat="43.02525" lon="1.11">
        <ele>369.2</ele>
        <time>2024-06-24T15:01:23.993Z</time>
      </trkpt>
      <trkpt lat="43.02521" lon="1.11003">
        <ele>369</ele>
        <time>2024-06-24T15:01:24.993Z</time>
      </trkpt>
      <trkpt lat="43.02517" lon="1.11006">
        <ele>369</ele>
        <time>2024-06-24T15:01:25.993Z</time>
      </trkpt>
      <trkpt lat="43.02512" lon="1.1101">
        <ele>368.8</ele>
        <time>2024-06-24T15:01:26.993Z</time>
      </trkpt>
      <trkpt lat="43.02508" lon="1.11013">
        <ele>368.8</ele>
        <time>2024-06-24T15:01:27.993Z</time>
      </trkpt>
      <trkpt lat="43.02504" lon="1.11016">
        <ele>368.8</ele>
        <time>2024-06-24T15:01:28.993Z</time>
      </trkpt>
      <trkpt lat="43.025" lon="1.1102">
        <ele>368.8</ele>
        <time>2024-06-24T15:01:29.993Z</time>
      </trkpt>
      <trkpt lat="43.02496" lon="1.11023">
        <ele>369</ele>
        <time>2024-06-24T15:01:30.993Z</time>
      </trkpt>
      <trkpt lat="43.02491" lon="1.11026">
        <ele>369.4</ele>
        <time>2024-06-24T15:01:31.993Z</time>
      </trkpt>
      <trkpt lat="43.02487" lon="1.11029">
        <ele>369.4</ele>
        <time>2024-06-24T15:01:32.993Z</time>
      </trkpt>
      <trkpt lat="43.02483" lon="1.11032">
        <ele>369.4</ele>
        <time>2024-06-24T15:01:33.993Z</time>
      </trkpt>
      <trkpt lat="43.02479" lon="1.11035">
        <ele>369.4</ele>
        <time>2024-06-24T15:01:34.993Z</time>
      </trkpt>
      <trkpt lat="43.02475" lon="1.11038">
        <ele>369.4</ele>
        <time>2024-06-24T15:01:35.993Z</time>
      </trkpt>
      <trkpt lat="43.02471" lon="1.11041">
        <ele>369.6</ele>
        <time>2024-06-24T15:01:36.993Z</time>
      </trkpt>
      <trkpt lat="43.02467" lon="1.11045">
        <ele>369.6</ele>
        <time>2024-06-24T15:01:37.993Z</time>
      </trkpt>
      <trkpt lat="43.02463" lon="1.11048">
        <ele>369.6</ele>
        <time>2024-06-24T15:01:38.993Z</time>
      </trkpt>
      <trkpt lat="43.02459" lon="1.11051">
        <ele>369.6</ele>
        <time>2024-06-24T15:01:39.993Z</time>
      </trkpt>
      <trkpt lat="43.02454" lon="1.11054">
        <ele>369.6</ele>
        <time>2024-06-24T15:01:40.993Z</time>
      </trkpt>
      <trkpt lat="43.0245" lon="1.11057">
        <ele>369.6</ele>
        <time>2024-06-24T15:01:41.993Z</time>
      </trkpt>
      <trkpt lat="43.02446" lon="1.1106">
        <ele>369.6</ele>
        <time>2024-06-24T15:01:42.993Z</time>
      </trkpt>
      <trkpt lat="43.02442" lon="1.11063">
        <ele>369.6</ele>
        <time>2024-06-24T15:01:43.993Z</time>
      </trkpt>
      <trkpt lat="43.02438" lon="1.11066">
        <ele>369.6</ele>
        <time>2024-06-24T15:01:44.993Z</time>
      </trkpt>
      <trkpt lat="43.02434" lon="1.11069">
        <ele>369.6</ele>
        <time>2024-06-24T15:01:45.993Z</time>
      </trkpt>
      <trkpt lat="43.0243" lon="1.11072">
        <ele>369.6</ele>
        <time>2024-06-24T15:01:46.993Z</time>
      </trkpt>
      <trkpt lat="43.02427" lon="1.11075">
        <ele>369.6</ele>
        <time>2024-06-24T15:01:47.993Z</time>
      </trkpt>
      <trkpt lat="43.02423" lon="1.11078">
        <ele>369.6</ele>
        <time>2024-06-24T15:01:48.993Z</time>
      </trkpt>
      <trkpt lat="43.02419" lon="1.11081">
        <ele>370</ele>
        <time>2024-06-24T15:01:49.993Z</time>
      </trkpt>
      <trkpt lat="43.02415" lon="1.11084">
        <ele>370</ele>
        <time>2024-06-24T15:01:50.993Z</time>
      </trkpt>
      <trkpt lat="43.02411" lon="1.11088">
        <ele>370</ele>
        <time>2024-06-24T15:01:51.993Z</time>
      </trkpt>
      <trkpt lat="43.02407" lon="1.11091">
        <ele>369.8</ele>
        <time>2024-06-24T15:01:52.993Z</time>
      </trkpt>
      <trkpt lat="43.02403" lon="1.11093">
        <ele>370.2</ele>
        <time>2024-06-24T15:01:53.993Z</time>
      </trkpt>
      <trkpt lat="43.02399" lon="1.11094">
        <ele>370</ele>
        <time>2024-06-24T15:01:54.993Z</time>
      </trkpt>
      <trkpt lat="43.02394" lon="1.11094">
        <ele>370.2</ele>
        <time>2024-06-24T15:01:55.993Z</time>
      </trkpt>
      <trkpt lat="43.0239" lon="1.11093">
        <ele>370.2</ele>
        <time>2024-06-24T15:01:56.993Z</time>
      </trkpt>
      <trkpt lat="43.02386" lon="1.11092">
        <ele>370.2</ele>
        <time>2024-06-24T15:01:57.993Z</time>
      </trkpt>
      <trkpt lat="43.02381" lon="1.11093">
        <ele>370.6</ele>
        <time>2024-06-24T15:01:58.993Z</time>
      </trkpt>
      <trkpt lat="43.02377" lon="1.11094">
        <ele>370.6</ele>
        <time>2024-06-24T15:01:59.993Z</time>
      </trkpt>
      <trkpt lat="43.02373" lon="1.11093">
        <ele>370.8</ele>
        <time>2024-06-24T15:02:00.993Z</time>
      </trkpt>
      <trkpt lat="43.02369" lon="1.11092">
        <ele>370.8</ele>
        <time>2024-06-24T15:02:01.993Z</time>
      </trkpt>
      <trkpt lat="43.02364" lon="1.11093">
        <ele>369.8</ele>
        <time>2024-06-24T15:02:02.993Z</time>
      </trkpt>
      <trkpt lat="43.0236" lon="1.11094">
        <ele>370.2</ele>
        <time>2024-06-24T15:02:03.993Z</time>
      </trkpt>
      <trkpt lat="43.02356" lon="1.11093">
        <ele>370.6</ele>
        <time>2024-06-24T15:02:04.993Z</time>
      </trkpt>
      <trkpt lat="43.02352" lon="1.11094">
        <ele>370.6</ele>
        <time>2024-06-24T15:02:05.993Z</time>
      </trkpt>
      <trkpt lat="43.02347" lon="1.11094">
        <ele>370.6</ele>
        <time>2024-06-24T15:02:06.993Z</time>
      </trkpt>
      <trkpt lat="43.02343" lon="1.11095">
        <ele>370.2</ele>
        <time>2024-06-24T15:02:07.993Z</time>
      </trkpt>
      <trkpt lat="43.02339" lon="1.11095">
        <ele>370.2</ele>
        <time>2024-06-24T15:02:08.993Z</time>
      </trkpt>
      <trkpt lat="43.02335" lon="1.11095">
        <ele>371.2</ele>
        <time>2024-06-24T15:02:09.993Z</time>
      </trkpt>
      <trkpt lat="43.02331" lon="1.11095">
        <ele>371.2</ele>
        <time>2024-06-24T15:02:10.993Z</time>
      </trkpt>
      <trkpt lat="43.02327" lon="1.11095">
        <ele>370</ele>
        <time>2024-06-24T15:02:11.993Z</time>
      </trkpt>
      <trkpt lat="43.02324" lon="1.11096">
        <ele>370.4</ele>
        <time>2024-06-24T15:02:12.993Z</time>
      </trkpt>
      <trkpt lat="43.02319" lon="1.11096">
        <ele>370.6</ele>
        <time>2024-06-24T15:02:13.993Z</time>
      </trkpt>
      <trkpt lat="43.02315" lon="1.11097">
        <ele>370</ele>
        <time>2024-06-24T15:02:14.993Z</time>
      </trkpt>
      <trkpt lat="43.02311" lon="1.11098">
        <ele>370</ele>
        <time>2024-06-24T15:02:15.993Z</time>
      </trkpt>
      <trkpt lat="43.02307" lon="1.11099">
        <ele>370</ele>
        <time>2024-06-24T15:02:16.993Z</time>
      </trkpt>
      <trkpt lat="43.02303" lon="1.11099">
        <ele>370</ele>
        <time>2024-06-24T15:02:17.993Z</time>
      </trkpt>
      <trkpt lat="43.02299" lon="1.11099">
        <ele>370.4</ele>
        <time>2024-06-24T15:02:18.993Z</time>
      </trkpt>
      <trkpt lat="43.02295" lon="1.11099">
        <ele>370</ele>
        <time>2024-06-24T15:02:19.993Z</time>
      </trkpt>
      <trkpt lat="43.02291" lon="1.11099">
        <ele>370.6</ele>
        <time>2024-06-24T15:02:20.993Z</time>
      </trkpt>
      <trkpt lat="43.02288" lon="1.11098">
        <ele>370.6</ele>
        <time>2024-06-24T15:02:21.993Z</time>
      </trkpt>
      <trkpt lat="43.02284" lon="1.11098">
        <ele>371</ele>
        <time>2024-06-24T15:02:22.993Z</time>
      </trkpt>
      <trkpt lat="43.02281" lon="1.11097">
        <ele>371</ele>
        <time>2024-06-24T15:02:23.993Z</time>
      </trkpt>
      <trkpt lat="43.02277" lon="1.11096">
        <ele>371.2</ele>
        <time>2024-06-24T15:02:24.993Z</time>
      </trkpt>
      <trkpt lat="43.02273" lon="1.11095">
        <ele>371.2</ele>
        <time>2024-06-24T15:02:25.993Z</time>
      </trkpt>
      <trkpt lat="43.02269" lon="1.11094">
        <ele>371.2</ele>
        <time>2024-06-24T15:02:26.993Z</time>
      </trkpt>
      <trkpt lat="43.02266" lon="1.11093">
        <ele>371.8</ele>
        <time>2024-06-24T15:02:27.993Z</time>
      </trkpt>
      <trkpt lat="43.02262" lon="1.11093">
        <ele>371.8</ele>
        <time>2024-06-24T15:02:28.993Z</time>
      </trkpt>
      <trkpt lat="43.02259" lon="1.11093">
        <ele>371.8</ele>
        <time>2024-06-24T15:02:29.993Z</time>
      </trkpt>
      <trkpt lat="43.02255" lon="1.11093">
        <ele>372</ele>
        <time>2024-06-24T15:02:30.993Z</time>
      </trkpt>
      <trkpt lat="43.02252" lon="1.11095">
        <ele>372</ele>
        <time>2024-06-24T15:02:31.993Z</time>
      </trkpt>
      <trkpt lat="43.02248" lon="1.11097">
        <ele>372</ele>
        <time>2024-06-24T15:02:32.993Z</time>
      </trkpt>
      <trkpt lat="43.02245" lon="1.111">
        <ele>372</ele>
        <time>2024-06-24T15:02:33.993Z</time>
      </trkpt>
      <trkpt lat="43.02242" lon="1.11102">
        <ele>372</ele>
        <time>2024-06-24T15:02:34.993Z</time>
      </trkpt>
      <trkpt lat="43.02238" lon="1.11105">
        <ele>372.4</ele>
        <time>2024-06-24T15:02:35.993Z</time>
      </trkpt>
      <trkpt lat="43.02235" lon="1.11107">
        <ele>372.2</ele>
        <time>2024-06-24T15:02:36.993Z</time>
      </trkpt>
      <trkpt lat="43.02232" lon="1.1111">
        <ele>372.2</ele>
        <time>2024-06-24T15:02:37.993Z</time>
      </trkpt>
      <trkpt lat="43.02228" lon="1.11112">
        <ele>372.2</ele>
        <time>2024-06-24T15:02:38.993Z</time>
      </trkpt>
      <trkpt lat="43.02225" lon="1.11115">
        <ele>372.2</ele>
        <time>2024-06-24T15:02:39.993Z</time>
      </trkpt>
      <trkpt lat="43.02222" lon="1.11117">
        <ele>372.2</ele>
        <time>2024-06-24T15:02:40.993Z</time>
      </trkpt>
      <trkpt lat="43.02218" lon="1.1112">
        <ele>372.2</ele>
        <time>2024-06-24T15:02:41.993Z</time>
      </trkpt>
      <trkpt lat="43.02215" lon="1.11122">
        <ele>372.2</ele>
        <time>2024-06-24T15:02:42.993Z</time>
      </trkpt>
      <trkpt lat="43.02212" lon="1.11124">
        <ele>372.2</ele>
        <time>2024-06-24T15:02:43.993Z</time>
      </trkpt>
      <trkpt lat="43.02208" lon="1.11126">
        <ele>372.2</ele>
        <time>2024-06-24T15:02:44.993Z</time>
      </trkpt>
      <trkpt lat="43.02205" lon="1.11127">
        <ele>372.2</ele>
        <time>2024-06-24T15:02:45.993Z</time>
      </trkpt>
      <trkpt lat="43.02202" lon="1.11129">
        <ele>372.2</ele>
        <time>2024-06-24T15:02:46.993Z</time>
      </trkpt>
      <trkpt lat="43.02198" lon="1.1113">
        <ele>372.4</ele>
        <time>2024-06-24T15:02:47.993Z</time>
      </trkpt>
      <trkpt lat="43.02195" lon="1.11131">
        <ele>372.8</ele>
        <time>2024-06-24T15:02:48.993Z</time>
      </trkpt>
      <trkpt lat="43.02191" lon="1.11132">
        <ele>373</ele>
        <time>2024-06-24T15:02:49.993Z</time>
      </trkpt>
      <trkpt lat="43.02188" lon="1.11133">
        <ele>372.6</ele>
        <time>2024-06-24T15:02:50.993Z</time>
      </trkpt>
      <trkpt lat="43.02184" lon="1.11134">
        <ele>372.6</ele>
        <time>2024-06-24T15:02:51.993Z</time>
      </trkpt>
      <trkpt lat="43.0218" lon="1.11134">
        <ele>372.6</ele>
        <time>2024-06-24T15:02:52.993Z</time>
      </trkpt>
      <trkpt lat="43.02176" lon="1.11135">
        <ele>372.6</ele>
        <time>2024-06-24T15:02:53.993Z</time>
      </trkpt>
      <trkpt lat="43.02172" lon="1.11136">
        <ele>373</ele>
        <time>2024-06-24T15:02:54.993Z</time>
      </trkpt>
      <trkpt lat="43.02169" lon="1.11137">
        <ele>373</ele>
        <time>2024-06-24T15:02:55.993Z</time>
      </trkpt>
      <trkpt lat="43.02165" lon="1.11137">
        <ele>372.4</ele>
        <time>2024-06-24T15:02:56.993Z</time>
      </trkpt>
      <trkpt lat="43.02161" lon="1.11138">
        <ele>372.4</ele>
        <time>2024-06-24T15:02:57.993Z</time>
      </trkpt>
      <trkpt lat="43.02157" lon="1.11138">
        <ele>373</ele>
        <time>2024-06-24T15:02:58.993Z</time>
      </trkpt>
      <trkpt lat="43.02153" lon="1.11138">
        <ele>373</ele>
        <time>2024-06-24T15:02:59.993Z</time>
      </trkpt>
      <trkpt lat="43.0215" lon="1.11139">
        <ele>373</ele>
        <time>2024-06-24T15:03:00.993Z</time>
      </trkpt>
      <trkpt lat="43.02147" lon="1.11139">
        <ele>372.6</ele>
        <time>2024-06-24T15:03:01.993Z</time>
      </trkpt>
      <trkpt lat="43.02143" lon="1.1114">
        <ele>372.6</ele>
        <time>2024-06-24T15:03:02.993Z</time>
      </trkpt>
      <trkpt lat="43.0214" lon="1.1114">
        <ele>371.8</ele>
        <time>2024-06-24T15:03:03.993Z</time>
      </trkpt>
      <trkpt lat="43.02136" lon="1.11141">
        <ele>371.8</ele>
        <time>2024-06-24T15:03:04.993Z</time>
      </trkpt>
      <trkpt lat="43.02132" lon="1.11142">
        <ele>371.8</ele>
        <time>2024-06-24T15:03:05.993Z</time>
      </trkpt>
      <trkpt lat="43.02128" lon="1.11143">
        <ele>371.8</ele>
        <time>2024-06-24T15:03:06.993Z</time>
      </trkpt>
      <trkpt lat="43.02125" lon="1.11144">
        <ele>371.8</ele>
        <time>2024-06-24T15:03:07.993Z</time>
      </trkpt>
      <trkpt lat="43.02121" lon="1.11145">
        <ele>371.8</ele>
        <time>2024-06-24T15:03:08.993Z</time>
      </trkpt>
      <trkpt lat="43.02117" lon="1.11146">
        <ele>371.8</ele>
        <time>2024-06-24T15:03:09.993Z</time>
      </trkpt>
      <trkpt lat="43.02114" lon="1.11148">
        <ele>371.8</ele>
        <time>2024-06-24T15:03:10.993Z</time>
      </trkpt>
      <trkpt lat="43.0211" lon="1.11149">
        <ele>372</ele>
        <time>2024-06-24T15:03:11.993Z</time>
      </trkpt>
      <trkpt lat="43.02106" lon="1.11151">
        <ele>372.2</ele>
        <time>2024-06-24T15:03:12.993Z</time>
      </trkpt>
      <trkpt lat="43.02102" lon="1.11152">
        <ele>372.6</ele>
        <time>2024-06-24T15:03:13.993Z</time>
      </trkpt>
      <trkpt lat="43.02099" lon="1.11154">
        <ele>372.6</ele>
        <time>2024-06-24T15:03:14.993Z</time>
      </trkpt>
      <trkpt lat="43.02095" lon="1.11156">
        <ele>372.6</ele>
        <time>2024-06-24T15:03:15.993Z</time>
      </trkpt>
      <trkpt lat="43.02091" lon="1.11158">
        <ele>372.4</ele>
        <time>2024-06-24T15:03:16.993Z</time>
      </trkpt>
      <trkpt lat="43.02087" lon="1.1116">
        <ele>371.8</ele>
        <time>2024-06-24T15:03:17.993Z</time>
      </trkpt>
      <trkpt lat="43.02083" lon="1.11162">
        <ele>372.4</ele>
        <time>2024-06-24T15:03:18.993Z</time>
      </trkpt>
      <trkpt lat="43.02079" lon="1.11163">
        <ele>372.4</ele>
        <time>2024-06-24T15:03:19.993Z</time>
      </trkpt>
      <trkpt lat="43.02075" lon="1.11165">
        <ele>372.4</ele>
        <time>2024-06-24T15:03:20.993Z</time>
      </trkpt>
      <trkpt lat="43.02071" lon="1.11167">
        <ele>372.4</ele>
        <time>2024-06-24T15:03:21.993Z</time>
      </trkpt>
      <trkpt lat="43.02067" lon="1.11168">
        <ele>372.4</ele>
        <time>2024-06-24T15:03:22.993Z</time>
      </trkpt>
      <trkpt lat="43.02063" lon="1.1117">
        <ele>372.8</ele>
        <time>2024-06-24T15:03:23.993Z</time>
      </trkpt>
      <trkpt lat="43.02059" lon="1.11172">
        <ele>372.8</ele>
        <time>2024-06-24T15:03:24.993Z</time>
      </trkpt>
      <trkpt lat="43.02056" lon="1.11174">
        <ele>372.8</ele>
        <time>2024-06-24T15:03:25.993Z</time>
      </trkpt>
      <trkpt lat="43.02052" lon="1.11176">
        <ele>373</ele>
        <time>2024-06-24T15:03:26.993Z</time>
      </trkpt>
      <trkpt lat="43.02048" lon="1.11177">
        <ele>372.6</ele>
        <time>2024-06-24T15:03:27.993Z</time>
      </trkpt>
      <trkpt lat="43.02044" lon="1.11179">
        <ele>373.4</ele>
        <time>2024-06-24T15:03:28.993Z</time>
      </trkpt>
      <trkpt lat="43.02041" lon="1.1118">
        <ele>373.4</ele>
        <time>2024-06-24T15:03:29.993Z</time>
      </trkpt>
      <trkpt lat="43.02037" lon="1.11181">
        <ele>373.4</ele>
        <time>2024-06-24T15:03:30.993Z</time>
      </trkpt>
      <trkpt lat="43.02033" lon="1.11183">
        <ele>373</ele>
        <time>2024-06-24T15:03:31.993Z</time>
      </trkpt>
      <trkpt lat="43.02029" lon="1.11184">
        <ele>373</ele>
        <time>2024-06-24T15:03:32.993Z</time>
      </trkpt>
      <trkpt lat="43.02026" lon="1.11186">
        <ele>373</ele>
        <time>2024-06-24T15:03:33.993Z</time>
      </trkpt>
      <trkpt lat="43.02022" lon="1.11187">
        <ele>373</ele>
        <time>2024-06-24T15:03:34.993Z</time>
      </trkpt>
      <trkpt lat="43.02018" lon="1.11187">
        <ele>373</ele>
        <time>2024-06-24T15:03:35.993Z</time>
      </trkpt>
      <trkpt lat="43.02015" lon="1.11187">
        <ele>373</ele>
        <time>2024-06-24T15:03:36.993Z</time>
      </trkpt>
      <trkpt lat="43.02012" lon="1.11186">
        <ele>372.6</ele>
        <time>2024-06-24T15:03:37.993Z</time>
      </trkpt>
      <trkpt lat="43.02009" lon="1.11179">
        <ele>373.2</ele>
        <time>2024-06-24T15:03:38.993Z</time>
      </trkpt>
      <trkpt lat="43.02007" lon="1.11176">
        <ele>373.2</ele>
        <time>2024-06-24T15:03:39.993Z</time>
      </trkpt>
      <trkpt lat="43.02004" lon="1.11172">
        <ele>373.2</ele>
        <time>2024-06-24T15:03:40.993Z</time>
      </trkpt>
      <trkpt lat="43.02002" lon="1.11168">
        <ele>372.6</ele>
        <time>2024-06-24T15:03:41.993Z</time>
      </trkpt>
      <trkpt lat="43.01999" lon="1.11164">
        <ele>372.6</ele>
        <time>2024-06-24T15:03:42.993Z</time>
      </trkpt>
      <trkpt lat="43.01996" lon="1.1116">
        <ele>373</ele>
        <time>2024-06-24T15:03:43.993Z</time>
      </trkpt>
      <trkpt lat="43.01994" lon="1.11155">
        <ele>372.6</ele>
        <time>2024-06-24T15:03:44.993Z</time>
      </trkpt>
      <trkpt lat="43.01991" lon="1.11152">
        <ele>372.6</ele>
        <time>2024-06-24T15:03:45.993Z</time>
      </trkpt>
      <trkpt lat="43.01988" lon="1.11147">
        <ele>372.6</ele>
        <time>2024-06-24T15:03:46.993Z</time>
      </trkpt>
      <trkpt lat="43.01985" lon="1.11143">
        <ele>373.2</ele>
        <time>2024-06-24T15:03:47.993Z</time>
      </trkpt>
      <trkpt lat="43.01982" lon="1.11139">
        <ele>372.8</ele>
        <time>2024-06-24T15:03:48.993Z</time>
      </trkpt>
      <trkpt lat="43.0198" lon="1.11135">
        <ele>372.6</ele>
        <time>2024-06-24T15:03:49.993Z</time>
      </trkpt>
      <trkpt lat="43.01977" lon="1.11131">
        <ele>371.8</ele>
        <time>2024-06-24T15:03:50.993Z</time>
      </trkpt>
      <trkpt lat="43.01975" lon="1.11127">
        <ele>371.8</ele>
        <time>2024-06-24T15:03:51.993Z</time>
      </trkpt>
      <trkpt lat="43.01972" lon="1.11124">
        <ele>371.8</ele>
        <time>2024-06-24T15:03:52.993Z</time>
      </trkpt>
      <trkpt lat="43.01969" lon="1.11122">
        <ele>371.8</ele>
        <time>2024-06-24T15:03:53.993Z</time>
      </trkpt>
      <trkpt lat="43.01966" lon="1.11122">
        <ele>371.8</ele>
        <time>2024-06-24T15:03:54.993Z</time>
      </trkpt>
      <trkpt lat="43.01962" lon="1.11125">
        <ele>371.8</ele>
        <time>2024-06-24T15:03:55.993Z</time>
      </trkpt>
      <trkpt lat="43.0196" lon="1.1113">
        <ele>372</ele>
        <time>2024-06-24T15:03:56.993Z</time>
      </trkpt>
      <trkpt lat="43.01958" lon="1.11135">
        <ele>372.4</ele>
        <time>2024-06-24T15:03:57.993Z</time>
      </trkpt>
      <trkpt lat="43.01956" lon="1.1114">
        <ele>372.4</ele>
        <time>2024-06-24T15:03:58.993Z</time>
      </trkpt>
      <trkpt lat="43.01954" lon="1.11145">
        <ele>372.4</ele>
        <time>2024-06-24T15:03:59.993Z</time>
      </trkpt>
      <trkpt lat="43.01952" lon="1.11149">
        <ele>372.4</ele>
        <time>2024-06-24T15:04:00.993Z</time>
      </trkpt>
      <trkpt lat="43.0195" lon="1.11154">
        <ele>372.4</ele>
        <time>2024-06-24T15:04:01.993Z</time>
      </trkpt>
      <trkpt lat="43.01947" lon="1.11158">
        <ele>372.4</ele>
        <time>2024-06-24T15:04:02.993Z</time>
      </trkpt>
      <trkpt lat="43.01945" lon="1.11163">
        <ele>372.6</ele>
        <time>2024-06-24T15:04:03.993Z</time>
      </trkpt>
      <trkpt lat="43.01943" lon="1.11167">
        <ele>372.6</ele>
        <time>2024-06-24T15:04:04.993Z</time>
      </trkpt>
      <trkpt lat="43.0194" lon="1.11172">
        <ele>373</ele>
        <time>2024-06-24T15:04:05.993Z</time>
      </trkpt>
      <trkpt lat="43.01938" lon="1.11176">
        <ele>373</ele>
        <time>2024-06-24T15:04:06.993Z</time>
      </trkpt>
      <trkpt lat="43.01935" lon="1.11179">
        <ele>373</ele>
        <time>2024-06-24T15:04:07.993Z</time>
      </trkpt>
      <trkpt lat="43.01932" lon="1.11183">
        <ele>373.4</ele>
        <time>2024-06-24T15:04:08.993Z</time>
      </trkpt>
      <trkpt lat="43.01929" lon="1.11186">
        <ele>373</ele>
        <time>2024-06-24T15:04:09.993Z</time>
      </trkpt>
      <trkpt lat="43.01926" lon="1.11189">
        <ele>373.4</ele>
        <time>2024-06-24T15:04:10.993Z</time>
      </trkpt>
      <trkpt lat="43.01922" lon="1.11192">
        <ele>373</ele>
        <time>2024-06-24T15:04:11.993Z</time>
      </trkpt>
      <trkpt lat="43.01919" lon="1.11194">
        <ele>373</ele>
        <time>2024-06-24T15:04:12.993Z</time>
      </trkpt>
      <trkpt lat="43.01915" lon="1.11197">
        <ele>373.4</ele>
        <time>2024-06-24T15:04:13.993Z</time>
      </trkpt>
      <trkpt lat="43.01912" lon="1.11199">
        <ele>373.4</ele>
        <time>2024-06-24T15:04:14.993Z</time>
      </trkpt>
      <trkpt lat="43.01909" lon="1.11202">
        <ele>373.2</ele>
        <time>2024-06-24T15:04:15.993Z</time>
      </trkpt>
      <trkpt lat="43.01905" lon="1.11205">
        <ele>373.2</ele>
        <time>2024-06-24T15:04:16.993Z</time>
      </trkpt>
      <trkpt lat="43.01902" lon="1.11207">
        <ele>373.2</ele>
        <time>2024-06-24T15:04:17.993Z</time>
      </trkpt>
      <trkpt lat="43.01898" lon="1.1121">
        <ele>372.8</ele>
        <time>2024-06-24T15:04:18.993Z</time>
      </trkpt>
      <trkpt lat="43.01895" lon="1.11212">
        <ele>373.2</ele>
        <time>2024-06-24T15:04:19.993Z</time>
      </trkpt>
      <trkpt lat="43.01891" lon="1.11214">
        <ele>373.2</ele>
        <time>2024-06-24T15:04:20.993Z</time>
      </trkpt>
      <trkpt lat="43.01888" lon="1.11216">
        <ele>373.6</ele>
        <time>2024-06-24T15:04:21.993Z</time>
      </trkpt>
      <trkpt lat="43.01884" lon="1.11218">
        <ele>373.2</ele>
        <time>2024-06-24T15:04:22.993Z</time>
      </trkpt>
      <trkpt lat="43.0188" lon="1.11219">
        <ele>373.4</ele>
        <time>2024-06-24T15:04:23.993Z</time>
      </trkpt>
      <trkpt lat="43.01876" lon="1.1122">
        <ele>373.4</ele>
        <time>2024-06-24T15:04:24.993Z</time>
      </trkpt>
      <trkpt lat="43.01872" lon="1.11222">
        <ele>373.8</ele>
        <time>2024-06-24T15:04:25.993Z</time>
      </trkpt>
      <trkpt lat="43.01868" lon="1.11223">
        <ele>373.4</ele>
        <time>2024-06-24T15:04:26.993Z</time>
      </trkpt>
      <trkpt lat="43.01864" lon="1.11225">
        <ele>373.6</ele>
        <time>2024-06-24T15:04:27.993Z</time>
      </trkpt>
      <trkpt lat="43.0186" lon="1.11227">
        <ele>373.4</ele>
        <time>2024-06-24T15:04:28.993Z</time>
      </trkpt>
      <trkpt lat="43.01856" lon="1.11229">
        <ele>373.8</ele>
        <time>2024-06-24T15:04:29.993Z</time>
      </trkpt>
      <trkpt lat="43.01852" lon="1.11232">
        <ele>373.8</ele>
        <time>2024-06-24T15:04:30.993Z</time>
      </trkpt>
      <trkpt lat="43.01848" lon="1.11233">
        <ele>374.2</ele>
        <time>2024-06-24T15:04:31.993Z</time>
      </trkpt>
      <trkpt lat="43.01844" lon="1.11234">
        <ele>374.2</ele>
        <time>2024-06-24T15:04:32.993Z</time>
      </trkpt>
      <trkpt lat="43.01841" lon="1.11235">
        <ele>374.2</ele>
        <time>2024-06-24T15:04:33.993Z</time>
      </trkpt>
      <trkpt lat="43.01837" lon="1.11237">
        <ele>374.2</ele>
        <time>2024-06-24T15:04:34.993Z</time>
      </trkpt>
      <trkpt lat="43.01834" lon="1.1124">
        <ele>374.2</ele>
        <time>2024-06-24T15:04:35.993Z</time>
      </trkpt>
      <trkpt lat="43.01831" lon="1.11242">
        <ele>374.2</ele>
        <time>2024-06-24T15:04:36.993Z</time>
      </trkpt>
      <trkpt lat="43.01827" lon="1.11243">
        <ele>374.4</ele>
        <time>2024-06-24T15:04:37.993Z</time>
      </trkpt>
      <trkpt lat="43.01824" lon="1.11244">
        <ele>374.4</ele>
        <time>2024-06-24T15:04:38.993Z</time>
      </trkpt>
      <trkpt lat="43.0182" lon="1.11245">
        <ele>374.4</ele>
        <time>2024-06-24T15:04:39.993Z</time>
      </trkpt>
      <trkpt lat="43.01816" lon="1.11244">
        <ele>374.6</ele>
        <time>2024-06-24T15:04:40.993Z</time>
      </trkpt>
      <trkpt lat="43.01812" lon="1.11247">
        <ele>374.6</ele>
        <time>2024-06-24T15:04:41.993Z</time>
      </trkpt>
      <trkpt lat="43.01807" lon="1.11248">
        <ele>374.6</ele>
        <time>2024-06-24T15:04:42.993Z</time>
      </trkpt>
      <trkpt lat="43.01803" lon="1.11249">
        <ele>374.6</ele>
        <time>2024-06-24T15:04:43.993Z</time>
      </trkpt>
      <trkpt lat="43.01799" lon="1.11249">
        <ele>374.8</ele>
        <time>2024-06-24T15:04:44.993Z</time>
      </trkpt>
      <trkpt lat="43.01796" lon="1.11249">
        <ele>374.8</ele>
        <time>2024-06-24T15:04:45.993Z</time>
      </trkpt>
      <trkpt lat="43.01793" lon="1.11247">
        <ele>375.4</ele>
        <time>2024-06-24T15:04:46.993Z</time>
      </trkpt>
      <trkpt lat="43.01789" lon="1.11247">
        <ele>375.4</ele>
        <time>2024-06-24T15:04:47.993Z</time>
      </trkpt>
      <trkpt lat="43.01785" lon="1.11246">
        <ele>375.4</ele>
        <time>2024-06-24T15:04:48.993Z</time>
      </trkpt>
      <trkpt lat="43.01781" lon="1.11245">
        <ele>375.4</ele>
        <time>2024-06-24T15:04:49.993Z</time>
      </trkpt>
      <trkpt lat="43.01778" lon="1.11244">
        <ele>375.4</ele>
        <time>2024-06-24T15:04:50.993Z</time>
      </trkpt>
      <trkpt lat="43.01774" lon="1.11243">
        <ele>375</ele>
        <time>2024-06-24T15:04:51.993Z</time>
      </trkpt>
      <trkpt lat="43.01771" lon="1.11243">
        <ele>375</ele>
        <time>2024-06-24T15:04:52.993Z</time>
      </trkpt>
      <trkpt lat="43.01768" lon="1.11243">
        <ele>375.4</ele>
        <time>2024-06-24T15:04:53.993Z</time>
      </trkpt>
      <trkpt lat="43.01764" lon="1.11243">
        <ele>375.4</ele>
        <time>2024-06-24T15:04:54.993Z</time>
      </trkpt>
      <trkpt lat="43.01761" lon="1.11242">
        <ele>376</ele>
        <time>2024-06-24T15:04:55.993Z</time>
      </trkpt>
      <trkpt lat="43.01757" lon="1.11242">
        <ele>376</ele>
        <time>2024-06-24T15:04:56.993Z</time>
      </trkpt>
      <trkpt lat="43.01754" lon="1.11241">
        <ele>376.4</ele>
        <time>2024-06-24T15:04:57.993Z</time>
      </trkpt>
      <trkpt lat="43.01751" lon="1.11241">
        <ele>376.4</ele>
        <time>2024-06-24T15:04:58.993Z</time>
      </trkpt>
      <trkpt lat="43.01748" lon="1.1124">
        <ele>376.4</ele>
        <time>2024-06-24T15:04:59.993Z</time>
      </trkpt>
      <trkpt lat="43.01745" lon="1.1124">
        <ele>376.8</ele>
        <time>2024-06-24T15:05:00.993Z</time>
      </trkpt>
      <trkpt lat="43.01741" lon="1.1124">
        <ele>376.8</ele>
        <time>2024-06-24T15:05:01.993Z</time>
      </trkpt>
      <trkpt lat="43.01738" lon="1.11239">
        <ele>377</ele>
        <time>2024-06-24T15:05:02.993Z</time>
      </trkpt>
      <trkpt lat="43.01735" lon="1.11238">
        <ele>376.8</ele>
        <time>2024-06-24T15:05:03.993Z</time>
      </trkpt>
      <trkpt lat="43.01731" lon="1.11238">
        <ele>376.8</ele>
        <time>2024-06-24T15:05:04.993Z</time>
      </trkpt>
      <trkpt lat="43.01727" lon="1.11238">
        <ele>377.2</ele>
        <time>2024-06-24T15:05:05.993Z</time>
      </trkpt>
      <trkpt lat="43.01724" lon="1.11238">
        <ele>376.6</ele>
        <time>2024-06-24T15:05:06.993Z</time>
      </trkpt>
      <trkpt lat="43.0172" lon="1.11238">
        <ele>376.6</ele>
        <time>2024-06-24T15:05:07.993Z</time>
      </trkpt>
      <trkpt lat="43.01717" lon="1.11238">
        <ele>377.2</ele>
        <time>2024-06-24T15:05:08.993Z</time>
      </trkpt>
      <trkpt lat="43.01713" lon="1.11238">
        <ele>377.4</ele>
        <time>2024-06-24T15:05:09.993Z</time>
      </trkpt>
      <trkpt lat="43.0171" lon="1.11238">
        <ele>377.4</ele>
        <time>2024-06-24T15:05:10.993Z</time>
      </trkpt>
      <trkpt lat="43.01707" lon="1.11237">
        <ele>378</ele>
        <time>2024-06-24T15:05:11.993Z</time>
      </trkpt>
      <trkpt lat="43.01703" lon="1.11236">
        <ele>378</ele>
        <time>2024-06-24T15:05:12.993Z</time>
      </trkpt>
      <trkpt lat="43.017" lon="1.11235">
        <ele>378</ele>
        <time>2024-06-24T15:05:13.993Z</time>
      </trkpt>
      <trkpt lat="43.01697" lon="1.11233">
        <ele>378</ele>
        <time>2024-06-24T15:05:14.993Z</time>
      </trkpt>
      <trkpt lat="43.01694" lon="1.1123">
        <ele>378</ele>
        <time>2024-06-24T15:05:15.993Z</time>
      </trkpt>
      <trkpt lat="43.01691" lon="1.11228">
        <ele>378</ele>
        <time>2024-06-24T15:05:16.993Z</time>
      </trkpt>
      <trkpt lat="43.01688" lon="1.11225">
        <ele>378.2</ele>
        <time>2024-06-24T15:05:17.993Z</time>
      </trkpt>
      <trkpt lat="43.01685" lon="1.11221">
        <ele>378.2</ele>
        <time>2024-06-24T15:05:18.993Z</time>
      </trkpt>
      <trkpt lat="43.01683" lon="1.11218">
        <ele>378.2</ele>
        <time>2024-06-24T15:05:19.993Z</time>
      </trkpt>
      <trkpt lat="43.01681" lon="1.11215">
        <ele>378.2</ele>
        <time>2024-06-24T15:05:20.993Z</time>
      </trkpt>
      <trkpt lat="43.01679" lon="1.11212">
        <ele>378.6</ele>
        <time>2024-06-24T15:05:21.993Z</time>
      </trkpt>
      <trkpt lat="43.01677" lon="1.11208">
        <ele>378.6</ele>
        <time>2024-06-24T15:05:22.993Z</time>
      </trkpt>
      <trkpt lat="43.01674" lon="1.11206">
        <ele>378.6</ele>
        <time>2024-06-24T15:05:23.993Z</time>
      </trkpt>
      <trkpt lat="43.01671" lon="1.11205">
        <ele>378.6</ele>
        <time>2024-06-24T15:05:24.993Z</time>
      </trkpt>
      <trkpt lat="43.01668" lon="1.11207">
        <ele>371.3</ele>
        <time>2024-06-24T15:05:25.579Z</time>
      </trkpt>
      <trkpt lat="43.01463" lon="1.11434">
        <ele>371.3</ele>
        <time>2024-06-24T15:06:22.288Z</time>
      </trkpt>
      <trkpt lat="43.01373" lon="1.11536">
        <ele>369.8</ele>
        <time>2024-06-24T15:06:47.440Z</time>
      </trkpt>
      <trkpt lat="43.01287" lon="1.11652">
        <ele>371</ele>
        <time>2024-06-24T15:07:13.315Z</time>
      </trkpt>
      <trkpt lat="43.01276" lon="1.11669">
        <ele>370.8</ele>
        <time>2024-06-24T15:07:16.824Z</time>
      </trkpt>
      <trkpt lat="43.0115" lon="1.11888">
        <ele>374.3</ele>
        <time>2024-06-24T15:08:00.646Z</time>
      </trkpt>
      <trkpt lat="43.0111" lon="1.11969">
        <ele>375.3</ele>
        <time>2024-06-24T15:08:16.017Z</time>
      </trkpt>
      <trkpt lat="43.01103" lon="1.11983">
        <ele>375.5</ele>
        <time>2024-06-24T15:08:18.644Z</time>
      </trkpt>
    </trkseg>
  </trk>
</gpx>